<?xml version="1.0" encoding="UTF-8" standalone="no" ?>
<gpx xmlns="http://www.topografix.com/GPX/1/1" xmlns:xsi="http://www.w3.org/2001/XMLSchema-instance" xsi:schemaLocation="http://www.topografix.com/GPX/1/1 http://www.topografix.com/GPX/1/1/gpx.xsd" version="1.1" creator="VisuGPX - https://www.visugpx.com">
  <metadata>
    <name>chemin de traverse olima </name>
  </metadata>
  <trk>
    <name><![CDATA[chemin de traverse olima on AllTrails]]></name>
    <trkseg>
      <trkpt lat="48.16881" lon="6.41892">
        <ele>366</ele>
        <time>2022-09-26T12:04:02Z</time>
      </trkpt>
      <trkpt lat="48.16881" lon="6.41892">
        <ele>366</ele>
        <time>2022-09-26T12:04:03Z</time>
      </trkpt>
      <trkpt lat="48.16881" lon="6.41892">
        <ele>366</ele>
        <time>2022-09-26T12:04:04Z</time>
      </trkpt>
      <trkpt lat="48.16881" lon="6.41891">
        <ele>366</ele>
        <time>2022-09-26T12:04:18Z</time>
      </trkpt>
      <trkpt lat="48.16881" lon="6.41891">
        <ele>366</ele>
        <time>2022-09-26T12:04:19Z</time>
      </trkpt>
      <trkpt lat="48.16888" lon="6.41909">
        <ele>363</ele>
        <time>2022-09-26T12:06:46Z</time>
      </trkpt>
      <trkpt lat="48.16889" lon="6.41913">
        <ele>363</ele>
        <time>2022-09-26T12:06:47Z</time>
      </trkpt>
      <trkpt lat="48.16889" lon="6.41916">
        <ele>363</ele>
        <time>2022-09-26T12:06:48Z</time>
      </trkpt>
      <trkpt lat="48.16889" lon="6.4192">
        <ele>362</ele>
        <time>2022-09-26T12:06:49Z</time>
      </trkpt>
      <trkpt lat="48.1689" lon="6.41925">
        <ele>362</ele>
        <time>2022-09-26T12:06:50Z</time>
      </trkpt>
      <trkpt lat="48.16889" lon="6.41928">
        <ele>362</ele>
        <time>2022-09-26T12:06:51Z</time>
      </trkpt>
      <trkpt lat="48.16889" lon="6.41934">
        <ele>361</ele>
        <time>2022-09-26T12:06:52Z</time>
      </trkpt>
      <trkpt lat="48.16889" lon="6.4194">
        <ele>361</ele>
        <time>2022-09-26T12:06:53Z</time>
      </trkpt>
      <trkpt lat="48.1689" lon="6.41945">
        <ele>360</ele>
        <time>2022-09-26T12:06:54Z</time>
      </trkpt>
      <trkpt lat="48.1689" lon="6.41949">
        <ele>360</ele>
        <time>2022-09-26T12:06:55Z</time>
      </trkpt>
      <trkpt lat="48.1689" lon="6.41952">
        <ele>360</ele>
        <time>2022-09-26T12:06:56Z</time>
      </trkpt>
      <trkpt lat="48.16889" lon="6.41955">
        <ele>360</ele>
        <time>2022-09-26T12:06:57Z</time>
      </trkpt>
      <trkpt lat="48.16888" lon="6.41958">
        <ele>360</ele>
        <time>2022-09-26T12:06:58Z</time>
      </trkpt>
      <trkpt lat="48.16886" lon="6.41961">
        <ele>360</ele>
        <time>2022-09-26T12:06:59Z</time>
      </trkpt>
      <trkpt lat="48.16883" lon="6.41963">
        <ele>360</ele>
        <time>2022-09-26T12:07:00Z</time>
      </trkpt>
      <trkpt lat="48.16882" lon="6.41964">
        <ele>360</ele>
        <time>2022-09-26T12:07:01Z</time>
      </trkpt>
      <trkpt lat="48.16881" lon="6.41965">
        <ele>360</ele>
        <time>2022-09-26T12:07:02Z</time>
      </trkpt>
      <trkpt lat="48.1688" lon="6.41967">
        <ele>360</ele>
        <time>2022-09-26T12:07:03Z</time>
      </trkpt>
      <trkpt lat="48.16879" lon="6.41969">
        <ele>360</ele>
        <time>2022-09-26T12:07:04Z</time>
      </trkpt>
      <trkpt lat="48.16877" lon="6.4197">
        <ele>361</ele>
        <time>2022-09-26T12:07:05Z</time>
      </trkpt>
      <trkpt lat="48.16875" lon="6.41971">
        <ele>361</ele>
        <time>2022-09-26T12:07:06Z</time>
      </trkpt>
      <trkpt lat="48.16873" lon="6.41971">
        <ele>361</ele>
        <time>2022-09-26T12:07:07Z</time>
      </trkpt>
      <trkpt lat="48.16869" lon="6.41969">
        <ele>362</ele>
        <time>2022-09-26T12:07:08Z</time>
      </trkpt>
      <trkpt lat="48.16866" lon="6.41966">
        <ele>363</ele>
        <time>2022-09-26T12:07:09Z</time>
      </trkpt>
      <trkpt lat="48.16865" lon="6.41963">
        <ele>363</ele>
        <time>2022-09-26T12:07:10Z</time>
      </trkpt>
      <trkpt lat="48.16863" lon="6.41962">
        <ele>364</ele>
        <time>2022-09-26T12:07:11Z</time>
      </trkpt>
      <trkpt lat="48.16861" lon="6.41959">
        <ele>364</ele>
        <time>2022-09-26T12:07:12Z</time>
      </trkpt>
      <trkpt lat="48.1686" lon="6.41957">
        <ele>364</ele>
        <time>2022-09-26T12:07:13Z</time>
      </trkpt>
      <trkpt lat="48.16859" lon="6.41956">
        <ele>365</ele>
        <time>2022-09-26T12:07:14Z</time>
      </trkpt>
      <trkpt lat="48.16857" lon="6.41954">
        <ele>365</ele>
        <time>2022-09-26T12:07:15Z</time>
      </trkpt>
      <trkpt lat="48.16855" lon="6.41952">
        <ele>367</ele>
        <time>2022-09-26T12:07:16Z</time>
      </trkpt>
      <trkpt lat="48.16854" lon="6.41951">
        <ele>367</ele>
        <time>2022-09-26T12:07:17Z</time>
      </trkpt>
      <trkpt lat="48.16852" lon="6.4195">
        <ele>367</ele>
        <time>2022-09-26T12:07:18Z</time>
      </trkpt>
      <trkpt lat="48.16849" lon="6.41946">
        <ele>369</ele>
        <time>2022-09-26T12:07:19Z</time>
      </trkpt>
      <trkpt lat="48.16847" lon="6.41943">
        <ele>370</ele>
        <time>2022-09-26T12:07:20Z</time>
      </trkpt>
      <trkpt lat="48.16845" lon="6.4194">
        <ele>370</ele>
        <time>2022-09-26T12:07:21Z</time>
      </trkpt>
      <trkpt lat="48.16842" lon="6.41939">
        <ele>371</ele>
        <time>2022-09-26T12:07:22Z</time>
      </trkpt>
      <trkpt lat="48.1684" lon="6.41937">
        <ele>372</ele>
        <time>2022-09-26T12:07:23Z</time>
      </trkpt>
      <trkpt lat="48.16836" lon="6.41934">
        <ele>374</ele>
        <time>2022-09-26T12:07:24Z</time>
      </trkpt>
      <trkpt lat="48.16833" lon="6.41931">
        <ele>374</ele>
        <time>2022-09-26T12:07:25Z</time>
      </trkpt>
      <trkpt lat="48.1683" lon="6.41928">
        <ele>375</ele>
        <time>2022-09-26T12:07:26Z</time>
      </trkpt>
      <trkpt lat="48.16826" lon="6.41925">
        <ele>376</ele>
        <time>2022-09-26T12:07:27Z</time>
      </trkpt>
      <trkpt lat="48.16824" lon="6.4192">
        <ele>376</ele>
        <time>2022-09-26T12:07:28Z</time>
      </trkpt>
      <trkpt lat="48.16822" lon="6.41917">
        <ele>377</ele>
        <time>2022-09-26T12:07:29Z</time>
      </trkpt>
      <trkpt lat="48.1682" lon="6.41913">
        <ele>377</ele>
        <time>2022-09-26T12:07:30Z</time>
      </trkpt>
      <trkpt lat="48.16818" lon="6.41908">
        <ele>376</ele>
        <time>2022-09-26T12:07:31Z</time>
      </trkpt>
      <trkpt lat="48.16816" lon="6.41905">
        <ele>376</ele>
        <time>2022-09-26T12:07:32Z</time>
      </trkpt>
      <trkpt lat="48.16814" lon="6.41904">
        <ele>377</ele>
        <time>2022-09-26T12:07:33Z</time>
      </trkpt>
      <trkpt lat="48.16812" lon="6.41901">
        <ele>377</ele>
        <time>2022-09-26T12:07:34Z</time>
      </trkpt>
      <trkpt lat="48.16809" lon="6.41896">
        <ele>377</ele>
        <time>2022-09-26T12:07:35Z</time>
      </trkpt>
      <trkpt lat="48.16807" lon="6.41893">
        <ele>377</ele>
        <time>2022-09-26T12:07:36Z</time>
      </trkpt>
      <trkpt lat="48.16805" lon="6.41891">
        <ele>377</ele>
        <time>2022-09-26T12:07:37Z</time>
      </trkpt>
      <trkpt lat="48.16803" lon="6.41889">
        <ele>377</ele>
        <time>2022-09-26T12:07:38Z</time>
      </trkpt>
      <trkpt lat="48.16799" lon="6.41885">
        <ele>376</ele>
        <time>2022-09-26T12:07:39Z</time>
      </trkpt>
      <trkpt lat="48.16796" lon="6.41882">
        <ele>376</ele>
        <time>2022-09-26T12:07:40Z</time>
      </trkpt>
      <trkpt lat="48.16792" lon="6.41877">
        <ele>375</ele>
        <time>2022-09-26T12:07:41Z</time>
      </trkpt>
      <trkpt lat="48.16789" lon="6.41875">
        <ele>375</ele>
        <time>2022-09-26T12:07:42Z</time>
      </trkpt>
      <trkpt lat="48.16787" lon="6.41876">
        <ele>375</ele>
        <time>2022-09-26T12:07:43Z</time>
      </trkpt>
      <trkpt lat="48.16784" lon="6.41876">
        <ele>375</ele>
        <time>2022-09-26T12:07:44Z</time>
      </trkpt>
      <trkpt lat="48.1678" lon="6.41876">
        <ele>375</ele>
        <time>2022-09-26T12:07:45Z</time>
      </trkpt>
      <trkpt lat="48.16777" lon="6.41875">
        <ele>375</ele>
        <time>2022-09-26T12:07:46Z</time>
      </trkpt>
      <trkpt lat="48.16774" lon="6.41873">
        <ele>375</ele>
        <time>2022-09-26T12:07:47Z</time>
      </trkpt>
      <trkpt lat="48.16772" lon="6.4187">
        <ele>375</ele>
        <time>2022-09-26T12:07:48Z</time>
      </trkpt>
      <trkpt lat="48.1677" lon="6.41867">
        <ele>375</ele>
        <time>2022-09-26T12:07:49Z</time>
      </trkpt>
      <trkpt lat="48.16768" lon="6.41866">
        <ele>375</ele>
        <time>2022-09-26T12:07:50Z</time>
      </trkpt>
      <trkpt lat="48.16766" lon="6.41865">
        <ele>375</ele>
        <time>2022-09-26T12:07:51Z</time>
      </trkpt>
      <trkpt lat="48.16764" lon="6.41864">
        <ele>375</ele>
        <time>2022-09-26T12:07:52Z</time>
      </trkpt>
      <trkpt lat="48.16762" lon="6.41862">
        <ele>375</ele>
        <time>2022-09-26T12:07:53Z</time>
      </trkpt>
      <trkpt lat="48.1676" lon="6.4186">
        <ele>376</ele>
        <time>2022-09-26T12:07:54Z</time>
      </trkpt>
      <trkpt lat="48.16758" lon="6.41859">
        <ele>376</ele>
        <time>2022-09-26T12:07:55Z</time>
      </trkpt>
      <trkpt lat="48.16755" lon="6.41858">
        <ele>376</ele>
        <time>2022-09-26T12:07:56Z</time>
      </trkpt>
      <trkpt lat="48.16753" lon="6.41856">
        <ele>376</ele>
        <time>2022-09-26T12:07:57Z</time>
      </trkpt>
      <trkpt lat="48.16751" lon="6.41854">
        <ele>376</ele>
        <time>2022-09-26T12:07:58Z</time>
      </trkpt>
      <trkpt lat="48.1675" lon="6.41852">
        <ele>376</ele>
        <time>2022-09-26T12:07:59Z</time>
      </trkpt>
      <trkpt lat="48.16748" lon="6.4185">
        <ele>376</ele>
        <time>2022-09-26T12:08:00Z</time>
      </trkpt>
      <trkpt lat="48.16746" lon="6.41849">
        <ele>377</ele>
        <time>2022-09-26T12:08:01Z</time>
      </trkpt>
      <trkpt lat="48.16744" lon="6.41848">
        <ele>377</ele>
        <time>2022-09-26T12:08:02Z</time>
      </trkpt>
      <trkpt lat="48.16742" lon="6.41846">
        <ele>378</ele>
        <time>2022-09-26T12:08:03Z</time>
      </trkpt>
      <trkpt lat="48.1674" lon="6.41843">
        <ele>378</ele>
        <time>2022-09-26T12:08:04Z</time>
      </trkpt>
      <trkpt lat="48.16737" lon="6.4184">
        <ele>378</ele>
        <time>2022-09-26T12:08:05Z</time>
      </trkpt>
      <trkpt lat="48.16735" lon="6.41837">
        <ele>379</ele>
        <time>2022-09-26T12:08:06Z</time>
      </trkpt>
      <trkpt lat="48.16732" lon="6.41834">
        <ele>379</ele>
        <time>2022-09-26T12:08:07Z</time>
      </trkpt>
      <trkpt lat="48.1673" lon="6.41828">
        <ele>379</ele>
        <time>2022-09-26T12:08:08Z</time>
      </trkpt>
      <trkpt lat="48.16728" lon="6.41823">
        <ele>379</ele>
        <time>2022-09-26T12:08:09Z</time>
      </trkpt>
      <trkpt lat="48.16726" lon="6.4182">
        <ele>380</ele>
        <time>2022-09-26T12:08:10Z</time>
      </trkpt>
      <trkpt lat="48.16723" lon="6.41818">
        <ele>380</ele>
        <time>2022-09-26T12:08:11Z</time>
      </trkpt>
      <trkpt lat="48.16721" lon="6.41815">
        <ele>380</ele>
        <time>2022-09-26T12:08:12Z</time>
      </trkpt>
      <trkpt lat="48.16719" lon="6.41813">
        <ele>380</ele>
        <time>2022-09-26T12:08:13Z</time>
      </trkpt>
      <trkpt lat="48.16716" lon="6.4181">
        <ele>380</ele>
        <time>2022-09-26T12:08:14Z</time>
      </trkpt>
      <trkpt lat="48.16713" lon="6.41808">
        <ele>380</ele>
        <time>2022-09-26T12:08:15Z</time>
      </trkpt>
      <trkpt lat="48.1671" lon="6.41806">
        <ele>381</ele>
        <time>2022-09-26T12:08:16Z</time>
      </trkpt>
      <trkpt lat="48.16706" lon="6.41802">
        <ele>381</ele>
        <time>2022-09-26T12:08:17Z</time>
      </trkpt>
      <trkpt lat="48.16703" lon="6.41799">
        <ele>381</ele>
        <time>2022-09-26T12:08:18Z</time>
      </trkpt>
      <trkpt lat="48.167" lon="6.41796">
        <ele>381</ele>
        <time>2022-09-26T12:08:19Z</time>
      </trkpt>
      <trkpt lat="48.16696" lon="6.41794">
        <ele>381</ele>
        <time>2022-09-26T12:08:20Z</time>
      </trkpt>
      <trkpt lat="48.16694" lon="6.41792">
        <ele>382</ele>
        <time>2022-09-26T12:08:21Z</time>
      </trkpt>
      <trkpt lat="48.1669" lon="6.41789">
        <ele>382</ele>
        <time>2022-09-26T12:08:22Z</time>
      </trkpt>
      <trkpt lat="48.16687" lon="6.41787">
        <ele>382</ele>
        <time>2022-09-26T12:08:23Z</time>
      </trkpt>
      <trkpt lat="48.16684" lon="6.41785">
        <ele>382</ele>
        <time>2022-09-26T12:08:24Z</time>
      </trkpt>
      <trkpt lat="48.16681" lon="6.41781">
        <ele>382</ele>
        <time>2022-09-26T12:08:25Z</time>
      </trkpt>
      <trkpt lat="48.16677" lon="6.41777">
        <ele>382</ele>
        <time>2022-09-26T12:08:26Z</time>
      </trkpt>
      <trkpt lat="48.16674" lon="6.41772">
        <ele>382</ele>
        <time>2022-09-26T12:08:27Z</time>
      </trkpt>
      <trkpt lat="48.16671" lon="6.41769">
        <ele>382</ele>
        <time>2022-09-26T12:08:28Z</time>
      </trkpt>
      <trkpt lat="48.16668" lon="6.41766">
        <ele>382</ele>
        <time>2022-09-26T12:08:29Z</time>
      </trkpt>
      <trkpt lat="48.16665" lon="6.41762">
        <ele>382</ele>
        <time>2022-09-26T12:08:30Z</time>
      </trkpt>
      <trkpt lat="48.16662" lon="6.41758">
        <ele>383</ele>
        <time>2022-09-26T12:08:31Z</time>
      </trkpt>
      <trkpt lat="48.16659" lon="6.41756">
        <ele>383</ele>
        <time>2022-09-26T12:08:32Z</time>
      </trkpt>
      <trkpt lat="48.16656" lon="6.41754">
        <ele>384</ele>
        <time>2022-09-26T12:08:33Z</time>
      </trkpt>
      <trkpt lat="48.16653" lon="6.41752">
        <ele>384</ele>
        <time>2022-09-26T12:08:34Z</time>
      </trkpt>
      <trkpt lat="48.16651" lon="6.4175">
        <ele>384</ele>
        <time>2022-09-26T12:08:35Z</time>
      </trkpt>
      <trkpt lat="48.16649" lon="6.41748">
        <ele>384</ele>
        <time>2022-09-26T12:08:36Z</time>
      </trkpt>
      <trkpt lat="48.16648" lon="6.41745">
        <ele>384</ele>
        <time>2022-09-26T12:08:37Z</time>
      </trkpt>
      <trkpt lat="48.16647" lon="6.41742">
        <ele>384</ele>
        <time>2022-09-26T12:08:38Z</time>
      </trkpt>
      <trkpt lat="48.16645" lon="6.41739">
        <ele>384</ele>
        <time>2022-09-26T12:08:39Z</time>
      </trkpt>
      <trkpt lat="48.16643" lon="6.41736">
        <ele>384</ele>
        <time>2022-09-26T12:08:40Z</time>
      </trkpt>
      <trkpt lat="48.16641" lon="6.41735">
        <ele>384</ele>
        <time>2022-09-26T12:08:41Z</time>
      </trkpt>
      <trkpt lat="48.16638" lon="6.41733">
        <ele>384</ele>
        <time>2022-09-26T12:08:42Z</time>
      </trkpt>
      <trkpt lat="48.16636" lon="6.41732">
        <ele>384</ele>
        <time>2022-09-26T12:08:43Z</time>
      </trkpt>
      <trkpt lat="48.16634" lon="6.4173">
        <ele>384</ele>
        <time>2022-09-26T12:08:44Z</time>
      </trkpt>
      <trkpt lat="48.16631" lon="6.41728">
        <ele>384</ele>
        <time>2022-09-26T12:08:45Z</time>
      </trkpt>
      <trkpt lat="48.16628" lon="6.41727">
        <ele>384</ele>
        <time>2022-09-26T12:08:46Z</time>
      </trkpt>
      <trkpt lat="48.16625" lon="6.41725">
        <ele>384</ele>
        <time>2022-09-26T12:08:47Z</time>
      </trkpt>
      <trkpt lat="48.16622" lon="6.41723">
        <ele>384</ele>
        <time>2022-09-26T12:08:48Z</time>
      </trkpt>
      <trkpt lat="48.16621" lon="6.41721">
        <ele>384</ele>
        <time>2022-09-26T12:08:49Z</time>
      </trkpt>
      <trkpt lat="48.16619" lon="6.41719">
        <ele>383</ele>
        <time>2022-09-26T12:08:50Z</time>
      </trkpt>
      <trkpt lat="48.16618" lon="6.41716">
        <ele>382</ele>
        <time>2022-09-26T12:08:51Z</time>
      </trkpt>
      <trkpt lat="48.16615" lon="6.41713">
        <ele>382</ele>
        <time>2022-09-26T12:08:52Z</time>
      </trkpt>
      <trkpt lat="48.16612" lon="6.41711">
        <ele>382</ele>
        <time>2022-09-26T12:08:53Z</time>
      </trkpt>
      <trkpt lat="48.16609" lon="6.4171">
        <ele>382</ele>
        <time>2022-09-26T12:08:54Z</time>
      </trkpt>
      <trkpt lat="48.16606" lon="6.41709">
        <ele>382</ele>
        <time>2022-09-26T12:08:55Z</time>
      </trkpt>
      <trkpt lat="48.16604" lon="6.41708">
        <ele>383</ele>
        <time>2022-09-26T12:08:56Z</time>
      </trkpt>
      <trkpt lat="48.166" lon="6.41706">
        <ele>384</ele>
        <time>2022-09-26T12:08:57Z</time>
      </trkpt>
      <trkpt lat="48.16596" lon="6.41704">
        <ele>384</ele>
        <time>2022-09-26T12:08:58Z</time>
      </trkpt>
      <trkpt lat="48.16593" lon="6.41702">
        <ele>384</ele>
        <time>2022-09-26T12:08:59Z</time>
      </trkpt>
      <trkpt lat="48.16591" lon="6.417">
        <ele>385</ele>
        <time>2022-09-26T12:09:00Z</time>
      </trkpt>
      <trkpt lat="48.16588" lon="6.41698">
        <ele>385</ele>
        <time>2022-09-26T12:09:01Z</time>
      </trkpt>
      <trkpt lat="48.16586" lon="6.41696">
        <ele>385</ele>
        <time>2022-09-26T12:09:02Z</time>
      </trkpt>
      <trkpt lat="48.16584" lon="6.41694">
        <ele>385</ele>
        <time>2022-09-26T12:09:03Z</time>
      </trkpt>
      <trkpt lat="48.16581" lon="6.41692">
        <ele>386</ele>
        <time>2022-09-26T12:09:04Z</time>
      </trkpt>
      <trkpt lat="48.16578" lon="6.4169">
        <ele>386</ele>
        <time>2022-09-26T12:09:05Z</time>
      </trkpt>
      <trkpt lat="48.16574" lon="6.41687">
        <ele>387</ele>
        <time>2022-09-26T12:09:06Z</time>
      </trkpt>
      <trkpt lat="48.1657" lon="6.41684">
        <ele>388</ele>
        <time>2022-09-26T12:09:07Z</time>
      </trkpt>
      <trkpt lat="48.16567" lon="6.41682">
        <ele>389</ele>
        <time>2022-09-26T12:09:08Z</time>
      </trkpt>
      <trkpt lat="48.16564" lon="6.4168">
        <ele>389</ele>
        <time>2022-09-26T12:09:09Z</time>
      </trkpt>
      <trkpt lat="48.16561" lon="6.41678">
        <ele>390</ele>
        <time>2022-09-26T12:09:10Z</time>
      </trkpt>
      <trkpt lat="48.16558" lon="6.41675">
        <ele>391</ele>
        <time>2022-09-26T12:09:11Z</time>
      </trkpt>
      <trkpt lat="48.16555" lon="6.41673">
        <ele>391</ele>
        <time>2022-09-26T12:09:12Z</time>
      </trkpt>
      <trkpt lat="48.16553" lon="6.4167">
        <ele>391</ele>
        <time>2022-09-26T12:09:13Z</time>
      </trkpt>
      <trkpt lat="48.1655" lon="6.41667">
        <ele>392</ele>
        <time>2022-09-26T12:09:14Z</time>
      </trkpt>
      <trkpt lat="48.16547" lon="6.41664">
        <ele>393</ele>
        <time>2022-09-26T12:09:15Z</time>
      </trkpt>
      <trkpt lat="48.16543" lon="6.41661">
        <ele>393</ele>
        <time>2022-09-26T12:09:16Z</time>
      </trkpt>
      <trkpt lat="48.1654" lon="6.41657">
        <ele>394</ele>
        <time>2022-09-26T12:09:17Z</time>
      </trkpt>
      <trkpt lat="48.16537" lon="6.41653">
        <ele>394</ele>
        <time>2022-09-26T12:09:18Z</time>
      </trkpt>
      <trkpt lat="48.16534" lon="6.41648">
        <ele>394</ele>
        <time>2022-09-26T12:09:19Z</time>
      </trkpt>
      <trkpt lat="48.16532" lon="6.41644">
        <ele>393</ele>
        <time>2022-09-26T12:09:20Z</time>
      </trkpt>
      <trkpt lat="48.16531" lon="6.41638">
        <ele>392</ele>
        <time>2022-09-26T12:09:21Z</time>
      </trkpt>
      <trkpt lat="48.1653" lon="6.41634">
        <ele>392</ele>
        <time>2022-09-26T12:09:22Z</time>
      </trkpt>
      <trkpt lat="48.16529" lon="6.41631">
        <ele>391</ele>
        <time>2022-09-26T12:09:23Z</time>
      </trkpt>
      <trkpt lat="48.16527" lon="6.41629">
        <ele>391</ele>
        <time>2022-09-26T12:09:24Z</time>
      </trkpt>
      <trkpt lat="48.16526" lon="6.41626">
        <ele>391</ele>
        <time>2022-09-26T12:09:25Z</time>
      </trkpt>
      <trkpt lat="48.16524" lon="6.4162">
        <ele>390</ele>
        <time>2022-09-26T12:09:26Z</time>
      </trkpt>
      <trkpt lat="48.16522" lon="6.41613">
        <ele>388</ele>
        <time>2022-09-26T12:09:27Z</time>
      </trkpt>
      <trkpt lat="48.1652" lon="6.41607">
        <ele>387</ele>
        <time>2022-09-26T12:09:28Z</time>
      </trkpt>
      <trkpt lat="48.16518" lon="6.41601">
        <ele>386</ele>
        <time>2022-09-26T12:09:29Z</time>
      </trkpt>
      <trkpt lat="48.16515" lon="6.41595">
        <ele>385</ele>
        <time>2022-09-26T12:09:30Z</time>
      </trkpt>
      <trkpt lat="48.16513" lon="6.41591">
        <ele>385</ele>
        <time>2022-09-26T12:09:31Z</time>
      </trkpt>
      <trkpt lat="48.16511" lon="6.41589">
        <ele>385</ele>
        <time>2022-09-26T12:09:32Z</time>
      </trkpt>
      <trkpt lat="48.16507" lon="6.41585">
        <ele>385</ele>
        <time>2022-09-26T12:09:33Z</time>
      </trkpt>
      <trkpt lat="48.16503" lon="6.41582">
        <ele>385</ele>
        <time>2022-09-26T12:09:34Z</time>
      </trkpt>
      <trkpt lat="48.165" lon="6.4158">
        <ele>385</ele>
        <time>2022-09-26T12:09:35Z</time>
      </trkpt>
      <trkpt lat="48.16495" lon="6.41576">
        <ele>385</ele>
        <time>2022-09-26T12:09:36Z</time>
      </trkpt>
      <trkpt lat="48.16491" lon="6.41572">
        <ele>386</ele>
        <time>2022-09-26T12:09:37Z</time>
      </trkpt>
      <trkpt lat="48.16487" lon="6.41568">
        <ele>386</ele>
        <time>2022-09-26T12:09:38Z</time>
      </trkpt>
      <trkpt lat="48.16483" lon="6.41565">
        <ele>387</ele>
        <time>2022-09-26T12:09:39Z</time>
      </trkpt>
      <trkpt lat="48.16478" lon="6.4156">
        <ele>387</ele>
        <time>2022-09-26T12:09:40Z</time>
      </trkpt>
      <trkpt lat="48.16474" lon="6.41558">
        <ele>387</ele>
        <time>2022-09-26T12:09:41Z</time>
      </trkpt>
      <trkpt lat="48.1647" lon="6.41555">
        <ele>388</ele>
        <time>2022-09-26T12:09:42Z</time>
      </trkpt>
      <trkpt lat="48.16466" lon="6.41551">
        <ele>390</ele>
        <time>2022-09-26T12:09:43Z</time>
      </trkpt>
      <trkpt lat="48.16462" lon="6.41547">
        <ele>390</ele>
        <time>2022-09-26T12:09:44Z</time>
      </trkpt>
      <trkpt lat="48.16459" lon="6.41543">
        <ele>391</ele>
        <time>2022-09-26T12:09:45Z</time>
      </trkpt>
      <trkpt lat="48.16456" lon="6.41539">
        <ele>392</ele>
        <time>2022-09-26T12:09:46Z</time>
      </trkpt>
      <trkpt lat="48.16453" lon="6.41536">
        <ele>393</ele>
        <time>2022-09-26T12:09:47Z</time>
      </trkpt>
      <trkpt lat="48.1645" lon="6.41532">
        <ele>393</ele>
        <time>2022-09-26T12:09:48Z</time>
      </trkpt>
      <trkpt lat="48.16447" lon="6.41527">
        <ele>393</ele>
        <time>2022-09-26T12:09:49Z</time>
      </trkpt>
      <trkpt lat="48.16444" lon="6.41525">
        <ele>394</ele>
        <time>2022-09-26T12:09:50Z</time>
      </trkpt>
      <trkpt lat="48.16441" lon="6.41522">
        <ele>395</ele>
        <time>2022-09-26T12:09:51Z</time>
      </trkpt>
      <trkpt lat="48.16438" lon="6.4152">
        <ele>396</ele>
        <time>2022-09-26T12:09:52Z</time>
      </trkpt>
      <trkpt lat="48.16435" lon="6.41518">
        <ele>397</ele>
        <time>2022-09-26T12:09:53Z</time>
      </trkpt>
      <trkpt lat="48.16432" lon="6.41514">
        <ele>397</ele>
        <time>2022-09-26T12:09:54Z</time>
      </trkpt>
      <trkpt lat="48.16429" lon="6.41509">
        <ele>397</ele>
        <time>2022-09-26T12:09:55Z</time>
      </trkpt>
      <trkpt lat="48.16426" lon="6.41506">
        <ele>398</ele>
        <time>2022-09-26T12:09:56Z</time>
      </trkpt>
      <trkpt lat="48.16424" lon="6.41505">
        <ele>399</ele>
        <time>2022-09-26T12:09:57Z</time>
      </trkpt>
      <trkpt lat="48.16421" lon="6.41502">
        <ele>399</ele>
        <time>2022-09-26T12:09:58Z</time>
      </trkpt>
      <trkpt lat="48.16418" lon="6.41499">
        <ele>400</ele>
        <time>2022-09-26T12:09:59Z</time>
      </trkpt>
      <trkpt lat="48.16415" lon="6.41496">
        <ele>400</ele>
        <time>2022-09-26T12:10:00Z</time>
      </trkpt>
      <trkpt lat="48.16412" lon="6.41493">
        <ele>400</ele>
        <time>2022-09-26T12:10:01Z</time>
      </trkpt>
      <trkpt lat="48.16409" lon="6.41489">
        <ele>399</ele>
        <time>2022-09-26T12:10:02Z</time>
      </trkpt>
      <trkpt lat="48.16406" lon="6.41486">
        <ele>399</ele>
        <time>2022-09-26T12:10:03Z</time>
      </trkpt>
      <trkpt lat="48.16402" lon="6.41484">
        <ele>399</ele>
        <time>2022-09-26T12:10:04Z</time>
      </trkpt>
      <trkpt lat="48.16398" lon="6.41481">
        <ele>399</ele>
        <time>2022-09-26T12:10:05Z</time>
      </trkpt>
      <trkpt lat="48.16395" lon="6.41478">
        <ele>398</ele>
        <time>2022-09-26T12:10:06Z</time>
      </trkpt>
      <trkpt lat="48.16392" lon="6.41475">
        <ele>398</ele>
        <time>2022-09-26T12:10:07Z</time>
      </trkpt>
      <trkpt lat="48.1639" lon="6.41471">
        <ele>397</ele>
        <time>2022-09-26T12:10:08Z</time>
      </trkpt>
      <trkpt lat="48.16388" lon="6.41469">
        <ele>397</ele>
        <time>2022-09-26T12:10:09Z</time>
      </trkpt>
      <trkpt lat="48.16385" lon="6.41467">
        <ele>396</ele>
        <time>2022-09-26T12:10:10Z</time>
      </trkpt>
      <trkpt lat="48.16383" lon="6.41466">
        <ele>396</ele>
        <time>2022-09-26T12:10:11Z</time>
      </trkpt>
      <trkpt lat="48.1638" lon="6.41465">
        <ele>396</ele>
        <time>2022-09-26T12:10:12Z</time>
      </trkpt>
      <trkpt lat="48.16377" lon="6.41465">
        <ele>396</ele>
        <time>2022-09-26T12:10:13Z</time>
      </trkpt>
      <trkpt lat="48.16374" lon="6.41464">
        <ele>396</ele>
        <time>2022-09-26T12:10:14Z</time>
      </trkpt>
      <trkpt lat="48.16371" lon="6.41464">
        <ele>396</ele>
        <time>2022-09-26T12:10:15Z</time>
      </trkpt>
      <trkpt lat="48.16367" lon="6.41463">
        <ele>396</ele>
        <time>2022-09-26T12:10:16Z</time>
      </trkpt>
      <trkpt lat="48.16364" lon="6.41462">
        <ele>397</ele>
        <time>2022-09-26T12:10:17Z</time>
      </trkpt>
      <trkpt lat="48.1636" lon="6.41461">
        <ele>396</ele>
        <time>2022-09-26T12:10:18Z</time>
      </trkpt>
      <trkpt lat="48.16358" lon="6.4146">
        <ele>396</ele>
        <time>2022-09-26T12:10:19Z</time>
      </trkpt>
      <trkpt lat="48.16355" lon="6.4146">
        <ele>396</ele>
        <time>2022-09-26T12:10:20Z</time>
      </trkpt>
      <trkpt lat="48.16352" lon="6.41459">
        <ele>395</ele>
        <time>2022-09-26T12:10:21Z</time>
      </trkpt>
      <trkpt lat="48.16349" lon="6.41459">
        <ele>395</ele>
        <time>2022-09-26T12:10:22Z</time>
      </trkpt>
      <trkpt lat="48.16346" lon="6.41459">
        <ele>395</ele>
        <time>2022-09-26T12:10:23Z</time>
      </trkpt>
      <trkpt lat="48.16343" lon="6.41459">
        <ele>395</ele>
        <time>2022-09-26T12:10:24Z</time>
      </trkpt>
      <trkpt lat="48.1634" lon="6.41459">
        <ele>395</ele>
        <time>2022-09-26T12:10:25Z</time>
      </trkpt>
      <trkpt lat="48.16339" lon="6.4146">
        <ele>395</ele>
        <time>2022-09-26T12:10:26Z</time>
      </trkpt>
      <trkpt lat="48.16337" lon="6.41459">
        <ele>394</ele>
        <time>2022-09-26T12:10:27Z</time>
      </trkpt>
      <trkpt lat="48.16336" lon="6.41459">
        <ele>394</ele>
        <time>2022-09-26T12:10:28Z</time>
      </trkpt>
      <trkpt lat="48.16334" lon="6.4146">
        <ele>394</ele>
        <time>2022-09-26T12:10:29Z</time>
      </trkpt>
      <trkpt lat="48.16333" lon="6.4146">
        <ele>394</ele>
        <time>2022-09-26T12:10:30Z</time>
      </trkpt>
      <trkpt lat="48.16331" lon="6.4146">
        <ele>394</ele>
        <time>2022-09-26T12:10:31Z</time>
      </trkpt>
      <trkpt lat="48.16329" lon="6.41461">
        <ele>395</ele>
        <time>2022-09-26T12:10:32Z</time>
      </trkpt>
      <trkpt lat="48.16327" lon="6.41462">
        <ele>395</ele>
        <time>2022-09-26T12:10:33Z</time>
      </trkpt>
      <trkpt lat="48.16325" lon="6.41464">
        <ele>395</ele>
        <time>2022-09-26T12:10:34Z</time>
      </trkpt>
      <trkpt lat="48.16323" lon="6.41465">
        <ele>395</ele>
        <time>2022-09-26T12:10:35Z</time>
      </trkpt>
      <trkpt lat="48.16321" lon="6.41466">
        <ele>395</ele>
        <time>2022-09-26T12:10:36Z</time>
      </trkpt>
      <trkpt lat="48.16319" lon="6.41468">
        <ele>396</ele>
        <time>2022-09-26T12:10:37Z</time>
      </trkpt>
      <trkpt lat="48.16317" lon="6.41469">
        <ele>396</ele>
        <time>2022-09-26T12:10:38Z</time>
      </trkpt>
      <trkpt lat="48.16314" lon="6.41471">
        <ele>396</ele>
        <time>2022-09-26T12:10:39Z</time>
      </trkpt>
      <trkpt lat="48.16312" lon="6.41474">
        <ele>396</ele>
        <time>2022-09-26T12:10:40Z</time>
      </trkpt>
      <trkpt lat="48.1631" lon="6.41476">
        <ele>397</ele>
        <time>2022-09-26T12:10:41Z</time>
      </trkpt>
      <trkpt lat="48.16307" lon="6.41478">
        <ele>397</ele>
        <time>2022-09-26T12:10:42Z</time>
      </trkpt>
      <trkpt lat="48.16305" lon="6.4148">
        <ele>397</ele>
        <time>2022-09-26T12:10:43Z</time>
      </trkpt>
      <trkpt lat="48.16302" lon="6.41482">
        <ele>397</ele>
        <time>2022-09-26T12:10:44Z</time>
      </trkpt>
      <trkpt lat="48.16299" lon="6.41483">
        <ele>397</ele>
        <time>2022-09-26T12:10:45Z</time>
      </trkpt>
      <trkpt lat="48.16297" lon="6.41486">
        <ele>397</ele>
        <time>2022-09-26T12:10:46Z</time>
      </trkpt>
      <trkpt lat="48.16293" lon="6.41488">
        <ele>397</ele>
        <time>2022-09-26T12:10:47Z</time>
      </trkpt>
      <trkpt lat="48.1629" lon="6.4149">
        <ele>397</ele>
        <time>2022-09-26T12:10:48Z</time>
      </trkpt>
      <trkpt lat="48.16288" lon="6.41493">
        <ele>397</ele>
        <time>2022-09-26T12:10:49Z</time>
      </trkpt>
      <trkpt lat="48.16285" lon="6.41496">
        <ele>397</ele>
        <time>2022-09-26T12:10:50Z</time>
      </trkpt>
      <trkpt lat="48.16282" lon="6.41499">
        <ele>397</ele>
        <time>2022-09-26T12:10:51Z</time>
      </trkpt>
      <trkpt lat="48.1628" lon="6.41503">
        <ele>398</ele>
        <time>2022-09-26T12:10:52Z</time>
      </trkpt>
      <trkpt lat="48.16278" lon="6.41505">
        <ele>398</ele>
        <time>2022-09-26T12:10:53Z</time>
      </trkpt>
      <trkpt lat="48.16276" lon="6.41505">
        <ele>398</ele>
        <time>2022-09-26T12:10:54Z</time>
      </trkpt>
      <trkpt lat="48.16274" lon="6.41508">
        <ele>398</ele>
        <time>2022-09-26T12:10:55Z</time>
      </trkpt>
      <trkpt lat="48.16271" lon="6.41512">
        <ele>399</ele>
        <time>2022-09-26T12:10:56Z</time>
      </trkpt>
      <trkpt lat="48.16268" lon="6.41516">
        <ele>399</ele>
        <time>2022-09-26T12:10:57Z</time>
      </trkpt>
      <trkpt lat="48.16266" lon="6.41519">
        <ele>400</ele>
        <time>2022-09-26T12:10:58Z</time>
      </trkpt>
      <trkpt lat="48.16263" lon="6.41523">
        <ele>400</ele>
        <time>2022-09-26T12:10:59Z</time>
      </trkpt>
      <trkpt lat="48.1626" lon="6.41527">
        <ele>400</ele>
        <time>2022-09-26T12:11:00Z</time>
      </trkpt>
      <trkpt lat="48.16257" lon="6.4153">
        <ele>401</ele>
        <time>2022-09-26T12:11:01Z</time>
      </trkpt>
      <trkpt lat="48.16255" lon="6.41534">
        <ele>401</ele>
        <time>2022-09-26T12:11:02Z</time>
      </trkpt>
      <trkpt lat="48.16252" lon="6.41536">
        <ele>401</ele>
        <time>2022-09-26T12:11:03Z</time>
      </trkpt>
      <trkpt lat="48.16249" lon="6.41538">
        <ele>401</ele>
        <time>2022-09-26T12:11:04Z</time>
      </trkpt>
      <trkpt lat="48.16246" lon="6.4154">
        <ele>401</ele>
        <time>2022-09-26T12:11:05Z</time>
      </trkpt>
      <trkpt lat="48.16243" lon="6.41542">
        <ele>401</ele>
        <time>2022-09-26T12:11:06Z</time>
      </trkpt>
      <trkpt lat="48.1624" lon="6.41544">
        <ele>401</ele>
        <time>2022-09-26T12:11:07Z</time>
      </trkpt>
      <trkpt lat="48.16239" lon="6.41545">
        <ele>401</ele>
        <time>2022-09-26T12:11:08Z</time>
      </trkpt>
      <trkpt lat="48.16236" lon="6.41547">
        <ele>401</ele>
        <time>2022-09-26T12:11:09Z</time>
      </trkpt>
      <trkpt lat="48.16233" lon="6.4155">
        <ele>401</ele>
        <time>2022-09-26T12:11:10Z</time>
      </trkpt>
      <trkpt lat="48.16232" lon="6.41553">
        <ele>401</ele>
        <time>2022-09-26T12:11:11Z</time>
      </trkpt>
      <trkpt lat="48.1623" lon="6.41556">
        <ele>402</ele>
        <time>2022-09-26T12:11:12Z</time>
      </trkpt>
      <trkpt lat="48.16228" lon="6.41558">
        <ele>402</ele>
        <time>2022-09-26T12:11:13Z</time>
      </trkpt>
      <trkpt lat="48.16226" lon="6.41561">
        <ele>402</ele>
        <time>2022-09-26T12:11:14Z</time>
      </trkpt>
      <trkpt lat="48.16223" lon="6.41564">
        <ele>402</ele>
        <time>2022-09-26T12:11:15Z</time>
      </trkpt>
      <trkpt lat="48.16222" lon="6.41566">
        <ele>402</ele>
        <time>2022-09-26T12:11:16Z</time>
      </trkpt>
      <trkpt lat="48.1622" lon="6.41568">
        <ele>403</ele>
        <time>2022-09-26T12:11:17Z</time>
      </trkpt>
      <trkpt lat="48.16217" lon="6.41569">
        <ele>403</ele>
        <time>2022-09-26T12:11:18Z</time>
      </trkpt>
      <trkpt lat="48.16215" lon="6.41572">
        <ele>403</ele>
        <time>2022-09-26T12:11:19Z</time>
      </trkpt>
      <trkpt lat="48.16212" lon="6.41574">
        <ele>403</ele>
        <time>2022-09-26T12:11:20Z</time>
      </trkpt>
      <trkpt lat="48.16209" lon="6.41576">
        <ele>403</ele>
        <time>2022-09-26T12:11:21Z</time>
      </trkpt>
      <trkpt lat="48.16206" lon="6.41577">
        <ele>403</ele>
        <time>2022-09-26T12:11:22Z</time>
      </trkpt>
      <trkpt lat="48.16203" lon="6.41578">
        <ele>403</ele>
        <time>2022-09-26T12:11:23Z</time>
      </trkpt>
      <trkpt lat="48.16201" lon="6.41579">
        <ele>403</ele>
        <time>2022-09-26T12:11:24Z</time>
      </trkpt>
      <trkpt lat="48.16199" lon="6.41579">
        <ele>402</ele>
        <time>2022-09-26T12:11:25Z</time>
      </trkpt>
      <trkpt lat="48.16197" lon="6.4158">
        <ele>402</ele>
        <time>2022-09-26T12:11:26Z</time>
      </trkpt>
      <trkpt lat="48.16195" lon="6.41582">
        <ele>402</ele>
        <time>2022-09-26T12:11:27Z</time>
      </trkpt>
      <trkpt lat="48.16193" lon="6.41584">
        <ele>402</ele>
        <time>2022-09-26T12:11:28Z</time>
      </trkpt>
      <trkpt lat="48.16191" lon="6.41584">
        <ele>402</ele>
        <time>2022-09-26T12:11:29Z</time>
      </trkpt>
      <trkpt lat="48.16188" lon="6.41583">
        <ele>401</ele>
        <time>2022-09-26T12:11:30Z</time>
      </trkpt>
      <trkpt lat="48.16185" lon="6.41581">
        <ele>401</ele>
        <time>2022-09-26T12:11:31Z</time>
      </trkpt>
      <trkpt lat="48.16183" lon="6.41579">
        <ele>400</ele>
        <time>2022-09-26T12:11:32Z</time>
      </trkpt>
      <trkpt lat="48.16183" lon="6.41575">
        <ele>399</ele>
        <time>2022-09-26T12:11:33Z</time>
      </trkpt>
      <trkpt lat="48.16184" lon="6.41572">
        <ele>399</ele>
        <time>2022-09-26T12:11:34Z</time>
      </trkpt>
      <trkpt lat="48.16186" lon="6.4157">
        <ele>398</ele>
        <time>2022-09-26T12:11:35Z</time>
      </trkpt>
      <trkpt lat="48.16188" lon="6.41566">
        <ele>398</ele>
        <time>2022-09-26T12:11:36Z</time>
      </trkpt>
      <trkpt lat="48.1619" lon="6.41562">
        <ele>397</ele>
        <time>2022-09-26T12:11:37Z</time>
      </trkpt>
      <trkpt lat="48.16195" lon="6.41551">
        <ele>395</ele>
        <time>2022-09-26T12:11:38Z</time>
      </trkpt>
      <trkpt lat="48.16197" lon="6.41547">
        <ele>395</ele>
        <time>2022-09-26T12:11:39Z</time>
      </trkpt>
      <trkpt lat="48.16198" lon="6.41543">
        <ele>395</ele>
        <time>2022-09-26T12:11:40Z</time>
      </trkpt>
      <trkpt lat="48.16201" lon="6.41545">
        <ele>395</ele>
        <time>2022-09-26T12:11:41Z</time>
      </trkpt>
      <trkpt lat="48.16203" lon="6.4154">
        <ele>395</ele>
        <time>2022-09-26T12:11:42Z</time>
      </trkpt>
      <trkpt lat="48.16204" lon="6.41532">
        <ele>394</ele>
        <time>2022-09-26T12:11:43Z</time>
      </trkpt>
      <trkpt lat="48.16206" lon="6.41529">
        <ele>393</ele>
        <time>2022-09-26T12:11:44Z</time>
      </trkpt>
      <trkpt lat="48.16209" lon="6.41526">
        <ele>393</ele>
        <time>2022-09-26T12:11:45Z</time>
      </trkpt>
      <trkpt lat="48.16211" lon="6.41522">
        <ele>393</ele>
        <time>2022-09-26T12:11:46Z</time>
      </trkpt>
      <trkpt lat="48.16213" lon="6.41517">
        <ele>392</ele>
        <time>2022-09-26T12:11:47Z</time>
      </trkpt>
      <trkpt lat="48.16222" lon="6.41511">
        <ele>391</ele>
        <time>2022-09-26T12:11:48Z</time>
      </trkpt>
      <trkpt lat="48.16225" lon="6.41507">
        <ele>391</ele>
        <time>2022-09-26T12:11:49Z</time>
      </trkpt>
      <trkpt lat="48.16227" lon="6.41502">
        <ele>391</ele>
        <time>2022-09-26T12:11:50Z</time>
      </trkpt>
      <trkpt lat="48.1623" lon="6.41498">
        <ele>391</ele>
        <time>2022-09-26T12:11:51Z</time>
      </trkpt>
      <trkpt lat="48.1623" lon="6.41492">
        <ele>391</ele>
        <time>2022-09-26T12:11:52Z</time>
      </trkpt>
      <trkpt lat="48.16232" lon="6.41486">
        <ele>391</ele>
        <time>2022-09-26T12:11:53Z</time>
      </trkpt>
      <trkpt lat="48.16232" lon="6.41479">
        <ele>391</ele>
        <time>2022-09-26T12:11:54Z</time>
      </trkpt>
      <trkpt lat="48.16232" lon="6.41473">
        <ele>391</ele>
        <time>2022-09-26T12:11:55Z</time>
      </trkpt>
      <trkpt lat="48.16234" lon="6.41467">
        <ele>391</ele>
        <time>2022-09-26T12:11:56Z</time>
      </trkpt>
      <trkpt lat="48.16235" lon="6.4146">
        <ele>392</ele>
        <time>2022-09-26T12:11:57Z</time>
      </trkpt>
      <trkpt lat="48.16238" lon="6.41453">
        <ele>392</ele>
        <time>2022-09-26T12:11:58Z</time>
      </trkpt>
      <trkpt lat="48.1624" lon="6.41448">
        <ele>391</ele>
        <time>2022-09-26T12:11:59Z</time>
      </trkpt>
      <trkpt lat="48.16243" lon="6.41442">
        <ele>391</ele>
        <time>2022-09-26T12:12:00Z</time>
      </trkpt>
      <trkpt lat="48.16244" lon="6.4144">
        <ele>391</ele>
        <time>2022-09-26T12:12:01Z</time>
      </trkpt>
      <trkpt lat="48.1625" lon="6.41434">
        <ele>390</ele>
        <time>2022-09-26T12:12:02Z</time>
      </trkpt>
      <trkpt lat="48.16249" lon="6.41429">
        <ele>390</ele>
        <time>2022-09-26T12:12:03Z</time>
      </trkpt>
      <trkpt lat="48.1625" lon="6.41424">
        <ele>390</ele>
        <time>2022-09-26T12:12:04Z</time>
      </trkpt>
      <trkpt lat="48.16251" lon="6.41419">
        <ele>390</ele>
        <time>2022-09-26T12:12:05Z</time>
      </trkpt>
      <trkpt lat="48.16252" lon="6.41415">
        <ele>391</ele>
        <time>2022-09-26T12:12:06Z</time>
      </trkpt>
      <trkpt lat="48.16254" lon="6.41411">
        <ele>391</ele>
        <time>2022-09-26T12:12:07Z</time>
      </trkpt>
      <trkpt lat="48.16256" lon="6.41406">
        <ele>391</ele>
        <time>2022-09-26T12:12:08Z</time>
      </trkpt>
      <trkpt lat="48.16259" lon="6.41403">
        <ele>391</ele>
        <time>2022-09-26T12:12:09Z</time>
      </trkpt>
      <trkpt lat="48.16265" lon="6.41398">
        <ele>390</ele>
        <time>2022-09-26T12:12:10Z</time>
      </trkpt>
      <trkpt lat="48.16271" lon="6.41395">
        <ele>389</ele>
        <time>2022-09-26T12:12:11Z</time>
      </trkpt>
      <trkpt lat="48.16277" lon="6.41392">
        <ele>389</ele>
        <time>2022-09-26T12:12:12Z</time>
      </trkpt>
      <trkpt lat="48.16282" lon="6.4139">
        <ele>388</ele>
        <time>2022-09-26T12:12:13Z</time>
      </trkpt>
      <trkpt lat="48.16287" lon="6.41386">
        <ele>388</ele>
        <time>2022-09-26T12:12:14Z</time>
      </trkpt>
      <trkpt lat="48.16288" lon="6.41384">
        <ele>388</ele>
        <time>2022-09-26T12:12:15Z</time>
      </trkpt>
      <trkpt lat="48.16292" lon="6.4138">
        <ele>388</ele>
        <time>2022-09-26T12:12:16Z</time>
      </trkpt>
      <trkpt lat="48.16296" lon="6.41377">
        <ele>388</ele>
        <time>2022-09-26T12:12:17Z</time>
      </trkpt>
      <trkpt lat="48.16299" lon="6.41374">
        <ele>388</ele>
        <time>2022-09-26T12:12:18Z</time>
      </trkpt>
      <trkpt lat="48.16302" lon="6.41371">
        <ele>388</ele>
        <time>2022-09-26T12:12:19Z</time>
      </trkpt>
      <trkpt lat="48.16305" lon="6.41369">
        <ele>388</ele>
        <time>2022-09-26T12:12:20Z</time>
      </trkpt>
      <trkpt lat="48.16308" lon="6.41367">
        <ele>388</ele>
        <time>2022-09-26T12:12:21Z</time>
      </trkpt>
      <trkpt lat="48.16311" lon="6.41365">
        <ele>388</ele>
        <time>2022-09-26T12:12:22Z</time>
      </trkpt>
      <trkpt lat="48.16314" lon="6.41362">
        <ele>388</ele>
        <time>2022-09-26T12:12:23Z</time>
      </trkpt>
      <trkpt lat="48.16316" lon="6.41361">
        <ele>388</ele>
        <time>2022-09-26T12:12:24Z</time>
      </trkpt>
      <trkpt lat="48.16319" lon="6.4136">
        <ele>388</ele>
        <time>2022-09-26T12:12:25Z</time>
      </trkpt>
      <trkpt lat="48.16322" lon="6.41359">
        <ele>387</ele>
        <time>2022-09-26T12:12:26Z</time>
      </trkpt>
      <trkpt lat="48.16326" lon="6.41356">
        <ele>387</ele>
        <time>2022-09-26T12:12:27Z</time>
      </trkpt>
      <trkpt lat="48.16329" lon="6.41353">
        <ele>387</ele>
        <time>2022-09-26T12:12:28Z</time>
      </trkpt>
      <trkpt lat="48.16334" lon="6.41351">
        <ele>387</ele>
        <time>2022-09-26T12:12:29Z</time>
      </trkpt>
      <trkpt lat="48.16337" lon="6.41348">
        <ele>387</ele>
        <time>2022-09-26T12:12:30Z</time>
      </trkpt>
      <trkpt lat="48.16341" lon="6.41345">
        <ele>386</ele>
        <time>2022-09-26T12:12:31Z</time>
      </trkpt>
      <trkpt lat="48.16345" lon="6.41343">
        <ele>386</ele>
        <time>2022-09-26T12:12:32Z</time>
      </trkpt>
      <trkpt lat="48.16346" lon="6.41341">
        <ele>386</ele>
        <time>2022-09-26T12:12:33Z</time>
      </trkpt>
      <trkpt lat="48.16349" lon="6.41338">
        <ele>386</ele>
        <time>2022-09-26T12:12:34Z</time>
      </trkpt>
      <trkpt lat="48.16351" lon="6.41336">
        <ele>386</ele>
        <time>2022-09-26T12:12:35Z</time>
      </trkpt>
      <trkpt lat="48.16352" lon="6.41333">
        <ele>385</ele>
        <time>2022-09-26T12:12:36Z</time>
      </trkpt>
      <trkpt lat="48.16354" lon="6.41329">
        <ele>385</ele>
        <time>2022-09-26T12:12:37Z</time>
      </trkpt>
      <trkpt lat="48.16355" lon="6.41325">
        <ele>385</ele>
        <time>2022-09-26T12:12:38Z</time>
      </trkpt>
      <trkpt lat="48.16356" lon="6.41321">
        <ele>384</ele>
        <time>2022-09-26T12:12:39Z</time>
      </trkpt>
      <trkpt lat="48.16357" lon="6.41317">
        <ele>384</ele>
        <time>2022-09-26T12:12:40Z</time>
      </trkpt>
      <trkpt lat="48.16358" lon="6.41314">
        <ele>384</ele>
        <time>2022-09-26T12:12:41Z</time>
      </trkpt>
      <trkpt lat="48.16357" lon="6.4131">
        <ele>383</ele>
        <time>2022-09-26T12:12:42Z</time>
      </trkpt>
      <trkpt lat="48.16357" lon="6.41307">
        <ele>383</ele>
        <time>2022-09-26T12:12:43Z</time>
      </trkpt>
      <trkpt lat="48.16356" lon="6.41304">
        <ele>383</ele>
        <time>2022-09-26T12:12:44Z</time>
      </trkpt>
      <trkpt lat="48.16355" lon="6.41301">
        <ele>383</ele>
        <time>2022-09-26T12:12:45Z</time>
      </trkpt>
      <trkpt lat="48.16354" lon="6.41298">
        <ele>383</ele>
        <time>2022-09-26T12:12:46Z</time>
      </trkpt>
      <trkpt lat="48.16352" lon="6.41297">
        <ele>383</ele>
        <time>2022-09-26T12:12:47Z</time>
      </trkpt>
      <trkpt lat="48.1635" lon="6.41297">
        <ele>384</ele>
        <time>2022-09-26T12:12:48Z</time>
      </trkpt>
      <trkpt lat="48.16347" lon="6.41297">
        <ele>384</ele>
        <time>2022-09-26T12:12:49Z</time>
      </trkpt>
      <trkpt lat="48.16345" lon="6.41296">
        <ele>385</ele>
        <time>2022-09-26T12:12:50Z</time>
      </trkpt>
      <trkpt lat="48.16344" lon="6.41294">
        <ele>385</ele>
        <time>2022-09-26T12:12:51Z</time>
      </trkpt>
      <trkpt lat="48.16342" lon="6.41294">
        <ele>385</ele>
        <time>2022-09-26T12:12:52Z</time>
      </trkpt>
      <trkpt lat="48.1634" lon="6.41291">
        <ele>385</ele>
        <time>2022-09-26T12:12:53Z</time>
      </trkpt>
      <trkpt lat="48.16339" lon="6.41289">
        <ele>385</ele>
        <time>2022-09-26T12:12:54Z</time>
      </trkpt>
      <trkpt lat="48.16338" lon="6.41287">
        <ele>385</ele>
        <time>2022-09-26T12:12:55Z</time>
      </trkpt>
      <trkpt lat="48.16337" lon="6.41284">
        <ele>385</ele>
        <time>2022-09-26T12:12:56Z</time>
      </trkpt>
      <trkpt lat="48.16336" lon="6.41282">
        <ele>385</ele>
        <time>2022-09-26T12:12:57Z</time>
      </trkpt>
      <trkpt lat="48.16335" lon="6.41278">
        <ele>385</ele>
        <time>2022-09-26T12:12:58Z</time>
      </trkpt>
      <trkpt lat="48.16335" lon="6.41275">
        <ele>385</ele>
        <time>2022-09-26T12:12:59Z</time>
      </trkpt>
      <trkpt lat="48.16334" lon="6.41272">
        <ele>385</ele>
        <time>2022-09-26T12:13:00Z</time>
      </trkpt>
      <trkpt lat="48.16333" lon="6.41269">
        <ele>385</ele>
        <time>2022-09-26T12:13:01Z</time>
      </trkpt>
      <trkpt lat="48.16332" lon="6.41267">
        <ele>385</ele>
        <time>2022-09-26T12:13:02Z</time>
      </trkpt>
      <trkpt lat="48.16331" lon="6.41264">
        <ele>384</ele>
        <time>2022-09-26T12:13:03Z</time>
      </trkpt>
      <trkpt lat="48.16329" lon="6.41262">
        <ele>385</ele>
        <time>2022-09-26T12:13:04Z</time>
      </trkpt>
      <trkpt lat="48.16327" lon="6.41259">
        <ele>385</ele>
        <time>2022-09-26T12:13:05Z</time>
      </trkpt>
      <trkpt lat="48.16325" lon="6.41257">
        <ele>385</ele>
        <time>2022-09-26T12:13:06Z</time>
      </trkpt>
      <trkpt lat="48.16323" lon="6.41255">
        <ele>385</ele>
        <time>2022-09-26T12:13:07Z</time>
      </trkpt>
      <trkpt lat="48.16322" lon="6.41253">
        <ele>385</ele>
        <time>2022-09-26T12:13:08Z</time>
      </trkpt>
      <trkpt lat="48.1632" lon="6.41252">
        <ele>386</ele>
        <time>2022-09-26T12:13:09Z</time>
      </trkpt>
      <trkpt lat="48.16318" lon="6.4125">
        <ele>386</ele>
        <time>2022-09-26T12:13:10Z</time>
      </trkpt>
      <trkpt lat="48.16316" lon="6.41248">
        <ele>386</ele>
        <time>2022-09-26T12:13:11Z</time>
      </trkpt>
      <trkpt lat="48.16314" lon="6.41248">
        <ele>386</ele>
        <time>2022-09-26T12:13:12Z</time>
      </trkpt>
      <trkpt lat="48.16312" lon="6.41247">
        <ele>387</ele>
        <time>2022-09-26T12:13:13Z</time>
      </trkpt>
      <trkpt lat="48.1631" lon="6.41247">
        <ele>387</ele>
        <time>2022-09-26T12:13:14Z</time>
      </trkpt>
      <trkpt lat="48.16307" lon="6.41247">
        <ele>387</ele>
        <time>2022-09-26T12:13:15Z</time>
      </trkpt>
      <trkpt lat="48.16305" lon="6.41246">
        <ele>388</ele>
        <time>2022-09-26T12:13:16Z</time>
      </trkpt>
      <trkpt lat="48.16303" lon="6.41244">
        <ele>388</ele>
        <time>2022-09-26T12:13:17Z</time>
      </trkpt>
      <trkpt lat="48.16301" lon="6.41242">
        <ele>388</ele>
        <time>2022-09-26T12:13:18Z</time>
      </trkpt>
      <trkpt lat="48.16299" lon="6.41241">
        <ele>388</ele>
        <time>2022-09-26T12:13:19Z</time>
      </trkpt>
      <trkpt lat="48.16298" lon="6.41239">
        <ele>388</ele>
        <time>2022-09-26T12:13:20Z</time>
      </trkpt>
      <trkpt lat="48.16295" lon="6.41239">
        <ele>388</ele>
        <time>2022-09-26T12:13:21Z</time>
      </trkpt>
      <trkpt lat="48.16294" lon="6.41238">
        <ele>388</ele>
        <time>2022-09-26T12:13:22Z</time>
      </trkpt>
      <trkpt lat="48.16292" lon="6.41236">
        <ele>388</ele>
        <time>2022-09-26T12:13:23Z</time>
      </trkpt>
      <trkpt lat="48.16291" lon="6.41235">
        <ele>388</ele>
        <time>2022-09-26T12:13:24Z</time>
      </trkpt>
      <trkpt lat="48.16289" lon="6.41234">
        <ele>388</ele>
        <time>2022-09-26T12:13:25Z</time>
      </trkpt>
      <trkpt lat="48.16288" lon="6.41232">
        <ele>388</ele>
        <time>2022-09-26T12:13:26Z</time>
      </trkpt>
      <trkpt lat="48.16286" lon="6.41229">
        <ele>388</ele>
        <time>2022-09-26T12:13:27Z</time>
      </trkpt>
      <trkpt lat="48.16285" lon="6.41228">
        <ele>387</ele>
        <time>2022-09-26T12:13:28Z</time>
      </trkpt>
      <trkpt lat="48.16283" lon="6.41226">
        <ele>387</ele>
        <time>2022-09-26T12:13:29Z</time>
      </trkpt>
      <trkpt lat="48.16281" lon="6.41224">
        <ele>387</ele>
        <time>2022-09-26T12:13:30Z</time>
      </trkpt>
      <trkpt lat="48.16279" lon="6.41223">
        <ele>387</ele>
        <time>2022-09-26T12:13:31Z</time>
      </trkpt>
      <trkpt lat="48.16277" lon="6.41223">
        <ele>388</ele>
        <time>2022-09-26T12:13:32Z</time>
      </trkpt>
      <trkpt lat="48.16275" lon="6.41223">
        <ele>388</ele>
        <time>2022-09-26T12:13:33Z</time>
      </trkpt>
      <trkpt lat="48.16273" lon="6.41226">
        <ele>389</ele>
        <time>2022-09-26T12:13:34Z</time>
      </trkpt>
      <trkpt lat="48.16273" lon="6.4123">
        <ele>389</ele>
        <time>2022-09-26T12:13:35Z</time>
      </trkpt>
      <trkpt lat="48.16272" lon="6.41234">
        <ele>390</ele>
        <time>2022-09-26T12:13:36Z</time>
      </trkpt>
      <trkpt lat="48.16272" lon="6.41238">
        <ele>391</ele>
        <time>2022-09-26T12:13:37Z</time>
      </trkpt>
      <trkpt lat="48.16275" lon="6.41243">
        <ele>391</ele>
        <time>2022-09-26T12:13:38Z</time>
      </trkpt>
      <trkpt lat="48.16278" lon="6.41245">
        <ele>392</ele>
        <time>2022-09-26T12:13:39Z</time>
      </trkpt>
      <trkpt lat="48.16281" lon="6.41246">
        <ele>391</ele>
        <time>2022-09-26T12:13:40Z</time>
      </trkpt>
      <trkpt lat="48.16283" lon="6.41247">
        <ele>391</ele>
        <time>2022-09-26T12:13:41Z</time>
      </trkpt>
      <trkpt lat="48.16285" lon="6.41248">
        <ele>391</ele>
        <time>2022-09-26T12:13:42Z</time>
      </trkpt>
      <trkpt lat="48.16287" lon="6.41249">
        <ele>391</ele>
        <time>2022-09-26T12:13:43Z</time>
      </trkpt>
      <trkpt lat="48.16289" lon="6.4125">
        <ele>391</ele>
        <time>2022-09-26T12:13:44Z</time>
      </trkpt>
      <trkpt lat="48.16292" lon="6.41251">
        <ele>391</ele>
        <time>2022-09-26T12:13:45Z</time>
      </trkpt>
      <trkpt lat="48.16294" lon="6.41252">
        <ele>390</ele>
        <time>2022-09-26T12:13:46Z</time>
      </trkpt>
      <trkpt lat="48.16296" lon="6.41254">
        <ele>390</ele>
        <time>2022-09-26T12:13:47Z</time>
      </trkpt>
      <trkpt lat="48.16298" lon="6.41255">
        <ele>390</ele>
        <time>2022-09-26T12:13:48Z</time>
      </trkpt>
      <trkpt lat="48.163" lon="6.41256">
        <ele>390</ele>
        <time>2022-09-26T12:13:49Z</time>
      </trkpt>
      <trkpt lat="48.16302" lon="6.41258">
        <ele>390</ele>
        <time>2022-09-26T12:13:50Z</time>
      </trkpt>
      <trkpt lat="48.16304" lon="6.41259">
        <ele>389</ele>
        <time>2022-09-26T12:13:51Z</time>
      </trkpt>
      <trkpt lat="48.16305" lon="6.41261">
        <ele>389</ele>
        <time>2022-09-26T12:13:52Z</time>
      </trkpt>
      <trkpt lat="48.16308" lon="6.41263">
        <ele>389</ele>
        <time>2022-09-26T12:13:53Z</time>
      </trkpt>
      <trkpt lat="48.16311" lon="6.41264">
        <ele>388</ele>
        <time>2022-09-26T12:13:54Z</time>
      </trkpt>
      <trkpt lat="48.16314" lon="6.41265">
        <ele>388</ele>
        <time>2022-09-26T12:13:55Z</time>
      </trkpt>
      <trkpt lat="48.16317" lon="6.41267">
        <ele>388</ele>
        <time>2022-09-26T12:13:56Z</time>
      </trkpt>
      <trkpt lat="48.16319" lon="6.41269">
        <ele>387</ele>
        <time>2022-09-26T12:13:57Z</time>
      </trkpt>
      <trkpt lat="48.16321" lon="6.41272">
        <ele>387</ele>
        <time>2022-09-26T12:13:58Z</time>
      </trkpt>
      <trkpt lat="48.16321" lon="6.41274">
        <ele>387</ele>
        <time>2022-09-26T12:13:59Z</time>
      </trkpt>
      <trkpt lat="48.16322" lon="6.41277">
        <ele>388</ele>
        <time>2022-09-26T12:14:00Z</time>
      </trkpt>
      <trkpt lat="48.16322" lon="6.4128">
        <ele>388</ele>
        <time>2022-09-26T12:14:01Z</time>
      </trkpt>
      <trkpt lat="48.16322" lon="6.41282">
        <ele>388</ele>
        <time>2022-09-26T12:14:02Z</time>
      </trkpt>
      <trkpt lat="48.16321" lon="6.41285">
        <ele>388</ele>
        <time>2022-09-26T12:14:03Z</time>
      </trkpt>
      <trkpt lat="48.1632" lon="6.41287">
        <ele>389</ele>
        <time>2022-09-26T12:14:04Z</time>
      </trkpt>
      <trkpt lat="48.16317" lon="6.41288">
        <ele>389</ele>
        <time>2022-09-26T12:14:05Z</time>
      </trkpt>
      <trkpt lat="48.16315" lon="6.4129">
        <ele>390</ele>
        <time>2022-09-26T12:14:06Z</time>
      </trkpt>
      <trkpt lat="48.16314" lon="6.41291">
        <ele>390</ele>
        <time>2022-09-26T12:14:07Z</time>
      </trkpt>
      <trkpt lat="48.16312" lon="6.41293">
        <ele>390</ele>
        <time>2022-09-26T12:14:08Z</time>
      </trkpt>
      <trkpt lat="48.1631" lon="6.41294">
        <ele>391</ele>
        <time>2022-09-26T12:14:09Z</time>
      </trkpt>
      <trkpt lat="48.16309" lon="6.41295">
        <ele>391</ele>
        <time>2022-09-26T12:14:10Z</time>
      </trkpt>
      <trkpt lat="48.16307" lon="6.41296">
        <ele>392</ele>
        <time>2022-09-26T12:14:11Z</time>
      </trkpt>
      <trkpt lat="48.16305" lon="6.41297">
        <ele>392</ele>
        <time>2022-09-26T12:14:12Z</time>
      </trkpt>
      <trkpt lat="48.16302" lon="6.41298">
        <ele>392</ele>
        <time>2022-09-26T12:14:13Z</time>
      </trkpt>
      <trkpt lat="48.163" lon="6.41299">
        <ele>393</ele>
        <time>2022-09-26T12:14:14Z</time>
      </trkpt>
      <trkpt lat="48.16298" lon="6.413">
        <ele>393</ele>
        <time>2022-09-26T12:14:15Z</time>
      </trkpt>
      <trkpt lat="48.16296" lon="6.413">
        <ele>393</ele>
        <time>2022-09-26T12:14:16Z</time>
      </trkpt>
      <trkpt lat="48.16293" lon="6.41299">
        <ele>394</ele>
        <time>2022-09-26T12:14:17Z</time>
      </trkpt>
      <trkpt lat="48.1629" lon="6.41299">
        <ele>394</ele>
        <time>2022-09-26T12:14:18Z</time>
      </trkpt>
      <trkpt lat="48.16287" lon="6.41299">
        <ele>394</ele>
        <time>2022-09-26T12:14:19Z</time>
      </trkpt>
      <trkpt lat="48.16284" lon="6.41298">
        <ele>395</ele>
        <time>2022-09-26T12:14:20Z</time>
      </trkpt>
      <trkpt lat="48.16281" lon="6.41299">
        <ele>395</ele>
        <time>2022-09-26T12:14:21Z</time>
      </trkpt>
      <trkpt lat="48.16279" lon="6.413">
        <ele>395</ele>
        <time>2022-09-26T12:14:22Z</time>
      </trkpt>
      <trkpt lat="48.16277" lon="6.41301">
        <ele>396</ele>
        <time>2022-09-26T12:14:23Z</time>
      </trkpt>
      <trkpt lat="48.16276" lon="6.41302">
        <ele>396</ele>
        <time>2022-09-26T12:14:24Z</time>
      </trkpt>
      <trkpt lat="48.16274" lon="6.41302">
        <ele>396</ele>
        <time>2022-09-26T12:14:25Z</time>
      </trkpt>
      <trkpt lat="48.16272" lon="6.41303">
        <ele>396</ele>
        <time>2022-09-26T12:14:26Z</time>
      </trkpt>
      <trkpt lat="48.1627" lon="6.41304">
        <ele>396</ele>
        <time>2022-09-26T12:14:27Z</time>
      </trkpt>
      <trkpt lat="48.16269" lon="6.41305">
        <ele>396</ele>
        <time>2022-09-26T12:14:28Z</time>
      </trkpt>
      <trkpt lat="48.16266" lon="6.41305">
        <ele>396</ele>
        <time>2022-09-26T12:14:29Z</time>
      </trkpt>
      <trkpt lat="48.16264" lon="6.41306">
        <ele>396</ele>
        <time>2022-09-26T12:14:30Z</time>
      </trkpt>
      <trkpt lat="48.16262" lon="6.41306">
        <ele>396</ele>
        <time>2022-09-26T12:14:31Z</time>
      </trkpt>
      <trkpt lat="48.1626" lon="6.41306">
        <ele>396</ele>
        <time>2022-09-26T12:14:32Z</time>
      </trkpt>
      <trkpt lat="48.16259" lon="6.41306">
        <ele>396</ele>
        <time>2022-09-26T12:14:33Z</time>
      </trkpt>
      <trkpt lat="48.16257" lon="6.41306">
        <ele>396</ele>
        <time>2022-09-26T12:14:34Z</time>
      </trkpt>
      <trkpt lat="48.16255" lon="6.41308">
        <ele>396</ele>
        <time>2022-09-26T12:14:35Z</time>
      </trkpt>
      <trkpt lat="48.16253" lon="6.41308">
        <ele>396</ele>
        <time>2022-09-26T12:14:36Z</time>
      </trkpt>
      <trkpt lat="48.16251" lon="6.4131">
        <ele>396</ele>
        <time>2022-09-26T12:14:37Z</time>
      </trkpt>
      <trkpt lat="48.16249" lon="6.4131">
        <ele>396</ele>
        <time>2022-09-26T12:14:38Z</time>
      </trkpt>
      <trkpt lat="48.16247" lon="6.41311">
        <ele>397</ele>
        <time>2022-09-26T12:14:39Z</time>
      </trkpt>
      <trkpt lat="48.16246" lon="6.41313">
        <ele>397</ele>
        <time>2022-09-26T12:14:40Z</time>
      </trkpt>
      <trkpt lat="48.16244" lon="6.41314">
        <ele>397</ele>
        <time>2022-09-26T12:14:41Z</time>
      </trkpt>
      <trkpt lat="48.16243" lon="6.41316">
        <ele>397</ele>
        <time>2022-09-26T12:14:42Z</time>
      </trkpt>
      <trkpt lat="48.16241" lon="6.41317">
        <ele>397</ele>
        <time>2022-09-26T12:14:43Z</time>
      </trkpt>
      <trkpt lat="48.16239" lon="6.41318">
        <ele>397</ele>
        <time>2022-09-26T12:14:44Z</time>
      </trkpt>
      <trkpt lat="48.16237" lon="6.41319">
        <ele>398</ele>
        <time>2022-09-26T12:14:45Z</time>
      </trkpt>
      <trkpt lat="48.16235" lon="6.41321">
        <ele>398</ele>
        <time>2022-09-26T12:14:46Z</time>
      </trkpt>
      <trkpt lat="48.16233" lon="6.41322">
        <ele>398</ele>
        <time>2022-09-26T12:14:47Z</time>
      </trkpt>
      <trkpt lat="48.16231" lon="6.41323">
        <ele>398</ele>
        <time>2022-09-26T12:14:48Z</time>
      </trkpt>
      <trkpt lat="48.1623" lon="6.41325">
        <ele>398</ele>
        <time>2022-09-26T12:14:49Z</time>
      </trkpt>
      <trkpt lat="48.16229" lon="6.41327">
        <ele>399</ele>
        <time>2022-09-26T12:14:50Z</time>
      </trkpt>
      <trkpt lat="48.16227" lon="6.41329">
        <ele>399</ele>
        <time>2022-09-26T12:14:51Z</time>
      </trkpt>
      <trkpt lat="48.16226" lon="6.41331">
        <ele>399</ele>
        <time>2022-09-26T12:14:52Z</time>
      </trkpt>
      <trkpt lat="48.16225" lon="6.41332">
        <ele>399</ele>
        <time>2022-09-26T12:14:53Z</time>
      </trkpt>
      <trkpt lat="48.16224" lon="6.41334">
        <ele>399</ele>
        <time>2022-09-26T12:14:54Z</time>
      </trkpt>
      <trkpt lat="48.16223" lon="6.41335">
        <ele>399</ele>
        <time>2022-09-26T12:14:55Z</time>
      </trkpt>
      <trkpt lat="48.16222" lon="6.41335">
        <ele>400</ele>
        <time>2022-09-26T12:14:56Z</time>
      </trkpt>
      <trkpt lat="48.16221" lon="6.41336">
        <ele>400</ele>
        <time>2022-09-26T12:14:57Z</time>
      </trkpt>
      <trkpt lat="48.1622" lon="6.41337">
        <ele>400</ele>
        <time>2022-09-26T12:14:58Z</time>
      </trkpt>
      <trkpt lat="48.16219" lon="6.41338">
        <ele>400</ele>
        <time>2022-09-26T12:14:59Z</time>
      </trkpt>
      <trkpt lat="48.16218" lon="6.41339">
        <ele>400</ele>
        <time>2022-09-26T12:15:00Z</time>
      </trkpt>
      <trkpt lat="48.16218" lon="6.4134">
        <ele>400</ele>
        <time>2022-09-26T12:15:01Z</time>
      </trkpt>
      <trkpt lat="48.16217" lon="6.41341">
        <ele>400</ele>
        <time>2022-09-26T12:15:02Z</time>
      </trkpt>
      <trkpt lat="48.16215" lon="6.41342">
        <ele>400</ele>
        <time>2022-09-26T12:15:03Z</time>
      </trkpt>
      <trkpt lat="48.16214" lon="6.41343">
        <ele>401</ele>
        <time>2022-09-26T12:15:04Z</time>
      </trkpt>
      <trkpt lat="48.16213" lon="6.41344">
        <ele>401</ele>
        <time>2022-09-26T12:15:05Z</time>
      </trkpt>
      <trkpt lat="48.16212" lon="6.41345">
        <ele>401</ele>
        <time>2022-09-26T12:15:06Z</time>
      </trkpt>
      <trkpt lat="48.1621" lon="6.41346">
        <ele>401</ele>
        <time>2022-09-26T12:15:07Z</time>
      </trkpt>
      <trkpt lat="48.16209" lon="6.41347">
        <ele>401</ele>
        <time>2022-09-26T12:15:08Z</time>
      </trkpt>
      <trkpt lat="48.16207" lon="6.41348">
        <ele>401</ele>
        <time>2022-09-26T12:15:09Z</time>
      </trkpt>
      <trkpt lat="48.16206" lon="6.41349">
        <ele>402</ele>
        <time>2022-09-26T12:15:10Z</time>
      </trkpt>
      <trkpt lat="48.16204" lon="6.41351">
        <ele>402</ele>
        <time>2022-09-26T12:15:11Z</time>
      </trkpt>
      <trkpt lat="48.16202" lon="6.41351">
        <ele>402</ele>
        <time>2022-09-26T12:15:12Z</time>
      </trkpt>
      <trkpt lat="48.16201" lon="6.41352">
        <ele>402</ele>
        <time>2022-09-26T12:15:13Z</time>
      </trkpt>
      <trkpt lat="48.16199" lon="6.41352">
        <ele>402</ele>
        <time>2022-09-26T12:15:14Z</time>
      </trkpt>
      <trkpt lat="48.16198" lon="6.41351">
        <ele>402</ele>
        <time>2022-09-26T12:15:15Z</time>
      </trkpt>
      <trkpt lat="48.16196" lon="6.41351">
        <ele>403</ele>
        <time>2022-09-26T12:15:16Z</time>
      </trkpt>
      <trkpt lat="48.16195" lon="6.4135">
        <ele>403</ele>
        <time>2022-09-26T12:15:17Z</time>
      </trkpt>
      <trkpt lat="48.16193" lon="6.4135">
        <ele>403</ele>
        <time>2022-09-26T12:15:18Z</time>
      </trkpt>
      <trkpt lat="48.16192" lon="6.4135">
        <ele>403</ele>
        <time>2022-09-26T12:15:19Z</time>
      </trkpt>
      <trkpt lat="48.1619" lon="6.41349">
        <ele>403</ele>
        <time>2022-09-26T12:15:20Z</time>
      </trkpt>
      <trkpt lat="48.16189" lon="6.41349">
        <ele>403</ele>
        <time>2022-09-26T12:15:21Z</time>
      </trkpt>
      <trkpt lat="48.16188" lon="6.41348">
        <ele>403</ele>
        <time>2022-09-26T12:15:22Z</time>
      </trkpt>
      <trkpt lat="48.16187" lon="6.41349">
        <ele>403</ele>
        <time>2022-09-26T12:15:23Z</time>
      </trkpt>
      <trkpt lat="48.16185" lon="6.41349">
        <ele>403</ele>
        <time>2022-09-26T12:15:24Z</time>
      </trkpt>
      <trkpt lat="48.16184" lon="6.4135">
        <ele>403</ele>
        <time>2022-09-26T12:15:25Z</time>
      </trkpt>
      <trkpt lat="48.16183" lon="6.41351">
        <ele>403</ele>
        <time>2022-09-26T12:15:26Z</time>
      </trkpt>
      <trkpt lat="48.16182" lon="6.41352">
        <ele>404</ele>
        <time>2022-09-26T12:15:27Z</time>
      </trkpt>
      <trkpt lat="48.16181" lon="6.41352">
        <ele>404</ele>
        <time>2022-09-26T12:15:28Z</time>
      </trkpt>
      <trkpt lat="48.16179" lon="6.41352">
        <ele>404</ele>
        <time>2022-09-26T12:15:29Z</time>
      </trkpt>
      <trkpt lat="48.16177" lon="6.4135">
        <ele>404</ele>
        <time>2022-09-26T12:15:30Z</time>
      </trkpt>
      <trkpt lat="48.16176" lon="6.41349">
        <ele>404</ele>
        <time>2022-09-26T12:15:31Z</time>
      </trkpt>
      <trkpt lat="48.16175" lon="6.41349">
        <ele>404</ele>
        <time>2022-09-26T12:15:32Z</time>
      </trkpt>
      <trkpt lat="48.16174" lon="6.41349">
        <ele>404</ele>
        <time>2022-09-26T12:15:33Z</time>
      </trkpt>
      <trkpt lat="48.16173" lon="6.4135">
        <ele>404</ele>
        <time>2022-09-26T12:15:34Z</time>
      </trkpt>
      <trkpt lat="48.16172" lon="6.4135">
        <ele>404</ele>
        <time>2022-09-26T12:15:35Z</time>
      </trkpt>
      <trkpt lat="48.16171" lon="6.41351">
        <ele>404</ele>
        <time>2022-09-26T12:15:36Z</time>
      </trkpt>
      <trkpt lat="48.1617" lon="6.4135">
        <ele>404</ele>
        <time>2022-09-26T12:15:37Z</time>
      </trkpt>
      <trkpt lat="48.16169" lon="6.4135">
        <ele>404</ele>
        <time>2022-09-26T12:15:38Z</time>
      </trkpt>
      <trkpt lat="48.16168" lon="6.4135">
        <ele>404</ele>
        <time>2022-09-26T12:15:39Z</time>
      </trkpt>
      <trkpt lat="48.16166" lon="6.41349">
        <ele>404</ele>
        <time>2022-09-26T12:15:40Z</time>
      </trkpt>
      <trkpt lat="48.16165" lon="6.4135">
        <ele>404</ele>
        <time>2022-09-26T12:15:41Z</time>
      </trkpt>
      <trkpt lat="48.16164" lon="6.41349">
        <ele>405</ele>
        <time>2022-09-26T12:15:42Z</time>
      </trkpt>
      <trkpt lat="48.16163" lon="6.41349">
        <ele>405</ele>
        <time>2022-09-26T12:15:43Z</time>
      </trkpt>
      <trkpt lat="48.16162" lon="6.41349">
        <ele>405</ele>
        <time>2022-09-26T12:15:44Z</time>
      </trkpt>
      <trkpt lat="48.16161" lon="6.41348">
        <ele>405</ele>
        <time>2022-09-26T12:15:45Z</time>
      </trkpt>
      <trkpt lat="48.16159" lon="6.41347">
        <ele>405</ele>
        <time>2022-09-26T12:15:46Z</time>
      </trkpt>
      <trkpt lat="48.16158" lon="6.41347">
        <ele>405</ele>
        <time>2022-09-26T12:15:47Z</time>
      </trkpt>
      <trkpt lat="48.16156" lon="6.41346">
        <ele>405</ele>
        <time>2022-09-26T12:15:48Z</time>
      </trkpt>
      <trkpt lat="48.16155" lon="6.41345">
        <ele>405</ele>
        <time>2022-09-26T12:15:49Z</time>
      </trkpt>
      <trkpt lat="48.16154" lon="6.41345">
        <ele>405</ele>
        <time>2022-09-26T12:15:50Z</time>
      </trkpt>
      <trkpt lat="48.16153" lon="6.41344">
        <ele>405</ele>
        <time>2022-09-26T12:15:51Z</time>
      </trkpt>
      <trkpt lat="48.16151" lon="6.41343">
        <ele>405</ele>
        <time>2022-09-26T12:15:52Z</time>
      </trkpt>
      <trkpt lat="48.1615" lon="6.41342">
        <ele>405</ele>
        <time>2022-09-26T12:15:53Z</time>
      </trkpt>
      <trkpt lat="48.16149" lon="6.41341">
        <ele>405</ele>
        <time>2022-09-26T12:15:54Z</time>
      </trkpt>
      <trkpt lat="48.16147" lon="6.4134">
        <ele>405</ele>
        <time>2022-09-26T12:15:55Z</time>
      </trkpt>
      <trkpt lat="48.16146" lon="6.41339">
        <ele>405</ele>
        <time>2022-09-26T12:15:56Z</time>
      </trkpt>
      <trkpt lat="48.16144" lon="6.41339">
        <ele>405</ele>
        <time>2022-09-26T12:15:57Z</time>
      </trkpt>
      <trkpt lat="48.16143" lon="6.41339">
        <ele>406</ele>
        <time>2022-09-26T12:15:58Z</time>
      </trkpt>
      <trkpt lat="48.16141" lon="6.41341">
        <ele>406</ele>
        <time>2022-09-26T12:15:59Z</time>
      </trkpt>
      <trkpt lat="48.16139" lon="6.41342">
        <ele>406</ele>
        <time>2022-09-26T12:16:00Z</time>
      </trkpt>
      <trkpt lat="48.16137" lon="6.41343">
        <ele>407</ele>
        <time>2022-09-26T12:16:01Z</time>
      </trkpt>
      <trkpt lat="48.16136" lon="6.41343">
        <ele>407</ele>
        <time>2022-09-26T12:16:02Z</time>
      </trkpt>
      <trkpt lat="48.16134" lon="6.41343">
        <ele>407</ele>
        <time>2022-09-26T12:16:03Z</time>
      </trkpt>
      <trkpt lat="48.16132" lon="6.41343">
        <ele>408</ele>
        <time>2022-09-26T12:16:04Z</time>
      </trkpt>
      <trkpt lat="48.1613" lon="6.41343">
        <ele>408</ele>
        <time>2022-09-26T12:16:05Z</time>
      </trkpt>
      <trkpt lat="48.16127" lon="6.41343">
        <ele>408</ele>
        <time>2022-09-26T12:16:06Z</time>
      </trkpt>
      <trkpt lat="48.16125" lon="6.41342">
        <ele>408</ele>
        <time>2022-09-26T12:16:07Z</time>
      </trkpt>
      <trkpt lat="48.16122" lon="6.41342">
        <ele>409</ele>
        <time>2022-09-26T12:16:08Z</time>
      </trkpt>
      <trkpt lat="48.1612" lon="6.41342">
        <ele>409</ele>
        <time>2022-09-26T12:16:09Z</time>
      </trkpt>
      <trkpt lat="48.16117" lon="6.41342">
        <ele>409</ele>
        <time>2022-09-26T12:16:10Z</time>
      </trkpt>
      <trkpt lat="48.16115" lon="6.41342">
        <ele>410</ele>
        <time>2022-09-26T12:16:11Z</time>
      </trkpt>
      <trkpt lat="48.16112" lon="6.41341">
        <ele>410</ele>
        <time>2022-09-26T12:16:12Z</time>
      </trkpt>
      <trkpt lat="48.1611" lon="6.4134">
        <ele>410</ele>
        <time>2022-09-26T12:16:13Z</time>
      </trkpt>
      <trkpt lat="48.16108" lon="6.4134">
        <ele>410</ele>
        <time>2022-09-26T12:16:14Z</time>
      </trkpt>
      <trkpt lat="48.16106" lon="6.41339">
        <ele>411</ele>
        <time>2022-09-26T12:16:15Z</time>
      </trkpt>
      <trkpt lat="48.16104" lon="6.41339">
        <ele>411</ele>
        <time>2022-09-26T12:16:16Z</time>
      </trkpt>
      <trkpt lat="48.16103" lon="6.41338">
        <ele>411</ele>
        <time>2022-09-26T12:16:17Z</time>
      </trkpt>
      <trkpt lat="48.16101" lon="6.41338">
        <ele>411</ele>
        <time>2022-09-26T12:16:18Z</time>
      </trkpt>
      <trkpt lat="48.16099" lon="6.41337">
        <ele>411</ele>
        <time>2022-09-26T12:16:19Z</time>
      </trkpt>
      <trkpt lat="48.16097" lon="6.41337">
        <ele>412</ele>
        <time>2022-09-26T12:16:20Z</time>
      </trkpt>
      <trkpt lat="48.16095" lon="6.41337">
        <ele>412</ele>
        <time>2022-09-26T12:16:21Z</time>
      </trkpt>
      <trkpt lat="48.16093" lon="6.41336">
        <ele>412</ele>
        <time>2022-09-26T12:16:22Z</time>
      </trkpt>
      <trkpt lat="48.16092" lon="6.41335">
        <ele>412</ele>
        <time>2022-09-26T12:16:23Z</time>
      </trkpt>
      <trkpt lat="48.1609" lon="6.41334">
        <ele>413</ele>
        <time>2022-09-26T12:16:24Z</time>
      </trkpt>
      <trkpt lat="48.16089" lon="6.41334">
        <ele>413</ele>
        <time>2022-09-26T12:16:25Z</time>
      </trkpt>
      <trkpt lat="48.16087" lon="6.41334">
        <ele>413</ele>
        <time>2022-09-26T12:16:26Z</time>
      </trkpt>
      <trkpt lat="48.16085" lon="6.41334">
        <ele>413</ele>
        <time>2022-09-26T12:16:27Z</time>
      </trkpt>
      <trkpt lat="48.16084" lon="6.41334">
        <ele>413</ele>
        <time>2022-09-26T12:16:28Z</time>
      </trkpt>
      <trkpt lat="48.16083" lon="6.41334">
        <ele>414</ele>
        <time>2022-09-26T12:16:29Z</time>
      </trkpt>
      <trkpt lat="48.16082" lon="6.41333">
        <ele>414</ele>
        <time>2022-09-26T12:16:30Z</time>
      </trkpt>
      <trkpt lat="48.1608" lon="6.41331">
        <ele>414</ele>
        <time>2022-09-26T12:16:31Z</time>
      </trkpt>
      <trkpt lat="48.16079" lon="6.41331">
        <ele>414</ele>
        <time>2022-09-26T12:16:32Z</time>
      </trkpt>
      <trkpt lat="48.16078" lon="6.4133">
        <ele>414</ele>
        <time>2022-09-26T12:16:33Z</time>
      </trkpt>
      <trkpt lat="48.16076" lon="6.4133">
        <ele>414</ele>
        <time>2022-09-26T12:16:34Z</time>
      </trkpt>
      <trkpt lat="48.16075" lon="6.41329">
        <ele>414</ele>
        <time>2022-09-26T12:16:35Z</time>
      </trkpt>
      <trkpt lat="48.16074" lon="6.41329">
        <ele>414</ele>
        <time>2022-09-26T12:16:36Z</time>
      </trkpt>
      <trkpt lat="48.16072" lon="6.41329">
        <ele>414</ele>
        <time>2022-09-26T12:16:37Z</time>
      </trkpt>
      <trkpt lat="48.16071" lon="6.41329">
        <ele>414</ele>
        <time>2022-09-26T12:16:38Z</time>
      </trkpt>
      <trkpt lat="48.1607" lon="6.41329">
        <ele>414</ele>
        <time>2022-09-26T12:16:39Z</time>
      </trkpt>
      <trkpt lat="48.16069" lon="6.41329">
        <ele>415</ele>
        <time>2022-09-26T12:16:40Z</time>
      </trkpt>
      <trkpt lat="48.16067" lon="6.41328">
        <ele>415</ele>
        <time>2022-09-26T12:16:41Z</time>
      </trkpt>
      <trkpt lat="48.16066" lon="6.41328">
        <ele>415</ele>
        <time>2022-09-26T12:16:42Z</time>
      </trkpt>
      <trkpt lat="48.16064" lon="6.41327">
        <ele>415</ele>
        <time>2022-09-26T12:16:43Z</time>
      </trkpt>
      <trkpt lat="48.16062" lon="6.41326">
        <ele>415</ele>
        <time>2022-09-26T12:16:44Z</time>
      </trkpt>
      <trkpt lat="48.1606" lon="6.41325">
        <ele>415</ele>
        <time>2022-09-26T12:16:45Z</time>
      </trkpt>
      <trkpt lat="48.16058" lon="6.41325">
        <ele>416</ele>
        <time>2022-09-26T12:16:46Z</time>
      </trkpt>
      <trkpt lat="48.16057" lon="6.41324">
        <ele>416</ele>
        <time>2022-09-26T12:16:47Z</time>
      </trkpt>
      <trkpt lat="48.16055" lon="6.41325">
        <ele>416</ele>
        <time>2022-09-26T12:16:48Z</time>
      </trkpt>
      <trkpt lat="48.16054" lon="6.41325">
        <ele>416</ele>
        <time>2022-09-26T12:16:49Z</time>
      </trkpt>
      <trkpt lat="48.16052" lon="6.41324">
        <ele>416</ele>
        <time>2022-09-26T12:16:50Z</time>
      </trkpt>
      <trkpt lat="48.1605" lon="6.41323">
        <ele>416</ele>
        <time>2022-09-26T12:16:51Z</time>
      </trkpt>
      <trkpt lat="48.16049" lon="6.41322">
        <ele>417</ele>
        <time>2022-09-26T12:16:52Z</time>
      </trkpt>
      <trkpt lat="48.16047" lon="6.41321">
        <ele>417</ele>
        <time>2022-09-26T12:16:53Z</time>
      </trkpt>
      <trkpt lat="48.16045" lon="6.4132">
        <ele>417</ele>
        <time>2022-09-26T12:16:54Z</time>
      </trkpt>
      <trkpt lat="48.16044" lon="6.4132">
        <ele>417</ele>
        <time>2022-09-26T12:16:55Z</time>
      </trkpt>
      <trkpt lat="48.16042" lon="6.41319">
        <ele>417</ele>
        <time>2022-09-26T12:16:56Z</time>
      </trkpt>
      <trkpt lat="48.16041" lon="6.41317">
        <ele>418</ele>
        <time>2022-09-26T12:16:57Z</time>
      </trkpt>
      <trkpt lat="48.1604" lon="6.41316">
        <ele>418</ele>
        <time>2022-09-26T12:16:58Z</time>
      </trkpt>
      <trkpt lat="48.16039" lon="6.41315">
        <ele>418</ele>
        <time>2022-09-26T12:16:59Z</time>
      </trkpt>
      <trkpt lat="48.16037" lon="6.41314">
        <ele>418</ele>
        <time>2022-09-26T12:17:00Z</time>
      </trkpt>
      <trkpt lat="48.16035" lon="6.41314">
        <ele>418</ele>
        <time>2022-09-26T12:17:01Z</time>
      </trkpt>
      <trkpt lat="48.16033" lon="6.41313">
        <ele>419</ele>
        <time>2022-09-26T12:17:02Z</time>
      </trkpt>
      <trkpt lat="48.16032" lon="6.41313">
        <ele>419</ele>
        <time>2022-09-26T12:17:03Z</time>
      </trkpt>
      <trkpt lat="48.1603" lon="6.41311">
        <ele>419</ele>
        <time>2022-09-26T12:17:04Z</time>
      </trkpt>
      <trkpt lat="48.16028" lon="6.4131">
        <ele>419</ele>
        <time>2022-09-26T12:17:05Z</time>
      </trkpt>
      <trkpt lat="48.16026" lon="6.41309">
        <ele>419</ele>
        <time>2022-09-26T12:17:06Z</time>
      </trkpt>
      <trkpt lat="48.16024" lon="6.41308">
        <ele>420</ele>
        <time>2022-09-26T12:17:07Z</time>
      </trkpt>
      <trkpt lat="48.16022" lon="6.41308">
        <ele>420</ele>
        <time>2022-09-26T12:17:08Z</time>
      </trkpt>
      <trkpt lat="48.16021" lon="6.41307">
        <ele>420</ele>
        <time>2022-09-26T12:17:09Z</time>
      </trkpt>
      <trkpt lat="48.16018" lon="6.41306">
        <ele>420</ele>
        <time>2022-09-26T12:17:10Z</time>
      </trkpt>
      <trkpt lat="48.16017" lon="6.41304">
        <ele>420</ele>
        <time>2022-09-26T12:17:11Z</time>
      </trkpt>
      <trkpt lat="48.16015" lon="6.41302">
        <ele>420</ele>
        <time>2022-09-26T12:17:12Z</time>
      </trkpt>
      <trkpt lat="48.16013" lon="6.413">
        <ele>420</ele>
        <time>2022-09-26T12:17:13Z</time>
      </trkpt>
      <trkpt lat="48.16012" lon="6.413">
        <ele>420</ele>
        <time>2022-09-26T12:17:14Z</time>
      </trkpt>
      <trkpt lat="48.1601" lon="6.413">
        <ele>420</ele>
        <time>2022-09-26T12:17:15Z</time>
      </trkpt>
      <trkpt lat="48.16008" lon="6.41299">
        <ele>420</ele>
        <time>2022-09-26T12:17:16Z</time>
      </trkpt>
      <trkpt lat="48.16006" lon="6.41299">
        <ele>420</ele>
        <time>2022-09-26T12:17:17Z</time>
      </trkpt>
      <trkpt lat="48.16005" lon="6.41299">
        <ele>420</ele>
        <time>2022-09-26T12:17:18Z</time>
      </trkpt>
      <trkpt lat="48.16003" lon="6.41299">
        <ele>420</ele>
        <time>2022-09-26T12:17:19Z</time>
      </trkpt>
      <trkpt lat="48.16001" lon="6.41298">
        <ele>420</ele>
        <time>2022-09-26T12:17:20Z</time>
      </trkpt>
      <trkpt lat="48.16" lon="6.41297">
        <ele>421</ele>
        <time>2022-09-26T12:17:21Z</time>
      </trkpt>
      <trkpt lat="48.15998" lon="6.41297">
        <ele>421</ele>
        <time>2022-09-26T12:17:22Z</time>
      </trkpt>
      <trkpt lat="48.15996" lon="6.41297">
        <ele>421</ele>
        <time>2022-09-26T12:17:23Z</time>
      </trkpt>
      <trkpt lat="48.15995" lon="6.41298">
        <ele>421</ele>
        <time>2022-09-26T12:17:24Z</time>
      </trkpt>
      <trkpt lat="48.15993" lon="6.41299">
        <ele>422</ele>
        <time>2022-09-26T12:17:25Z</time>
      </trkpt>
      <trkpt lat="48.15991" lon="6.413">
        <ele>422</ele>
        <time>2022-09-26T12:17:26Z</time>
      </trkpt>
      <trkpt lat="48.15989" lon="6.41301">
        <ele>422</ele>
        <time>2022-09-26T12:17:27Z</time>
      </trkpt>
      <trkpt lat="48.15987" lon="6.41301">
        <ele>422</ele>
        <time>2022-09-26T12:17:28Z</time>
      </trkpt>
      <trkpt lat="48.15986" lon="6.41302">
        <ele>423</ele>
        <time>2022-09-26T12:17:29Z</time>
      </trkpt>
      <trkpt lat="48.15984" lon="6.41302">
        <ele>423</ele>
        <time>2022-09-26T12:17:30Z</time>
      </trkpt>
      <trkpt lat="48.15982" lon="6.41303">
        <ele>423</ele>
        <time>2022-09-26T12:17:31Z</time>
      </trkpt>
      <trkpt lat="48.1598" lon="6.41304">
        <ele>423</ele>
        <time>2022-09-26T12:17:32Z</time>
      </trkpt>
      <trkpt lat="48.15978" lon="6.41305">
        <ele>424</ele>
        <time>2022-09-26T12:17:33Z</time>
      </trkpt>
      <trkpt lat="48.15977" lon="6.41305">
        <ele>424</ele>
        <time>2022-09-26T12:17:34Z</time>
      </trkpt>
      <trkpt lat="48.15975" lon="6.41304">
        <ele>424</ele>
        <time>2022-09-26T12:17:35Z</time>
      </trkpt>
      <trkpt lat="48.15973" lon="6.41304">
        <ele>424</ele>
        <time>2022-09-26T12:17:36Z</time>
      </trkpt>
      <trkpt lat="48.15972" lon="6.41303">
        <ele>425</ele>
        <time>2022-09-26T12:17:37Z</time>
      </trkpt>
      <trkpt lat="48.15971" lon="6.41302">
        <ele>425</ele>
        <time>2022-09-26T12:17:38Z</time>
      </trkpt>
      <trkpt lat="48.1597" lon="6.41301">
        <ele>425</ele>
        <time>2022-09-26T12:17:39Z</time>
      </trkpt>
      <trkpt lat="48.15968" lon="6.41301">
        <ele>426</ele>
        <time>2022-09-26T12:17:40Z</time>
      </trkpt>
      <trkpt lat="48.15967" lon="6.41299">
        <ele>426</ele>
        <time>2022-09-26T12:17:41Z</time>
      </trkpt>
      <trkpt lat="48.15965" lon="6.41299">
        <ele>427</ele>
        <time>2022-09-26T12:17:42Z</time>
      </trkpt>
      <trkpt lat="48.15963" lon="6.41298">
        <ele>427</ele>
        <time>2022-09-26T12:17:43Z</time>
      </trkpt>
      <trkpt lat="48.15961" lon="6.41297">
        <ele>428</ele>
        <time>2022-09-26T12:17:44Z</time>
      </trkpt>
      <trkpt lat="48.1596" lon="6.41297">
        <ele>428</ele>
        <time>2022-09-26T12:17:45Z</time>
      </trkpt>
      <trkpt lat="48.15958" lon="6.41295">
        <ele>428</ele>
        <time>2022-09-26T12:17:46Z</time>
      </trkpt>
      <trkpt lat="48.15957" lon="6.41294">
        <ele>429</ele>
        <time>2022-09-26T12:17:47Z</time>
      </trkpt>
      <trkpt lat="48.15956" lon="6.41293">
        <ele>429</ele>
        <time>2022-09-26T12:17:48Z</time>
      </trkpt>
      <trkpt lat="48.15955" lon="6.41292">
        <ele>430</ele>
        <time>2022-09-26T12:17:49Z</time>
      </trkpt>
      <trkpt lat="48.15953" lon="6.41291">
        <ele>430</ele>
        <time>2022-09-26T12:17:50Z</time>
      </trkpt>
      <trkpt lat="48.15952" lon="6.4129">
        <ele>430</ele>
        <time>2022-09-26T12:17:51Z</time>
      </trkpt>
      <trkpt lat="48.15951" lon="6.41289">
        <ele>431</ele>
        <time>2022-09-26T12:17:52Z</time>
      </trkpt>
      <trkpt lat="48.15949" lon="6.41289">
        <ele>431</ele>
        <time>2022-09-26T12:17:53Z</time>
      </trkpt>
      <trkpt lat="48.15947" lon="6.41288">
        <ele>432</ele>
        <time>2022-09-26T12:17:54Z</time>
      </trkpt>
      <trkpt lat="48.15946" lon="6.41288">
        <ele>432</ele>
        <time>2022-09-26T12:17:55Z</time>
      </trkpt>
      <trkpt lat="48.15945" lon="6.41286">
        <ele>432</ele>
        <time>2022-09-26T12:17:56Z</time>
      </trkpt>
      <trkpt lat="48.15943" lon="6.41286">
        <ele>433</ele>
        <time>2022-09-26T12:17:57Z</time>
      </trkpt>
      <trkpt lat="48.15942" lon="6.41286">
        <ele>433</ele>
        <time>2022-09-26T12:17:58Z</time>
      </trkpt>
      <trkpt lat="48.15941" lon="6.41286">
        <ele>434</ele>
        <time>2022-09-26T12:17:59Z</time>
      </trkpt>
      <trkpt lat="48.1594" lon="6.41286">
        <ele>434</ele>
        <time>2022-09-26T12:18:00Z</time>
      </trkpt>
      <trkpt lat="48.15939" lon="6.41286">
        <ele>434</ele>
        <time>2022-09-26T12:18:01Z</time>
      </trkpt>
      <trkpt lat="48.15938" lon="6.41286">
        <ele>435</ele>
        <time>2022-09-26T12:18:02Z</time>
      </trkpt>
      <trkpt lat="48.15936" lon="6.41286">
        <ele>435</ele>
        <time>2022-09-26T12:18:03Z</time>
      </trkpt>
      <trkpt lat="48.15935" lon="6.41286">
        <ele>435</ele>
        <time>2022-09-26T12:18:04Z</time>
      </trkpt>
      <trkpt lat="48.15934" lon="6.41285">
        <ele>436</ele>
        <time>2022-09-26T12:18:05Z</time>
      </trkpt>
      <trkpt lat="48.15933" lon="6.41285">
        <ele>436</ele>
        <time>2022-09-26T12:18:06Z</time>
      </trkpt>
      <trkpt lat="48.15932" lon="6.41284">
        <ele>436</ele>
        <time>2022-09-26T12:18:07Z</time>
      </trkpt>
      <trkpt lat="48.15931" lon="6.41284">
        <ele>437</ele>
        <time>2022-09-26T12:18:08Z</time>
      </trkpt>
      <trkpt lat="48.1593" lon="6.41284">
        <ele>437</ele>
        <time>2022-09-26T12:18:09Z</time>
      </trkpt>
      <trkpt lat="48.15928" lon="6.41284">
        <ele>438</ele>
        <time>2022-09-26T12:18:10Z</time>
      </trkpt>
      <trkpt lat="48.15927" lon="6.41283">
        <ele>438</ele>
        <time>2022-09-26T12:18:11Z</time>
      </trkpt>
      <trkpt lat="48.15926" lon="6.41284">
        <ele>438</ele>
        <time>2022-09-26T12:18:12Z</time>
      </trkpt>
      <trkpt lat="48.15924" lon="6.41284">
        <ele>439</ele>
        <time>2022-09-26T12:18:13Z</time>
      </trkpt>
      <trkpt lat="48.15923" lon="6.41283">
        <ele>439</ele>
        <time>2022-09-26T12:18:14Z</time>
      </trkpt>
      <trkpt lat="48.15922" lon="6.41283">
        <ele>440</ele>
        <time>2022-09-26T12:18:15Z</time>
      </trkpt>
      <trkpt lat="48.15921" lon="6.41284">
        <ele>440</ele>
        <time>2022-09-26T12:18:16Z</time>
      </trkpt>
      <trkpt lat="48.1592" lon="6.41284">
        <ele>440</ele>
        <time>2022-09-26T12:18:17Z</time>
      </trkpt>
      <trkpt lat="48.15918" lon="6.41284">
        <ele>441</ele>
        <time>2022-09-26T12:18:18Z</time>
      </trkpt>
      <trkpt lat="48.15917" lon="6.41284">
        <ele>441</ele>
        <time>2022-09-26T12:18:19Z</time>
      </trkpt>
      <trkpt lat="48.15915" lon="6.41283">
        <ele>441</ele>
        <time>2022-09-26T12:18:20Z</time>
      </trkpt>
      <trkpt lat="48.15914" lon="6.41283">
        <ele>441</ele>
        <time>2022-09-26T12:18:21Z</time>
      </trkpt>
      <trkpt lat="48.15913" lon="6.41283">
        <ele>441</ele>
        <time>2022-09-26T12:18:22Z</time>
      </trkpt>
      <trkpt lat="48.15912" lon="6.41283">
        <ele>441</ele>
        <time>2022-09-26T12:18:23Z</time>
      </trkpt>
      <trkpt lat="48.15911" lon="6.41282">
        <ele>442</ele>
        <time>2022-09-26T12:18:24Z</time>
      </trkpt>
      <trkpt lat="48.1591" lon="6.41282">
        <ele>442</ele>
        <time>2022-09-26T12:18:25Z</time>
      </trkpt>
      <trkpt lat="48.15909" lon="6.41282">
        <ele>442</ele>
        <time>2022-09-26T12:18:26Z</time>
      </trkpt>
      <trkpt lat="48.15907" lon="6.41282">
        <ele>442</ele>
        <time>2022-09-26T12:18:27Z</time>
      </trkpt>
      <trkpt lat="48.15906" lon="6.41281">
        <ele>442</ele>
        <time>2022-09-26T12:18:28Z</time>
      </trkpt>
      <trkpt lat="48.15905" lon="6.41281">
        <ele>442</ele>
        <time>2022-09-26T12:18:29Z</time>
      </trkpt>
      <trkpt lat="48.15903" lon="6.41281">
        <ele>442</ele>
        <time>2022-09-26T12:18:30Z</time>
      </trkpt>
      <trkpt lat="48.15901" lon="6.4128">
        <ele>442</ele>
        <time>2022-09-26T12:18:31Z</time>
      </trkpt>
      <trkpt lat="48.15899" lon="6.41279">
        <ele>442</ele>
        <time>2022-09-26T12:18:32Z</time>
      </trkpt>
      <trkpt lat="48.15898" lon="6.41279">
        <ele>442</ele>
        <time>2022-09-26T12:18:33Z</time>
      </trkpt>
      <trkpt lat="48.15897" lon="6.41279">
        <ele>442</ele>
        <time>2022-09-26T12:18:34Z</time>
      </trkpt>
      <trkpt lat="48.15895" lon="6.4128">
        <ele>442</ele>
        <time>2022-09-26T12:18:35Z</time>
      </trkpt>
      <trkpt lat="48.15893" lon="6.41281">
        <ele>442</ele>
        <time>2022-09-26T12:18:36Z</time>
      </trkpt>
      <trkpt lat="48.15892" lon="6.41283">
        <ele>442</ele>
        <time>2022-09-26T12:18:37Z</time>
      </trkpt>
      <trkpt lat="48.1589" lon="6.41283">
        <ele>442</ele>
        <time>2022-09-26T12:18:38Z</time>
      </trkpt>
      <trkpt lat="48.15888" lon="6.41284">
        <ele>442</ele>
        <time>2022-09-26T12:18:39Z</time>
      </trkpt>
      <trkpt lat="48.15886" lon="6.41285">
        <ele>443</ele>
        <time>2022-09-26T12:18:40Z</time>
      </trkpt>
      <trkpt lat="48.15885" lon="6.41287">
        <ele>443</ele>
        <time>2022-09-26T12:18:41Z</time>
      </trkpt>
      <trkpt lat="48.15883" lon="6.41288">
        <ele>443</ele>
        <time>2022-09-26T12:18:42Z</time>
      </trkpt>
      <trkpt lat="48.15882" lon="6.41288">
        <ele>443</ele>
        <time>2022-09-26T12:18:43Z</time>
      </trkpt>
      <trkpt lat="48.1588" lon="6.41289">
        <ele>443</ele>
        <time>2022-09-26T12:18:44Z</time>
      </trkpt>
      <trkpt lat="48.15878" lon="6.4129">
        <ele>443</ele>
        <time>2022-09-26T12:18:45Z</time>
      </trkpt>
      <trkpt lat="48.15877" lon="6.41291">
        <ele>443</ele>
        <time>2022-09-26T12:18:46Z</time>
      </trkpt>
      <trkpt lat="48.15875" lon="6.41292">
        <ele>443</ele>
        <time>2022-09-26T12:18:47Z</time>
      </trkpt>
      <trkpt lat="48.15874" lon="6.41293">
        <ele>444</ele>
        <time>2022-09-26T12:18:48Z</time>
      </trkpt>
      <trkpt lat="48.15872" lon="6.41294">
        <ele>444</ele>
        <time>2022-09-26T12:18:49Z</time>
      </trkpt>
      <trkpt lat="48.15871" lon="6.41295">
        <ele>444</ele>
        <time>2022-09-26T12:18:50Z</time>
      </trkpt>
      <trkpt lat="48.1587" lon="6.41296">
        <ele>444</ele>
        <time>2022-09-26T12:18:51Z</time>
      </trkpt>
      <trkpt lat="48.15869" lon="6.41296">
        <ele>444</ele>
        <time>2022-09-26T12:18:52Z</time>
      </trkpt>
      <trkpt lat="48.15867" lon="6.41297">
        <ele>444</ele>
        <time>2022-09-26T12:18:53Z</time>
      </trkpt>
      <trkpt lat="48.15866" lon="6.41297">
        <ele>444</ele>
        <time>2022-09-26T12:18:54Z</time>
      </trkpt>
      <trkpt lat="48.15865" lon="6.41298">
        <ele>444</ele>
        <time>2022-09-26T12:18:55Z</time>
      </trkpt>
      <trkpt lat="48.15863" lon="6.41298">
        <ele>445</ele>
        <time>2022-09-26T12:18:56Z</time>
      </trkpt>
      <trkpt lat="48.15862" lon="6.41299">
        <ele>445</ele>
        <time>2022-09-26T12:18:57Z</time>
      </trkpt>
      <trkpt lat="48.15861" lon="6.41299">
        <ele>445</ele>
        <time>2022-09-26T12:18:58Z</time>
      </trkpt>
      <trkpt lat="48.1586" lon="6.413">
        <ele>445</ele>
        <time>2022-09-26T12:18:59Z</time>
      </trkpt>
      <trkpt lat="48.15859" lon="6.41301">
        <ele>445</ele>
        <time>2022-09-26T12:19:00Z</time>
      </trkpt>
      <trkpt lat="48.15858" lon="6.41301">
        <ele>445</ele>
        <time>2022-09-26T12:19:01Z</time>
      </trkpt>
      <trkpt lat="48.15856" lon="6.41302">
        <ele>445</ele>
        <time>2022-09-26T12:19:02Z</time>
      </trkpt>
      <trkpt lat="48.15855" lon="6.41302">
        <ele>445</ele>
        <time>2022-09-26T12:19:03Z</time>
      </trkpt>
      <trkpt lat="48.15854" lon="6.41302">
        <ele>445</ele>
        <time>2022-09-26T12:19:04Z</time>
      </trkpt>
      <trkpt lat="48.15853" lon="6.41301">
        <ele>445</ele>
        <time>2022-09-26T12:19:05Z</time>
      </trkpt>
      <trkpt lat="48.15852" lon="6.41302">
        <ele>445</ele>
        <time>2022-09-26T12:19:06Z</time>
      </trkpt>
      <trkpt lat="48.1585" lon="6.41302">
        <ele>445</ele>
        <time>2022-09-26T12:19:07Z</time>
      </trkpt>
      <trkpt lat="48.15849" lon="6.41302">
        <ele>445</ele>
        <time>2022-09-26T12:19:08Z</time>
      </trkpt>
      <trkpt lat="48.15848" lon="6.41303">
        <ele>445</ele>
        <time>2022-09-26T12:19:09Z</time>
      </trkpt>
      <trkpt lat="48.15847" lon="6.41304">
        <ele>445</ele>
        <time>2022-09-26T12:19:10Z</time>
      </trkpt>
      <trkpt lat="48.15846" lon="6.41304">
        <ele>445</ele>
        <time>2022-09-26T12:19:11Z</time>
      </trkpt>
      <trkpt lat="48.15845" lon="6.41304">
        <ele>445</ele>
        <time>2022-09-26T12:19:12Z</time>
      </trkpt>
      <trkpt lat="48.15844" lon="6.41304">
        <ele>445</ele>
        <time>2022-09-26T12:19:13Z</time>
      </trkpt>
      <trkpt lat="48.15843" lon="6.41305">
        <ele>445</ele>
        <time>2022-09-26T12:19:14Z</time>
      </trkpt>
      <trkpt lat="48.15842" lon="6.41305">
        <ele>445</ele>
        <time>2022-09-26T12:19:15Z</time>
      </trkpt>
      <trkpt lat="48.15841" lon="6.41306">
        <ele>445</ele>
        <time>2022-09-26T12:19:16Z</time>
      </trkpt>
      <trkpt lat="48.1584" lon="6.41306">
        <ele>445</ele>
        <time>2022-09-26T12:19:17Z</time>
      </trkpt>
      <trkpt lat="48.15839" lon="6.41306">
        <ele>445</ele>
        <time>2022-09-26T12:19:18Z</time>
      </trkpt>
      <trkpt lat="48.15838" lon="6.41306">
        <ele>445</ele>
        <time>2022-09-26T12:19:19Z</time>
      </trkpt>
      <trkpt lat="48.15837" lon="6.41306">
        <ele>445</ele>
        <time>2022-09-26T12:19:20Z</time>
      </trkpt>
      <trkpt lat="48.15836" lon="6.41307">
        <ele>445</ele>
        <time>2022-09-26T12:19:21Z</time>
      </trkpt>
      <trkpt lat="48.15835" lon="6.41307">
        <ele>445</ele>
        <time>2022-09-26T12:19:22Z</time>
      </trkpt>
      <trkpt lat="48.15834" lon="6.41307">
        <ele>445</ele>
        <time>2022-09-26T12:19:23Z</time>
      </trkpt>
      <trkpt lat="48.15833" lon="6.41307">
        <ele>445</ele>
        <time>2022-09-26T12:19:24Z</time>
      </trkpt>
      <trkpt lat="48.15832" lon="6.41307">
        <ele>445</ele>
        <time>2022-09-26T12:19:25Z</time>
      </trkpt>
      <trkpt lat="48.15831" lon="6.41307">
        <ele>445</ele>
        <time>2022-09-26T12:19:26Z</time>
      </trkpt>
      <trkpt lat="48.1583" lon="6.41307">
        <ele>445</ele>
        <time>2022-09-26T12:19:27Z</time>
      </trkpt>
      <trkpt lat="48.1583" lon="6.41306">
        <ele>445</ele>
        <time>2022-09-26T12:19:28Z</time>
      </trkpt>
      <trkpt lat="48.15831" lon="6.41306">
        <ele>445</ele>
        <time>2022-09-26T12:19:29Z</time>
      </trkpt>
      <trkpt lat="48.15831" lon="6.41306">
        <ele>445</ele>
        <time>2022-09-26T12:19:30Z</time>
      </trkpt>
      <trkpt lat="48.15831" lon="6.41307">
        <ele>445</ele>
        <time>2022-09-26T12:19:31Z</time>
      </trkpt>
      <trkpt lat="48.1583" lon="6.41307">
        <ele>445</ele>
        <time>2022-09-26T12:19:32Z</time>
      </trkpt>
      <trkpt lat="48.1583" lon="6.41307">
        <ele>445</ele>
        <time>2022-09-26T12:19:33Z</time>
      </trkpt>
      <trkpt lat="48.1583" lon="6.41307">
        <ele>445</ele>
        <time>2022-09-26T12:19:34Z</time>
      </trkpt>
      <trkpt lat="48.1583" lon="6.41306">
        <ele>445</ele>
        <time>2022-09-26T12:19:35Z</time>
      </trkpt>
      <trkpt lat="48.15831" lon="6.41306">
        <ele>445</ele>
        <time>2022-09-26T12:19:36Z</time>
      </trkpt>
      <trkpt lat="48.15831" lon="6.41306">
        <ele>445</ele>
        <time>2022-09-26T12:19:37Z</time>
      </trkpt>
      <trkpt lat="48.1583" lon="6.41306">
        <ele>445</ele>
        <time>2022-09-26T12:19:39Z</time>
      </trkpt>
      <trkpt lat="48.1583" lon="6.41306">
        <ele>445</ele>
        <time>2022-09-26T12:19:40Z</time>
      </trkpt>
      <trkpt lat="48.1583" lon="6.41306">
        <ele>445</ele>
        <time>2022-09-26T12:19:41Z</time>
      </trkpt>
      <trkpt lat="48.1583" lon="6.41306">
        <ele>445</ele>
        <time>2022-09-26T12:19:42Z</time>
      </trkpt>
      <trkpt lat="48.15826" lon="6.41303">
        <ele>446</ele>
        <time>2022-09-26T12:21:10Z</time>
      </trkpt>
      <trkpt lat="48.15826" lon="6.41303">
        <ele>446</ele>
        <time>2022-09-26T12:21:11Z</time>
      </trkpt>
      <trkpt lat="48.15826" lon="6.41303">
        <ele>446</ele>
        <time>2022-09-26T12:21:12Z</time>
      </trkpt>
      <trkpt lat="48.15826" lon="6.41303">
        <ele>446</ele>
        <time>2022-09-26T12:21:41Z</time>
      </trkpt>
      <trkpt lat="48.15826" lon="6.41303">
        <ele>446</ele>
        <time>2022-09-26T12:21:42Z</time>
      </trkpt>
      <trkpt lat="48.15826" lon="6.41303">
        <ele>446</ele>
        <time>2022-09-26T12:21:43Z</time>
      </trkpt>
      <trkpt lat="48.1582" lon="6.41309">
        <ele>445</ele>
        <time>2022-09-26T12:22:46Z</time>
      </trkpt>
      <trkpt lat="48.15819" lon="6.41311">
        <ele>445</ele>
        <time>2022-09-26T12:22:47Z</time>
      </trkpt>
      <trkpt lat="48.15818" lon="6.41313">
        <ele>445</ele>
        <time>2022-09-26T12:22:48Z</time>
      </trkpt>
      <trkpt lat="48.15817" lon="6.41315">
        <ele>445</ele>
        <time>2022-09-26T12:22:49Z</time>
      </trkpt>
      <trkpt lat="48.15816" lon="6.41317">
        <ele>445</ele>
        <time>2022-09-26T12:22:50Z</time>
      </trkpt>
      <trkpt lat="48.15815" lon="6.41318">
        <ele>445</ele>
        <time>2022-09-26T12:22:51Z</time>
      </trkpt>
      <trkpt lat="48.15814" lon="6.4132">
        <ele>445</ele>
        <time>2022-09-26T12:22:52Z</time>
      </trkpt>
      <trkpt lat="48.15813" lon="6.41321">
        <ele>445</ele>
        <time>2022-09-26T12:22:53Z</time>
      </trkpt>
      <trkpt lat="48.15813" lon="6.41323">
        <ele>445</ele>
        <time>2022-09-26T12:22:54Z</time>
      </trkpt>
      <trkpt lat="48.15812" lon="6.41325">
        <ele>445</ele>
        <time>2022-09-26T12:22:55Z</time>
      </trkpt>
      <trkpt lat="48.15811" lon="6.41328">
        <ele>445</ele>
        <time>2022-09-26T12:22:56Z</time>
      </trkpt>
      <trkpt lat="48.1581" lon="6.41329">
        <ele>445</ele>
        <time>2022-09-26T12:22:57Z</time>
      </trkpt>
      <trkpt lat="48.15809" lon="6.41331">
        <ele>445</ele>
        <time>2022-09-26T12:22:58Z</time>
      </trkpt>
      <trkpt lat="48.15807" lon="6.41332">
        <ele>445</ele>
        <time>2022-09-26T12:22:59Z</time>
      </trkpt>
      <trkpt lat="48.15806" lon="6.41333">
        <ele>445</ele>
        <time>2022-09-26T12:23:00Z</time>
      </trkpt>
      <trkpt lat="48.15804" lon="6.41334">
        <ele>446</ele>
        <time>2022-09-26T12:23:01Z</time>
      </trkpt>
      <trkpt lat="48.15803" lon="6.41336">
        <ele>446</ele>
        <time>2022-09-26T12:23:02Z</time>
      </trkpt>
      <trkpt lat="48.15802" lon="6.41338">
        <ele>446</ele>
        <time>2022-09-26T12:23:03Z</time>
      </trkpt>
      <trkpt lat="48.158" lon="6.41339">
        <ele>446</ele>
        <time>2022-09-26T12:23:04Z</time>
      </trkpt>
      <trkpt lat="48.15799" lon="6.4134">
        <ele>446</ele>
        <time>2022-09-26T12:23:05Z</time>
      </trkpt>
      <trkpt lat="48.15797" lon="6.4134">
        <ele>447</ele>
        <time>2022-09-26T12:23:06Z</time>
      </trkpt>
      <trkpt lat="48.15796" lon="6.41342">
        <ele>447</ele>
        <time>2022-09-26T12:23:07Z</time>
      </trkpt>
      <trkpt lat="48.15794" lon="6.41342">
        <ele>447</ele>
        <time>2022-09-26T12:23:08Z</time>
      </trkpt>
      <trkpt lat="48.15792" lon="6.41343">
        <ele>447</ele>
        <time>2022-09-26T12:23:09Z</time>
      </trkpt>
      <trkpt lat="48.15791" lon="6.41344">
        <ele>447</ele>
        <time>2022-09-26T12:23:10Z</time>
      </trkpt>
      <trkpt lat="48.1579" lon="6.41344">
        <ele>448</ele>
        <time>2022-09-26T12:23:11Z</time>
      </trkpt>
      <trkpt lat="48.15789" lon="6.41344">
        <ele>448</ele>
        <time>2022-09-26T12:23:12Z</time>
      </trkpt>
      <trkpt lat="48.15788" lon="6.41343">
        <ele>448</ele>
        <time>2022-09-26T12:23:13Z</time>
      </trkpt>
      <trkpt lat="48.15787" lon="6.41341">
        <ele>448</ele>
        <time>2022-09-26T12:23:14Z</time>
      </trkpt>
      <trkpt lat="48.15786" lon="6.4134">
        <ele>448</ele>
        <time>2022-09-26T12:23:15Z</time>
      </trkpt>
      <trkpt lat="48.15785" lon="6.41338">
        <ele>448</ele>
        <time>2022-09-26T12:23:16Z</time>
      </trkpt>
      <trkpt lat="48.15785" lon="6.41336">
        <ele>448</ele>
        <time>2022-09-26T12:23:17Z</time>
      </trkpt>
      <trkpt lat="48.15784" lon="6.41335">
        <ele>449</ele>
        <time>2022-09-26T12:23:18Z</time>
      </trkpt>
      <trkpt lat="48.15784" lon="6.41333">
        <ele>449</ele>
        <time>2022-09-26T12:23:19Z</time>
      </trkpt>
      <trkpt lat="48.15783" lon="6.41331">
        <ele>449</ele>
        <time>2022-09-26T12:23:20Z</time>
      </trkpt>
      <trkpt lat="48.15783" lon="6.41328">
        <ele>449</ele>
        <time>2022-09-26T12:23:21Z</time>
      </trkpt>
      <trkpt lat="48.15782" lon="6.41326">
        <ele>449</ele>
        <time>2022-09-26T12:23:22Z</time>
      </trkpt>
      <trkpt lat="48.15782" lon="6.41324">
        <ele>449</ele>
        <time>2022-09-26T12:23:23Z</time>
      </trkpt>
      <trkpt lat="48.15782" lon="6.41322">
        <ele>449</ele>
        <time>2022-09-26T12:23:24Z</time>
      </trkpt>
      <trkpt lat="48.15782" lon="6.4132">
        <ele>448</ele>
        <time>2022-09-26T12:23:25Z</time>
      </trkpt>
      <trkpt lat="48.15782" lon="6.41318">
        <ele>448</ele>
        <time>2022-09-26T12:23:26Z</time>
      </trkpt>
      <trkpt lat="48.15781" lon="6.41316">
        <ele>448</ele>
        <time>2022-09-26T12:23:27Z</time>
      </trkpt>
      <trkpt lat="48.1578" lon="6.41315">
        <ele>449</ele>
        <time>2022-09-26T12:23:28Z</time>
      </trkpt>
      <trkpt lat="48.15777" lon="6.41315">
        <ele>449</ele>
        <time>2022-09-26T12:23:29Z</time>
      </trkpt>
      <trkpt lat="48.15778" lon="6.41315">
        <ele>449</ele>
        <time>2022-09-26T12:23:30Z</time>
      </trkpt>
      <trkpt lat="48.15778" lon="6.41315">
        <ele>449</ele>
        <time>2022-09-26T12:23:31Z</time>
      </trkpt>
      <trkpt lat="48.15777" lon="6.41315">
        <ele>449</ele>
        <time>2022-09-26T12:23:32Z</time>
      </trkpt>
      <trkpt lat="48.15777" lon="6.41315">
        <ele>449</ele>
        <time>2022-09-26T12:23:33Z</time>
      </trkpt>
      <trkpt lat="48.15777" lon="6.41315">
        <ele>449</ele>
        <time>2022-09-26T12:23:34Z</time>
      </trkpt>
      <trkpt lat="48.15776" lon="6.41315">
        <ele>449</ele>
        <time>2022-09-26T12:23:35Z</time>
      </trkpt>
      <trkpt lat="48.15775" lon="6.41314">
        <ele>449</ele>
        <time>2022-09-26T12:23:36Z</time>
      </trkpt>
      <trkpt lat="48.15774" lon="6.41314">
        <ele>449</ele>
        <time>2022-09-26T12:23:37Z</time>
      </trkpt>
      <trkpt lat="48.15773" lon="6.41314">
        <ele>449</ele>
        <time>2022-09-26T12:23:38Z</time>
      </trkpt>
      <trkpt lat="48.15772" lon="6.41313">
        <ele>449</ele>
        <time>2022-09-26T12:23:39Z</time>
      </trkpt>
      <trkpt lat="48.15772" lon="6.41313">
        <ele>449</ele>
        <time>2022-09-26T12:23:40Z</time>
      </trkpt>
      <trkpt lat="48.15772" lon="6.41311">
        <ele>449</ele>
        <time>2022-09-26T12:23:41Z</time>
      </trkpt>
      <trkpt lat="48.15773" lon="6.41309">
        <ele>449</ele>
        <time>2022-09-26T12:23:42Z</time>
      </trkpt>
      <trkpt lat="48.15771" lon="6.41308">
        <ele>449</ele>
        <time>2022-09-26T12:23:43Z</time>
      </trkpt>
      <trkpt lat="48.15768" lon="6.41308">
        <ele>450</ele>
        <time>2022-09-26T12:23:44Z</time>
      </trkpt>
      <trkpt lat="48.15766" lon="6.41308">
        <ele>450</ele>
        <time>2022-09-26T12:23:45Z</time>
      </trkpt>
      <trkpt lat="48.15764" lon="6.41309">
        <ele>450</ele>
        <time>2022-09-26T12:23:46Z</time>
      </trkpt>
      <trkpt lat="48.15762" lon="6.41308">
        <ele>450</ele>
        <time>2022-09-26T12:23:47Z</time>
      </trkpt>
      <trkpt lat="48.1576" lon="6.41308">
        <ele>450</ele>
        <time>2022-09-26T12:23:48Z</time>
      </trkpt>
      <trkpt lat="48.15758" lon="6.41308">
        <ele>451</ele>
        <time>2022-09-26T12:23:49Z</time>
      </trkpt>
      <trkpt lat="48.15757" lon="6.41309">
        <ele>451</ele>
        <time>2022-09-26T12:23:50Z</time>
      </trkpt>
      <trkpt lat="48.15756" lon="6.4131">
        <ele>451</ele>
        <time>2022-09-26T12:23:51Z</time>
      </trkpt>
      <trkpt lat="48.15755" lon="6.4131">
        <ele>451</ele>
        <time>2022-09-26T12:23:52Z</time>
      </trkpt>
      <trkpt lat="48.15754" lon="6.4131">
        <ele>451</ele>
        <time>2022-09-26T12:23:53Z</time>
      </trkpt>
      <trkpt lat="48.15752" lon="6.4131">
        <ele>451</ele>
        <time>2022-09-26T12:23:54Z</time>
      </trkpt>
      <trkpt lat="48.15751" lon="6.41311">
        <ele>451</ele>
        <time>2022-09-26T12:23:55Z</time>
      </trkpt>
      <trkpt lat="48.15749" lon="6.41312">
        <ele>452</ele>
        <time>2022-09-26T12:23:56Z</time>
      </trkpt>
      <trkpt lat="48.15748" lon="6.41313">
        <ele>452</ele>
        <time>2022-09-26T12:23:57Z</time>
      </trkpt>
      <trkpt lat="48.15746" lon="6.41313">
        <ele>452</ele>
        <time>2022-09-26T12:23:58Z</time>
      </trkpt>
      <trkpt lat="48.15745" lon="6.41313">
        <ele>452</ele>
        <time>2022-09-26T12:23:59Z</time>
      </trkpt>
      <trkpt lat="48.15743" lon="6.41313">
        <ele>452</ele>
        <time>2022-09-26T12:24:00Z</time>
      </trkpt>
      <trkpt lat="48.15741" lon="6.41314">
        <ele>452</ele>
        <time>2022-09-26T12:24:01Z</time>
      </trkpt>
      <trkpt lat="48.1574" lon="6.41315">
        <ele>452</ele>
        <time>2022-09-26T12:24:02Z</time>
      </trkpt>
      <trkpt lat="48.15738" lon="6.41316">
        <ele>452</ele>
        <time>2022-09-26T12:24:03Z</time>
      </trkpt>
      <trkpt lat="48.15737" lon="6.41316">
        <ele>452</ele>
        <time>2022-09-26T12:24:04Z</time>
      </trkpt>
      <trkpt lat="48.15735" lon="6.41317">
        <ele>452</ele>
        <time>2022-09-26T12:24:05Z</time>
      </trkpt>
      <trkpt lat="48.15734" lon="6.41318">
        <ele>452</ele>
        <time>2022-09-26T12:24:06Z</time>
      </trkpt>
      <trkpt lat="48.15732" lon="6.41319">
        <ele>452</ele>
        <time>2022-09-26T12:24:07Z</time>
      </trkpt>
      <trkpt lat="48.1573" lon="6.41318">
        <ele>453</ele>
        <time>2022-09-26T12:24:08Z</time>
      </trkpt>
      <trkpt lat="48.15728" lon="6.41318">
        <ele>453</ele>
        <time>2022-09-26T12:24:09Z</time>
      </trkpt>
      <trkpt lat="48.15726" lon="6.41318">
        <ele>453</ele>
        <time>2022-09-26T12:24:10Z</time>
      </trkpt>
      <trkpt lat="48.15724" lon="6.41318">
        <ele>453</ele>
        <time>2022-09-26T12:24:11Z</time>
      </trkpt>
      <trkpt lat="48.15722" lon="6.41319">
        <ele>453</ele>
        <time>2022-09-26T12:24:12Z</time>
      </trkpt>
      <trkpt lat="48.1572" lon="6.41319">
        <ele>453</ele>
        <time>2022-09-26T12:24:13Z</time>
      </trkpt>
      <trkpt lat="48.15717" lon="6.41319">
        <ele>453</ele>
        <time>2022-09-26T12:24:14Z</time>
      </trkpt>
      <trkpt lat="48.15715" lon="6.41319">
        <ele>453</ele>
        <time>2022-09-26T12:24:15Z</time>
      </trkpt>
      <trkpt lat="48.15712" lon="6.4132">
        <ele>453</ele>
        <time>2022-09-26T12:24:16Z</time>
      </trkpt>
      <trkpt lat="48.1571" lon="6.41319">
        <ele>453</ele>
        <time>2022-09-26T12:24:17Z</time>
      </trkpt>
      <trkpt lat="48.15707" lon="6.41319">
        <ele>453</ele>
        <time>2022-09-26T12:24:18Z</time>
      </trkpt>
      <trkpt lat="48.15706" lon="6.41318">
        <ele>453</ele>
        <time>2022-09-26T12:24:19Z</time>
      </trkpt>
      <trkpt lat="48.15705" lon="6.41318">
        <ele>453</ele>
        <time>2022-09-26T12:24:20Z</time>
      </trkpt>
      <trkpt lat="48.15703" lon="6.41317">
        <ele>453</ele>
        <time>2022-09-26T12:24:21Z</time>
      </trkpt>
      <trkpt lat="48.15701" lon="6.41317">
        <ele>453</ele>
        <time>2022-09-26T12:24:22Z</time>
      </trkpt>
      <trkpt lat="48.157" lon="6.41318">
        <ele>453</ele>
        <time>2022-09-26T12:24:23Z</time>
      </trkpt>
      <trkpt lat="48.15699" lon="6.41318">
        <ele>453</ele>
        <time>2022-09-26T12:24:24Z</time>
      </trkpt>
      <trkpt lat="48.15696" lon="6.41319">
        <ele>453</ele>
        <time>2022-09-26T12:24:25Z</time>
      </trkpt>
      <trkpt lat="48.15694" lon="6.41318">
        <ele>454</ele>
        <time>2022-09-26T12:24:26Z</time>
      </trkpt>
      <trkpt lat="48.15691" lon="6.41318">
        <ele>454</ele>
        <time>2022-09-26T12:24:27Z</time>
      </trkpt>
      <trkpt lat="48.15689" lon="6.41319">
        <ele>454</ele>
        <time>2022-09-26T12:24:28Z</time>
      </trkpt>
      <trkpt lat="48.15686" lon="6.41317">
        <ele>455</ele>
        <time>2022-09-26T12:24:29Z</time>
      </trkpt>
      <trkpt lat="48.15684" lon="6.41317">
        <ele>455</ele>
        <time>2022-09-26T12:24:30Z</time>
      </trkpt>
      <trkpt lat="48.15682" lon="6.41316">
        <ele>455</ele>
        <time>2022-09-26T12:24:31Z</time>
      </trkpt>
      <trkpt lat="48.1568" lon="6.41315">
        <ele>455</ele>
        <time>2022-09-26T12:24:32Z</time>
      </trkpt>
      <trkpt lat="48.15678" lon="6.41315">
        <ele>456</ele>
        <time>2022-09-26T12:24:33Z</time>
      </trkpt>
      <trkpt lat="48.15676" lon="6.41315">
        <ele>456</ele>
        <time>2022-09-26T12:24:34Z</time>
      </trkpt>
      <trkpt lat="48.15673" lon="6.41315">
        <ele>456</ele>
        <time>2022-09-26T12:24:35Z</time>
      </trkpt>
      <trkpt lat="48.15671" lon="6.41316">
        <ele>457</ele>
        <time>2022-09-26T12:24:36Z</time>
      </trkpt>
      <trkpt lat="48.15668" lon="6.41316">
        <ele>457</ele>
        <time>2022-09-26T12:24:37Z</time>
      </trkpt>
      <trkpt lat="48.15666" lon="6.41317">
        <ele>457</ele>
        <time>2022-09-26T12:24:38Z</time>
      </trkpt>
      <trkpt lat="48.15664" lon="6.41318">
        <ele>458</ele>
        <time>2022-09-26T12:24:39Z</time>
      </trkpt>
      <trkpt lat="48.1566" lon="6.41318">
        <ele>458</ele>
        <time>2022-09-26T12:24:40Z</time>
      </trkpt>
      <trkpt lat="48.15657" lon="6.41318">
        <ele>459</ele>
        <time>2022-09-26T12:24:41Z</time>
      </trkpt>
      <trkpt lat="48.15655" lon="6.41318">
        <ele>459</ele>
        <time>2022-09-26T12:24:42Z</time>
      </trkpt>
      <trkpt lat="48.15652" lon="6.41318">
        <ele>460</ele>
        <time>2022-09-26T12:24:43Z</time>
      </trkpt>
      <trkpt lat="48.15649" lon="6.41318">
        <ele>460</ele>
        <time>2022-09-26T12:24:44Z</time>
      </trkpt>
      <trkpt lat="48.15647" lon="6.41318">
        <ele>460</ele>
        <time>2022-09-26T12:24:45Z</time>
      </trkpt>
      <trkpt lat="48.15645" lon="6.4132">
        <ele>461</ele>
        <time>2022-09-26T12:24:46Z</time>
      </trkpt>
      <trkpt lat="48.15643" lon="6.4132">
        <ele>461</ele>
        <time>2022-09-26T12:24:47Z</time>
      </trkpt>
      <trkpt lat="48.15641" lon="6.41321">
        <ele>461</ele>
        <time>2022-09-26T12:24:48Z</time>
      </trkpt>
      <trkpt lat="48.15638" lon="6.4132">
        <ele>462</ele>
        <time>2022-09-26T12:24:49Z</time>
      </trkpt>
      <trkpt lat="48.15636" lon="6.41321">
        <ele>462</ele>
        <time>2022-09-26T12:24:50Z</time>
      </trkpt>
      <trkpt lat="48.15634" lon="6.4132">
        <ele>462</ele>
        <time>2022-09-26T12:24:51Z</time>
      </trkpt>
      <trkpt lat="48.15632" lon="6.41319">
        <ele>462</ele>
        <time>2022-09-26T12:24:52Z</time>
      </trkpt>
      <trkpt lat="48.15629" lon="6.41319">
        <ele>462</ele>
        <time>2022-09-26T12:24:53Z</time>
      </trkpt>
      <trkpt lat="48.15628" lon="6.41319">
        <ele>462</ele>
        <time>2022-09-26T12:24:54Z</time>
      </trkpt>
      <trkpt lat="48.15625" lon="6.41319">
        <ele>462</ele>
        <time>2022-09-26T12:24:55Z</time>
      </trkpt>
      <trkpt lat="48.15623" lon="6.41318">
        <ele>463</ele>
        <time>2022-09-26T12:24:56Z</time>
      </trkpt>
      <trkpt lat="48.15621" lon="6.41319">
        <ele>463</ele>
        <time>2022-09-26T12:24:57Z</time>
      </trkpt>
      <trkpt lat="48.15618" lon="6.41319">
        <ele>463</ele>
        <time>2022-09-26T12:24:58Z</time>
      </trkpt>
      <trkpt lat="48.15616" lon="6.41319">
        <ele>463</ele>
        <time>2022-09-26T12:24:59Z</time>
      </trkpt>
      <trkpt lat="48.15613" lon="6.41318">
        <ele>463</ele>
        <time>2022-09-26T12:25:00Z</time>
      </trkpt>
      <trkpt lat="48.15611" lon="6.41316">
        <ele>463</ele>
        <time>2022-09-26T12:25:01Z</time>
      </trkpt>
      <trkpt lat="48.15608" lon="6.41315">
        <ele>463</ele>
        <time>2022-09-26T12:25:02Z</time>
      </trkpt>
      <trkpt lat="48.15606" lon="6.41316">
        <ele>464</ele>
        <time>2022-09-26T12:25:03Z</time>
      </trkpt>
      <trkpt lat="48.15604" lon="6.41314">
        <ele>464</ele>
        <time>2022-09-26T12:25:04Z</time>
      </trkpt>
      <trkpt lat="48.15602" lon="6.41314">
        <ele>464</ele>
        <time>2022-09-26T12:25:05Z</time>
      </trkpt>
      <trkpt lat="48.15599" lon="6.41314">
        <ele>464</ele>
        <time>2022-09-26T12:25:06Z</time>
      </trkpt>
      <trkpt lat="48.15597" lon="6.41315">
        <ele>464</ele>
        <time>2022-09-26T12:25:07Z</time>
      </trkpt>
      <trkpt lat="48.15594" lon="6.41314">
        <ele>465</ele>
        <time>2022-09-26T12:25:08Z</time>
      </trkpt>
      <trkpt lat="48.15591" lon="6.41315">
        <ele>465</ele>
        <time>2022-09-26T12:25:09Z</time>
      </trkpt>
      <trkpt lat="48.15589" lon="6.41315">
        <ele>465</ele>
        <time>2022-09-26T12:25:10Z</time>
      </trkpt>
      <trkpt lat="48.15586" lon="6.41314">
        <ele>465</ele>
        <time>2022-09-26T12:25:11Z</time>
      </trkpt>
      <trkpt lat="48.15584" lon="6.41314">
        <ele>465</ele>
        <time>2022-09-26T12:25:12Z</time>
      </trkpt>
      <trkpt lat="48.15582" lon="6.41313">
        <ele>465</ele>
        <time>2022-09-26T12:25:13Z</time>
      </trkpt>
      <trkpt lat="48.15579" lon="6.41312">
        <ele>465</ele>
        <time>2022-09-26T12:25:14Z</time>
      </trkpt>
      <trkpt lat="48.15576" lon="6.41312">
        <ele>465</ele>
        <time>2022-09-26T12:25:15Z</time>
      </trkpt>
      <trkpt lat="48.15573" lon="6.41309">
        <ele>465</ele>
        <time>2022-09-26T12:25:16Z</time>
      </trkpt>
      <trkpt lat="48.15571" lon="6.41308">
        <ele>465</ele>
        <time>2022-09-26T12:25:17Z</time>
      </trkpt>
      <trkpt lat="48.15568" lon="6.41306">
        <ele>465</ele>
        <time>2022-09-26T12:25:18Z</time>
      </trkpt>
      <trkpt lat="48.15565" lon="6.41305">
        <ele>465</ele>
        <time>2022-09-26T12:25:19Z</time>
      </trkpt>
      <trkpt lat="48.15562" lon="6.41303">
        <ele>465</ele>
        <time>2022-09-26T12:25:20Z</time>
      </trkpt>
      <trkpt lat="48.15559" lon="6.41301">
        <ele>464</ele>
        <time>2022-09-26T12:25:21Z</time>
      </trkpt>
      <trkpt lat="48.15556" lon="6.41299">
        <ele>464</ele>
        <time>2022-09-26T12:25:22Z</time>
      </trkpt>
      <trkpt lat="48.15552" lon="6.41297">
        <ele>463</ele>
        <time>2022-09-26T12:25:23Z</time>
      </trkpt>
      <trkpt lat="48.1555" lon="6.41295">
        <ele>463</ele>
        <time>2022-09-26T12:25:24Z</time>
      </trkpt>
      <trkpt lat="48.15548" lon="6.41294">
        <ele>463</ele>
        <time>2022-09-26T12:25:25Z</time>
      </trkpt>
      <trkpt lat="48.15545" lon="6.41293">
        <ele>462</ele>
        <time>2022-09-26T12:25:26Z</time>
      </trkpt>
      <trkpt lat="48.15542" lon="6.41291">
        <ele>462</ele>
        <time>2022-09-26T12:25:27Z</time>
      </trkpt>
      <trkpt lat="48.15539" lon="6.41287">
        <ele>461</ele>
        <time>2022-09-26T12:25:28Z</time>
      </trkpt>
      <trkpt lat="48.15537" lon="6.41285">
        <ele>460</ele>
        <time>2022-09-26T12:25:29Z</time>
      </trkpt>
      <trkpt lat="48.15533" lon="6.41283">
        <ele>460</ele>
        <time>2022-09-26T12:25:30Z</time>
      </trkpt>
      <trkpt lat="48.15529" lon="6.41281">
        <ele>459</ele>
        <time>2022-09-26T12:25:31Z</time>
      </trkpt>
      <trkpt lat="48.15525" lon="6.41279">
        <ele>458</ele>
        <time>2022-09-26T12:25:32Z</time>
      </trkpt>
      <trkpt lat="48.15523" lon="6.41278">
        <ele>458</ele>
        <time>2022-09-26T12:25:33Z</time>
      </trkpt>
      <trkpt lat="48.15521" lon="6.41279">
        <ele>458</ele>
        <time>2022-09-26T12:25:34Z</time>
      </trkpt>
      <trkpt lat="48.15517" lon="6.4128">
        <ele>458</ele>
        <time>2022-09-26T12:25:35Z</time>
      </trkpt>
      <trkpt lat="48.15516" lon="6.41281">
        <ele>458</ele>
        <time>2022-09-26T12:25:36Z</time>
      </trkpt>
      <trkpt lat="48.15514" lon="6.41283">
        <ele>458</ele>
        <time>2022-09-26T12:25:37Z</time>
      </trkpt>
      <trkpt lat="48.15514" lon="6.41285">
        <ele>458</ele>
        <time>2022-09-26T12:25:38Z</time>
      </trkpt>
      <trkpt lat="48.15513" lon="6.41287">
        <ele>458</ele>
        <time>2022-09-26T12:25:39Z</time>
      </trkpt>
      <trkpt lat="48.15512" lon="6.41289">
        <ele>458</ele>
        <time>2022-09-26T12:25:40Z</time>
      </trkpt>
      <trkpt lat="48.15512" lon="6.4129">
        <ele>458</ele>
        <time>2022-09-26T12:25:41Z</time>
      </trkpt>
      <trkpt lat="48.15511" lon="6.41292">
        <ele>458</ele>
        <time>2022-09-26T12:25:42Z</time>
      </trkpt>
      <trkpt lat="48.15511" lon="6.41294">
        <ele>458</ele>
        <time>2022-09-26T12:25:43Z</time>
      </trkpt>
      <trkpt lat="48.15511" lon="6.41296">
        <ele>458</ele>
        <time>2022-09-26T12:25:44Z</time>
      </trkpt>
      <trkpt lat="48.15511" lon="6.41298">
        <ele>458</ele>
        <time>2022-09-26T12:25:45Z</time>
      </trkpt>
      <trkpt lat="48.1551" lon="6.413">
        <ele>458</ele>
        <time>2022-09-26T12:25:46Z</time>
      </trkpt>
      <trkpt lat="48.1551" lon="6.41303">
        <ele>458</ele>
        <time>2022-09-26T12:25:47Z</time>
      </trkpt>
      <trkpt lat="48.15508" lon="6.41305">
        <ele>458</ele>
        <time>2022-09-26T12:25:48Z</time>
      </trkpt>
      <trkpt lat="48.15508" lon="6.41307">
        <ele>458</ele>
        <time>2022-09-26T12:25:49Z</time>
      </trkpt>
      <trkpt lat="48.15506" lon="6.4131">
        <ele>458</ele>
        <time>2022-09-26T12:25:50Z</time>
      </trkpt>
      <trkpt lat="48.15505" lon="6.41313">
        <ele>458</ele>
        <time>2022-09-26T12:25:51Z</time>
      </trkpt>
      <trkpt lat="48.15504" lon="6.41316">
        <ele>458</ele>
        <time>2022-09-26T12:25:52Z</time>
      </trkpt>
      <trkpt lat="48.15504" lon="6.41318">
        <ele>458</ele>
        <time>2022-09-26T12:25:53Z</time>
      </trkpt>
      <trkpt lat="48.15504" lon="6.41321">
        <ele>458</ele>
        <time>2022-09-26T12:25:54Z</time>
      </trkpt>
      <trkpt lat="48.15504" lon="6.41324">
        <ele>458</ele>
        <time>2022-09-26T12:25:55Z</time>
      </trkpt>
      <trkpt lat="48.15503" lon="6.41326">
        <ele>458</ele>
        <time>2022-09-26T12:25:56Z</time>
      </trkpt>
      <trkpt lat="48.15503" lon="6.41329">
        <ele>458</ele>
        <time>2022-09-26T12:25:57Z</time>
      </trkpt>
      <trkpt lat="48.15502" lon="6.41331">
        <ele>458</ele>
        <time>2022-09-26T12:25:58Z</time>
      </trkpt>
      <trkpt lat="48.15502" lon="6.41333">
        <ele>458</ele>
        <time>2022-09-26T12:25:59Z</time>
      </trkpt>
      <trkpt lat="48.15503" lon="6.41335">
        <ele>458</ele>
        <time>2022-09-26T12:26:00Z</time>
      </trkpt>
      <trkpt lat="48.15503" lon="6.41337">
        <ele>458</ele>
        <time>2022-09-26T12:26:01Z</time>
      </trkpt>
      <trkpt lat="48.15504" lon="6.41339">
        <ele>458</ele>
        <time>2022-09-26T12:26:02Z</time>
      </trkpt>
      <trkpt lat="48.15505" lon="6.41341">
        <ele>458</ele>
        <time>2022-09-26T12:26:03Z</time>
      </trkpt>
      <trkpt lat="48.15505" lon="6.41343">
        <ele>458</ele>
        <time>2022-09-26T12:26:04Z</time>
      </trkpt>
      <trkpt lat="48.15506" lon="6.41345">
        <ele>458</ele>
        <time>2022-09-26T12:26:05Z</time>
      </trkpt>
      <trkpt lat="48.15506" lon="6.41348">
        <ele>459</ele>
        <time>2022-09-26T12:26:06Z</time>
      </trkpt>
      <trkpt lat="48.15505" lon="6.41352">
        <ele>459</ele>
        <time>2022-09-26T12:26:07Z</time>
      </trkpt>
      <trkpt lat="48.15504" lon="6.41356">
        <ele>459</ele>
        <time>2022-09-26T12:26:08Z</time>
      </trkpt>
      <trkpt lat="48.15503" lon="6.4136">
        <ele>459</ele>
        <time>2022-09-26T12:26:09Z</time>
      </trkpt>
      <trkpt lat="48.15502" lon="6.41363">
        <ele>459</ele>
        <time>2022-09-26T12:26:10Z</time>
      </trkpt>
      <trkpt lat="48.15501" lon="6.41367">
        <ele>459</ele>
        <time>2022-09-26T12:26:11Z</time>
      </trkpt>
      <trkpt lat="48.155" lon="6.41371">
        <ele>459</ele>
        <time>2022-09-26T12:26:12Z</time>
      </trkpt>
      <trkpt lat="48.15499" lon="6.41375">
        <ele>460</ele>
        <time>2022-09-26T12:26:13Z</time>
      </trkpt>
      <trkpt lat="48.15497" lon="6.41379">
        <ele>460</ele>
        <time>2022-09-26T12:26:14Z</time>
      </trkpt>
      <trkpt lat="48.15496" lon="6.41383">
        <ele>460</ele>
        <time>2022-09-26T12:26:15Z</time>
      </trkpt>
      <trkpt lat="48.15495" lon="6.41386">
        <ele>461</ele>
        <time>2022-09-26T12:26:16Z</time>
      </trkpt>
      <trkpt lat="48.15493" lon="6.41391">
        <ele>461</ele>
        <time>2022-09-26T12:26:17Z</time>
      </trkpt>
      <trkpt lat="48.15492" lon="6.41394">
        <ele>461</ele>
        <time>2022-09-26T12:26:18Z</time>
      </trkpt>
      <trkpt lat="48.15491" lon="6.41397">
        <ele>462</ele>
        <time>2022-09-26T12:26:19Z</time>
      </trkpt>
      <trkpt lat="48.1549" lon="6.41401">
        <ele>462</ele>
        <time>2022-09-26T12:26:20Z</time>
      </trkpt>
      <trkpt lat="48.1549" lon="6.41404">
        <ele>462</ele>
        <time>2022-09-26T12:26:21Z</time>
      </trkpt>
      <trkpt lat="48.1549" lon="6.41408">
        <ele>463</ele>
        <time>2022-09-26T12:26:22Z</time>
      </trkpt>
      <trkpt lat="48.1549" lon="6.41411">
        <ele>463</ele>
        <time>2022-09-26T12:26:23Z</time>
      </trkpt>
      <trkpt lat="48.1549" lon="6.41414">
        <ele>463</ele>
        <time>2022-09-26T12:26:24Z</time>
      </trkpt>
      <trkpt lat="48.1549" lon="6.41416">
        <ele>463</ele>
        <time>2022-09-26T12:26:25Z</time>
      </trkpt>
      <trkpt lat="48.1549" lon="6.41418">
        <ele>464</ele>
        <time>2022-09-26T12:26:26Z</time>
      </trkpt>
      <trkpt lat="48.1549" lon="6.4142">
        <ele>464</ele>
        <time>2022-09-26T12:26:27Z</time>
      </trkpt>
      <trkpt lat="48.1549" lon="6.41421">
        <ele>464</ele>
        <time>2022-09-26T12:26:28Z</time>
      </trkpt>
      <trkpt lat="48.1549" lon="6.41423">
        <ele>464</ele>
        <time>2022-09-26T12:26:29Z</time>
      </trkpt>
      <trkpt lat="48.1549" lon="6.41425">
        <ele>464</ele>
        <time>2022-09-26T12:26:30Z</time>
      </trkpt>
      <trkpt lat="48.15491" lon="6.41426">
        <ele>465</ele>
        <time>2022-09-26T12:26:31Z</time>
      </trkpt>
      <trkpt lat="48.1549" lon="6.41429">
        <ele>465</ele>
        <time>2022-09-26T12:26:32Z</time>
      </trkpt>
      <trkpt lat="48.15489" lon="6.41431">
        <ele>465</ele>
        <time>2022-09-26T12:26:33Z</time>
      </trkpt>
      <trkpt lat="48.15487" lon="6.41434">
        <ele>466</ele>
        <time>2022-09-26T12:26:34Z</time>
      </trkpt>
      <trkpt lat="48.15486" lon="6.41436">
        <ele>467</ele>
        <time>2022-09-26T12:26:35Z</time>
      </trkpt>
      <trkpt lat="48.15484" lon="6.41439">
        <ele>468</ele>
        <time>2022-09-26T12:26:36Z</time>
      </trkpt>
      <trkpt lat="48.15483" lon="6.41441">
        <ele>468</ele>
        <time>2022-09-26T12:26:37Z</time>
      </trkpt>
      <trkpt lat="48.15481" lon="6.41444">
        <ele>469</ele>
        <time>2022-09-26T12:26:38Z</time>
      </trkpt>
      <trkpt lat="48.1548" lon="6.41446">
        <ele>470</ele>
        <time>2022-09-26T12:26:39Z</time>
      </trkpt>
      <trkpt lat="48.15478" lon="6.41448">
        <ele>471</ele>
        <time>2022-09-26T12:26:40Z</time>
      </trkpt>
      <trkpt lat="48.15477" lon="6.4145">
        <ele>471</ele>
        <time>2022-09-26T12:26:41Z</time>
      </trkpt>
      <trkpt lat="48.15476" lon="6.41452">
        <ele>472</ele>
        <time>2022-09-26T12:26:42Z</time>
      </trkpt>
      <trkpt lat="48.15475" lon="6.41453">
        <ele>473</ele>
        <time>2022-09-26T12:26:43Z</time>
      </trkpt>
      <trkpt lat="48.15473" lon="6.41455">
        <ele>473</ele>
        <time>2022-09-26T12:26:44Z</time>
      </trkpt>
      <trkpt lat="48.15472" lon="6.41456">
        <ele>474</ele>
        <time>2022-09-26T12:26:45Z</time>
      </trkpt>
      <trkpt lat="48.1547" lon="6.41457">
        <ele>475</ele>
        <time>2022-09-26T12:26:46Z</time>
      </trkpt>
      <trkpt lat="48.15468" lon="6.41458">
        <ele>475</ele>
        <time>2022-09-26T12:26:47Z</time>
      </trkpt>
      <trkpt lat="48.15467" lon="6.4146">
        <ele>476</ele>
        <time>2022-09-26T12:26:48Z</time>
      </trkpt>
      <trkpt lat="48.15466" lon="6.41461">
        <ele>477</ele>
        <time>2022-09-26T12:26:49Z</time>
      </trkpt>
      <trkpt lat="48.15464" lon="6.41463">
        <ele>477</ele>
        <time>2022-09-26T12:26:50Z</time>
      </trkpt>
      <trkpt lat="48.15463" lon="6.41464">
        <ele>478</ele>
        <time>2022-09-26T12:26:51Z</time>
      </trkpt>
      <trkpt lat="48.15462" lon="6.41465">
        <ele>478</ele>
        <time>2022-09-26T12:26:52Z</time>
      </trkpt>
      <trkpt lat="48.15461" lon="6.41466">
        <ele>479</ele>
        <time>2022-09-26T12:26:53Z</time>
      </trkpt>
      <trkpt lat="48.15459" lon="6.41467">
        <ele>479</ele>
        <time>2022-09-26T12:26:54Z</time>
      </trkpt>
      <trkpt lat="48.15458" lon="6.41467">
        <ele>479</ele>
        <time>2022-09-26T12:26:55Z</time>
      </trkpt>
      <trkpt lat="48.15457" lon="6.41467">
        <ele>480</ele>
        <time>2022-09-26T12:26:56Z</time>
      </trkpt>
      <trkpt lat="48.15456" lon="6.41468">
        <ele>480</ele>
        <time>2022-09-26T12:26:57Z</time>
      </trkpt>
      <trkpt lat="48.15455" lon="6.41468">
        <ele>480</ele>
        <time>2022-09-26T12:26:58Z</time>
      </trkpt>
      <trkpt lat="48.15454" lon="6.41468">
        <ele>481</ele>
        <time>2022-09-26T12:26:59Z</time>
      </trkpt>
      <trkpt lat="48.15453" lon="6.41468">
        <ele>481</ele>
        <time>2022-09-26T12:27:00Z</time>
      </trkpt>
      <trkpt lat="48.15452" lon="6.4147">
        <ele>481</ele>
        <time>2022-09-26T12:27:01Z</time>
      </trkpt>
      <trkpt lat="48.1545" lon="6.41472">
        <ele>482</ele>
        <time>2022-09-26T12:27:02Z</time>
      </trkpt>
      <trkpt lat="48.15449" lon="6.41474">
        <ele>483</ele>
        <time>2022-09-26T12:27:03Z</time>
      </trkpt>
      <trkpt lat="48.15448" lon="6.41477">
        <ele>483</ele>
        <time>2022-09-26T12:27:04Z</time>
      </trkpt>
      <trkpt lat="48.15447" lon="6.41479">
        <ele>484</ele>
        <time>2022-09-26T12:27:05Z</time>
      </trkpt>
      <trkpt lat="48.15446" lon="6.4148">
        <ele>484</ele>
        <time>2022-09-26T12:27:06Z</time>
      </trkpt>
      <trkpt lat="48.15445" lon="6.41483">
        <ele>485</ele>
        <time>2022-09-26T12:27:07Z</time>
      </trkpt>
      <trkpt lat="48.15444" lon="6.41484">
        <ele>485</ele>
        <time>2022-09-26T12:27:08Z</time>
      </trkpt>
      <trkpt lat="48.15442" lon="6.41484">
        <ele>485</ele>
        <time>2022-09-26T12:27:09Z</time>
      </trkpt>
      <trkpt lat="48.15441" lon="6.41485">
        <ele>486</ele>
        <time>2022-09-26T12:27:10Z</time>
      </trkpt>
      <trkpt lat="48.1544" lon="6.41486">
        <ele>486</ele>
        <time>2022-09-26T12:27:11Z</time>
      </trkpt>
      <trkpt lat="48.15439" lon="6.41486">
        <ele>486</ele>
        <time>2022-09-26T12:27:12Z</time>
      </trkpt>
      <trkpt lat="48.15438" lon="6.41486">
        <ele>486</ele>
        <time>2022-09-26T12:27:13Z</time>
      </trkpt>
      <trkpt lat="48.15437" lon="6.41485">
        <ele>486</ele>
        <time>2022-09-26T12:27:14Z</time>
      </trkpt>
      <trkpt lat="48.15435" lon="6.41485">
        <ele>486</ele>
        <time>2022-09-26T12:27:15Z</time>
      </trkpt>
      <trkpt lat="48.15434" lon="6.41486">
        <ele>486</ele>
        <time>2022-09-26T12:27:16Z</time>
      </trkpt>
      <trkpt lat="48.15433" lon="6.41487">
        <ele>487</ele>
        <time>2022-09-26T12:27:17Z</time>
      </trkpt>
      <trkpt lat="48.15432" lon="6.41488">
        <ele>487</ele>
        <time>2022-09-26T12:27:18Z</time>
      </trkpt>
      <trkpt lat="48.1543" lon="6.41489">
        <ele>487</ele>
        <time>2022-09-26T12:27:19Z</time>
      </trkpt>
      <trkpt lat="48.15429" lon="6.4149">
        <ele>487</ele>
        <time>2022-09-26T12:27:20Z</time>
      </trkpt>
      <trkpt lat="48.15429" lon="6.41491">
        <ele>487</ele>
        <time>2022-09-26T12:27:21Z</time>
      </trkpt>
      <trkpt lat="48.15428" lon="6.41491">
        <ele>487</ele>
        <time>2022-09-26T12:27:22Z</time>
      </trkpt>
      <trkpt lat="48.15427" lon="6.41492">
        <ele>488</ele>
        <time>2022-09-26T12:27:23Z</time>
      </trkpt>
      <trkpt lat="48.15426" lon="6.41494">
        <ele>488</ele>
        <time>2022-09-26T12:27:24Z</time>
      </trkpt>
      <trkpt lat="48.15425" lon="6.41495">
        <ele>488</ele>
        <time>2022-09-26T12:27:25Z</time>
      </trkpt>
      <trkpt lat="48.15424" lon="6.41497">
        <ele>488</ele>
        <time>2022-09-26T12:27:26Z</time>
      </trkpt>
      <trkpt lat="48.15423" lon="6.41498">
        <ele>488</ele>
        <time>2022-09-26T12:27:27Z</time>
      </trkpt>
      <trkpt lat="48.15422" lon="6.415">
        <ele>488</ele>
        <time>2022-09-26T12:27:28Z</time>
      </trkpt>
      <trkpt lat="48.15421" lon="6.41502">
        <ele>488</ele>
        <time>2022-09-26T12:27:29Z</time>
      </trkpt>
      <trkpt lat="48.1542" lon="6.41504">
        <ele>488</ele>
        <time>2022-09-26T12:27:30Z</time>
      </trkpt>
      <trkpt lat="48.15419" lon="6.41506">
        <ele>488</ele>
        <time>2022-09-26T12:27:31Z</time>
      </trkpt>
      <trkpt lat="48.15418" lon="6.41507">
        <ele>488</ele>
        <time>2022-09-26T12:27:32Z</time>
      </trkpt>
      <trkpt lat="48.15417" lon="6.41509">
        <ele>488</ele>
        <time>2022-09-26T12:27:33Z</time>
      </trkpt>
      <trkpt lat="48.15416" lon="6.4151">
        <ele>488</ele>
        <time>2022-09-26T12:27:34Z</time>
      </trkpt>
      <trkpt lat="48.15415" lon="6.41512">
        <ele>488</ele>
        <time>2022-09-26T12:27:35Z</time>
      </trkpt>
      <trkpt lat="48.15414" lon="6.41514">
        <ele>488</ele>
        <time>2022-09-26T12:27:36Z</time>
      </trkpt>
      <trkpt lat="48.15412" lon="6.41515">
        <ele>488</ele>
        <time>2022-09-26T12:27:37Z</time>
      </trkpt>
      <trkpt lat="48.1541" lon="6.41515">
        <ele>488</ele>
        <time>2022-09-26T12:27:38Z</time>
      </trkpt>
      <trkpt lat="48.15409" lon="6.41515">
        <ele>488</ele>
        <time>2022-09-26T12:27:39Z</time>
      </trkpt>
      <trkpt lat="48.15407" lon="6.41516">
        <ele>488</ele>
        <time>2022-09-26T12:27:40Z</time>
      </trkpt>
      <trkpt lat="48.15406" lon="6.41517">
        <ele>488</ele>
        <time>2022-09-26T12:27:41Z</time>
      </trkpt>
      <trkpt lat="48.15405" lon="6.41518">
        <ele>487</ele>
        <time>2022-09-26T12:27:42Z</time>
      </trkpt>
      <trkpt lat="48.15403" lon="6.41518">
        <ele>487</ele>
        <time>2022-09-26T12:27:43Z</time>
      </trkpt>
      <trkpt lat="48.15402" lon="6.4152">
        <ele>487</ele>
        <time>2022-09-26T12:27:44Z</time>
      </trkpt>
      <trkpt lat="48.154" lon="6.41521">
        <ele>487</ele>
        <time>2022-09-26T12:27:45Z</time>
      </trkpt>
      <trkpt lat="48.15399" lon="6.41523">
        <ele>487</ele>
        <time>2022-09-26T12:27:46Z</time>
      </trkpt>
      <trkpt lat="48.15397" lon="6.41524">
        <ele>487</ele>
        <time>2022-09-26T12:27:47Z</time>
      </trkpt>
      <trkpt lat="48.15396" lon="6.41526">
        <ele>487</ele>
        <time>2022-09-26T12:27:48Z</time>
      </trkpt>
      <trkpt lat="48.15395" lon="6.41527">
        <ele>487</ele>
        <time>2022-09-26T12:27:49Z</time>
      </trkpt>
      <trkpt lat="48.15395" lon="6.41528">
        <ele>487</ele>
        <time>2022-09-26T12:27:50Z</time>
      </trkpt>
      <trkpt lat="48.15394" lon="6.41529">
        <ele>487</ele>
        <time>2022-09-26T12:27:51Z</time>
      </trkpt>
      <trkpt lat="48.15394" lon="6.41531">
        <ele>487</ele>
        <time>2022-09-26T12:27:52Z</time>
      </trkpt>
      <trkpt lat="48.15393" lon="6.41532">
        <ele>487</ele>
        <time>2022-09-26T12:27:53Z</time>
      </trkpt>
      <trkpt lat="48.15392" lon="6.41533">
        <ele>487</ele>
        <time>2022-09-26T12:27:54Z</time>
      </trkpt>
      <trkpt lat="48.15392" lon="6.41536">
        <ele>487</ele>
        <time>2022-09-26T12:27:55Z</time>
      </trkpt>
      <trkpt lat="48.15393" lon="6.41539">
        <ele>487</ele>
        <time>2022-09-26T12:27:56Z</time>
      </trkpt>
      <trkpt lat="48.15394" lon="6.41542">
        <ele>487</ele>
        <time>2022-09-26T12:27:57Z</time>
      </trkpt>
      <trkpt lat="48.15395" lon="6.41544">
        <ele>487</ele>
        <time>2022-09-26T12:27:58Z</time>
      </trkpt>
      <trkpt lat="48.15398" lon="6.41548">
        <ele>488</ele>
        <time>2022-09-26T12:27:59Z</time>
      </trkpt>
      <trkpt lat="48.154" lon="6.41551">
        <ele>488</ele>
        <time>2022-09-26T12:28:00Z</time>
      </trkpt>
      <trkpt lat="48.15402" lon="6.41555">
        <ele>488</ele>
        <time>2022-09-26T12:28:01Z</time>
      </trkpt>
      <trkpt lat="48.15404" lon="6.41558">
        <ele>488</ele>
        <time>2022-09-26T12:28:02Z</time>
      </trkpt>
      <trkpt lat="48.15407" lon="6.41562">
        <ele>488</ele>
        <time>2022-09-26T12:28:03Z</time>
      </trkpt>
      <trkpt lat="48.15409" lon="6.41566">
        <ele>488</ele>
        <time>2022-09-26T12:28:04Z</time>
      </trkpt>
      <trkpt lat="48.15411" lon="6.41571">
        <ele>488</ele>
        <time>2022-09-26T12:28:05Z</time>
      </trkpt>
      <trkpt lat="48.15413" lon="6.41574">
        <ele>488</ele>
        <time>2022-09-26T12:28:06Z</time>
      </trkpt>
      <trkpt lat="48.15415" lon="6.41578">
        <ele>488</ele>
        <time>2022-09-26T12:28:07Z</time>
      </trkpt>
      <trkpt lat="48.15417" lon="6.41581">
        <ele>488</ele>
        <time>2022-09-26T12:28:08Z</time>
      </trkpt>
      <trkpt lat="48.15419" lon="6.41584">
        <ele>488</ele>
        <time>2022-09-26T12:28:09Z</time>
      </trkpt>
      <trkpt lat="48.15421" lon="6.41587">
        <ele>488</ele>
        <time>2022-09-26T12:28:10Z</time>
      </trkpt>
      <trkpt lat="48.15423" lon="6.4159">
        <ele>488</ele>
        <time>2022-09-26T12:28:11Z</time>
      </trkpt>
      <trkpt lat="48.15425" lon="6.41594">
        <ele>488</ele>
        <time>2022-09-26T12:28:12Z</time>
      </trkpt>
      <trkpt lat="48.15425" lon="6.41601">
        <ele>487</ele>
        <time>2022-09-26T12:28:13Z</time>
      </trkpt>
      <trkpt lat="48.15425" lon="6.41606">
        <ele>487</ele>
        <time>2022-09-26T12:28:14Z</time>
      </trkpt>
      <trkpt lat="48.15425" lon="6.41611">
        <ele>487</ele>
        <time>2022-09-26T12:28:15Z</time>
      </trkpt>
      <trkpt lat="48.15426" lon="6.41615">
        <ele>487</ele>
        <time>2022-09-26T12:28:16Z</time>
      </trkpt>
      <trkpt lat="48.15428" lon="6.41619">
        <ele>486</ele>
        <time>2022-09-26T12:28:17Z</time>
      </trkpt>
      <trkpt lat="48.15429" lon="6.41624">
        <ele>486</ele>
        <time>2022-09-26T12:28:18Z</time>
      </trkpt>
      <trkpt lat="48.15431" lon="6.41629">
        <ele>486</ele>
        <time>2022-09-26T12:28:19Z</time>
      </trkpt>
      <trkpt lat="48.15432" lon="6.41635">
        <ele>486</ele>
        <time>2022-09-26T12:28:20Z</time>
      </trkpt>
      <trkpt lat="48.15434" lon="6.4164">
        <ele>486</ele>
        <time>2022-09-26T12:28:21Z</time>
      </trkpt>
      <trkpt lat="48.15452" lon="6.41683">
        <ele>484</ele>
        <time>2022-09-26T12:28:22Z</time>
      </trkpt>
      <trkpt lat="48.15455" lon="6.41688">
        <ele>484</ele>
        <time>2022-09-26T12:28:23Z</time>
      </trkpt>
      <trkpt lat="48.15459" lon="6.41694">
        <ele>484</ele>
        <time>2022-09-26T12:28:24Z</time>
      </trkpt>
      <trkpt lat="48.15463" lon="6.417">
        <ele>484</ele>
        <time>2022-09-26T12:28:25Z</time>
      </trkpt>
      <trkpt lat="48.15464" lon="6.41708">
        <ele>484</ele>
        <time>2022-09-26T12:28:26Z</time>
      </trkpt>
      <trkpt lat="48.15466" lon="6.41714">
        <ele>484</ele>
        <time>2022-09-26T12:28:27Z</time>
      </trkpt>
      <trkpt lat="48.15469" lon="6.41721">
        <ele>484</ele>
        <time>2022-09-26T12:28:28Z</time>
      </trkpt>
      <trkpt lat="48.15471" lon="6.41726">
        <ele>484</ele>
        <time>2022-09-26T12:28:29Z</time>
      </trkpt>
      <trkpt lat="48.15474" lon="6.41736">
        <ele>483</ele>
        <time>2022-09-26T12:28:30Z</time>
      </trkpt>
      <trkpt lat="48.15477" lon="6.41744">
        <ele>483</ele>
        <time>2022-09-26T12:28:31Z</time>
      </trkpt>
      <trkpt lat="48.15479" lon="6.41753">
        <ele>482</ele>
        <time>2022-09-26T12:28:32Z</time>
      </trkpt>
      <trkpt lat="48.15482" lon="6.4176">
        <ele>482</ele>
        <time>2022-09-26T12:28:33Z</time>
      </trkpt>
      <trkpt lat="48.15486" lon="6.41768">
        <ele>482</ele>
        <time>2022-09-26T12:28:34Z</time>
      </trkpt>
      <trkpt lat="48.15489" lon="6.41775">
        <ele>482</ele>
        <time>2022-09-26T12:28:35Z</time>
      </trkpt>
      <trkpt lat="48.15492" lon="6.41782">
        <ele>482</ele>
        <time>2022-09-26T12:28:36Z</time>
      </trkpt>
      <trkpt lat="48.15495" lon="6.41786">
        <ele>482</ele>
        <time>2022-09-26T12:28:37Z</time>
      </trkpt>
      <trkpt lat="48.155" lon="6.41792">
        <ele>482</ele>
        <time>2022-09-26T12:28:38Z</time>
      </trkpt>
      <trkpt lat="48.15504" lon="6.41796">
        <ele>481</ele>
        <time>2022-09-26T12:28:39Z</time>
      </trkpt>
      <trkpt lat="48.15508" lon="6.41801">
        <ele>481</ele>
        <time>2022-09-26T12:28:40Z</time>
      </trkpt>
      <trkpt lat="48.1551" lon="6.41805">
        <ele>481</ele>
        <time>2022-09-26T12:28:41Z</time>
      </trkpt>
      <trkpt lat="48.15513" lon="6.41812">
        <ele>481</ele>
        <time>2022-09-26T12:28:42Z</time>
      </trkpt>
      <trkpt lat="48.15519" lon="6.41824">
        <ele>480</ele>
        <time>2022-09-26T12:28:43Z</time>
      </trkpt>
      <trkpt lat="48.15523" lon="6.41832">
        <ele>480</ele>
        <time>2022-09-26T12:28:44Z</time>
      </trkpt>
      <trkpt lat="48.15524" lon="6.41839">
        <ele>480</ele>
        <time>2022-09-26T12:28:45Z</time>
      </trkpt>
      <trkpt lat="48.15525" lon="6.41848">
        <ele>480</ele>
        <time>2022-09-26T12:28:46Z</time>
      </trkpt>
      <trkpt lat="48.15527" lon="6.41858">
        <ele>480</ele>
        <time>2022-09-26T12:28:47Z</time>
      </trkpt>
      <trkpt lat="48.15531" lon="6.41866">
        <ele>480</ele>
        <time>2022-09-26T12:28:48Z</time>
      </trkpt>
      <trkpt lat="48.15534" lon="6.41871">
        <ele>479</ele>
        <time>2022-09-26T12:28:49Z</time>
      </trkpt>
      <trkpt lat="48.15537" lon="6.41879">
        <ele>479</ele>
        <time>2022-09-26T12:28:50Z</time>
      </trkpt>
      <trkpt lat="48.15539" lon="6.41888">
        <ele>478</ele>
        <time>2022-09-26T12:28:51Z</time>
      </trkpt>
      <trkpt lat="48.1554" lon="6.41904">
        <ele>477</ele>
        <time>2022-09-26T12:28:52Z</time>
      </trkpt>
      <trkpt lat="48.15542" lon="6.41911">
        <ele>477</ele>
        <time>2022-09-26T12:28:53Z</time>
      </trkpt>
      <trkpt lat="48.15543" lon="6.41917">
        <ele>477</ele>
        <time>2022-09-26T12:28:54Z</time>
      </trkpt>
      <trkpt lat="48.15544" lon="6.4192">
        <ele>477</ele>
        <time>2022-09-26T12:28:55Z</time>
      </trkpt>
      <trkpt lat="48.15547" lon="6.41926">
        <ele>477</ele>
        <time>2022-09-26T12:28:56Z</time>
      </trkpt>
      <trkpt lat="48.15552" lon="6.41929">
        <ele>477</ele>
        <time>2022-09-26T12:28:57Z</time>
      </trkpt>
      <trkpt lat="48.15555" lon="6.41933">
        <ele>477</ele>
        <time>2022-09-26T12:28:58Z</time>
      </trkpt>
      <trkpt lat="48.15558" lon="6.41938">
        <ele>477</ele>
        <time>2022-09-26T12:28:59Z</time>
      </trkpt>
      <trkpt lat="48.15562" lon="6.41942">
        <ele>477</ele>
        <time>2022-09-26T12:29:00Z</time>
      </trkpt>
      <trkpt lat="48.15565" lon="6.41948">
        <ele>477</ele>
        <time>2022-09-26T12:29:01Z</time>
      </trkpt>
      <trkpt lat="48.15568" lon="6.41952">
        <ele>477</ele>
        <time>2022-09-26T12:29:02Z</time>
      </trkpt>
      <trkpt lat="48.15571" lon="6.41958">
        <ele>477</ele>
        <time>2022-09-26T12:29:03Z</time>
      </trkpt>
      <trkpt lat="48.15574" lon="6.41964">
        <ele>478</ele>
        <time>2022-09-26T12:29:04Z</time>
      </trkpt>
      <trkpt lat="48.15576" lon="6.41971">
        <ele>478</ele>
        <time>2022-09-26T12:29:05Z</time>
      </trkpt>
      <trkpt lat="48.1558" lon="6.41979">
        <ele>478</ele>
        <time>2022-09-26T12:29:06Z</time>
      </trkpt>
      <trkpt lat="48.15581" lon="6.41987">
        <ele>479</ele>
        <time>2022-09-26T12:29:07Z</time>
      </trkpt>
      <trkpt lat="48.15582" lon="6.41993">
        <ele>479</ele>
        <time>2022-09-26T12:29:08Z</time>
      </trkpt>
      <trkpt lat="48.15583" lon="6.41998">
        <ele>479</ele>
        <time>2022-09-26T12:29:09Z</time>
      </trkpt>
      <trkpt lat="48.15585" lon="6.42003">
        <ele>480</ele>
        <time>2022-09-26T12:29:10Z</time>
      </trkpt>
      <trkpt lat="48.15586" lon="6.42007">
        <ele>480</ele>
        <time>2022-09-26T12:29:11Z</time>
      </trkpt>
      <trkpt lat="48.15589" lon="6.42012">
        <ele>480</ele>
        <time>2022-09-26T12:29:12Z</time>
      </trkpt>
      <trkpt lat="48.15591" lon="6.42017">
        <ele>480</ele>
        <time>2022-09-26T12:29:13Z</time>
      </trkpt>
      <trkpt lat="48.15593" lon="6.42022">
        <ele>480</ele>
        <time>2022-09-26T12:29:14Z</time>
      </trkpt>
      <trkpt lat="48.15596" lon="6.42027">
        <ele>480</ele>
        <time>2022-09-26T12:29:15Z</time>
      </trkpt>
      <trkpt lat="48.15599" lon="6.4203">
        <ele>480</ele>
        <time>2022-09-26T12:29:16Z</time>
      </trkpt>
      <trkpt lat="48.15602" lon="6.42035">
        <ele>480</ele>
        <time>2022-09-26T12:29:17Z</time>
      </trkpt>
      <trkpt lat="48.15606" lon="6.4204">
        <ele>480</ele>
        <time>2022-09-26T12:29:18Z</time>
      </trkpt>
      <trkpt lat="48.15609" lon="6.42044">
        <ele>480</ele>
        <time>2022-09-26T12:29:19Z</time>
      </trkpt>
      <trkpt lat="48.15612" lon="6.42049">
        <ele>480</ele>
        <time>2022-09-26T12:29:20Z</time>
      </trkpt>
      <trkpt lat="48.15613" lon="6.42054">
        <ele>480</ele>
        <time>2022-09-26T12:29:21Z</time>
      </trkpt>
      <trkpt lat="48.15615" lon="6.4206">
        <ele>480</ele>
        <time>2022-09-26T12:29:22Z</time>
      </trkpt>
      <trkpt lat="48.15615" lon="6.42064">
        <ele>480</ele>
        <time>2022-09-26T12:29:23Z</time>
      </trkpt>
      <trkpt lat="48.15616" lon="6.42066">
        <ele>480</ele>
        <time>2022-09-26T12:29:24Z</time>
      </trkpt>
      <trkpt lat="48.15616" lon="6.4207">
        <ele>480</ele>
        <time>2022-09-26T12:29:25Z</time>
      </trkpt>
      <trkpt lat="48.15616" lon="6.42073">
        <ele>480</ele>
        <time>2022-09-26T12:29:26Z</time>
      </trkpt>
      <trkpt lat="48.15617" lon="6.42078">
        <ele>480</ele>
        <time>2022-09-26T12:29:27Z</time>
      </trkpt>
      <trkpt lat="48.15619" lon="6.42083">
        <ele>480</ele>
        <time>2022-09-26T12:29:28Z</time>
      </trkpt>
      <trkpt lat="48.1562" lon="6.42089">
        <ele>479</ele>
        <time>2022-09-26T12:29:29Z</time>
      </trkpt>
      <trkpt lat="48.15621" lon="6.42094">
        <ele>478</ele>
        <time>2022-09-26T12:29:30Z</time>
      </trkpt>
      <trkpt lat="48.15628" lon="6.42105">
        <ele>478</ele>
        <time>2022-09-26T12:29:31Z</time>
      </trkpt>
      <trkpt lat="48.15628" lon="6.42111">
        <ele>477</ele>
        <time>2022-09-26T12:29:32Z</time>
      </trkpt>
      <trkpt lat="48.15629" lon="6.42116">
        <ele>477</ele>
        <time>2022-09-26T12:29:33Z</time>
      </trkpt>
      <trkpt lat="48.15632" lon="6.42123">
        <ele>476</ele>
        <time>2022-09-26T12:29:34Z</time>
      </trkpt>
      <trkpt lat="48.15634" lon="6.42129">
        <ele>476</ele>
        <time>2022-09-26T12:29:35Z</time>
      </trkpt>
      <trkpt lat="48.15635" lon="6.42135">
        <ele>476</ele>
        <time>2022-09-26T12:29:36Z</time>
      </trkpt>
      <trkpt lat="48.15637" lon="6.42139">
        <ele>475</ele>
        <time>2022-09-26T12:29:37Z</time>
      </trkpt>
      <trkpt lat="48.15641" lon="6.42144">
        <ele>475</ele>
        <time>2022-09-26T12:29:38Z</time>
      </trkpt>
      <trkpt lat="48.15644" lon="6.42154">
        <ele>474</ele>
        <time>2022-09-26T12:29:39Z</time>
      </trkpt>
      <trkpt lat="48.15647" lon="6.42163">
        <ele>473</ele>
        <time>2022-09-26T12:29:40Z</time>
      </trkpt>
      <trkpt lat="48.15649" lon="6.42169">
        <ele>472</ele>
        <time>2022-09-26T12:29:41Z</time>
      </trkpt>
      <trkpt lat="48.15651" lon="6.42175">
        <ele>472</ele>
        <time>2022-09-26T12:29:42Z</time>
      </trkpt>
      <trkpt lat="48.15653" lon="6.42182">
        <ele>471</ele>
        <time>2022-09-26T12:29:43Z</time>
      </trkpt>
      <trkpt lat="48.15656" lon="6.42189">
        <ele>471</ele>
        <time>2022-09-26T12:29:44Z</time>
      </trkpt>
      <trkpt lat="48.15659" lon="6.42194">
        <ele>471</ele>
        <time>2022-09-26T12:29:45Z</time>
      </trkpt>
      <trkpt lat="48.1566" lon="6.42202">
        <ele>470</ele>
        <time>2022-09-26T12:29:46Z</time>
      </trkpt>
      <trkpt lat="48.15663" lon="6.42206">
        <ele>470</ele>
        <time>2022-09-26T12:29:47Z</time>
      </trkpt>
      <trkpt lat="48.15665" lon="6.4221">
        <ele>470</ele>
        <time>2022-09-26T12:29:48Z</time>
      </trkpt>
      <trkpt lat="48.15667" lon="6.42214">
        <ele>470</ele>
        <time>2022-09-26T12:29:49Z</time>
      </trkpt>
      <trkpt lat="48.15668" lon="6.42219">
        <ele>470</ele>
        <time>2022-09-26T12:29:50Z</time>
      </trkpt>
      <trkpt lat="48.1567" lon="6.42224">
        <ele>469</ele>
        <time>2022-09-26T12:29:51Z</time>
      </trkpt>
      <trkpt lat="48.15673" lon="6.42228">
        <ele>469</ele>
        <time>2022-09-26T12:29:52Z</time>
      </trkpt>
      <trkpt lat="48.15675" lon="6.42232">
        <ele>469</ele>
        <time>2022-09-26T12:29:53Z</time>
      </trkpt>
      <trkpt lat="48.15679" lon="6.42237">
        <ele>469</ele>
        <time>2022-09-26T12:29:54Z</time>
      </trkpt>
      <trkpt lat="48.15683" lon="6.42241">
        <ele>469</ele>
        <time>2022-09-26T12:29:55Z</time>
      </trkpt>
      <trkpt lat="48.15687" lon="6.42245">
        <ele>469</ele>
        <time>2022-09-26T12:29:56Z</time>
      </trkpt>
      <trkpt lat="48.15691" lon="6.42254">
        <ele>469</ele>
        <time>2022-09-26T12:29:57Z</time>
      </trkpt>
      <trkpt lat="48.15695" lon="6.42262">
        <ele>469</ele>
        <time>2022-09-26T12:29:58Z</time>
      </trkpt>
      <trkpt lat="48.15698" lon="6.4227">
        <ele>469</ele>
        <time>2022-09-26T12:29:59Z</time>
      </trkpt>
      <trkpt lat="48.15702" lon="6.42276">
        <ele>469</ele>
        <time>2022-09-26T12:30:00Z</time>
      </trkpt>
      <trkpt lat="48.15705" lon="6.42282">
        <ele>469</ele>
        <time>2022-09-26T12:30:01Z</time>
      </trkpt>
      <trkpt lat="48.15708" lon="6.42287">
        <ele>468</ele>
        <time>2022-09-26T12:30:02Z</time>
      </trkpt>
      <trkpt lat="48.15711" lon="6.42293">
        <ele>468</ele>
        <time>2022-09-26T12:30:03Z</time>
      </trkpt>
      <trkpt lat="48.15713" lon="6.42304">
        <ele>467</ele>
        <time>2022-09-26T12:30:04Z</time>
      </trkpt>
      <trkpt lat="48.15714" lon="6.42309">
        <ele>467</ele>
        <time>2022-09-26T12:30:05Z</time>
      </trkpt>
      <trkpt lat="48.15716" lon="6.42312">
        <ele>467</ele>
        <time>2022-09-26T12:30:06Z</time>
      </trkpt>
      <trkpt lat="48.15717" lon="6.42317">
        <ele>466</ele>
        <time>2022-09-26T12:30:07Z</time>
      </trkpt>
      <trkpt lat="48.1572" lon="6.42323">
        <ele>466</ele>
        <time>2022-09-26T12:30:08Z</time>
      </trkpt>
      <trkpt lat="48.15721" lon="6.42328">
        <ele>465</ele>
        <time>2022-09-26T12:30:09Z</time>
      </trkpt>
      <trkpt lat="48.15723" lon="6.42331">
        <ele>465</ele>
        <time>2022-09-26T12:30:10Z</time>
      </trkpt>
      <trkpt lat="48.15724" lon="6.42333">
        <ele>465</ele>
        <time>2022-09-26T12:30:11Z</time>
      </trkpt>
      <trkpt lat="48.15726" lon="6.42335">
        <ele>464</ele>
        <time>2022-09-26T12:30:12Z</time>
      </trkpt>
      <trkpt lat="48.15728" lon="6.42339">
        <ele>464</ele>
        <time>2022-09-26T12:30:13Z</time>
      </trkpt>
      <trkpt lat="48.1573" lon="6.42341">
        <ele>464</ele>
        <time>2022-09-26T12:30:14Z</time>
      </trkpt>
      <trkpt lat="48.15732" lon="6.42344">
        <ele>464</ele>
        <time>2022-09-26T12:30:15Z</time>
      </trkpt>
      <trkpt lat="48.15733" lon="6.42347">
        <ele>464</ele>
        <time>2022-09-26T12:30:16Z</time>
      </trkpt>
      <trkpt lat="48.15734" lon="6.42351">
        <ele>464</ele>
        <time>2022-09-26T12:30:17Z</time>
      </trkpt>
      <trkpt lat="48.15735" lon="6.42356">
        <ele>463</ele>
        <time>2022-09-26T12:30:18Z</time>
      </trkpt>
      <trkpt lat="48.15736" lon="6.4236">
        <ele>463</ele>
        <time>2022-09-26T12:30:19Z</time>
      </trkpt>
      <trkpt lat="48.15737" lon="6.42366">
        <ele>463</ele>
        <time>2022-09-26T12:30:20Z</time>
      </trkpt>
      <trkpt lat="48.15741" lon="6.4237">
        <ele>463</ele>
        <time>2022-09-26T12:30:21Z</time>
      </trkpt>
      <trkpt lat="48.15744" lon="6.42374">
        <ele>463</ele>
        <time>2022-09-26T12:30:22Z</time>
      </trkpt>
      <trkpt lat="48.15746" lon="6.42378">
        <ele>463</ele>
        <time>2022-09-26T12:30:23Z</time>
      </trkpt>
      <trkpt lat="48.15748" lon="6.42382">
        <ele>463</ele>
        <time>2022-09-26T12:30:24Z</time>
      </trkpt>
      <trkpt lat="48.15751" lon="6.42388">
        <ele>464</ele>
        <time>2022-09-26T12:30:25Z</time>
      </trkpt>
      <trkpt lat="48.15754" lon="6.42393">
        <ele>464</ele>
        <time>2022-09-26T12:30:26Z</time>
      </trkpt>
      <trkpt lat="48.15759" lon="6.424">
        <ele>464</ele>
        <time>2022-09-26T12:30:27Z</time>
      </trkpt>
      <trkpt lat="48.15763" lon="6.42406">
        <ele>464</ele>
        <time>2022-09-26T12:30:28Z</time>
      </trkpt>
      <trkpt lat="48.15767" lon="6.42412">
        <ele>465</ele>
        <time>2022-09-26T12:30:29Z</time>
      </trkpt>
      <trkpt lat="48.15771" lon="6.4242">
        <ele>465</ele>
        <time>2022-09-26T12:30:30Z</time>
      </trkpt>
      <trkpt lat="48.15775" lon="6.42426">
        <ele>465</ele>
        <time>2022-09-26T12:30:31Z</time>
      </trkpt>
      <trkpt lat="48.15778" lon="6.42431">
        <ele>465</ele>
        <time>2022-09-26T12:30:32Z</time>
      </trkpt>
      <trkpt lat="48.15782" lon="6.42435">
        <ele>464</ele>
        <time>2022-09-26T12:30:33Z</time>
      </trkpt>
      <trkpt lat="48.15786" lon="6.42439">
        <ele>464</ele>
        <time>2022-09-26T12:30:34Z</time>
      </trkpt>
      <trkpt lat="48.15789" lon="6.42443">
        <ele>463</ele>
        <time>2022-09-26T12:30:35Z</time>
      </trkpt>
      <trkpt lat="48.15792" lon="6.42447">
        <ele>463</ele>
        <time>2022-09-26T12:30:36Z</time>
      </trkpt>
      <trkpt lat="48.15794" lon="6.42452">
        <ele>462</ele>
        <time>2022-09-26T12:30:37Z</time>
      </trkpt>
      <trkpt lat="48.15796" lon="6.42457">
        <ele>462</ele>
        <time>2022-09-26T12:30:38Z</time>
      </trkpt>
      <trkpt lat="48.15797" lon="6.42461">
        <ele>462</ele>
        <time>2022-09-26T12:30:39Z</time>
      </trkpt>
      <trkpt lat="48.15798" lon="6.42464">
        <ele>462</ele>
        <time>2022-09-26T12:30:40Z</time>
      </trkpt>
      <trkpt lat="48.15801" lon="6.42468">
        <ele>461</ele>
        <time>2022-09-26T12:30:41Z</time>
      </trkpt>
      <trkpt lat="48.15805" lon="6.42472">
        <ele>461</ele>
        <time>2022-09-26T12:30:42Z</time>
      </trkpt>
      <trkpt lat="48.1581" lon="6.42477">
        <ele>459</ele>
        <time>2022-09-26T12:30:43Z</time>
      </trkpt>
      <trkpt lat="48.15814" lon="6.42483">
        <ele>458</ele>
        <time>2022-09-26T12:30:44Z</time>
      </trkpt>
      <trkpt lat="48.15828" lon="6.42502">
        <ele>455</ele>
        <time>2022-09-26T12:30:45Z</time>
      </trkpt>
      <trkpt lat="48.15834" lon="6.42509">
        <ele>454</ele>
        <time>2022-09-26T12:30:46Z</time>
      </trkpt>
      <trkpt lat="48.15838" lon="6.42516">
        <ele>453</ele>
        <time>2022-09-26T12:30:47Z</time>
      </trkpt>
      <trkpt lat="48.15846" lon="6.42522">
        <ele>452</ele>
        <time>2022-09-26T12:30:48Z</time>
      </trkpt>
      <trkpt lat="48.15853" lon="6.42527">
        <ele>451</ele>
        <time>2022-09-26T12:30:49Z</time>
      </trkpt>
      <trkpt lat="48.1586" lon="6.42532">
        <ele>451</ele>
        <time>2022-09-26T12:30:50Z</time>
      </trkpt>
      <trkpt lat="48.15865" lon="6.42537">
        <ele>451</ele>
        <time>2022-09-26T12:30:51Z</time>
      </trkpt>
      <trkpt lat="48.15869" lon="6.42541">
        <ele>451</ele>
        <time>2022-09-26T12:30:52Z</time>
      </trkpt>
      <trkpt lat="48.15872" lon="6.42544">
        <ele>451</ele>
        <time>2022-09-26T12:30:53Z</time>
      </trkpt>
      <trkpt lat="48.15876" lon="6.42548">
        <ele>451</ele>
        <time>2022-09-26T12:30:54Z</time>
      </trkpt>
      <trkpt lat="48.15879" lon="6.42551">
        <ele>451</ele>
        <time>2022-09-26T12:30:55Z</time>
      </trkpt>
      <trkpt lat="48.15882" lon="6.42554">
        <ele>451</ele>
        <time>2022-09-26T12:30:56Z</time>
      </trkpt>
      <trkpt lat="48.15886" lon="6.42555">
        <ele>451</ele>
        <time>2022-09-26T12:30:57Z</time>
      </trkpt>
      <trkpt lat="48.15891" lon="6.42562">
        <ele>451</ele>
        <time>2022-09-26T12:30:58Z</time>
      </trkpt>
      <trkpt lat="48.15895" lon="6.42567">
        <ele>451</ele>
        <time>2022-09-26T12:30:59Z</time>
      </trkpt>
      <trkpt lat="48.15898" lon="6.42576">
        <ele>451</ele>
        <time>2022-09-26T12:31:00Z</time>
      </trkpt>
      <trkpt lat="48.15902" lon="6.42582">
        <ele>451</ele>
        <time>2022-09-26T12:31:01Z</time>
      </trkpt>
      <trkpt lat="48.15906" lon="6.42589">
        <ele>452</ele>
        <time>2022-09-26T12:31:02Z</time>
      </trkpt>
      <trkpt lat="48.15908" lon="6.42592">
        <ele>452</ele>
        <time>2022-09-26T12:31:03Z</time>
      </trkpt>
      <trkpt lat="48.15913" lon="6.42598">
        <ele>452</ele>
        <time>2022-09-26T12:31:04Z</time>
      </trkpt>
      <trkpt lat="48.15918" lon="6.42601">
        <ele>452</ele>
        <time>2022-09-26T12:31:05Z</time>
      </trkpt>
      <trkpt lat="48.15919" lon="6.42604">
        <ele>452</ele>
        <time>2022-09-26T12:31:06Z</time>
      </trkpt>
      <trkpt lat="48.15922" lon="6.42608">
        <ele>452</ele>
        <time>2022-09-26T12:31:07Z</time>
      </trkpt>
      <trkpt lat="48.15925" lon="6.42612">
        <ele>451</ele>
        <time>2022-09-26T12:31:08Z</time>
      </trkpt>
      <trkpt lat="48.15928" lon="6.42612">
        <ele>451</ele>
        <time>2022-09-26T12:31:09Z</time>
      </trkpt>
      <trkpt lat="48.15931" lon="6.42616">
        <ele>451</ele>
        <time>2022-09-26T12:31:10Z</time>
      </trkpt>
      <trkpt lat="48.15935" lon="6.4262">
        <ele>451</ele>
        <time>2022-09-26T12:31:11Z</time>
      </trkpt>
      <trkpt lat="48.15936" lon="6.42621">
        <ele>451</ele>
        <time>2022-09-26T12:31:12Z</time>
      </trkpt>
      <trkpt lat="48.15937" lon="6.42622">
        <ele>451</ele>
        <time>2022-09-26T12:31:13Z</time>
      </trkpt>
      <trkpt lat="48.15938" lon="6.42624">
        <ele>451</ele>
        <time>2022-09-26T12:31:14Z</time>
      </trkpt>
      <trkpt lat="48.15939" lon="6.42626">
        <ele>451</ele>
        <time>2022-09-26T12:31:15Z</time>
      </trkpt>
      <trkpt lat="48.1594" lon="6.42626">
        <ele>451</ele>
        <time>2022-09-26T12:31:16Z</time>
      </trkpt>
      <trkpt lat="48.1594" lon="6.42626">
        <ele>451</ele>
        <time>2022-09-26T12:31:17Z</time>
      </trkpt>
      <trkpt lat="48.1594" lon="6.42626">
        <ele>451</ele>
        <time>2022-09-26T12:31:18Z</time>
      </trkpt>
      <trkpt lat="48.1594" lon="6.42627">
        <ele>451</ele>
        <time>2022-09-26T12:31:19Z</time>
      </trkpt>
      <trkpt lat="48.1594" lon="6.42627">
        <ele>451</ele>
        <time>2022-09-26T12:31:20Z</time>
      </trkpt>
      <trkpt lat="48.1594" lon="6.42626">
        <ele>451</ele>
        <time>2022-09-26T12:31:21Z</time>
      </trkpt>
      <trkpt lat="48.1594" lon="6.42626">
        <ele>451</ele>
        <time>2022-09-26T12:31:22Z</time>
      </trkpt>
      <trkpt lat="48.1594" lon="6.42626">
        <ele>451</ele>
        <time>2022-09-26T12:31:23Z</time>
      </trkpt>
      <trkpt lat="48.15939" lon="6.42626">
        <ele>451</ele>
        <time>2022-09-26T12:31:24Z</time>
      </trkpt>
      <trkpt lat="48.15939" lon="6.42626">
        <ele>451</ele>
        <time>2022-09-26T12:31:25Z</time>
      </trkpt>
      <trkpt lat="48.15939" lon="6.42627">
        <ele>451</ele>
        <time>2022-09-26T12:31:26Z</time>
      </trkpt>
      <trkpt lat="48.15939" lon="6.42627">
        <ele>451</ele>
        <time>2022-09-26T12:31:27Z</time>
      </trkpt>
      <trkpt lat="48.15939" lon="6.42627">
        <ele>451</ele>
        <time>2022-09-26T12:31:28Z</time>
      </trkpt>
      <trkpt lat="48.15943" lon="6.42632">
        <ele>451</ele>
        <time>2022-09-26T12:31:37Z</time>
      </trkpt>
      <trkpt lat="48.15944" lon="6.42634">
        <ele>451</ele>
        <time>2022-09-26T12:31:38Z</time>
      </trkpt>
      <trkpt lat="48.15945" lon="6.42636">
        <ele>452</ele>
        <time>2022-09-26T12:31:39Z</time>
      </trkpt>
      <trkpt lat="48.15946" lon="6.42639">
        <ele>452</ele>
        <time>2022-09-26T12:31:40Z</time>
      </trkpt>
      <trkpt lat="48.15948" lon="6.42641">
        <ele>452</ele>
        <time>2022-09-26T12:31:41Z</time>
      </trkpt>
      <trkpt lat="48.1595" lon="6.42643">
        <ele>452</ele>
        <time>2022-09-26T12:31:42Z</time>
      </trkpt>
      <trkpt lat="48.15951" lon="6.42644">
        <ele>452</ele>
        <time>2022-09-26T12:31:43Z</time>
      </trkpt>
      <trkpt lat="48.15953" lon="6.42646">
        <ele>452</ele>
        <time>2022-09-26T12:31:44Z</time>
      </trkpt>
      <trkpt lat="48.15954" lon="6.42649">
        <ele>452</ele>
        <time>2022-09-26T12:31:45Z</time>
      </trkpt>
      <trkpt lat="48.15956" lon="6.42651">
        <ele>452</ele>
        <time>2022-09-26T12:31:46Z</time>
      </trkpt>
      <trkpt lat="48.15958" lon="6.42653">
        <ele>452</ele>
        <time>2022-09-26T12:31:47Z</time>
      </trkpt>
      <trkpt lat="48.15961" lon="6.42656">
        <ele>453</ele>
        <time>2022-09-26T12:31:48Z</time>
      </trkpt>
      <trkpt lat="48.15963" lon="6.42659">
        <ele>453</ele>
        <time>2022-09-26T12:31:49Z</time>
      </trkpt>
      <trkpt lat="48.15965" lon="6.42661">
        <ele>453</ele>
        <time>2022-09-26T12:31:50Z</time>
      </trkpt>
      <trkpt lat="48.15968" lon="6.42664">
        <ele>453</ele>
        <time>2022-09-26T12:31:51Z</time>
      </trkpt>
      <trkpt lat="48.1597" lon="6.42668">
        <ele>453</ele>
        <time>2022-09-26T12:31:52Z</time>
      </trkpt>
      <trkpt lat="48.15973" lon="6.42672">
        <ele>453</ele>
        <time>2022-09-26T12:31:53Z</time>
      </trkpt>
      <trkpt lat="48.15976" lon="6.42675">
        <ele>453</ele>
        <time>2022-09-26T12:31:54Z</time>
      </trkpt>
      <trkpt lat="48.15978" lon="6.42678">
        <ele>453</ele>
        <time>2022-09-26T12:31:55Z</time>
      </trkpt>
      <trkpt lat="48.1598" lon="6.42682">
        <ele>453</ele>
        <time>2022-09-26T12:31:56Z</time>
      </trkpt>
      <trkpt lat="48.15981" lon="6.42686">
        <ele>453</ele>
        <time>2022-09-26T12:31:57Z</time>
      </trkpt>
      <trkpt lat="48.15981" lon="6.4269">
        <ele>453</ele>
        <time>2022-09-26T12:31:58Z</time>
      </trkpt>
      <trkpt lat="48.15983" lon="6.42694">
        <ele>453</ele>
        <time>2022-09-26T12:31:59Z</time>
      </trkpt>
      <trkpt lat="48.15985" lon="6.42696">
        <ele>453</ele>
        <time>2022-09-26T12:32:00Z</time>
      </trkpt>
      <trkpt lat="48.15989" lon="6.427">
        <ele>453</ele>
        <time>2022-09-26T12:32:01Z</time>
      </trkpt>
      <trkpt lat="48.15993" lon="6.42703">
        <ele>453</ele>
        <time>2022-09-26T12:32:02Z</time>
      </trkpt>
      <trkpt lat="48.15995" lon="6.42706">
        <ele>453</ele>
        <time>2022-09-26T12:32:03Z</time>
      </trkpt>
      <trkpt lat="48.15995" lon="6.42712">
        <ele>453</ele>
        <time>2022-09-26T12:32:04Z</time>
      </trkpt>
      <trkpt lat="48.15993" lon="6.42719">
        <ele>452</ele>
        <time>2022-09-26T12:32:05Z</time>
      </trkpt>
      <trkpt lat="48.15993" lon="6.42725">
        <ele>452</ele>
        <time>2022-09-26T12:32:06Z</time>
      </trkpt>
      <trkpt lat="48.15991" lon="6.42731">
        <ele>452</ele>
        <time>2022-09-26T12:32:07Z</time>
      </trkpt>
      <trkpt lat="48.1599" lon="6.42736">
        <ele>452</ele>
        <time>2022-09-26T12:32:08Z</time>
      </trkpt>
      <trkpt lat="48.15988" lon="6.42738">
        <ele>452</ele>
        <time>2022-09-26T12:32:09Z</time>
      </trkpt>
      <trkpt lat="48.15986" lon="6.42741">
        <ele>452</ele>
        <time>2022-09-26T12:32:10Z</time>
      </trkpt>
      <trkpt lat="48.15983" lon="6.42746">
        <ele>451</ele>
        <time>2022-09-26T12:32:11Z</time>
      </trkpt>
      <trkpt lat="48.15981" lon="6.42749">
        <ele>451</ele>
        <time>2022-09-26T12:32:12Z</time>
      </trkpt>
      <trkpt lat="48.15978" lon="6.42755">
        <ele>451</ele>
        <time>2022-09-26T12:32:13Z</time>
      </trkpt>
      <trkpt lat="48.15974" lon="6.42759">
        <ele>451</ele>
        <time>2022-09-26T12:32:14Z</time>
      </trkpt>
      <trkpt lat="48.15971" lon="6.42763">
        <ele>450</ele>
        <time>2022-09-26T12:32:15Z</time>
      </trkpt>
      <trkpt lat="48.15969" lon="6.42766">
        <ele>450</ele>
        <time>2022-09-26T12:32:16Z</time>
      </trkpt>
      <trkpt lat="48.15967" lon="6.4277">
        <ele>450</ele>
        <time>2022-09-26T12:32:17Z</time>
      </trkpt>
      <trkpt lat="48.15964" lon="6.42773">
        <ele>450</ele>
        <time>2022-09-26T12:32:18Z</time>
      </trkpt>
      <trkpt lat="48.15961" lon="6.42776">
        <ele>450</ele>
        <time>2022-09-26T12:32:19Z</time>
      </trkpt>
      <trkpt lat="48.15958" lon="6.4278">
        <ele>450</ele>
        <time>2022-09-26T12:32:20Z</time>
      </trkpt>
      <trkpt lat="48.15955" lon="6.42784">
        <ele>449</ele>
        <time>2022-09-26T12:32:21Z</time>
      </trkpt>
      <trkpt lat="48.15952" lon="6.42787">
        <ele>449</ele>
        <time>2022-09-26T12:32:22Z</time>
      </trkpt>
      <trkpt lat="48.15948" lon="6.4279">
        <ele>449</ele>
        <time>2022-09-26T12:32:23Z</time>
      </trkpt>
      <trkpt lat="48.15946" lon="6.42792">
        <ele>449</ele>
        <time>2022-09-26T12:32:24Z</time>
      </trkpt>
      <trkpt lat="48.15943" lon="6.42795">
        <ele>449</ele>
        <time>2022-09-26T12:32:25Z</time>
      </trkpt>
      <trkpt lat="48.15941" lon="6.42797">
        <ele>449</ele>
        <time>2022-09-26T12:32:26Z</time>
      </trkpt>
      <trkpt lat="48.15939" lon="6.428">
        <ele>449</ele>
        <time>2022-09-26T12:32:27Z</time>
      </trkpt>
      <trkpt lat="48.15937" lon="6.42802">
        <ele>449</ele>
        <time>2022-09-26T12:32:28Z</time>
      </trkpt>
      <trkpt lat="48.15936" lon="6.42803">
        <ele>449</ele>
        <time>2022-09-26T12:32:29Z</time>
      </trkpt>
      <trkpt lat="48.15935" lon="6.42805">
        <ele>449</ele>
        <time>2022-09-26T12:32:30Z</time>
      </trkpt>
      <trkpt lat="48.15933" lon="6.42806">
        <ele>450</ele>
        <time>2022-09-26T12:32:31Z</time>
      </trkpt>
      <trkpt lat="48.15933" lon="6.42806">
        <ele>450</ele>
        <time>2022-09-26T12:32:32Z</time>
      </trkpt>
      <trkpt lat="48.15933" lon="6.42806">
        <ele>450</ele>
        <time>2022-09-26T12:32:33Z</time>
      </trkpt>
      <trkpt lat="48.15933" lon="6.42806">
        <ele>450</ele>
        <time>2022-09-26T12:32:34Z</time>
      </trkpt>
      <trkpt lat="48.15933" lon="6.42807">
        <ele>450</ele>
        <time>2022-09-26T12:32:35Z</time>
      </trkpt>
      <trkpt lat="48.15933" lon="6.42807">
        <ele>450</ele>
        <time>2022-09-26T12:32:36Z</time>
      </trkpt>
      <trkpt lat="48.1593" lon="6.4281">
        <ele>450</ele>
        <time>2022-09-26T12:32:37Z</time>
      </trkpt>
      <trkpt lat="48.15928" lon="6.42812">
        <ele>450</ele>
        <time>2022-09-26T12:32:38Z</time>
      </trkpt>
      <trkpt lat="48.15927" lon="6.42814">
        <ele>450</ele>
        <time>2022-09-26T12:32:39Z</time>
      </trkpt>
      <trkpt lat="48.15926" lon="6.42816">
        <ele>450</ele>
        <time>2022-09-26T12:32:40Z</time>
      </trkpt>
      <trkpt lat="48.15924" lon="6.42819">
        <ele>450</ele>
        <time>2022-09-26T12:32:41Z</time>
      </trkpt>
      <trkpt lat="48.15922" lon="6.42821">
        <ele>450</ele>
        <time>2022-09-26T12:32:42Z</time>
      </trkpt>
      <trkpt lat="48.1592" lon="6.42824">
        <ele>450</ele>
        <time>2022-09-26T12:32:43Z</time>
      </trkpt>
      <trkpt lat="48.15918" lon="6.42828">
        <ele>450</ele>
        <time>2022-09-26T12:32:44Z</time>
      </trkpt>
      <trkpt lat="48.15916" lon="6.4283">
        <ele>450</ele>
        <time>2022-09-26T12:32:45Z</time>
      </trkpt>
      <trkpt lat="48.15913" lon="6.42834">
        <ele>451</ele>
        <time>2022-09-26T12:32:46Z</time>
      </trkpt>
      <trkpt lat="48.15911" lon="6.42837">
        <ele>451</ele>
        <time>2022-09-26T12:32:47Z</time>
      </trkpt>
      <trkpt lat="48.15907" lon="6.4284">
        <ele>451</ele>
        <time>2022-09-26T12:32:48Z</time>
      </trkpt>
      <trkpt lat="48.15904" lon="6.42843">
        <ele>451</ele>
        <time>2022-09-26T12:32:49Z</time>
      </trkpt>
      <trkpt lat="48.159" lon="6.42846">
        <ele>451</ele>
        <time>2022-09-26T12:32:50Z</time>
      </trkpt>
      <trkpt lat="48.15897" lon="6.42849">
        <ele>451</ele>
        <time>2022-09-26T12:32:51Z</time>
      </trkpt>
      <trkpt lat="48.15893" lon="6.42853">
        <ele>451</ele>
        <time>2022-09-26T12:32:52Z</time>
      </trkpt>
      <trkpt lat="48.1589" lon="6.42856">
        <ele>451</ele>
        <time>2022-09-26T12:32:53Z</time>
      </trkpt>
      <trkpt lat="48.15887" lon="6.4286">
        <ele>451</ele>
        <time>2022-09-26T12:32:54Z</time>
      </trkpt>
      <trkpt lat="48.15885" lon="6.42864">
        <ele>451</ele>
        <time>2022-09-26T12:32:55Z</time>
      </trkpt>
      <trkpt lat="48.15881" lon="6.42867">
        <ele>451</ele>
        <time>2022-09-26T12:32:56Z</time>
      </trkpt>
      <trkpt lat="48.15878" lon="6.42871">
        <ele>452</ele>
        <time>2022-09-26T12:32:57Z</time>
      </trkpt>
      <trkpt lat="48.15875" lon="6.42875">
        <ele>452</ele>
        <time>2022-09-26T12:32:58Z</time>
      </trkpt>
      <trkpt lat="48.15872" lon="6.4288">
        <ele>452</ele>
        <time>2022-09-26T12:32:59Z</time>
      </trkpt>
      <trkpt lat="48.15869" lon="6.42884">
        <ele>453</ele>
        <time>2022-09-26T12:33:00Z</time>
      </trkpt>
      <trkpt lat="48.15868" lon="6.4289">
        <ele>453</ele>
        <time>2022-09-26T12:33:01Z</time>
      </trkpt>
      <trkpt lat="48.15869" lon="6.42894">
        <ele>453</ele>
        <time>2022-09-26T12:33:02Z</time>
      </trkpt>
      <trkpt lat="48.15872" lon="6.42897">
        <ele>453</ele>
        <time>2022-09-26T12:33:03Z</time>
      </trkpt>
      <trkpt lat="48.15874" lon="6.429">
        <ele>453</ele>
        <time>2022-09-26T12:33:04Z</time>
      </trkpt>
      <trkpt lat="48.15875" lon="6.42904">
        <ele>454</ele>
        <time>2022-09-26T12:33:05Z</time>
      </trkpt>
      <trkpt lat="48.15876" lon="6.42907">
        <ele>454</ele>
        <time>2022-09-26T12:33:06Z</time>
      </trkpt>
      <trkpt lat="48.15878" lon="6.4291">
        <ele>454</ele>
        <time>2022-09-26T12:33:07Z</time>
      </trkpt>
      <trkpt lat="48.15881" lon="6.42916">
        <ele>454</ele>
        <time>2022-09-26T12:33:08Z</time>
      </trkpt>
      <trkpt lat="48.15883" lon="6.4292">
        <ele>455</ele>
        <time>2022-09-26T12:33:09Z</time>
      </trkpt>
      <trkpt lat="48.15886" lon="6.42925">
        <ele>455</ele>
        <time>2022-09-26T12:33:10Z</time>
      </trkpt>
      <trkpt lat="48.15887" lon="6.4293">
        <ele>455</ele>
        <time>2022-09-26T12:33:11Z</time>
      </trkpt>
      <trkpt lat="48.15888" lon="6.42935">
        <ele>456</ele>
        <time>2022-09-26T12:33:12Z</time>
      </trkpt>
      <trkpt lat="48.15889" lon="6.4294">
        <ele>456</ele>
        <time>2022-09-26T12:33:13Z</time>
      </trkpt>
      <trkpt lat="48.15891" lon="6.42945">
        <ele>456</ele>
        <time>2022-09-26T12:33:14Z</time>
      </trkpt>
      <trkpt lat="48.15893" lon="6.4295">
        <ele>456</ele>
        <time>2022-09-26T12:33:15Z</time>
      </trkpt>
      <trkpt lat="48.15895" lon="6.42955">
        <ele>456</ele>
        <time>2022-09-26T12:33:16Z</time>
      </trkpt>
      <trkpt lat="48.15894" lon="6.42959">
        <ele>457</ele>
        <time>2022-09-26T12:33:17Z</time>
      </trkpt>
      <trkpt lat="48.15892" lon="6.42963">
        <ele>457</ele>
        <time>2022-09-26T12:33:18Z</time>
      </trkpt>
      <trkpt lat="48.1589" lon="6.42966">
        <ele>457</ele>
        <time>2022-09-26T12:33:19Z</time>
      </trkpt>
      <trkpt lat="48.15888" lon="6.42968">
        <ele>457</ele>
        <time>2022-09-26T12:33:20Z</time>
      </trkpt>
      <trkpt lat="48.15887" lon="6.4297">
        <ele>457</ele>
        <time>2022-09-26T12:33:21Z</time>
      </trkpt>
      <trkpt lat="48.15885" lon="6.42973">
        <ele>457</ele>
        <time>2022-09-26T12:33:22Z</time>
      </trkpt>
      <trkpt lat="48.15883" lon="6.42975">
        <ele>457</ele>
        <time>2022-09-26T12:33:23Z</time>
      </trkpt>
      <trkpt lat="48.15881" lon="6.42977">
        <ele>457</ele>
        <time>2022-09-26T12:33:24Z</time>
      </trkpt>
      <trkpt lat="48.15879" lon="6.4298">
        <ele>457</ele>
        <time>2022-09-26T12:33:25Z</time>
      </trkpt>
      <trkpt lat="48.15877" lon="6.42985">
        <ele>457</ele>
        <time>2022-09-26T12:33:26Z</time>
      </trkpt>
      <trkpt lat="48.15874" lon="6.42989">
        <ele>457</ele>
        <time>2022-09-26T12:33:27Z</time>
      </trkpt>
      <trkpt lat="48.15873" lon="6.42991">
        <ele>457</ele>
        <time>2022-09-26T12:33:28Z</time>
      </trkpt>
      <trkpt lat="48.15871" lon="6.42995">
        <ele>457</ele>
        <time>2022-09-26T12:33:29Z</time>
      </trkpt>
      <trkpt lat="48.15869" lon="6.42997">
        <ele>457</ele>
        <time>2022-09-26T12:33:30Z</time>
      </trkpt>
      <trkpt lat="48.15866" lon="6.43">
        <ele>457</ele>
        <time>2022-09-26T12:33:31Z</time>
      </trkpt>
      <trkpt lat="48.15864" lon="6.43002">
        <ele>457</ele>
        <time>2022-09-26T12:33:32Z</time>
      </trkpt>
      <trkpt lat="48.15862" lon="6.43005">
        <ele>457</ele>
        <time>2022-09-26T12:33:33Z</time>
      </trkpt>
      <trkpt lat="48.15861" lon="6.43007">
        <ele>457</ele>
        <time>2022-09-26T12:33:34Z</time>
      </trkpt>
      <trkpt lat="48.1586" lon="6.43011">
        <ele>457</ele>
        <time>2022-09-26T12:33:35Z</time>
      </trkpt>
      <trkpt lat="48.15857" lon="6.43016">
        <ele>457</ele>
        <time>2022-09-26T12:33:36Z</time>
      </trkpt>
      <trkpt lat="48.15854" lon="6.4302">
        <ele>457</ele>
        <time>2022-09-26T12:33:37Z</time>
      </trkpt>
      <trkpt lat="48.15852" lon="6.43024">
        <ele>457</ele>
        <time>2022-09-26T12:33:38Z</time>
      </trkpt>
      <trkpt lat="48.15849" lon="6.43028">
        <ele>456</ele>
        <time>2022-09-26T12:33:39Z</time>
      </trkpt>
      <trkpt lat="48.15847" lon="6.43032">
        <ele>456</ele>
        <time>2022-09-26T12:33:40Z</time>
      </trkpt>
      <trkpt lat="48.15844" lon="6.43036">
        <ele>456</ele>
        <time>2022-09-26T12:33:41Z</time>
      </trkpt>
      <trkpt lat="48.15842" lon="6.43039">
        <ele>455</ele>
        <time>2022-09-26T12:33:42Z</time>
      </trkpt>
      <trkpt lat="48.1584" lon="6.43042">
        <ele>455</ele>
        <time>2022-09-26T12:33:43Z</time>
      </trkpt>
      <trkpt lat="48.15838" lon="6.43046">
        <ele>455</ele>
        <time>2022-09-26T12:33:44Z</time>
      </trkpt>
      <trkpt lat="48.15837" lon="6.43049">
        <ele>455</ele>
        <time>2022-09-26T12:33:45Z</time>
      </trkpt>
      <trkpt lat="48.15835" lon="6.43053">
        <ele>455</ele>
        <time>2022-09-26T12:33:46Z</time>
      </trkpt>
      <trkpt lat="48.15833" lon="6.43057">
        <ele>454</ele>
        <time>2022-09-26T12:33:47Z</time>
      </trkpt>
      <trkpt lat="48.15831" lon="6.43062">
        <ele>454</ele>
        <time>2022-09-26T12:33:48Z</time>
      </trkpt>
      <trkpt lat="48.15829" lon="6.43067">
        <ele>453</ele>
        <time>2022-09-26T12:33:49Z</time>
      </trkpt>
      <trkpt lat="48.15826" lon="6.43072">
        <ele>453</ele>
        <time>2022-09-26T12:33:50Z</time>
      </trkpt>
      <trkpt lat="48.15821" lon="6.43079">
        <ele>452</ele>
        <time>2022-09-26T12:33:51Z</time>
      </trkpt>
      <trkpt lat="48.15816" lon="6.43086">
        <ele>451</ele>
        <time>2022-09-26T12:33:52Z</time>
      </trkpt>
      <trkpt lat="48.15809" lon="6.43095">
        <ele>450</ele>
        <time>2022-09-26T12:33:53Z</time>
      </trkpt>
      <trkpt lat="48.15804" lon="6.43102">
        <ele>449</ele>
        <time>2022-09-26T12:33:54Z</time>
      </trkpt>
      <trkpt lat="48.15801" lon="6.43109">
        <ele>449</ele>
        <time>2022-09-26T12:33:55Z</time>
      </trkpt>
      <trkpt lat="48.15798" lon="6.43113">
        <ele>449</ele>
        <time>2022-09-26T12:33:56Z</time>
      </trkpt>
      <trkpt lat="48.15795" lon="6.43118">
        <ele>448</ele>
        <time>2022-09-26T12:33:57Z</time>
      </trkpt>
      <trkpt lat="48.15792" lon="6.43122">
        <ele>448</ele>
        <time>2022-09-26T12:33:58Z</time>
      </trkpt>
      <trkpt lat="48.15789" lon="6.43128">
        <ele>448</ele>
        <time>2022-09-26T12:33:59Z</time>
      </trkpt>
      <trkpt lat="48.15786" lon="6.43133">
        <ele>448</ele>
        <time>2022-09-26T12:34:00Z</time>
      </trkpt>
      <trkpt lat="48.15783" lon="6.43138">
        <ele>448</ele>
        <time>2022-09-26T12:34:01Z</time>
      </trkpt>
      <trkpt lat="48.1578" lon="6.43144">
        <ele>448</ele>
        <time>2022-09-26T12:34:02Z</time>
      </trkpt>
      <trkpt lat="48.15777" lon="6.43149">
        <ele>448</ele>
        <time>2022-09-26T12:34:03Z</time>
      </trkpt>
      <trkpt lat="48.15774" lon="6.43153">
        <ele>448</ele>
        <time>2022-09-26T12:34:04Z</time>
      </trkpt>
      <trkpt lat="48.15771" lon="6.43158">
        <ele>448</ele>
        <time>2022-09-26T12:34:05Z</time>
      </trkpt>
      <trkpt lat="48.15768" lon="6.43163">
        <ele>448</ele>
        <time>2022-09-26T12:34:06Z</time>
      </trkpt>
      <trkpt lat="48.15765" lon="6.4317">
        <ele>448</ele>
        <time>2022-09-26T12:34:07Z</time>
      </trkpt>
      <trkpt lat="48.15762" lon="6.43175">
        <ele>448</ele>
        <time>2022-09-26T12:34:08Z</time>
      </trkpt>
      <trkpt lat="48.15759" lon="6.4318">
        <ele>449</ele>
        <time>2022-09-26T12:34:09Z</time>
      </trkpt>
      <trkpt lat="48.15756" lon="6.43184">
        <ele>449</ele>
        <time>2022-09-26T12:34:10Z</time>
      </trkpt>
      <trkpt lat="48.15753" lon="6.43189">
        <ele>449</ele>
        <time>2022-09-26T12:34:11Z</time>
      </trkpt>
      <trkpt lat="48.1575" lon="6.43193">
        <ele>449</ele>
        <time>2022-09-26T12:34:12Z</time>
      </trkpt>
      <trkpt lat="48.15748" lon="6.43197">
        <ele>450</ele>
        <time>2022-09-26T12:34:13Z</time>
      </trkpt>
      <trkpt lat="48.15745" lon="6.43201">
        <ele>450</ele>
        <time>2022-09-26T12:34:14Z</time>
      </trkpt>
      <trkpt lat="48.15743" lon="6.43205">
        <ele>450</ele>
        <time>2022-09-26T12:34:15Z</time>
      </trkpt>
      <trkpt lat="48.1574" lon="6.43209">
        <ele>450</ele>
        <time>2022-09-26T12:34:16Z</time>
      </trkpt>
      <trkpt lat="48.15738" lon="6.43214">
        <ele>451</ele>
        <time>2022-09-26T12:34:17Z</time>
      </trkpt>
      <trkpt lat="48.15735" lon="6.43219">
        <ele>451</ele>
        <time>2022-09-26T12:34:18Z</time>
      </trkpt>
      <trkpt lat="48.15732" lon="6.43224">
        <ele>451</ele>
        <time>2022-09-26T12:34:19Z</time>
      </trkpt>
      <trkpt lat="48.1573" lon="6.43228">
        <ele>451</ele>
        <time>2022-09-26T12:34:20Z</time>
      </trkpt>
      <trkpt lat="48.15727" lon="6.43233">
        <ele>451</ele>
        <time>2022-09-26T12:34:21Z</time>
      </trkpt>
      <trkpt lat="48.15727" lon="6.4324">
        <ele>451</ele>
        <time>2022-09-26T12:34:22Z</time>
      </trkpt>
      <trkpt lat="48.15727" lon="6.43244">
        <ele>451</ele>
        <time>2022-09-26T12:34:23Z</time>
      </trkpt>
      <trkpt lat="48.15726" lon="6.43251">
        <ele>451</ele>
        <time>2022-09-26T12:34:24Z</time>
      </trkpt>
      <trkpt lat="48.15725" lon="6.43255">
        <ele>451</ele>
        <time>2022-09-26T12:34:25Z</time>
      </trkpt>
      <trkpt lat="48.15726" lon="6.43258">
        <ele>451</ele>
        <time>2022-09-26T12:34:26Z</time>
      </trkpt>
      <trkpt lat="48.15726" lon="6.43262">
        <ele>451</ele>
        <time>2022-09-26T12:34:27Z</time>
      </trkpt>
      <trkpt lat="48.15725" lon="6.43267">
        <ele>451</ele>
        <time>2022-09-26T12:34:28Z</time>
      </trkpt>
      <trkpt lat="48.15724" lon="6.43271">
        <ele>451</ele>
        <time>2022-09-26T12:34:29Z</time>
      </trkpt>
      <trkpt lat="48.15724" lon="6.43275">
        <ele>451</ele>
        <time>2022-09-26T12:34:30Z</time>
      </trkpt>
      <trkpt lat="48.15724" lon="6.43276">
        <ele>451</ele>
        <time>2022-09-26T12:34:31Z</time>
      </trkpt>
      <trkpt lat="48.15724" lon="6.43279">
        <ele>451</ele>
        <time>2022-09-26T12:34:32Z</time>
      </trkpt>
      <trkpt lat="48.15725" lon="6.43281">
        <ele>451</ele>
        <time>2022-09-26T12:34:33Z</time>
      </trkpt>
      <trkpt lat="48.15727" lon="6.43281">
        <ele>451</ele>
        <time>2022-09-26T12:34:34Z</time>
      </trkpt>
      <trkpt lat="48.15728" lon="6.43282">
        <ele>451</ele>
        <time>2022-09-26T12:34:35Z</time>
      </trkpt>
      <trkpt lat="48.15728" lon="6.43283">
        <ele>451</ele>
        <time>2022-09-26T12:34:36Z</time>
      </trkpt>
      <trkpt lat="48.15729" lon="6.43284">
        <ele>451</ele>
        <time>2022-09-26T12:34:37Z</time>
      </trkpt>
      <trkpt lat="48.15731" lon="6.43285">
        <ele>451</ele>
        <time>2022-09-26T12:34:38Z</time>
      </trkpt>
      <trkpt lat="48.15732" lon="6.43285">
        <ele>451</ele>
        <time>2022-09-26T12:34:39Z</time>
      </trkpt>
      <trkpt lat="48.15734" lon="6.43284">
        <ele>451</ele>
        <time>2022-09-26T12:34:40Z</time>
      </trkpt>
      <trkpt lat="48.15735" lon="6.43284">
        <ele>451</ele>
        <time>2022-09-26T12:34:41Z</time>
      </trkpt>
      <trkpt lat="48.15737" lon="6.43283">
        <ele>451</ele>
        <time>2022-09-26T12:34:42Z</time>
      </trkpt>
      <trkpt lat="48.15738" lon="6.43282">
        <ele>451</ele>
        <time>2022-09-26T12:34:43Z</time>
      </trkpt>
      <trkpt lat="48.1574" lon="6.4328">
        <ele>451</ele>
        <time>2022-09-26T12:34:44Z</time>
      </trkpt>
      <trkpt lat="48.1574" lon="6.43278">
        <ele>451</ele>
        <time>2022-09-26T12:34:45Z</time>
      </trkpt>
      <trkpt lat="48.15741" lon="6.43276">
        <ele>451</ele>
        <time>2022-09-26T12:34:46Z</time>
      </trkpt>
      <trkpt lat="48.15742" lon="6.43276">
        <ele>451</ele>
        <time>2022-09-26T12:34:47Z</time>
      </trkpt>
      <trkpt lat="48.15744" lon="6.43276">
        <ele>451</ele>
        <time>2022-09-26T12:34:48Z</time>
      </trkpt>
      <trkpt lat="48.15746" lon="6.43278">
        <ele>451</ele>
        <time>2022-09-26T12:34:49Z</time>
      </trkpt>
      <trkpt lat="48.15748" lon="6.43282">
        <ele>450</ele>
        <time>2022-09-26T12:34:50Z</time>
      </trkpt>
      <trkpt lat="48.15748" lon="6.43286">
        <ele>450</ele>
        <time>2022-09-26T12:34:51Z</time>
      </trkpt>
      <trkpt lat="48.15749" lon="6.43291">
        <ele>450</ele>
        <time>2022-09-26T12:34:52Z</time>
      </trkpt>
      <trkpt lat="48.15749" lon="6.43294">
        <ele>450</ele>
        <time>2022-09-26T12:34:53Z</time>
      </trkpt>
      <trkpt lat="48.15748" lon="6.43299">
        <ele>450</ele>
        <time>2022-09-26T12:34:54Z</time>
      </trkpt>
      <trkpt lat="48.15748" lon="6.43303">
        <ele>450</ele>
        <time>2022-09-26T12:34:55Z</time>
      </trkpt>
      <trkpt lat="48.15746" lon="6.43305">
        <ele>450</ele>
        <time>2022-09-26T12:34:56Z</time>
      </trkpt>
      <trkpt lat="48.15746" lon="6.43313">
        <ele>450</ele>
        <time>2022-09-26T12:34:57Z</time>
      </trkpt>
      <trkpt lat="48.15744" lon="6.43316">
        <ele>450</ele>
        <time>2022-09-26T12:34:58Z</time>
      </trkpt>
      <trkpt lat="48.15745" lon="6.43319">
        <ele>450</ele>
        <time>2022-09-26T12:34:59Z</time>
      </trkpt>
      <trkpt lat="48.15746" lon="6.43321">
        <ele>450</ele>
        <time>2022-09-26T12:35:00Z</time>
      </trkpt>
      <trkpt lat="48.15747" lon="6.43323">
        <ele>450</ele>
        <time>2022-09-26T12:35:01Z</time>
      </trkpt>
      <trkpt lat="48.15747" lon="6.43326">
        <ele>450</ele>
        <time>2022-09-26T12:35:02Z</time>
      </trkpt>
      <trkpt lat="48.15748" lon="6.43328">
        <ele>450</ele>
        <time>2022-09-26T12:35:03Z</time>
      </trkpt>
      <trkpt lat="48.15747" lon="6.43333">
        <ele>450</ele>
        <time>2022-09-26T12:35:04Z</time>
      </trkpt>
      <trkpt lat="48.15747" lon="6.43336">
        <ele>449</ele>
        <time>2022-09-26T12:35:05Z</time>
      </trkpt>
      <trkpt lat="48.15746" lon="6.43338">
        <ele>449</ele>
        <time>2022-09-26T12:35:06Z</time>
      </trkpt>
      <trkpt lat="48.15746" lon="6.43341">
        <ele>449</ele>
        <time>2022-09-26T12:35:07Z</time>
      </trkpt>
      <trkpt lat="48.15745" lon="6.43343">
        <ele>449</ele>
        <time>2022-09-26T12:35:08Z</time>
      </trkpt>
      <trkpt lat="48.15745" lon="6.43346">
        <ele>449</ele>
        <time>2022-09-26T12:35:09Z</time>
      </trkpt>
      <trkpt lat="48.15745" lon="6.4335">
        <ele>449</ele>
        <time>2022-09-26T12:35:10Z</time>
      </trkpt>
      <trkpt lat="48.15745" lon="6.43352">
        <ele>449</ele>
        <time>2022-09-26T12:35:11Z</time>
      </trkpt>
      <trkpt lat="48.15745" lon="6.43356">
        <ele>448</ele>
        <time>2022-09-26T12:35:12Z</time>
      </trkpt>
      <trkpt lat="48.15746" lon="6.4336">
        <ele>448</ele>
        <time>2022-09-26T12:35:13Z</time>
      </trkpt>
      <trkpt lat="48.15746" lon="6.43365">
        <ele>448</ele>
        <time>2022-09-26T12:35:14Z</time>
      </trkpt>
      <trkpt lat="48.15746" lon="6.4337">
        <ele>447</ele>
        <time>2022-09-26T12:35:15Z</time>
      </trkpt>
      <trkpt lat="48.15745" lon="6.43373">
        <ele>447</ele>
        <time>2022-09-26T12:35:16Z</time>
      </trkpt>
      <trkpt lat="48.15745" lon="6.43377">
        <ele>447</ele>
        <time>2022-09-26T12:35:17Z</time>
      </trkpt>
      <trkpt lat="48.15745" lon="6.43382">
        <ele>447</ele>
        <time>2022-09-26T12:35:18Z</time>
      </trkpt>
      <trkpt lat="48.15745" lon="6.43387">
        <ele>447</ele>
        <time>2022-09-26T12:35:19Z</time>
      </trkpt>
      <trkpt lat="48.15745" lon="6.43391">
        <ele>446</ele>
        <time>2022-09-26T12:35:20Z</time>
      </trkpt>
      <trkpt lat="48.15745" lon="6.43396">
        <ele>446</ele>
        <time>2022-09-26T12:35:21Z</time>
      </trkpt>
      <trkpt lat="48.15744" lon="6.434">
        <ele>445</ele>
        <time>2022-09-26T12:35:22Z</time>
      </trkpt>
      <trkpt lat="48.15743" lon="6.43405">
        <ele>445</ele>
        <time>2022-09-26T12:35:23Z</time>
      </trkpt>
      <trkpt lat="48.15742" lon="6.43408">
        <ele>445</ele>
        <time>2022-09-26T12:35:24Z</time>
      </trkpt>
      <trkpt lat="48.15741" lon="6.43412">
        <ele>445</ele>
        <time>2022-09-26T12:35:25Z</time>
      </trkpt>
      <trkpt lat="48.15739" lon="6.43418">
        <ele>445</ele>
        <time>2022-09-26T12:35:26Z</time>
      </trkpt>
      <trkpt lat="48.15738" lon="6.43422">
        <ele>444</ele>
        <time>2022-09-26T12:35:27Z</time>
      </trkpt>
      <trkpt lat="48.15737" lon="6.43427">
        <ele>444</ele>
        <time>2022-09-26T12:35:28Z</time>
      </trkpt>
      <trkpt lat="48.15735" lon="6.43431">
        <ele>443</ele>
        <time>2022-09-26T12:35:29Z</time>
      </trkpt>
      <trkpt lat="48.15735" lon="6.43433">
        <ele>443</ele>
        <time>2022-09-26T12:35:30Z</time>
      </trkpt>
      <trkpt lat="48.15734" lon="6.43437">
        <ele>443</ele>
        <time>2022-09-26T12:35:31Z</time>
      </trkpt>
      <trkpt lat="48.15733" lon="6.4344">
        <ele>443</ele>
        <time>2022-09-26T12:35:32Z</time>
      </trkpt>
      <trkpt lat="48.15732" lon="6.43443">
        <ele>442</ele>
        <time>2022-09-26T12:35:33Z</time>
      </trkpt>
      <trkpt lat="48.15732" lon="6.43447">
        <ele>441</ele>
        <time>2022-09-26T12:35:34Z</time>
      </trkpt>
      <trkpt lat="48.15731" lon="6.4345">
        <ele>441</ele>
        <time>2022-09-26T12:35:35Z</time>
      </trkpt>
      <trkpt lat="48.15731" lon="6.43453">
        <ele>440</ele>
        <time>2022-09-26T12:35:36Z</time>
      </trkpt>
      <trkpt lat="48.15731" lon="6.43455">
        <ele>440</ele>
        <time>2022-09-26T12:35:37Z</time>
      </trkpt>
      <trkpt lat="48.15735" lon="6.43458">
        <ele>438</ele>
        <time>2022-09-26T12:35:38Z</time>
      </trkpt>
      <trkpt lat="48.15737" lon="6.43459">
        <ele>437</ele>
        <time>2022-09-26T12:35:39Z</time>
      </trkpt>
      <trkpt lat="48.15739" lon="6.43459">
        <ele>436</ele>
        <time>2022-09-26T12:35:40Z</time>
      </trkpt>
      <trkpt lat="48.1574" lon="6.43459">
        <ele>435</ele>
        <time>2022-09-26T12:35:41Z</time>
      </trkpt>
      <trkpt lat="48.15742" lon="6.43458">
        <ele>435</ele>
        <time>2022-09-26T12:35:42Z</time>
      </trkpt>
      <trkpt lat="48.15743" lon="6.43458">
        <ele>435</ele>
        <time>2022-09-26T12:35:43Z</time>
      </trkpt>
      <trkpt lat="48.15744" lon="6.43456">
        <ele>435</ele>
        <time>2022-09-26T12:35:44Z</time>
      </trkpt>
      <trkpt lat="48.15745" lon="6.43455">
        <ele>435</ele>
        <time>2022-09-26T12:35:45Z</time>
      </trkpt>
      <trkpt lat="48.15745" lon="6.43455">
        <ele>435</ele>
        <time>2022-09-26T12:35:46Z</time>
      </trkpt>
      <trkpt lat="48.15746" lon="6.43455">
        <ele>434</ele>
        <time>2022-09-26T12:35:47Z</time>
      </trkpt>
      <trkpt lat="48.15747" lon="6.43455">
        <ele>434</ele>
        <time>2022-09-26T12:35:48Z</time>
      </trkpt>
      <trkpt lat="48.15747" lon="6.43456">
        <ele>434</ele>
        <time>2022-09-26T12:35:49Z</time>
      </trkpt>
      <trkpt lat="48.15748" lon="6.43454">
        <ele>434</ele>
        <time>2022-09-26T12:35:50Z</time>
      </trkpt>
      <trkpt lat="48.15748" lon="6.43453">
        <ele>434</ele>
        <time>2022-09-26T12:35:51Z</time>
      </trkpt>
      <trkpt lat="48.15749" lon="6.43451">
        <ele>434</ele>
        <time>2022-09-26T12:35:52Z</time>
      </trkpt>
      <trkpt lat="48.15749" lon="6.4345">
        <ele>435</ele>
        <time>2022-09-26T12:35:53Z</time>
      </trkpt>
      <trkpt lat="48.1575" lon="6.43448">
        <ele>435</ele>
        <time>2022-09-26T12:35:54Z</time>
      </trkpt>
      <trkpt lat="48.1575" lon="6.43446">
        <ele>435</ele>
        <time>2022-09-26T12:35:55Z</time>
      </trkpt>
      <trkpt lat="48.15751" lon="6.43444">
        <ele>435</ele>
        <time>2022-09-26T12:35:56Z</time>
      </trkpt>
      <trkpt lat="48.15752" lon="6.43442">
        <ele>435</ele>
        <time>2022-09-26T12:35:57Z</time>
      </trkpt>
      <trkpt lat="48.15753" lon="6.43441">
        <ele>436</ele>
        <time>2022-09-26T12:35:58Z</time>
      </trkpt>
      <trkpt lat="48.15754" lon="6.4344">
        <ele>436</ele>
        <time>2022-09-26T12:35:59Z</time>
      </trkpt>
      <trkpt lat="48.15754" lon="6.43438">
        <ele>436</ele>
        <time>2022-09-26T12:36:00Z</time>
      </trkpt>
      <trkpt lat="48.15755" lon="6.43436">
        <ele>436</ele>
        <time>2022-09-26T12:36:01Z</time>
      </trkpt>
      <trkpt lat="48.15755" lon="6.43434">
        <ele>436</ele>
        <time>2022-09-26T12:36:02Z</time>
      </trkpt>
      <trkpt lat="48.15756" lon="6.43433">
        <ele>436</ele>
        <time>2022-09-26T12:36:03Z</time>
      </trkpt>
      <trkpt lat="48.15757" lon="6.43432">
        <ele>436</ele>
        <time>2022-09-26T12:36:04Z</time>
      </trkpt>
      <trkpt lat="48.15757" lon="6.4343">
        <ele>437</ele>
        <time>2022-09-26T12:36:05Z</time>
      </trkpt>
      <trkpt lat="48.15758" lon="6.43429">
        <ele>437</ele>
        <time>2022-09-26T12:36:06Z</time>
      </trkpt>
      <trkpt lat="48.15758" lon="6.43427">
        <ele>437</ele>
        <time>2022-09-26T12:36:07Z</time>
      </trkpt>
      <trkpt lat="48.15759" lon="6.43425">
        <ele>437</ele>
        <time>2022-09-26T12:36:08Z</time>
      </trkpt>
      <trkpt lat="48.1576" lon="6.43423">
        <ele>438</ele>
        <time>2022-09-26T12:36:09Z</time>
      </trkpt>
      <trkpt lat="48.15761" lon="6.43421">
        <ele>438</ele>
        <time>2022-09-26T12:36:10Z</time>
      </trkpt>
      <trkpt lat="48.15762" lon="6.43418">
        <ele>438</ele>
        <time>2022-09-26T12:36:11Z</time>
      </trkpt>
      <trkpt lat="48.15764" lon="6.43415">
        <ele>438</ele>
        <time>2022-09-26T12:36:12Z</time>
      </trkpt>
      <trkpt lat="48.15766" lon="6.43412">
        <ele>438</ele>
        <time>2022-09-26T12:36:13Z</time>
      </trkpt>
      <trkpt lat="48.15768" lon="6.43408">
        <ele>438</ele>
        <time>2022-09-26T12:36:14Z</time>
      </trkpt>
      <trkpt lat="48.15769" lon="6.43406">
        <ele>438</ele>
        <time>2022-09-26T12:36:15Z</time>
      </trkpt>
      <trkpt lat="48.15771" lon="6.43403">
        <ele>439</ele>
        <time>2022-09-26T12:36:16Z</time>
      </trkpt>
      <trkpt lat="48.15775" lon="6.43404">
        <ele>438</ele>
        <time>2022-09-26T12:36:17Z</time>
      </trkpt>
      <trkpt lat="48.15777" lon="6.43403">
        <ele>437</ele>
        <time>2022-09-26T12:36:18Z</time>
      </trkpt>
      <trkpt lat="48.15779" lon="6.43402">
        <ele>437</ele>
        <time>2022-09-26T12:36:19Z</time>
      </trkpt>
      <trkpt lat="48.15781" lon="6.434">
        <ele>437</ele>
        <time>2022-09-26T12:36:20Z</time>
      </trkpt>
      <trkpt lat="48.15783" lon="6.43397">
        <ele>436</ele>
        <time>2022-09-26T12:36:21Z</time>
      </trkpt>
      <trkpt lat="48.15784" lon="6.43395">
        <ele>436</ele>
        <time>2022-09-26T12:36:22Z</time>
      </trkpt>
      <trkpt lat="48.15785" lon="6.43392">
        <ele>436</ele>
        <time>2022-09-26T12:36:23Z</time>
      </trkpt>
      <trkpt lat="48.15787" lon="6.4339">
        <ele>436</ele>
        <time>2022-09-26T12:36:24Z</time>
      </trkpt>
      <trkpt lat="48.15788" lon="6.43387">
        <ele>436</ele>
        <time>2022-09-26T12:36:25Z</time>
      </trkpt>
      <trkpt lat="48.15789" lon="6.43384">
        <ele>436</ele>
        <time>2022-09-26T12:36:26Z</time>
      </trkpt>
      <trkpt lat="48.15791" lon="6.43382">
        <ele>436</ele>
        <time>2022-09-26T12:36:27Z</time>
      </trkpt>
      <trkpt lat="48.15792" lon="6.4338">
        <ele>436</ele>
        <time>2022-09-26T12:36:28Z</time>
      </trkpt>
      <trkpt lat="48.15794" lon="6.43376">
        <ele>436</ele>
        <time>2022-09-26T12:36:29Z</time>
      </trkpt>
      <trkpt lat="48.15795" lon="6.43374">
        <ele>436</ele>
        <time>2022-09-26T12:36:30Z</time>
      </trkpt>
      <trkpt lat="48.15797" lon="6.43371">
        <ele>436</ele>
        <time>2022-09-26T12:36:31Z</time>
      </trkpt>
      <trkpt lat="48.15799" lon="6.43368">
        <ele>436</ele>
        <time>2022-09-26T12:36:32Z</time>
      </trkpt>
      <trkpt lat="48.158" lon="6.43365">
        <ele>436</ele>
        <time>2022-09-26T12:36:33Z</time>
      </trkpt>
      <trkpt lat="48.15801" lon="6.43363">
        <ele>436</ele>
        <time>2022-09-26T12:36:34Z</time>
      </trkpt>
      <trkpt lat="48.15803" lon="6.4336">
        <ele>436</ele>
        <time>2022-09-26T12:36:35Z</time>
      </trkpt>
      <trkpt lat="48.15805" lon="6.43356">
        <ele>435</ele>
        <time>2022-09-26T12:36:36Z</time>
      </trkpt>
      <trkpt lat="48.15806" lon="6.43353">
        <ele>435</ele>
        <time>2022-09-26T12:36:37Z</time>
      </trkpt>
      <trkpt lat="48.15807" lon="6.43351">
        <ele>435</ele>
        <time>2022-09-26T12:36:38Z</time>
      </trkpt>
      <trkpt lat="48.15808" lon="6.43349">
        <ele>435</ele>
        <time>2022-09-26T12:36:39Z</time>
      </trkpt>
      <trkpt lat="48.15807" lon="6.43345">
        <ele>436</ele>
        <time>2022-09-26T12:36:40Z</time>
      </trkpt>
      <trkpt lat="48.15807" lon="6.43342">
        <ele>437</ele>
        <time>2022-09-26T12:36:41Z</time>
      </trkpt>
      <trkpt lat="48.15807" lon="6.43339">
        <ele>437</ele>
        <time>2022-09-26T12:36:42Z</time>
      </trkpt>
      <trkpt lat="48.15807" lon="6.43337">
        <ele>438</ele>
        <time>2022-09-26T12:36:43Z</time>
      </trkpt>
      <trkpt lat="48.15807" lon="6.43336">
        <ele>438</ele>
        <time>2022-09-26T12:36:44Z</time>
      </trkpt>
      <trkpt lat="48.15808" lon="6.43331">
        <ele>438</ele>
        <time>2022-09-26T12:36:45Z</time>
      </trkpt>
      <trkpt lat="48.15809" lon="6.43326">
        <ele>438</ele>
        <time>2022-09-26T12:36:46Z</time>
      </trkpt>
      <trkpt lat="48.1581" lon="6.43323">
        <ele>439</ele>
        <time>2022-09-26T12:36:47Z</time>
      </trkpt>
      <trkpt lat="48.15811" lon="6.43319">
        <ele>439</ele>
        <time>2022-09-26T12:36:48Z</time>
      </trkpt>
      <trkpt lat="48.15811" lon="6.43316">
        <ele>439</ele>
        <time>2022-09-26T12:36:49Z</time>
      </trkpt>
      <trkpt lat="48.15812" lon="6.43312">
        <ele>439</ele>
        <time>2022-09-26T12:36:50Z</time>
      </trkpt>
      <trkpt lat="48.15813" lon="6.43309">
        <ele>439</ele>
        <time>2022-09-26T12:36:51Z</time>
      </trkpt>
      <trkpt lat="48.15814" lon="6.43306">
        <ele>440</ele>
        <time>2022-09-26T12:36:52Z</time>
      </trkpt>
      <trkpt lat="48.15815" lon="6.43303">
        <ele>440</ele>
        <time>2022-09-26T12:36:53Z</time>
      </trkpt>
      <trkpt lat="48.15815" lon="6.433">
        <ele>440</ele>
        <time>2022-09-26T12:36:54Z</time>
      </trkpt>
      <trkpt lat="48.15816" lon="6.43297">
        <ele>440</ele>
        <time>2022-09-26T12:36:55Z</time>
      </trkpt>
      <trkpt lat="48.15816" lon="6.43294">
        <ele>440</ele>
        <time>2022-09-26T12:36:56Z</time>
      </trkpt>
      <trkpt lat="48.15817" lon="6.43292">
        <ele>441</ele>
        <time>2022-09-26T12:36:57Z</time>
      </trkpt>
      <trkpt lat="48.15817" lon="6.4329">
        <ele>441</ele>
        <time>2022-09-26T12:36:58Z</time>
      </trkpt>
      <trkpt lat="48.15817" lon="6.43288">
        <ele>441</ele>
        <time>2022-09-26T12:36:59Z</time>
      </trkpt>
      <trkpt lat="48.15817" lon="6.43285">
        <ele>441</ele>
        <time>2022-09-26T12:37:00Z</time>
      </trkpt>
      <trkpt lat="48.15818" lon="6.43284">
        <ele>441</ele>
        <time>2022-09-26T12:37:01Z</time>
      </trkpt>
      <trkpt lat="48.15818" lon="6.43282">
        <ele>441</ele>
        <time>2022-09-26T12:37:02Z</time>
      </trkpt>
      <trkpt lat="48.15818" lon="6.4328">
        <ele>442</ele>
        <time>2022-09-26T12:37:03Z</time>
      </trkpt>
      <trkpt lat="48.15817" lon="6.43279">
        <ele>442</ele>
        <time>2022-09-26T12:37:04Z</time>
      </trkpt>
      <trkpt lat="48.15817" lon="6.43277">
        <ele>442</ele>
        <time>2022-09-26T12:37:05Z</time>
      </trkpt>
      <trkpt lat="48.15816" lon="6.43276">
        <ele>442</ele>
        <time>2022-09-26T12:37:06Z</time>
      </trkpt>
      <trkpt lat="48.15816" lon="6.43274">
        <ele>443</ele>
        <time>2022-09-26T12:37:07Z</time>
      </trkpt>
      <trkpt lat="48.15815" lon="6.43272">
        <ele>443</ele>
        <time>2022-09-26T12:37:08Z</time>
      </trkpt>
      <trkpt lat="48.15815" lon="6.43271">
        <ele>443</ele>
        <time>2022-09-26T12:37:09Z</time>
      </trkpt>
      <trkpt lat="48.15816" lon="6.43268">
        <ele>443</ele>
        <time>2022-09-26T12:37:10Z</time>
      </trkpt>
      <trkpt lat="48.15815" lon="6.43267">
        <ele>443</ele>
        <time>2022-09-26T12:37:11Z</time>
      </trkpt>
      <trkpt lat="48.15816" lon="6.43267">
        <ele>444</ele>
        <time>2022-09-26T12:37:12Z</time>
      </trkpt>
      <trkpt lat="48.15816" lon="6.43266">
        <ele>444</ele>
        <time>2022-09-26T12:37:13Z</time>
      </trkpt>
      <trkpt lat="48.15817" lon="6.43265">
        <ele>443</ele>
        <time>2022-09-26T12:37:14Z</time>
      </trkpt>
      <trkpt lat="48.15817" lon="6.43266">
        <ele>443</ele>
        <time>2022-09-26T12:37:15Z</time>
      </trkpt>
      <trkpt lat="48.15818" lon="6.43266">
        <ele>443</ele>
        <time>2022-09-26T12:37:16Z</time>
      </trkpt>
      <trkpt lat="48.1582" lon="6.43265">
        <ele>443</ele>
        <time>2022-09-26T12:37:17Z</time>
      </trkpt>
      <trkpt lat="48.15821" lon="6.43263">
        <ele>443</ele>
        <time>2022-09-26T12:37:18Z</time>
      </trkpt>
      <trkpt lat="48.15821" lon="6.43262">
        <ele>443</ele>
        <time>2022-09-26T12:37:19Z</time>
      </trkpt>
      <trkpt lat="48.15821" lon="6.4326">
        <ele>443</ele>
        <time>2022-09-26T12:37:20Z</time>
      </trkpt>
      <trkpt lat="48.15823" lon="6.43257">
        <ele>443</ele>
        <time>2022-09-26T12:37:21Z</time>
      </trkpt>
      <trkpt lat="48.15823" lon="6.43257">
        <ele>443</ele>
        <time>2022-09-26T12:37:22Z</time>
      </trkpt>
      <trkpt lat="48.15824" lon="6.43257">
        <ele>443</ele>
        <time>2022-09-26T12:37:23Z</time>
      </trkpt>
      <trkpt lat="48.15827" lon="6.43256">
        <ele>442</ele>
        <time>2022-09-26T12:37:24Z</time>
      </trkpt>
      <trkpt lat="48.15827" lon="6.43256">
        <ele>442</ele>
        <time>2022-09-26T12:37:25Z</time>
      </trkpt>
      <trkpt lat="48.15827" lon="6.43257">
        <ele>442</ele>
        <time>2022-09-26T12:37:26Z</time>
      </trkpt>
      <trkpt lat="48.15827" lon="6.43257">
        <ele>442</ele>
        <time>2022-09-26T12:37:27Z</time>
      </trkpt>
      <trkpt lat="48.15827" lon="6.43257">
        <ele>442</ele>
        <time>2022-09-26T12:37:28Z</time>
      </trkpt>
      <trkpt lat="48.15827" lon="6.43257">
        <ele>442</ele>
        <time>2022-09-26T12:37:29Z</time>
      </trkpt>
      <trkpt lat="48.15827" lon="6.43257">
        <ele>442</ele>
        <time>2022-09-26T12:37:30Z</time>
      </trkpt>
      <trkpt lat="48.15827" lon="6.43257">
        <ele>442</ele>
        <time>2022-09-26T12:37:31Z</time>
      </trkpt>
      <trkpt lat="48.15827" lon="6.43257">
        <ele>442</ele>
        <time>2022-09-26T12:37:32Z</time>
      </trkpt>
      <trkpt lat="48.15827" lon="6.43257">
        <ele>442</ele>
        <time>2022-09-26T12:37:33Z</time>
      </trkpt>
      <trkpt lat="48.15827" lon="6.43257">
        <ele>442</ele>
        <time>2022-09-26T12:37:35Z</time>
      </trkpt>
      <trkpt lat="48.15827" lon="6.43257">
        <ele>442</ele>
        <time>2022-09-26T12:37:36Z</time>
      </trkpt>
      <trkpt lat="48.15827" lon="6.43257">
        <ele>442</ele>
        <time>2022-09-26T12:37:37Z</time>
      </trkpt>
      <trkpt lat="48.15833" lon="6.43253">
        <ele>441</ele>
        <time>2022-09-26T12:38:12Z</time>
      </trkpt>
      <trkpt lat="48.15834" lon="6.43251">
        <ele>441</ele>
        <time>2022-09-26T12:38:13Z</time>
      </trkpt>
      <trkpt lat="48.15834" lon="6.4325">
        <ele>441</ele>
        <time>2022-09-26T12:38:14Z</time>
      </trkpt>
      <trkpt lat="48.15835" lon="6.43248">
        <ele>442</ele>
        <time>2022-09-26T12:38:15Z</time>
      </trkpt>
      <trkpt lat="48.15835" lon="6.43246">
        <ele>442</ele>
        <time>2022-09-26T12:38:16Z</time>
      </trkpt>
      <trkpt lat="48.15836" lon="6.43244">
        <ele>442</ele>
        <time>2022-09-26T12:38:17Z</time>
      </trkpt>
      <trkpt lat="48.15837" lon="6.43242">
        <ele>442</ele>
        <time>2022-09-26T12:38:18Z</time>
      </trkpt>
      <trkpt lat="48.1584" lon="6.43239">
        <ele>442</ele>
        <time>2022-09-26T12:38:19Z</time>
      </trkpt>
      <trkpt lat="48.15841" lon="6.43237">
        <ele>442</ele>
        <time>2022-09-26T12:38:20Z</time>
      </trkpt>
      <trkpt lat="48.15843" lon="6.43234">
        <ele>442</ele>
        <time>2022-09-26T12:38:21Z</time>
      </trkpt>
      <trkpt lat="48.15843" lon="6.43233">
        <ele>442</ele>
        <time>2022-09-26T12:38:22Z</time>
      </trkpt>
      <trkpt lat="48.15845" lon="6.43232">
        <ele>442</ele>
        <time>2022-09-26T12:38:23Z</time>
      </trkpt>
      <trkpt lat="48.15845" lon="6.43231">
        <ele>442</ele>
        <time>2022-09-26T12:38:24Z</time>
      </trkpt>
      <trkpt lat="48.15847" lon="6.43229">
        <ele>442</ele>
        <time>2022-09-26T12:38:25Z</time>
      </trkpt>
      <trkpt lat="48.15848" lon="6.43228">
        <ele>442</ele>
        <time>2022-09-26T12:38:26Z</time>
      </trkpt>
      <trkpt lat="48.15849" lon="6.43226">
        <ele>442</ele>
        <time>2022-09-26T12:38:27Z</time>
      </trkpt>
      <trkpt lat="48.1585" lon="6.43224">
        <ele>442</ele>
        <time>2022-09-26T12:38:28Z</time>
      </trkpt>
      <trkpt lat="48.15851" lon="6.43223">
        <ele>443</ele>
        <time>2022-09-26T12:38:29Z</time>
      </trkpt>
      <trkpt lat="48.15851" lon="6.43222">
        <ele>443</ele>
        <time>2022-09-26T12:38:30Z</time>
      </trkpt>
      <trkpt lat="48.15852" lon="6.4322">
        <ele>443</ele>
        <time>2022-09-26T12:38:31Z</time>
      </trkpt>
      <trkpt lat="48.15853" lon="6.43219">
        <ele>443</ele>
        <time>2022-09-26T12:38:32Z</time>
      </trkpt>
      <trkpt lat="48.15854" lon="6.43217">
        <ele>443</ele>
        <time>2022-09-26T12:38:33Z</time>
      </trkpt>
      <trkpt lat="48.15855" lon="6.43216">
        <ele>443</ele>
        <time>2022-09-26T12:38:34Z</time>
      </trkpt>
      <trkpt lat="48.15856" lon="6.43215">
        <ele>443</ele>
        <time>2022-09-26T12:38:35Z</time>
      </trkpt>
      <trkpt lat="48.15856" lon="6.43216">
        <ele>443</ele>
        <time>2022-09-26T12:38:36Z</time>
      </trkpt>
      <trkpt lat="48.15857" lon="6.43216">
        <ele>443</ele>
        <time>2022-09-26T12:38:37Z</time>
      </trkpt>
      <trkpt lat="48.15857" lon="6.43216">
        <ele>443</ele>
        <time>2022-09-26T12:38:38Z</time>
      </trkpt>
      <trkpt lat="48.15858" lon="6.43216">
        <ele>442</ele>
        <time>2022-09-26T12:38:39Z</time>
      </trkpt>
      <trkpt lat="48.15859" lon="6.43216">
        <ele>442</ele>
        <time>2022-09-26T12:38:40Z</time>
      </trkpt>
      <trkpt lat="48.15859" lon="6.43216">
        <ele>442</ele>
        <time>2022-09-26T12:38:41Z</time>
      </trkpt>
      <trkpt lat="48.15859" lon="6.43215">
        <ele>442</ele>
        <time>2022-09-26T12:38:42Z</time>
      </trkpt>
      <trkpt lat="48.15859" lon="6.43215">
        <ele>442</ele>
        <time>2022-09-26T12:38:43Z</time>
      </trkpt>
      <trkpt lat="48.1586" lon="6.43214">
        <ele>443</ele>
        <time>2022-09-26T12:38:44Z</time>
      </trkpt>
      <trkpt lat="48.15861" lon="6.43212">
        <ele>443</ele>
        <time>2022-09-26T12:38:45Z</time>
      </trkpt>
      <trkpt lat="48.15863" lon="6.4321">
        <ele>443</ele>
        <time>2022-09-26T12:38:46Z</time>
      </trkpt>
      <trkpt lat="48.15863" lon="6.4321">
        <ele>443</ele>
        <time>2022-09-26T12:38:47Z</time>
      </trkpt>
      <trkpt lat="48.15863" lon="6.43209">
        <ele>443</ele>
        <time>2022-09-26T12:38:48Z</time>
      </trkpt>
      <trkpt lat="48.15864" lon="6.43208">
        <ele>443</ele>
        <time>2022-09-26T12:38:49Z</time>
      </trkpt>
      <trkpt lat="48.15864" lon="6.43206">
        <ele>443</ele>
        <time>2022-09-26T12:38:50Z</time>
      </trkpt>
      <trkpt lat="48.15865" lon="6.43204">
        <ele>443</ele>
        <time>2022-09-26T12:38:51Z</time>
      </trkpt>
      <trkpt lat="48.15866" lon="6.43202">
        <ele>443</ele>
        <time>2022-09-26T12:38:52Z</time>
      </trkpt>
      <trkpt lat="48.15867" lon="6.43201">
        <ele>444</ele>
        <time>2022-09-26T12:38:53Z</time>
      </trkpt>
      <trkpt lat="48.15868" lon="6.432">
        <ele>444</ele>
        <time>2022-09-26T12:38:54Z</time>
      </trkpt>
      <trkpt lat="48.1587" lon="6.432">
        <ele>444</ele>
        <time>2022-09-26T12:38:55Z</time>
      </trkpt>
      <trkpt lat="48.15871" lon="6.432">
        <ele>444</ele>
        <time>2022-09-26T12:38:56Z</time>
      </trkpt>
      <trkpt lat="48.15871" lon="6.43199">
        <ele>444</ele>
        <time>2022-09-26T12:38:57Z</time>
      </trkpt>
      <trkpt lat="48.15872" lon="6.43198">
        <ele>444</ele>
        <time>2022-09-26T12:38:58Z</time>
      </trkpt>
      <trkpt lat="48.15872" lon="6.43198">
        <ele>444</ele>
        <time>2022-09-26T12:38:59Z</time>
      </trkpt>
      <trkpt lat="48.15873" lon="6.43198">
        <ele>444</ele>
        <time>2022-09-26T12:39:00Z</time>
      </trkpt>
      <trkpt lat="48.15873" lon="6.43198">
        <ele>444</ele>
        <time>2022-09-26T12:39:01Z</time>
      </trkpt>
      <trkpt lat="48.15874" lon="6.43198">
        <ele>444</ele>
        <time>2022-09-26T12:39:02Z</time>
      </trkpt>
      <trkpt lat="48.15875" lon="6.43197">
        <ele>444</ele>
        <time>2022-09-26T12:39:03Z</time>
      </trkpt>
      <trkpt lat="48.15876" lon="6.43197">
        <ele>444</ele>
        <time>2022-09-26T12:39:04Z</time>
      </trkpt>
      <trkpt lat="48.15877" lon="6.43197">
        <ele>444</ele>
        <time>2022-09-26T12:39:05Z</time>
      </trkpt>
      <trkpt lat="48.15878" lon="6.43197">
        <ele>444</ele>
        <time>2022-09-26T12:39:06Z</time>
      </trkpt>
      <trkpt lat="48.15879" lon="6.43196">
        <ele>444</ele>
        <time>2022-09-26T12:39:07Z</time>
      </trkpt>
      <trkpt lat="48.15879" lon="6.43196">
        <ele>444</ele>
        <time>2022-09-26T12:39:08Z</time>
      </trkpt>
      <trkpt lat="48.15881" lon="6.43196">
        <ele>444</ele>
        <time>2022-09-26T12:39:09Z</time>
      </trkpt>
      <trkpt lat="48.15882" lon="6.43195">
        <ele>444</ele>
        <time>2022-09-26T12:39:10Z</time>
      </trkpt>
      <trkpt lat="48.15883" lon="6.43194">
        <ele>444</ele>
        <time>2022-09-26T12:39:11Z</time>
      </trkpt>
      <trkpt lat="48.15885" lon="6.43194">
        <ele>444</ele>
        <time>2022-09-26T12:39:12Z</time>
      </trkpt>
      <trkpt lat="48.15886" lon="6.43193">
        <ele>444</ele>
        <time>2022-09-26T12:39:13Z</time>
      </trkpt>
      <trkpt lat="48.15888" lon="6.43193">
        <ele>444</ele>
        <time>2022-09-26T12:39:14Z</time>
      </trkpt>
      <trkpt lat="48.15889" lon="6.43193">
        <ele>444</ele>
        <time>2022-09-26T12:39:15Z</time>
      </trkpt>
      <trkpt lat="48.1589" lon="6.43193">
        <ele>444</ele>
        <time>2022-09-26T12:39:16Z</time>
      </trkpt>
      <trkpt lat="48.15891" lon="6.43192">
        <ele>444</ele>
        <time>2022-09-26T12:39:17Z</time>
      </trkpt>
      <trkpt lat="48.15893" lon="6.43193">
        <ele>444</ele>
        <time>2022-09-26T12:39:18Z</time>
      </trkpt>
      <trkpt lat="48.15894" lon="6.43193">
        <ele>444</ele>
        <time>2022-09-26T12:39:19Z</time>
      </trkpt>
      <trkpt lat="48.15896" lon="6.43193">
        <ele>444</ele>
        <time>2022-09-26T12:39:20Z</time>
      </trkpt>
      <trkpt lat="48.15898" lon="6.43192">
        <ele>444</ele>
        <time>2022-09-26T12:39:21Z</time>
      </trkpt>
      <trkpt lat="48.159" lon="6.43192">
        <ele>444</ele>
        <time>2022-09-26T12:39:22Z</time>
      </trkpt>
      <trkpt lat="48.15901" lon="6.43192">
        <ele>444</ele>
        <time>2022-09-26T12:39:23Z</time>
      </trkpt>
      <trkpt lat="48.15903" lon="6.43192">
        <ele>444</ele>
        <time>2022-09-26T12:39:24Z</time>
      </trkpt>
      <trkpt lat="48.15905" lon="6.43191">
        <ele>444</ele>
        <time>2022-09-26T12:39:25Z</time>
      </trkpt>
      <trkpt lat="48.15907" lon="6.43191">
        <ele>444</ele>
        <time>2022-09-26T12:39:26Z</time>
      </trkpt>
      <trkpt lat="48.1591" lon="6.43191">
        <ele>444</ele>
        <time>2022-09-26T12:39:27Z</time>
      </trkpt>
      <trkpt lat="48.15913" lon="6.43191">
        <ele>444</ele>
        <time>2022-09-26T12:39:28Z</time>
      </trkpt>
      <trkpt lat="48.15915" lon="6.4319">
        <ele>444</ele>
        <time>2022-09-26T12:39:29Z</time>
      </trkpt>
      <trkpt lat="48.15917" lon="6.43189">
        <ele>444</ele>
        <time>2022-09-26T12:39:30Z</time>
      </trkpt>
      <trkpt lat="48.1592" lon="6.43189">
        <ele>444</ele>
        <time>2022-09-26T12:39:31Z</time>
      </trkpt>
      <trkpt lat="48.15922" lon="6.43188">
        <ele>444</ele>
        <time>2022-09-26T12:39:32Z</time>
      </trkpt>
      <trkpt lat="48.15923" lon="6.43188">
        <ele>444</ele>
        <time>2022-09-26T12:39:33Z</time>
      </trkpt>
      <trkpt lat="48.15925" lon="6.43187">
        <ele>444</ele>
        <time>2022-09-26T12:39:34Z</time>
      </trkpt>
      <trkpt lat="48.15926" lon="6.43187">
        <ele>444</ele>
        <time>2022-09-26T12:39:35Z</time>
      </trkpt>
      <trkpt lat="48.15928" lon="6.43187">
        <ele>444</ele>
        <time>2022-09-26T12:39:36Z</time>
      </trkpt>
      <trkpt lat="48.1593" lon="6.43188">
        <ele>443</ele>
        <time>2022-09-26T12:39:37Z</time>
      </trkpt>
      <trkpt lat="48.15931" lon="6.43188">
        <ele>443</ele>
        <time>2022-09-26T12:39:38Z</time>
      </trkpt>
      <trkpt lat="48.15932" lon="6.43188">
        <ele>443</ele>
        <time>2022-09-26T12:39:39Z</time>
      </trkpt>
      <trkpt lat="48.15934" lon="6.43188">
        <ele>443</ele>
        <time>2022-09-26T12:39:40Z</time>
      </trkpt>
      <trkpt lat="48.15935" lon="6.43189">
        <ele>443</ele>
        <time>2022-09-26T12:39:41Z</time>
      </trkpt>
      <trkpt lat="48.15937" lon="6.43188">
        <ele>443</ele>
        <time>2022-09-26T12:39:42Z</time>
      </trkpt>
      <trkpt lat="48.15938" lon="6.43188">
        <ele>443</ele>
        <time>2022-09-26T12:39:43Z</time>
      </trkpt>
      <trkpt lat="48.1594" lon="6.43188">
        <ele>443</ele>
        <time>2022-09-26T12:39:44Z</time>
      </trkpt>
      <trkpt lat="48.15941" lon="6.43188">
        <ele>442</ele>
        <time>2022-09-26T12:39:45Z</time>
      </trkpt>
      <trkpt lat="48.15943" lon="6.43189">
        <ele>442</ele>
        <time>2022-09-26T12:39:46Z</time>
      </trkpt>
      <trkpt lat="48.15945" lon="6.43189">
        <ele>442</ele>
        <time>2022-09-26T12:39:47Z</time>
      </trkpt>
      <trkpt lat="48.15946" lon="6.4319">
        <ele>442</ele>
        <time>2022-09-26T12:39:48Z</time>
      </trkpt>
      <trkpt lat="48.15947" lon="6.43191">
        <ele>442</ele>
        <time>2022-09-26T12:39:49Z</time>
      </trkpt>
      <trkpt lat="48.15948" lon="6.43192">
        <ele>442</ele>
        <time>2022-09-26T12:39:50Z</time>
      </trkpt>
      <trkpt lat="48.15949" lon="6.43192">
        <ele>442</ele>
        <time>2022-09-26T12:39:51Z</time>
      </trkpt>
      <trkpt lat="48.15951" lon="6.43192">
        <ele>442</ele>
        <time>2022-09-26T12:39:52Z</time>
      </trkpt>
      <trkpt lat="48.15952" lon="6.43192">
        <ele>443</ele>
        <time>2022-09-26T12:39:53Z</time>
      </trkpt>
      <trkpt lat="48.15954" lon="6.43192">
        <ele>443</ele>
        <time>2022-09-26T12:39:54Z</time>
      </trkpt>
      <trkpt lat="48.15955" lon="6.43192">
        <ele>443</ele>
        <time>2022-09-26T12:39:55Z</time>
      </trkpt>
      <trkpt lat="48.15956" lon="6.43192">
        <ele>443</ele>
        <time>2022-09-26T12:39:56Z</time>
      </trkpt>
      <trkpt lat="48.15958" lon="6.43191">
        <ele>443</ele>
        <time>2022-09-26T12:39:57Z</time>
      </trkpt>
      <trkpt lat="48.15958" lon="6.43191">
        <ele>443</ele>
        <time>2022-09-26T12:39:58Z</time>
      </trkpt>
      <trkpt lat="48.1596" lon="6.43191">
        <ele>443</ele>
        <time>2022-09-26T12:39:59Z</time>
      </trkpt>
      <trkpt lat="48.15962" lon="6.43191">
        <ele>444</ele>
        <time>2022-09-26T12:40:00Z</time>
      </trkpt>
      <trkpt lat="48.15963" lon="6.43191">
        <ele>444</ele>
        <time>2022-09-26T12:40:01Z</time>
      </trkpt>
      <trkpt lat="48.15965" lon="6.43192">
        <ele>444</ele>
        <time>2022-09-26T12:40:02Z</time>
      </trkpt>
      <trkpt lat="48.15965" lon="6.43192">
        <ele>444</ele>
        <time>2022-09-26T12:40:03Z</time>
      </trkpt>
      <trkpt lat="48.15966" lon="6.43192">
        <ele>444</ele>
        <time>2022-09-26T12:40:04Z</time>
      </trkpt>
      <trkpt lat="48.15967" lon="6.43192">
        <ele>444</ele>
        <time>2022-09-26T12:40:05Z</time>
      </trkpt>
      <trkpt lat="48.15968" lon="6.43192">
        <ele>444</ele>
        <time>2022-09-26T12:40:06Z</time>
      </trkpt>
      <trkpt lat="48.15969" lon="6.43193">
        <ele>444</ele>
        <time>2022-09-26T12:40:07Z</time>
      </trkpt>
      <trkpt lat="48.1597" lon="6.43193">
        <ele>444</ele>
        <time>2022-09-26T12:40:08Z</time>
      </trkpt>
      <trkpt lat="48.15972" lon="6.43193">
        <ele>445</ele>
        <time>2022-09-26T12:40:09Z</time>
      </trkpt>
      <trkpt lat="48.15973" lon="6.43193">
        <ele>445</ele>
        <time>2022-09-26T12:40:10Z</time>
      </trkpt>
      <trkpt lat="48.15975" lon="6.43194">
        <ele>445</ele>
        <time>2022-09-26T12:40:11Z</time>
      </trkpt>
      <trkpt lat="48.15976" lon="6.43193">
        <ele>445</ele>
        <time>2022-09-26T12:40:12Z</time>
      </trkpt>
      <trkpt lat="48.15978" lon="6.43193">
        <ele>445</ele>
        <time>2022-09-26T12:40:13Z</time>
      </trkpt>
      <trkpt lat="48.15979" lon="6.43193">
        <ele>445</ele>
        <time>2022-09-26T12:40:14Z</time>
      </trkpt>
      <trkpt lat="48.1598" lon="6.43195">
        <ele>445</ele>
        <time>2022-09-26T12:40:15Z</time>
      </trkpt>
      <trkpt lat="48.15981" lon="6.43195">
        <ele>445</ele>
        <time>2022-09-26T12:40:16Z</time>
      </trkpt>
      <trkpt lat="48.15981" lon="6.43194">
        <ele>445</ele>
        <time>2022-09-26T12:40:17Z</time>
      </trkpt>
      <trkpt lat="48.15982" lon="6.43195">
        <ele>446</ele>
        <time>2022-09-26T12:40:18Z</time>
      </trkpt>
      <trkpt lat="48.15982" lon="6.43195">
        <ele>446</ele>
        <time>2022-09-26T12:40:19Z</time>
      </trkpt>
      <trkpt lat="48.15982" lon="6.43195">
        <ele>446</ele>
        <time>2022-09-26T12:40:20Z</time>
      </trkpt>
      <trkpt lat="48.15983" lon="6.43194">
        <ele>446</ele>
        <time>2022-09-26T12:40:21Z</time>
      </trkpt>
      <trkpt lat="48.15983" lon="6.43194">
        <ele>446</ele>
        <time>2022-09-26T12:40:22Z</time>
      </trkpt>
      <trkpt lat="48.15983" lon="6.43194">
        <ele>446</ele>
        <time>2022-09-26T12:40:23Z</time>
      </trkpt>
      <trkpt lat="48.15983" lon="6.43194">
        <ele>446</ele>
        <time>2022-09-26T12:40:24Z</time>
      </trkpt>
      <trkpt lat="48.15983" lon="6.43194">
        <ele>446</ele>
        <time>2022-09-26T12:40:25Z</time>
      </trkpt>
      <trkpt lat="48.15983" lon="6.43194">
        <ele>446</ele>
        <time>2022-09-26T12:40:27Z</time>
      </trkpt>
      <trkpt lat="48.15983" lon="6.43194">
        <ele>446</ele>
        <time>2022-09-26T12:40:28Z</time>
      </trkpt>
      <trkpt lat="48.15983" lon="6.43194">
        <ele>446</ele>
        <time>2022-09-26T12:40:29Z</time>
      </trkpt>
      <trkpt lat="48.15983" lon="6.43194">
        <ele>446</ele>
        <time>2022-09-26T12:40:30Z</time>
      </trkpt>
      <trkpt lat="48.15989" lon="6.43195">
        <ele>446</ele>
        <time>2022-09-26T12:40:50Z</time>
      </trkpt>
      <trkpt lat="48.1599" lon="6.43195">
        <ele>446</ele>
        <time>2022-09-26T12:40:51Z</time>
      </trkpt>
      <trkpt lat="48.15992" lon="6.43195">
        <ele>447</ele>
        <time>2022-09-26T12:40:52Z</time>
      </trkpt>
      <trkpt lat="48.15993" lon="6.43195">
        <ele>447</ele>
        <time>2022-09-26T12:40:53Z</time>
      </trkpt>
      <trkpt lat="48.15995" lon="6.43195">
        <ele>447</ele>
        <time>2022-09-26T12:40:54Z</time>
      </trkpt>
      <trkpt lat="48.15996" lon="6.43195">
        <ele>447</ele>
        <time>2022-09-26T12:40:55Z</time>
      </trkpt>
      <trkpt lat="48.15996" lon="6.43195">
        <ele>447</ele>
        <time>2022-09-26T12:40:56Z</time>
      </trkpt>
      <trkpt lat="48.15998" lon="6.43195">
        <ele>447</ele>
        <time>2022-09-26T12:40:57Z</time>
      </trkpt>
      <trkpt lat="48.15998" lon="6.43196">
        <ele>447</ele>
        <time>2022-09-26T12:40:58Z</time>
      </trkpt>
      <trkpt lat="48.16" lon="6.43196">
        <ele>447</ele>
        <time>2022-09-26T12:40:59Z</time>
      </trkpt>
      <trkpt lat="48.16001" lon="6.43196">
        <ele>448</ele>
        <time>2022-09-26T12:41:00Z</time>
      </trkpt>
      <trkpt lat="48.16002" lon="6.43196">
        <ele>448</ele>
        <time>2022-09-26T12:41:01Z</time>
      </trkpt>
      <trkpt lat="48.16003" lon="6.43197">
        <ele>448</ele>
        <time>2022-09-26T12:41:02Z</time>
      </trkpt>
      <trkpt lat="48.16003" lon="6.43197">
        <ele>448</ele>
        <time>2022-09-26T12:41:03Z</time>
      </trkpt>
      <trkpt lat="48.16005" lon="6.43198">
        <ele>448</ele>
        <time>2022-09-26T12:41:04Z</time>
      </trkpt>
      <trkpt lat="48.16005" lon="6.43198">
        <ele>448</ele>
        <time>2022-09-26T12:41:05Z</time>
      </trkpt>
      <trkpt lat="48.16006" lon="6.43199">
        <ele>448</ele>
        <time>2022-09-26T12:41:06Z</time>
      </trkpt>
      <trkpt lat="48.16007" lon="6.43199">
        <ele>448</ele>
        <time>2022-09-26T12:41:07Z</time>
      </trkpt>
      <trkpt lat="48.16008" lon="6.432">
        <ele>448</ele>
        <time>2022-09-26T12:41:08Z</time>
      </trkpt>
      <trkpt lat="48.16008" lon="6.432">
        <ele>448</ele>
        <time>2022-09-26T12:41:09Z</time>
      </trkpt>
      <trkpt lat="48.16009" lon="6.43201">
        <ele>448</ele>
        <time>2022-09-26T12:41:10Z</time>
      </trkpt>
      <trkpt lat="48.1601" lon="6.43203">
        <ele>448</ele>
        <time>2022-09-26T12:41:11Z</time>
      </trkpt>
      <trkpt lat="48.1601" lon="6.43204">
        <ele>448</ele>
        <time>2022-09-26T12:41:12Z</time>
      </trkpt>
      <trkpt lat="48.16011" lon="6.43205">
        <ele>449</ele>
        <time>2022-09-26T12:41:13Z</time>
      </trkpt>
      <trkpt lat="48.16012" lon="6.43207">
        <ele>449</ele>
        <time>2022-09-26T12:41:14Z</time>
      </trkpt>
      <trkpt lat="48.16012" lon="6.43209">
        <ele>449</ele>
        <time>2022-09-26T12:41:15Z</time>
      </trkpt>
      <trkpt lat="48.16012" lon="6.4321">
        <ele>449</ele>
        <time>2022-09-26T12:41:16Z</time>
      </trkpt>
      <trkpt lat="48.16013" lon="6.43212">
        <ele>449</ele>
        <time>2022-09-26T12:41:17Z</time>
      </trkpt>
      <trkpt lat="48.16013" lon="6.43214">
        <ele>449</ele>
        <time>2022-09-26T12:41:18Z</time>
      </trkpt>
      <trkpt lat="48.16013" lon="6.43216">
        <ele>449</ele>
        <time>2022-09-26T12:41:19Z</time>
      </trkpt>
      <trkpt lat="48.16012" lon="6.43217">
        <ele>448</ele>
        <time>2022-09-26T12:41:20Z</time>
      </trkpt>
      <trkpt lat="48.16012" lon="6.43218">
        <ele>448</ele>
        <time>2022-09-26T12:41:21Z</time>
      </trkpt>
      <trkpt lat="48.16011" lon="6.43219">
        <ele>448</ele>
        <time>2022-09-26T12:41:22Z</time>
      </trkpt>
      <trkpt lat="48.16011" lon="6.4322">
        <ele>448</ele>
        <time>2022-09-26T12:41:23Z</time>
      </trkpt>
      <trkpt lat="48.16011" lon="6.43221">
        <ele>448</ele>
        <time>2022-09-26T12:41:24Z</time>
      </trkpt>
      <trkpt lat="48.1601" lon="6.43222">
        <ele>448</ele>
        <time>2022-09-26T12:41:25Z</time>
      </trkpt>
      <trkpt lat="48.1601" lon="6.43224">
        <ele>448</ele>
        <time>2022-09-26T12:41:26Z</time>
      </trkpt>
      <trkpt lat="48.16009" lon="6.43225">
        <ele>448</ele>
        <time>2022-09-26T12:41:27Z</time>
      </trkpt>
      <trkpt lat="48.16009" lon="6.43226">
        <ele>448</ele>
        <time>2022-09-26T12:41:28Z</time>
      </trkpt>
      <trkpt lat="48.16009" lon="6.43226">
        <ele>448</ele>
        <time>2022-09-26T12:41:29Z</time>
      </trkpt>
      <trkpt lat="48.16009" lon="6.43226">
        <ele>448</ele>
        <time>2022-09-26T12:41:30Z</time>
      </trkpt>
      <trkpt lat="48.16009" lon="6.43226">
        <ele>448</ele>
        <time>2022-09-26T12:41:31Z</time>
      </trkpt>
      <trkpt lat="48.16009" lon="6.43226">
        <ele>448</ele>
        <time>2022-09-26T12:41:32Z</time>
      </trkpt>
      <trkpt lat="48.16009" lon="6.43226">
        <ele>448</ele>
        <time>2022-09-26T12:41:33Z</time>
      </trkpt>
      <trkpt lat="48.16009" lon="6.43226">
        <ele>448</ele>
        <time>2022-09-26T12:41:34Z</time>
      </trkpt>
      <trkpt lat="48.1601" lon="6.43226">
        <ele>448</ele>
        <time>2022-09-26T12:41:35Z</time>
      </trkpt>
      <trkpt lat="48.1601" lon="6.43226">
        <ele>448</ele>
        <time>2022-09-26T12:41:36Z</time>
      </trkpt>
      <trkpt lat="48.1601" lon="6.43226">
        <ele>448</ele>
        <time>2022-09-26T12:41:37Z</time>
      </trkpt>
      <trkpt lat="48.1601" lon="6.43226">
        <ele>448</ele>
        <time>2022-09-26T12:41:38Z</time>
      </trkpt>
      <trkpt lat="48.1601" lon="6.43226">
        <ele>448</ele>
        <time>2022-09-26T12:41:39Z</time>
      </trkpt>
      <trkpt lat="48.1601" lon="6.43226">
        <ele>448</ele>
        <time>2022-09-26T12:41:40Z</time>
      </trkpt>
      <trkpt lat="48.1601" lon="6.43226">
        <ele>448</ele>
        <time>2022-09-26T12:41:41Z</time>
      </trkpt>
      <trkpt lat="48.1601" lon="6.43226">
        <ele>448</ele>
        <time>2022-09-26T12:41:42Z</time>
      </trkpt>
      <trkpt lat="48.16008" lon="6.43233">
        <ele>448</ele>
        <time>2022-09-26T12:42:30Z</time>
      </trkpt>
      <trkpt lat="48.16007" lon="6.43234">
        <ele>448</ele>
        <time>2022-09-26T12:42:31Z</time>
      </trkpt>
      <trkpt lat="48.16007" lon="6.43236">
        <ele>448</ele>
        <time>2022-09-26T12:42:32Z</time>
      </trkpt>
      <trkpt lat="48.16006" lon="6.43238">
        <ele>448</ele>
        <time>2022-09-26T12:42:33Z</time>
      </trkpt>
      <trkpt lat="48.16006" lon="6.43239">
        <ele>448</ele>
        <time>2022-09-26T12:42:34Z</time>
      </trkpt>
      <trkpt lat="48.16006" lon="6.43239">
        <ele>448</ele>
        <time>2022-09-26T12:42:35Z</time>
      </trkpt>
      <trkpt lat="48.16007" lon="6.43241">
        <ele>448</ele>
        <time>2022-09-26T12:42:36Z</time>
      </trkpt>
      <trkpt lat="48.16008" lon="6.43242">
        <ele>448</ele>
        <time>2022-09-26T12:42:37Z</time>
      </trkpt>
      <trkpt lat="48.16008" lon="6.43244">
        <ele>448</ele>
        <time>2022-09-26T12:42:38Z</time>
      </trkpt>
      <trkpt lat="48.16008" lon="6.43245">
        <ele>448</ele>
        <time>2022-09-26T12:42:39Z</time>
      </trkpt>
      <trkpt lat="48.16007" lon="6.43246">
        <ele>448</ele>
        <time>2022-09-26T12:42:40Z</time>
      </trkpt>
      <trkpt lat="48.16007" lon="6.43248">
        <ele>448</ele>
        <time>2022-09-26T12:42:41Z</time>
      </trkpt>
      <trkpt lat="48.16007" lon="6.43249">
        <ele>448</ele>
        <time>2022-09-26T12:42:42Z</time>
      </trkpt>
      <trkpt lat="48.16006" lon="6.4325">
        <ele>448</ele>
        <time>2022-09-26T12:42:43Z</time>
      </trkpt>
      <trkpt lat="48.16005" lon="6.43251">
        <ele>448</ele>
        <time>2022-09-26T12:42:44Z</time>
      </trkpt>
      <trkpt lat="48.16004" lon="6.43252">
        <ele>448</ele>
        <time>2022-09-26T12:42:45Z</time>
      </trkpt>
      <trkpt lat="48.16004" lon="6.43254">
        <ele>448</ele>
        <time>2022-09-26T12:42:46Z</time>
      </trkpt>
      <trkpt lat="48.16003" lon="6.43255">
        <ele>448</ele>
        <time>2022-09-26T12:42:47Z</time>
      </trkpt>
      <trkpt lat="48.16002" lon="6.43256">
        <ele>448</ele>
        <time>2022-09-26T12:42:48Z</time>
      </trkpt>
      <trkpt lat="48.16002" lon="6.43257">
        <ele>448</ele>
        <time>2022-09-26T12:42:49Z</time>
      </trkpt>
      <trkpt lat="48.16001" lon="6.43258">
        <ele>448</ele>
        <time>2022-09-26T12:42:50Z</time>
      </trkpt>
      <trkpt lat="48.16" lon="6.43259">
        <ele>447</ele>
        <time>2022-09-26T12:42:51Z</time>
      </trkpt>
      <trkpt lat="48.15999" lon="6.4326">
        <ele>447</ele>
        <time>2022-09-26T12:42:52Z</time>
      </trkpt>
      <trkpt lat="48.15997" lon="6.43261">
        <ele>447</ele>
        <time>2022-09-26T12:42:53Z</time>
      </trkpt>
      <trkpt lat="48.15996" lon="6.43262">
        <ele>447</ele>
        <time>2022-09-26T12:42:54Z</time>
      </trkpt>
      <trkpt lat="48.15995" lon="6.43263">
        <ele>447</ele>
        <time>2022-09-26T12:42:55Z</time>
      </trkpt>
      <trkpt lat="48.15994" lon="6.43266">
        <ele>447</ele>
        <time>2022-09-26T12:42:56Z</time>
      </trkpt>
      <trkpt lat="48.15994" lon="6.43268">
        <ele>447</ele>
        <time>2022-09-26T12:42:57Z</time>
      </trkpt>
      <trkpt lat="48.15994" lon="6.43271">
        <ele>447</ele>
        <time>2022-09-26T12:42:58Z</time>
      </trkpt>
      <trkpt lat="48.15993" lon="6.43274">
        <ele>447</ele>
        <time>2022-09-26T12:42:59Z</time>
      </trkpt>
      <trkpt lat="48.15993" lon="6.43277">
        <ele>447</ele>
        <time>2022-09-26T12:43:00Z</time>
      </trkpt>
      <trkpt lat="48.15993" lon="6.43279">
        <ele>447</ele>
        <time>2022-09-26T12:43:01Z</time>
      </trkpt>
      <trkpt lat="48.15992" lon="6.43281">
        <ele>447</ele>
        <time>2022-09-26T12:43:02Z</time>
      </trkpt>
      <trkpt lat="48.15991" lon="6.43282">
        <ele>446</ele>
        <time>2022-09-26T12:43:03Z</time>
      </trkpt>
      <trkpt lat="48.15991" lon="6.43284">
        <ele>446</ele>
        <time>2022-09-26T12:43:04Z</time>
      </trkpt>
      <trkpt lat="48.15991" lon="6.43285">
        <ele>446</ele>
        <time>2022-09-26T12:43:05Z</time>
      </trkpt>
      <trkpt lat="48.15991" lon="6.43286">
        <ele>446</ele>
        <time>2022-09-26T12:43:06Z</time>
      </trkpt>
      <trkpt lat="48.15991" lon="6.43287">
        <ele>446</ele>
        <time>2022-09-26T12:43:07Z</time>
      </trkpt>
      <trkpt lat="48.1599" lon="6.43288">
        <ele>446</ele>
        <time>2022-09-26T12:43:08Z</time>
      </trkpt>
      <trkpt lat="48.15989" lon="6.43291">
        <ele>446</ele>
        <time>2022-09-26T12:43:09Z</time>
      </trkpt>
      <trkpt lat="48.15989" lon="6.43293">
        <ele>446</ele>
        <time>2022-09-26T12:43:10Z</time>
      </trkpt>
      <trkpt lat="48.15989" lon="6.43295">
        <ele>446</ele>
        <time>2022-09-26T12:43:11Z</time>
      </trkpt>
      <trkpt lat="48.15991" lon="6.43297">
        <ele>446</ele>
        <time>2022-09-26T12:43:12Z</time>
      </trkpt>
      <trkpt lat="48.15991" lon="6.43299">
        <ele>446</ele>
        <time>2022-09-26T12:43:13Z</time>
      </trkpt>
      <trkpt lat="48.15992" lon="6.43302">
        <ele>446</ele>
        <time>2022-09-26T12:43:14Z</time>
      </trkpt>
      <trkpt lat="48.15992" lon="6.43304">
        <ele>446</ele>
        <time>2022-09-26T12:43:15Z</time>
      </trkpt>
      <trkpt lat="48.15993" lon="6.43308">
        <ele>446</ele>
        <time>2022-09-26T12:43:16Z</time>
      </trkpt>
      <trkpt lat="48.15994" lon="6.43311">
        <ele>446</ele>
        <time>2022-09-26T12:43:17Z</time>
      </trkpt>
      <trkpt lat="48.15995" lon="6.43314">
        <ele>446</ele>
        <time>2022-09-26T12:43:18Z</time>
      </trkpt>
      <trkpt lat="48.15996" lon="6.43317">
        <ele>446</ele>
        <time>2022-09-26T12:43:19Z</time>
      </trkpt>
      <trkpt lat="48.15996" lon="6.43322">
        <ele>446</ele>
        <time>2022-09-26T12:43:20Z</time>
      </trkpt>
      <trkpt lat="48.15997" lon="6.43325">
        <ele>446</ele>
        <time>2022-09-26T12:43:21Z</time>
      </trkpt>
      <trkpt lat="48.15998" lon="6.43329">
        <ele>446</ele>
        <time>2022-09-26T12:43:22Z</time>
      </trkpt>
      <trkpt lat="48.16" lon="6.43332">
        <ele>446</ele>
        <time>2022-09-26T12:43:23Z</time>
      </trkpt>
      <trkpt lat="48.16001" lon="6.43333">
        <ele>446</ele>
        <time>2022-09-26T12:43:24Z</time>
      </trkpt>
      <trkpt lat="48.16003" lon="6.43335">
        <ele>446</ele>
        <time>2022-09-26T12:43:25Z</time>
      </trkpt>
      <trkpt lat="48.16005" lon="6.43337">
        <ele>445</ele>
        <time>2022-09-26T12:43:26Z</time>
      </trkpt>
      <trkpt lat="48.16005" lon="6.4334">
        <ele>445</ele>
        <time>2022-09-26T12:43:27Z</time>
      </trkpt>
      <trkpt lat="48.16007" lon="6.43346">
        <ele>445</ele>
        <time>2022-09-26T12:43:28Z</time>
      </trkpt>
      <trkpt lat="48.16008" lon="6.43349">
        <ele>445</ele>
        <time>2022-09-26T12:43:29Z</time>
      </trkpt>
      <trkpt lat="48.16009" lon="6.43353">
        <ele>445</ele>
        <time>2022-09-26T12:43:30Z</time>
      </trkpt>
      <trkpt lat="48.1601" lon="6.43356">
        <ele>445</ele>
        <time>2022-09-26T12:43:31Z</time>
      </trkpt>
      <trkpt lat="48.16012" lon="6.43358">
        <ele>445</ele>
        <time>2022-09-26T12:43:32Z</time>
      </trkpt>
      <trkpt lat="48.16014" lon="6.43359">
        <ele>445</ele>
        <time>2022-09-26T12:43:33Z</time>
      </trkpt>
      <trkpt lat="48.16015" lon="6.43362">
        <ele>445</ele>
        <time>2022-09-26T12:43:34Z</time>
      </trkpt>
      <trkpt lat="48.16016" lon="6.43364">
        <ele>445</ele>
        <time>2022-09-26T12:43:35Z</time>
      </trkpt>
      <trkpt lat="48.16018" lon="6.43365">
        <ele>445</ele>
        <time>2022-09-26T12:43:36Z</time>
      </trkpt>
      <trkpt lat="48.16018" lon="6.43366">
        <ele>444</ele>
        <time>2022-09-26T12:43:37Z</time>
      </trkpt>
      <trkpt lat="48.16019" lon="6.43369">
        <ele>444</ele>
        <time>2022-09-26T12:43:38Z</time>
      </trkpt>
      <trkpt lat="48.16021" lon="6.43371">
        <ele>444</ele>
        <time>2022-09-26T12:43:39Z</time>
      </trkpt>
      <trkpt lat="48.16022" lon="6.43373">
        <ele>444</ele>
        <time>2022-09-26T12:43:40Z</time>
      </trkpt>
      <trkpt lat="48.16023" lon="6.43375">
        <ele>444</ele>
        <time>2022-09-26T12:43:41Z</time>
      </trkpt>
      <trkpt lat="48.16025" lon="6.43378">
        <ele>445</ele>
        <time>2022-09-26T12:43:42Z</time>
      </trkpt>
      <trkpt lat="48.16026" lon="6.43381">
        <ele>445</ele>
        <time>2022-09-26T12:43:43Z</time>
      </trkpt>
      <trkpt lat="48.16027" lon="6.43384">
        <ele>445</ele>
        <time>2022-09-26T12:43:44Z</time>
      </trkpt>
      <trkpt lat="48.16027" lon="6.43388">
        <ele>444</ele>
        <time>2022-09-26T12:43:45Z</time>
      </trkpt>
      <trkpt lat="48.16028" lon="6.43391">
        <ele>445</ele>
        <time>2022-09-26T12:43:46Z</time>
      </trkpt>
      <trkpt lat="48.16029" lon="6.43395">
        <ele>445</ele>
        <time>2022-09-26T12:43:47Z</time>
      </trkpt>
      <trkpt lat="48.16029" lon="6.43398">
        <ele>445</ele>
        <time>2022-09-26T12:43:48Z</time>
      </trkpt>
      <trkpt lat="48.1603" lon="6.43401">
        <ele>445</ele>
        <time>2022-09-26T12:43:49Z</time>
      </trkpt>
      <trkpt lat="48.1603" lon="6.43404">
        <ele>445</ele>
        <time>2022-09-26T12:43:50Z</time>
      </trkpt>
      <trkpt lat="48.16031" lon="6.43408">
        <ele>445</ele>
        <time>2022-09-26T12:43:51Z</time>
      </trkpt>
      <trkpt lat="48.16031" lon="6.43411">
        <ele>445</ele>
        <time>2022-09-26T12:43:52Z</time>
      </trkpt>
      <trkpt lat="48.16032" lon="6.43414">
        <ele>445</ele>
        <time>2022-09-26T12:43:53Z</time>
      </trkpt>
      <trkpt lat="48.16033" lon="6.43418">
        <ele>445</ele>
        <time>2022-09-26T12:43:54Z</time>
      </trkpt>
      <trkpt lat="48.16033" lon="6.4342">
        <ele>445</ele>
        <time>2022-09-26T12:43:55Z</time>
      </trkpt>
      <trkpt lat="48.16034" lon="6.43423">
        <ele>445</ele>
        <time>2022-09-26T12:43:56Z</time>
      </trkpt>
      <trkpt lat="48.16034" lon="6.43426">
        <ele>445</ele>
        <time>2022-09-26T12:43:57Z</time>
      </trkpt>
      <trkpt lat="48.16034" lon="6.43428">
        <ele>445</ele>
        <time>2022-09-26T12:43:58Z</time>
      </trkpt>
      <trkpt lat="48.16034" lon="6.43431">
        <ele>445</ele>
        <time>2022-09-26T12:43:59Z</time>
      </trkpt>
      <trkpt lat="48.16034" lon="6.43434">
        <ele>445</ele>
        <time>2022-09-26T12:44:00Z</time>
      </trkpt>
      <trkpt lat="48.16033" lon="6.43437">
        <ele>445</ele>
        <time>2022-09-26T12:44:01Z</time>
      </trkpt>
      <trkpt lat="48.16033" lon="6.4344">
        <ele>445</ele>
        <time>2022-09-26T12:44:02Z</time>
      </trkpt>
      <trkpt lat="48.16032" lon="6.43443">
        <ele>445</ele>
        <time>2022-09-26T12:44:03Z</time>
      </trkpt>
      <trkpt lat="48.16032" lon="6.43447">
        <ele>445</ele>
        <time>2022-09-26T12:44:04Z</time>
      </trkpt>
      <trkpt lat="48.16031" lon="6.4345">
        <ele>445</ele>
        <time>2022-09-26T12:44:05Z</time>
      </trkpt>
      <trkpt lat="48.16031" lon="6.43453">
        <ele>445</ele>
        <time>2022-09-26T12:44:06Z</time>
      </trkpt>
      <trkpt lat="48.16033" lon="6.43456">
        <ele>445</ele>
        <time>2022-09-26T12:44:07Z</time>
      </trkpt>
      <trkpt lat="48.16035" lon="6.43457">
        <ele>445</ele>
        <time>2022-09-26T12:44:08Z</time>
      </trkpt>
      <trkpt lat="48.16036" lon="6.43457">
        <ele>445</ele>
        <time>2022-09-26T12:44:09Z</time>
      </trkpt>
      <trkpt lat="48.16037" lon="6.43457">
        <ele>445</ele>
        <time>2022-09-26T12:44:10Z</time>
      </trkpt>
      <trkpt lat="48.16038" lon="6.43456">
        <ele>445</ele>
        <time>2022-09-26T12:44:11Z</time>
      </trkpt>
      <trkpt lat="48.16039" lon="6.43456">
        <ele>446</ele>
        <time>2022-09-26T12:44:12Z</time>
      </trkpt>
      <trkpt lat="48.1604" lon="6.43455">
        <ele>446</ele>
        <time>2022-09-26T12:44:13Z</time>
      </trkpt>
      <trkpt lat="48.16041" lon="6.43454">
        <ele>446</ele>
        <time>2022-09-26T12:44:14Z</time>
      </trkpt>
      <trkpt lat="48.16043" lon="6.43453">
        <ele>446</ele>
        <time>2022-09-26T12:44:15Z</time>
      </trkpt>
      <trkpt lat="48.16044" lon="6.43453">
        <ele>446</ele>
        <time>2022-09-26T12:44:16Z</time>
      </trkpt>
      <trkpt lat="48.16045" lon="6.43451">
        <ele>446</ele>
        <time>2022-09-26T12:44:17Z</time>
      </trkpt>
      <trkpt lat="48.16046" lon="6.4345">
        <ele>446</ele>
        <time>2022-09-26T12:44:18Z</time>
      </trkpt>
      <trkpt lat="48.16047" lon="6.43448">
        <ele>446</ele>
        <time>2022-09-26T12:44:19Z</time>
      </trkpt>
      <trkpt lat="48.16048" lon="6.43446">
        <ele>446</ele>
        <time>2022-09-26T12:44:20Z</time>
      </trkpt>
      <trkpt lat="48.16049" lon="6.43445">
        <ele>446</ele>
        <time>2022-09-26T12:44:21Z</time>
      </trkpt>
      <trkpt lat="48.16049" lon="6.43444">
        <ele>446</ele>
        <time>2022-09-26T12:44:22Z</time>
      </trkpt>
      <trkpt lat="48.1605" lon="6.43443">
        <ele>446</ele>
        <time>2022-09-26T12:44:23Z</time>
      </trkpt>
      <trkpt lat="48.1605" lon="6.43442">
        <ele>446</ele>
        <time>2022-09-26T12:44:24Z</time>
      </trkpt>
      <trkpt lat="48.16051" lon="6.43441">
        <ele>446</ele>
        <time>2022-09-26T12:44:25Z</time>
      </trkpt>
      <trkpt lat="48.16051" lon="6.43439">
        <ele>446</ele>
        <time>2022-09-26T12:44:26Z</time>
      </trkpt>
      <trkpt lat="48.16052" lon="6.43438">
        <ele>446</ele>
        <time>2022-09-26T12:44:27Z</time>
      </trkpt>
      <trkpt lat="48.16053" lon="6.43437">
        <ele>446</ele>
        <time>2022-09-26T12:44:28Z</time>
      </trkpt>
      <trkpt lat="48.16053" lon="6.43435">
        <ele>446</ele>
        <time>2022-09-26T12:44:29Z</time>
      </trkpt>
      <trkpt lat="48.16054" lon="6.43434">
        <ele>446</ele>
        <time>2022-09-26T12:44:30Z</time>
      </trkpt>
      <trkpt lat="48.16055" lon="6.43432">
        <ele>446</ele>
        <time>2022-09-26T12:44:31Z</time>
      </trkpt>
      <trkpt lat="48.16056" lon="6.43431">
        <ele>447</ele>
        <time>2022-09-26T12:44:32Z</time>
      </trkpt>
      <trkpt lat="48.16058" lon="6.4343">
        <ele>447</ele>
        <time>2022-09-26T12:44:33Z</time>
      </trkpt>
      <trkpt lat="48.1606" lon="6.43429">
        <ele>447</ele>
        <time>2022-09-26T12:44:34Z</time>
      </trkpt>
      <trkpt lat="48.16062" lon="6.43427">
        <ele>447</ele>
        <time>2022-09-26T12:44:35Z</time>
      </trkpt>
      <trkpt lat="48.16064" lon="6.43426">
        <ele>447</ele>
        <time>2022-09-26T12:44:36Z</time>
      </trkpt>
      <trkpt lat="48.16066" lon="6.43425">
        <ele>447</ele>
        <time>2022-09-26T12:44:37Z</time>
      </trkpt>
      <trkpt lat="48.16068" lon="6.43426">
        <ele>447</ele>
        <time>2022-09-26T12:44:38Z</time>
      </trkpt>
      <trkpt lat="48.1607" lon="6.43426">
        <ele>447</ele>
        <time>2022-09-26T12:44:39Z</time>
      </trkpt>
      <trkpt lat="48.16072" lon="6.43427">
        <ele>447</ele>
        <time>2022-09-26T12:44:40Z</time>
      </trkpt>
      <trkpt lat="48.16074" lon="6.43428">
        <ele>448</ele>
        <time>2022-09-26T12:44:41Z</time>
      </trkpt>
      <trkpt lat="48.16075" lon="6.43429">
        <ele>448</ele>
        <time>2022-09-26T12:44:42Z</time>
      </trkpt>
      <trkpt lat="48.16076" lon="6.43432">
        <ele>448</ele>
        <time>2022-09-26T12:44:43Z</time>
      </trkpt>
      <trkpt lat="48.16078" lon="6.43435">
        <ele>448</ele>
        <time>2022-09-26T12:44:44Z</time>
      </trkpt>
      <trkpt lat="48.16079" lon="6.43436">
        <ele>448</ele>
        <time>2022-09-26T12:44:45Z</time>
      </trkpt>
      <trkpt lat="48.1608" lon="6.43439">
        <ele>448</ele>
        <time>2022-09-26T12:44:46Z</time>
      </trkpt>
      <trkpt lat="48.16082" lon="6.43442">
        <ele>448</ele>
        <time>2022-09-26T12:44:47Z</time>
      </trkpt>
      <trkpt lat="48.16084" lon="6.43445">
        <ele>448</ele>
        <time>2022-09-26T12:44:48Z</time>
      </trkpt>
      <trkpt lat="48.16086" lon="6.43448">
        <ele>448</ele>
        <time>2022-09-26T12:44:49Z</time>
      </trkpt>
      <trkpt lat="48.1609" lon="6.43449">
        <ele>448</ele>
        <time>2022-09-26T12:44:50Z</time>
      </trkpt>
      <trkpt lat="48.16092" lon="6.43451">
        <ele>448</ele>
        <time>2022-09-26T12:44:51Z</time>
      </trkpt>
      <trkpt lat="48.16094" lon="6.43452">
        <ele>448</ele>
        <time>2022-09-26T12:44:52Z</time>
      </trkpt>
      <trkpt lat="48.16095" lon="6.43452">
        <ele>449</ele>
        <time>2022-09-26T12:44:53Z</time>
      </trkpt>
      <trkpt lat="48.16096" lon="6.43454">
        <ele>449</ele>
        <time>2022-09-26T12:44:54Z</time>
      </trkpt>
      <trkpt lat="48.16096" lon="6.43456">
        <ele>449</ele>
        <time>2022-09-26T12:44:55Z</time>
      </trkpt>
      <trkpt lat="48.16097" lon="6.43458">
        <ele>449</ele>
        <time>2022-09-26T12:44:56Z</time>
      </trkpt>
      <trkpt lat="48.16097" lon="6.4346">
        <ele>449</ele>
        <time>2022-09-26T12:44:57Z</time>
      </trkpt>
      <trkpt lat="48.16098" lon="6.43461">
        <ele>449</ele>
        <time>2022-09-26T12:44:58Z</time>
      </trkpt>
      <trkpt lat="48.16098" lon="6.43463">
        <ele>449</ele>
        <time>2022-09-26T12:44:59Z</time>
      </trkpt>
      <trkpt lat="48.16099" lon="6.43466">
        <ele>449</ele>
        <time>2022-09-26T12:45:00Z</time>
      </trkpt>
      <trkpt lat="48.161" lon="6.43471">
        <ele>449</ele>
        <time>2022-09-26T12:45:01Z</time>
      </trkpt>
      <trkpt lat="48.161" lon="6.43475">
        <ele>449</ele>
        <time>2022-09-26T12:45:02Z</time>
      </trkpt>
      <trkpt lat="48.16101" lon="6.43478">
        <ele>449</ele>
        <time>2022-09-26T12:45:03Z</time>
      </trkpt>
      <trkpt lat="48.16102" lon="6.4348">
        <ele>449</ele>
        <time>2022-09-26T12:45:04Z</time>
      </trkpt>
      <trkpt lat="48.16103" lon="6.43481">
        <ele>449</ele>
        <time>2022-09-26T12:45:05Z</time>
      </trkpt>
      <trkpt lat="48.16104" lon="6.43482">
        <ele>449</ele>
        <time>2022-09-26T12:45:06Z</time>
      </trkpt>
      <trkpt lat="48.16105" lon="6.43483">
        <ele>450</ele>
        <time>2022-09-26T12:45:07Z</time>
      </trkpt>
      <trkpt lat="48.16106" lon="6.43483">
        <ele>450</ele>
        <time>2022-09-26T12:45:08Z</time>
      </trkpt>
      <trkpt lat="48.16108" lon="6.43485">
        <ele>450</ele>
        <time>2022-09-26T12:45:09Z</time>
      </trkpt>
      <trkpt lat="48.16108" lon="6.43486">
        <ele>450</ele>
        <time>2022-09-26T12:45:10Z</time>
      </trkpt>
      <trkpt lat="48.16109" lon="6.43487">
        <ele>450</ele>
        <time>2022-09-26T12:45:11Z</time>
      </trkpt>
      <trkpt lat="48.1611" lon="6.43489">
        <ele>450</ele>
        <time>2022-09-26T12:45:12Z</time>
      </trkpt>
      <trkpt lat="48.16111" lon="6.43488">
        <ele>450</ele>
        <time>2022-09-26T12:45:13Z</time>
      </trkpt>
      <trkpt lat="48.16112" lon="6.43488">
        <ele>450</ele>
        <time>2022-09-26T12:45:14Z</time>
      </trkpt>
      <trkpt lat="48.16113" lon="6.43489">
        <ele>450</ele>
        <time>2022-09-26T12:45:15Z</time>
      </trkpt>
      <trkpt lat="48.16114" lon="6.4349">
        <ele>450</ele>
        <time>2022-09-26T12:45:16Z</time>
      </trkpt>
      <trkpt lat="48.16114" lon="6.43492">
        <ele>450</ele>
        <time>2022-09-26T12:45:17Z</time>
      </trkpt>
      <trkpt lat="48.16115" lon="6.43495">
        <ele>450</ele>
        <time>2022-09-26T12:45:18Z</time>
      </trkpt>
      <trkpt lat="48.16116" lon="6.43498">
        <ele>450</ele>
        <time>2022-09-26T12:45:19Z</time>
      </trkpt>
      <trkpt lat="48.16116" lon="6.43501">
        <ele>450</ele>
        <time>2022-09-26T12:45:20Z</time>
      </trkpt>
      <trkpt lat="48.16117" lon="6.43504">
        <ele>450</ele>
        <time>2022-09-26T12:45:21Z</time>
      </trkpt>
      <trkpt lat="48.16117" lon="6.43507">
        <ele>450</ele>
        <time>2022-09-26T12:45:22Z</time>
      </trkpt>
      <trkpt lat="48.16117" lon="6.4351">
        <ele>450</ele>
        <time>2022-09-26T12:45:23Z</time>
      </trkpt>
      <trkpt lat="48.16117" lon="6.43514">
        <ele>450</ele>
        <time>2022-09-26T12:45:24Z</time>
      </trkpt>
      <trkpt lat="48.16118" lon="6.43518">
        <ele>450</ele>
        <time>2022-09-26T12:45:25Z</time>
      </trkpt>
      <trkpt lat="48.16119" lon="6.4352">
        <ele>450</ele>
        <time>2022-09-26T12:45:26Z</time>
      </trkpt>
      <trkpt lat="48.16119" lon="6.43522">
        <ele>450</ele>
        <time>2022-09-26T12:45:27Z</time>
      </trkpt>
      <trkpt lat="48.1612" lon="6.43524">
        <ele>450</ele>
        <time>2022-09-26T12:45:28Z</time>
      </trkpt>
      <trkpt lat="48.1612" lon="6.43526">
        <ele>450</ele>
        <time>2022-09-26T12:45:29Z</time>
      </trkpt>
      <trkpt lat="48.16119" lon="6.43529">
        <ele>450</ele>
        <time>2022-09-26T12:45:30Z</time>
      </trkpt>
      <trkpt lat="48.16118" lon="6.43532">
        <ele>450</ele>
        <time>2022-09-26T12:45:31Z</time>
      </trkpt>
      <trkpt lat="48.16117" lon="6.43535">
        <ele>450</ele>
        <time>2022-09-26T12:45:32Z</time>
      </trkpt>
      <trkpt lat="48.16117" lon="6.43539">
        <ele>450</ele>
        <time>2022-09-26T12:45:33Z</time>
      </trkpt>
      <trkpt lat="48.16117" lon="6.43542">
        <ele>450</ele>
        <time>2022-09-26T12:45:34Z</time>
      </trkpt>
      <trkpt lat="48.16116" lon="6.43545">
        <ele>450</ele>
        <time>2022-09-26T12:45:35Z</time>
      </trkpt>
      <trkpt lat="48.16116" lon="6.43547">
        <ele>451</ele>
        <time>2022-09-26T12:45:36Z</time>
      </trkpt>
      <trkpt lat="48.16115" lon="6.43549">
        <ele>451</ele>
        <time>2022-09-26T12:45:37Z</time>
      </trkpt>
      <trkpt lat="48.16114" lon="6.43552">
        <ele>451</ele>
        <time>2022-09-26T12:45:38Z</time>
      </trkpt>
      <trkpt lat="48.16112" lon="6.43554">
        <ele>451</ele>
        <time>2022-09-26T12:45:39Z</time>
      </trkpt>
      <trkpt lat="48.16112" lon="6.43556">
        <ele>451</ele>
        <time>2022-09-26T12:45:40Z</time>
      </trkpt>
      <trkpt lat="48.16111" lon="6.43558">
        <ele>451</ele>
        <time>2022-09-26T12:45:41Z</time>
      </trkpt>
      <trkpt lat="48.16111" lon="6.43561">
        <ele>451</ele>
        <time>2022-09-26T12:45:42Z</time>
      </trkpt>
      <trkpt lat="48.1611" lon="6.43564">
        <ele>451</ele>
        <time>2022-09-26T12:45:43Z</time>
      </trkpt>
      <trkpt lat="48.1611" lon="6.43566">
        <ele>451</ele>
        <time>2022-09-26T12:45:44Z</time>
      </trkpt>
      <trkpt lat="48.1611" lon="6.4357">
        <ele>451</ele>
        <time>2022-09-26T12:45:45Z</time>
      </trkpt>
      <trkpt lat="48.1611" lon="6.43573">
        <ele>451</ele>
        <time>2022-09-26T12:45:46Z</time>
      </trkpt>
      <trkpt lat="48.16109" lon="6.43576">
        <ele>451</ele>
        <time>2022-09-26T12:45:47Z</time>
      </trkpt>
      <trkpt lat="48.1611" lon="6.43579">
        <ele>451</ele>
        <time>2022-09-26T12:45:48Z</time>
      </trkpt>
      <trkpt lat="48.1611" lon="6.43582">
        <ele>451</ele>
        <time>2022-09-26T12:45:49Z</time>
      </trkpt>
      <trkpt lat="48.1611" lon="6.43585">
        <ele>451</ele>
        <time>2022-09-26T12:45:50Z</time>
      </trkpt>
      <trkpt lat="48.16109" lon="6.43587">
        <ele>451</ele>
        <time>2022-09-26T12:45:51Z</time>
      </trkpt>
      <trkpt lat="48.16108" lon="6.4359">
        <ele>451</ele>
        <time>2022-09-26T12:45:52Z</time>
      </trkpt>
      <trkpt lat="48.16107" lon="6.43592">
        <ele>450</ele>
        <time>2022-09-26T12:45:53Z</time>
      </trkpt>
      <trkpt lat="48.16107" lon="6.43595">
        <ele>450</ele>
        <time>2022-09-26T12:45:54Z</time>
      </trkpt>
      <trkpt lat="48.16106" lon="6.43598">
        <ele>450</ele>
        <time>2022-09-26T12:45:55Z</time>
      </trkpt>
      <trkpt lat="48.16106" lon="6.43601">
        <ele>450</ele>
        <time>2022-09-26T12:45:56Z</time>
      </trkpt>
      <trkpt lat="48.16105" lon="6.43604">
        <ele>450</ele>
        <time>2022-09-26T12:45:57Z</time>
      </trkpt>
      <trkpt lat="48.16104" lon="6.43607">
        <ele>450</ele>
        <time>2022-09-26T12:45:58Z</time>
      </trkpt>
      <trkpt lat="48.16104" lon="6.43609">
        <ele>450</ele>
        <time>2022-09-26T12:45:59Z</time>
      </trkpt>
      <trkpt lat="48.16104" lon="6.43612">
        <ele>450</ele>
        <time>2022-09-26T12:46:00Z</time>
      </trkpt>
      <trkpt lat="48.16103" lon="6.43615">
        <ele>450</ele>
        <time>2022-09-26T12:46:01Z</time>
      </trkpt>
      <trkpt lat="48.16102" lon="6.43618">
        <ele>450</ele>
        <time>2022-09-26T12:46:02Z</time>
      </trkpt>
      <trkpt lat="48.16102" lon="6.43622">
        <ele>450</ele>
        <time>2022-09-26T12:46:03Z</time>
      </trkpt>
      <trkpt lat="48.161" lon="6.43625">
        <ele>450</ele>
        <time>2022-09-26T12:46:04Z</time>
      </trkpt>
      <trkpt lat="48.16097" lon="6.43629">
        <ele>451</ele>
        <time>2022-09-26T12:46:05Z</time>
      </trkpt>
      <trkpt lat="48.16094" lon="6.43633">
        <ele>451</ele>
        <time>2022-09-26T12:46:06Z</time>
      </trkpt>
      <trkpt lat="48.16092" lon="6.43637">
        <ele>451</ele>
        <time>2022-09-26T12:46:07Z</time>
      </trkpt>
      <trkpt lat="48.16091" lon="6.43637">
        <ele>451</ele>
        <time>2022-09-26T12:46:08Z</time>
      </trkpt>
      <trkpt lat="48.16091" lon="6.43638">
        <ele>451</ele>
        <time>2022-09-26T12:46:09Z</time>
      </trkpt>
      <trkpt lat="48.1609" lon="6.4364">
        <ele>451</ele>
        <time>2022-09-26T12:46:10Z</time>
      </trkpt>
      <trkpt lat="48.16089" lon="6.43641">
        <ele>451</ele>
        <time>2022-09-26T12:46:11Z</time>
      </trkpt>
      <trkpt lat="48.16089" lon="6.43644">
        <ele>451</ele>
        <time>2022-09-26T12:46:12Z</time>
      </trkpt>
      <trkpt lat="48.1609" lon="6.43646">
        <ele>451</ele>
        <time>2022-09-26T12:46:13Z</time>
      </trkpt>
      <trkpt lat="48.16091" lon="6.43648">
        <ele>451</ele>
        <time>2022-09-26T12:46:14Z</time>
      </trkpt>
      <trkpt lat="48.16091" lon="6.4365">
        <ele>451</ele>
        <time>2022-09-26T12:46:15Z</time>
      </trkpt>
      <trkpt lat="48.16091" lon="6.43652">
        <ele>451</ele>
        <time>2022-09-26T12:46:16Z</time>
      </trkpt>
      <trkpt lat="48.16092" lon="6.43653">
        <ele>451</ele>
        <time>2022-09-26T12:46:17Z</time>
      </trkpt>
      <trkpt lat="48.16093" lon="6.43655">
        <ele>450</ele>
        <time>2022-09-26T12:46:18Z</time>
      </trkpt>
      <trkpt lat="48.16094" lon="6.43657">
        <ele>450</ele>
        <time>2022-09-26T12:46:19Z</time>
      </trkpt>
      <trkpt lat="48.16095" lon="6.43659">
        <ele>450</ele>
        <time>2022-09-26T12:46:20Z</time>
      </trkpt>
      <trkpt lat="48.16095" lon="6.43661">
        <ele>450</ele>
        <time>2022-09-26T12:46:21Z</time>
      </trkpt>
      <trkpt lat="48.16095" lon="6.43663">
        <ele>450</ele>
        <time>2022-09-26T12:46:22Z</time>
      </trkpt>
      <trkpt lat="48.16094" lon="6.43665">
        <ele>450</ele>
        <time>2022-09-26T12:46:23Z</time>
      </trkpt>
      <trkpt lat="48.16094" lon="6.43667">
        <ele>450</ele>
        <time>2022-09-26T12:46:24Z</time>
      </trkpt>
      <trkpt lat="48.16094" lon="6.4367">
        <ele>450</ele>
        <time>2022-09-26T12:46:25Z</time>
      </trkpt>
      <trkpt lat="48.16094" lon="6.43671">
        <ele>450</ele>
        <time>2022-09-26T12:46:26Z</time>
      </trkpt>
      <trkpt lat="48.16093" lon="6.43673">
        <ele>450</ele>
        <time>2022-09-26T12:46:27Z</time>
      </trkpt>
      <trkpt lat="48.16093" lon="6.43675">
        <ele>450</ele>
        <time>2022-09-26T12:46:28Z</time>
      </trkpt>
      <trkpt lat="48.16092" lon="6.43678">
        <ele>450</ele>
        <time>2022-09-26T12:46:29Z</time>
      </trkpt>
      <trkpt lat="48.16092" lon="6.43681">
        <ele>450</ele>
        <time>2022-09-26T12:46:30Z</time>
      </trkpt>
      <trkpt lat="48.16092" lon="6.4368">
        <ele>450</ele>
        <time>2022-09-26T12:46:31Z</time>
      </trkpt>
      <trkpt lat="48.16092" lon="6.43679">
        <ele>450</ele>
        <time>2022-09-26T12:46:32Z</time>
      </trkpt>
      <trkpt lat="48.16093" lon="6.4368">
        <ele>450</ele>
        <time>2022-09-26T12:46:33Z</time>
      </trkpt>
      <trkpt lat="48.16093" lon="6.43683">
        <ele>450</ele>
        <time>2022-09-26T12:46:34Z</time>
      </trkpt>
      <trkpt lat="48.16094" lon="6.43684">
        <ele>450</ele>
        <time>2022-09-26T12:46:35Z</time>
      </trkpt>
      <trkpt lat="48.16094" lon="6.43686">
        <ele>450</ele>
        <time>2022-09-26T12:46:36Z</time>
      </trkpt>
      <trkpt lat="48.16095" lon="6.43686">
        <ele>450</ele>
        <time>2022-09-26T12:46:37Z</time>
      </trkpt>
      <trkpt lat="48.16096" lon="6.43686">
        <ele>450</ele>
        <time>2022-09-26T12:46:38Z</time>
      </trkpt>
      <trkpt lat="48.16097" lon="6.43686">
        <ele>450</ele>
        <time>2022-09-26T12:46:39Z</time>
      </trkpt>
      <trkpt lat="48.16098" lon="6.43686">
        <ele>450</ele>
        <time>2022-09-26T12:46:40Z</time>
      </trkpt>
      <trkpt lat="48.16099" lon="6.43686">
        <ele>450</ele>
        <time>2022-09-26T12:46:41Z</time>
      </trkpt>
      <trkpt lat="48.16099" lon="6.43687">
        <ele>450</ele>
        <time>2022-09-26T12:46:42Z</time>
      </trkpt>
      <trkpt lat="48.16099" lon="6.43689">
        <ele>450</ele>
        <time>2022-09-26T12:46:43Z</time>
      </trkpt>
      <trkpt lat="48.16099" lon="6.4369">
        <ele>450</ele>
        <time>2022-09-26T12:46:44Z</time>
      </trkpt>
      <trkpt lat="48.161" lon="6.43691">
        <ele>450</ele>
        <time>2022-09-26T12:46:45Z</time>
      </trkpt>
      <trkpt lat="48.161" lon="6.43692">
        <ele>450</ele>
        <time>2022-09-26T12:46:46Z</time>
      </trkpt>
      <trkpt lat="48.161" lon="6.43693">
        <ele>450</ele>
        <time>2022-09-26T12:46:47Z</time>
      </trkpt>
      <trkpt lat="48.161" lon="6.43693">
        <ele>450</ele>
        <time>2022-09-26T12:46:48Z</time>
      </trkpt>
      <trkpt lat="48.161" lon="6.43693">
        <ele>450</ele>
        <time>2022-09-26T12:46:49Z</time>
      </trkpt>
      <trkpt lat="48.16101" lon="6.43694">
        <ele>450</ele>
        <time>2022-09-26T12:46:50Z</time>
      </trkpt>
      <trkpt lat="48.161" lon="6.43694">
        <ele>450</ele>
        <time>2022-09-26T12:46:51Z</time>
      </trkpt>
      <trkpt lat="48.161" lon="6.43694">
        <ele>450</ele>
        <time>2022-09-26T12:46:52Z</time>
      </trkpt>
      <trkpt lat="48.161" lon="6.43695">
        <ele>450</ele>
        <time>2022-09-26T12:46:53Z</time>
      </trkpt>
      <trkpt lat="48.16101" lon="6.43695">
        <ele>450</ele>
        <time>2022-09-26T12:46:54Z</time>
      </trkpt>
      <trkpt lat="48.16101" lon="6.43696">
        <ele>450</ele>
        <time>2022-09-26T12:46:55Z</time>
      </trkpt>
      <trkpt lat="48.16101" lon="6.43697">
        <ele>450</ele>
        <time>2022-09-26T12:46:56Z</time>
      </trkpt>
      <trkpt lat="48.16102" lon="6.43698">
        <ele>450</ele>
        <time>2022-09-26T12:46:57Z</time>
      </trkpt>
      <trkpt lat="48.16104" lon="6.43698">
        <ele>450</ele>
        <time>2022-09-26T12:46:58Z</time>
      </trkpt>
      <trkpt lat="48.16105" lon="6.43698">
        <ele>450</ele>
        <time>2022-09-26T12:46:59Z</time>
      </trkpt>
      <trkpt lat="48.16106" lon="6.43699">
        <ele>450</ele>
        <time>2022-09-26T12:47:00Z</time>
      </trkpt>
      <trkpt lat="48.16107" lon="6.437">
        <ele>450</ele>
        <time>2022-09-26T12:47:01Z</time>
      </trkpt>
      <trkpt lat="48.16108" lon="6.43702">
        <ele>450</ele>
        <time>2022-09-26T12:47:02Z</time>
      </trkpt>
      <trkpt lat="48.16109" lon="6.43704">
        <ele>450</ele>
        <time>2022-09-26T12:47:03Z</time>
      </trkpt>
      <trkpt lat="48.1611" lon="6.43707">
        <ele>450</ele>
        <time>2022-09-26T12:47:04Z</time>
      </trkpt>
      <trkpt lat="48.1611" lon="6.4371">
        <ele>450</ele>
        <time>2022-09-26T12:47:05Z</time>
      </trkpt>
      <trkpt lat="48.16111" lon="6.43714">
        <ele>450</ele>
        <time>2022-09-26T12:47:06Z</time>
      </trkpt>
      <trkpt lat="48.16112" lon="6.43716">
        <ele>450</ele>
        <time>2022-09-26T12:47:07Z</time>
      </trkpt>
      <trkpt lat="48.16113" lon="6.43718">
        <ele>450</ele>
        <time>2022-09-26T12:47:08Z</time>
      </trkpt>
      <trkpt lat="48.16114" lon="6.43719">
        <ele>450</ele>
        <time>2022-09-26T12:47:09Z</time>
      </trkpt>
      <trkpt lat="48.16115" lon="6.43721">
        <ele>450</ele>
        <time>2022-09-26T12:47:10Z</time>
      </trkpt>
      <trkpt lat="48.16117" lon="6.43724">
        <ele>450</ele>
        <time>2022-09-26T12:47:11Z</time>
      </trkpt>
      <trkpt lat="48.16118" lon="6.43727">
        <ele>450</ele>
        <time>2022-09-26T12:47:12Z</time>
      </trkpt>
      <trkpt lat="48.16119" lon="6.4373">
        <ele>450</ele>
        <time>2022-09-26T12:47:13Z</time>
      </trkpt>
      <trkpt lat="48.1612" lon="6.43732">
        <ele>450</ele>
        <time>2022-09-26T12:47:14Z</time>
      </trkpt>
      <trkpt lat="48.16122" lon="6.43735">
        <ele>450</ele>
        <time>2022-09-26T12:47:15Z</time>
      </trkpt>
      <trkpt lat="48.16123" lon="6.43737">
        <ele>450</ele>
        <time>2022-09-26T12:47:16Z</time>
      </trkpt>
      <trkpt lat="48.16123" lon="6.43739">
        <ele>450</ele>
        <time>2022-09-26T12:47:17Z</time>
      </trkpt>
      <trkpt lat="48.16123" lon="6.43742">
        <ele>450</ele>
        <time>2022-09-26T12:47:18Z</time>
      </trkpt>
      <trkpt lat="48.16124" lon="6.43745">
        <ele>450</ele>
        <time>2022-09-26T12:47:19Z</time>
      </trkpt>
      <trkpt lat="48.16126" lon="6.43748">
        <ele>450</ele>
        <time>2022-09-26T12:47:20Z</time>
      </trkpt>
      <trkpt lat="48.16129" lon="6.43751">
        <ele>449</ele>
        <time>2022-09-26T12:47:21Z</time>
      </trkpt>
      <trkpt lat="48.16131" lon="6.43753">
        <ele>449</ele>
        <time>2022-09-26T12:47:22Z</time>
      </trkpt>
      <trkpt lat="48.16133" lon="6.43756">
        <ele>449</ele>
        <time>2022-09-26T12:47:23Z</time>
      </trkpt>
      <trkpt lat="48.16136" lon="6.43759">
        <ele>449</ele>
        <time>2022-09-26T12:47:24Z</time>
      </trkpt>
      <trkpt lat="48.16138" lon="6.43761">
        <ele>449</ele>
        <time>2022-09-26T12:47:25Z</time>
      </trkpt>
      <trkpt lat="48.1614" lon="6.43763">
        <ele>449</ele>
        <time>2022-09-26T12:47:26Z</time>
      </trkpt>
      <trkpt lat="48.16142" lon="6.43766">
        <ele>449</ele>
        <time>2022-09-26T12:47:27Z</time>
      </trkpt>
      <trkpt lat="48.16144" lon="6.43767">
        <ele>448</ele>
        <time>2022-09-26T12:47:28Z</time>
      </trkpt>
      <trkpt lat="48.16145" lon="6.43769">
        <ele>448</ele>
        <time>2022-09-26T12:47:29Z</time>
      </trkpt>
      <trkpt lat="48.16146" lon="6.4377">
        <ele>448</ele>
        <time>2022-09-26T12:47:30Z</time>
      </trkpt>
      <trkpt lat="48.16147" lon="6.43772">
        <ele>448</ele>
        <time>2022-09-26T12:47:31Z</time>
      </trkpt>
      <trkpt lat="48.16148" lon="6.43775">
        <ele>448</ele>
        <time>2022-09-26T12:47:32Z</time>
      </trkpt>
      <trkpt lat="48.1615" lon="6.43776">
        <ele>447</ele>
        <time>2022-09-26T12:47:33Z</time>
      </trkpt>
      <trkpt lat="48.16151" lon="6.43778">
        <ele>447</ele>
        <time>2022-09-26T12:47:34Z</time>
      </trkpt>
      <trkpt lat="48.16154" lon="6.43779">
        <ele>447</ele>
        <time>2022-09-26T12:47:35Z</time>
      </trkpt>
      <trkpt lat="48.16156" lon="6.43781">
        <ele>446</ele>
        <time>2022-09-26T12:47:36Z</time>
      </trkpt>
      <trkpt lat="48.16158" lon="6.43782">
        <ele>446</ele>
        <time>2022-09-26T12:47:37Z</time>
      </trkpt>
      <trkpt lat="48.16161" lon="6.43781">
        <ele>446</ele>
        <time>2022-09-26T12:47:38Z</time>
      </trkpt>
      <trkpt lat="48.16163" lon="6.43781">
        <ele>446</ele>
        <time>2022-09-26T12:47:39Z</time>
      </trkpt>
      <trkpt lat="48.16167" lon="6.43781">
        <ele>445</ele>
        <time>2022-09-26T12:47:40Z</time>
      </trkpt>
      <trkpt lat="48.1617" lon="6.43781">
        <ele>445</ele>
        <time>2022-09-26T12:47:41Z</time>
      </trkpt>
      <trkpt lat="48.16174" lon="6.43781">
        <ele>445</ele>
        <time>2022-09-26T12:47:42Z</time>
      </trkpt>
      <trkpt lat="48.16176" lon="6.4378">
        <ele>445</ele>
        <time>2022-09-26T12:47:43Z</time>
      </trkpt>
      <trkpt lat="48.16179" lon="6.4378">
        <ele>445</ele>
        <time>2022-09-26T12:47:44Z</time>
      </trkpt>
      <trkpt lat="48.16181" lon="6.43779">
        <ele>445</ele>
        <time>2022-09-26T12:47:45Z</time>
      </trkpt>
      <trkpt lat="48.16185" lon="6.43779">
        <ele>445</ele>
        <time>2022-09-26T12:47:46Z</time>
      </trkpt>
      <trkpt lat="48.16187" lon="6.43779">
        <ele>445</ele>
        <time>2022-09-26T12:47:47Z</time>
      </trkpt>
      <trkpt lat="48.16189" lon="6.4378">
        <ele>445</ele>
        <time>2022-09-26T12:47:48Z</time>
      </trkpt>
      <trkpt lat="48.16191" lon="6.43781">
        <ele>445</ele>
        <time>2022-09-26T12:47:49Z</time>
      </trkpt>
      <trkpt lat="48.16195" lon="6.43782">
        <ele>445</ele>
        <time>2022-09-26T12:47:50Z</time>
      </trkpt>
      <trkpt lat="48.16198" lon="6.43783">
        <ele>445</ele>
        <time>2022-09-26T12:47:51Z</time>
      </trkpt>
      <trkpt lat="48.16201" lon="6.43785">
        <ele>444</ele>
        <time>2022-09-26T12:47:52Z</time>
      </trkpt>
      <trkpt lat="48.16204" lon="6.43785">
        <ele>444</ele>
        <time>2022-09-26T12:47:53Z</time>
      </trkpt>
      <trkpt lat="48.16206" lon="6.43785">
        <ele>444</ele>
        <time>2022-09-26T12:47:54Z</time>
      </trkpt>
      <trkpt lat="48.16208" lon="6.43783">
        <ele>444</ele>
        <time>2022-09-26T12:47:55Z</time>
      </trkpt>
      <trkpt lat="48.16209" lon="6.4378">
        <ele>444</ele>
        <time>2022-09-26T12:47:56Z</time>
      </trkpt>
      <trkpt lat="48.16211" lon="6.43774">
        <ele>444</ele>
        <time>2022-09-26T12:47:57Z</time>
      </trkpt>
      <trkpt lat="48.16213" lon="6.43769">
        <ele>444</ele>
        <time>2022-09-26T12:47:58Z</time>
      </trkpt>
      <trkpt lat="48.16215" lon="6.43764">
        <ele>444</ele>
        <time>2022-09-26T12:47:59Z</time>
      </trkpt>
      <trkpt lat="48.16216" lon="6.4376">
        <ele>444</ele>
        <time>2022-09-26T12:48:00Z</time>
      </trkpt>
      <trkpt lat="48.16217" lon="6.43757">
        <ele>444</ele>
        <time>2022-09-26T12:48:01Z</time>
      </trkpt>
      <trkpt lat="48.16219" lon="6.43753">
        <ele>444</ele>
        <time>2022-09-26T12:48:02Z</time>
      </trkpt>
      <trkpt lat="48.1622" lon="6.4375">
        <ele>444</ele>
        <time>2022-09-26T12:48:03Z</time>
      </trkpt>
      <trkpt lat="48.1622" lon="6.43747">
        <ele>443</ele>
        <time>2022-09-26T12:48:04Z</time>
      </trkpt>
      <trkpt lat="48.1622" lon="6.43748">
        <ele>443</ele>
        <time>2022-09-26T12:48:05Z</time>
      </trkpt>
      <trkpt lat="48.16221" lon="6.43749">
        <ele>444</ele>
        <time>2022-09-26T12:48:06Z</time>
      </trkpt>
      <trkpt lat="48.16223" lon="6.43753">
        <ele>443</ele>
        <time>2022-09-26T12:48:07Z</time>
      </trkpt>
      <trkpt lat="48.16223" lon="6.43754">
        <ele>443</ele>
        <time>2022-09-26T12:48:08Z</time>
      </trkpt>
      <trkpt lat="48.16224" lon="6.43754">
        <ele>443</ele>
        <time>2022-09-26T12:48:09Z</time>
      </trkpt>
      <trkpt lat="48.16225" lon="6.43753">
        <ele>443</ele>
        <time>2022-09-26T12:48:10Z</time>
      </trkpt>
      <trkpt lat="48.16226" lon="6.43753">
        <ele>443</ele>
        <time>2022-09-26T12:48:11Z</time>
      </trkpt>
      <trkpt lat="48.16226" lon="6.43753">
        <ele>443</ele>
        <time>2022-09-26T12:48:12Z</time>
      </trkpt>
      <trkpt lat="48.16227" lon="6.43755">
        <ele>443</ele>
        <time>2022-09-26T12:48:13Z</time>
      </trkpt>
      <trkpt lat="48.16227" lon="6.43755">
        <ele>443</ele>
        <time>2022-09-26T12:48:14Z</time>
      </trkpt>
      <trkpt lat="48.16227" lon="6.43755">
        <ele>443</ele>
        <time>2022-09-26T12:48:15Z</time>
      </trkpt>
      <trkpt lat="48.16227" lon="6.43755">
        <ele>443</ele>
        <time>2022-09-26T12:48:16Z</time>
      </trkpt>
      <trkpt lat="48.16227" lon="6.43755">
        <ele>443</ele>
        <time>2022-09-26T12:48:17Z</time>
      </trkpt>
      <trkpt lat="48.16227" lon="6.43755">
        <ele>443</ele>
        <time>2022-09-26T12:48:18Z</time>
      </trkpt>
      <trkpt lat="48.16227" lon="6.43755">
        <ele>443</ele>
        <time>2022-09-26T12:48:19Z</time>
      </trkpt>
      <trkpt lat="48.16227" lon="6.43755">
        <ele>443</ele>
        <time>2022-09-26T12:48:20Z</time>
      </trkpt>
      <trkpt lat="48.16227" lon="6.43755">
        <ele>443</ele>
        <time>2022-09-26T12:48:21Z</time>
      </trkpt>
      <trkpt lat="48.16227" lon="6.43755">
        <ele>443</ele>
        <time>2022-09-26T12:48:22Z</time>
      </trkpt>
      <trkpt lat="48.16227" lon="6.43755">
        <ele>443</ele>
        <time>2022-09-26T12:48:23Z</time>
      </trkpt>
      <trkpt lat="48.16228" lon="6.43755">
        <ele>443</ele>
        <time>2022-09-26T12:48:24Z</time>
      </trkpt>
      <trkpt lat="48.16228" lon="6.43755">
        <ele>442</ele>
        <time>2022-09-26T12:48:25Z</time>
      </trkpt>
      <trkpt lat="48.16228" lon="6.43755">
        <ele>442</ele>
        <time>2022-09-26T12:48:26Z</time>
      </trkpt>
      <trkpt lat="48.16228" lon="6.43755">
        <ele>442</ele>
        <time>2022-09-26T12:48:27Z</time>
      </trkpt>
      <trkpt lat="48.16232" lon="6.43749">
        <ele>442</ele>
        <time>2022-09-26T12:48:34Z</time>
      </trkpt>
      <trkpt lat="48.16234" lon="6.43746">
        <ele>441</ele>
        <time>2022-09-26T12:48:35Z</time>
      </trkpt>
      <trkpt lat="48.16236" lon="6.43742">
        <ele>440</ele>
        <time>2022-09-26T12:48:36Z</time>
      </trkpt>
      <trkpt lat="48.16238" lon="6.43737">
        <ele>439</ele>
        <time>2022-09-26T12:48:37Z</time>
      </trkpt>
      <trkpt lat="48.1624" lon="6.43734">
        <ele>439</ele>
        <time>2022-09-26T12:48:38Z</time>
      </trkpt>
      <trkpt lat="48.16241" lon="6.43731">
        <ele>438</ele>
        <time>2022-09-26T12:48:39Z</time>
      </trkpt>
      <trkpt lat="48.16242" lon="6.43727">
        <ele>438</ele>
        <time>2022-09-26T12:48:40Z</time>
      </trkpt>
      <trkpt lat="48.16244" lon="6.43721">
        <ele>437</ele>
        <time>2022-09-26T12:48:41Z</time>
      </trkpt>
      <trkpt lat="48.16246" lon="6.43716">
        <ele>436</ele>
        <time>2022-09-26T12:48:42Z</time>
      </trkpt>
      <trkpt lat="48.16248" lon="6.43711">
        <ele>434</ele>
        <time>2022-09-26T12:48:43Z</time>
      </trkpt>
      <trkpt lat="48.1625" lon="6.43709">
        <ele>434</ele>
        <time>2022-09-26T12:48:44Z</time>
      </trkpt>
      <trkpt lat="48.1625" lon="6.43705">
        <ele>433</ele>
        <time>2022-09-26T12:48:45Z</time>
      </trkpt>
      <trkpt lat="48.16251" lon="6.43701">
        <ele>432</ele>
        <time>2022-09-26T12:48:46Z</time>
      </trkpt>
      <trkpt lat="48.16252" lon="6.43697">
        <ele>431</ele>
        <time>2022-09-26T12:48:47Z</time>
      </trkpt>
      <trkpt lat="48.16253" lon="6.43693">
        <ele>431</ele>
        <time>2022-09-26T12:48:48Z</time>
      </trkpt>
      <trkpt lat="48.16255" lon="6.43691">
        <ele>430</ele>
        <time>2022-09-26T12:48:49Z</time>
      </trkpt>
      <trkpt lat="48.16257" lon="6.43688">
        <ele>429</ele>
        <time>2022-09-26T12:48:50Z</time>
      </trkpt>
      <trkpt lat="48.16259" lon="6.43685">
        <ele>428</ele>
        <time>2022-09-26T12:48:51Z</time>
      </trkpt>
      <trkpt lat="48.16259" lon="6.43681">
        <ele>428</ele>
        <time>2022-09-26T12:48:52Z</time>
      </trkpt>
      <trkpt lat="48.16259" lon="6.43678">
        <ele>428</ele>
        <time>2022-09-26T12:48:53Z</time>
      </trkpt>
      <trkpt lat="48.16259" lon="6.43674">
        <ele>427</ele>
        <time>2022-09-26T12:48:54Z</time>
      </trkpt>
      <trkpt lat="48.16258" lon="6.43669">
        <ele>427</ele>
        <time>2022-09-26T12:48:55Z</time>
      </trkpt>
      <trkpt lat="48.16258" lon="6.43666">
        <ele>427</ele>
        <time>2022-09-26T12:48:56Z</time>
      </trkpt>
      <trkpt lat="48.16259" lon="6.43662">
        <ele>427</ele>
        <time>2022-09-26T12:48:57Z</time>
      </trkpt>
      <trkpt lat="48.1626" lon="6.43659">
        <ele>426</ele>
        <time>2022-09-26T12:48:58Z</time>
      </trkpt>
      <trkpt lat="48.16262" lon="6.43657">
        <ele>426</ele>
        <time>2022-09-26T12:48:59Z</time>
      </trkpt>
      <trkpt lat="48.16263" lon="6.43655">
        <ele>425</ele>
        <time>2022-09-26T12:49:00Z</time>
      </trkpt>
      <trkpt lat="48.16265" lon="6.43651">
        <ele>425</ele>
        <time>2022-09-26T12:49:01Z</time>
      </trkpt>
      <trkpt lat="48.16265" lon="6.43649">
        <ele>425</ele>
        <time>2022-09-26T12:49:02Z</time>
      </trkpt>
      <trkpt lat="48.16266" lon="6.43646">
        <ele>425</ele>
        <time>2022-09-26T12:49:03Z</time>
      </trkpt>
      <trkpt lat="48.16267" lon="6.43643">
        <ele>424</ele>
        <time>2022-09-26T12:49:04Z</time>
      </trkpt>
      <trkpt lat="48.16269" lon="6.43641">
        <ele>424</ele>
        <time>2022-09-26T12:49:05Z</time>
      </trkpt>
      <trkpt lat="48.1627" lon="6.4364">
        <ele>423</ele>
        <time>2022-09-26T12:49:06Z</time>
      </trkpt>
      <trkpt lat="48.16272" lon="6.43638">
        <ele>423</ele>
        <time>2022-09-26T12:49:07Z</time>
      </trkpt>
      <trkpt lat="48.16273" lon="6.43635">
        <ele>423</ele>
        <time>2022-09-26T12:49:08Z</time>
      </trkpt>
      <trkpt lat="48.16273" lon="6.43632">
        <ele>423</ele>
        <time>2022-09-26T12:49:09Z</time>
      </trkpt>
      <trkpt lat="48.16273" lon="6.4363">
        <ele>423</ele>
        <time>2022-09-26T12:49:10Z</time>
      </trkpt>
      <trkpt lat="48.16274" lon="6.43629">
        <ele>423</ele>
        <time>2022-09-26T12:49:11Z</time>
      </trkpt>
      <trkpt lat="48.16276" lon="6.43628">
        <ele>422</ele>
        <time>2022-09-26T12:49:12Z</time>
      </trkpt>
      <trkpt lat="48.16279" lon="6.43626">
        <ele>421</ele>
        <time>2022-09-26T12:49:13Z</time>
      </trkpt>
      <trkpt lat="48.16281" lon="6.43626">
        <ele>421</ele>
        <time>2022-09-26T12:49:14Z</time>
      </trkpt>
      <trkpt lat="48.16282" lon="6.43627">
        <ele>420</ele>
        <time>2022-09-26T12:49:15Z</time>
      </trkpt>
      <trkpt lat="48.16283" lon="6.43629">
        <ele>420</ele>
        <time>2022-09-26T12:49:16Z</time>
      </trkpt>
      <trkpt lat="48.16284" lon="6.43631">
        <ele>420</ele>
        <time>2022-09-26T12:49:17Z</time>
      </trkpt>
      <trkpt lat="48.16285" lon="6.43633">
        <ele>419</ele>
        <time>2022-09-26T12:49:18Z</time>
      </trkpt>
      <trkpt lat="48.16286" lon="6.43633">
        <ele>418</ele>
        <time>2022-09-26T12:49:19Z</time>
      </trkpt>
      <trkpt lat="48.16287" lon="6.43634">
        <ele>418</ele>
        <time>2022-09-26T12:49:20Z</time>
      </trkpt>
      <trkpt lat="48.16288" lon="6.43635">
        <ele>418</ele>
        <time>2022-09-26T12:49:21Z</time>
      </trkpt>
      <trkpt lat="48.16289" lon="6.43637">
        <ele>418</ele>
        <time>2022-09-26T12:49:22Z</time>
      </trkpt>
      <trkpt lat="48.16289" lon="6.43639">
        <ele>418</ele>
        <time>2022-09-26T12:49:23Z</time>
      </trkpt>
      <trkpt lat="48.16289" lon="6.43641">
        <ele>418</ele>
        <time>2022-09-26T12:49:24Z</time>
      </trkpt>
      <trkpt lat="48.16289" lon="6.43643">
        <ele>418</ele>
        <time>2022-09-26T12:49:25Z</time>
      </trkpt>
      <trkpt lat="48.16289" lon="6.43645">
        <ele>417</ele>
        <time>2022-09-26T12:49:26Z</time>
      </trkpt>
      <trkpt lat="48.16289" lon="6.43647">
        <ele>418</ele>
        <time>2022-09-26T12:49:27Z</time>
      </trkpt>
      <trkpt lat="48.16289" lon="6.43649">
        <ele>418</ele>
        <time>2022-09-26T12:49:28Z</time>
      </trkpt>
      <trkpt lat="48.16289" lon="6.43651">
        <ele>418</ele>
        <time>2022-09-26T12:49:29Z</time>
      </trkpt>
      <trkpt lat="48.1629" lon="6.43654">
        <ele>417</ele>
        <time>2022-09-26T12:49:30Z</time>
      </trkpt>
      <trkpt lat="48.1629" lon="6.43656">
        <ele>417</ele>
        <time>2022-09-26T12:49:31Z</time>
      </trkpt>
      <trkpt lat="48.16291" lon="6.43658">
        <ele>417</ele>
        <time>2022-09-26T12:49:32Z</time>
      </trkpt>
      <trkpt lat="48.16291" lon="6.4366">
        <ele>417</ele>
        <time>2022-09-26T12:49:33Z</time>
      </trkpt>
      <trkpt lat="48.1629" lon="6.43663">
        <ele>417</ele>
        <time>2022-09-26T12:49:34Z</time>
      </trkpt>
      <trkpt lat="48.1629" lon="6.43665">
        <ele>418</ele>
        <time>2022-09-26T12:49:35Z</time>
      </trkpt>
      <trkpt lat="48.16289" lon="6.43668">
        <ele>418</ele>
        <time>2022-09-26T12:49:36Z</time>
      </trkpt>
      <trkpt lat="48.16288" lon="6.4367">
        <ele>418</ele>
        <time>2022-09-26T12:49:37Z</time>
      </trkpt>
      <trkpt lat="48.16288" lon="6.43673">
        <ele>418</ele>
        <time>2022-09-26T12:49:38Z</time>
      </trkpt>
      <trkpt lat="48.16288" lon="6.43675">
        <ele>419</ele>
        <time>2022-09-26T12:49:39Z</time>
      </trkpt>
      <trkpt lat="48.16287" lon="6.43675">
        <ele>419</ele>
        <time>2022-09-26T12:49:40Z</time>
      </trkpt>
      <trkpt lat="48.16287" lon="6.43679">
        <ele>419</ele>
        <time>2022-09-26T12:49:41Z</time>
      </trkpt>
      <trkpt lat="48.16287" lon="6.43682">
        <ele>419</ele>
        <time>2022-09-26T12:49:42Z</time>
      </trkpt>
      <trkpt lat="48.16287" lon="6.43685">
        <ele>419</ele>
        <time>2022-09-26T12:49:43Z</time>
      </trkpt>
      <trkpt lat="48.16288" lon="6.43687">
        <ele>419</ele>
        <time>2022-09-26T12:49:44Z</time>
      </trkpt>
      <trkpt lat="48.1629" lon="6.4369">
        <ele>418</ele>
        <time>2022-09-26T12:49:45Z</time>
      </trkpt>
      <trkpt lat="48.16291" lon="6.43693">
        <ele>418</ele>
        <time>2022-09-26T12:49:46Z</time>
      </trkpt>
      <trkpt lat="48.16292" lon="6.43696">
        <ele>418</ele>
        <time>2022-09-26T12:49:47Z</time>
      </trkpt>
      <trkpt lat="48.16292" lon="6.43699">
        <ele>418</ele>
        <time>2022-09-26T12:49:48Z</time>
      </trkpt>
      <trkpt lat="48.16293" lon="6.43703">
        <ele>417</ele>
        <time>2022-09-26T12:49:49Z</time>
      </trkpt>
      <trkpt lat="48.16295" lon="6.43706">
        <ele>417</ele>
        <time>2022-09-26T12:49:50Z</time>
      </trkpt>
      <trkpt lat="48.16297" lon="6.43709">
        <ele>416</ele>
        <time>2022-09-26T12:49:51Z</time>
      </trkpt>
      <trkpt lat="48.16298" lon="6.43713">
        <ele>416</ele>
        <time>2022-09-26T12:49:52Z</time>
      </trkpt>
      <trkpt lat="48.163" lon="6.43715">
        <ele>415</ele>
        <time>2022-09-26T12:49:53Z</time>
      </trkpt>
      <trkpt lat="48.16301" lon="6.43718">
        <ele>414</ele>
        <time>2022-09-26T12:49:54Z</time>
      </trkpt>
      <trkpt lat="48.16303" lon="6.43721">
        <ele>414</ele>
        <time>2022-09-26T12:49:55Z</time>
      </trkpt>
      <trkpt lat="48.16305" lon="6.43725">
        <ele>413</ele>
        <time>2022-09-26T12:49:56Z</time>
      </trkpt>
      <trkpt lat="48.16306" lon="6.43728">
        <ele>413</ele>
        <time>2022-09-26T12:49:57Z</time>
      </trkpt>
      <trkpt lat="48.16308" lon="6.43731">
        <ele>412</ele>
        <time>2022-09-26T12:49:58Z</time>
      </trkpt>
      <trkpt lat="48.16309" lon="6.43734">
        <ele>412</ele>
        <time>2022-09-26T12:49:59Z</time>
      </trkpt>
      <trkpt lat="48.16312" lon="6.43737">
        <ele>412</ele>
        <time>2022-09-26T12:50:00Z</time>
      </trkpt>
      <trkpt lat="48.16314" lon="6.43741">
        <ele>411</ele>
        <time>2022-09-26T12:50:01Z</time>
      </trkpt>
      <trkpt lat="48.16317" lon="6.43746">
        <ele>411</ele>
        <time>2022-09-26T12:50:02Z</time>
      </trkpt>
      <trkpt lat="48.1632" lon="6.43749">
        <ele>410</ele>
        <time>2022-09-26T12:50:03Z</time>
      </trkpt>
      <trkpt lat="48.16323" lon="6.43752">
        <ele>409</ele>
        <time>2022-09-26T12:50:04Z</time>
      </trkpt>
      <trkpt lat="48.16327" lon="6.43759">
        <ele>408</ele>
        <time>2022-09-26T12:50:05Z</time>
      </trkpt>
      <trkpt lat="48.16328" lon="6.43763">
        <ele>408</ele>
        <time>2022-09-26T12:50:06Z</time>
      </trkpt>
      <trkpt lat="48.1633" lon="6.43768">
        <ele>408</ele>
        <time>2022-09-26T12:50:07Z</time>
      </trkpt>
      <trkpt lat="48.16331" lon="6.43773">
        <ele>408</ele>
        <time>2022-09-26T12:50:08Z</time>
      </trkpt>
      <trkpt lat="48.16334" lon="6.43777">
        <ele>407</ele>
        <time>2022-09-26T12:50:09Z</time>
      </trkpt>
      <trkpt lat="48.16337" lon="6.43781">
        <ele>407</ele>
        <time>2022-09-26T12:50:10Z</time>
      </trkpt>
      <trkpt lat="48.16338" lon="6.43784">
        <ele>407</ele>
        <time>2022-09-26T12:50:11Z</time>
      </trkpt>
      <trkpt lat="48.16341" lon="6.43787">
        <ele>407</ele>
        <time>2022-09-26T12:50:12Z</time>
      </trkpt>
      <trkpt lat="48.16343" lon="6.43791">
        <ele>407</ele>
        <time>2022-09-26T12:50:13Z</time>
      </trkpt>
      <trkpt lat="48.16343" lon="6.43794">
        <ele>407</ele>
        <time>2022-09-26T12:50:14Z</time>
      </trkpt>
      <trkpt lat="48.16344" lon="6.43798">
        <ele>407</ele>
        <time>2022-09-26T12:50:15Z</time>
      </trkpt>
      <trkpt lat="48.16346" lon="6.438">
        <ele>407</ele>
        <time>2022-09-26T12:50:16Z</time>
      </trkpt>
      <trkpt lat="48.16348" lon="6.43802">
        <ele>407</ele>
        <time>2022-09-26T12:50:17Z</time>
      </trkpt>
      <trkpt lat="48.16351" lon="6.43804">
        <ele>406</ele>
        <time>2022-09-26T12:50:18Z</time>
      </trkpt>
      <trkpt lat="48.16354" lon="6.43806">
        <ele>406</ele>
        <time>2022-09-26T12:50:19Z</time>
      </trkpt>
      <trkpt lat="48.16355" lon="6.43811">
        <ele>406</ele>
        <time>2022-09-26T12:50:20Z</time>
      </trkpt>
      <trkpt lat="48.16356" lon="6.43816">
        <ele>406</ele>
        <time>2022-09-26T12:50:21Z</time>
      </trkpt>
      <trkpt lat="48.16358" lon="6.43821">
        <ele>406</ele>
        <time>2022-09-26T12:50:22Z</time>
      </trkpt>
      <trkpt lat="48.16359" lon="6.43826">
        <ele>406</ele>
        <time>2022-09-26T12:50:23Z</time>
      </trkpt>
      <trkpt lat="48.16359" lon="6.43833">
        <ele>406</ele>
        <time>2022-09-26T12:50:24Z</time>
      </trkpt>
      <trkpt lat="48.16361" lon="6.43839">
        <ele>406</ele>
        <time>2022-09-26T12:50:25Z</time>
      </trkpt>
      <trkpt lat="48.16363" lon="6.43846">
        <ele>405</ele>
        <time>2022-09-26T12:50:26Z</time>
      </trkpt>
      <trkpt lat="48.16365" lon="6.43852">
        <ele>405</ele>
        <time>2022-09-26T12:50:27Z</time>
      </trkpt>
      <trkpt lat="48.16367" lon="6.43857">
        <ele>405</ele>
        <time>2022-09-26T12:50:28Z</time>
      </trkpt>
      <trkpt lat="48.16368" lon="6.43861">
        <ele>404</ele>
        <time>2022-09-26T12:50:29Z</time>
      </trkpt>
      <trkpt lat="48.16371" lon="6.43867">
        <ele>404</ele>
        <time>2022-09-26T12:50:30Z</time>
      </trkpt>
      <trkpt lat="48.16371" lon="6.43873">
        <ele>404</ele>
        <time>2022-09-26T12:50:31Z</time>
      </trkpt>
      <trkpt lat="48.16372" lon="6.4388">
        <ele>404</ele>
        <time>2022-09-26T12:50:32Z</time>
      </trkpt>
      <trkpt lat="48.16373" lon="6.43884">
        <ele>404</ele>
        <time>2022-09-26T12:50:33Z</time>
      </trkpt>
      <trkpt lat="48.16375" lon="6.43889">
        <ele>404</ele>
        <time>2022-09-26T12:50:34Z</time>
      </trkpt>
      <trkpt lat="48.16375" lon="6.43895">
        <ele>404</ele>
        <time>2022-09-26T12:50:35Z</time>
      </trkpt>
      <trkpt lat="48.16372" lon="6.43902">
        <ele>405</ele>
        <time>2022-09-26T12:50:36Z</time>
      </trkpt>
      <trkpt lat="48.16371" lon="6.43906">
        <ele>406</ele>
        <time>2022-09-26T12:50:37Z</time>
      </trkpt>
      <trkpt lat="48.16371" lon="6.43911">
        <ele>406</ele>
        <time>2022-09-26T12:50:38Z</time>
      </trkpt>
      <trkpt lat="48.16369" lon="6.43916">
        <ele>406</ele>
        <time>2022-09-26T12:50:39Z</time>
      </trkpt>
      <trkpt lat="48.16368" lon="6.43918">
        <ele>407</ele>
        <time>2022-09-26T12:50:40Z</time>
      </trkpt>
      <trkpt lat="48.16367" lon="6.43922">
        <ele>408</ele>
        <time>2022-09-26T12:50:41Z</time>
      </trkpt>
      <trkpt lat="48.16366" lon="6.43925">
        <ele>408</ele>
        <time>2022-09-26T12:50:42Z</time>
      </trkpt>
      <trkpt lat="48.16365" lon="6.4393">
        <ele>408</ele>
        <time>2022-09-26T12:50:43Z</time>
      </trkpt>
      <trkpt lat="48.16364" lon="6.43934">
        <ele>408</ele>
        <time>2022-09-26T12:50:44Z</time>
      </trkpt>
      <trkpt lat="48.16364" lon="6.43937">
        <ele>408</ele>
        <time>2022-09-26T12:50:45Z</time>
      </trkpt>
      <trkpt lat="48.16363" lon="6.43939">
        <ele>409</ele>
        <time>2022-09-26T12:50:46Z</time>
      </trkpt>
      <trkpt lat="48.16362" lon="6.43942">
        <ele>409</ele>
        <time>2022-09-26T12:50:47Z</time>
      </trkpt>
      <trkpt lat="48.16361" lon="6.43945">
        <ele>410</ele>
        <time>2022-09-26T12:50:48Z</time>
      </trkpt>
      <trkpt lat="48.1636" lon="6.43947">
        <ele>409</ele>
        <time>2022-09-26T12:50:49Z</time>
      </trkpt>
      <trkpt lat="48.1636" lon="6.43949">
        <ele>409</ele>
        <time>2022-09-26T12:50:50Z</time>
      </trkpt>
      <trkpt lat="48.16358" lon="6.43951">
        <ele>410</ele>
        <time>2022-09-26T12:50:51Z</time>
      </trkpt>
      <trkpt lat="48.16358" lon="6.43953">
        <ele>409</ele>
        <time>2022-09-26T12:50:52Z</time>
      </trkpt>
      <trkpt lat="48.16356" lon="6.43958">
        <ele>410</ele>
        <time>2022-09-26T12:50:53Z</time>
      </trkpt>
      <trkpt lat="48.16355" lon="6.43961">
        <ele>409</ele>
        <time>2022-09-26T12:50:54Z</time>
      </trkpt>
      <trkpt lat="48.16355" lon="6.43964">
        <ele>409</ele>
        <time>2022-09-26T12:50:55Z</time>
      </trkpt>
      <trkpt lat="48.16355" lon="6.43967">
        <ele>409</ele>
        <time>2022-09-26T12:50:56Z</time>
      </trkpt>
      <trkpt lat="48.16354" lon="6.43971">
        <ele>409</ele>
        <time>2022-09-26T12:50:57Z</time>
      </trkpt>
      <trkpt lat="48.16354" lon="6.43975">
        <ele>409</ele>
        <time>2022-09-26T12:50:58Z</time>
      </trkpt>
      <trkpt lat="48.16355" lon="6.4398">
        <ele>408</ele>
        <time>2022-09-26T12:50:59Z</time>
      </trkpt>
      <trkpt lat="48.16356" lon="6.43984">
        <ele>407</ele>
        <time>2022-09-26T12:51:00Z</time>
      </trkpt>
      <trkpt lat="48.16358" lon="6.43989">
        <ele>407</ele>
        <time>2022-09-26T12:51:01Z</time>
      </trkpt>
      <trkpt lat="48.16359" lon="6.43993">
        <ele>406</ele>
        <time>2022-09-26T12:51:02Z</time>
      </trkpt>
      <trkpt lat="48.1636" lon="6.43997">
        <ele>405</ele>
        <time>2022-09-26T12:51:03Z</time>
      </trkpt>
      <trkpt lat="48.16361" lon="6.44001">
        <ele>404</ele>
        <time>2022-09-26T12:51:04Z</time>
      </trkpt>
      <trkpt lat="48.16362" lon="6.44006">
        <ele>403</ele>
        <time>2022-09-26T12:51:05Z</time>
      </trkpt>
      <trkpt lat="48.16362" lon="6.44012">
        <ele>403</ele>
        <time>2022-09-26T12:51:06Z</time>
      </trkpt>
      <trkpt lat="48.16363" lon="6.44016">
        <ele>402</ele>
        <time>2022-09-26T12:51:07Z</time>
      </trkpt>
      <trkpt lat="48.16363" lon="6.44021">
        <ele>401</ele>
        <time>2022-09-26T12:51:08Z</time>
      </trkpt>
      <trkpt lat="48.16365" lon="6.44026">
        <ele>400</ele>
        <time>2022-09-26T12:51:09Z</time>
      </trkpt>
      <trkpt lat="48.16366" lon="6.44032">
        <ele>399</ele>
        <time>2022-09-26T12:51:10Z</time>
      </trkpt>
      <trkpt lat="48.16367" lon="6.44037">
        <ele>398</ele>
        <time>2022-09-26T12:51:11Z</time>
      </trkpt>
      <trkpt lat="48.16368" lon="6.44044">
        <ele>397</ele>
        <time>2022-09-26T12:51:12Z</time>
      </trkpt>
      <trkpt lat="48.16368" lon="6.44052">
        <ele>396</ele>
        <time>2022-09-26T12:51:13Z</time>
      </trkpt>
      <trkpt lat="48.16369" lon="6.44058">
        <ele>396</ele>
        <time>2022-09-26T12:51:14Z</time>
      </trkpt>
      <trkpt lat="48.1637" lon="6.44064">
        <ele>395</ele>
        <time>2022-09-26T12:51:15Z</time>
      </trkpt>
      <trkpt lat="48.1637" lon="6.44069">
        <ele>395</ele>
        <time>2022-09-26T12:51:16Z</time>
      </trkpt>
      <trkpt lat="48.16371" lon="6.44074">
        <ele>395</ele>
        <time>2022-09-26T12:51:17Z</time>
      </trkpt>
      <trkpt lat="48.16372" lon="6.44078">
        <ele>395</ele>
        <time>2022-09-26T12:51:18Z</time>
      </trkpt>
      <trkpt lat="48.16373" lon="6.44082">
        <ele>394</ele>
        <time>2022-09-26T12:51:19Z</time>
      </trkpt>
      <trkpt lat="48.16375" lon="6.44086">
        <ele>394</ele>
        <time>2022-09-26T12:51:20Z</time>
      </trkpt>
      <trkpt lat="48.16376" lon="6.44091">
        <ele>394</ele>
        <time>2022-09-26T12:51:21Z</time>
      </trkpt>
      <trkpt lat="48.16378" lon="6.44095">
        <ele>394</ele>
        <time>2022-09-26T12:51:22Z</time>
      </trkpt>
      <trkpt lat="48.1638" lon="6.44099">
        <ele>393</ele>
        <time>2022-09-26T12:51:23Z</time>
      </trkpt>
      <trkpt lat="48.16382" lon="6.44102">
        <ele>393</ele>
        <time>2022-09-26T12:51:24Z</time>
      </trkpt>
      <trkpt lat="48.16384" lon="6.44107">
        <ele>392</ele>
        <time>2022-09-26T12:51:25Z</time>
      </trkpt>
      <trkpt lat="48.16386" lon="6.44111">
        <ele>391</ele>
        <time>2022-09-26T12:51:26Z</time>
      </trkpt>
      <trkpt lat="48.16387" lon="6.44115">
        <ele>391</ele>
        <time>2022-09-26T12:51:27Z</time>
      </trkpt>
      <trkpt lat="48.16388" lon="6.4412">
        <ele>392</ele>
        <time>2022-09-26T12:51:28Z</time>
      </trkpt>
      <trkpt lat="48.1639" lon="6.44123">
        <ele>391</ele>
        <time>2022-09-26T12:51:29Z</time>
      </trkpt>
      <trkpt lat="48.16392" lon="6.44128">
        <ele>391</ele>
        <time>2022-09-26T12:51:30Z</time>
      </trkpt>
      <trkpt lat="48.16394" lon="6.44132">
        <ele>391</ele>
        <time>2022-09-26T12:51:31Z</time>
      </trkpt>
      <trkpt lat="48.16395" lon="6.44136">
        <ele>391</ele>
        <time>2022-09-26T12:51:32Z</time>
      </trkpt>
      <trkpt lat="48.16397" lon="6.44139">
        <ele>391</ele>
        <time>2022-09-26T12:51:33Z</time>
      </trkpt>
      <trkpt lat="48.16399" lon="6.44144">
        <ele>391</ele>
        <time>2022-09-26T12:51:34Z</time>
      </trkpt>
      <trkpt lat="48.16401" lon="6.44149">
        <ele>390</ele>
        <time>2022-09-26T12:51:35Z</time>
      </trkpt>
      <trkpt lat="48.16402" lon="6.44154">
        <ele>391</ele>
        <time>2022-09-26T12:51:36Z</time>
      </trkpt>
      <trkpt lat="48.16403" lon="6.44159">
        <ele>391</ele>
        <time>2022-09-26T12:51:37Z</time>
      </trkpt>
      <trkpt lat="48.16404" lon="6.44163">
        <ele>391</ele>
        <time>2022-09-26T12:51:38Z</time>
      </trkpt>
      <trkpt lat="48.16405" lon="6.44167">
        <ele>391</ele>
        <time>2022-09-26T12:51:39Z</time>
      </trkpt>
      <trkpt lat="48.16406" lon="6.4417">
        <ele>391</ele>
        <time>2022-09-26T12:51:40Z</time>
      </trkpt>
      <trkpt lat="48.16407" lon="6.44173">
        <ele>391</ele>
        <time>2022-09-26T12:51:41Z</time>
      </trkpt>
      <trkpt lat="48.16407" lon="6.44177">
        <ele>391</ele>
        <time>2022-09-26T12:51:42Z</time>
      </trkpt>
      <trkpt lat="48.16408" lon="6.4418">
        <ele>391</ele>
        <time>2022-09-26T12:51:43Z</time>
      </trkpt>
      <trkpt lat="48.16408" lon="6.44184">
        <ele>392</ele>
        <time>2022-09-26T12:51:44Z</time>
      </trkpt>
      <trkpt lat="48.16409" lon="6.44188">
        <ele>392</ele>
        <time>2022-09-26T12:51:45Z</time>
      </trkpt>
      <trkpt lat="48.16409" lon="6.44191">
        <ele>392</ele>
        <time>2022-09-26T12:51:46Z</time>
      </trkpt>
      <trkpt lat="48.1641" lon="6.44195">
        <ele>392</ele>
        <time>2022-09-26T12:51:47Z</time>
      </trkpt>
      <trkpt lat="48.16411" lon="6.442">
        <ele>392</ele>
        <time>2022-09-26T12:51:48Z</time>
      </trkpt>
      <trkpt lat="48.16412" lon="6.44204">
        <ele>392</ele>
        <time>2022-09-26T12:51:49Z</time>
      </trkpt>
      <trkpt lat="48.16413" lon="6.44209">
        <ele>392</ele>
        <time>2022-09-26T12:51:50Z</time>
      </trkpt>
      <trkpt lat="48.16413" lon="6.44214">
        <ele>392</ele>
        <time>2022-09-26T12:51:51Z</time>
      </trkpt>
      <trkpt lat="48.16415" lon="6.44219">
        <ele>392</ele>
        <time>2022-09-26T12:51:52Z</time>
      </trkpt>
      <trkpt lat="48.16415" lon="6.44224">
        <ele>392</ele>
        <time>2022-09-26T12:51:53Z</time>
      </trkpt>
      <trkpt lat="48.16417" lon="6.44228">
        <ele>391</ele>
        <time>2022-09-26T12:51:54Z</time>
      </trkpt>
      <trkpt lat="48.16418" lon="6.44233">
        <ele>390</ele>
        <time>2022-09-26T12:51:55Z</time>
      </trkpt>
      <trkpt lat="48.16419" lon="6.44238">
        <ele>390</ele>
        <time>2022-09-26T12:51:56Z</time>
      </trkpt>
      <trkpt lat="48.1642" lon="6.44242">
        <ele>389</ele>
        <time>2022-09-26T12:51:57Z</time>
      </trkpt>
      <trkpt lat="48.16422" lon="6.44247">
        <ele>388</ele>
        <time>2022-09-26T12:51:58Z</time>
      </trkpt>
      <trkpt lat="48.16423" lon="6.44251">
        <ele>388</ele>
        <time>2022-09-26T12:51:59Z</time>
      </trkpt>
      <trkpt lat="48.16425" lon="6.44254">
        <ele>387</ele>
        <time>2022-09-26T12:52:00Z</time>
      </trkpt>
      <trkpt lat="48.16434" lon="6.44272">
        <ele>382</ele>
        <time>2022-09-26T12:52:01Z</time>
      </trkpt>
      <trkpt lat="48.16436" lon="6.44277">
        <ele>381</ele>
        <time>2022-09-26T12:52:02Z</time>
      </trkpt>
      <trkpt lat="48.16437" lon="6.44283">
        <ele>380</ele>
        <time>2022-09-26T12:52:03Z</time>
      </trkpt>
      <trkpt lat="48.16437" lon="6.44288">
        <ele>380</ele>
        <time>2022-09-26T12:52:04Z</time>
      </trkpt>
      <trkpt lat="48.16437" lon="6.44292">
        <ele>380</ele>
        <time>2022-09-26T12:52:05Z</time>
      </trkpt>
      <trkpt lat="48.16436" lon="6.44296">
        <ele>380</ele>
        <time>2022-09-26T12:52:06Z</time>
      </trkpt>
      <trkpt lat="48.16438" lon="6.44298">
        <ele>379</ele>
        <time>2022-09-26T12:52:07Z</time>
      </trkpt>
      <trkpt lat="48.16439" lon="6.44304">
        <ele>378</ele>
        <time>2022-09-26T12:52:08Z</time>
      </trkpt>
      <trkpt lat="48.16441" lon="6.44309">
        <ele>377</ele>
        <time>2022-09-26T12:52:09Z</time>
      </trkpt>
      <trkpt lat="48.16442" lon="6.44315">
        <ele>376</ele>
        <time>2022-09-26T12:52:10Z</time>
      </trkpt>
      <trkpt lat="48.16443" lon="6.4432">
        <ele>374</ele>
        <time>2022-09-26T12:52:11Z</time>
      </trkpt>
      <trkpt lat="48.16444" lon="6.44327">
        <ele>373</ele>
        <time>2022-09-26T12:52:12Z</time>
      </trkpt>
      <trkpt lat="48.16445" lon="6.44331">
        <ele>372</ele>
        <time>2022-09-26T12:52:13Z</time>
      </trkpt>
      <trkpt lat="48.16445" lon="6.44336">
        <ele>371</ele>
        <time>2022-09-26T12:52:14Z</time>
      </trkpt>
      <trkpt lat="48.16445" lon="6.44342">
        <ele>370</ele>
        <time>2022-09-26T12:52:15Z</time>
      </trkpt>
      <trkpt lat="48.16445" lon="6.44348">
        <ele>370</ele>
        <time>2022-09-26T12:52:16Z</time>
      </trkpt>
      <trkpt lat="48.16445" lon="6.44354">
        <ele>369</ele>
        <time>2022-09-26T12:52:17Z</time>
      </trkpt>
      <trkpt lat="48.16445" lon="6.4436">
        <ele>368</ele>
        <time>2022-09-26T12:52:18Z</time>
      </trkpt>
      <trkpt lat="48.16444" lon="6.44369">
        <ele>368</ele>
        <time>2022-09-26T12:52:19Z</time>
      </trkpt>
      <trkpt lat="48.16444" lon="6.44375">
        <ele>368</ele>
        <time>2022-09-26T12:52:20Z</time>
      </trkpt>
      <trkpt lat="48.16443" lon="6.44381">
        <ele>367</ele>
        <time>2022-09-26T12:52:21Z</time>
      </trkpt>
      <trkpt lat="48.16443" lon="6.44388">
        <ele>367</ele>
        <time>2022-09-26T12:52:22Z</time>
      </trkpt>
      <trkpt lat="48.16441" lon="6.44394">
        <ele>367</ele>
        <time>2022-09-26T12:52:23Z</time>
      </trkpt>
      <trkpt lat="48.16441" lon="6.444">
        <ele>366</ele>
        <time>2022-09-26T12:52:24Z</time>
      </trkpt>
      <trkpt lat="48.16442" lon="6.44405">
        <ele>366</ele>
        <time>2022-09-26T12:52:25Z</time>
      </trkpt>
      <trkpt lat="48.16443" lon="6.44409">
        <ele>365</ele>
        <time>2022-09-26T12:52:26Z</time>
      </trkpt>
      <trkpt lat="48.16445" lon="6.44413">
        <ele>364</ele>
        <time>2022-09-26T12:52:27Z</time>
      </trkpt>
      <trkpt lat="48.16446" lon="6.44417">
        <ele>363</ele>
        <time>2022-09-26T12:52:28Z</time>
      </trkpt>
      <trkpt lat="48.16446" lon="6.44421">
        <ele>363</ele>
        <time>2022-09-26T12:52:29Z</time>
      </trkpt>
      <trkpt lat="48.16447" lon="6.44425">
        <ele>363</ele>
        <time>2022-09-26T12:52:30Z</time>
      </trkpt>
      <trkpt lat="48.16447" lon="6.44429">
        <ele>362</ele>
        <time>2022-09-26T12:52:31Z</time>
      </trkpt>
      <trkpt lat="48.16446" lon="6.44434">
        <ele>363</ele>
        <time>2022-09-26T12:52:32Z</time>
      </trkpt>
      <trkpt lat="48.16446" lon="6.44439">
        <ele>363</ele>
        <time>2022-09-26T12:52:33Z</time>
      </trkpt>
      <trkpt lat="48.16445" lon="6.44443">
        <ele>363</ele>
        <time>2022-09-26T12:52:34Z</time>
      </trkpt>
      <trkpt lat="48.16444" lon="6.44447">
        <ele>363</ele>
        <time>2022-09-26T12:52:35Z</time>
      </trkpt>
      <trkpt lat="48.16444" lon="6.44451">
        <ele>363</ele>
        <time>2022-09-26T12:52:36Z</time>
      </trkpt>
      <trkpt lat="48.16443" lon="6.44455">
        <ele>363</ele>
        <time>2022-09-26T12:52:37Z</time>
      </trkpt>
      <trkpt lat="48.16442" lon="6.44459">
        <ele>363</ele>
        <time>2022-09-26T12:52:38Z</time>
      </trkpt>
      <trkpt lat="48.16442" lon="6.44463">
        <ele>363</ele>
        <time>2022-09-26T12:52:39Z</time>
      </trkpt>
      <trkpt lat="48.16441" lon="6.44467">
        <ele>363</ele>
        <time>2022-09-26T12:52:40Z</time>
      </trkpt>
      <trkpt lat="48.1644" lon="6.44471">
        <ele>363</ele>
        <time>2022-09-26T12:52:41Z</time>
      </trkpt>
      <trkpt lat="48.16439" lon="6.44476">
        <ele>362</ele>
        <time>2022-09-26T12:52:42Z</time>
      </trkpt>
      <trkpt lat="48.16437" lon="6.44484">
        <ele>361</ele>
        <time>2022-09-26T12:52:43Z</time>
      </trkpt>
      <trkpt lat="48.16436" lon="6.44491">
        <ele>361</ele>
        <time>2022-09-26T12:52:44Z</time>
      </trkpt>
      <trkpt lat="48.16436" lon="6.44496">
        <ele>360</ele>
        <time>2022-09-26T12:52:45Z</time>
      </trkpt>
      <trkpt lat="48.16435" lon="6.44502">
        <ele>359</ele>
        <time>2022-09-26T12:52:46Z</time>
      </trkpt>
      <trkpt lat="48.16434" lon="6.44504">
        <ele>359</ele>
        <time>2022-09-26T12:52:47Z</time>
      </trkpt>
      <trkpt lat="48.16434" lon="6.44509">
        <ele>359</ele>
        <time>2022-09-26T12:52:48Z</time>
      </trkpt>
      <trkpt lat="48.16433" lon="6.44514">
        <ele>359</ele>
        <time>2022-09-26T12:52:49Z</time>
      </trkpt>
      <trkpt lat="48.16434" lon="6.44516">
        <ele>359</ele>
        <time>2022-09-26T12:52:50Z</time>
      </trkpt>
      <trkpt lat="48.16434" lon="6.44518">
        <ele>358</ele>
        <time>2022-09-26T12:52:51Z</time>
      </trkpt>
      <trkpt lat="48.16434" lon="6.44519">
        <ele>358</ele>
        <time>2022-09-26T12:52:52Z</time>
      </trkpt>
      <trkpt lat="48.16433" lon="6.44521">
        <ele>358</ele>
        <time>2022-09-26T12:52:53Z</time>
      </trkpt>
      <trkpt lat="48.16433" lon="6.44523">
        <ele>358</ele>
        <time>2022-09-26T12:52:54Z</time>
      </trkpt>
      <trkpt lat="48.16432" lon="6.44525">
        <ele>358</ele>
        <time>2022-09-26T12:52:55Z</time>
      </trkpt>
      <trkpt lat="48.16431" lon="6.44528">
        <ele>358</ele>
        <time>2022-09-26T12:52:56Z</time>
      </trkpt>
      <trkpt lat="48.1643" lon="6.4453">
        <ele>359</ele>
        <time>2022-09-26T12:52:57Z</time>
      </trkpt>
      <trkpt lat="48.16428" lon="6.44531">
        <ele>359</ele>
        <time>2022-09-26T12:52:58Z</time>
      </trkpt>
      <trkpt lat="48.16427" lon="6.44532">
        <ele>359</ele>
        <time>2022-09-26T12:52:59Z</time>
      </trkpt>
      <trkpt lat="48.16426" lon="6.44532">
        <ele>359</ele>
        <time>2022-09-26T12:53:00Z</time>
      </trkpt>
      <trkpt lat="48.16425" lon="6.44533">
        <ele>360</ele>
        <time>2022-09-26T12:53:01Z</time>
      </trkpt>
      <trkpt lat="48.16424" lon="6.44534">
        <ele>360</ele>
        <time>2022-09-26T12:53:02Z</time>
      </trkpt>
      <trkpt lat="48.16423" lon="6.44534">
        <ele>360</ele>
        <time>2022-09-26T12:53:03Z</time>
      </trkpt>
      <trkpt lat="48.16422" lon="6.44535">
        <ele>360</ele>
        <time>2022-09-26T12:53:04Z</time>
      </trkpt>
      <trkpt lat="48.16421" lon="6.44535">
        <ele>361</ele>
        <time>2022-09-26T12:53:05Z</time>
      </trkpt>
      <trkpt lat="48.16421" lon="6.44535">
        <ele>361</ele>
        <time>2022-09-26T12:53:06Z</time>
      </trkpt>
      <trkpt lat="48.1642" lon="6.44535">
        <ele>361</ele>
        <time>2022-09-26T12:53:07Z</time>
      </trkpt>
      <trkpt lat="48.16419" lon="6.44535">
        <ele>361</ele>
        <time>2022-09-26T12:53:08Z</time>
      </trkpt>
      <trkpt lat="48.16419" lon="6.44535">
        <ele>361</ele>
        <time>2022-09-26T12:53:09Z</time>
      </trkpt>
      <trkpt lat="48.16418" lon="6.44535">
        <ele>362</ele>
        <time>2022-09-26T12:53:10Z</time>
      </trkpt>
      <trkpt lat="48.16417" lon="6.44534">
        <ele>362</ele>
        <time>2022-09-26T12:53:11Z</time>
      </trkpt>
      <trkpt lat="48.16416" lon="6.44535">
        <ele>362</ele>
        <time>2022-09-26T12:53:12Z</time>
      </trkpt>
      <trkpt lat="48.16416" lon="6.44535">
        <ele>362</ele>
        <time>2022-09-26T12:53:13Z</time>
      </trkpt>
      <trkpt lat="48.16415" lon="6.44536">
        <ele>362</ele>
        <time>2022-09-26T12:53:14Z</time>
      </trkpt>
      <trkpt lat="48.16415" lon="6.44536">
        <ele>362</ele>
        <time>2022-09-26T12:53:15Z</time>
      </trkpt>
      <trkpt lat="48.16415" lon="6.44537">
        <ele>362</ele>
        <time>2022-09-26T12:53:16Z</time>
      </trkpt>
      <trkpt lat="48.16414" lon="6.44538">
        <ele>363</ele>
        <time>2022-09-26T12:53:17Z</time>
      </trkpt>
      <trkpt lat="48.16412" lon="6.44538">
        <ele>363</ele>
        <time>2022-09-26T12:53:18Z</time>
      </trkpt>
      <trkpt lat="48.16411" lon="6.44539">
        <ele>363</ele>
        <time>2022-09-26T12:53:19Z</time>
      </trkpt>
      <trkpt lat="48.1641" lon="6.4454">
        <ele>363</ele>
        <time>2022-09-26T12:53:20Z</time>
      </trkpt>
      <trkpt lat="48.16409" lon="6.44541">
        <ele>364</ele>
        <time>2022-09-26T12:53:21Z</time>
      </trkpt>
      <trkpt lat="48.16407" lon="6.44541">
        <ele>364</ele>
        <time>2022-09-26T12:53:22Z</time>
      </trkpt>
      <trkpt lat="48.16406" lon="6.44541">
        <ele>364</ele>
        <time>2022-09-26T12:53:23Z</time>
      </trkpt>
      <trkpt lat="48.16405" lon="6.44542">
        <ele>364</ele>
        <time>2022-09-26T12:53:24Z</time>
      </trkpt>
      <trkpt lat="48.16404" lon="6.44542">
        <ele>364</ele>
        <time>2022-09-26T12:53:25Z</time>
      </trkpt>
      <trkpt lat="48.16402" lon="6.44542">
        <ele>365</ele>
        <time>2022-09-26T12:53:26Z</time>
      </trkpt>
      <trkpt lat="48.16401" lon="6.44542">
        <ele>365</ele>
        <time>2022-09-26T12:53:27Z</time>
      </trkpt>
      <trkpt lat="48.16399" lon="6.44541">
        <ele>366</ele>
        <time>2022-09-26T12:53:28Z</time>
      </trkpt>
      <trkpt lat="48.16399" lon="6.44541">
        <ele>366</ele>
        <time>2022-09-26T12:53:29Z</time>
      </trkpt>
      <trkpt lat="48.16397" lon="6.44541">
        <ele>366</ele>
        <time>2022-09-26T12:53:30Z</time>
      </trkpt>
      <trkpt lat="48.16395" lon="6.4454">
        <ele>367</ele>
        <time>2022-09-26T12:53:31Z</time>
      </trkpt>
      <trkpt lat="48.16394" lon="6.4454">
        <ele>367</ele>
        <time>2022-09-26T12:53:32Z</time>
      </trkpt>
      <trkpt lat="48.16392" lon="6.4454">
        <ele>367</ele>
        <time>2022-09-26T12:53:33Z</time>
      </trkpt>
      <trkpt lat="48.16391" lon="6.44541">
        <ele>368</ele>
        <time>2022-09-26T12:53:34Z</time>
      </trkpt>
      <trkpt lat="48.16389" lon="6.44542">
        <ele>368</ele>
        <time>2022-09-26T12:53:35Z</time>
      </trkpt>
      <trkpt lat="48.16388" lon="6.44542">
        <ele>368</ele>
        <time>2022-09-26T12:53:36Z</time>
      </trkpt>
      <trkpt lat="48.16387" lon="6.44543">
        <ele>368</ele>
        <time>2022-09-26T12:53:37Z</time>
      </trkpt>
      <trkpt lat="48.16386" lon="6.44542">
        <ele>368</ele>
        <time>2022-09-26T12:53:38Z</time>
      </trkpt>
      <trkpt lat="48.16385" lon="6.44542">
        <ele>369</ele>
        <time>2022-09-26T12:53:39Z</time>
      </trkpt>
      <trkpt lat="48.16384" lon="6.44543">
        <ele>369</ele>
        <time>2022-09-26T12:53:40Z</time>
      </trkpt>
      <trkpt lat="48.16383" lon="6.44544">
        <ele>369</ele>
        <time>2022-09-26T12:53:41Z</time>
      </trkpt>
      <trkpt lat="48.16381" lon="6.44544">
        <ele>369</ele>
        <time>2022-09-26T12:53:42Z</time>
      </trkpt>
      <trkpt lat="48.1638" lon="6.44544">
        <ele>369</ele>
        <time>2022-09-26T12:53:43Z</time>
      </trkpt>
      <trkpt lat="48.16378" lon="6.44544">
        <ele>370</ele>
        <time>2022-09-26T12:53:44Z</time>
      </trkpt>
      <trkpt lat="48.16377" lon="6.44545">
        <ele>370</ele>
        <time>2022-09-26T12:53:45Z</time>
      </trkpt>
      <trkpt lat="48.16375" lon="6.44544">
        <ele>370</ele>
        <time>2022-09-26T12:53:46Z</time>
      </trkpt>
      <trkpt lat="48.16374" lon="6.44543">
        <ele>371</ele>
        <time>2022-09-26T12:53:47Z</time>
      </trkpt>
      <trkpt lat="48.16371" lon="6.44541">
        <ele>372</ele>
        <time>2022-09-26T12:53:48Z</time>
      </trkpt>
      <trkpt lat="48.16369" lon="6.4454">
        <ele>373</ele>
        <time>2022-09-26T12:53:49Z</time>
      </trkpt>
      <trkpt lat="48.16367" lon="6.44539">
        <ele>373</ele>
        <time>2022-09-26T12:53:50Z</time>
      </trkpt>
      <trkpt lat="48.16366" lon="6.44538">
        <ele>374</ele>
        <time>2022-09-26T12:53:51Z</time>
      </trkpt>
      <trkpt lat="48.16364" lon="6.44538">
        <ele>374</ele>
        <time>2022-09-26T12:53:52Z</time>
      </trkpt>
      <trkpt lat="48.16361" lon="6.44539">
        <ele>375</ele>
        <time>2022-09-26T12:53:53Z</time>
      </trkpt>
      <trkpt lat="48.16359" lon="6.44539">
        <ele>375</ele>
        <time>2022-09-26T12:53:54Z</time>
      </trkpt>
      <trkpt lat="48.16357" lon="6.4454">
        <ele>375</ele>
        <time>2022-09-26T12:53:55Z</time>
      </trkpt>
      <trkpt lat="48.16354" lon="6.44541">
        <ele>375</ele>
        <time>2022-09-26T12:53:56Z</time>
      </trkpt>
      <trkpt lat="48.16353" lon="6.44541">
        <ele>375</ele>
        <time>2022-09-26T12:53:57Z</time>
      </trkpt>
      <trkpt lat="48.16351" lon="6.44541">
        <ele>376</ele>
        <time>2022-09-26T12:53:58Z</time>
      </trkpt>
      <trkpt lat="48.16347" lon="6.44542">
        <ele>376</ele>
        <time>2022-09-26T12:53:59Z</time>
      </trkpt>
      <trkpt lat="48.16344" lon="6.44544">
        <ele>376</ele>
        <time>2022-09-26T12:54:00Z</time>
      </trkpt>
      <trkpt lat="48.16343" lon="6.44545">
        <ele>375</ele>
        <time>2022-09-26T12:54:01Z</time>
      </trkpt>
      <trkpt lat="48.16343" lon="6.44545">
        <ele>375</ele>
        <time>2022-09-26T12:54:02Z</time>
      </trkpt>
      <trkpt lat="48.16343" lon="6.44545">
        <ele>375</ele>
        <time>2022-09-26T12:54:03Z</time>
      </trkpt>
      <trkpt lat="48.16342" lon="6.44546">
        <ele>375</ele>
        <time>2022-09-26T12:54:04Z</time>
      </trkpt>
      <trkpt lat="48.16342" lon="6.44546">
        <ele>375</ele>
        <time>2022-09-26T12:54:05Z</time>
      </trkpt>
      <trkpt lat="48.16341" lon="6.44546">
        <ele>375</ele>
        <time>2022-09-26T12:54:06Z</time>
      </trkpt>
      <trkpt lat="48.16341" lon="6.44546">
        <ele>375</ele>
        <time>2022-09-26T12:54:07Z</time>
      </trkpt>
      <trkpt lat="48.1634" lon="6.44547">
        <ele>375</ele>
        <time>2022-09-26T12:54:08Z</time>
      </trkpt>
      <trkpt lat="48.16339" lon="6.44547">
        <ele>375</ele>
        <time>2022-09-26T12:54:09Z</time>
      </trkpt>
      <trkpt lat="48.16338" lon="6.44548">
        <ele>375</ele>
        <time>2022-09-26T12:54:10Z</time>
      </trkpt>
      <trkpt lat="48.16337" lon="6.44548">
        <ele>375</ele>
        <time>2022-09-26T12:54:11Z</time>
      </trkpt>
      <trkpt lat="48.16337" lon="6.44548">
        <ele>375</ele>
        <time>2022-09-26T12:54:12Z</time>
      </trkpt>
      <trkpt lat="48.16337" lon="6.44549">
        <ele>375</ele>
        <time>2022-09-26T12:54:13Z</time>
      </trkpt>
      <trkpt lat="48.16337" lon="6.44549">
        <ele>375</ele>
        <time>2022-09-26T12:54:14Z</time>
      </trkpt>
      <trkpt lat="48.16336" lon="6.44549">
        <ele>375</ele>
        <time>2022-09-26T12:54:15Z</time>
      </trkpt>
      <trkpt lat="48.16336" lon="6.44549">
        <ele>375</ele>
        <time>2022-09-26T12:54:16Z</time>
      </trkpt>
      <trkpt lat="48.16336" lon="6.44549">
        <ele>375</ele>
        <time>2022-09-26T12:54:17Z</time>
      </trkpt>
      <trkpt lat="48.16336" lon="6.44549">
        <ele>375</ele>
        <time>2022-09-26T12:54:18Z</time>
      </trkpt>
      <trkpt lat="48.16335" lon="6.4455">
        <ele>375</ele>
        <time>2022-09-26T12:54:19Z</time>
      </trkpt>
      <trkpt lat="48.16333" lon="6.4455">
        <ele>375</ele>
        <time>2022-09-26T12:54:20Z</time>
      </trkpt>
      <trkpt lat="48.1633" lon="6.4455">
        <ele>376</ele>
        <time>2022-09-26T12:54:21Z</time>
      </trkpt>
      <trkpt lat="48.16327" lon="6.44548">
        <ele>376</ele>
        <time>2022-09-26T12:54:22Z</time>
      </trkpt>
      <trkpt lat="48.16325" lon="6.44546">
        <ele>377</ele>
        <time>2022-09-26T12:54:23Z</time>
      </trkpt>
      <trkpt lat="48.16323" lon="6.44545">
        <ele>378</ele>
        <time>2022-09-26T12:54:24Z</time>
      </trkpt>
      <trkpt lat="48.16321" lon="6.44544">
        <ele>378</ele>
        <time>2022-09-26T12:54:25Z</time>
      </trkpt>
      <trkpt lat="48.16318" lon="6.44544">
        <ele>379</ele>
        <time>2022-09-26T12:54:26Z</time>
      </trkpt>
      <trkpt lat="48.16315" lon="6.44544">
        <ele>379</ele>
        <time>2022-09-26T12:54:27Z</time>
      </trkpt>
      <trkpt lat="48.16312" lon="6.44544">
        <ele>379</ele>
        <time>2022-09-26T12:54:28Z</time>
      </trkpt>
      <trkpt lat="48.16308" lon="6.44544">
        <ele>380</ele>
        <time>2022-09-26T12:54:29Z</time>
      </trkpt>
      <trkpt lat="48.16306" lon="6.44543">
        <ele>380</ele>
        <time>2022-09-26T12:54:30Z</time>
      </trkpt>
      <trkpt lat="48.16302" lon="6.44544">
        <ele>381</ele>
        <time>2022-09-26T12:54:31Z</time>
      </trkpt>
      <trkpt lat="48.16298" lon="6.44544">
        <ele>381</ele>
        <time>2022-09-26T12:54:32Z</time>
      </trkpt>
      <trkpt lat="48.16294" lon="6.44545">
        <ele>381</ele>
        <time>2022-09-26T12:54:33Z</time>
      </trkpt>
      <trkpt lat="48.1629" lon="6.44548">
        <ele>381</ele>
        <time>2022-09-26T12:54:34Z</time>
      </trkpt>
      <trkpt lat="48.16285" lon="6.4455">
        <ele>380</ele>
        <time>2022-09-26T12:54:35Z</time>
      </trkpt>
      <trkpt lat="48.16274" lon="6.44552">
        <ele>381</ele>
        <time>2022-09-26T12:54:36Z</time>
      </trkpt>
      <trkpt lat="48.16268" lon="6.4455">
        <ele>383</ele>
        <time>2022-09-26T12:54:37Z</time>
      </trkpt>
      <trkpt lat="48.16259" lon="6.44553">
        <ele>384</ele>
        <time>2022-09-26T12:54:38Z</time>
      </trkpt>
      <trkpt lat="48.16252" lon="6.44554">
        <ele>385</ele>
        <time>2022-09-26T12:54:39Z</time>
      </trkpt>
      <trkpt lat="48.16246" lon="6.44553">
        <ele>386</ele>
        <time>2022-09-26T12:54:40Z</time>
      </trkpt>
      <trkpt lat="48.1624" lon="6.44553">
        <ele>386</ele>
        <time>2022-09-26T12:54:41Z</time>
      </trkpt>
      <trkpt lat="48.16237" lon="6.44548">
        <ele>388</ele>
        <time>2022-09-26T12:54:42Z</time>
      </trkpt>
      <trkpt lat="48.16231" lon="6.4455">
        <ele>388</ele>
        <time>2022-09-26T12:54:43Z</time>
      </trkpt>
      <trkpt lat="48.16226" lon="6.44553">
        <ele>388</ele>
        <time>2022-09-26T12:54:44Z</time>
      </trkpt>
      <trkpt lat="48.16222" lon="6.44554">
        <ele>388</ele>
        <time>2022-09-26T12:54:45Z</time>
      </trkpt>
      <trkpt lat="48.16214" lon="6.44556">
        <ele>386</ele>
        <time>2022-09-26T12:54:46Z</time>
      </trkpt>
      <trkpt lat="48.16209" lon="6.4456">
        <ele>384</ele>
        <time>2022-09-26T12:54:47Z</time>
      </trkpt>
      <trkpt lat="48.16204" lon="6.44563">
        <ele>382</ele>
        <time>2022-09-26T12:54:48Z</time>
      </trkpt>
      <trkpt lat="48.16198" lon="6.44565">
        <ele>380</ele>
        <time>2022-09-26T12:54:49Z</time>
      </trkpt>
      <trkpt lat="48.16193" lon="6.44568">
        <ele>378</ele>
        <time>2022-09-26T12:54:50Z</time>
      </trkpt>
      <trkpt lat="48.16187" lon="6.44572">
        <ele>377</ele>
        <time>2022-09-26T12:54:51Z</time>
      </trkpt>
      <trkpt lat="48.16181" lon="6.44575">
        <ele>375</ele>
        <time>2022-09-26T12:54:52Z</time>
      </trkpt>
      <trkpt lat="48.16175" lon="6.44578">
        <ele>374</ele>
        <time>2022-09-26T12:54:53Z</time>
      </trkpt>
      <trkpt lat="48.16171" lon="6.44581">
        <ele>373</ele>
        <time>2022-09-26T12:54:54Z</time>
      </trkpt>
      <trkpt lat="48.16165" lon="6.44584">
        <ele>371</ele>
        <time>2022-09-26T12:54:55Z</time>
      </trkpt>
      <trkpt lat="48.16158" lon="6.44584">
        <ele>372</ele>
        <time>2022-09-26T12:54:56Z</time>
      </trkpt>
      <trkpt lat="48.16152" lon="6.44586">
        <ele>371</ele>
        <time>2022-09-26T12:54:57Z</time>
      </trkpt>
      <trkpt lat="48.16145" lon="6.44585">
        <ele>372</ele>
        <time>2022-09-26T12:54:58Z</time>
      </trkpt>
      <trkpt lat="48.16138" lon="6.44587">
        <ele>371</ele>
        <time>2022-09-26T12:54:59Z</time>
      </trkpt>
      <trkpt lat="48.16132" lon="6.4459">
        <ele>370</ele>
        <time>2022-09-26T12:55:00Z</time>
      </trkpt>
      <trkpt lat="48.16126" lon="6.44593">
        <ele>368</ele>
        <time>2022-09-26T12:55:01Z</time>
      </trkpt>
      <trkpt lat="48.1612" lon="6.44594">
        <ele>367</ele>
        <time>2022-09-26T12:55:02Z</time>
      </trkpt>
      <trkpt lat="48.16113" lon="6.44596">
        <ele>366</ele>
        <time>2022-09-26T12:55:03Z</time>
      </trkpt>
      <trkpt lat="48.16106" lon="6.446">
        <ele>365</ele>
        <time>2022-09-26T12:55:04Z</time>
      </trkpt>
      <trkpt lat="48.16101" lon="6.44599">
        <ele>365</ele>
        <time>2022-09-26T12:55:05Z</time>
      </trkpt>
      <trkpt lat="48.16095" lon="6.446">
        <ele>365</ele>
        <time>2022-09-26T12:55:06Z</time>
      </trkpt>
      <trkpt lat="48.16093" lon="6.446">
        <ele>366</ele>
        <time>2022-09-26T12:55:07Z</time>
      </trkpt>
      <trkpt lat="48.16089" lon="6.44603">
        <ele>365</ele>
        <time>2022-09-26T12:55:08Z</time>
      </trkpt>
      <trkpt lat="48.16087" lon="6.44597">
        <ele>367</ele>
        <time>2022-09-26T12:55:09Z</time>
      </trkpt>
      <trkpt lat="48.16086" lon="6.44594">
        <ele>368</ele>
        <time>2022-09-26T12:55:10Z</time>
      </trkpt>
      <trkpt lat="48.16084" lon="6.44592">
        <ele>369</ele>
        <time>2022-09-26T12:55:11Z</time>
      </trkpt>
      <trkpt lat="48.16082" lon="6.44591">
        <ele>369</ele>
        <time>2022-09-26T12:55:12Z</time>
      </trkpt>
      <trkpt lat="48.16082" lon="6.44589">
        <ele>370</ele>
        <time>2022-09-26T12:55:13Z</time>
      </trkpt>
      <trkpt lat="48.16081" lon="6.44587">
        <ele>371</ele>
        <time>2022-09-26T12:55:14Z</time>
      </trkpt>
      <trkpt lat="48.16081" lon="6.44585">
        <ele>371</ele>
        <time>2022-09-26T12:55:15Z</time>
      </trkpt>
      <trkpt lat="48.1608" lon="6.44583">
        <ele>372</ele>
        <time>2022-09-26T12:55:16Z</time>
      </trkpt>
      <trkpt lat="48.1608" lon="6.44584">
        <ele>371</ele>
        <time>2022-09-26T12:55:17Z</time>
      </trkpt>
      <trkpt lat="48.16079" lon="6.44585">
        <ele>371</ele>
        <time>2022-09-26T12:55:18Z</time>
      </trkpt>
      <trkpt lat="48.16079" lon="6.44584">
        <ele>371</ele>
        <time>2022-09-26T12:55:19Z</time>
      </trkpt>
      <trkpt lat="48.16079" lon="6.44583">
        <ele>371</ele>
        <time>2022-09-26T12:55:20Z</time>
      </trkpt>
      <trkpt lat="48.16078" lon="6.44582">
        <ele>371</ele>
        <time>2022-09-26T12:55:21Z</time>
      </trkpt>
      <trkpt lat="48.16077" lon="6.44582">
        <ele>371</ele>
        <time>2022-09-26T12:55:22Z</time>
      </trkpt>
      <trkpt lat="48.16076" lon="6.44581">
        <ele>371</ele>
        <time>2022-09-26T12:55:23Z</time>
      </trkpt>
      <trkpt lat="48.16076" lon="6.44581">
        <ele>371</ele>
        <time>2022-09-26T12:55:24Z</time>
      </trkpt>
      <trkpt lat="48.16075" lon="6.44579">
        <ele>371</ele>
        <time>2022-09-26T12:55:25Z</time>
      </trkpt>
      <trkpt lat="48.16072" lon="6.44578">
        <ele>371</ele>
        <time>2022-09-26T12:55:26Z</time>
      </trkpt>
      <trkpt lat="48.16069" lon="6.44577">
        <ele>370</ele>
        <time>2022-09-26T12:55:27Z</time>
      </trkpt>
      <trkpt lat="48.16068" lon="6.44576">
        <ele>371</ele>
        <time>2022-09-26T12:55:28Z</time>
      </trkpt>
      <trkpt lat="48.16066" lon="6.44575">
        <ele>370</ele>
        <time>2022-09-26T12:55:29Z</time>
      </trkpt>
      <trkpt lat="48.16065" lon="6.44573">
        <ele>371</ele>
        <time>2022-09-26T12:55:30Z</time>
      </trkpt>
      <trkpt lat="48.16063" lon="6.4457">
        <ele>371</ele>
        <time>2022-09-26T12:55:31Z</time>
      </trkpt>
      <trkpt lat="48.16061" lon="6.44569">
        <ele>371</ele>
        <time>2022-09-26T12:55:32Z</time>
      </trkpt>
      <trkpt lat="48.1606" lon="6.44568">
        <ele>371</ele>
        <time>2022-09-26T12:55:33Z</time>
      </trkpt>
      <trkpt lat="48.16059" lon="6.44567">
        <ele>371</ele>
        <time>2022-09-26T12:55:34Z</time>
      </trkpt>
      <trkpt lat="48.16058" lon="6.44567">
        <ele>371</ele>
        <time>2022-09-26T12:55:35Z</time>
      </trkpt>
      <trkpt lat="48.16057" lon="6.44566">
        <ele>371</ele>
        <time>2022-09-26T12:55:36Z</time>
      </trkpt>
      <trkpt lat="48.16056" lon="6.44566">
        <ele>371</ele>
        <time>2022-09-26T12:55:37Z</time>
      </trkpt>
      <trkpt lat="48.16055" lon="6.44566">
        <ele>371</ele>
        <time>2022-09-26T12:55:38Z</time>
      </trkpt>
      <trkpt lat="48.16054" lon="6.44566">
        <ele>370</ele>
        <time>2022-09-26T12:55:39Z</time>
      </trkpt>
      <trkpt lat="48.16053" lon="6.44565">
        <ele>370</ele>
        <time>2022-09-26T12:55:40Z</time>
      </trkpt>
      <trkpt lat="48.16052" lon="6.44563">
        <ele>370</ele>
        <time>2022-09-26T12:55:41Z</time>
      </trkpt>
      <trkpt lat="48.16051" lon="6.4456">
        <ele>371</ele>
        <time>2022-09-26T12:55:42Z</time>
      </trkpt>
      <trkpt lat="48.1605" lon="6.44557">
        <ele>372</ele>
        <time>2022-09-26T12:55:43Z</time>
      </trkpt>
      <trkpt lat="48.16048" lon="6.44555">
        <ele>372</ele>
        <time>2022-09-26T12:55:44Z</time>
      </trkpt>
      <trkpt lat="48.16047" lon="6.44551">
        <ele>372</ele>
        <time>2022-09-26T12:55:45Z</time>
      </trkpt>
      <trkpt lat="48.16045" lon="6.44549">
        <ele>373</ele>
        <time>2022-09-26T12:55:46Z</time>
      </trkpt>
      <trkpt lat="48.16044" lon="6.44547">
        <ele>373</ele>
        <time>2022-09-26T12:55:47Z</time>
      </trkpt>
      <trkpt lat="48.16043" lon="6.44545">
        <ele>373</ele>
        <time>2022-09-26T12:55:48Z</time>
      </trkpt>
      <trkpt lat="48.16042" lon="6.44542">
        <ele>373</ele>
        <time>2022-09-26T12:55:49Z</time>
      </trkpt>
      <trkpt lat="48.1604" lon="6.4454">
        <ele>373</ele>
        <time>2022-09-26T12:55:50Z</time>
      </trkpt>
      <trkpt lat="48.16038" lon="6.44537">
        <ele>374</ele>
        <time>2022-09-26T12:55:51Z</time>
      </trkpt>
      <trkpt lat="48.16036" lon="6.44535">
        <ele>374</ele>
        <time>2022-09-26T12:55:52Z</time>
      </trkpt>
      <trkpt lat="48.16034" lon="6.44533">
        <ele>374</ele>
        <time>2022-09-26T12:55:53Z</time>
      </trkpt>
      <trkpt lat="48.16032" lon="6.44529">
        <ele>374</ele>
        <time>2022-09-26T12:55:54Z</time>
      </trkpt>
      <trkpt lat="48.1603" lon="6.44527">
        <ele>374</ele>
        <time>2022-09-26T12:55:55Z</time>
      </trkpt>
      <trkpt lat="48.16029" lon="6.44525">
        <ele>374</ele>
        <time>2022-09-26T12:55:56Z</time>
      </trkpt>
      <trkpt lat="48.16028" lon="6.44524">
        <ele>374</ele>
        <time>2022-09-26T12:55:57Z</time>
      </trkpt>
      <trkpt lat="48.16026" lon="6.44522">
        <ele>374</ele>
        <time>2022-09-26T12:55:58Z</time>
      </trkpt>
      <trkpt lat="48.16025" lon="6.4452">
        <ele>374</ele>
        <time>2022-09-26T12:55:59Z</time>
      </trkpt>
      <trkpt lat="48.16023" lon="6.44519">
        <ele>374</ele>
        <time>2022-09-26T12:56:00Z</time>
      </trkpt>
      <trkpt lat="48.16022" lon="6.44517">
        <ele>374</ele>
        <time>2022-09-26T12:56:01Z</time>
      </trkpt>
      <trkpt lat="48.1602" lon="6.44514">
        <ele>374</ele>
        <time>2022-09-26T12:56:02Z</time>
      </trkpt>
      <trkpt lat="48.16019" lon="6.44511">
        <ele>375</ele>
        <time>2022-09-26T12:56:03Z</time>
      </trkpt>
      <trkpt lat="48.16018" lon="6.44508">
        <ele>375</ele>
        <time>2022-09-26T12:56:04Z</time>
      </trkpt>
      <trkpt lat="48.16018" lon="6.44507">
        <ele>375</ele>
        <time>2022-09-26T12:56:05Z</time>
      </trkpt>
      <trkpt lat="48.16018" lon="6.44506">
        <ele>375</ele>
        <time>2022-09-26T12:56:06Z</time>
      </trkpt>
      <trkpt lat="48.16017" lon="6.44504">
        <ele>376</ele>
        <time>2022-09-26T12:56:07Z</time>
      </trkpt>
      <trkpt lat="48.16016" lon="6.44503">
        <ele>375</ele>
        <time>2022-09-26T12:56:08Z</time>
      </trkpt>
      <trkpt lat="48.16015" lon="6.44501">
        <ele>376</ele>
        <time>2022-09-26T12:56:09Z</time>
      </trkpt>
      <trkpt lat="48.16014" lon="6.44499">
        <ele>376</ele>
        <time>2022-09-26T12:56:10Z</time>
      </trkpt>
      <trkpt lat="48.16011" lon="6.44497">
        <ele>375</ele>
        <time>2022-09-26T12:56:11Z</time>
      </trkpt>
      <trkpt lat="48.16008" lon="6.44495">
        <ele>375</ele>
        <time>2022-09-26T12:56:12Z</time>
      </trkpt>
      <trkpt lat="48.16006" lon="6.44492">
        <ele>374</ele>
        <time>2022-09-26T12:56:13Z</time>
      </trkpt>
      <trkpt lat="48.16004" lon="6.4449">
        <ele>374</ele>
        <time>2022-09-26T12:56:14Z</time>
      </trkpt>
      <trkpt lat="48.16002" lon="6.44487">
        <ele>374</ele>
        <time>2022-09-26T12:56:15Z</time>
      </trkpt>
      <trkpt lat="48.16" lon="6.44485">
        <ele>374</ele>
        <time>2022-09-26T12:56:16Z</time>
      </trkpt>
      <trkpt lat="48.15999" lon="6.44483">
        <ele>374</ele>
        <time>2022-09-26T12:56:17Z</time>
      </trkpt>
      <trkpt lat="48.15998" lon="6.44481">
        <ele>374</ele>
        <time>2022-09-26T12:56:18Z</time>
      </trkpt>
      <trkpt lat="48.15997" lon="6.44479">
        <ele>374</ele>
        <time>2022-09-26T12:56:19Z</time>
      </trkpt>
      <trkpt lat="48.15996" lon="6.44477">
        <ele>374</ele>
        <time>2022-09-26T12:56:20Z</time>
      </trkpt>
      <trkpt lat="48.15995" lon="6.44475">
        <ele>374</ele>
        <time>2022-09-26T12:56:21Z</time>
      </trkpt>
      <trkpt lat="48.15994" lon="6.44474">
        <ele>375</ele>
        <time>2022-09-26T12:56:22Z</time>
      </trkpt>
      <trkpt lat="48.15993" lon="6.44471">
        <ele>375</ele>
        <time>2022-09-26T12:56:23Z</time>
      </trkpt>
      <trkpt lat="48.15992" lon="6.44469">
        <ele>375</ele>
        <time>2022-09-26T12:56:24Z</time>
      </trkpt>
      <trkpt lat="48.15992" lon="6.44466">
        <ele>375</ele>
        <time>2022-09-26T12:56:25Z</time>
      </trkpt>
      <trkpt lat="48.15991" lon="6.44464">
        <ele>375</ele>
        <time>2022-09-26T12:56:26Z</time>
      </trkpt>
      <trkpt lat="48.1599" lon="6.44462">
        <ele>375</ele>
        <time>2022-09-26T12:56:27Z</time>
      </trkpt>
      <trkpt lat="48.15989" lon="6.4446">
        <ele>376</ele>
        <time>2022-09-26T12:56:28Z</time>
      </trkpt>
      <trkpt lat="48.15988" lon="6.44459">
        <ele>375</ele>
        <time>2022-09-26T12:56:29Z</time>
      </trkpt>
      <trkpt lat="48.15988" lon="6.44457">
        <ele>376</ele>
        <time>2022-09-26T12:56:30Z</time>
      </trkpt>
      <trkpt lat="48.15988" lon="6.44455">
        <ele>376</ele>
        <time>2022-09-26T12:56:31Z</time>
      </trkpt>
      <trkpt lat="48.15987" lon="6.44453">
        <ele>376</ele>
        <time>2022-09-26T12:56:32Z</time>
      </trkpt>
      <trkpt lat="48.15987" lon="6.44451">
        <ele>376</ele>
        <time>2022-09-26T12:56:33Z</time>
      </trkpt>
      <trkpt lat="48.15987" lon="6.44449">
        <ele>377</ele>
        <time>2022-09-26T12:56:34Z</time>
      </trkpt>
      <trkpt lat="48.15987" lon="6.44446">
        <ele>377</ele>
        <time>2022-09-26T12:56:35Z</time>
      </trkpt>
      <trkpt lat="48.15986" lon="6.44444">
        <ele>377</ele>
        <time>2022-09-26T12:56:36Z</time>
      </trkpt>
      <trkpt lat="48.15986" lon="6.44442">
        <ele>377</ele>
        <time>2022-09-26T12:56:37Z</time>
      </trkpt>
      <trkpt lat="48.15985" lon="6.4444">
        <ele>377</ele>
        <time>2022-09-26T12:56:38Z</time>
      </trkpt>
      <trkpt lat="48.15985" lon="6.44437">
        <ele>378</ele>
        <time>2022-09-26T12:56:39Z</time>
      </trkpt>
      <trkpt lat="48.15984" lon="6.44434">
        <ele>378</ele>
        <time>2022-09-26T12:56:40Z</time>
      </trkpt>
      <trkpt lat="48.15983" lon="6.44431">
        <ele>378</ele>
        <time>2022-09-26T12:56:41Z</time>
      </trkpt>
      <trkpt lat="48.15983" lon="6.44429">
        <ele>378</ele>
        <time>2022-09-26T12:56:42Z</time>
      </trkpt>
      <trkpt lat="48.15983" lon="6.44428">
        <ele>378</ele>
        <time>2022-09-26T12:56:43Z</time>
      </trkpt>
      <trkpt lat="48.15982" lon="6.44426">
        <ele>378</ele>
        <time>2022-09-26T12:56:44Z</time>
      </trkpt>
      <trkpt lat="48.15981" lon="6.44424">
        <ele>378</ele>
        <time>2022-09-26T12:56:45Z</time>
      </trkpt>
      <trkpt lat="48.15981" lon="6.44422">
        <ele>378</ele>
        <time>2022-09-26T12:56:46Z</time>
      </trkpt>
      <trkpt lat="48.1598" lon="6.44419">
        <ele>379</ele>
        <time>2022-09-26T12:56:47Z</time>
      </trkpt>
      <trkpt lat="48.1598" lon="6.44417">
        <ele>379</ele>
        <time>2022-09-26T12:56:48Z</time>
      </trkpt>
      <trkpt lat="48.15979" lon="6.44415">
        <ele>379</ele>
        <time>2022-09-26T12:56:49Z</time>
      </trkpt>
      <trkpt lat="48.15978" lon="6.44413">
        <ele>379</ele>
        <time>2022-09-26T12:56:50Z</time>
      </trkpt>
      <trkpt lat="48.15977" lon="6.4441">
        <ele>379</ele>
        <time>2022-09-26T12:56:51Z</time>
      </trkpt>
      <trkpt lat="48.15976" lon="6.44406">
        <ele>379</ele>
        <time>2022-09-26T12:56:52Z</time>
      </trkpt>
      <trkpt lat="48.15975" lon="6.44402">
        <ele>379</ele>
        <time>2022-09-26T12:56:53Z</time>
      </trkpt>
      <trkpt lat="48.15974" lon="6.44398">
        <ele>379</ele>
        <time>2022-09-26T12:56:54Z</time>
      </trkpt>
      <trkpt lat="48.15973" lon="6.44394">
        <ele>379</ele>
        <time>2022-09-26T12:56:55Z</time>
      </trkpt>
      <trkpt lat="48.15972" lon="6.44389">
        <ele>379</ele>
        <time>2022-09-26T12:56:56Z</time>
      </trkpt>
      <trkpt lat="48.1597" lon="6.44385">
        <ele>379</ele>
        <time>2022-09-26T12:56:57Z</time>
      </trkpt>
      <trkpt lat="48.15969" lon="6.4438">
        <ele>379</ele>
        <time>2022-09-26T12:56:58Z</time>
      </trkpt>
      <trkpt lat="48.15968" lon="6.44376">
        <ele>379</ele>
        <time>2022-09-26T12:56:59Z</time>
      </trkpt>
      <trkpt lat="48.15965" lon="6.44369">
        <ele>378</ele>
        <time>2022-09-26T12:57:00Z</time>
      </trkpt>
      <trkpt lat="48.15963" lon="6.44363">
        <ele>378</ele>
        <time>2022-09-26T12:57:01Z</time>
      </trkpt>
      <trkpt lat="48.15963" lon="6.44359">
        <ele>378</ele>
        <time>2022-09-26T12:57:02Z</time>
      </trkpt>
      <trkpt lat="48.15962" lon="6.44353">
        <ele>379</ele>
        <time>2022-09-26T12:57:03Z</time>
      </trkpt>
      <trkpt lat="48.15961" lon="6.44349">
        <ele>378</ele>
        <time>2022-09-26T12:57:04Z</time>
      </trkpt>
      <trkpt lat="48.15959" lon="6.44344">
        <ele>378</ele>
        <time>2022-09-26T12:57:05Z</time>
      </trkpt>
      <trkpt lat="48.15959" lon="6.4434">
        <ele>378</ele>
        <time>2022-09-26T12:57:06Z</time>
      </trkpt>
      <trkpt lat="48.15958" lon="6.44335">
        <ele>378</ele>
        <time>2022-09-26T12:57:07Z</time>
      </trkpt>
      <trkpt lat="48.15957" lon="6.44331">
        <ele>378</ele>
        <time>2022-09-26T12:57:08Z</time>
      </trkpt>
      <trkpt lat="48.15956" lon="6.44328">
        <ele>378</ele>
        <time>2022-09-26T12:57:09Z</time>
      </trkpt>
      <trkpt lat="48.15956" lon="6.44325">
        <ele>378</ele>
        <time>2022-09-26T12:57:10Z</time>
      </trkpt>
      <trkpt lat="48.15955" lon="6.44322">
        <ele>378</ele>
        <time>2022-09-26T12:57:11Z</time>
      </trkpt>
      <trkpt lat="48.15955" lon="6.44319">
        <ele>378</ele>
        <time>2022-09-26T12:57:12Z</time>
      </trkpt>
      <trkpt lat="48.15954" lon="6.44316">
        <ele>378</ele>
        <time>2022-09-26T12:57:13Z</time>
      </trkpt>
      <trkpt lat="48.15953" lon="6.44313">
        <ele>378</ele>
        <time>2022-09-26T12:57:14Z</time>
      </trkpt>
      <trkpt lat="48.15952" lon="6.44311">
        <ele>378</ele>
        <time>2022-09-26T12:57:15Z</time>
      </trkpt>
      <trkpt lat="48.15951" lon="6.44308">
        <ele>378</ele>
        <time>2022-09-26T12:57:16Z</time>
      </trkpt>
      <trkpt lat="48.1595" lon="6.44304">
        <ele>378</ele>
        <time>2022-09-26T12:57:17Z</time>
      </trkpt>
      <trkpt lat="48.1595" lon="6.44301">
        <ele>378</ele>
        <time>2022-09-26T12:57:18Z</time>
      </trkpt>
      <trkpt lat="48.15949" lon="6.44299">
        <ele>378</ele>
        <time>2022-09-26T12:57:19Z</time>
      </trkpt>
      <trkpt lat="48.15948" lon="6.44297">
        <ele>378</ele>
        <time>2022-09-26T12:57:20Z</time>
      </trkpt>
      <trkpt lat="48.15948" lon="6.44294">
        <ele>378</ele>
        <time>2022-09-26T12:57:21Z</time>
      </trkpt>
      <trkpt lat="48.15947" lon="6.44292">
        <ele>379</ele>
        <time>2022-09-26T12:57:22Z</time>
      </trkpt>
      <trkpt lat="48.15947" lon="6.44289">
        <ele>379</ele>
        <time>2022-09-26T12:57:23Z</time>
      </trkpt>
      <trkpt lat="48.15946" lon="6.44286">
        <ele>379</ele>
        <time>2022-09-26T12:57:24Z</time>
      </trkpt>
      <trkpt lat="48.15946" lon="6.44284">
        <ele>379</ele>
        <time>2022-09-26T12:57:25Z</time>
      </trkpt>
      <trkpt lat="48.15946" lon="6.44281">
        <ele>380</ele>
        <time>2022-09-26T12:57:26Z</time>
      </trkpt>
      <trkpt lat="48.15946" lon="6.44279">
        <ele>380</ele>
        <time>2022-09-26T12:57:27Z</time>
      </trkpt>
      <trkpt lat="48.15945" lon="6.44277">
        <ele>380</ele>
        <time>2022-09-26T12:57:28Z</time>
      </trkpt>
      <trkpt lat="48.15945" lon="6.44274">
        <ele>380</ele>
        <time>2022-09-26T12:57:29Z</time>
      </trkpt>
      <trkpt lat="48.15945" lon="6.44273">
        <ele>381</ele>
        <time>2022-09-26T12:57:30Z</time>
      </trkpt>
      <trkpt lat="48.15946" lon="6.4427">
        <ele>381</ele>
        <time>2022-09-26T12:57:31Z</time>
      </trkpt>
      <trkpt lat="48.15946" lon="6.44269">
        <ele>381</ele>
        <time>2022-09-26T12:57:32Z</time>
      </trkpt>
      <trkpt lat="48.15946" lon="6.44267">
        <ele>382</ele>
        <time>2022-09-26T12:57:33Z</time>
      </trkpt>
      <trkpt lat="48.15946" lon="6.44265">
        <ele>382</ele>
        <time>2022-09-26T12:57:34Z</time>
      </trkpt>
      <trkpt lat="48.15946" lon="6.44262">
        <ele>382</ele>
        <time>2022-09-26T12:57:35Z</time>
      </trkpt>
      <trkpt lat="48.15946" lon="6.44258">
        <ele>383</ele>
        <time>2022-09-26T12:57:36Z</time>
      </trkpt>
      <trkpt lat="48.15946" lon="6.44255">
        <ele>383</ele>
        <time>2022-09-26T12:57:37Z</time>
      </trkpt>
      <trkpt lat="48.15945" lon="6.44253">
        <ele>383</ele>
        <time>2022-09-26T12:57:38Z</time>
      </trkpt>
      <trkpt lat="48.15945" lon="6.44251">
        <ele>384</ele>
        <time>2022-09-26T12:57:39Z</time>
      </trkpt>
      <trkpt lat="48.15945" lon="6.44249">
        <ele>384</ele>
        <time>2022-09-26T12:57:40Z</time>
      </trkpt>
      <trkpt lat="48.15945" lon="6.44247">
        <ele>384</ele>
        <time>2022-09-26T12:57:41Z</time>
      </trkpt>
      <trkpt lat="48.15945" lon="6.44245">
        <ele>384</ele>
        <time>2022-09-26T12:57:42Z</time>
      </trkpt>
      <trkpt lat="48.15945" lon="6.44242">
        <ele>385</ele>
        <time>2022-09-26T12:57:43Z</time>
      </trkpt>
      <trkpt lat="48.15945" lon="6.4424">
        <ele>385</ele>
        <time>2022-09-26T12:57:44Z</time>
      </trkpt>
      <trkpt lat="48.15945" lon="6.44237">
        <ele>385</ele>
        <time>2022-09-26T12:57:45Z</time>
      </trkpt>
      <trkpt lat="48.15944" lon="6.44235">
        <ele>385</ele>
        <time>2022-09-26T12:57:46Z</time>
      </trkpt>
      <trkpt lat="48.15944" lon="6.44233">
        <ele>385</ele>
        <time>2022-09-26T12:57:47Z</time>
      </trkpt>
      <trkpt lat="48.15943" lon="6.44231">
        <ele>385</ele>
        <time>2022-09-26T12:57:48Z</time>
      </trkpt>
      <trkpt lat="48.15943" lon="6.44229">
        <ele>385</ele>
        <time>2022-09-26T12:57:49Z</time>
      </trkpt>
      <trkpt lat="48.15942" lon="6.44227">
        <ele>385</ele>
        <time>2022-09-26T12:57:50Z</time>
      </trkpt>
      <trkpt lat="48.15941" lon="6.44223">
        <ele>385</ele>
        <time>2022-09-26T12:57:51Z</time>
      </trkpt>
      <trkpt lat="48.1594" lon="6.44219">
        <ele>385</ele>
        <time>2022-09-26T12:57:52Z</time>
      </trkpt>
      <trkpt lat="48.15939" lon="6.44214">
        <ele>385</ele>
        <time>2022-09-26T12:57:53Z</time>
      </trkpt>
      <trkpt lat="48.15938" lon="6.44211">
        <ele>385</ele>
        <time>2022-09-26T12:57:54Z</time>
      </trkpt>
      <trkpt lat="48.15937" lon="6.44207">
        <ele>384</ele>
        <time>2022-09-26T12:57:55Z</time>
      </trkpt>
      <trkpt lat="48.15935" lon="6.44204">
        <ele>384</ele>
        <time>2022-09-26T12:57:56Z</time>
      </trkpt>
      <trkpt lat="48.15934" lon="6.44199">
        <ele>384</ele>
        <time>2022-09-26T12:57:57Z</time>
      </trkpt>
      <trkpt lat="48.15934" lon="6.44195">
        <ele>384</ele>
        <time>2022-09-26T12:57:58Z</time>
      </trkpt>
      <trkpt lat="48.15934" lon="6.44192">
        <ele>384</ele>
        <time>2022-09-26T12:57:59Z</time>
      </trkpt>
      <trkpt lat="48.15931" lon="6.44187">
        <ele>384</ele>
        <time>2022-09-26T12:58:00Z</time>
      </trkpt>
      <trkpt lat="48.15931" lon="6.44183">
        <ele>384</ele>
        <time>2022-09-26T12:58:01Z</time>
      </trkpt>
      <trkpt lat="48.15929" lon="6.44178">
        <ele>384</ele>
        <time>2022-09-26T12:58:02Z</time>
      </trkpt>
      <trkpt lat="48.15929" lon="6.44175">
        <ele>384</ele>
        <time>2022-09-26T12:58:03Z</time>
      </trkpt>
      <trkpt lat="48.15928" lon="6.44172">
        <ele>384</ele>
        <time>2022-09-26T12:58:04Z</time>
      </trkpt>
      <trkpt lat="48.15927" lon="6.44169">
        <ele>384</ele>
        <time>2022-09-26T12:58:05Z</time>
      </trkpt>
      <trkpt lat="48.15927" lon="6.44166">
        <ele>384</ele>
        <time>2022-09-26T12:58:06Z</time>
      </trkpt>
      <trkpt lat="48.15926" lon="6.44162">
        <ele>384</ele>
        <time>2022-09-26T12:58:07Z</time>
      </trkpt>
      <trkpt lat="48.15925" lon="6.44159">
        <ele>384</ele>
        <time>2022-09-26T12:58:08Z</time>
      </trkpt>
      <trkpt lat="48.15924" lon="6.44155">
        <ele>384</ele>
        <time>2022-09-26T12:58:09Z</time>
      </trkpt>
      <trkpt lat="48.15923" lon="6.44152">
        <ele>383</ele>
        <time>2022-09-26T12:58:10Z</time>
      </trkpt>
      <trkpt lat="48.15923" lon="6.44149">
        <ele>383</ele>
        <time>2022-09-26T12:58:11Z</time>
      </trkpt>
      <trkpt lat="48.15922" lon="6.44145">
        <ele>383</ele>
        <time>2022-09-26T12:58:12Z</time>
      </trkpt>
      <trkpt lat="48.15922" lon="6.44143">
        <ele>383</ele>
        <time>2022-09-26T12:58:13Z</time>
      </trkpt>
      <trkpt lat="48.15921" lon="6.44139">
        <ele>383</ele>
        <time>2022-09-26T12:58:14Z</time>
      </trkpt>
      <trkpt lat="48.1592" lon="6.44135">
        <ele>383</ele>
        <time>2022-09-26T12:58:15Z</time>
      </trkpt>
      <trkpt lat="48.15918" lon="6.44131">
        <ele>383</ele>
        <time>2022-09-26T12:58:16Z</time>
      </trkpt>
      <trkpt lat="48.15917" lon="6.44126">
        <ele>383</ele>
        <time>2022-09-26T12:58:17Z</time>
      </trkpt>
      <trkpt lat="48.15916" lon="6.44122">
        <ele>383</ele>
        <time>2022-09-26T12:58:18Z</time>
      </trkpt>
      <trkpt lat="48.15914" lon="6.44116">
        <ele>383</ele>
        <time>2022-09-26T12:58:19Z</time>
      </trkpt>
      <trkpt lat="48.15912" lon="6.4411">
        <ele>383</ele>
        <time>2022-09-26T12:58:20Z</time>
      </trkpt>
      <trkpt lat="48.15911" lon="6.44108">
        <ele>383</ele>
        <time>2022-09-26T12:58:21Z</time>
      </trkpt>
      <trkpt lat="48.1591" lon="6.44103">
        <ele>382</ele>
        <time>2022-09-26T12:58:22Z</time>
      </trkpt>
      <trkpt lat="48.15909" lon="6.44098">
        <ele>382</ele>
        <time>2022-09-26T12:58:23Z</time>
      </trkpt>
      <trkpt lat="48.15908" lon="6.44094">
        <ele>382</ele>
        <time>2022-09-26T12:58:24Z</time>
      </trkpt>
      <trkpt lat="48.15906" lon="6.44089">
        <ele>382</ele>
        <time>2022-09-26T12:58:25Z</time>
      </trkpt>
      <trkpt lat="48.15904" lon="6.44083">
        <ele>383</ele>
        <time>2022-09-26T12:58:26Z</time>
      </trkpt>
      <trkpt lat="48.15902" lon="6.44078">
        <ele>383</ele>
        <time>2022-09-26T12:58:27Z</time>
      </trkpt>
      <trkpt lat="48.15901" lon="6.44072">
        <ele>384</ele>
        <time>2022-09-26T12:58:28Z</time>
      </trkpt>
      <trkpt lat="48.159" lon="6.44065">
        <ele>384</ele>
        <time>2022-09-26T12:58:29Z</time>
      </trkpt>
      <trkpt lat="48.15899" lon="6.44059">
        <ele>385</ele>
        <time>2022-09-26T12:58:30Z</time>
      </trkpt>
      <trkpt lat="48.15899" lon="6.44054">
        <ele>385</ele>
        <time>2022-09-26T12:58:31Z</time>
      </trkpt>
      <trkpt lat="48.15899" lon="6.44049">
        <ele>386</ele>
        <time>2022-09-26T12:58:32Z</time>
      </trkpt>
      <trkpt lat="48.15898" lon="6.44044">
        <ele>386</ele>
        <time>2022-09-26T12:58:33Z</time>
      </trkpt>
      <trkpt lat="48.15896" lon="6.44038">
        <ele>386</ele>
        <time>2022-09-26T12:58:34Z</time>
      </trkpt>
      <trkpt lat="48.15896" lon="6.44032">
        <ele>387</ele>
        <time>2022-09-26T12:58:35Z</time>
      </trkpt>
      <trkpt lat="48.15895" lon="6.44027">
        <ele>387</ele>
        <time>2022-09-26T12:58:36Z</time>
      </trkpt>
      <trkpt lat="48.15895" lon="6.44023">
        <ele>387</ele>
        <time>2022-09-26T12:58:37Z</time>
      </trkpt>
      <trkpt lat="48.15895" lon="6.44018">
        <ele>387</ele>
        <time>2022-09-26T12:58:38Z</time>
      </trkpt>
      <trkpt lat="48.15894" lon="6.44014">
        <ele>387</ele>
        <time>2022-09-26T12:58:39Z</time>
      </trkpt>
      <trkpt lat="48.15894" lon="6.44011">
        <ele>388</ele>
        <time>2022-09-26T12:58:40Z</time>
      </trkpt>
      <trkpt lat="48.15894" lon="6.44008">
        <ele>388</ele>
        <time>2022-09-26T12:58:41Z</time>
      </trkpt>
      <trkpt lat="48.15893" lon="6.44003">
        <ele>388</ele>
        <time>2022-09-26T12:58:42Z</time>
      </trkpt>
      <trkpt lat="48.15891" lon="6.43997">
        <ele>388</ele>
        <time>2022-09-26T12:58:43Z</time>
      </trkpt>
      <trkpt lat="48.1589" lon="6.43991">
        <ele>388</ele>
        <time>2022-09-26T12:58:44Z</time>
      </trkpt>
      <trkpt lat="48.1589" lon="6.43986">
        <ele>388</ele>
        <time>2022-09-26T12:58:45Z</time>
      </trkpt>
      <trkpt lat="48.1589" lon="6.4398">
        <ele>388</ele>
        <time>2022-09-26T12:58:46Z</time>
      </trkpt>
      <trkpt lat="48.15889" lon="6.43977">
        <ele>388</ele>
        <time>2022-09-26T12:58:47Z</time>
      </trkpt>
      <trkpt lat="48.15888" lon="6.43972">
        <ele>388</ele>
        <time>2022-09-26T12:58:48Z</time>
      </trkpt>
      <trkpt lat="48.15887" lon="6.43966">
        <ele>388</ele>
        <time>2022-09-26T12:58:49Z</time>
      </trkpt>
      <trkpt lat="48.15885" lon="6.43959">
        <ele>388</ele>
        <time>2022-09-26T12:58:50Z</time>
      </trkpt>
      <trkpt lat="48.15884" lon="6.43955">
        <ele>388</ele>
        <time>2022-09-26T12:58:51Z</time>
      </trkpt>
      <trkpt lat="48.15883" lon="6.4395">
        <ele>388</ele>
        <time>2022-09-26T12:58:52Z</time>
      </trkpt>
      <trkpt lat="48.15883" lon="6.43946">
        <ele>388</ele>
        <time>2022-09-26T12:58:53Z</time>
      </trkpt>
      <trkpt lat="48.15881" lon="6.43943">
        <ele>388</ele>
        <time>2022-09-26T12:58:54Z</time>
      </trkpt>
      <trkpt lat="48.1588" lon="6.4394">
        <ele>388</ele>
        <time>2022-09-26T12:58:55Z</time>
      </trkpt>
      <trkpt lat="48.15879" lon="6.43936">
        <ele>388</ele>
        <time>2022-09-26T12:58:56Z</time>
      </trkpt>
      <trkpt lat="48.15877" lon="6.43933">
        <ele>388</ele>
        <time>2022-09-26T12:58:57Z</time>
      </trkpt>
      <trkpt lat="48.15875" lon="6.4393">
        <ele>388</ele>
        <time>2022-09-26T12:58:58Z</time>
      </trkpt>
      <trkpt lat="48.15874" lon="6.43927">
        <ele>388</ele>
        <time>2022-09-26T12:58:59Z</time>
      </trkpt>
      <trkpt lat="48.15872" lon="6.43924">
        <ele>388</ele>
        <time>2022-09-26T12:59:00Z</time>
      </trkpt>
      <trkpt lat="48.1587" lon="6.43921">
        <ele>388</ele>
        <time>2022-09-26T12:59:01Z</time>
      </trkpt>
      <trkpt lat="48.15868" lon="6.4392">
        <ele>388</ele>
        <time>2022-09-26T12:59:02Z</time>
      </trkpt>
      <trkpt lat="48.15867" lon="6.43919">
        <ele>388</ele>
        <time>2022-09-26T12:59:03Z</time>
      </trkpt>
      <trkpt lat="48.15865" lon="6.43918">
        <ele>388</ele>
        <time>2022-09-26T12:59:04Z</time>
      </trkpt>
      <trkpt lat="48.15862" lon="6.43915">
        <ele>388</ele>
        <time>2022-09-26T12:59:05Z</time>
      </trkpt>
      <trkpt lat="48.15859" lon="6.43913">
        <ele>388</ele>
        <time>2022-09-26T12:59:06Z</time>
      </trkpt>
      <trkpt lat="48.15856" lon="6.43912">
        <ele>388</ele>
        <time>2022-09-26T12:59:07Z</time>
      </trkpt>
      <trkpt lat="48.15854" lon="6.43913">
        <ele>387</ele>
        <time>2022-09-26T12:59:08Z</time>
      </trkpt>
      <trkpt lat="48.15853" lon="6.43915">
        <ele>387</ele>
        <time>2022-09-26T12:59:09Z</time>
      </trkpt>
      <trkpt lat="48.15851" lon="6.43916">
        <ele>387</ele>
        <time>2022-09-26T12:59:10Z</time>
      </trkpt>
      <trkpt lat="48.1585" lon="6.43916">
        <ele>387</ele>
        <time>2022-09-26T12:59:11Z</time>
      </trkpt>
      <trkpt lat="48.1585" lon="6.43917">
        <ele>387</ele>
        <time>2022-09-26T12:59:12Z</time>
      </trkpt>
      <trkpt lat="48.15851" lon="6.43918">
        <ele>387</ele>
        <time>2022-09-26T12:59:13Z</time>
      </trkpt>
      <trkpt lat="48.15851" lon="6.43919">
        <ele>387</ele>
        <time>2022-09-26T12:59:14Z</time>
      </trkpt>
      <trkpt lat="48.15851" lon="6.43919">
        <ele>387</ele>
        <time>2022-09-26T12:59:15Z</time>
      </trkpt>
      <trkpt lat="48.15851" lon="6.43919">
        <ele>387</ele>
        <time>2022-09-26T12:59:16Z</time>
      </trkpt>
      <trkpt lat="48.15851" lon="6.4392">
        <ele>387</ele>
        <time>2022-09-26T12:59:17Z</time>
      </trkpt>
      <trkpt lat="48.15852" lon="6.43921">
        <ele>387</ele>
        <time>2022-09-26T12:59:18Z</time>
      </trkpt>
      <trkpt lat="48.15852" lon="6.43921">
        <ele>387</ele>
        <time>2022-09-26T12:59:19Z</time>
      </trkpt>
      <trkpt lat="48.15854" lon="6.43921">
        <ele>387</ele>
        <time>2022-09-26T12:59:20Z</time>
      </trkpt>
      <trkpt lat="48.15854" lon="6.43923">
        <ele>387</ele>
        <time>2022-09-26T12:59:21Z</time>
      </trkpt>
      <trkpt lat="48.15853" lon="6.43924">
        <ele>387</ele>
        <time>2022-09-26T12:59:22Z</time>
      </trkpt>
      <trkpt lat="48.15853" lon="6.43926">
        <ele>387</ele>
        <time>2022-09-26T12:59:23Z</time>
      </trkpt>
      <trkpt lat="48.15853" lon="6.43928">
        <ele>387</ele>
        <time>2022-09-26T12:59:24Z</time>
      </trkpt>
      <trkpt lat="48.15853" lon="6.4393">
        <ele>387</ele>
        <time>2022-09-26T12:59:25Z</time>
      </trkpt>
      <trkpt lat="48.15853" lon="6.43933">
        <ele>387</ele>
        <time>2022-09-26T12:59:26Z</time>
      </trkpt>
      <trkpt lat="48.15852" lon="6.43936">
        <ele>387</ele>
        <time>2022-09-26T12:59:27Z</time>
      </trkpt>
      <trkpt lat="48.15852" lon="6.43939">
        <ele>387</ele>
        <time>2022-09-26T12:59:28Z</time>
      </trkpt>
      <trkpt lat="48.15851" lon="6.43942">
        <ele>387</ele>
        <time>2022-09-26T12:59:29Z</time>
      </trkpt>
      <trkpt lat="48.15851" lon="6.43945">
        <ele>387</ele>
        <time>2022-09-26T12:59:30Z</time>
      </trkpt>
      <trkpt lat="48.15851" lon="6.43948">
        <ele>387</ele>
        <time>2022-09-26T12:59:31Z</time>
      </trkpt>
      <trkpt lat="48.15849" lon="6.43952">
        <ele>387</ele>
        <time>2022-09-26T12:59:32Z</time>
      </trkpt>
      <trkpt lat="48.15848" lon="6.43956">
        <ele>387</ele>
        <time>2022-09-26T12:59:33Z</time>
      </trkpt>
      <trkpt lat="48.15846" lon="6.43961">
        <ele>388</ele>
        <time>2022-09-26T12:59:34Z</time>
      </trkpt>
      <trkpt lat="48.15845" lon="6.43966">
        <ele>388</ele>
        <time>2022-09-26T12:59:35Z</time>
      </trkpt>
      <trkpt lat="48.15844" lon="6.4397">
        <ele>388</ele>
        <time>2022-09-26T12:59:36Z</time>
      </trkpt>
      <trkpt lat="48.15844" lon="6.43973">
        <ele>388</ele>
        <time>2022-09-26T12:59:37Z</time>
      </trkpt>
      <trkpt lat="48.15843" lon="6.43977">
        <ele>388</ele>
        <time>2022-09-26T12:59:38Z</time>
      </trkpt>
      <trkpt lat="48.15843" lon="6.4398">
        <ele>389</ele>
        <time>2022-09-26T12:59:39Z</time>
      </trkpt>
      <trkpt lat="48.15842" lon="6.43984">
        <ele>389</ele>
        <time>2022-09-26T12:59:40Z</time>
      </trkpt>
      <trkpt lat="48.15841" lon="6.43988">
        <ele>390</ele>
        <time>2022-09-26T12:59:41Z</time>
      </trkpt>
      <trkpt lat="48.1584" lon="6.43991">
        <ele>390</ele>
        <time>2022-09-26T12:59:42Z</time>
      </trkpt>
      <trkpt lat="48.1584" lon="6.43994">
        <ele>390</ele>
        <time>2022-09-26T12:59:43Z</time>
      </trkpt>
      <trkpt lat="48.15839" lon="6.43997">
        <ele>391</ele>
        <time>2022-09-26T12:59:44Z</time>
      </trkpt>
      <trkpt lat="48.15839" lon="6.44001">
        <ele>391</ele>
        <time>2022-09-26T12:59:45Z</time>
      </trkpt>
      <trkpt lat="48.15838" lon="6.44005">
        <ele>391</ele>
        <time>2022-09-26T12:59:46Z</time>
      </trkpt>
      <trkpt lat="48.15837" lon="6.4401">
        <ele>391</ele>
        <time>2022-09-26T12:59:47Z</time>
      </trkpt>
      <trkpt lat="48.15837" lon="6.44015">
        <ele>392</ele>
        <time>2022-09-26T12:59:48Z</time>
      </trkpt>
      <trkpt lat="48.15837" lon="6.44019">
        <ele>392</ele>
        <time>2022-09-26T12:59:49Z</time>
      </trkpt>
      <trkpt lat="48.15836" lon="6.44024">
        <ele>392</ele>
        <time>2022-09-26T12:59:50Z</time>
      </trkpt>
      <trkpt lat="48.15836" lon="6.44028">
        <ele>392</ele>
        <time>2022-09-26T12:59:51Z</time>
      </trkpt>
      <trkpt lat="48.15835" lon="6.44033">
        <ele>393</ele>
        <time>2022-09-26T12:59:52Z</time>
      </trkpt>
      <trkpt lat="48.15834" lon="6.44036">
        <ele>393</ele>
        <time>2022-09-26T12:59:53Z</time>
      </trkpt>
      <trkpt lat="48.15833" lon="6.44041">
        <ele>394</ele>
        <time>2022-09-26T12:59:54Z</time>
      </trkpt>
      <trkpt lat="48.15832" lon="6.44044">
        <ele>394</ele>
        <time>2022-09-26T12:59:55Z</time>
      </trkpt>
      <trkpt lat="48.15832" lon="6.44047">
        <ele>394</ele>
        <time>2022-09-26T12:59:56Z</time>
      </trkpt>
      <trkpt lat="48.1583" lon="6.44051">
        <ele>395</ele>
        <time>2022-09-26T12:59:57Z</time>
      </trkpt>
      <trkpt lat="48.15829" lon="6.44054">
        <ele>395</ele>
        <time>2022-09-26T12:59:58Z</time>
      </trkpt>
      <trkpt lat="48.15829" lon="6.44058">
        <ele>395</ele>
        <time>2022-09-26T12:59:59Z</time>
      </trkpt>
      <trkpt lat="48.15829" lon="6.44062">
        <ele>395</ele>
        <time>2022-09-26T13:00:00Z</time>
      </trkpt>
      <trkpt lat="48.15828" lon="6.44067">
        <ele>395</ele>
        <time>2022-09-26T13:00:01Z</time>
      </trkpt>
      <trkpt lat="48.15827" lon="6.44071">
        <ele>395</ele>
        <time>2022-09-26T13:00:02Z</time>
      </trkpt>
      <trkpt lat="48.15827" lon="6.44075">
        <ele>395</ele>
        <time>2022-09-26T13:00:03Z</time>
      </trkpt>
      <trkpt lat="48.15826" lon="6.44079">
        <ele>395</ele>
        <time>2022-09-26T13:00:04Z</time>
      </trkpt>
      <trkpt lat="48.15826" lon="6.44084">
        <ele>395</ele>
        <time>2022-09-26T13:00:05Z</time>
      </trkpt>
      <trkpt lat="48.15826" lon="6.44089">
        <ele>394</ele>
        <time>2022-09-26T13:00:06Z</time>
      </trkpt>
      <trkpt lat="48.15825" lon="6.44094">
        <ele>394</ele>
        <time>2022-09-26T13:00:07Z</time>
      </trkpt>
      <trkpt lat="48.15824" lon="6.441">
        <ele>394</ele>
        <time>2022-09-26T13:00:08Z</time>
      </trkpt>
      <trkpt lat="48.15823" lon="6.44105">
        <ele>394</ele>
        <time>2022-09-26T13:00:09Z</time>
      </trkpt>
      <trkpt lat="48.15813" lon="6.44152">
        <ele>389</ele>
        <time>2022-09-26T13:00:10Z</time>
      </trkpt>
      <trkpt lat="48.15812" lon="6.44159">
        <ele>388</ele>
        <time>2022-09-26T13:00:11Z</time>
      </trkpt>
      <trkpt lat="48.15812" lon="6.44164">
        <ele>387</ele>
        <time>2022-09-26T13:00:12Z</time>
      </trkpt>
      <trkpt lat="48.1581" lon="6.4417">
        <ele>387</ele>
        <time>2022-09-26T13:00:13Z</time>
      </trkpt>
      <trkpt lat="48.15806" lon="6.44177">
        <ele>387</ele>
        <time>2022-09-26T13:00:14Z</time>
      </trkpt>
      <trkpt lat="48.15805" lon="6.4418">
        <ele>387</ele>
        <time>2022-09-26T13:00:15Z</time>
      </trkpt>
      <trkpt lat="48.15805" lon="6.44185">
        <ele>386</ele>
        <time>2022-09-26T13:00:16Z</time>
      </trkpt>
      <trkpt lat="48.15805" lon="6.44189">
        <ele>386</ele>
        <time>2022-09-26T13:00:17Z</time>
      </trkpt>
      <trkpt lat="48.15804" lon="6.44194">
        <ele>385</ele>
        <time>2022-09-26T13:00:18Z</time>
      </trkpt>
      <trkpt lat="48.15801" lon="6.44201">
        <ele>385</ele>
        <time>2022-09-26T13:00:19Z</time>
      </trkpt>
      <trkpt lat="48.15799" lon="6.44206">
        <ele>385</ele>
        <time>2022-09-26T13:00:20Z</time>
      </trkpt>
      <trkpt lat="48.15797" lon="6.44215">
        <ele>384</ele>
        <time>2022-09-26T13:00:21Z</time>
      </trkpt>
      <trkpt lat="48.15794" lon="6.44225">
        <ele>382</ele>
        <time>2022-09-26T13:00:22Z</time>
      </trkpt>
      <trkpt lat="48.15793" lon="6.44232">
        <ele>382</ele>
        <time>2022-09-26T13:00:23Z</time>
      </trkpt>
      <trkpt lat="48.15792" lon="6.44237">
        <ele>381</ele>
        <time>2022-09-26T13:00:24Z</time>
      </trkpt>
      <trkpt lat="48.15791" lon="6.44241">
        <ele>380</ele>
        <time>2022-09-26T13:00:25Z</time>
      </trkpt>
      <trkpt lat="48.1579" lon="6.44247">
        <ele>380</ele>
        <time>2022-09-26T13:00:26Z</time>
      </trkpt>
      <trkpt lat="48.1579" lon="6.44251">
        <ele>379</ele>
        <time>2022-09-26T13:00:27Z</time>
      </trkpt>
      <trkpt lat="48.15789" lon="6.44257">
        <ele>378</ele>
        <time>2022-09-26T13:00:28Z</time>
      </trkpt>
      <trkpt lat="48.15788" lon="6.44262">
        <ele>377</ele>
        <time>2022-09-26T13:00:29Z</time>
      </trkpt>
      <trkpt lat="48.15786" lon="6.44268">
        <ele>376</ele>
        <time>2022-09-26T13:00:30Z</time>
      </trkpt>
      <trkpt lat="48.15785" lon="6.44273">
        <ele>376</ele>
        <time>2022-09-26T13:00:31Z</time>
      </trkpt>
      <trkpt lat="48.15785" lon="6.44277">
        <ele>375</ele>
        <time>2022-09-26T13:00:32Z</time>
      </trkpt>
      <trkpt lat="48.15784" lon="6.44281">
        <ele>375</ele>
        <time>2022-09-26T13:00:33Z</time>
      </trkpt>
      <trkpt lat="48.15783" lon="6.44285">
        <ele>375</ele>
        <time>2022-09-26T13:00:34Z</time>
      </trkpt>
      <trkpt lat="48.15784" lon="6.44287">
        <ele>375</ele>
        <time>2022-09-26T13:00:35Z</time>
      </trkpt>
      <trkpt lat="48.15782" lon="6.44293">
        <ele>375</ele>
        <time>2022-09-26T13:00:36Z</time>
      </trkpt>
      <trkpt lat="48.15779" lon="6.443">
        <ele>375</ele>
        <time>2022-09-26T13:00:37Z</time>
      </trkpt>
      <trkpt lat="48.15777" lon="6.44308">
        <ele>376</ele>
        <time>2022-09-26T13:00:38Z</time>
      </trkpt>
      <trkpt lat="48.15775" lon="6.44313">
        <ele>377</ele>
        <time>2022-09-26T13:00:39Z</time>
      </trkpt>
      <trkpt lat="48.15774" lon="6.44317">
        <ele>378</ele>
        <time>2022-09-26T13:00:40Z</time>
      </trkpt>
      <trkpt lat="48.15773" lon="6.44319">
        <ele>379</ele>
        <time>2022-09-26T13:00:41Z</time>
      </trkpt>
      <trkpt lat="48.15773" lon="6.44323">
        <ele>379</ele>
        <time>2022-09-26T13:00:42Z</time>
      </trkpt>
      <trkpt lat="48.15773" lon="6.44327">
        <ele>380</ele>
        <time>2022-09-26T13:00:43Z</time>
      </trkpt>
      <trkpt lat="48.15772" lon="6.44332">
        <ele>381</ele>
        <time>2022-09-26T13:00:44Z</time>
      </trkpt>
      <trkpt lat="48.15773" lon="6.44338">
        <ele>381</ele>
        <time>2022-09-26T13:00:45Z</time>
      </trkpt>
      <trkpt lat="48.15774" lon="6.44342">
        <ele>382</ele>
        <time>2022-09-26T13:00:46Z</time>
      </trkpt>
      <trkpt lat="48.15776" lon="6.44346">
        <ele>382</ele>
        <time>2022-09-26T13:00:47Z</time>
      </trkpt>
      <trkpt lat="48.15778" lon="6.4435">
        <ele>382</ele>
        <time>2022-09-26T13:00:48Z</time>
      </trkpt>
      <trkpt lat="48.1578" lon="6.44353">
        <ele>382</ele>
        <time>2022-09-26T13:00:49Z</time>
      </trkpt>
      <trkpt lat="48.15782" lon="6.44358">
        <ele>381</ele>
        <time>2022-09-26T13:00:50Z</time>
      </trkpt>
      <trkpt lat="48.15785" lon="6.44363">
        <ele>381</ele>
        <time>2022-09-26T13:00:51Z</time>
      </trkpt>
      <trkpt lat="48.15787" lon="6.44367">
        <ele>380</ele>
        <time>2022-09-26T13:00:52Z</time>
      </trkpt>
      <trkpt lat="48.1579" lon="6.4437">
        <ele>379</ele>
        <time>2022-09-26T13:00:53Z</time>
      </trkpt>
      <trkpt lat="48.15792" lon="6.44372">
        <ele>378</ele>
        <time>2022-09-26T13:00:54Z</time>
      </trkpt>
      <trkpt lat="48.15794" lon="6.44374">
        <ele>377</ele>
        <time>2022-09-26T13:00:55Z</time>
      </trkpt>
      <trkpt lat="48.15796" lon="6.44376">
        <ele>376</ele>
        <time>2022-09-26T13:00:56Z</time>
      </trkpt>
      <trkpt lat="48.15798" lon="6.44379">
        <ele>376</ele>
        <time>2022-09-26T13:00:57Z</time>
      </trkpt>
      <trkpt lat="48.15799" lon="6.44381">
        <ele>375</ele>
        <time>2022-09-26T13:00:58Z</time>
      </trkpt>
      <trkpt lat="48.15801" lon="6.44384">
        <ele>375</ele>
        <time>2022-09-26T13:00:59Z</time>
      </trkpt>
      <trkpt lat="48.15802" lon="6.44385">
        <ele>374</ele>
        <time>2022-09-26T13:01:00Z</time>
      </trkpt>
      <trkpt lat="48.15805" lon="6.44387">
        <ele>373</ele>
        <time>2022-09-26T13:01:01Z</time>
      </trkpt>
      <trkpt lat="48.15808" lon="6.44389">
        <ele>372</ele>
        <time>2022-09-26T13:01:02Z</time>
      </trkpt>
      <trkpt lat="48.1581" lon="6.44391">
        <ele>371</ele>
        <time>2022-09-26T13:01:03Z</time>
      </trkpt>
      <trkpt lat="48.15812" lon="6.44394">
        <ele>371</ele>
        <time>2022-09-26T13:01:04Z</time>
      </trkpt>
      <trkpt lat="48.15813" lon="6.44397">
        <ele>370</ele>
        <time>2022-09-26T13:01:05Z</time>
      </trkpt>
      <trkpt lat="48.15815" lon="6.444">
        <ele>369</ele>
        <time>2022-09-26T13:01:06Z</time>
      </trkpt>
      <trkpt lat="48.15818" lon="6.44402">
        <ele>369</ele>
        <time>2022-09-26T13:01:07Z</time>
      </trkpt>
      <trkpt lat="48.1582" lon="6.44407">
        <ele>368</ele>
        <time>2022-09-26T13:01:08Z</time>
      </trkpt>
      <trkpt lat="48.15823" lon="6.44412">
        <ele>367</ele>
        <time>2022-09-26T13:01:09Z</time>
      </trkpt>
      <trkpt lat="48.15826" lon="6.44423">
        <ele>367</ele>
        <time>2022-09-26T13:01:10Z</time>
      </trkpt>
      <trkpt lat="48.1583" lon="6.44426">
        <ele>366</ele>
        <time>2022-09-26T13:01:11Z</time>
      </trkpt>
      <trkpt lat="48.15833" lon="6.44434">
        <ele>365</ele>
        <time>2022-09-26T13:01:12Z</time>
      </trkpt>
      <trkpt lat="48.15837" lon="6.44437">
        <ele>365</ele>
        <time>2022-09-26T13:01:13Z</time>
      </trkpt>
      <trkpt lat="48.15843" lon="6.44443">
        <ele>364</ele>
        <time>2022-09-26T13:01:14Z</time>
      </trkpt>
      <trkpt lat="48.15847" lon="6.44451">
        <ele>364</ele>
        <time>2022-09-26T13:01:15Z</time>
      </trkpt>
      <trkpt lat="48.15845" lon="6.44457">
        <ele>365</ele>
        <time>2022-09-26T13:01:16Z</time>
      </trkpt>
      <trkpt lat="48.15846" lon="6.44462">
        <ele>365</ele>
        <time>2022-09-26T13:01:17Z</time>
      </trkpt>
      <trkpt lat="48.15848" lon="6.44465">
        <ele>365</ele>
        <time>2022-09-26T13:01:18Z</time>
      </trkpt>
      <trkpt lat="48.15851" lon="6.44474">
        <ele>365</ele>
        <time>2022-09-26T13:01:19Z</time>
      </trkpt>
      <trkpt lat="48.15849" lon="6.44484">
        <ele>366</ele>
        <time>2022-09-26T13:01:20Z</time>
      </trkpt>
      <trkpt lat="48.15849" lon="6.44494">
        <ele>366</ele>
        <time>2022-09-26T13:01:21Z</time>
      </trkpt>
      <trkpt lat="48.15849" lon="6.44501">
        <ele>367</ele>
        <time>2022-09-26T13:01:22Z</time>
      </trkpt>
      <trkpt lat="48.15848" lon="6.4451">
        <ele>367</ele>
        <time>2022-09-26T13:01:23Z</time>
      </trkpt>
      <trkpt lat="48.1585" lon="6.44514">
        <ele>366</ele>
        <time>2022-09-26T13:01:24Z</time>
      </trkpt>
      <trkpt lat="48.1585" lon="6.44522">
        <ele>366</ele>
        <time>2022-09-26T13:01:25Z</time>
      </trkpt>
      <trkpt lat="48.1585" lon="6.44528">
        <ele>366</ele>
        <time>2022-09-26T13:01:26Z</time>
      </trkpt>
      <trkpt lat="48.15848" lon="6.44536">
        <ele>366</ele>
        <time>2022-09-26T13:01:27Z</time>
      </trkpt>
      <trkpt lat="48.15848" lon="6.44539">
        <ele>366</ele>
        <time>2022-09-26T13:01:28Z</time>
      </trkpt>
      <trkpt lat="48.15847" lon="6.44542">
        <ele>366</ele>
        <time>2022-09-26T13:01:29Z</time>
      </trkpt>
      <trkpt lat="48.15846" lon="6.44545">
        <ele>366</ele>
        <time>2022-09-26T13:01:30Z</time>
      </trkpt>
      <trkpt lat="48.15847" lon="6.44548">
        <ele>366</ele>
        <time>2022-09-26T13:01:31Z</time>
      </trkpt>
      <trkpt lat="48.15846" lon="6.44553">
        <ele>366</ele>
        <time>2022-09-26T13:01:32Z</time>
      </trkpt>
      <trkpt lat="48.15846" lon="6.44559">
        <ele>366</ele>
        <time>2022-09-26T13:01:33Z</time>
      </trkpt>
      <trkpt lat="48.15846" lon="6.44564">
        <ele>365</ele>
        <time>2022-09-26T13:01:34Z</time>
      </trkpt>
      <trkpt lat="48.15846" lon="6.4457">
        <ele>364</ele>
        <time>2022-09-26T13:01:35Z</time>
      </trkpt>
      <trkpt lat="48.15847" lon="6.44576">
        <ele>363</ele>
        <time>2022-09-26T13:01:36Z</time>
      </trkpt>
      <trkpt lat="48.15847" lon="6.44583">
        <ele>363</ele>
        <time>2022-09-26T13:01:37Z</time>
      </trkpt>
      <trkpt lat="48.15844" lon="6.44596">
        <ele>362</ele>
        <time>2022-09-26T13:01:38Z</time>
      </trkpt>
      <trkpt lat="48.15845" lon="6.44602">
        <ele>361</ele>
        <time>2022-09-26T13:01:39Z</time>
      </trkpt>
      <trkpt lat="48.15843" lon="6.44611">
        <ele>361</ele>
        <time>2022-09-26T13:01:40Z</time>
      </trkpt>
      <trkpt lat="48.15838" lon="6.44621">
        <ele>361</ele>
        <time>2022-09-26T13:01:41Z</time>
      </trkpt>
      <trkpt lat="48.15834" lon="6.44628">
        <ele>361</ele>
        <time>2022-09-26T13:01:42Z</time>
      </trkpt>
      <trkpt lat="48.15831" lon="6.44632">
        <ele>362</ele>
        <time>2022-09-26T13:01:43Z</time>
      </trkpt>
      <trkpt lat="48.15827" lon="6.44638">
        <ele>362</ele>
        <time>2022-09-26T13:01:44Z</time>
      </trkpt>
      <trkpt lat="48.15824" lon="6.44642">
        <ele>363</ele>
        <time>2022-09-26T13:01:45Z</time>
      </trkpt>
      <trkpt lat="48.1582" lon="6.44645">
        <ele>363</ele>
        <time>2022-09-26T13:01:46Z</time>
      </trkpt>
      <trkpt lat="48.15819" lon="6.44649">
        <ele>363</ele>
        <time>2022-09-26T13:01:47Z</time>
      </trkpt>
      <trkpt lat="48.15817" lon="6.44655">
        <ele>362</ele>
        <time>2022-09-26T13:01:48Z</time>
      </trkpt>
      <trkpt lat="48.15808" lon="6.44664">
        <ele>362</ele>
        <time>2022-09-26T13:01:49Z</time>
      </trkpt>
      <trkpt lat="48.15804" lon="6.44669">
        <ele>362</ele>
        <time>2022-09-26T13:01:50Z</time>
      </trkpt>
      <trkpt lat="48.158" lon="6.44674">
        <ele>362</ele>
        <time>2022-09-26T13:01:51Z</time>
      </trkpt>
      <trkpt lat="48.15797" lon="6.44678">
        <ele>361</ele>
        <time>2022-09-26T13:01:52Z</time>
      </trkpt>
      <trkpt lat="48.15793" lon="6.44683">
        <ele>361</ele>
        <time>2022-09-26T13:01:53Z</time>
      </trkpt>
      <trkpt lat="48.1579" lon="6.44684">
        <ele>361</ele>
        <time>2022-09-26T13:01:54Z</time>
      </trkpt>
      <trkpt lat="48.15785" lon="6.44691">
        <ele>360</ele>
        <time>2022-09-26T13:01:55Z</time>
      </trkpt>
      <trkpt lat="48.15781" lon="6.44696">
        <ele>360</ele>
        <time>2022-09-26T13:01:56Z</time>
      </trkpt>
      <trkpt lat="48.15776" lon="6.44699">
        <ele>360</ele>
        <time>2022-09-26T13:01:57Z</time>
      </trkpt>
      <trkpt lat="48.15772" lon="6.44699">
        <ele>361</ele>
        <time>2022-09-26T13:01:58Z</time>
      </trkpt>
      <trkpt lat="48.15768" lon="6.44702">
        <ele>361</ele>
        <time>2022-09-26T13:01:59Z</time>
      </trkpt>
      <trkpt lat="48.15764" lon="6.44703">
        <ele>362</ele>
        <time>2022-09-26T13:02:00Z</time>
      </trkpt>
      <trkpt lat="48.1576" lon="6.44705">
        <ele>362</ele>
        <time>2022-09-26T13:02:01Z</time>
      </trkpt>
      <trkpt lat="48.15757" lon="6.44707">
        <ele>363</ele>
        <time>2022-09-26T13:02:02Z</time>
      </trkpt>
      <trkpt lat="48.15753" lon="6.44709">
        <ele>363</ele>
        <time>2022-09-26T13:02:03Z</time>
      </trkpt>
      <trkpt lat="48.15749" lon="6.44711">
        <ele>363</ele>
        <time>2022-09-26T13:02:04Z</time>
      </trkpt>
      <trkpt lat="48.15746" lon="6.44713">
        <ele>364</ele>
        <time>2022-09-26T13:02:05Z</time>
      </trkpt>
      <trkpt lat="48.15743" lon="6.44715">
        <ele>364</ele>
        <time>2022-09-26T13:02:06Z</time>
      </trkpt>
      <trkpt lat="48.15739" lon="6.44716">
        <ele>365</ele>
        <time>2022-09-26T13:02:07Z</time>
      </trkpt>
      <trkpt lat="48.15737" lon="6.44716">
        <ele>366</ele>
        <time>2022-09-26T13:02:08Z</time>
      </trkpt>
      <trkpt lat="48.15735" lon="6.44717">
        <ele>367</ele>
        <time>2022-09-26T13:02:09Z</time>
      </trkpt>
      <trkpt lat="48.15732" lon="6.44721">
        <ele>367</ele>
        <time>2022-09-26T13:02:10Z</time>
      </trkpt>
      <trkpt lat="48.15729" lon="6.44723">
        <ele>367</ele>
        <time>2022-09-26T13:02:11Z</time>
      </trkpt>
      <trkpt lat="48.15726" lon="6.44726">
        <ele>368</ele>
        <time>2022-09-26T13:02:12Z</time>
      </trkpt>
      <trkpt lat="48.15723" lon="6.44728">
        <ele>368</ele>
        <time>2022-09-26T13:02:13Z</time>
      </trkpt>
      <trkpt lat="48.15721" lon="6.44729">
        <ele>369</ele>
        <time>2022-09-26T13:02:14Z</time>
      </trkpt>
      <trkpt lat="48.15718" lon="6.4473">
        <ele>369</ele>
        <time>2022-09-26T13:02:15Z</time>
      </trkpt>
      <trkpt lat="48.15715" lon="6.44731">
        <ele>369</ele>
        <time>2022-09-26T13:02:16Z</time>
      </trkpt>
      <trkpt lat="48.15712" lon="6.44733">
        <ele>370</ele>
        <time>2022-09-26T13:02:17Z</time>
      </trkpt>
      <trkpt lat="48.15709" lon="6.44736">
        <ele>370</ele>
        <time>2022-09-26T13:02:18Z</time>
      </trkpt>
      <trkpt lat="48.15706" lon="6.44737">
        <ele>370</ele>
        <time>2022-09-26T13:02:19Z</time>
      </trkpt>
      <trkpt lat="48.15703" lon="6.44738">
        <ele>370</ele>
        <time>2022-09-26T13:02:20Z</time>
      </trkpt>
      <trkpt lat="48.157" lon="6.4474">
        <ele>371</ele>
        <time>2022-09-26T13:02:21Z</time>
      </trkpt>
      <trkpt lat="48.15698" lon="6.44741">
        <ele>371</ele>
        <time>2022-09-26T13:02:22Z</time>
      </trkpt>
      <trkpt lat="48.15694" lon="6.44743">
        <ele>371</ele>
        <time>2022-09-26T13:02:23Z</time>
      </trkpt>
      <trkpt lat="48.1569" lon="6.44746">
        <ele>371</ele>
        <time>2022-09-26T13:02:24Z</time>
      </trkpt>
      <trkpt lat="48.15685" lon="6.44749">
        <ele>370</ele>
        <time>2022-09-26T13:02:25Z</time>
      </trkpt>
      <trkpt lat="48.15682" lon="6.44752">
        <ele>370</ele>
        <time>2022-09-26T13:02:26Z</time>
      </trkpt>
      <trkpt lat="48.15679" lon="6.44755">
        <ele>370</ele>
        <time>2022-09-26T13:02:27Z</time>
      </trkpt>
      <trkpt lat="48.15675" lon="6.44759">
        <ele>369</ele>
        <time>2022-09-26T13:02:28Z</time>
      </trkpt>
      <trkpt lat="48.15672" lon="6.44762">
        <ele>369</ele>
        <time>2022-09-26T13:02:29Z</time>
      </trkpt>
      <trkpt lat="48.15669" lon="6.44764">
        <ele>368</ele>
        <time>2022-09-26T13:02:30Z</time>
      </trkpt>
      <trkpt lat="48.15666" lon="6.44767">
        <ele>368</ele>
        <time>2022-09-26T13:02:31Z</time>
      </trkpt>
      <trkpt lat="48.15662" lon="6.44769">
        <ele>368</ele>
        <time>2022-09-26T13:02:32Z</time>
      </trkpt>
      <trkpt lat="48.15659" lon="6.44771">
        <ele>368</ele>
        <time>2022-09-26T13:02:33Z</time>
      </trkpt>
      <trkpt lat="48.15654" lon="6.44774">
        <ele>368</ele>
        <time>2022-09-26T13:02:34Z</time>
      </trkpt>
      <trkpt lat="48.1565" lon="6.44776">
        <ele>368</ele>
        <time>2022-09-26T13:02:35Z</time>
      </trkpt>
      <trkpt lat="48.15647" lon="6.44778">
        <ele>368</ele>
        <time>2022-09-26T13:02:36Z</time>
      </trkpt>
      <trkpt lat="48.15643" lon="6.44779">
        <ele>368</ele>
        <time>2022-09-26T13:02:37Z</time>
      </trkpt>
      <trkpt lat="48.15639" lon="6.4478">
        <ele>369</ele>
        <time>2022-09-26T13:02:38Z</time>
      </trkpt>
      <trkpt lat="48.15635" lon="6.44781">
        <ele>369</ele>
        <time>2022-09-26T13:02:39Z</time>
      </trkpt>
      <trkpt lat="48.15632" lon="6.44782">
        <ele>369</ele>
        <time>2022-09-26T13:02:40Z</time>
      </trkpt>
      <trkpt lat="48.15629" lon="6.44782">
        <ele>369</ele>
        <time>2022-09-26T13:02:41Z</time>
      </trkpt>
      <trkpt lat="48.15624" lon="6.44783">
        <ele>370</ele>
        <time>2022-09-26T13:02:42Z</time>
      </trkpt>
      <trkpt lat="48.1562" lon="6.44786">
        <ele>369</ele>
        <time>2022-09-26T13:02:43Z</time>
      </trkpt>
      <trkpt lat="48.15617" lon="6.44788">
        <ele>369</ele>
        <time>2022-09-26T13:02:44Z</time>
      </trkpt>
      <trkpt lat="48.15614" lon="6.44791">
        <ele>369</ele>
        <time>2022-09-26T13:02:45Z</time>
      </trkpt>
      <trkpt lat="48.15609" lon="6.44793">
        <ele>368</ele>
        <time>2022-09-26T13:02:46Z</time>
      </trkpt>
      <trkpt lat="48.15605" lon="6.44796">
        <ele>367</ele>
        <time>2022-09-26T13:02:47Z</time>
      </trkpt>
      <trkpt lat="48.15601" lon="6.44798">
        <ele>367</ele>
        <time>2022-09-26T13:02:48Z</time>
      </trkpt>
      <trkpt lat="48.15597" lon="6.44798">
        <ele>367</ele>
        <time>2022-09-26T13:02:49Z</time>
      </trkpt>
      <trkpt lat="48.15594" lon="6.44799">
        <ele>367</ele>
        <time>2022-09-26T13:02:50Z</time>
      </trkpt>
      <trkpt lat="48.15592" lon="6.44799">
        <ele>367</ele>
        <time>2022-09-26T13:02:51Z</time>
      </trkpt>
      <trkpt lat="48.15589" lon="6.44799">
        <ele>367</ele>
        <time>2022-09-26T13:02:52Z</time>
      </trkpt>
      <trkpt lat="48.15586" lon="6.44799">
        <ele>367</ele>
        <time>2022-09-26T13:02:53Z</time>
      </trkpt>
      <trkpt lat="48.15582" lon="6.44798">
        <ele>368</ele>
        <time>2022-09-26T13:02:54Z</time>
      </trkpt>
      <trkpt lat="48.15579" lon="6.44796">
        <ele>369</ele>
        <time>2022-09-26T13:02:55Z</time>
      </trkpt>
      <trkpt lat="48.15575" lon="6.44796">
        <ele>369</ele>
        <time>2022-09-26T13:02:56Z</time>
      </trkpt>
      <trkpt lat="48.15571" lon="6.44797">
        <ele>370</ele>
        <time>2022-09-26T13:02:57Z</time>
      </trkpt>
      <trkpt lat="48.15567" lon="6.44797">
        <ele>370</ele>
        <time>2022-09-26T13:02:58Z</time>
      </trkpt>
      <trkpt lat="48.15564" lon="6.44797">
        <ele>371</ele>
        <time>2022-09-26T13:02:59Z</time>
      </trkpt>
      <trkpt lat="48.15562" lon="6.44796">
        <ele>371</ele>
        <time>2022-09-26T13:03:00Z</time>
      </trkpt>
      <trkpt lat="48.1556" lon="6.44796">
        <ele>371</ele>
        <time>2022-09-26T13:03:01Z</time>
      </trkpt>
      <trkpt lat="48.15557" lon="6.44796">
        <ele>372</ele>
        <time>2022-09-26T13:03:02Z</time>
      </trkpt>
      <trkpt lat="48.15554" lon="6.44796">
        <ele>372</ele>
        <time>2022-09-26T13:03:03Z</time>
      </trkpt>
      <trkpt lat="48.15552" lon="6.44796">
        <ele>372</ele>
        <time>2022-09-26T13:03:04Z</time>
      </trkpt>
      <trkpt lat="48.15549" lon="6.44795">
        <ele>373</ele>
        <time>2022-09-26T13:03:05Z</time>
      </trkpt>
      <trkpt lat="48.15545" lon="6.44795">
        <ele>373</ele>
        <time>2022-09-26T13:03:06Z</time>
      </trkpt>
      <trkpt lat="48.15543" lon="6.44795">
        <ele>373</ele>
        <time>2022-09-26T13:03:07Z</time>
      </trkpt>
      <trkpt lat="48.1554" lon="6.44795">
        <ele>374</ele>
        <time>2022-09-26T13:03:08Z</time>
      </trkpt>
      <trkpt lat="48.15538" lon="6.44795">
        <ele>374</ele>
        <time>2022-09-26T13:03:09Z</time>
      </trkpt>
      <trkpt lat="48.15536" lon="6.44794">
        <ele>374</ele>
        <time>2022-09-26T13:03:10Z</time>
      </trkpt>
      <trkpt lat="48.15533" lon="6.44795">
        <ele>374</ele>
        <time>2022-09-26T13:03:11Z</time>
      </trkpt>
      <trkpt lat="48.1553" lon="6.44794">
        <ele>375</ele>
        <time>2022-09-26T13:03:12Z</time>
      </trkpt>
      <trkpt lat="48.15528" lon="6.44793">
        <ele>375</ele>
        <time>2022-09-26T13:03:13Z</time>
      </trkpt>
      <trkpt lat="48.15525" lon="6.44791">
        <ele>375</ele>
        <time>2022-09-26T13:03:14Z</time>
      </trkpt>
      <trkpt lat="48.15523" lon="6.4479">
        <ele>375</ele>
        <time>2022-09-26T13:03:15Z</time>
      </trkpt>
      <trkpt lat="48.1552" lon="6.44788">
        <ele>375</ele>
        <time>2022-09-26T13:03:16Z</time>
      </trkpt>
      <trkpt lat="48.15518" lon="6.44786">
        <ele>375</ele>
        <time>2022-09-26T13:03:17Z</time>
      </trkpt>
      <trkpt lat="48.15516" lon="6.44784">
        <ele>375</ele>
        <time>2022-09-26T13:03:18Z</time>
      </trkpt>
      <trkpt lat="48.15514" lon="6.44783">
        <ele>375</ele>
        <time>2022-09-26T13:03:19Z</time>
      </trkpt>
      <trkpt lat="48.15511" lon="6.44782">
        <ele>375</ele>
        <time>2022-09-26T13:03:20Z</time>
      </trkpt>
      <trkpt lat="48.15509" lon="6.4478">
        <ele>375</ele>
        <time>2022-09-26T13:03:21Z</time>
      </trkpt>
      <trkpt lat="48.15506" lon="6.44779">
        <ele>375</ele>
        <time>2022-09-26T13:03:22Z</time>
      </trkpt>
      <trkpt lat="48.15503" lon="6.44777">
        <ele>374</ele>
        <time>2022-09-26T13:03:23Z</time>
      </trkpt>
      <trkpt lat="48.15501" lon="6.44776">
        <ele>374</ele>
        <time>2022-09-26T13:03:24Z</time>
      </trkpt>
      <trkpt lat="48.15499" lon="6.44774">
        <ele>374</ele>
        <time>2022-09-26T13:03:25Z</time>
      </trkpt>
      <trkpt lat="48.15496" lon="6.44773">
        <ele>374</ele>
        <time>2022-09-26T13:03:26Z</time>
      </trkpt>
      <trkpt lat="48.15494" lon="6.44771">
        <ele>374</ele>
        <time>2022-09-26T13:03:27Z</time>
      </trkpt>
      <trkpt lat="48.15491" lon="6.44769">
        <ele>374</ele>
        <time>2022-09-26T13:03:28Z</time>
      </trkpt>
      <trkpt lat="48.15487" lon="6.44766">
        <ele>373</ele>
        <time>2022-09-26T13:03:29Z</time>
      </trkpt>
      <trkpt lat="48.15484" lon="6.44763">
        <ele>373</ele>
        <time>2022-09-26T13:03:30Z</time>
      </trkpt>
      <trkpt lat="48.15482" lon="6.4476">
        <ele>373</ele>
        <time>2022-09-26T13:03:31Z</time>
      </trkpt>
      <trkpt lat="48.1548" lon="6.44758">
        <ele>373</ele>
        <time>2022-09-26T13:03:32Z</time>
      </trkpt>
      <trkpt lat="48.15478" lon="6.44756">
        <ele>373</ele>
        <time>2022-09-26T13:03:33Z</time>
      </trkpt>
      <trkpt lat="48.15477" lon="6.44755">
        <ele>373</ele>
        <time>2022-09-26T13:03:34Z</time>
      </trkpt>
      <trkpt lat="48.15474" lon="6.4475">
        <ele>373</ele>
        <time>2022-09-26T13:03:35Z</time>
      </trkpt>
      <trkpt lat="48.15469" lon="6.44745">
        <ele>373</ele>
        <time>2022-09-26T13:03:36Z</time>
      </trkpt>
      <trkpt lat="48.15467" lon="6.44741">
        <ele>373</ele>
        <time>2022-09-26T13:03:37Z</time>
      </trkpt>
      <trkpt lat="48.15465" lon="6.44738">
        <ele>373</ele>
        <time>2022-09-26T13:03:38Z</time>
      </trkpt>
      <trkpt lat="48.15464" lon="6.44734">
        <ele>373</ele>
        <time>2022-09-26T13:03:39Z</time>
      </trkpt>
      <trkpt lat="48.15462" lon="6.44731">
        <ele>373</ele>
        <time>2022-09-26T13:03:40Z</time>
      </trkpt>
      <trkpt lat="48.15461" lon="6.44726">
        <ele>374</ele>
        <time>2022-09-26T13:03:41Z</time>
      </trkpt>
      <trkpt lat="48.1546" lon="6.44721">
        <ele>374</ele>
        <time>2022-09-26T13:03:42Z</time>
      </trkpt>
      <trkpt lat="48.15459" lon="6.44717">
        <ele>374</ele>
        <time>2022-09-26T13:03:43Z</time>
      </trkpt>
      <trkpt lat="48.15457" lon="6.44715">
        <ele>374</ele>
        <time>2022-09-26T13:03:44Z</time>
      </trkpt>
      <trkpt lat="48.15456" lon="6.44712">
        <ele>374</ele>
        <time>2022-09-26T13:03:45Z</time>
      </trkpt>
      <trkpt lat="48.15455" lon="6.44709">
        <ele>374</ele>
        <time>2022-09-26T13:03:46Z</time>
      </trkpt>
      <trkpt lat="48.15453" lon="6.44705">
        <ele>374</ele>
        <time>2022-09-26T13:03:47Z</time>
      </trkpt>
      <trkpt lat="48.1545" lon="6.44698">
        <ele>374</ele>
        <time>2022-09-26T13:03:48Z</time>
      </trkpt>
      <trkpt lat="48.15447" lon="6.44689">
        <ele>375</ele>
        <time>2022-09-26T13:03:49Z</time>
      </trkpt>
      <trkpt lat="48.15444" lon="6.44681">
        <ele>376</ele>
        <time>2022-09-26T13:03:50Z</time>
      </trkpt>
      <trkpt lat="48.15442" lon="6.44676">
        <ele>377</ele>
        <time>2022-09-26T13:03:51Z</time>
      </trkpt>
      <trkpt lat="48.15439" lon="6.4467">
        <ele>377</ele>
        <time>2022-09-26T13:03:52Z</time>
      </trkpt>
      <trkpt lat="48.15437" lon="6.44665">
        <ele>378</ele>
        <time>2022-09-26T13:03:53Z</time>
      </trkpt>
      <trkpt lat="48.15436" lon="6.44662">
        <ele>378</ele>
        <time>2022-09-26T13:03:54Z</time>
      </trkpt>
      <trkpt lat="48.15436" lon="6.4466">
        <ele>378</ele>
        <time>2022-09-26T13:03:55Z</time>
      </trkpt>
      <trkpt lat="48.15435" lon="6.44657">
        <ele>379</ele>
        <time>2022-09-26T13:03:56Z</time>
      </trkpt>
      <trkpt lat="48.15435" lon="6.44655">
        <ele>379</ele>
        <time>2022-09-26T13:03:57Z</time>
      </trkpt>
      <trkpt lat="48.15434" lon="6.44651">
        <ele>380</ele>
        <time>2022-09-26T13:03:58Z</time>
      </trkpt>
      <trkpt lat="48.15435" lon="6.44647">
        <ele>380</ele>
        <time>2022-09-26T13:03:59Z</time>
      </trkpt>
      <trkpt lat="48.15434" lon="6.44644">
        <ele>381</ele>
        <time>2022-09-26T13:04:00Z</time>
      </trkpt>
      <trkpt lat="48.15433" lon="6.44641">
        <ele>381</ele>
        <time>2022-09-26T13:04:01Z</time>
      </trkpt>
      <trkpt lat="48.15433" lon="6.44638">
        <ele>381</ele>
        <time>2022-09-26T13:04:02Z</time>
      </trkpt>
      <trkpt lat="48.15433" lon="6.44634">
        <ele>382</ele>
        <time>2022-09-26T13:04:03Z</time>
      </trkpt>
      <trkpt lat="48.15432" lon="6.44631">
        <ele>382</ele>
        <time>2022-09-26T13:04:04Z</time>
      </trkpt>
      <trkpt lat="48.15432" lon="6.44628">
        <ele>382</ele>
        <time>2022-09-26T13:04:05Z</time>
      </trkpt>
      <trkpt lat="48.15432" lon="6.44626">
        <ele>382</ele>
        <time>2022-09-26T13:04:06Z</time>
      </trkpt>
      <trkpt lat="48.15432" lon="6.44624">
        <ele>383</ele>
        <time>2022-09-26T13:04:07Z</time>
      </trkpt>
      <trkpt lat="48.15432" lon="6.44622">
        <ele>383</ele>
        <time>2022-09-26T13:04:08Z</time>
      </trkpt>
      <trkpt lat="48.15432" lon="6.4462">
        <ele>383</ele>
        <time>2022-09-26T13:04:09Z</time>
      </trkpt>
      <trkpt lat="48.15433" lon="6.44617">
        <ele>383</ele>
        <time>2022-09-26T13:04:10Z</time>
      </trkpt>
      <trkpt lat="48.15433" lon="6.44615">
        <ele>384</ele>
        <time>2022-09-26T13:04:11Z</time>
      </trkpt>
      <trkpt lat="48.15433" lon="6.44612">
        <ele>384</ele>
        <time>2022-09-26T13:04:12Z</time>
      </trkpt>
      <trkpt lat="48.15433" lon="6.44608">
        <ele>384</ele>
        <time>2022-09-26T13:04:13Z</time>
      </trkpt>
      <trkpt lat="48.15433" lon="6.44605">
        <ele>384</ele>
        <time>2022-09-26T13:04:14Z</time>
      </trkpt>
      <trkpt lat="48.15433" lon="6.44602">
        <ele>385</ele>
        <time>2022-09-26T13:04:15Z</time>
      </trkpt>
      <trkpt lat="48.15433" lon="6.44599">
        <ele>385</ele>
        <time>2022-09-26T13:04:16Z</time>
      </trkpt>
      <trkpt lat="48.15433" lon="6.44596">
        <ele>385</ele>
        <time>2022-09-26T13:04:17Z</time>
      </trkpt>
      <trkpt lat="48.15433" lon="6.44593">
        <ele>385</ele>
        <time>2022-09-26T13:04:18Z</time>
      </trkpt>
      <trkpt lat="48.15434" lon="6.4459">
        <ele>386</ele>
        <time>2022-09-26T13:04:19Z</time>
      </trkpt>
      <trkpt lat="48.15435" lon="6.44588">
        <ele>386</ele>
        <time>2022-09-26T13:04:20Z</time>
      </trkpt>
      <trkpt lat="48.15436" lon="6.44586">
        <ele>386</ele>
        <time>2022-09-26T13:04:21Z</time>
      </trkpt>
      <trkpt lat="48.15436" lon="6.44585">
        <ele>387</ele>
        <time>2022-09-26T13:04:22Z</time>
      </trkpt>
      <trkpt lat="48.15437" lon="6.44583">
        <ele>387</ele>
        <time>2022-09-26T13:04:23Z</time>
      </trkpt>
      <trkpt lat="48.15437" lon="6.4458">
        <ele>387</ele>
        <time>2022-09-26T13:04:24Z</time>
      </trkpt>
      <trkpt lat="48.15437" lon="6.44578">
        <ele>387</ele>
        <time>2022-09-26T13:04:25Z</time>
      </trkpt>
      <trkpt lat="48.15437" lon="6.44575">
        <ele>388</ele>
        <time>2022-09-26T13:04:26Z</time>
      </trkpt>
      <trkpt lat="48.15438" lon="6.44573">
        <ele>388</ele>
        <time>2022-09-26T13:04:27Z</time>
      </trkpt>
      <trkpt lat="48.15439" lon="6.44571">
        <ele>388</ele>
        <time>2022-09-26T13:04:28Z</time>
      </trkpt>
      <trkpt lat="48.15439" lon="6.44569">
        <ele>389</ele>
        <time>2022-09-26T13:04:29Z</time>
      </trkpt>
      <trkpt lat="48.15439" lon="6.44567">
        <ele>389</ele>
        <time>2022-09-26T13:04:30Z</time>
      </trkpt>
      <trkpt lat="48.15439" lon="6.44565">
        <ele>389</ele>
        <time>2022-09-26T13:04:31Z</time>
      </trkpt>
      <trkpt lat="48.1544" lon="6.44563">
        <ele>390</ele>
        <time>2022-09-26T13:04:32Z</time>
      </trkpt>
      <trkpt lat="48.1544" lon="6.44561">
        <ele>390</ele>
        <time>2022-09-26T13:04:33Z</time>
      </trkpt>
      <trkpt lat="48.15441" lon="6.4456">
        <ele>390</ele>
        <time>2022-09-26T13:04:34Z</time>
      </trkpt>
      <trkpt lat="48.1544" lon="6.44557">
        <ele>390</ele>
        <time>2022-09-26T13:04:35Z</time>
      </trkpt>
      <trkpt lat="48.15441" lon="6.44555">
        <ele>391</ele>
        <time>2022-09-26T13:04:36Z</time>
      </trkpt>
      <trkpt lat="48.15441" lon="6.44554">
        <ele>391</ele>
        <time>2022-09-26T13:04:37Z</time>
      </trkpt>
      <trkpt lat="48.15442" lon="6.44552">
        <ele>391</ele>
        <time>2022-09-26T13:04:38Z</time>
      </trkpt>
      <trkpt lat="48.15442" lon="6.4455">
        <ele>391</ele>
        <time>2022-09-26T13:04:39Z</time>
      </trkpt>
      <trkpt lat="48.15443" lon="6.44549">
        <ele>392</ele>
        <time>2022-09-26T13:04:40Z</time>
      </trkpt>
      <trkpt lat="48.15443" lon="6.44547">
        <ele>392</ele>
        <time>2022-09-26T13:04:41Z</time>
      </trkpt>
      <trkpt lat="48.15443" lon="6.44545">
        <ele>392</ele>
        <time>2022-09-26T13:04:42Z</time>
      </trkpt>
      <trkpt lat="48.15444" lon="6.44543">
        <ele>393</ele>
        <time>2022-09-26T13:04:43Z</time>
      </trkpt>
      <trkpt lat="48.15445" lon="6.44541">
        <ele>393</ele>
        <time>2022-09-26T13:04:44Z</time>
      </trkpt>
      <trkpt lat="48.15446" lon="6.4454">
        <ele>394</ele>
        <time>2022-09-26T13:04:45Z</time>
      </trkpt>
      <trkpt lat="48.15447" lon="6.44538">
        <ele>394</ele>
        <time>2022-09-26T13:04:46Z</time>
      </trkpt>
      <trkpt lat="48.15448" lon="6.44536">
        <ele>394</ele>
        <time>2022-09-26T13:04:47Z</time>
      </trkpt>
      <trkpt lat="48.15448" lon="6.44534">
        <ele>394</ele>
        <time>2022-09-26T13:04:48Z</time>
      </trkpt>
      <trkpt lat="48.15448" lon="6.44532">
        <ele>395</ele>
        <time>2022-09-26T13:04:49Z</time>
      </trkpt>
      <trkpt lat="48.15448" lon="6.4453">
        <ele>395</ele>
        <time>2022-09-26T13:04:50Z</time>
      </trkpt>
      <trkpt lat="48.15449" lon="6.4453">
        <ele>395</ele>
        <time>2022-09-26T13:04:51Z</time>
      </trkpt>
      <trkpt lat="48.1545" lon="6.44528">
        <ele>395</ele>
        <time>2022-09-26T13:04:52Z</time>
      </trkpt>
      <trkpt lat="48.1545" lon="6.44527">
        <ele>396</ele>
        <time>2022-09-26T13:04:53Z</time>
      </trkpt>
      <trkpt lat="48.15451" lon="6.44525">
        <ele>396</ele>
        <time>2022-09-26T13:04:54Z</time>
      </trkpt>
      <trkpt lat="48.15451" lon="6.44524">
        <ele>396</ele>
        <time>2022-09-26T13:04:55Z</time>
      </trkpt>
      <trkpt lat="48.15452" lon="6.44523">
        <ele>396</ele>
        <time>2022-09-26T13:04:56Z</time>
      </trkpt>
      <trkpt lat="48.15452" lon="6.44521">
        <ele>397</ele>
        <time>2022-09-26T13:04:57Z</time>
      </trkpt>
      <trkpt lat="48.15452" lon="6.4452">
        <ele>397</ele>
        <time>2022-09-26T13:04:58Z</time>
      </trkpt>
      <trkpt lat="48.15453" lon="6.44518">
        <ele>397</ele>
        <time>2022-09-26T13:04:59Z</time>
      </trkpt>
      <trkpt lat="48.15452" lon="6.44516">
        <ele>397</ele>
        <time>2022-09-26T13:05:00Z</time>
      </trkpt>
      <trkpt lat="48.15452" lon="6.44515">
        <ele>397</ele>
        <time>2022-09-26T13:05:01Z</time>
      </trkpt>
      <trkpt lat="48.15452" lon="6.44513">
        <ele>397</ele>
        <time>2022-09-26T13:05:02Z</time>
      </trkpt>
      <trkpt lat="48.15452" lon="6.44511">
        <ele>398</ele>
        <time>2022-09-26T13:05:03Z</time>
      </trkpt>
      <trkpt lat="48.15452" lon="6.44509">
        <ele>398</ele>
        <time>2022-09-26T13:05:04Z</time>
      </trkpt>
      <trkpt lat="48.15453" lon="6.44506">
        <ele>398</ele>
        <time>2022-09-26T13:05:05Z</time>
      </trkpt>
      <trkpt lat="48.15453" lon="6.44503">
        <ele>398</ele>
        <time>2022-09-26T13:05:06Z</time>
      </trkpt>
      <trkpt lat="48.15453" lon="6.44499">
        <ele>399</ele>
        <time>2022-09-26T13:05:07Z</time>
      </trkpt>
      <trkpt lat="48.15453" lon="6.44495">
        <ele>399</ele>
        <time>2022-09-26T13:05:08Z</time>
      </trkpt>
      <trkpt lat="48.15453" lon="6.44492">
        <ele>399</ele>
        <time>2022-09-26T13:05:09Z</time>
      </trkpt>
      <trkpt lat="48.15453" lon="6.4449">
        <ele>399</ele>
        <time>2022-09-26T13:05:10Z</time>
      </trkpt>
      <trkpt lat="48.15453" lon="6.44488">
        <ele>400</ele>
        <time>2022-09-26T13:05:11Z</time>
      </trkpt>
      <trkpt lat="48.15453" lon="6.44486">
        <ele>400</ele>
        <time>2022-09-26T13:05:12Z</time>
      </trkpt>
      <trkpt lat="48.15453" lon="6.44484">
        <ele>400</ele>
        <time>2022-09-26T13:05:13Z</time>
      </trkpt>
      <trkpt lat="48.15453" lon="6.44482">
        <ele>400</ele>
        <time>2022-09-26T13:05:14Z</time>
      </trkpt>
      <trkpt lat="48.15452" lon="6.44479">
        <ele>400</ele>
        <time>2022-09-26T13:05:15Z</time>
      </trkpt>
      <trkpt lat="48.15452" lon="6.44475">
        <ele>400</ele>
        <time>2022-09-26T13:05:16Z</time>
      </trkpt>
      <trkpt lat="48.15452" lon="6.44471">
        <ele>401</ele>
        <time>2022-09-26T13:05:17Z</time>
      </trkpt>
      <trkpt lat="48.15451" lon="6.44466">
        <ele>401</ele>
        <time>2022-09-26T13:05:18Z</time>
      </trkpt>
      <trkpt lat="48.15451" lon="6.44463">
        <ele>401</ele>
        <time>2022-09-26T13:05:19Z</time>
      </trkpt>
      <trkpt lat="48.15451" lon="6.44462">
        <ele>401</ele>
        <time>2022-09-26T13:05:20Z</time>
      </trkpt>
      <trkpt lat="48.1545" lon="6.4446">
        <ele>401</ele>
        <time>2022-09-26T13:05:21Z</time>
      </trkpt>
      <trkpt lat="48.1545" lon="6.44459">
        <ele>401</ele>
        <time>2022-09-26T13:05:22Z</time>
      </trkpt>
      <trkpt lat="48.15449" lon="6.44456">
        <ele>401</ele>
        <time>2022-09-26T13:05:23Z</time>
      </trkpt>
      <trkpt lat="48.15449" lon="6.44454">
        <ele>401</ele>
        <time>2022-09-26T13:05:24Z</time>
      </trkpt>
      <trkpt lat="48.15449" lon="6.44452">
        <ele>402</ele>
        <time>2022-09-26T13:05:25Z</time>
      </trkpt>
      <trkpt lat="48.1545" lon="6.4445">
        <ele>402</ele>
        <time>2022-09-26T13:05:26Z</time>
      </trkpt>
      <trkpt lat="48.1545" lon="6.44448">
        <ele>402</ele>
        <time>2022-09-26T13:05:27Z</time>
      </trkpt>
      <trkpt lat="48.1545" lon="6.44446">
        <ele>402</ele>
        <time>2022-09-26T13:05:28Z</time>
      </trkpt>
      <trkpt lat="48.15451" lon="6.44443">
        <ele>402</ele>
        <time>2022-09-26T13:05:29Z</time>
      </trkpt>
      <trkpt lat="48.15451" lon="6.44442">
        <ele>402</ele>
        <time>2022-09-26T13:05:30Z</time>
      </trkpt>
      <trkpt lat="48.15451" lon="6.4444">
        <ele>403</ele>
        <time>2022-09-26T13:05:31Z</time>
      </trkpt>
      <trkpt lat="48.15451" lon="6.44439">
        <ele>403</ele>
        <time>2022-09-26T13:05:32Z</time>
      </trkpt>
      <trkpt lat="48.15451" lon="6.44436">
        <ele>403</ele>
        <time>2022-09-26T13:05:33Z</time>
      </trkpt>
      <trkpt lat="48.15451" lon="6.44434">
        <ele>403</ele>
        <time>2022-09-26T13:05:34Z</time>
      </trkpt>
      <trkpt lat="48.15451" lon="6.44431">
        <ele>404</ele>
        <time>2022-09-26T13:05:35Z</time>
      </trkpt>
      <trkpt lat="48.15451" lon="6.44429">
        <ele>404</ele>
        <time>2022-09-26T13:05:36Z</time>
      </trkpt>
      <trkpt lat="48.15451" lon="6.44427">
        <ele>404</ele>
        <time>2022-09-26T13:05:37Z</time>
      </trkpt>
      <trkpt lat="48.15451" lon="6.44425">
        <ele>404</ele>
        <time>2022-09-26T13:05:38Z</time>
      </trkpt>
      <trkpt lat="48.15451" lon="6.44422">
        <ele>404</ele>
        <time>2022-09-26T13:05:39Z</time>
      </trkpt>
      <trkpt lat="48.15452" lon="6.4442">
        <ele>405</ele>
        <time>2022-09-26T13:05:40Z</time>
      </trkpt>
      <trkpt lat="48.15452" lon="6.44418">
        <ele>405</ele>
        <time>2022-09-26T13:05:41Z</time>
      </trkpt>
      <trkpt lat="48.15452" lon="6.44416">
        <ele>405</ele>
        <time>2022-09-26T13:05:42Z</time>
      </trkpt>
      <trkpt lat="48.15453" lon="6.44414">
        <ele>405</ele>
        <time>2022-09-26T13:05:43Z</time>
      </trkpt>
      <trkpt lat="48.15453" lon="6.44411">
        <ele>405</ele>
        <time>2022-09-26T13:05:44Z</time>
      </trkpt>
      <trkpt lat="48.15453" lon="6.44409">
        <ele>405</ele>
        <time>2022-09-26T13:05:45Z</time>
      </trkpt>
      <trkpt lat="48.15453" lon="6.44407">
        <ele>406</ele>
        <time>2022-09-26T13:05:46Z</time>
      </trkpt>
      <trkpt lat="48.15453" lon="6.44404">
        <ele>406</ele>
        <time>2022-09-26T13:05:47Z</time>
      </trkpt>
      <trkpt lat="48.15452" lon="6.44401">
        <ele>406</ele>
        <time>2022-09-26T13:05:48Z</time>
      </trkpt>
      <trkpt lat="48.15452" lon="6.44399">
        <ele>406</ele>
        <time>2022-09-26T13:05:49Z</time>
      </trkpt>
      <trkpt lat="48.15452" lon="6.44396">
        <ele>406</ele>
        <time>2022-09-26T13:05:50Z</time>
      </trkpt>
      <trkpt lat="48.15452" lon="6.44393">
        <ele>406</ele>
        <time>2022-09-26T13:05:51Z</time>
      </trkpt>
      <trkpt lat="48.15452" lon="6.44391">
        <ele>406</ele>
        <time>2022-09-26T13:05:52Z</time>
      </trkpt>
      <trkpt lat="48.15451" lon="6.44388">
        <ele>406</ele>
        <time>2022-09-26T13:05:53Z</time>
      </trkpt>
      <trkpt lat="48.1545" lon="6.44385">
        <ele>406</ele>
        <time>2022-09-26T13:05:54Z</time>
      </trkpt>
      <trkpt lat="48.1545" lon="6.44382">
        <ele>406</ele>
        <time>2022-09-26T13:05:55Z</time>
      </trkpt>
      <trkpt lat="48.15449" lon="6.4438">
        <ele>406</ele>
        <time>2022-09-26T13:05:56Z</time>
      </trkpt>
      <trkpt lat="48.15449" lon="6.44377">
        <ele>406</ele>
        <time>2022-09-26T13:05:57Z</time>
      </trkpt>
      <trkpt lat="48.15449" lon="6.44375">
        <ele>406</ele>
        <time>2022-09-26T13:05:58Z</time>
      </trkpt>
      <trkpt lat="48.15449" lon="6.44373">
        <ele>405</ele>
        <time>2022-09-26T13:05:59Z</time>
      </trkpt>
      <trkpt lat="48.15449" lon="6.4437">
        <ele>405</ele>
        <time>2022-09-26T13:06:00Z</time>
      </trkpt>
      <trkpt lat="48.15448" lon="6.44368">
        <ele>405</ele>
        <time>2022-09-26T13:06:01Z</time>
      </trkpt>
      <trkpt lat="48.15449" lon="6.44367">
        <ele>405</ele>
        <time>2022-09-26T13:06:02Z</time>
      </trkpt>
      <trkpt lat="48.15449" lon="6.44365">
        <ele>405</ele>
        <time>2022-09-26T13:06:03Z</time>
      </trkpt>
      <trkpt lat="48.15449" lon="6.44363">
        <ele>405</ele>
        <time>2022-09-26T13:06:04Z</time>
      </trkpt>
      <trkpt lat="48.15449" lon="6.44362">
        <ele>405</ele>
        <time>2022-09-26T13:06:05Z</time>
      </trkpt>
      <trkpt lat="48.15448" lon="6.44361">
        <ele>405</ele>
        <time>2022-09-26T13:06:06Z</time>
      </trkpt>
      <trkpt lat="48.15448" lon="6.44358">
        <ele>405</ele>
        <time>2022-09-26T13:06:07Z</time>
      </trkpt>
      <trkpt lat="48.15448" lon="6.44355">
        <ele>405</ele>
        <time>2022-09-26T13:06:08Z</time>
      </trkpt>
      <trkpt lat="48.15448" lon="6.44352">
        <ele>405</ele>
        <time>2022-09-26T13:06:09Z</time>
      </trkpt>
      <trkpt lat="48.15448" lon="6.4435">
        <ele>405</ele>
        <time>2022-09-26T13:06:10Z</time>
      </trkpt>
      <trkpt lat="48.15448" lon="6.44347">
        <ele>405</ele>
        <time>2022-09-26T13:06:11Z</time>
      </trkpt>
      <trkpt lat="48.15448" lon="6.44344">
        <ele>404</ele>
        <time>2022-09-26T13:06:12Z</time>
      </trkpt>
      <trkpt lat="48.15448" lon="6.44342">
        <ele>404</ele>
        <time>2022-09-26T13:06:13Z</time>
      </trkpt>
      <trkpt lat="48.15448" lon="6.4434">
        <ele>404</ele>
        <time>2022-09-26T13:06:14Z</time>
      </trkpt>
      <trkpt lat="48.15447" lon="6.44339">
        <ele>404</ele>
        <time>2022-09-26T13:06:15Z</time>
      </trkpt>
      <trkpt lat="48.15448" lon="6.44337">
        <ele>404</ele>
        <time>2022-09-26T13:06:16Z</time>
      </trkpt>
      <trkpt lat="48.15448" lon="6.44336">
        <ele>404</ele>
        <time>2022-09-26T13:06:17Z</time>
      </trkpt>
      <trkpt lat="48.15448" lon="6.44334">
        <ele>404</ele>
        <time>2022-09-26T13:06:18Z</time>
      </trkpt>
      <trkpt lat="48.15448" lon="6.44331">
        <ele>404</ele>
        <time>2022-09-26T13:06:19Z</time>
      </trkpt>
      <trkpt lat="48.15448" lon="6.44328">
        <ele>404</ele>
        <time>2022-09-26T13:06:20Z</time>
      </trkpt>
      <trkpt lat="48.15449" lon="6.44326">
        <ele>404</ele>
        <time>2022-09-26T13:06:21Z</time>
      </trkpt>
      <trkpt lat="48.15449" lon="6.44323">
        <ele>404</ele>
        <time>2022-09-26T13:06:22Z</time>
      </trkpt>
      <trkpt lat="48.15449" lon="6.44321">
        <ele>404</ele>
        <time>2022-09-26T13:06:23Z</time>
      </trkpt>
      <trkpt lat="48.15449" lon="6.44319">
        <ele>404</ele>
        <time>2022-09-26T13:06:24Z</time>
      </trkpt>
      <trkpt lat="48.1545" lon="6.44317">
        <ele>404</ele>
        <time>2022-09-26T13:06:25Z</time>
      </trkpt>
      <trkpt lat="48.1545" lon="6.44313">
        <ele>404</ele>
        <time>2022-09-26T13:06:26Z</time>
      </trkpt>
      <trkpt lat="48.1545" lon="6.44311">
        <ele>404</ele>
        <time>2022-09-26T13:06:27Z</time>
      </trkpt>
      <trkpt lat="48.1545" lon="6.44308">
        <ele>404</ele>
        <time>2022-09-26T13:06:28Z</time>
      </trkpt>
      <trkpt lat="48.1545" lon="6.44306">
        <ele>404</ele>
        <time>2022-09-26T13:06:29Z</time>
      </trkpt>
      <trkpt lat="48.1545" lon="6.44303">
        <ele>405</ele>
        <time>2022-09-26T13:06:30Z</time>
      </trkpt>
      <trkpt lat="48.1545" lon="6.44301">
        <ele>405</ele>
        <time>2022-09-26T13:06:31Z</time>
      </trkpt>
      <trkpt lat="48.15451" lon="6.44298">
        <ele>405</ele>
        <time>2022-09-26T13:06:32Z</time>
      </trkpt>
      <trkpt lat="48.15451" lon="6.44296">
        <ele>405</ele>
        <time>2022-09-26T13:06:33Z</time>
      </trkpt>
      <trkpt lat="48.15451" lon="6.44293">
        <ele>405</ele>
        <time>2022-09-26T13:06:34Z</time>
      </trkpt>
      <trkpt lat="48.15452" lon="6.44291">
        <ele>405</ele>
        <time>2022-09-26T13:06:35Z</time>
      </trkpt>
      <trkpt lat="48.15452" lon="6.44288">
        <ele>406</ele>
        <time>2022-09-26T13:06:36Z</time>
      </trkpt>
      <trkpt lat="48.15452" lon="6.44286">
        <ele>406</ele>
        <time>2022-09-26T13:06:37Z</time>
      </trkpt>
      <trkpt lat="48.15452" lon="6.44284">
        <ele>406</ele>
        <time>2022-09-26T13:06:38Z</time>
      </trkpt>
      <trkpt lat="48.15452" lon="6.44281">
        <ele>406</ele>
        <time>2022-09-26T13:06:39Z</time>
      </trkpt>
      <trkpt lat="48.15452" lon="6.44279">
        <ele>406</ele>
        <time>2022-09-26T13:06:40Z</time>
      </trkpt>
      <trkpt lat="48.15452" lon="6.44277">
        <ele>406</ele>
        <time>2022-09-26T13:06:41Z</time>
      </trkpt>
      <trkpt lat="48.15453" lon="6.44274">
        <ele>406</ele>
        <time>2022-09-26T13:06:42Z</time>
      </trkpt>
      <trkpt lat="48.15453" lon="6.44272">
        <ele>407</ele>
        <time>2022-09-26T13:06:43Z</time>
      </trkpt>
      <trkpt lat="48.15453" lon="6.4427">
        <ele>407</ele>
        <time>2022-09-26T13:06:44Z</time>
      </trkpt>
      <trkpt lat="48.15454" lon="6.44268">
        <ele>407</ele>
        <time>2022-09-26T13:06:45Z</time>
      </trkpt>
      <trkpt lat="48.15454" lon="6.44266">
        <ele>407</ele>
        <time>2022-09-26T13:06:46Z</time>
      </trkpt>
      <trkpt lat="48.15455" lon="6.44263">
        <ele>407</ele>
        <time>2022-09-26T13:06:47Z</time>
      </trkpt>
      <trkpt lat="48.15455" lon="6.44261">
        <ele>408</ele>
        <time>2022-09-26T13:06:48Z</time>
      </trkpt>
      <trkpt lat="48.15455" lon="6.44259">
        <ele>408</ele>
        <time>2022-09-26T13:06:49Z</time>
      </trkpt>
      <trkpt lat="48.15456" lon="6.44257">
        <ele>408</ele>
        <time>2022-09-26T13:06:50Z</time>
      </trkpt>
      <trkpt lat="48.15456" lon="6.4426">
        <ele>408</ele>
        <time>2022-09-26T13:06:51Z</time>
      </trkpt>
      <trkpt lat="48.15456" lon="6.4426">
        <ele>408</ele>
        <time>2022-09-26T13:06:52Z</time>
      </trkpt>
      <trkpt lat="48.15456" lon="6.44259">
        <ele>408</ele>
        <time>2022-09-26T13:06:53Z</time>
      </trkpt>
      <trkpt lat="48.15456" lon="6.44257">
        <ele>408</ele>
        <time>2022-09-26T13:06:54Z</time>
      </trkpt>
      <trkpt lat="48.15456" lon="6.44255">
        <ele>408</ele>
        <time>2022-09-26T13:06:55Z</time>
      </trkpt>
      <trkpt lat="48.15456" lon="6.44253">
        <ele>408</ele>
        <time>2022-09-26T13:06:56Z</time>
      </trkpt>
      <trkpt lat="48.15456" lon="6.44251">
        <ele>408</ele>
        <time>2022-09-26T13:06:57Z</time>
      </trkpt>
      <trkpt lat="48.15456" lon="6.44249">
        <ele>409</ele>
        <time>2022-09-26T13:06:58Z</time>
      </trkpt>
      <trkpt lat="48.15456" lon="6.44249">
        <ele>408</ele>
        <time>2022-09-26T13:06:59Z</time>
      </trkpt>
      <trkpt lat="48.15456" lon="6.44249">
        <ele>409</ele>
        <time>2022-09-26T13:07:00Z</time>
      </trkpt>
      <trkpt lat="48.15457" lon="6.44247">
        <ele>409</ele>
        <time>2022-09-26T13:07:01Z</time>
      </trkpt>
      <trkpt lat="48.15458" lon="6.44246">
        <ele>409</ele>
        <time>2022-09-26T13:07:02Z</time>
      </trkpt>
      <trkpt lat="48.1546" lon="6.44244">
        <ele>410</ele>
        <time>2022-09-26T13:07:03Z</time>
      </trkpt>
      <trkpt lat="48.1546" lon="6.44241">
        <ele>410</ele>
        <time>2022-09-26T13:07:04Z</time>
      </trkpt>
      <trkpt lat="48.15461" lon="6.44238">
        <ele>410</ele>
        <time>2022-09-26T13:07:05Z</time>
      </trkpt>
      <trkpt lat="48.15461" lon="6.44238">
        <ele>410</ele>
        <time>2022-09-26T13:07:06Z</time>
      </trkpt>
      <trkpt lat="48.1546" lon="6.44237">
        <ele>410</ele>
        <time>2022-09-26T13:07:07Z</time>
      </trkpt>
      <trkpt lat="48.1546" lon="6.44236">
        <ele>410</ele>
        <time>2022-09-26T13:07:08Z</time>
      </trkpt>
      <trkpt lat="48.1546" lon="6.44233">
        <ele>410</ele>
        <time>2022-09-26T13:07:09Z</time>
      </trkpt>
      <trkpt lat="48.1546" lon="6.44231">
        <ele>410</ele>
        <time>2022-09-26T13:07:10Z</time>
      </trkpt>
      <trkpt lat="48.1546" lon="6.44228">
        <ele>411</ele>
        <time>2022-09-26T13:07:11Z</time>
      </trkpt>
      <trkpt lat="48.15461" lon="6.44226">
        <ele>411</ele>
        <time>2022-09-26T13:07:12Z</time>
      </trkpt>
      <trkpt lat="48.15461" lon="6.44222">
        <ele>411</ele>
        <time>2022-09-26T13:07:13Z</time>
      </trkpt>
      <trkpt lat="48.15461" lon="6.4422">
        <ele>411</ele>
        <time>2022-09-26T13:07:14Z</time>
      </trkpt>
      <trkpt lat="48.15462" lon="6.44216">
        <ele>412</ele>
        <time>2022-09-26T13:07:15Z</time>
      </trkpt>
      <trkpt lat="48.15463" lon="6.44213">
        <ele>412</ele>
        <time>2022-09-26T13:07:16Z</time>
      </trkpt>
      <trkpt lat="48.15462" lon="6.4421">
        <ele>412</ele>
        <time>2022-09-26T13:07:17Z</time>
      </trkpt>
      <trkpt lat="48.15462" lon="6.44207">
        <ele>412</ele>
        <time>2022-09-26T13:07:18Z</time>
      </trkpt>
      <trkpt lat="48.15462" lon="6.44204">
        <ele>413</ele>
        <time>2022-09-26T13:07:19Z</time>
      </trkpt>
      <trkpt lat="48.15462" lon="6.44202">
        <ele>413</ele>
        <time>2022-09-26T13:07:20Z</time>
      </trkpt>
      <trkpt lat="48.15462" lon="6.44201">
        <ele>413</ele>
        <time>2022-09-26T13:07:21Z</time>
      </trkpt>
      <trkpt lat="48.15463" lon="6.44198">
        <ele>413</ele>
        <time>2022-09-26T13:07:22Z</time>
      </trkpt>
      <trkpt lat="48.15464" lon="6.44194">
        <ele>414</ele>
        <time>2022-09-26T13:07:23Z</time>
      </trkpt>
      <trkpt lat="48.15464" lon="6.44191">
        <ele>414</ele>
        <time>2022-09-26T13:07:24Z</time>
      </trkpt>
      <trkpt lat="48.15464" lon="6.44187">
        <ele>415</ele>
        <time>2022-09-26T13:07:25Z</time>
      </trkpt>
      <trkpt lat="48.15465" lon="6.44183">
        <ele>415</ele>
        <time>2022-09-26T13:07:26Z</time>
      </trkpt>
      <trkpt lat="48.15466" lon="6.4418">
        <ele>416</ele>
        <time>2022-09-26T13:07:27Z</time>
      </trkpt>
      <trkpt lat="48.15466" lon="6.44177">
        <ele>416</ele>
        <time>2022-09-26T13:07:28Z</time>
      </trkpt>
      <trkpt lat="48.15467" lon="6.44173">
        <ele>417</ele>
        <time>2022-09-26T13:07:29Z</time>
      </trkpt>
      <trkpt lat="48.15468" lon="6.44161">
        <ele>418</ele>
        <time>2022-09-26T13:07:30Z</time>
      </trkpt>
      <trkpt lat="48.15469" lon="6.44155">
        <ele>419</ele>
        <time>2022-09-26T13:07:31Z</time>
      </trkpt>
      <trkpt lat="48.15469" lon="6.44151">
        <ele>419</ele>
        <time>2022-09-26T13:07:32Z</time>
      </trkpt>
      <trkpt lat="48.1547" lon="6.44147">
        <ele>420</ele>
        <time>2022-09-26T13:07:33Z</time>
      </trkpt>
      <trkpt lat="48.1547" lon="6.44144">
        <ele>420</ele>
        <time>2022-09-26T13:07:34Z</time>
      </trkpt>
      <trkpt lat="48.1547" lon="6.4414">
        <ele>421</ele>
        <time>2022-09-26T13:07:35Z</time>
      </trkpt>
      <trkpt lat="48.15471" lon="6.44138">
        <ele>421</ele>
        <time>2022-09-26T13:07:36Z</time>
      </trkpt>
      <trkpt lat="48.15471" lon="6.44135">
        <ele>422</ele>
        <time>2022-09-26T13:07:37Z</time>
      </trkpt>
      <trkpt lat="48.15471" lon="6.44129">
        <ele>422</ele>
        <time>2022-09-26T13:07:38Z</time>
      </trkpt>
      <trkpt lat="48.15471" lon="6.44124">
        <ele>423</ele>
        <time>2022-09-26T13:07:39Z</time>
      </trkpt>
      <trkpt lat="48.15471" lon="6.44118">
        <ele>423</ele>
        <time>2022-09-26T13:07:40Z</time>
      </trkpt>
      <trkpt lat="48.15471" lon="6.44113">
        <ele>424</ele>
        <time>2022-09-26T13:07:41Z</time>
      </trkpt>
      <trkpt lat="48.15471" lon="6.44108">
        <ele>424</ele>
        <time>2022-09-26T13:07:42Z</time>
      </trkpt>
      <trkpt lat="48.15471" lon="6.44103">
        <ele>425</ele>
        <time>2022-09-26T13:07:43Z</time>
      </trkpt>
      <trkpt lat="48.15471" lon="6.44099">
        <ele>425</ele>
        <time>2022-09-26T13:07:44Z</time>
      </trkpt>
      <trkpt lat="48.15471" lon="6.44091">
        <ele>425</ele>
        <time>2022-09-26T13:07:45Z</time>
      </trkpt>
      <trkpt lat="48.15471" lon="6.44086">
        <ele>425</ele>
        <time>2022-09-26T13:07:46Z</time>
      </trkpt>
      <trkpt lat="48.1547" lon="6.44081">
        <ele>425</ele>
        <time>2022-09-26T13:07:47Z</time>
      </trkpt>
      <trkpt lat="48.1547" lon="6.44078">
        <ele>425</ele>
        <time>2022-09-26T13:07:48Z</time>
      </trkpt>
      <trkpt lat="48.15469" lon="6.44076">
        <ele>425</ele>
        <time>2022-09-26T13:07:49Z</time>
      </trkpt>
      <trkpt lat="48.15468" lon="6.44073">
        <ele>425</ele>
        <time>2022-09-26T13:07:50Z</time>
      </trkpt>
      <trkpt lat="48.15467" lon="6.4407">
        <ele>425</ele>
        <time>2022-09-26T13:07:51Z</time>
      </trkpt>
      <trkpt lat="48.15466" lon="6.44067">
        <ele>425</ele>
        <time>2022-09-26T13:07:52Z</time>
      </trkpt>
      <trkpt lat="48.15465" lon="6.44064">
        <ele>424</ele>
        <time>2022-09-26T13:07:53Z</time>
      </trkpt>
      <trkpt lat="48.15463" lon="6.44061">
        <ele>424</ele>
        <time>2022-09-26T13:07:54Z</time>
      </trkpt>
      <trkpt lat="48.15462" lon="6.44059">
        <ele>424</ele>
        <time>2022-09-26T13:07:55Z</time>
      </trkpt>
      <trkpt lat="48.15462" lon="6.44057">
        <ele>424</ele>
        <time>2022-09-26T13:07:56Z</time>
      </trkpt>
      <trkpt lat="48.15462" lon="6.44055">
        <ele>424</ele>
        <time>2022-09-26T13:07:57Z</time>
      </trkpt>
      <trkpt lat="48.15461" lon="6.44052">
        <ele>424</ele>
        <time>2022-09-26T13:07:58Z</time>
      </trkpt>
      <trkpt lat="48.15461" lon="6.4405">
        <ele>424</ele>
        <time>2022-09-26T13:07:59Z</time>
      </trkpt>
      <trkpt lat="48.15461" lon="6.44047">
        <ele>424</ele>
        <time>2022-09-26T13:08:00Z</time>
      </trkpt>
      <trkpt lat="48.15461" lon="6.44045">
        <ele>425</ele>
        <time>2022-09-26T13:08:01Z</time>
      </trkpt>
      <trkpt lat="48.15462" lon="6.44042">
        <ele>425</ele>
        <time>2022-09-26T13:08:02Z</time>
      </trkpt>
      <trkpt lat="48.15462" lon="6.44039">
        <ele>425</ele>
        <time>2022-09-26T13:08:03Z</time>
      </trkpt>
      <trkpt lat="48.15463" lon="6.44036">
        <ele>426</ele>
        <time>2022-09-26T13:08:04Z</time>
      </trkpt>
      <trkpt lat="48.15463" lon="6.44033">
        <ele>426</ele>
        <time>2022-09-26T13:08:05Z</time>
      </trkpt>
      <trkpt lat="48.15464" lon="6.44031">
        <ele>426</ele>
        <time>2022-09-26T13:08:06Z</time>
      </trkpt>
      <trkpt lat="48.15465" lon="6.44025">
        <ele>427</ele>
        <time>2022-09-26T13:08:07Z</time>
      </trkpt>
      <trkpt lat="48.15465" lon="6.44016">
        <ele>427</ele>
        <time>2022-09-26T13:08:08Z</time>
      </trkpt>
      <trkpt lat="48.15466" lon="6.44012">
        <ele>427</ele>
        <time>2022-09-26T13:08:09Z</time>
      </trkpt>
      <trkpt lat="48.15466" lon="6.44008">
        <ele>428</ele>
        <time>2022-09-26T13:08:10Z</time>
      </trkpt>
      <trkpt lat="48.15466" lon="6.44005">
        <ele>428</ele>
        <time>2022-09-26T13:08:11Z</time>
      </trkpt>
      <trkpt lat="48.15466" lon="6.44003">
        <ele>428</ele>
        <time>2022-09-26T13:08:12Z</time>
      </trkpt>
      <trkpt lat="48.15465" lon="6.44001">
        <ele>428</ele>
        <time>2022-09-26T13:08:13Z</time>
      </trkpt>
      <trkpt lat="48.15466" lon="6.43999">
        <ele>428</ele>
        <time>2022-09-26T13:08:14Z</time>
      </trkpt>
      <trkpt lat="48.15466" lon="6.43996">
        <ele>428</ele>
        <time>2022-09-26T13:08:15Z</time>
      </trkpt>
      <trkpt lat="48.15466" lon="6.43994">
        <ele>428</ele>
        <time>2022-09-26T13:08:16Z</time>
      </trkpt>
      <trkpt lat="48.15467" lon="6.43992">
        <ele>428</ele>
        <time>2022-09-26T13:08:17Z</time>
      </trkpt>
      <trkpt lat="48.15467" lon="6.4399">
        <ele>428</ele>
        <time>2022-09-26T13:08:18Z</time>
      </trkpt>
      <trkpt lat="48.15468" lon="6.43988">
        <ele>428</ele>
        <time>2022-09-26T13:08:19Z</time>
      </trkpt>
      <trkpt lat="48.15469" lon="6.43985">
        <ele>428</ele>
        <time>2022-09-26T13:08:20Z</time>
      </trkpt>
      <trkpt lat="48.1547" lon="6.43983">
        <ele>428</ele>
        <time>2022-09-26T13:08:21Z</time>
      </trkpt>
      <trkpt lat="48.15471" lon="6.4398">
        <ele>428</ele>
        <time>2022-09-26T13:08:22Z</time>
      </trkpt>
      <trkpt lat="48.15472" lon="6.43978">
        <ele>429</ele>
        <time>2022-09-26T13:08:23Z</time>
      </trkpt>
      <trkpt lat="48.15472" lon="6.43975">
        <ele>429</ele>
        <time>2022-09-26T13:08:24Z</time>
      </trkpt>
      <trkpt lat="48.15472" lon="6.43973">
        <ele>429</ele>
        <time>2022-09-26T13:08:25Z</time>
      </trkpt>
      <trkpt lat="48.15474" lon="6.43968">
        <ele>429</ele>
        <time>2022-09-26T13:08:26Z</time>
      </trkpt>
      <trkpt lat="48.15475" lon="6.43961">
        <ele>429</ele>
        <time>2022-09-26T13:08:27Z</time>
      </trkpt>
      <trkpt lat="48.15476" lon="6.43954">
        <ele>428</ele>
        <time>2022-09-26T13:08:28Z</time>
      </trkpt>
      <trkpt lat="48.15476" lon="6.43954">
        <ele>428</ele>
        <time>2022-09-26T13:08:29Z</time>
      </trkpt>
      <trkpt lat="48.15475" lon="6.43955">
        <ele>428</ele>
        <time>2022-09-26T13:08:30Z</time>
      </trkpt>
      <trkpt lat="48.15476" lon="6.43955">
        <ele>428</ele>
        <time>2022-09-26T13:08:31Z</time>
      </trkpt>
      <trkpt lat="48.15476" lon="6.43954">
        <ele>428</ele>
        <time>2022-09-26T13:08:32Z</time>
      </trkpt>
      <trkpt lat="48.15476" lon="6.43952">
        <ele>428</ele>
        <time>2022-09-26T13:08:33Z</time>
      </trkpt>
      <trkpt lat="48.15477" lon="6.43951">
        <ele>429</ele>
        <time>2022-09-26T13:08:34Z</time>
      </trkpt>
      <trkpt lat="48.15477" lon="6.43949">
        <ele>429</ele>
        <time>2022-09-26T13:08:35Z</time>
      </trkpt>
      <trkpt lat="48.15478" lon="6.43948">
        <ele>429</ele>
        <time>2022-09-26T13:08:36Z</time>
      </trkpt>
      <trkpt lat="48.15479" lon="6.43946">
        <ele>429</ele>
        <time>2022-09-26T13:08:37Z</time>
      </trkpt>
      <trkpt lat="48.15479" lon="6.43945">
        <ele>429</ele>
        <time>2022-09-26T13:08:38Z</time>
      </trkpt>
      <trkpt lat="48.1548" lon="6.43943">
        <ele>429</ele>
        <time>2022-09-26T13:08:39Z</time>
      </trkpt>
      <trkpt lat="48.15481" lon="6.43942">
        <ele>429</ele>
        <time>2022-09-26T13:08:40Z</time>
      </trkpt>
      <trkpt lat="48.15482" lon="6.4394">
        <ele>430</ele>
        <time>2022-09-26T13:08:41Z</time>
      </trkpt>
      <trkpt lat="48.15482" lon="6.43939">
        <ele>430</ele>
        <time>2022-09-26T13:08:42Z</time>
      </trkpt>
      <trkpt lat="48.15483" lon="6.43937">
        <ele>430</ele>
        <time>2022-09-26T13:08:43Z</time>
      </trkpt>
      <trkpt lat="48.15484" lon="6.43936">
        <ele>431</ele>
        <time>2022-09-26T13:08:44Z</time>
      </trkpt>
      <trkpt lat="48.15485" lon="6.43934">
        <ele>431</ele>
        <time>2022-09-26T13:08:45Z</time>
      </trkpt>
      <trkpt lat="48.15486" lon="6.43932">
        <ele>431</ele>
        <time>2022-09-26T13:08:46Z</time>
      </trkpt>
      <trkpt lat="48.15487" lon="6.43931">
        <ele>431</ele>
        <time>2022-09-26T13:08:47Z</time>
      </trkpt>
      <trkpt lat="48.15488" lon="6.43929">
        <ele>432</ele>
        <time>2022-09-26T13:08:48Z</time>
      </trkpt>
      <trkpt lat="48.15489" lon="6.43927">
        <ele>432</ele>
        <time>2022-09-26T13:08:49Z</time>
      </trkpt>
      <trkpt lat="48.1549" lon="6.43926">
        <ele>432</ele>
        <time>2022-09-26T13:08:50Z</time>
      </trkpt>
      <trkpt lat="48.1549" lon="6.43924">
        <ele>432</ele>
        <time>2022-09-26T13:08:51Z</time>
      </trkpt>
      <trkpt lat="48.15491" lon="6.43922">
        <ele>432</ele>
        <time>2022-09-26T13:08:52Z</time>
      </trkpt>
      <trkpt lat="48.15492" lon="6.4392">
        <ele>433</ele>
        <time>2022-09-26T13:08:53Z</time>
      </trkpt>
      <trkpt lat="48.15492" lon="6.43919">
        <ele>433</ele>
        <time>2022-09-26T13:08:54Z</time>
      </trkpt>
      <trkpt lat="48.15493" lon="6.43917">
        <ele>433</ele>
        <time>2022-09-26T13:08:55Z</time>
      </trkpt>
      <trkpt lat="48.15494" lon="6.43914">
        <ele>433</ele>
        <time>2022-09-26T13:08:56Z</time>
      </trkpt>
      <trkpt lat="48.15495" lon="6.43912">
        <ele>433</ele>
        <time>2022-09-26T13:08:57Z</time>
      </trkpt>
      <trkpt lat="48.15495" lon="6.43911">
        <ele>434</ele>
        <time>2022-09-26T13:08:58Z</time>
      </trkpt>
      <trkpt lat="48.15496" lon="6.43909">
        <ele>434</ele>
        <time>2022-09-26T13:08:59Z</time>
      </trkpt>
      <trkpt lat="48.15497" lon="6.43906">
        <ele>434</ele>
        <time>2022-09-26T13:09:00Z</time>
      </trkpt>
      <trkpt lat="48.15498" lon="6.43904">
        <ele>434</ele>
        <time>2022-09-26T13:09:01Z</time>
      </trkpt>
      <trkpt lat="48.15499" lon="6.43903">
        <ele>435</ele>
        <time>2022-09-26T13:09:02Z</time>
      </trkpt>
      <trkpt lat="48.155" lon="6.43901">
        <ele>435</ele>
        <time>2022-09-26T13:09:03Z</time>
      </trkpt>
      <trkpt lat="48.15501" lon="6.43899">
        <ele>435</ele>
        <time>2022-09-26T13:09:04Z</time>
      </trkpt>
      <trkpt lat="48.15502" lon="6.43897">
        <ele>436</ele>
        <time>2022-09-26T13:09:05Z</time>
      </trkpt>
      <trkpt lat="48.15503" lon="6.43896">
        <ele>436</ele>
        <time>2022-09-26T13:09:06Z</time>
      </trkpt>
      <trkpt lat="48.15504" lon="6.43892">
        <ele>436</ele>
        <time>2022-09-26T13:09:07Z</time>
      </trkpt>
      <trkpt lat="48.15506" lon="6.43887">
        <ele>437</ele>
        <time>2022-09-26T13:09:08Z</time>
      </trkpt>
      <trkpt lat="48.15508" lon="6.43884">
        <ele>437</ele>
        <time>2022-09-26T13:09:09Z</time>
      </trkpt>
      <trkpt lat="48.15509" lon="6.43882">
        <ele>438</ele>
        <time>2022-09-26T13:09:10Z</time>
      </trkpt>
      <trkpt lat="48.1551" lon="6.4388">
        <ele>438</ele>
        <time>2022-09-26T13:09:11Z</time>
      </trkpt>
      <trkpt lat="48.15511" lon="6.43877">
        <ele>438</ele>
        <time>2022-09-26T13:09:12Z</time>
      </trkpt>
      <trkpt lat="48.15512" lon="6.43874">
        <ele>439</ele>
        <time>2022-09-26T13:09:13Z</time>
      </trkpt>
      <trkpt lat="48.15512" lon="6.43872">
        <ele>439</ele>
        <time>2022-09-26T13:09:14Z</time>
      </trkpt>
      <trkpt lat="48.15513" lon="6.43869">
        <ele>439</ele>
        <time>2022-09-26T13:09:15Z</time>
      </trkpt>
      <trkpt lat="48.15514" lon="6.43867">
        <ele>439</ele>
        <time>2022-09-26T13:09:16Z</time>
      </trkpt>
      <trkpt lat="48.15515" lon="6.43864">
        <ele>439</ele>
        <time>2022-09-26T13:09:17Z</time>
      </trkpt>
      <trkpt lat="48.15516" lon="6.4386">
        <ele>440</ele>
        <time>2022-09-26T13:09:18Z</time>
      </trkpt>
      <trkpt lat="48.15517" lon="6.43855">
        <ele>440</ele>
        <time>2022-09-26T13:09:19Z</time>
      </trkpt>
      <trkpt lat="48.15517" lon="6.43851">
        <ele>440</ele>
        <time>2022-09-26T13:09:20Z</time>
      </trkpt>
      <trkpt lat="48.15518" lon="6.43844">
        <ele>440</ele>
        <time>2022-09-26T13:09:21Z</time>
      </trkpt>
      <trkpt lat="48.15517" lon="6.43836">
        <ele>440</ele>
        <time>2022-09-26T13:09:22Z</time>
      </trkpt>
      <trkpt lat="48.15518" lon="6.4383">
        <ele>440</ele>
        <time>2022-09-26T13:09:23Z</time>
      </trkpt>
      <trkpt lat="48.15519" lon="6.43823">
        <ele>440</ele>
        <time>2022-09-26T13:09:24Z</time>
      </trkpt>
      <trkpt lat="48.1552" lon="6.43817">
        <ele>440</ele>
        <time>2022-09-26T13:09:25Z</time>
      </trkpt>
      <trkpt lat="48.15521" lon="6.4381">
        <ele>440</ele>
        <time>2022-09-26T13:09:26Z</time>
      </trkpt>
      <trkpt lat="48.15521" lon="6.43803">
        <ele>440</ele>
        <time>2022-09-26T13:09:27Z</time>
      </trkpt>
      <trkpt lat="48.15522" lon="6.43795">
        <ele>440</ele>
        <time>2022-09-26T13:09:28Z</time>
      </trkpt>
      <trkpt lat="48.15522" lon="6.43787">
        <ele>440</ele>
        <time>2022-09-26T13:09:29Z</time>
      </trkpt>
      <trkpt lat="48.15521" lon="6.43781">
        <ele>440</ele>
        <time>2022-09-26T13:09:30Z</time>
      </trkpt>
      <trkpt lat="48.15519" lon="6.43776">
        <ele>439</ele>
        <time>2022-09-26T13:09:31Z</time>
      </trkpt>
      <trkpt lat="48.15517" lon="6.43772">
        <ele>438</ele>
        <time>2022-09-26T13:09:32Z</time>
      </trkpt>
      <trkpt lat="48.15515" lon="6.43769">
        <ele>438</ele>
        <time>2022-09-26T13:09:33Z</time>
      </trkpt>
      <trkpt lat="48.15514" lon="6.43765">
        <ele>437</ele>
        <time>2022-09-26T13:09:34Z</time>
      </trkpt>
      <trkpt lat="48.15512" lon="6.43759">
        <ele>436</ele>
        <time>2022-09-26T13:09:35Z</time>
      </trkpt>
      <trkpt lat="48.15511" lon="6.43752">
        <ele>435</ele>
        <time>2022-09-26T13:09:36Z</time>
      </trkpt>
      <trkpt lat="48.1551" lon="6.43746">
        <ele>435</ele>
        <time>2022-09-26T13:09:37Z</time>
      </trkpt>
      <trkpt lat="48.15511" lon="6.43742">
        <ele>435</ele>
        <time>2022-09-26T13:09:38Z</time>
      </trkpt>
      <trkpt lat="48.15511" lon="6.43738">
        <ele>434</ele>
        <time>2022-09-26T13:09:39Z</time>
      </trkpt>
      <trkpt lat="48.1551" lon="6.43734">
        <ele>434</ele>
        <time>2022-09-26T13:09:40Z</time>
      </trkpt>
      <trkpt lat="48.15509" lon="6.43729">
        <ele>434</ele>
        <time>2022-09-26T13:09:41Z</time>
      </trkpt>
      <trkpt lat="48.15508" lon="6.43725">
        <ele>433</ele>
        <time>2022-09-26T13:09:42Z</time>
      </trkpt>
      <trkpt lat="48.15506" lon="6.43721">
        <ele>433</ele>
        <time>2022-09-26T13:09:43Z</time>
      </trkpt>
      <trkpt lat="48.15505" lon="6.43716">
        <ele>432</ele>
        <time>2022-09-26T13:09:44Z</time>
      </trkpt>
      <trkpt lat="48.15503" lon="6.43712">
        <ele>432</ele>
        <time>2022-09-26T13:09:45Z</time>
      </trkpt>
      <trkpt lat="48.15501" lon="6.43707">
        <ele>432</ele>
        <time>2022-09-26T13:09:46Z</time>
      </trkpt>
      <trkpt lat="48.15497" lon="6.43704">
        <ele>431</ele>
        <time>2022-09-26T13:09:47Z</time>
      </trkpt>
      <trkpt lat="48.15492" lon="6.43701">
        <ele>430</ele>
        <time>2022-09-26T13:09:48Z</time>
      </trkpt>
      <trkpt lat="48.15488" lon="6.43697">
        <ele>429</ele>
        <time>2022-09-26T13:09:49Z</time>
      </trkpt>
      <trkpt lat="48.15484" lon="6.43696">
        <ele>428</ele>
        <time>2022-09-26T13:09:50Z</time>
      </trkpt>
      <trkpt lat="48.15481" lon="6.43694">
        <ele>427</ele>
        <time>2022-09-26T13:09:51Z</time>
      </trkpt>
      <trkpt lat="48.15479" lon="6.4369">
        <ele>427</ele>
        <time>2022-09-26T13:09:52Z</time>
      </trkpt>
      <trkpt lat="48.15477" lon="6.43687">
        <ele>427</ele>
        <time>2022-09-26T13:09:53Z</time>
      </trkpt>
      <trkpt lat="48.15474" lon="6.43683">
        <ele>427</ele>
        <time>2022-09-26T13:09:54Z</time>
      </trkpt>
      <trkpt lat="48.15472" lon="6.43679">
        <ele>427</ele>
        <time>2022-09-26T13:09:55Z</time>
      </trkpt>
      <trkpt lat="48.1547" lon="6.43677">
        <ele>427</ele>
        <time>2022-09-26T13:09:56Z</time>
      </trkpt>
      <trkpt lat="48.15468" lon="6.43674">
        <ele>427</ele>
        <time>2022-09-26T13:09:57Z</time>
      </trkpt>
      <trkpt lat="48.15466" lon="6.4367">
        <ele>428</ele>
        <time>2022-09-26T13:09:58Z</time>
      </trkpt>
      <trkpt lat="48.15464" lon="6.43666">
        <ele>428</ele>
        <time>2022-09-26T13:09:59Z</time>
      </trkpt>
      <trkpt lat="48.15463" lon="6.43663">
        <ele>428</ele>
        <time>2022-09-26T13:10:00Z</time>
      </trkpt>
      <trkpt lat="48.15461" lon="6.4366">
        <ele>428</ele>
        <time>2022-09-26T13:10:01Z</time>
      </trkpt>
      <trkpt lat="48.15459" lon="6.43656">
        <ele>428</ele>
        <time>2022-09-26T13:10:02Z</time>
      </trkpt>
      <trkpt lat="48.15458" lon="6.43652">
        <ele>429</ele>
        <time>2022-09-26T13:10:03Z</time>
      </trkpt>
      <trkpt lat="48.15457" lon="6.43648">
        <ele>429</ele>
        <time>2022-09-26T13:10:04Z</time>
      </trkpt>
      <trkpt lat="48.15455" lon="6.43645">
        <ele>429</ele>
        <time>2022-09-26T13:10:05Z</time>
      </trkpt>
      <trkpt lat="48.15454" lon="6.43642">
        <ele>430</ele>
        <time>2022-09-26T13:10:06Z</time>
      </trkpt>
      <trkpt lat="48.15453" lon="6.43639">
        <ele>430</ele>
        <time>2022-09-26T13:10:07Z</time>
      </trkpt>
      <trkpt lat="48.15452" lon="6.43637">
        <ele>430</ele>
        <time>2022-09-26T13:10:08Z</time>
      </trkpt>
      <trkpt lat="48.15451" lon="6.43635">
        <ele>430</ele>
        <time>2022-09-26T13:10:09Z</time>
      </trkpt>
      <trkpt lat="48.15451" lon="6.43633">
        <ele>431</ele>
        <time>2022-09-26T13:10:10Z</time>
      </trkpt>
      <trkpt lat="48.1545" lon="6.4363">
        <ele>431</ele>
        <time>2022-09-26T13:10:11Z</time>
      </trkpt>
      <trkpt lat="48.15449" lon="6.43626">
        <ele>431</ele>
        <time>2022-09-26T13:10:12Z</time>
      </trkpt>
      <trkpt lat="48.15448" lon="6.43623">
        <ele>431</ele>
        <time>2022-09-26T13:10:13Z</time>
      </trkpt>
      <trkpt lat="48.15447" lon="6.4362">
        <ele>432</ele>
        <time>2022-09-26T13:10:14Z</time>
      </trkpt>
      <trkpt lat="48.15446" lon="6.43617">
        <ele>432</ele>
        <time>2022-09-26T13:10:15Z</time>
      </trkpt>
      <trkpt lat="48.15445" lon="6.43612">
        <ele>433</ele>
        <time>2022-09-26T13:10:16Z</time>
      </trkpt>
      <trkpt lat="48.15444" lon="6.43608">
        <ele>433</ele>
        <time>2022-09-26T13:10:17Z</time>
      </trkpt>
      <trkpt lat="48.15444" lon="6.43604">
        <ele>433</ele>
        <time>2022-09-26T13:10:18Z</time>
      </trkpt>
      <trkpt lat="48.15443" lon="6.43601">
        <ele>434</ele>
        <time>2022-09-26T13:10:19Z</time>
      </trkpt>
      <trkpt lat="48.15447" lon="6.43613">
        <ele>433</ele>
        <time>2022-09-26T13:10:20Z</time>
      </trkpt>
      <trkpt lat="48.15448" lon="6.43614">
        <ele>433</ele>
        <time>2022-09-26T13:10:21Z</time>
      </trkpt>
      <trkpt lat="48.15448" lon="6.43613">
        <ele>433</ele>
        <time>2022-09-26T13:10:22Z</time>
      </trkpt>
      <trkpt lat="48.15447" lon="6.4361">
        <ele>433</ele>
        <time>2022-09-26T13:10:23Z</time>
      </trkpt>
      <trkpt lat="48.15446" lon="6.43607">
        <ele>433</ele>
        <time>2022-09-26T13:10:24Z</time>
      </trkpt>
      <trkpt lat="48.15446" lon="6.43604">
        <ele>434</ele>
        <time>2022-09-26T13:10:25Z</time>
      </trkpt>
      <trkpt lat="48.15444" lon="6.436">
        <ele>434</ele>
        <time>2022-09-26T13:10:26Z</time>
      </trkpt>
      <trkpt lat="48.15443" lon="6.43596">
        <ele>434</ele>
        <time>2022-09-26T13:10:27Z</time>
      </trkpt>
      <trkpt lat="48.15443" lon="6.43594">
        <ele>434</ele>
        <time>2022-09-26T13:10:28Z</time>
      </trkpt>
      <trkpt lat="48.15442" lon="6.43591">
        <ele>435</ele>
        <time>2022-09-26T13:10:29Z</time>
      </trkpt>
      <trkpt lat="48.15442" lon="6.43589">
        <ele>435</ele>
        <time>2022-09-26T13:10:30Z</time>
      </trkpt>
      <trkpt lat="48.15442" lon="6.43585">
        <ele>435</ele>
        <time>2022-09-26T13:10:31Z</time>
      </trkpt>
      <trkpt lat="48.15441" lon="6.43582">
        <ele>436</ele>
        <time>2022-09-26T13:10:32Z</time>
      </trkpt>
      <trkpt lat="48.15441" lon="6.43579">
        <ele>436</ele>
        <time>2022-09-26T13:10:33Z</time>
      </trkpt>
      <trkpt lat="48.1544" lon="6.43575">
        <ele>436</ele>
        <time>2022-09-26T13:10:34Z</time>
      </trkpt>
      <trkpt lat="48.15439" lon="6.43572">
        <ele>436</ele>
        <time>2022-09-26T13:10:35Z</time>
      </trkpt>
      <trkpt lat="48.15439" lon="6.43569">
        <ele>436</ele>
        <time>2022-09-26T13:10:36Z</time>
      </trkpt>
      <trkpt lat="48.15438" lon="6.43566">
        <ele>437</ele>
        <time>2022-09-26T13:10:37Z</time>
      </trkpt>
      <trkpt lat="48.15438" lon="6.43563">
        <ele>437</ele>
        <time>2022-09-26T13:10:38Z</time>
      </trkpt>
      <trkpt lat="48.15437" lon="6.43559">
        <ele>437</ele>
        <time>2022-09-26T13:10:39Z</time>
      </trkpt>
      <trkpt lat="48.15437" lon="6.43556">
        <ele>437</ele>
        <time>2022-09-26T13:10:40Z</time>
      </trkpt>
      <trkpt lat="48.15436" lon="6.43552">
        <ele>438</ele>
        <time>2022-09-26T13:10:41Z</time>
      </trkpt>
      <trkpt lat="48.15435" lon="6.43548">
        <ele>438</ele>
        <time>2022-09-26T13:10:42Z</time>
      </trkpt>
      <trkpt lat="48.15434" lon="6.43546">
        <ele>438</ele>
        <time>2022-09-26T13:10:43Z</time>
      </trkpt>
      <trkpt lat="48.15434" lon="6.43544">
        <ele>438</ele>
        <time>2022-09-26T13:10:44Z</time>
      </trkpt>
      <trkpt lat="48.15433" lon="6.43541">
        <ele>439</ele>
        <time>2022-09-26T13:10:45Z</time>
      </trkpt>
      <trkpt lat="48.15433" lon="6.43538">
        <ele>439</ele>
        <time>2022-09-26T13:10:46Z</time>
      </trkpt>
      <trkpt lat="48.15432" lon="6.43534">
        <ele>439</ele>
        <time>2022-09-26T13:10:47Z</time>
      </trkpt>
      <trkpt lat="48.15431" lon="6.43529">
        <ele>439</ele>
        <time>2022-09-26T13:10:48Z</time>
      </trkpt>
      <trkpt lat="48.1543" lon="6.43525">
        <ele>440</ele>
        <time>2022-09-26T13:10:49Z</time>
      </trkpt>
      <trkpt lat="48.15429" lon="6.4352">
        <ele>440</ele>
        <time>2022-09-26T13:10:50Z</time>
      </trkpt>
      <trkpt lat="48.15428" lon="6.43514">
        <ele>440</ele>
        <time>2022-09-26T13:10:51Z</time>
      </trkpt>
      <trkpt lat="48.15427" lon="6.4351">
        <ele>440</ele>
        <time>2022-09-26T13:10:52Z</time>
      </trkpt>
      <trkpt lat="48.15426" lon="6.43505">
        <ele>440</ele>
        <time>2022-09-26T13:10:53Z</time>
      </trkpt>
      <trkpt lat="48.15426" lon="6.43499">
        <ele>441</ele>
        <time>2022-09-26T13:10:54Z</time>
      </trkpt>
      <trkpt lat="48.15425" lon="6.43493">
        <ele>441</ele>
        <time>2022-09-26T13:10:55Z</time>
      </trkpt>
      <trkpt lat="48.15424" lon="6.43485">
        <ele>441</ele>
        <time>2022-09-26T13:10:56Z</time>
      </trkpt>
      <trkpt lat="48.15423" lon="6.43479">
        <ele>441</ele>
        <time>2022-09-26T13:10:57Z</time>
      </trkpt>
      <trkpt lat="48.15423" lon="6.43473">
        <ele>440</ele>
        <time>2022-09-26T13:10:58Z</time>
      </trkpt>
      <trkpt lat="48.15422" lon="6.43468">
        <ele>440</ele>
        <time>2022-09-26T13:10:59Z</time>
      </trkpt>
      <trkpt lat="48.15422" lon="6.43463">
        <ele>440</ele>
        <time>2022-09-26T13:11:00Z</time>
      </trkpt>
      <trkpt lat="48.15421" lon="6.43458">
        <ele>440</ele>
        <time>2022-09-26T13:11:01Z</time>
      </trkpt>
      <trkpt lat="48.15421" lon="6.43454">
        <ele>440</ele>
        <time>2022-09-26T13:11:02Z</time>
      </trkpt>
      <trkpt lat="48.15421" lon="6.43449">
        <ele>440</ele>
        <time>2022-09-26T13:11:03Z</time>
      </trkpt>
      <trkpt lat="48.1542" lon="6.43445">
        <ele>440</ele>
        <time>2022-09-26T13:11:04Z</time>
      </trkpt>
      <trkpt lat="48.1542" lon="6.43438">
        <ele>440</ele>
        <time>2022-09-26T13:11:05Z</time>
      </trkpt>
      <trkpt lat="48.15417" lon="6.43422">
        <ele>439</ele>
        <time>2022-09-26T13:11:06Z</time>
      </trkpt>
      <trkpt lat="48.15415" lon="6.43408">
        <ele>438</ele>
        <time>2022-09-26T13:11:07Z</time>
      </trkpt>
      <trkpt lat="48.15413" lon="6.43398">
        <ele>438</ele>
        <time>2022-09-26T13:11:08Z</time>
      </trkpt>
      <trkpt lat="48.15412" lon="6.43389">
        <ele>437</ele>
        <time>2022-09-26T13:11:09Z</time>
      </trkpt>
      <trkpt lat="48.15411" lon="6.43384">
        <ele>437</ele>
        <time>2022-09-26T13:11:10Z</time>
      </trkpt>
      <trkpt lat="48.15411" lon="6.4338">
        <ele>437</ele>
        <time>2022-09-26T13:11:11Z</time>
      </trkpt>
      <trkpt lat="48.15411" lon="6.43379">
        <ele>437</ele>
        <time>2022-09-26T13:11:12Z</time>
      </trkpt>
      <trkpt lat="48.15411" lon="6.43377">
        <ele>437</ele>
        <time>2022-09-26T13:11:13Z</time>
      </trkpt>
      <trkpt lat="48.1541" lon="6.43373">
        <ele>436</ele>
        <time>2022-09-26T13:11:14Z</time>
      </trkpt>
      <trkpt lat="48.1541" lon="6.43371">
        <ele>436</ele>
        <time>2022-09-26T13:11:15Z</time>
      </trkpt>
      <trkpt lat="48.15409" lon="6.43368">
        <ele>436</ele>
        <time>2022-09-26T13:11:16Z</time>
      </trkpt>
      <trkpt lat="48.15409" lon="6.43366">
        <ele>435</ele>
        <time>2022-09-26T13:11:17Z</time>
      </trkpt>
      <trkpt lat="48.15409" lon="6.43364">
        <ele>435</ele>
        <time>2022-09-26T13:11:18Z</time>
      </trkpt>
      <trkpt lat="48.15409" lon="6.43362">
        <ele>435</ele>
        <time>2022-09-26T13:11:19Z</time>
      </trkpt>
      <trkpt lat="48.15409" lon="6.4336">
        <ele>435</ele>
        <time>2022-09-26T13:11:20Z</time>
      </trkpt>
      <trkpt lat="48.15409" lon="6.43358">
        <ele>435</ele>
        <time>2022-09-26T13:11:21Z</time>
      </trkpt>
      <trkpt lat="48.1541" lon="6.43355">
        <ele>435</ele>
        <time>2022-09-26T13:11:22Z</time>
      </trkpt>
      <trkpt lat="48.1541" lon="6.43353">
        <ele>435</ele>
        <time>2022-09-26T13:11:23Z</time>
      </trkpt>
      <trkpt lat="48.15411" lon="6.4335">
        <ele>435</ele>
        <time>2022-09-26T13:11:24Z</time>
      </trkpt>
      <trkpt lat="48.15412" lon="6.43348">
        <ele>435</ele>
        <time>2022-09-26T13:11:25Z</time>
      </trkpt>
      <trkpt lat="48.15412" lon="6.43346">
        <ele>435</ele>
        <time>2022-09-26T13:11:26Z</time>
      </trkpt>
      <trkpt lat="48.15413" lon="6.43344">
        <ele>436</ele>
        <time>2022-09-26T13:11:27Z</time>
      </trkpt>
      <trkpt lat="48.15414" lon="6.43341">
        <ele>436</ele>
        <time>2022-09-26T13:11:28Z</time>
      </trkpt>
      <trkpt lat="48.15415" lon="6.43339">
        <ele>436</ele>
        <time>2022-09-26T13:11:29Z</time>
      </trkpt>
      <trkpt lat="48.15416" lon="6.43337">
        <ele>436</ele>
        <time>2022-09-26T13:11:30Z</time>
      </trkpt>
      <trkpt lat="48.15417" lon="6.43335">
        <ele>437</ele>
        <time>2022-09-26T13:11:31Z</time>
      </trkpt>
      <trkpt lat="48.15418" lon="6.43333">
        <ele>437</ele>
        <time>2022-09-26T13:11:32Z</time>
      </trkpt>
      <trkpt lat="48.15419" lon="6.43331">
        <ele>437</ele>
        <time>2022-09-26T13:11:33Z</time>
      </trkpt>
      <trkpt lat="48.1542" lon="6.43329">
        <ele>438</ele>
        <time>2022-09-26T13:11:34Z</time>
      </trkpt>
      <trkpt lat="48.15421" lon="6.43327">
        <ele>438</ele>
        <time>2022-09-26T13:11:35Z</time>
      </trkpt>
      <trkpt lat="48.15422" lon="6.43325">
        <ele>438</ele>
        <time>2022-09-26T13:11:36Z</time>
      </trkpt>
      <trkpt lat="48.15423" lon="6.43323">
        <ele>438</ele>
        <time>2022-09-26T13:11:37Z</time>
      </trkpt>
      <trkpt lat="48.15424" lon="6.43321">
        <ele>439</ele>
        <time>2022-09-26T13:11:38Z</time>
      </trkpt>
      <trkpt lat="48.15425" lon="6.43319">
        <ele>439</ele>
        <time>2022-09-26T13:11:39Z</time>
      </trkpt>
      <trkpt lat="48.15426" lon="6.43317">
        <ele>439</ele>
        <time>2022-09-26T13:11:40Z</time>
      </trkpt>
      <trkpt lat="48.15424" lon="6.43328">
        <ele>439</ele>
        <time>2022-09-26T13:11:41Z</time>
      </trkpt>
      <trkpt lat="48.15424" lon="6.4333">
        <ele>439</ele>
        <time>2022-09-26T13:11:42Z</time>
      </trkpt>
      <trkpt lat="48.15425" lon="6.43329">
        <ele>439</ele>
        <time>2022-09-26T13:11:43Z</time>
      </trkpt>
      <trkpt lat="48.15426" lon="6.43326">
        <ele>440</ele>
        <time>2022-09-26T13:11:44Z</time>
      </trkpt>
      <trkpt lat="48.15428" lon="6.43324">
        <ele>440</ele>
        <time>2022-09-26T13:11:45Z</time>
      </trkpt>
      <trkpt lat="48.15429" lon="6.43322">
        <ele>441</ele>
        <time>2022-09-26T13:11:46Z</time>
      </trkpt>
      <trkpt lat="48.15431" lon="6.4332">
        <ele>441</ele>
        <time>2022-09-26T13:11:47Z</time>
      </trkpt>
      <trkpt lat="48.15433" lon="6.43318">
        <ele>442</ele>
        <time>2022-09-26T13:11:48Z</time>
      </trkpt>
      <trkpt lat="48.15435" lon="6.43317">
        <ele>442</ele>
        <time>2022-09-26T13:11:49Z</time>
      </trkpt>
      <trkpt lat="48.15436" lon="6.43316">
        <ele>443</ele>
        <time>2022-09-26T13:11:50Z</time>
      </trkpt>
      <trkpt lat="48.15438" lon="6.43314">
        <ele>443</ele>
        <time>2022-09-26T13:11:51Z</time>
      </trkpt>
      <trkpt lat="48.1544" lon="6.43311">
        <ele>444</ele>
        <time>2022-09-26T13:11:52Z</time>
      </trkpt>
      <trkpt lat="48.15442" lon="6.43308">
        <ele>445</ele>
        <time>2022-09-26T13:11:53Z</time>
      </trkpt>
      <trkpt lat="48.15444" lon="6.43305">
        <ele>445</ele>
        <time>2022-09-26T13:11:54Z</time>
      </trkpt>
      <trkpt lat="48.15445" lon="6.43305">
        <ele>445</ele>
        <time>2022-09-26T13:11:55Z</time>
      </trkpt>
      <trkpt lat="48.15446" lon="6.43304">
        <ele>446</ele>
        <time>2022-09-26T13:11:56Z</time>
      </trkpt>
      <trkpt lat="48.15446" lon="6.43303">
        <ele>446</ele>
        <time>2022-09-26T13:11:57Z</time>
      </trkpt>
      <trkpt lat="48.15446" lon="6.43303">
        <ele>446</ele>
        <time>2022-09-26T13:11:58Z</time>
      </trkpt>
      <trkpt lat="48.15447" lon="6.43303">
        <ele>446</ele>
        <time>2022-09-26T13:11:59Z</time>
      </trkpt>
      <trkpt lat="48.15447" lon="6.43303">
        <ele>446</ele>
        <time>2022-09-26T13:12:00Z</time>
      </trkpt>
      <trkpt lat="48.15447" lon="6.43303">
        <ele>446</ele>
        <time>2022-09-26T13:12:01Z</time>
      </trkpt>
      <trkpt lat="48.15447" lon="6.43303">
        <ele>446</ele>
        <time>2022-09-26T13:12:02Z</time>
      </trkpt>
      <trkpt lat="48.15447" lon="6.43303">
        <ele>446</ele>
        <time>2022-09-26T13:12:03Z</time>
      </trkpt>
      <trkpt lat="48.15447" lon="6.43303">
        <ele>446</ele>
        <time>2022-09-26T13:12:04Z</time>
      </trkpt>
      <trkpt lat="48.15447" lon="6.43303">
        <ele>446</ele>
        <time>2022-09-26T13:12:05Z</time>
      </trkpt>
      <trkpt lat="48.15447" lon="6.43303">
        <ele>446</ele>
        <time>2022-09-26T13:12:06Z</time>
      </trkpt>
      <trkpt lat="48.15447" lon="6.43303">
        <ele>446</ele>
        <time>2022-09-26T13:12:07Z</time>
      </trkpt>
      <trkpt lat="48.15447" lon="6.43303">
        <ele>446</ele>
        <time>2022-09-26T13:12:08Z</time>
      </trkpt>
      <trkpt lat="48.15447" lon="6.43303">
        <ele>446</ele>
        <time>2022-09-26T13:12:09Z</time>
      </trkpt>
      <trkpt lat="48.15454" lon="6.43282">
        <ele>446</ele>
        <time>2022-09-26T13:12:23Z</time>
      </trkpt>
      <trkpt lat="48.15457" lon="6.43279">
        <ele>446</ele>
        <time>2022-09-26T13:12:24Z</time>
      </trkpt>
      <trkpt lat="48.15459" lon="6.43276">
        <ele>446</ele>
        <time>2022-09-26T13:12:25Z</time>
      </trkpt>
      <trkpt lat="48.15461" lon="6.43274">
        <ele>447</ele>
        <time>2022-09-26T13:12:26Z</time>
      </trkpt>
      <trkpt lat="48.15463" lon="6.43272">
        <ele>447</ele>
        <time>2022-09-26T13:12:27Z</time>
      </trkpt>
      <trkpt lat="48.15465" lon="6.4327">
        <ele>447</ele>
        <time>2022-09-26T13:12:28Z</time>
      </trkpt>
      <trkpt lat="48.15467" lon="6.43269">
        <ele>447</ele>
        <time>2022-09-26T13:12:29Z</time>
      </trkpt>
      <trkpt lat="48.15469" lon="6.43266">
        <ele>447</ele>
        <time>2022-09-26T13:12:30Z</time>
      </trkpt>
      <trkpt lat="48.15471" lon="6.43264">
        <ele>447</ele>
        <time>2022-09-26T13:12:31Z</time>
      </trkpt>
      <trkpt lat="48.15474" lon="6.43261">
        <ele>447</ele>
        <time>2022-09-26T13:12:32Z</time>
      </trkpt>
      <trkpt lat="48.15475" lon="6.43258">
        <ele>447</ele>
        <time>2022-09-26T13:12:33Z</time>
      </trkpt>
      <trkpt lat="48.15476" lon="6.43255">
        <ele>447</ele>
        <time>2022-09-26T13:12:34Z</time>
      </trkpt>
      <trkpt lat="48.15478" lon="6.43253">
        <ele>447</ele>
        <time>2022-09-26T13:12:35Z</time>
      </trkpt>
      <trkpt lat="48.1548" lon="6.43252">
        <ele>447</ele>
        <time>2022-09-26T13:12:36Z</time>
      </trkpt>
      <trkpt lat="48.15481" lon="6.43249">
        <ele>446</ele>
        <time>2022-09-26T13:12:37Z</time>
      </trkpt>
      <trkpt lat="48.15483" lon="6.43246">
        <ele>446</ele>
        <time>2022-09-26T13:12:38Z</time>
      </trkpt>
      <trkpt lat="48.15485" lon="6.43243">
        <ele>446</ele>
        <time>2022-09-26T13:12:39Z</time>
      </trkpt>
      <trkpt lat="48.15486" lon="6.43241">
        <ele>446</ele>
        <time>2022-09-26T13:12:40Z</time>
      </trkpt>
      <trkpt lat="48.15487" lon="6.43239">
        <ele>445</ele>
        <time>2022-09-26T13:12:41Z</time>
      </trkpt>
      <trkpt lat="48.15489" lon="6.43237">
        <ele>445</ele>
        <time>2022-09-26T13:12:42Z</time>
      </trkpt>
      <trkpt lat="48.1549" lon="6.43235">
        <ele>445</ele>
        <time>2022-09-26T13:12:43Z</time>
      </trkpt>
      <trkpt lat="48.15493" lon="6.43234">
        <ele>445</ele>
        <time>2022-09-26T13:12:44Z</time>
      </trkpt>
      <trkpt lat="48.15495" lon="6.43233">
        <ele>445</ele>
        <time>2022-09-26T13:12:45Z</time>
      </trkpt>
      <trkpt lat="48.15497" lon="6.43232">
        <ele>445</ele>
        <time>2022-09-26T13:12:46Z</time>
      </trkpt>
      <trkpt lat="48.15498" lon="6.4323">
        <ele>445</ele>
        <time>2022-09-26T13:12:47Z</time>
      </trkpt>
      <trkpt lat="48.15501" lon="6.43228">
        <ele>445</ele>
        <time>2022-09-26T13:12:48Z</time>
      </trkpt>
      <trkpt lat="48.15503" lon="6.43226">
        <ele>445</ele>
        <time>2022-09-26T13:12:49Z</time>
      </trkpt>
      <trkpt lat="48.15505" lon="6.43224">
        <ele>445</ele>
        <time>2022-09-26T13:12:50Z</time>
      </trkpt>
      <trkpt lat="48.15507" lon="6.43221">
        <ele>445</ele>
        <time>2022-09-26T13:12:51Z</time>
      </trkpt>
      <trkpt lat="48.15509" lon="6.43219">
        <ele>445</ele>
        <time>2022-09-26T13:12:52Z</time>
      </trkpt>
      <trkpt lat="48.1551" lon="6.43217">
        <ele>445</ele>
        <time>2022-09-26T13:12:53Z</time>
      </trkpt>
      <trkpt lat="48.15512" lon="6.43215">
        <ele>445</ele>
        <time>2022-09-26T13:12:54Z</time>
      </trkpt>
      <trkpt lat="48.15515" lon="6.43212">
        <ele>445</ele>
        <time>2022-09-26T13:12:55Z</time>
      </trkpt>
      <trkpt lat="48.15517" lon="6.4321">
        <ele>445</ele>
        <time>2022-09-26T13:12:56Z</time>
      </trkpt>
      <trkpt lat="48.1552" lon="6.43208">
        <ele>445</ele>
        <time>2022-09-26T13:12:57Z</time>
      </trkpt>
      <trkpt lat="48.15522" lon="6.43206">
        <ele>445</ele>
        <time>2022-09-26T13:12:58Z</time>
      </trkpt>
      <trkpt lat="48.15524" lon="6.43205">
        <ele>445</ele>
        <time>2022-09-26T13:12:59Z</time>
      </trkpt>
      <trkpt lat="48.15527" lon="6.43202">
        <ele>445</ele>
        <time>2022-09-26T13:13:00Z</time>
      </trkpt>
      <trkpt lat="48.1553" lon="6.432">
        <ele>444</ele>
        <time>2022-09-26T13:13:01Z</time>
      </trkpt>
      <trkpt lat="48.15531" lon="6.43198">
        <ele>444</ele>
        <time>2022-09-26T13:13:02Z</time>
      </trkpt>
      <trkpt lat="48.15533" lon="6.43196">
        <ele>444</ele>
        <time>2022-09-26T13:13:03Z</time>
      </trkpt>
      <trkpt lat="48.15535" lon="6.43194">
        <ele>444</ele>
        <time>2022-09-26T13:13:04Z</time>
      </trkpt>
      <trkpt lat="48.15538" lon="6.4319">
        <ele>443</ele>
        <time>2022-09-26T13:13:05Z</time>
      </trkpt>
      <trkpt lat="48.15541" lon="6.43188">
        <ele>443</ele>
        <time>2022-09-26T13:13:06Z</time>
      </trkpt>
      <trkpt lat="48.15544" lon="6.43186">
        <ele>442</ele>
        <time>2022-09-26T13:13:07Z</time>
      </trkpt>
      <trkpt lat="48.15546" lon="6.43184">
        <ele>442</ele>
        <time>2022-09-26T13:13:08Z</time>
      </trkpt>
      <trkpt lat="48.15549" lon="6.43183">
        <ele>442</ele>
        <time>2022-09-26T13:13:09Z</time>
      </trkpt>
      <trkpt lat="48.15551" lon="6.43181">
        <ele>442</ele>
        <time>2022-09-26T13:13:10Z</time>
      </trkpt>
      <trkpt lat="48.15554" lon="6.43177">
        <ele>441</ele>
        <time>2022-09-26T13:13:11Z</time>
      </trkpt>
      <trkpt lat="48.15557" lon="6.43174">
        <ele>441</ele>
        <time>2022-09-26T13:13:12Z</time>
      </trkpt>
      <trkpt lat="48.15559" lon="6.43172">
        <ele>440</ele>
        <time>2022-09-26T13:13:13Z</time>
      </trkpt>
      <trkpt lat="48.15561" lon="6.43169">
        <ele>440</ele>
        <time>2022-09-26T13:13:14Z</time>
      </trkpt>
      <trkpt lat="48.15564" lon="6.43166">
        <ele>439</ele>
        <time>2022-09-26T13:13:15Z</time>
      </trkpt>
      <trkpt lat="48.15567" lon="6.43163">
        <ele>438</ele>
        <time>2022-09-26T13:13:16Z</time>
      </trkpt>
      <trkpt lat="48.15571" lon="6.4316">
        <ele>437</ele>
        <time>2022-09-26T13:13:17Z</time>
      </trkpt>
      <trkpt lat="48.15574" lon="6.43159">
        <ele>437</ele>
        <time>2022-09-26T13:13:18Z</time>
      </trkpt>
      <trkpt lat="48.15573" lon="6.43158">
        <ele>437</ele>
        <time>2022-09-26T13:13:19Z</time>
      </trkpt>
      <trkpt lat="48.15573" lon="6.43158">
        <ele>437</ele>
        <time>2022-09-26T13:13:20Z</time>
      </trkpt>
      <trkpt lat="48.15573" lon="6.43156">
        <ele>436</ele>
        <time>2022-09-26T13:13:21Z</time>
      </trkpt>
      <trkpt lat="48.15573" lon="6.43154">
        <ele>436</ele>
        <time>2022-09-26T13:13:22Z</time>
      </trkpt>
      <trkpt lat="48.15573" lon="6.43151">
        <ele>435</ele>
        <time>2022-09-26T13:13:23Z</time>
      </trkpt>
      <trkpt lat="48.15574" lon="6.43148">
        <ele>434</ele>
        <time>2022-09-26T13:13:24Z</time>
      </trkpt>
      <trkpt lat="48.15574" lon="6.43145">
        <ele>434</ele>
        <time>2022-09-26T13:13:25Z</time>
      </trkpt>
      <trkpt lat="48.15575" lon="6.43142">
        <ele>433</ele>
        <time>2022-09-26T13:13:26Z</time>
      </trkpt>
      <trkpt lat="48.15576" lon="6.4314">
        <ele>433</ele>
        <time>2022-09-26T13:13:27Z</time>
      </trkpt>
      <trkpt lat="48.15577" lon="6.43144">
        <ele>433</ele>
        <time>2022-09-26T13:13:28Z</time>
      </trkpt>
      <trkpt lat="48.15578" lon="6.43144">
        <ele>434</ele>
        <time>2022-09-26T13:13:29Z</time>
      </trkpt>
      <trkpt lat="48.15579" lon="6.43144">
        <ele>433</ele>
        <time>2022-09-26T13:13:30Z</time>
      </trkpt>
      <trkpt lat="48.1558" lon="6.43142">
        <ele>433</ele>
        <time>2022-09-26T13:13:31Z</time>
      </trkpt>
      <trkpt lat="48.15582" lon="6.4314">
        <ele>433</ele>
        <time>2022-09-26T13:13:32Z</time>
      </trkpt>
      <trkpt lat="48.15583" lon="6.43138">
        <ele>432</ele>
        <time>2022-09-26T13:13:33Z</time>
      </trkpt>
      <trkpt lat="48.15585" lon="6.43136">
        <ele>432</ele>
        <time>2022-09-26T13:13:34Z</time>
      </trkpt>
      <trkpt lat="48.15586" lon="6.43134">
        <ele>431</ele>
        <time>2022-09-26T13:13:35Z</time>
      </trkpt>
      <trkpt lat="48.15587" lon="6.43131">
        <ele>431</ele>
        <time>2022-09-26T13:13:36Z</time>
      </trkpt>
      <trkpt lat="48.15588" lon="6.4313">
        <ele>430</ele>
        <time>2022-09-26T13:13:37Z</time>
      </trkpt>
      <trkpt lat="48.15589" lon="6.43129">
        <ele>430</ele>
        <time>2022-09-26T13:13:38Z</time>
      </trkpt>
      <trkpt lat="48.1559" lon="6.43128">
        <ele>430</ele>
        <time>2022-09-26T13:13:39Z</time>
      </trkpt>
      <trkpt lat="48.15591" lon="6.43126">
        <ele>430</ele>
        <time>2022-09-26T13:13:40Z</time>
      </trkpt>
      <trkpt lat="48.15593" lon="6.43125">
        <ele>429</ele>
        <time>2022-09-26T13:13:41Z</time>
      </trkpt>
      <trkpt lat="48.15594" lon="6.43122">
        <ele>429</ele>
        <time>2022-09-26T13:13:42Z</time>
      </trkpt>
      <trkpt lat="48.15595" lon="6.4312">
        <ele>428</ele>
        <time>2022-09-26T13:13:43Z</time>
      </trkpt>
      <trkpt lat="48.15596" lon="6.43119">
        <ele>428</ele>
        <time>2022-09-26T13:13:44Z</time>
      </trkpt>
      <trkpt lat="48.15598" lon="6.43116">
        <ele>428</ele>
        <time>2022-09-26T13:13:45Z</time>
      </trkpt>
      <trkpt lat="48.15599" lon="6.43114">
        <ele>428</ele>
        <time>2022-09-26T13:13:46Z</time>
      </trkpt>
      <trkpt lat="48.15601" lon="6.43112">
        <ele>427</ele>
        <time>2022-09-26T13:13:47Z</time>
      </trkpt>
      <trkpt lat="48.15603" lon="6.43111">
        <ele>427</ele>
        <time>2022-09-26T13:13:48Z</time>
      </trkpt>
      <trkpt lat="48.15606" lon="6.4311">
        <ele>427</ele>
        <time>2022-09-26T13:13:49Z</time>
      </trkpt>
      <trkpt lat="48.15608" lon="6.43108">
        <ele>427</ele>
        <time>2022-09-26T13:13:50Z</time>
      </trkpt>
      <trkpt lat="48.15609" lon="6.43105">
        <ele>427</ele>
        <time>2022-09-26T13:13:51Z</time>
      </trkpt>
      <trkpt lat="48.1561" lon="6.43103">
        <ele>427</ele>
        <time>2022-09-26T13:13:52Z</time>
      </trkpt>
      <trkpt lat="48.15612" lon="6.43101">
        <ele>427</ele>
        <time>2022-09-26T13:13:53Z</time>
      </trkpt>
      <trkpt lat="48.15613" lon="6.43098">
        <ele>427</ele>
        <time>2022-09-26T13:13:54Z</time>
      </trkpt>
      <trkpt lat="48.15615" lon="6.43096">
        <ele>428</ele>
        <time>2022-09-26T13:13:55Z</time>
      </trkpt>
      <trkpt lat="48.15617" lon="6.43093">
        <ele>428</ele>
        <time>2022-09-26T13:13:56Z</time>
      </trkpt>
      <trkpt lat="48.15619" lon="6.43091">
        <ele>428</ele>
        <time>2022-09-26T13:13:57Z</time>
      </trkpt>
      <trkpt lat="48.1562" lon="6.43089">
        <ele>428</ele>
        <time>2022-09-26T13:13:58Z</time>
      </trkpt>
      <trkpt lat="48.15622" lon="6.43088">
        <ele>429</ele>
        <time>2022-09-26T13:13:59Z</time>
      </trkpt>
      <trkpt lat="48.15624" lon="6.43087">
        <ele>429</ele>
        <time>2022-09-26T13:14:00Z</time>
      </trkpt>
      <trkpt lat="48.15627" lon="6.43085">
        <ele>429</ele>
        <time>2022-09-26T13:14:01Z</time>
      </trkpt>
      <trkpt lat="48.15628" lon="6.43084">
        <ele>429</ele>
        <time>2022-09-26T13:14:02Z</time>
      </trkpt>
      <trkpt lat="48.15628" lon="6.43083">
        <ele>430</ele>
        <time>2022-09-26T13:14:03Z</time>
      </trkpt>
      <trkpt lat="48.15628" lon="6.43082">
        <ele>430</ele>
        <time>2022-09-26T13:14:04Z</time>
      </trkpt>
      <trkpt lat="48.15627" lon="6.43079">
        <ele>429</ele>
        <time>2022-09-26T13:14:05Z</time>
      </trkpt>
      <trkpt lat="48.15626" lon="6.4308">
        <ele>429</ele>
        <time>2022-09-26T13:14:06Z</time>
      </trkpt>
      <trkpt lat="48.15626" lon="6.43079">
        <ele>429</ele>
        <time>2022-09-26T13:14:07Z</time>
      </trkpt>
      <trkpt lat="48.15626" lon="6.4308">
        <ele>429</ele>
        <time>2022-09-26T13:14:08Z</time>
      </trkpt>
      <trkpt lat="48.15625" lon="6.43081">
        <ele>429</ele>
        <time>2022-09-26T13:14:09Z</time>
      </trkpt>
      <trkpt lat="48.15626" lon="6.4308">
        <ele>429</ele>
        <time>2022-09-26T13:14:10Z</time>
      </trkpt>
      <trkpt lat="48.15626" lon="6.4308">
        <ele>429</ele>
        <time>2022-09-26T13:14:11Z</time>
      </trkpt>
      <trkpt lat="48.15626" lon="6.4308">
        <ele>429</ele>
        <time>2022-09-26T13:14:12Z</time>
      </trkpt>
      <trkpt lat="48.15626" lon="6.43079">
        <ele>429</ele>
        <time>2022-09-26T13:14:13Z</time>
      </trkpt>
      <trkpt lat="48.15626" lon="6.43079">
        <ele>429</ele>
        <time>2022-09-26T13:14:14Z</time>
      </trkpt>
      <trkpt lat="48.15626" lon="6.43078">
        <ele>429</ele>
        <time>2022-09-26T13:14:15Z</time>
      </trkpt>
      <trkpt lat="48.15626" lon="6.43077">
        <ele>430</ele>
        <time>2022-09-26T13:14:16Z</time>
      </trkpt>
      <trkpt lat="48.15627" lon="6.43076">
        <ele>430</ele>
        <time>2022-09-26T13:14:17Z</time>
      </trkpt>
      <trkpt lat="48.15627" lon="6.43076">
        <ele>430</ele>
        <time>2022-09-26T13:14:18Z</time>
      </trkpt>
      <trkpt lat="48.15627" lon="6.43075">
        <ele>430</ele>
        <time>2022-09-26T13:14:19Z</time>
      </trkpt>
      <trkpt lat="48.15627" lon="6.43075">
        <ele>430</ele>
        <time>2022-09-26T13:14:20Z</time>
      </trkpt>
      <trkpt lat="48.15627" lon="6.43075">
        <ele>430</ele>
        <time>2022-09-26T13:14:21Z</time>
      </trkpt>
      <trkpt lat="48.15627" lon="6.43074">
        <ele>430</ele>
        <time>2022-09-26T13:14:22Z</time>
      </trkpt>
      <trkpt lat="48.1563" lon="6.43068">
        <ele>430</ele>
        <time>2022-09-26T13:15:33Z</time>
      </trkpt>
      <trkpt lat="48.15628" lon="6.43068">
        <ele>430</ele>
        <time>2022-09-26T13:15:34Z</time>
      </trkpt>
      <trkpt lat="48.15627" lon="6.43069">
        <ele>430</ele>
        <time>2022-09-26T13:15:35Z</time>
      </trkpt>
      <trkpt lat="48.15625" lon="6.43071">
        <ele>429</ele>
        <time>2022-09-26T13:15:36Z</time>
      </trkpt>
      <trkpt lat="48.15623" lon="6.43073">
        <ele>429</ele>
        <time>2022-09-26T13:15:37Z</time>
      </trkpt>
      <trkpt lat="48.1562" lon="6.43075">
        <ele>428</ele>
        <time>2022-09-26T13:15:38Z</time>
      </trkpt>
      <trkpt lat="48.15617" lon="6.43077">
        <ele>428</ele>
        <time>2022-09-26T13:15:39Z</time>
      </trkpt>
      <trkpt lat="48.15614" lon="6.43079">
        <ele>427</ele>
        <time>2022-09-26T13:15:40Z</time>
      </trkpt>
      <trkpt lat="48.15611" lon="6.4308">
        <ele>427</ele>
        <time>2022-09-26T13:15:41Z</time>
      </trkpt>
      <trkpt lat="48.15608" lon="6.43081">
        <ele>426</ele>
        <time>2022-09-26T13:15:42Z</time>
      </trkpt>
      <trkpt lat="48.15604" lon="6.43081">
        <ele>426</ele>
        <time>2022-09-26T13:15:43Z</time>
      </trkpt>
      <trkpt lat="48.156" lon="6.43081">
        <ele>425</ele>
        <time>2022-09-26T13:15:44Z</time>
      </trkpt>
      <trkpt lat="48.15597" lon="6.4308">
        <ele>425</ele>
        <time>2022-09-26T13:15:45Z</time>
      </trkpt>
      <trkpt lat="48.15593" lon="6.43079">
        <ele>425</ele>
        <time>2022-09-26T13:15:46Z</time>
      </trkpt>
      <trkpt lat="48.15589" lon="6.43079">
        <ele>424</ele>
        <time>2022-09-26T13:15:47Z</time>
      </trkpt>
      <trkpt lat="48.15585" lon="6.4308">
        <ele>424</ele>
        <time>2022-09-26T13:15:48Z</time>
      </trkpt>
      <trkpt lat="48.1558" lon="6.43079">
        <ele>424</ele>
        <time>2022-09-26T13:15:49Z</time>
      </trkpt>
      <trkpt lat="48.15574" lon="6.43079">
        <ele>423</ele>
        <time>2022-09-26T13:15:50Z</time>
      </trkpt>
      <trkpt lat="48.15567" lon="6.43079">
        <ele>423</ele>
        <time>2022-09-26T13:15:51Z</time>
      </trkpt>
      <trkpt lat="48.15555" lon="6.43083">
        <ele>422</ele>
        <time>2022-09-26T13:15:52Z</time>
      </trkpt>
      <trkpt lat="48.1555" lon="6.43084">
        <ele>421</ele>
        <time>2022-09-26T13:15:53Z</time>
      </trkpt>
      <trkpt lat="48.15544" lon="6.43084">
        <ele>420</ele>
        <time>2022-09-26T13:15:54Z</time>
      </trkpt>
      <trkpt lat="48.15534" lon="6.43086">
        <ele>418</ele>
        <time>2022-09-26T13:15:55Z</time>
      </trkpt>
      <trkpt lat="48.15526" lon="6.43087">
        <ele>417</ele>
        <time>2022-09-26T13:15:56Z</time>
      </trkpt>
      <trkpt lat="48.15521" lon="6.43088">
        <ele>416</ele>
        <time>2022-09-26T13:15:57Z</time>
      </trkpt>
      <trkpt lat="48.15514" lon="6.43089">
        <ele>415</ele>
        <time>2022-09-26T13:15:58Z</time>
      </trkpt>
      <trkpt lat="48.15508" lon="6.43091">
        <ele>415</ele>
        <time>2022-09-26T13:15:59Z</time>
      </trkpt>
      <trkpt lat="48.155" lon="6.43094">
        <ele>414</ele>
        <time>2022-09-26T13:16:00Z</time>
      </trkpt>
      <trkpt lat="48.15494" lon="6.43098">
        <ele>414</ele>
        <time>2022-09-26T13:16:01Z</time>
      </trkpt>
      <trkpt lat="48.15487" lon="6.431">
        <ele>414</ele>
        <time>2022-09-26T13:16:02Z</time>
      </trkpt>
      <trkpt lat="48.15484" lon="6.43104">
        <ele>415</ele>
        <time>2022-09-26T13:16:03Z</time>
      </trkpt>
      <trkpt lat="48.15481" lon="6.43108">
        <ele>415</ele>
        <time>2022-09-26T13:16:04Z</time>
      </trkpt>
      <trkpt lat="48.15477" lon="6.43111">
        <ele>415</ele>
        <time>2022-09-26T13:16:05Z</time>
      </trkpt>
      <trkpt lat="48.15472" lon="6.43109">
        <ele>414</ele>
        <time>2022-09-26T13:16:06Z</time>
      </trkpt>
      <trkpt lat="48.15466" lon="6.43111">
        <ele>414</ele>
        <time>2022-09-26T13:16:07Z</time>
      </trkpt>
      <trkpt lat="48.15461" lon="6.43113">
        <ele>414</ele>
        <time>2022-09-26T13:16:08Z</time>
      </trkpt>
      <trkpt lat="48.15457" lon="6.43115">
        <ele>414</ele>
        <time>2022-09-26T13:16:09Z</time>
      </trkpt>
      <trkpt lat="48.15452" lon="6.43118">
        <ele>415</ele>
        <time>2022-09-26T13:16:10Z</time>
      </trkpt>
      <trkpt lat="48.15443" lon="6.43123">
        <ele>415</ele>
        <time>2022-09-26T13:16:11Z</time>
      </trkpt>
      <trkpt lat="48.1544" lon="6.43125">
        <ele>415</ele>
        <time>2022-09-26T13:16:12Z</time>
      </trkpt>
      <trkpt lat="48.15435" lon="6.43128">
        <ele>416</ele>
        <time>2022-09-26T13:16:13Z</time>
      </trkpt>
      <trkpt lat="48.15428" lon="6.43133">
        <ele>415</ele>
        <time>2022-09-26T13:16:14Z</time>
      </trkpt>
      <trkpt lat="48.15421" lon="6.43134">
        <ele>414</ele>
        <time>2022-09-26T13:16:15Z</time>
      </trkpt>
      <trkpt lat="48.15413" lon="6.43133">
        <ele>412</ele>
        <time>2022-09-26T13:16:16Z</time>
      </trkpt>
      <trkpt lat="48.15408" lon="6.43139">
        <ele>411</ele>
        <time>2022-09-26T13:16:17Z</time>
      </trkpt>
      <trkpt lat="48.15402" lon="6.43143">
        <ele>410</ele>
        <time>2022-09-26T13:16:18Z</time>
      </trkpt>
      <trkpt lat="48.154" lon="6.43147">
        <ele>410</ele>
        <time>2022-09-26T13:16:19Z</time>
      </trkpt>
      <trkpt lat="48.15394" lon="6.43149">
        <ele>409</ele>
        <time>2022-09-26T13:16:20Z</time>
      </trkpt>
      <trkpt lat="48.1539" lon="6.43151">
        <ele>408</ele>
        <time>2022-09-26T13:16:21Z</time>
      </trkpt>
      <trkpt lat="48.15385" lon="6.43153">
        <ele>407</ele>
        <time>2022-09-26T13:16:22Z</time>
      </trkpt>
      <trkpt lat="48.15379" lon="6.43155">
        <ele>406</ele>
        <time>2022-09-26T13:16:23Z</time>
      </trkpt>
      <trkpt lat="48.1537" lon="6.43154">
        <ele>404</ele>
        <time>2022-09-26T13:16:24Z</time>
      </trkpt>
      <trkpt lat="48.15367" lon="6.43157">
        <ele>403</ele>
        <time>2022-09-26T13:16:25Z</time>
      </trkpt>
      <trkpt lat="48.15361" lon="6.43158">
        <ele>402</ele>
        <time>2022-09-26T13:16:26Z</time>
      </trkpt>
      <trkpt lat="48.15357" lon="6.43159">
        <ele>401</ele>
        <time>2022-09-26T13:16:27Z</time>
      </trkpt>
      <trkpt lat="48.15356" lon="6.43164">
        <ele>401</ele>
        <time>2022-09-26T13:16:28Z</time>
      </trkpt>
      <trkpt lat="48.15354" lon="6.43167">
        <ele>400</ele>
        <time>2022-09-26T13:16:29Z</time>
      </trkpt>
      <trkpt lat="48.15351" lon="6.4317">
        <ele>400</ele>
        <time>2022-09-26T13:16:30Z</time>
      </trkpt>
      <trkpt lat="48.15349" lon="6.43173">
        <ele>400</ele>
        <time>2022-09-26T13:16:31Z</time>
      </trkpt>
      <trkpt lat="48.15348" lon="6.43176">
        <ele>399</ele>
        <time>2022-09-26T13:16:32Z</time>
      </trkpt>
      <trkpt lat="48.15347" lon="6.43176">
        <ele>399</ele>
        <time>2022-09-26T13:16:33Z</time>
      </trkpt>
      <trkpt lat="48.15347" lon="6.43175">
        <ele>399</ele>
        <time>2022-09-26T13:16:34Z</time>
      </trkpt>
      <trkpt lat="48.15345" lon="6.43176">
        <ele>399</ele>
        <time>2022-09-26T13:16:35Z</time>
      </trkpt>
      <trkpt lat="48.15343" lon="6.43178">
        <ele>398</ele>
        <time>2022-09-26T13:16:36Z</time>
      </trkpt>
      <trkpt lat="48.15342" lon="6.43179">
        <ele>398</ele>
        <time>2022-09-26T13:16:37Z</time>
      </trkpt>
      <trkpt lat="48.15341" lon="6.43179">
        <ele>398</ele>
        <time>2022-09-26T13:16:38Z</time>
      </trkpt>
      <trkpt lat="48.1534" lon="6.43179">
        <ele>398</ele>
        <time>2022-09-26T13:16:39Z</time>
      </trkpt>
      <trkpt lat="48.1534" lon="6.43179">
        <ele>398</ele>
        <time>2022-09-26T13:16:40Z</time>
      </trkpt>
      <trkpt lat="48.1534" lon="6.43179">
        <ele>398</ele>
        <time>2022-09-26T13:16:41Z</time>
      </trkpt>
      <trkpt lat="48.15339" lon="6.43179">
        <ele>397</ele>
        <time>2022-09-26T13:16:42Z</time>
      </trkpt>
      <trkpt lat="48.15339" lon="6.43179">
        <ele>397</ele>
        <time>2022-09-26T13:16:43Z</time>
      </trkpt>
      <trkpt lat="48.15339" lon="6.43179">
        <ele>397</ele>
        <time>2022-09-26T13:16:44Z</time>
      </trkpt>
      <trkpt lat="48.15339" lon="6.43179">
        <ele>397</ele>
        <time>2022-09-26T13:16:45Z</time>
      </trkpt>
      <trkpt lat="48.15339" lon="6.43179">
        <ele>397</ele>
        <time>2022-09-26T13:16:46Z</time>
      </trkpt>
      <trkpt lat="48.15339" lon="6.4318">
        <ele>397</ele>
        <time>2022-09-26T13:16:47Z</time>
      </trkpt>
      <trkpt lat="48.15322" lon="6.43196">
        <ele>394</ele>
        <time>2022-09-26T13:17:40Z</time>
      </trkpt>
      <trkpt lat="48.15321" lon="6.432">
        <ele>394</ele>
        <time>2022-09-26T13:17:41Z</time>
      </trkpt>
      <trkpt lat="48.1532" lon="6.43205">
        <ele>394</ele>
        <time>2022-09-26T13:17:42Z</time>
      </trkpt>
      <trkpt lat="48.15319" lon="6.43211">
        <ele>394</ele>
        <time>2022-09-26T13:17:43Z</time>
      </trkpt>
      <trkpt lat="48.1532" lon="6.43215">
        <ele>394</ele>
        <time>2022-09-26T13:17:44Z</time>
      </trkpt>
      <trkpt lat="48.1532" lon="6.43221">
        <ele>394</ele>
        <time>2022-09-26T13:17:45Z</time>
      </trkpt>
      <trkpt lat="48.15321" lon="6.43226">
        <ele>394</ele>
        <time>2022-09-26T13:17:46Z</time>
      </trkpt>
      <trkpt lat="48.15321" lon="6.43231">
        <ele>394</ele>
        <time>2022-09-26T13:17:47Z</time>
      </trkpt>
      <trkpt lat="48.1532" lon="6.43236">
        <ele>394</ele>
        <time>2022-09-26T13:17:48Z</time>
      </trkpt>
      <trkpt lat="48.15318" lon="6.4324">
        <ele>394</ele>
        <time>2022-09-26T13:17:49Z</time>
      </trkpt>
      <trkpt lat="48.15317" lon="6.43246">
        <ele>395</ele>
        <time>2022-09-26T13:17:50Z</time>
      </trkpt>
      <trkpt lat="48.15316" lon="6.4325">
        <ele>395</ele>
        <time>2022-09-26T13:17:51Z</time>
      </trkpt>
      <trkpt lat="48.15316" lon="6.43253">
        <ele>395</ele>
        <time>2022-09-26T13:17:52Z</time>
      </trkpt>
      <trkpt lat="48.15315" lon="6.43258">
        <ele>395</ele>
        <time>2022-09-26T13:17:53Z</time>
      </trkpt>
      <trkpt lat="48.15315" lon="6.43262">
        <ele>395</ele>
        <time>2022-09-26T13:17:54Z</time>
      </trkpt>
      <trkpt lat="48.15315" lon="6.43268">
        <ele>395</ele>
        <time>2022-09-26T13:17:55Z</time>
      </trkpt>
      <trkpt lat="48.15314" lon="6.43273">
        <ele>396</ele>
        <time>2022-09-26T13:17:56Z</time>
      </trkpt>
      <trkpt lat="48.15314" lon="6.43278">
        <ele>396</ele>
        <time>2022-09-26T13:17:57Z</time>
      </trkpt>
      <trkpt lat="48.15313" lon="6.43283">
        <ele>395</ele>
        <time>2022-09-26T13:17:58Z</time>
      </trkpt>
      <trkpt lat="48.15313" lon="6.43287">
        <ele>395</ele>
        <time>2022-09-26T13:17:59Z</time>
      </trkpt>
      <trkpt lat="48.15312" lon="6.43289">
        <ele>395</ele>
        <time>2022-09-26T13:18:00Z</time>
      </trkpt>
      <trkpt lat="48.15313" lon="6.43292">
        <ele>395</ele>
        <time>2022-09-26T13:18:01Z</time>
      </trkpt>
      <trkpt lat="48.15313" lon="6.43297">
        <ele>395</ele>
        <time>2022-09-26T13:18:02Z</time>
      </trkpt>
      <trkpt lat="48.15312" lon="6.43305">
        <ele>395</ele>
        <time>2022-09-26T13:18:03Z</time>
      </trkpt>
      <trkpt lat="48.15311" lon="6.43311">
        <ele>394</ele>
        <time>2022-09-26T13:18:04Z</time>
      </trkpt>
      <trkpt lat="48.1531" lon="6.43315">
        <ele>394</ele>
        <time>2022-09-26T13:18:05Z</time>
      </trkpt>
      <trkpt lat="48.15308" lon="6.43319">
        <ele>393</ele>
        <time>2022-09-26T13:18:06Z</time>
      </trkpt>
      <trkpt lat="48.15307" lon="6.43323">
        <ele>393</ele>
        <time>2022-09-26T13:18:07Z</time>
      </trkpt>
      <trkpt lat="48.15306" lon="6.43324">
        <ele>392</ele>
        <time>2022-09-26T13:18:08Z</time>
      </trkpt>
      <trkpt lat="48.15304" lon="6.43324">
        <ele>392</ele>
        <time>2022-09-26T13:18:09Z</time>
      </trkpt>
      <trkpt lat="48.15301" lon="6.43324">
        <ele>392</ele>
        <time>2022-09-26T13:18:10Z</time>
      </trkpt>
      <trkpt lat="48.15298" lon="6.43324">
        <ele>392</ele>
        <time>2022-09-26T13:18:11Z</time>
      </trkpt>
      <trkpt lat="48.15295" lon="6.43324">
        <ele>392</ele>
        <time>2022-09-26T13:18:12Z</time>
      </trkpt>
      <trkpt lat="48.15293" lon="6.43324">
        <ele>392</ele>
        <time>2022-09-26T13:18:13Z</time>
      </trkpt>
      <trkpt lat="48.15292" lon="6.43323">
        <ele>392</ele>
        <time>2022-09-26T13:18:14Z</time>
      </trkpt>
      <trkpt lat="48.1529" lon="6.43323">
        <ele>392</ele>
        <time>2022-09-26T13:18:15Z</time>
      </trkpt>
      <trkpt lat="48.15289" lon="6.43323">
        <ele>392</ele>
        <time>2022-09-26T13:18:16Z</time>
      </trkpt>
      <trkpt lat="48.15288" lon="6.43322">
        <ele>392</ele>
        <time>2022-09-26T13:18:17Z</time>
      </trkpt>
      <trkpt lat="48.15288" lon="6.43321">
        <ele>392</ele>
        <time>2022-09-26T13:18:18Z</time>
      </trkpt>
      <trkpt lat="48.15288" lon="6.4332">
        <ele>392</ele>
        <time>2022-09-26T13:18:19Z</time>
      </trkpt>
      <trkpt lat="48.15288" lon="6.4332">
        <ele>392</ele>
        <time>2022-09-26T13:18:20Z</time>
      </trkpt>
      <trkpt lat="48.15288" lon="6.43319">
        <ele>392</ele>
        <time>2022-09-26T13:18:21Z</time>
      </trkpt>
      <trkpt lat="48.15288" lon="6.43319">
        <ele>393</ele>
        <time>2022-09-26T13:18:22Z</time>
      </trkpt>
      <trkpt lat="48.15288" lon="6.43319">
        <ele>393</ele>
        <time>2022-09-26T13:18:23Z</time>
      </trkpt>
      <trkpt lat="48.15288" lon="6.43319">
        <ele>393</ele>
        <time>2022-09-26T13:18:24Z</time>
      </trkpt>
      <trkpt lat="48.15288" lon="6.4332">
        <ele>392</ele>
        <time>2022-09-26T13:18:25Z</time>
      </trkpt>
      <trkpt lat="48.15288" lon="6.4332">
        <ele>392</ele>
        <time>2022-09-26T13:18:26Z</time>
      </trkpt>
      <trkpt lat="48.15288" lon="6.4332">
        <ele>392</ele>
        <time>2022-09-26T13:18:27Z</time>
      </trkpt>
      <trkpt lat="48.15287" lon="6.4332">
        <ele>392</ele>
        <time>2022-09-26T13:18:28Z</time>
      </trkpt>
      <trkpt lat="48.15287" lon="6.43321">
        <ele>392</ele>
        <time>2022-09-26T13:18:29Z</time>
      </trkpt>
      <trkpt lat="48.15287" lon="6.43321">
        <ele>392</ele>
        <time>2022-09-26T13:18:30Z</time>
      </trkpt>
      <trkpt lat="48.15287" lon="6.43321">
        <ele>392</ele>
        <time>2022-09-26T13:18:31Z</time>
      </trkpt>
      <trkpt lat="48.15287" lon="6.43321">
        <ele>392</ele>
        <time>2022-09-26T13:18:32Z</time>
      </trkpt>
      <trkpt lat="48.15287" lon="6.43321">
        <ele>392</ele>
        <time>2022-09-26T13:18:33Z</time>
      </trkpt>
      <trkpt lat="48.15287" lon="6.43321">
        <ele>392</ele>
        <time>2022-09-26T13:18:34Z</time>
      </trkpt>
      <trkpt lat="48.15287" lon="6.4332">
        <ele>392</ele>
        <time>2022-09-26T13:18:35Z</time>
      </trkpt>
      <trkpt lat="48.15287" lon="6.43321">
        <ele>392</ele>
        <time>2022-09-26T13:18:36Z</time>
      </trkpt>
      <trkpt lat="48.15284" lon="6.43318">
        <ele>393</ele>
        <time>2022-09-26T13:18:39Z</time>
      </trkpt>
      <trkpt lat="48.15284" lon="6.43316">
        <ele>393</ele>
        <time>2022-09-26T13:18:40Z</time>
      </trkpt>
      <trkpt lat="48.15282" lon="6.43315">
        <ele>393</ele>
        <time>2022-09-26T13:18:41Z</time>
      </trkpt>
      <trkpt lat="48.15281" lon="6.43315">
        <ele>393</ele>
        <time>2022-09-26T13:18:42Z</time>
      </trkpt>
      <trkpt lat="48.15278" lon="6.43315">
        <ele>393</ele>
        <time>2022-09-26T13:18:43Z</time>
      </trkpt>
      <trkpt lat="48.15277" lon="6.43315">
        <ele>393</ele>
        <time>2022-09-26T13:18:44Z</time>
      </trkpt>
      <trkpt lat="48.15277" lon="6.43315">
        <ele>393</ele>
        <time>2022-09-26T13:18:45Z</time>
      </trkpt>
      <trkpt lat="48.15277" lon="6.43316">
        <ele>393</ele>
        <time>2022-09-26T13:18:46Z</time>
      </trkpt>
      <trkpt lat="48.15277" lon="6.43316">
        <ele>393</ele>
        <time>2022-09-26T13:18:47Z</time>
      </trkpt>
      <trkpt lat="48.15277" lon="6.43316">
        <ele>393</ele>
        <time>2022-09-26T13:18:48Z</time>
      </trkpt>
      <trkpt lat="48.15277" lon="6.43316">
        <ele>393</ele>
        <time>2022-09-26T13:18:49Z</time>
      </trkpt>
      <trkpt lat="48.15277" lon="6.43315">
        <ele>393</ele>
        <time>2022-09-26T13:18:50Z</time>
      </trkpt>
      <trkpt lat="48.15275" lon="6.43314">
        <ele>393</ele>
        <time>2022-09-26T13:18:51Z</time>
      </trkpt>
      <trkpt lat="48.15274" lon="6.43314">
        <ele>393</ele>
        <time>2022-09-26T13:18:52Z</time>
      </trkpt>
      <trkpt lat="48.15272" lon="6.43314">
        <ele>393</ele>
        <time>2022-09-26T13:18:53Z</time>
      </trkpt>
      <trkpt lat="48.15271" lon="6.43313">
        <ele>393</ele>
        <time>2022-09-26T13:18:54Z</time>
      </trkpt>
      <trkpt lat="48.1527" lon="6.43312">
        <ele>393</ele>
        <time>2022-09-26T13:18:55Z</time>
      </trkpt>
      <trkpt lat="48.1527" lon="6.43312">
        <ele>393</ele>
        <time>2022-09-26T13:18:56Z</time>
      </trkpt>
      <trkpt lat="48.15269" lon="6.43311">
        <ele>393</ele>
        <time>2022-09-26T13:18:57Z</time>
      </trkpt>
      <trkpt lat="48.15268" lon="6.4331">
        <ele>393</ele>
        <time>2022-09-26T13:18:58Z</time>
      </trkpt>
      <trkpt lat="48.15267" lon="6.43308">
        <ele>393</ele>
        <time>2022-09-26T13:18:59Z</time>
      </trkpt>
      <trkpt lat="48.15266" lon="6.43308">
        <ele>393</ele>
        <time>2022-09-26T13:19:00Z</time>
      </trkpt>
      <trkpt lat="48.15265" lon="6.43309">
        <ele>394</ele>
        <time>2022-09-26T13:19:01Z</time>
      </trkpt>
      <trkpt lat="48.15264" lon="6.43309">
        <ele>394</ele>
        <time>2022-09-26T13:19:02Z</time>
      </trkpt>
      <trkpt lat="48.15264" lon="6.4331">
        <ele>394</ele>
        <time>2022-09-26T13:19:03Z</time>
      </trkpt>
      <trkpt lat="48.15263" lon="6.43311">
        <ele>394</ele>
        <time>2022-09-26T13:19:04Z</time>
      </trkpt>
      <trkpt lat="48.15262" lon="6.43311">
        <ele>394</ele>
        <time>2022-09-26T13:19:05Z</time>
      </trkpt>
      <trkpt lat="48.15261" lon="6.43311">
        <ele>394</ele>
        <time>2022-09-26T13:19:06Z</time>
      </trkpt>
      <trkpt lat="48.15261" lon="6.43311">
        <ele>394</ele>
        <time>2022-09-26T13:19:07Z</time>
      </trkpt>
      <trkpt lat="48.15259" lon="6.43311">
        <ele>394</ele>
        <time>2022-09-26T13:19:08Z</time>
      </trkpt>
      <trkpt lat="48.15258" lon="6.4331">
        <ele>394</ele>
        <time>2022-09-26T13:19:09Z</time>
      </trkpt>
      <trkpt lat="48.15257" lon="6.43311">
        <ele>394</ele>
        <time>2022-09-26T13:19:10Z</time>
      </trkpt>
      <trkpt lat="48.15257" lon="6.43311">
        <ele>394</ele>
        <time>2022-09-26T13:19:11Z</time>
      </trkpt>
      <trkpt lat="48.15257" lon="6.43312">
        <ele>394</ele>
        <time>2022-09-26T13:19:12Z</time>
      </trkpt>
      <trkpt lat="48.15257" lon="6.43313">
        <ele>394</ele>
        <time>2022-09-26T13:19:13Z</time>
      </trkpt>
      <trkpt lat="48.15256" lon="6.43315">
        <ele>395</ele>
        <time>2022-09-26T13:19:14Z</time>
      </trkpt>
      <trkpt lat="48.15256" lon="6.43315">
        <ele>395</ele>
        <time>2022-09-26T13:19:15Z</time>
      </trkpt>
      <trkpt lat="48.15255" lon="6.43316">
        <ele>395</ele>
        <time>2022-09-26T13:19:16Z</time>
      </trkpt>
      <trkpt lat="48.15254" lon="6.43319">
        <ele>395</ele>
        <time>2022-09-26T13:19:17Z</time>
      </trkpt>
      <trkpt lat="48.15253" lon="6.43323">
        <ele>395</ele>
        <time>2022-09-26T13:19:18Z</time>
      </trkpt>
      <trkpt lat="48.15253" lon="6.43323">
        <ele>395</ele>
        <time>2022-09-26T13:19:19Z</time>
      </trkpt>
      <trkpt lat="48.15252" lon="6.43324">
        <ele>396</ele>
        <time>2022-09-26T13:19:20Z</time>
      </trkpt>
      <trkpt lat="48.15251" lon="6.43325">
        <ele>396</ele>
        <time>2022-09-26T13:19:21Z</time>
      </trkpt>
      <trkpt lat="48.1525" lon="6.43327">
        <ele>396</ele>
        <time>2022-09-26T13:19:22Z</time>
      </trkpt>
      <trkpt lat="48.1525" lon="6.43327">
        <ele>396</ele>
        <time>2022-09-26T13:19:23Z</time>
      </trkpt>
      <trkpt lat="48.15249" lon="6.43328">
        <ele>396</ele>
        <time>2022-09-26T13:19:24Z</time>
      </trkpt>
      <trkpt lat="48.15249" lon="6.43329">
        <ele>396</ele>
        <time>2022-09-26T13:19:25Z</time>
      </trkpt>
      <trkpt lat="48.15248" lon="6.43333">
        <ele>397</ele>
        <time>2022-09-26T13:19:26Z</time>
      </trkpt>
      <trkpt lat="48.15246" lon="6.43333">
        <ele>397</ele>
        <time>2022-09-26T13:19:27Z</time>
      </trkpt>
      <trkpt lat="48.15246" lon="6.43336">
        <ele>397</ele>
        <time>2022-09-26T13:19:28Z</time>
      </trkpt>
      <trkpt lat="48.15247" lon="6.43339">
        <ele>397</ele>
        <time>2022-09-26T13:19:29Z</time>
      </trkpt>
      <trkpt lat="48.15248" lon="6.43341">
        <ele>397</ele>
        <time>2022-09-26T13:19:30Z</time>
      </trkpt>
      <trkpt lat="48.15249" lon="6.43343">
        <ele>397</ele>
        <time>2022-09-26T13:19:31Z</time>
      </trkpt>
      <trkpt lat="48.15249" lon="6.43343">
        <ele>397</ele>
        <time>2022-09-26T13:19:32Z</time>
      </trkpt>
      <trkpt lat="48.15249" lon="6.43345">
        <ele>397</ele>
        <time>2022-09-26T13:19:33Z</time>
      </trkpt>
      <trkpt lat="48.15248" lon="6.43349">
        <ele>397</ele>
        <time>2022-09-26T13:19:34Z</time>
      </trkpt>
      <trkpt lat="48.15248" lon="6.4335">
        <ele>397</ele>
        <time>2022-09-26T13:19:35Z</time>
      </trkpt>
      <trkpt lat="48.15247" lon="6.4335">
        <ele>397</ele>
        <time>2022-09-26T13:19:36Z</time>
      </trkpt>
      <trkpt lat="48.15246" lon="6.43351">
        <ele>397</ele>
        <time>2022-09-26T13:19:37Z</time>
      </trkpt>
      <trkpt lat="48.15246" lon="6.43356">
        <ele>398</ele>
        <time>2022-09-26T13:19:38Z</time>
      </trkpt>
      <trkpt lat="48.15245" lon="6.43356">
        <ele>398</ele>
        <time>2022-09-26T13:19:39Z</time>
      </trkpt>
      <trkpt lat="48.15242" lon="6.4336">
        <ele>398</ele>
        <time>2022-09-26T13:19:40Z</time>
      </trkpt>
      <trkpt lat="48.15241" lon="6.43361">
        <ele>398</ele>
        <time>2022-09-26T13:19:41Z</time>
      </trkpt>
      <trkpt lat="48.1524" lon="6.43361">
        <ele>399</ele>
        <time>2022-09-26T13:19:42Z</time>
      </trkpt>
      <trkpt lat="48.15239" lon="6.43363">
        <ele>399</ele>
        <time>2022-09-26T13:19:43Z</time>
      </trkpt>
      <trkpt lat="48.15238" lon="6.43367">
        <ele>399</ele>
        <time>2022-09-26T13:19:44Z</time>
      </trkpt>
      <trkpt lat="48.15237" lon="6.43367">
        <ele>399</ele>
        <time>2022-09-26T13:19:45Z</time>
      </trkpt>
      <trkpt lat="48.15237" lon="6.4337">
        <ele>400</ele>
        <time>2022-09-26T13:19:46Z</time>
      </trkpt>
      <trkpt lat="48.15236" lon="6.4337">
        <ele>400</ele>
        <time>2022-09-26T13:19:47Z</time>
      </trkpt>
      <trkpt lat="48.15235" lon="6.43372">
        <ele>400</ele>
        <time>2022-09-26T13:19:48Z</time>
      </trkpt>
      <trkpt lat="48.15234" lon="6.43374">
        <ele>400</ele>
        <time>2022-09-26T13:19:49Z</time>
      </trkpt>
      <trkpt lat="48.15234" lon="6.43377">
        <ele>401</ele>
        <time>2022-09-26T13:19:50Z</time>
      </trkpt>
      <trkpt lat="48.15234" lon="6.43377">
        <ele>401</ele>
        <time>2022-09-26T13:19:51Z</time>
      </trkpt>
      <trkpt lat="48.15234" lon="6.4338">
        <ele>401</ele>
        <time>2022-09-26T13:19:52Z</time>
      </trkpt>
      <trkpt lat="48.15234" lon="6.43381">
        <ele>401</ele>
        <time>2022-09-26T13:19:53Z</time>
      </trkpt>
      <trkpt lat="48.15234" lon="6.43381">
        <ele>401</ele>
        <time>2022-09-26T13:19:54Z</time>
      </trkpt>
      <trkpt lat="48.15234" lon="6.43382">
        <ele>401</ele>
        <time>2022-09-26T13:19:55Z</time>
      </trkpt>
      <trkpt lat="48.15235" lon="6.43384">
        <ele>401</ele>
        <time>2022-09-26T13:19:56Z</time>
      </trkpt>
      <trkpt lat="48.15234" lon="6.43387">
        <ele>402</ele>
        <time>2022-09-26T13:19:57Z</time>
      </trkpt>
      <trkpt lat="48.15234" lon="6.43388">
        <ele>402</ele>
        <time>2022-09-26T13:19:58Z</time>
      </trkpt>
      <trkpt lat="48.15233" lon="6.43388">
        <ele>402</ele>
        <time>2022-09-26T13:19:59Z</time>
      </trkpt>
      <trkpt lat="48.15232" lon="6.43391">
        <ele>402</ele>
        <time>2022-09-26T13:20:00Z</time>
      </trkpt>
      <trkpt lat="48.15232" lon="6.43391">
        <ele>402</ele>
        <time>2022-09-26T13:20:01Z</time>
      </trkpt>
      <trkpt lat="48.1523" lon="6.43393">
        <ele>403</ele>
        <time>2022-09-26T13:20:02Z</time>
      </trkpt>
      <trkpt lat="48.15229" lon="6.43396">
        <ele>403</ele>
        <time>2022-09-26T13:20:03Z</time>
      </trkpt>
      <trkpt lat="48.15228" lon="6.43396">
        <ele>403</ele>
        <time>2022-09-26T13:20:04Z</time>
      </trkpt>
      <trkpt lat="48.15227" lon="6.43397">
        <ele>403</ele>
        <time>2022-09-26T13:20:05Z</time>
      </trkpt>
      <trkpt lat="48.15226" lon="6.43398">
        <ele>403</ele>
        <time>2022-09-26T13:20:06Z</time>
      </trkpt>
      <trkpt lat="48.15225" lon="6.43398">
        <ele>404</ele>
        <time>2022-09-26T13:20:07Z</time>
      </trkpt>
      <trkpt lat="48.15225" lon="6.43399">
        <ele>404</ele>
        <time>2022-09-26T13:20:08Z</time>
      </trkpt>
      <trkpt lat="48.15224" lon="6.43399">
        <ele>404</ele>
        <time>2022-09-26T13:20:09Z</time>
      </trkpt>
      <trkpt lat="48.15222" lon="6.43399">
        <ele>404</ele>
        <time>2022-09-26T13:20:10Z</time>
      </trkpt>
      <trkpt lat="48.15221" lon="6.434">
        <ele>404</ele>
        <time>2022-09-26T13:20:11Z</time>
      </trkpt>
      <trkpt lat="48.1522" lon="6.434">
        <ele>405</ele>
        <time>2022-09-26T13:20:12Z</time>
      </trkpt>
      <trkpt lat="48.15219" lon="6.43401">
        <ele>405</ele>
        <time>2022-09-26T13:20:13Z</time>
      </trkpt>
      <trkpt lat="48.15217" lon="6.434">
        <ele>405</ele>
        <time>2022-09-26T13:20:14Z</time>
      </trkpt>
      <trkpt lat="48.15215" lon="6.434">
        <ele>405</ele>
        <time>2022-09-26T13:20:15Z</time>
      </trkpt>
      <trkpt lat="48.15213" lon="6.434">
        <ele>406</ele>
        <time>2022-09-26T13:20:16Z</time>
      </trkpt>
      <trkpt lat="48.15212" lon="6.434">
        <ele>406</ele>
        <time>2022-09-26T13:20:17Z</time>
      </trkpt>
      <trkpt lat="48.15211" lon="6.434">
        <ele>406</ele>
        <time>2022-09-26T13:20:18Z</time>
      </trkpt>
      <trkpt lat="48.1521" lon="6.434">
        <ele>406</ele>
        <time>2022-09-26T13:20:19Z</time>
      </trkpt>
      <trkpt lat="48.15209" lon="6.43401">
        <ele>407</ele>
        <time>2022-09-26T13:20:20Z</time>
      </trkpt>
      <trkpt lat="48.15208" lon="6.43401">
        <ele>407</ele>
        <time>2022-09-26T13:20:21Z</time>
      </trkpt>
      <trkpt lat="48.15207" lon="6.43403">
        <ele>407</ele>
        <time>2022-09-26T13:20:22Z</time>
      </trkpt>
      <trkpt lat="48.15206" lon="6.43405">
        <ele>407</ele>
        <time>2022-09-26T13:20:23Z</time>
      </trkpt>
      <trkpt lat="48.15206" lon="6.43405">
        <ele>407</ele>
        <time>2022-09-26T13:20:24Z</time>
      </trkpt>
      <trkpt lat="48.15206" lon="6.43407">
        <ele>407</ele>
        <time>2022-09-26T13:20:25Z</time>
      </trkpt>
      <trkpt lat="48.15206" lon="6.43408">
        <ele>407</ele>
        <time>2022-09-26T13:20:26Z</time>
      </trkpt>
      <trkpt lat="48.15206" lon="6.43411">
        <ele>408</ele>
        <time>2022-09-26T13:20:27Z</time>
      </trkpt>
      <trkpt lat="48.15205" lon="6.43411">
        <ele>408</ele>
        <time>2022-09-26T13:20:28Z</time>
      </trkpt>
      <trkpt lat="48.15203" lon="6.43412">
        <ele>408</ele>
        <time>2022-09-26T13:20:29Z</time>
      </trkpt>
      <trkpt lat="48.15202" lon="6.43412">
        <ele>408</ele>
        <time>2022-09-26T13:20:30Z</time>
      </trkpt>
      <trkpt lat="48.15201" lon="6.43412">
        <ele>408</ele>
        <time>2022-09-26T13:20:31Z</time>
      </trkpt>
      <trkpt lat="48.152" lon="6.43412">
        <ele>409</ele>
        <time>2022-09-26T13:20:32Z</time>
      </trkpt>
      <trkpt lat="48.15198" lon="6.43412">
        <ele>409</ele>
        <time>2022-09-26T13:20:33Z</time>
      </trkpt>
      <trkpt lat="48.15197" lon="6.43412">
        <ele>409</ele>
        <time>2022-09-26T13:20:34Z</time>
      </trkpt>
      <trkpt lat="48.15195" lon="6.43412">
        <ele>409</ele>
        <time>2022-09-26T13:20:35Z</time>
      </trkpt>
      <trkpt lat="48.15194" lon="6.43412">
        <ele>409</ele>
        <time>2022-09-26T13:20:36Z</time>
      </trkpt>
      <trkpt lat="48.15193" lon="6.43412">
        <ele>409</ele>
        <time>2022-09-26T13:20:37Z</time>
      </trkpt>
      <trkpt lat="48.15192" lon="6.43412">
        <ele>410</ele>
        <time>2022-09-26T13:20:38Z</time>
      </trkpt>
      <trkpt lat="48.15191" lon="6.43411">
        <ele>410</ele>
        <time>2022-09-26T13:20:39Z</time>
      </trkpt>
      <trkpt lat="48.1519" lon="6.4341">
        <ele>410</ele>
        <time>2022-09-26T13:20:40Z</time>
      </trkpt>
      <trkpt lat="48.15189" lon="6.43409">
        <ele>410</ele>
        <time>2022-09-26T13:20:41Z</time>
      </trkpt>
      <trkpt lat="48.15189" lon="6.43407">
        <ele>410</ele>
        <time>2022-09-26T13:20:42Z</time>
      </trkpt>
      <trkpt lat="48.15188" lon="6.43406">
        <ele>410</ele>
        <time>2022-09-26T13:20:43Z</time>
      </trkpt>
      <trkpt lat="48.15188" lon="6.43405">
        <ele>410</ele>
        <time>2022-09-26T13:20:44Z</time>
      </trkpt>
      <trkpt lat="48.15187" lon="6.43405">
        <ele>410</ele>
        <time>2022-09-26T13:20:45Z</time>
      </trkpt>
      <trkpt lat="48.15187" lon="6.43404">
        <ele>410</ele>
        <time>2022-09-26T13:20:46Z</time>
      </trkpt>
      <trkpt lat="48.15187" lon="6.43403">
        <ele>410</ele>
        <time>2022-09-26T13:20:47Z</time>
      </trkpt>
      <trkpt lat="48.15186" lon="6.43401">
        <ele>410</ele>
        <time>2022-09-26T13:20:48Z</time>
      </trkpt>
      <trkpt lat="48.15185" lon="6.43401">
        <ele>410</ele>
        <time>2022-09-26T13:20:49Z</time>
      </trkpt>
      <trkpt lat="48.15184" lon="6.43401">
        <ele>410</ele>
        <time>2022-09-26T13:20:50Z</time>
      </trkpt>
      <trkpt lat="48.15183" lon="6.43402">
        <ele>410</ele>
        <time>2022-09-26T13:20:51Z</time>
      </trkpt>
      <trkpt lat="48.15182" lon="6.43402">
        <ele>410</ele>
        <time>2022-09-26T13:20:52Z</time>
      </trkpt>
      <trkpt lat="48.15181" lon="6.43402">
        <ele>410</ele>
        <time>2022-09-26T13:20:53Z</time>
      </trkpt>
      <trkpt lat="48.15179" lon="6.43402">
        <ele>411</ele>
        <time>2022-09-26T13:20:54Z</time>
      </trkpt>
      <trkpt lat="48.15178" lon="6.43401">
        <ele>411</ele>
        <time>2022-09-26T13:20:55Z</time>
      </trkpt>
      <trkpt lat="48.15177" lon="6.434">
        <ele>411</ele>
        <time>2022-09-26T13:20:56Z</time>
      </trkpt>
      <trkpt lat="48.15176" lon="6.43399">
        <ele>411</ele>
        <time>2022-09-26T13:20:57Z</time>
      </trkpt>
      <trkpt lat="48.15175" lon="6.43399">
        <ele>411</ele>
        <time>2022-09-26T13:20:58Z</time>
      </trkpt>
      <trkpt lat="48.15173" lon="6.43399">
        <ele>411</ele>
        <time>2022-09-26T13:20:59Z</time>
      </trkpt>
      <trkpt lat="48.15172" lon="6.43398">
        <ele>411</ele>
        <time>2022-09-26T13:21:00Z</time>
      </trkpt>
      <trkpt lat="48.15171" lon="6.43398">
        <ele>411</ele>
        <time>2022-09-26T13:21:01Z</time>
      </trkpt>
      <trkpt lat="48.15171" lon="6.43395">
        <ele>411</ele>
        <time>2022-09-26T13:21:02Z</time>
      </trkpt>
      <trkpt lat="48.1517" lon="6.43395">
        <ele>411</ele>
        <time>2022-09-26T13:21:03Z</time>
      </trkpt>
      <trkpt lat="48.15169" lon="6.43394">
        <ele>411</ele>
        <time>2022-09-26T13:21:04Z</time>
      </trkpt>
      <trkpt lat="48.15169" lon="6.43392">
        <ele>411</ele>
        <time>2022-09-26T13:21:05Z</time>
      </trkpt>
      <trkpt lat="48.15168" lon="6.43391">
        <ele>411</ele>
        <time>2022-09-26T13:21:06Z</time>
      </trkpt>
      <trkpt lat="48.15168" lon="6.43389">
        <ele>411</ele>
        <time>2022-09-26T13:21:07Z</time>
      </trkpt>
      <trkpt lat="48.15167" lon="6.43388">
        <ele>411</ele>
        <time>2022-09-26T13:21:08Z</time>
      </trkpt>
      <trkpt lat="48.15166" lon="6.43387">
        <ele>411</ele>
        <time>2022-09-26T13:21:09Z</time>
      </trkpt>
      <trkpt lat="48.15165" lon="6.43386">
        <ele>412</ele>
        <time>2022-09-26T13:21:10Z</time>
      </trkpt>
      <trkpt lat="48.15164" lon="6.43384">
        <ele>411</ele>
        <time>2022-09-26T13:21:11Z</time>
      </trkpt>
      <trkpt lat="48.15163" lon="6.43383">
        <ele>412</ele>
        <time>2022-09-26T13:21:12Z</time>
      </trkpt>
      <trkpt lat="48.15162" lon="6.43382">
        <ele>412</ele>
        <time>2022-09-26T13:21:13Z</time>
      </trkpt>
      <trkpt lat="48.15161" lon="6.43382">
        <ele>412</ele>
        <time>2022-09-26T13:21:14Z</time>
      </trkpt>
      <trkpt lat="48.15159" lon="6.43382">
        <ele>412</ele>
        <time>2022-09-26T13:21:15Z</time>
      </trkpt>
      <trkpt lat="48.15158" lon="6.43381">
        <ele>412</ele>
        <time>2022-09-26T13:21:16Z</time>
      </trkpt>
      <trkpt lat="48.15156" lon="6.43382">
        <ele>412</ele>
        <time>2022-09-26T13:21:17Z</time>
      </trkpt>
      <trkpt lat="48.15155" lon="6.43382">
        <ele>412</ele>
        <time>2022-09-26T13:21:18Z</time>
      </trkpt>
      <trkpt lat="48.15154" lon="6.43383">
        <ele>412</ele>
        <time>2022-09-26T13:21:19Z</time>
      </trkpt>
      <trkpt lat="48.15152" lon="6.43383">
        <ele>412</ele>
        <time>2022-09-26T13:21:20Z</time>
      </trkpt>
      <trkpt lat="48.15151" lon="6.43383">
        <ele>412</ele>
        <time>2022-09-26T13:21:21Z</time>
      </trkpt>
      <trkpt lat="48.15149" lon="6.43384">
        <ele>413</ele>
        <time>2022-09-26T13:21:22Z</time>
      </trkpt>
      <trkpt lat="48.15147" lon="6.43385">
        <ele>413</ele>
        <time>2022-09-26T13:21:23Z</time>
      </trkpt>
      <trkpt lat="48.15146" lon="6.43385">
        <ele>413</ele>
        <time>2022-09-26T13:21:24Z</time>
      </trkpt>
      <trkpt lat="48.15144" lon="6.43385">
        <ele>413</ele>
        <time>2022-09-26T13:21:25Z</time>
      </trkpt>
      <trkpt lat="48.15142" lon="6.43385">
        <ele>413</ele>
        <time>2022-09-26T13:21:26Z</time>
      </trkpt>
      <trkpt lat="48.1514" lon="6.43388">
        <ele>413</ele>
        <time>2022-09-26T13:21:27Z</time>
      </trkpt>
      <trkpt lat="48.15138" lon="6.43388">
        <ele>414</ele>
        <time>2022-09-26T13:21:28Z</time>
      </trkpt>
      <trkpt lat="48.15135" lon="6.43389">
        <ele>414</ele>
        <time>2022-09-26T13:21:29Z</time>
      </trkpt>
      <trkpt lat="48.15132" lon="6.43389">
        <ele>414</ele>
        <time>2022-09-26T13:21:30Z</time>
      </trkpt>
      <trkpt lat="48.1513" lon="6.43391">
        <ele>415</ele>
        <time>2022-09-26T13:21:31Z</time>
      </trkpt>
      <trkpt lat="48.15127" lon="6.43391">
        <ele>415</ele>
        <time>2022-09-26T13:21:32Z</time>
      </trkpt>
      <trkpt lat="48.15124" lon="6.43391">
        <ele>415</ele>
        <time>2022-09-26T13:21:33Z</time>
      </trkpt>
      <trkpt lat="48.15121" lon="6.43391">
        <ele>416</ele>
        <time>2022-09-26T13:21:34Z</time>
      </trkpt>
      <trkpt lat="48.15119" lon="6.43392">
        <ele>416</ele>
        <time>2022-09-26T13:21:35Z</time>
      </trkpt>
      <trkpt lat="48.15116" lon="6.43393">
        <ele>416</ele>
        <time>2022-09-26T13:21:36Z</time>
      </trkpt>
      <trkpt lat="48.15114" lon="6.43394">
        <ele>417</ele>
        <time>2022-09-26T13:21:37Z</time>
      </trkpt>
      <trkpt lat="48.15112" lon="6.43394">
        <ele>417</ele>
        <time>2022-09-26T13:21:38Z</time>
      </trkpt>
      <trkpt lat="48.1511" lon="6.43394">
        <ele>417</ele>
        <time>2022-09-26T13:21:39Z</time>
      </trkpt>
      <trkpt lat="48.15108" lon="6.43395">
        <ele>418</ele>
        <time>2022-09-26T13:21:40Z</time>
      </trkpt>
      <trkpt lat="48.15106" lon="6.43395">
        <ele>418</ele>
        <time>2022-09-26T13:21:41Z</time>
      </trkpt>
      <trkpt lat="48.15105" lon="6.43396">
        <ele>418</ele>
        <time>2022-09-26T13:21:42Z</time>
      </trkpt>
      <trkpt lat="48.15104" lon="6.43397">
        <ele>418</ele>
        <time>2022-09-26T13:21:43Z</time>
      </trkpt>
      <trkpt lat="48.15102" lon="6.43397">
        <ele>419</ele>
        <time>2022-09-26T13:21:44Z</time>
      </trkpt>
      <trkpt lat="48.15101" lon="6.43399">
        <ele>419</ele>
        <time>2022-09-26T13:21:45Z</time>
      </trkpt>
      <trkpt lat="48.151" lon="6.43399">
        <ele>419</ele>
        <time>2022-09-26T13:21:46Z</time>
      </trkpt>
      <trkpt lat="48.15099" lon="6.43399">
        <ele>419</ele>
        <time>2022-09-26T13:21:47Z</time>
      </trkpt>
      <trkpt lat="48.15098" lon="6.43402">
        <ele>420</ele>
        <time>2022-09-26T13:21:48Z</time>
      </trkpt>
      <trkpt lat="48.15096" lon="6.43402">
        <ele>420</ele>
        <time>2022-09-26T13:21:49Z</time>
      </trkpt>
      <trkpt lat="48.15096" lon="6.43403">
        <ele>420</ele>
        <time>2022-09-26T13:21:50Z</time>
      </trkpt>
      <trkpt lat="48.15095" lon="6.43405">
        <ele>420</ele>
        <time>2022-09-26T13:21:51Z</time>
      </trkpt>
      <trkpt lat="48.15095" lon="6.43406">
        <ele>420</ele>
        <time>2022-09-26T13:21:52Z</time>
      </trkpt>
      <trkpt lat="48.15095" lon="6.43408">
        <ele>421</ele>
        <time>2022-09-26T13:21:53Z</time>
      </trkpt>
      <trkpt lat="48.15095" lon="6.43412">
        <ele>421</ele>
        <time>2022-09-26T13:21:54Z</time>
      </trkpt>
      <trkpt lat="48.15096" lon="6.43412">
        <ele>421</ele>
        <time>2022-09-26T13:21:55Z</time>
      </trkpt>
      <trkpt lat="48.15096" lon="6.43413">
        <ele>421</ele>
        <time>2022-09-26T13:21:56Z</time>
      </trkpt>
      <trkpt lat="48.15096" lon="6.43415">
        <ele>421</ele>
        <time>2022-09-26T13:21:57Z</time>
      </trkpt>
      <trkpt lat="48.15097" lon="6.43417">
        <ele>422</ele>
        <time>2022-09-26T13:21:58Z</time>
      </trkpt>
      <trkpt lat="48.15097" lon="6.43417">
        <ele>422</ele>
        <time>2022-09-26T13:21:59Z</time>
      </trkpt>
      <trkpt lat="48.15097" lon="6.43418">
        <ele>422</ele>
        <time>2022-09-26T13:22:00Z</time>
      </trkpt>
      <trkpt lat="48.15097" lon="6.43419">
        <ele>422</ele>
        <time>2022-09-26T13:22:01Z</time>
      </trkpt>
      <trkpt lat="48.15098" lon="6.4342">
        <ele>422</ele>
        <time>2022-09-26T13:22:02Z</time>
      </trkpt>
      <trkpt lat="48.15098" lon="6.43421">
        <ele>422</ele>
        <time>2022-09-26T13:22:03Z</time>
      </trkpt>
      <trkpt lat="48.15098" lon="6.43422">
        <ele>422</ele>
        <time>2022-09-26T13:22:04Z</time>
      </trkpt>
      <trkpt lat="48.15099" lon="6.43423">
        <ele>422</ele>
        <time>2022-09-26T13:22:05Z</time>
      </trkpt>
      <trkpt lat="48.15099" lon="6.43424">
        <ele>423</ele>
        <time>2022-09-26T13:22:06Z</time>
      </trkpt>
      <trkpt lat="48.151" lon="6.43424">
        <ele>423</ele>
        <time>2022-09-26T13:22:07Z</time>
      </trkpt>
      <trkpt lat="48.15102" lon="6.43428">
        <ele>423</ele>
        <time>2022-09-26T13:22:08Z</time>
      </trkpt>
      <trkpt lat="48.15104" lon="6.43429">
        <ele>423</ele>
        <time>2022-09-26T13:22:09Z</time>
      </trkpt>
      <trkpt lat="48.15106" lon="6.43431">
        <ele>423</ele>
        <time>2022-09-26T13:22:10Z</time>
      </trkpt>
      <trkpt lat="48.15107" lon="6.43431">
        <ele>423</ele>
        <time>2022-09-26T13:22:11Z</time>
      </trkpt>
      <trkpt lat="48.15108" lon="6.43432">
        <ele>423</ele>
        <time>2022-09-26T13:22:12Z</time>
      </trkpt>
      <trkpt lat="48.1511" lon="6.43434">
        <ele>424</ele>
        <time>2022-09-26T13:22:13Z</time>
      </trkpt>
      <trkpt lat="48.15111" lon="6.43437">
        <ele>424</ele>
        <time>2022-09-26T13:22:14Z</time>
      </trkpt>
      <trkpt lat="48.15113" lon="6.43439">
        <ele>424</ele>
        <time>2022-09-26T13:22:15Z</time>
      </trkpt>
      <trkpt lat="48.15115" lon="6.43439">
        <ele>424</ele>
        <time>2022-09-26T13:22:16Z</time>
      </trkpt>
      <trkpt lat="48.15116" lon="6.43441">
        <ele>424</ele>
        <time>2022-09-26T13:22:17Z</time>
      </trkpt>
      <trkpt lat="48.15118" lon="6.43444">
        <ele>424</ele>
        <time>2022-09-26T13:22:18Z</time>
      </trkpt>
      <trkpt lat="48.1512" lon="6.43447">
        <ele>424</ele>
        <time>2022-09-26T13:22:19Z</time>
      </trkpt>
      <trkpt lat="48.15122" lon="6.4345">
        <ele>423</ele>
        <time>2022-09-26T13:22:20Z</time>
      </trkpt>
      <trkpt lat="48.15123" lon="6.4345">
        <ele>423</ele>
        <time>2022-09-26T13:22:21Z</time>
      </trkpt>
      <trkpt lat="48.15125" lon="6.43453">
        <ele>423</ele>
        <time>2022-09-26T13:22:22Z</time>
      </trkpt>
      <trkpt lat="48.15127" lon="6.43454">
        <ele>423</ele>
        <time>2022-09-26T13:22:23Z</time>
      </trkpt>
      <trkpt lat="48.15128" lon="6.43457">
        <ele>422</ele>
        <time>2022-09-26T13:22:24Z</time>
      </trkpt>
      <trkpt lat="48.1513" lon="6.43457">
        <ele>422</ele>
        <time>2022-09-26T13:22:25Z</time>
      </trkpt>
      <trkpt lat="48.15132" lon="6.43461">
        <ele>422</ele>
        <time>2022-09-26T13:22:26Z</time>
      </trkpt>
      <trkpt lat="48.15133" lon="6.43461">
        <ele>422</ele>
        <time>2022-09-26T13:22:27Z</time>
      </trkpt>
      <trkpt lat="48.15135" lon="6.43463">
        <ele>421</ele>
        <time>2022-09-26T13:22:28Z</time>
      </trkpt>
      <trkpt lat="48.15137" lon="6.43468">
        <ele>422</ele>
        <time>2022-09-26T13:22:29Z</time>
      </trkpt>
      <trkpt lat="48.15139" lon="6.4347">
        <ele>421</ele>
        <time>2022-09-26T13:22:30Z</time>
      </trkpt>
      <trkpt lat="48.15141" lon="6.43472">
        <ele>421</ele>
        <time>2022-09-26T13:22:31Z</time>
      </trkpt>
      <trkpt lat="48.15143" lon="6.43472">
        <ele>420</ele>
        <time>2022-09-26T13:22:32Z</time>
      </trkpt>
      <trkpt lat="48.15145" lon="6.43475">
        <ele>420</ele>
        <time>2022-09-26T13:22:33Z</time>
      </trkpt>
      <trkpt lat="48.15146" lon="6.4348">
        <ele>420</ele>
        <time>2022-09-26T13:22:34Z</time>
      </trkpt>
      <trkpt lat="48.15149" lon="6.4348">
        <ele>419</ele>
        <time>2022-09-26T13:22:35Z</time>
      </trkpt>
      <trkpt lat="48.15151" lon="6.43485">
        <ele>419</ele>
        <time>2022-09-26T13:22:36Z</time>
      </trkpt>
      <trkpt lat="48.15153" lon="6.43485">
        <ele>418</ele>
        <time>2022-09-26T13:22:37Z</time>
      </trkpt>
      <trkpt lat="48.15155" lon="6.43489">
        <ele>417</ele>
        <time>2022-09-26T13:22:38Z</time>
      </trkpt>
      <trkpt lat="48.15157" lon="6.43494">
        <ele>417</ele>
        <time>2022-09-26T13:22:39Z</time>
      </trkpt>
      <trkpt lat="48.15159" lon="6.43498">
        <ele>417</ele>
        <time>2022-09-26T13:22:40Z</time>
      </trkpt>
      <trkpt lat="48.15161" lon="6.43504">
        <ele>416</ele>
        <time>2022-09-26T13:22:41Z</time>
      </trkpt>
      <trkpt lat="48.15164" lon="6.4351">
        <ele>416</ele>
        <time>2022-09-26T13:22:42Z</time>
      </trkpt>
      <trkpt lat="48.15167" lon="6.43522">
        <ele>415</ele>
        <time>2022-09-26T13:22:43Z</time>
      </trkpt>
      <trkpt lat="48.15168" lon="6.43528">
        <ele>415</ele>
        <time>2022-09-26T13:22:44Z</time>
      </trkpt>
      <trkpt lat="48.1517" lon="6.43528">
        <ele>415</ele>
        <time>2022-09-26T13:22:45Z</time>
      </trkpt>
      <trkpt lat="48.15172" lon="6.4354">
        <ele>415</ele>
        <time>2022-09-26T13:22:46Z</time>
      </trkpt>
      <trkpt lat="48.15174" lon="6.4354">
        <ele>415</ele>
        <time>2022-09-26T13:22:47Z</time>
      </trkpt>
      <trkpt lat="48.15176" lon="6.4355">
        <ele>415</ele>
        <time>2022-09-26T13:22:48Z</time>
      </trkpt>
      <trkpt lat="48.15178" lon="6.4355">
        <ele>415</ele>
        <time>2022-09-26T13:22:49Z</time>
      </trkpt>
      <trkpt lat="48.15179" lon="6.43559">
        <ele>415</ele>
        <time>2022-09-26T13:22:50Z</time>
      </trkpt>
      <trkpt lat="48.1518" lon="6.43559">
        <ele>415</ele>
        <time>2022-09-26T13:22:51Z</time>
      </trkpt>
      <trkpt lat="48.15181" lon="6.43569">
        <ele>415</ele>
        <time>2022-09-26T13:22:52Z</time>
      </trkpt>
      <trkpt lat="48.15181" lon="6.43569">
        <ele>415</ele>
        <time>2022-09-26T13:22:53Z</time>
      </trkpt>
      <trkpt lat="48.15181" lon="6.43574">
        <ele>415</ele>
        <time>2022-09-26T13:22:54Z</time>
      </trkpt>
      <trkpt lat="48.1518" lon="6.43578">
        <ele>415</ele>
        <time>2022-09-26T13:22:55Z</time>
      </trkpt>
      <trkpt lat="48.1518" lon="6.43581">
        <ele>415</ele>
        <time>2022-09-26T13:22:56Z</time>
      </trkpt>
      <trkpt lat="48.15181" lon="6.43585">
        <ele>415</ele>
        <time>2022-09-26T13:22:57Z</time>
      </trkpt>
      <trkpt lat="48.15181" lon="6.43593">
        <ele>414</ele>
        <time>2022-09-26T13:22:58Z</time>
      </trkpt>
      <trkpt lat="48.15181" lon="6.43593">
        <ele>414</ele>
        <time>2022-09-26T13:22:59Z</time>
      </trkpt>
      <trkpt lat="48.15181" lon="6.43596">
        <ele>414</ele>
        <time>2022-09-26T13:23:00Z</time>
      </trkpt>
      <trkpt lat="48.1518" lon="6.43601">
        <ele>414</ele>
        <time>2022-09-26T13:23:01Z</time>
      </trkpt>
      <trkpt lat="48.15179" lon="6.43606">
        <ele>413</ele>
        <time>2022-09-26T13:23:02Z</time>
      </trkpt>
      <trkpt lat="48.15177" lon="6.43615">
        <ele>413</ele>
        <time>2022-09-26T13:23:03Z</time>
      </trkpt>
      <trkpt lat="48.15175" lon="6.43619">
        <ele>412</ele>
        <time>2022-09-26T13:23:04Z</time>
      </trkpt>
      <trkpt lat="48.15173" lon="6.43623">
        <ele>412</ele>
        <time>2022-09-26T13:23:05Z</time>
      </trkpt>
      <trkpt lat="48.1517" lon="6.43623">
        <ele>412</ele>
        <time>2022-09-26T13:23:06Z</time>
      </trkpt>
      <trkpt lat="48.15168" lon="6.43627">
        <ele>412</ele>
        <time>2022-09-26T13:23:07Z</time>
      </trkpt>
      <trkpt lat="48.15166" lon="6.43631">
        <ele>411</ele>
        <time>2022-09-26T13:23:08Z</time>
      </trkpt>
      <trkpt lat="48.15164" lon="6.43636">
        <ele>411</ele>
        <time>2022-09-26T13:23:09Z</time>
      </trkpt>
      <trkpt lat="48.15162" lon="6.43641">
        <ele>410</ele>
        <time>2022-09-26T13:23:10Z</time>
      </trkpt>
      <trkpt lat="48.15159" lon="6.43646">
        <ele>410</ele>
        <time>2022-09-26T13:23:11Z</time>
      </trkpt>
      <trkpt lat="48.15158" lon="6.43651">
        <ele>410</ele>
        <time>2022-09-26T13:23:12Z</time>
      </trkpt>
      <trkpt lat="48.15157" lon="6.43655">
        <ele>409</ele>
        <time>2022-09-26T13:23:13Z</time>
      </trkpt>
      <trkpt lat="48.15157" lon="6.4366">
        <ele>409</ele>
        <time>2022-09-26T13:23:14Z</time>
      </trkpt>
      <trkpt lat="48.15156" lon="6.43664">
        <ele>408</ele>
        <time>2022-09-26T13:23:15Z</time>
      </trkpt>
      <trkpt lat="48.15157" lon="6.43669">
        <ele>408</ele>
        <time>2022-09-26T13:23:16Z</time>
      </trkpt>
      <trkpt lat="48.15157" lon="6.43678">
        <ele>407</ele>
        <time>2022-09-26T13:23:17Z</time>
      </trkpt>
      <trkpt lat="48.15157" lon="6.43682">
        <ele>407</ele>
        <time>2022-09-26T13:23:18Z</time>
      </trkpt>
      <trkpt lat="48.15158" lon="6.43685">
        <ele>407</ele>
        <time>2022-09-26T13:23:19Z</time>
      </trkpt>
      <trkpt lat="48.15159" lon="6.4369">
        <ele>406</ele>
        <time>2022-09-26T13:23:20Z</time>
      </trkpt>
      <trkpt lat="48.1516" lon="6.4369">
        <ele>406</ele>
        <time>2022-09-26T13:23:21Z</time>
      </trkpt>
      <trkpt lat="48.15161" lon="6.43693">
        <ele>406</ele>
        <time>2022-09-26T13:23:22Z</time>
      </trkpt>
      <trkpt lat="48.15161" lon="6.43697">
        <ele>405</ele>
        <time>2022-09-26T13:23:23Z</time>
      </trkpt>
      <trkpt lat="48.15161" lon="6.43701">
        <ele>405</ele>
        <time>2022-09-26T13:23:24Z</time>
      </trkpt>
      <trkpt lat="48.1516" lon="6.43706">
        <ele>405</ele>
        <time>2022-09-26T13:23:25Z</time>
      </trkpt>
      <trkpt lat="48.15159" lon="6.43714">
        <ele>405</ele>
        <time>2022-09-26T13:23:26Z</time>
      </trkpt>
      <trkpt lat="48.15157" lon="6.43719">
        <ele>405</ele>
        <time>2022-09-26T13:23:27Z</time>
      </trkpt>
      <trkpt lat="48.15155" lon="6.43719">
        <ele>406</ele>
        <time>2022-09-26T13:23:28Z</time>
      </trkpt>
      <trkpt lat="48.15153" lon="6.43726">
        <ele>406</ele>
        <time>2022-09-26T13:23:29Z</time>
      </trkpt>
      <trkpt lat="48.15151" lon="6.43726">
        <ele>406</ele>
        <time>2022-09-26T13:23:30Z</time>
      </trkpt>
      <trkpt lat="48.15148" lon="6.43729">
        <ele>407</ele>
        <time>2022-09-26T13:23:31Z</time>
      </trkpt>
      <trkpt lat="48.15145" lon="6.43733">
        <ele>407</ele>
        <time>2022-09-26T13:23:32Z</time>
      </trkpt>
      <trkpt lat="48.15143" lon="6.43741">
        <ele>407</ele>
        <time>2022-09-26T13:23:33Z</time>
      </trkpt>
      <trkpt lat="48.15141" lon="6.43744">
        <ele>407</ele>
        <time>2022-09-26T13:23:34Z</time>
      </trkpt>
      <trkpt lat="48.15138" lon="6.43744">
        <ele>408</ele>
        <time>2022-09-26T13:23:35Z</time>
      </trkpt>
      <trkpt lat="48.15135" lon="6.43752">
        <ele>408</ele>
        <time>2022-09-26T13:23:36Z</time>
      </trkpt>
      <trkpt lat="48.15132" lon="6.43752">
        <ele>409</ele>
        <time>2022-09-26T13:23:37Z</time>
      </trkpt>
      <trkpt lat="48.15129" lon="6.43756">
        <ele>409</ele>
        <time>2022-09-26T13:23:38Z</time>
      </trkpt>
      <trkpt lat="48.15125" lon="6.43759">
        <ele>409</ele>
        <time>2022-09-26T13:23:39Z</time>
      </trkpt>
      <trkpt lat="48.15122" lon="6.43765">
        <ele>410</ele>
        <time>2022-09-26T13:23:40Z</time>
      </trkpt>
      <trkpt lat="48.15119" lon="6.43765">
        <ele>410</ele>
        <time>2022-09-26T13:23:41Z</time>
      </trkpt>
      <trkpt lat="48.15116" lon="6.43769">
        <ele>410</ele>
        <time>2022-09-26T13:23:42Z</time>
      </trkpt>
      <trkpt lat="48.15113" lon="6.43773">
        <ele>411</ele>
        <time>2022-09-26T13:23:43Z</time>
      </trkpt>
      <trkpt lat="48.15109" lon="6.43777">
        <ele>411</ele>
        <time>2022-09-26T13:23:44Z</time>
      </trkpt>
      <trkpt lat="48.15105" lon="6.43781">
        <ele>411</ele>
        <time>2022-09-26T13:23:45Z</time>
      </trkpt>
      <trkpt lat="48.15102" lon="6.43789">
        <ele>411</ele>
        <time>2022-09-26T13:23:46Z</time>
      </trkpt>
      <trkpt lat="48.15098" lon="6.43793">
        <ele>411</ele>
        <time>2022-09-26T13:23:47Z</time>
      </trkpt>
      <trkpt lat="48.15095" lon="6.43793">
        <ele>411</ele>
        <time>2022-09-26T13:23:48Z</time>
      </trkpt>
      <trkpt lat="48.15093" lon="6.43799">
        <ele>411</ele>
        <time>2022-09-26T13:23:49Z</time>
      </trkpt>
      <trkpt lat="48.15094" lon="6.43797">
        <ele>411</ele>
        <time>2022-09-26T13:23:50Z</time>
      </trkpt>
      <trkpt lat="48.15094" lon="6.43797">
        <ele>411</ele>
        <time>2022-09-26T13:23:51Z</time>
      </trkpt>
      <trkpt lat="48.15094" lon="6.43797">
        <ele>411</ele>
        <time>2022-09-26T13:23:52Z</time>
      </trkpt>
      <trkpt lat="48.15094" lon="6.43797">
        <ele>411</ele>
        <time>2022-09-26T13:23:53Z</time>
      </trkpt>
      <trkpt lat="48.15094" lon="6.43797">
        <ele>411</ele>
        <time>2022-09-26T13:23:54Z</time>
      </trkpt>
      <trkpt lat="48.15093" lon="6.43797">
        <ele>411</ele>
        <time>2022-09-26T13:23:55Z</time>
      </trkpt>
      <trkpt lat="48.15093" lon="6.43798">
        <ele>411</ele>
        <time>2022-09-26T13:23:56Z</time>
      </trkpt>
      <trkpt lat="48.15093" lon="6.43798">
        <ele>411</ele>
        <time>2022-09-26T13:23:57Z</time>
      </trkpt>
      <trkpt lat="48.15093" lon="6.43798">
        <ele>411</ele>
        <time>2022-09-26T13:23:58Z</time>
      </trkpt>
      <trkpt lat="48.15093" lon="6.438">
        <ele>411</ele>
        <time>2022-09-26T13:23:59Z</time>
      </trkpt>
      <trkpt lat="48.15093" lon="6.43801">
        <ele>410</ele>
        <time>2022-09-26T13:24:00Z</time>
      </trkpt>
      <trkpt lat="48.15093" lon="6.43801">
        <ele>410</ele>
        <time>2022-09-26T13:24:01Z</time>
      </trkpt>
      <trkpt lat="48.15093" lon="6.43804">
        <ele>410</ele>
        <time>2022-09-26T13:24:02Z</time>
      </trkpt>
      <trkpt lat="48.15092" lon="6.43805">
        <ele>410</ele>
        <time>2022-09-26T13:24:03Z</time>
      </trkpt>
      <trkpt lat="48.1509" lon="6.43839">
        <ele>407</ele>
        <time>2022-09-26T13:24:31Z</time>
      </trkpt>
      <trkpt lat="48.1509" lon="6.43843">
        <ele>406</ele>
        <time>2022-09-26T13:24:32Z</time>
      </trkpt>
      <trkpt lat="48.1509" lon="6.43846">
        <ele>406</ele>
        <time>2022-09-26T13:24:33Z</time>
      </trkpt>
      <trkpt lat="48.1509" lon="6.4385">
        <ele>405</ele>
        <time>2022-09-26T13:24:34Z</time>
      </trkpt>
      <trkpt lat="48.15089" lon="6.43853">
        <ele>405</ele>
        <time>2022-09-26T13:24:35Z</time>
      </trkpt>
      <trkpt lat="48.1509" lon="6.43856">
        <ele>404</ele>
        <time>2022-09-26T13:24:36Z</time>
      </trkpt>
      <trkpt lat="48.1509" lon="6.43859">
        <ele>404</ele>
        <time>2022-09-26T13:24:37Z</time>
      </trkpt>
      <trkpt lat="48.1509" lon="6.43863">
        <ele>403</ele>
        <time>2022-09-26T13:24:38Z</time>
      </trkpt>
      <trkpt lat="48.1509" lon="6.43867">
        <ele>403</ele>
        <time>2022-09-26T13:24:39Z</time>
      </trkpt>
      <trkpt lat="48.15091" lon="6.43869">
        <ele>402</ele>
        <time>2022-09-26T13:24:40Z</time>
      </trkpt>
      <trkpt lat="48.15091" lon="6.43872">
        <ele>402</ele>
        <time>2022-09-26T13:24:41Z</time>
      </trkpt>
      <trkpt lat="48.15091" lon="6.43875">
        <ele>401</ele>
        <time>2022-09-26T13:24:42Z</time>
      </trkpt>
      <trkpt lat="48.15091" lon="6.43877">
        <ele>401</ele>
        <time>2022-09-26T13:24:43Z</time>
      </trkpt>
      <trkpt lat="48.15092" lon="6.4388">
        <ele>400</ele>
        <time>2022-09-26T13:24:44Z</time>
      </trkpt>
      <trkpt lat="48.15093" lon="6.43882">
        <ele>400</ele>
        <time>2022-09-26T13:24:45Z</time>
      </trkpt>
      <trkpt lat="48.15094" lon="6.43883">
        <ele>400</ele>
        <time>2022-09-26T13:24:46Z</time>
      </trkpt>
      <trkpt lat="48.15094" lon="6.43884">
        <ele>399</ele>
        <time>2022-09-26T13:24:47Z</time>
      </trkpt>
      <trkpt lat="48.15095" lon="6.43885">
        <ele>399</ele>
        <time>2022-09-26T13:24:48Z</time>
      </trkpt>
      <trkpt lat="48.15095" lon="6.43886">
        <ele>399</ele>
        <time>2022-09-26T13:24:49Z</time>
      </trkpt>
      <trkpt lat="48.15094" lon="6.43888">
        <ele>399</ele>
        <time>2022-09-26T13:24:50Z</time>
      </trkpt>
      <trkpt lat="48.15094" lon="6.43889">
        <ele>399</ele>
        <time>2022-09-26T13:24:51Z</time>
      </trkpt>
      <trkpt lat="48.15095" lon="6.43892">
        <ele>398</ele>
        <time>2022-09-26T13:24:52Z</time>
      </trkpt>
      <trkpt lat="48.15095" lon="6.43893">
        <ele>398</ele>
        <time>2022-09-26T13:24:53Z</time>
      </trkpt>
      <trkpt lat="48.15093" lon="6.43895">
        <ele>398</ele>
        <time>2022-09-26T13:24:54Z</time>
      </trkpt>
      <trkpt lat="48.15092" lon="6.43897">
        <ele>398</ele>
        <time>2022-09-26T13:24:55Z</time>
      </trkpt>
      <trkpt lat="48.15089" lon="6.439">
        <ele>398</ele>
        <time>2022-09-26T13:24:56Z</time>
      </trkpt>
      <trkpt lat="48.15087" lon="6.43903">
        <ele>398</ele>
        <time>2022-09-26T13:24:57Z</time>
      </trkpt>
      <trkpt lat="48.15085" lon="6.43905">
        <ele>398</ele>
        <time>2022-09-26T13:24:58Z</time>
      </trkpt>
      <trkpt lat="48.15083" lon="6.43907">
        <ele>398</ele>
        <time>2022-09-26T13:24:59Z</time>
      </trkpt>
      <trkpt lat="48.15082" lon="6.4391">
        <ele>397</ele>
        <time>2022-09-26T13:25:00Z</time>
      </trkpt>
      <trkpt lat="48.15082" lon="6.43913">
        <ele>397</ele>
        <time>2022-09-26T13:25:01Z</time>
      </trkpt>
      <trkpt lat="48.15082" lon="6.43916">
        <ele>397</ele>
        <time>2022-09-26T13:25:02Z</time>
      </trkpt>
      <trkpt lat="48.15082" lon="6.43919">
        <ele>397</ele>
        <time>2022-09-26T13:25:03Z</time>
      </trkpt>
      <trkpt lat="48.15082" lon="6.43921">
        <ele>396</ele>
        <time>2022-09-26T13:25:04Z</time>
      </trkpt>
      <trkpt lat="48.15083" lon="6.43924">
        <ele>396</ele>
        <time>2022-09-26T13:25:05Z</time>
      </trkpt>
      <trkpt lat="48.15084" lon="6.43927">
        <ele>396</ele>
        <time>2022-09-26T13:25:06Z</time>
      </trkpt>
      <trkpt lat="48.15085" lon="6.4393">
        <ele>396</ele>
        <time>2022-09-26T13:25:07Z</time>
      </trkpt>
      <trkpt lat="48.15085" lon="6.43932">
        <ele>396</ele>
        <time>2022-09-26T13:25:08Z</time>
      </trkpt>
      <trkpt lat="48.15085" lon="6.43935">
        <ele>396</ele>
        <time>2022-09-26T13:25:09Z</time>
      </trkpt>
      <trkpt lat="48.15085" lon="6.43937">
        <ele>396</ele>
        <time>2022-09-26T13:25:10Z</time>
      </trkpt>
      <trkpt lat="48.15085" lon="6.4394">
        <ele>395</ele>
        <time>2022-09-26T13:25:11Z</time>
      </trkpt>
      <trkpt lat="48.15085" lon="6.43942">
        <ele>395</ele>
        <time>2022-09-26T13:25:12Z</time>
      </trkpt>
      <trkpt lat="48.15084" lon="6.43944">
        <ele>395</ele>
        <time>2022-09-26T13:25:13Z</time>
      </trkpt>
      <trkpt lat="48.15083" lon="6.43945">
        <ele>396</ele>
        <time>2022-09-26T13:25:14Z</time>
      </trkpt>
      <trkpt lat="48.15082" lon="6.43946">
        <ele>396</ele>
        <time>2022-09-26T13:25:15Z</time>
      </trkpt>
      <trkpt lat="48.1508" lon="6.43945">
        <ele>396</ele>
        <time>2022-09-26T13:25:16Z</time>
      </trkpt>
      <trkpt lat="48.1508" lon="6.43945">
        <ele>396</ele>
        <time>2022-09-26T13:25:17Z</time>
      </trkpt>
      <trkpt lat="48.1508" lon="6.43945">
        <ele>396</ele>
        <time>2022-09-26T13:25:18Z</time>
      </trkpt>
      <trkpt lat="48.1508" lon="6.43945">
        <ele>396</ele>
        <time>2022-09-26T13:25:19Z</time>
      </trkpt>
      <trkpt lat="48.1508" lon="6.43945">
        <ele>396</ele>
        <time>2022-09-26T13:25:20Z</time>
      </trkpt>
      <trkpt lat="48.1508" lon="6.43945">
        <ele>396</ele>
        <time>2022-09-26T13:25:21Z</time>
      </trkpt>
      <trkpt lat="48.1508" lon="6.43945">
        <ele>396</ele>
        <time>2022-09-26T13:25:23Z</time>
      </trkpt>
      <trkpt lat="48.1508" lon="6.43945">
        <ele>396</ele>
        <time>2022-09-26T13:25:24Z</time>
      </trkpt>
      <trkpt lat="48.1508" lon="6.43945">
        <ele>396</ele>
        <time>2022-09-26T13:25:25Z</time>
      </trkpt>
      <trkpt lat="48.1508" lon="6.43945">
        <ele>396</ele>
        <time>2022-09-26T13:25:26Z</time>
      </trkpt>
      <trkpt lat="48.1508" lon="6.43945">
        <ele>396</ele>
        <time>2022-09-26T13:25:27Z</time>
      </trkpt>
      <trkpt lat="48.1508" lon="6.43945">
        <ele>396</ele>
        <time>2022-09-26T13:25:28Z</time>
      </trkpt>
      <trkpt lat="48.1508" lon="6.43945">
        <ele>396</ele>
        <time>2022-09-26T13:25:29Z</time>
      </trkpt>
      <trkpt lat="48.1508" lon="6.43945">
        <ele>396</ele>
        <time>2022-09-26T13:25:30Z</time>
      </trkpt>
      <trkpt lat="48.15075" lon="6.43956">
        <ele>396</ele>
        <time>2022-09-26T13:25:43Z</time>
      </trkpt>
      <trkpt lat="48.15075" lon="6.43956">
        <ele>396</ele>
        <time>2022-09-26T13:25:44Z</time>
      </trkpt>
      <trkpt lat="48.15075" lon="6.43957">
        <ele>396</ele>
        <time>2022-09-26T13:25:45Z</time>
      </trkpt>
      <trkpt lat="48.15076" lon="6.43958">
        <ele>396</ele>
        <time>2022-09-26T13:25:46Z</time>
      </trkpt>
      <trkpt lat="48.15076" lon="6.43959">
        <ele>395</ele>
        <time>2022-09-26T13:25:47Z</time>
      </trkpt>
      <trkpt lat="48.15077" lon="6.43961">
        <ele>395</ele>
        <time>2022-09-26T13:25:48Z</time>
      </trkpt>
      <trkpt lat="48.15077" lon="6.43961">
        <ele>395</ele>
        <time>2022-09-26T13:25:49Z</time>
      </trkpt>
      <trkpt lat="48.15077" lon="6.43963">
        <ele>395</ele>
        <time>2022-09-26T13:25:50Z</time>
      </trkpt>
      <trkpt lat="48.15078" lon="6.43965">
        <ele>395</ele>
        <time>2022-09-26T13:25:51Z</time>
      </trkpt>
      <trkpt lat="48.15079" lon="6.43966">
        <ele>395</ele>
        <time>2022-09-26T13:25:52Z</time>
      </trkpt>
      <trkpt lat="48.15079" lon="6.43968">
        <ele>394</ele>
        <time>2022-09-26T13:25:53Z</time>
      </trkpt>
      <trkpt lat="48.15078" lon="6.4397">
        <ele>394</ele>
        <time>2022-09-26T13:25:54Z</time>
      </trkpt>
      <trkpt lat="48.15077" lon="6.43973">
        <ele>394</ele>
        <time>2022-09-26T13:25:55Z</time>
      </trkpt>
      <trkpt lat="48.15075" lon="6.43976">
        <ele>394</ele>
        <time>2022-09-26T13:25:56Z</time>
      </trkpt>
      <trkpt lat="48.15073" lon="6.43978">
        <ele>394</ele>
        <time>2022-09-26T13:25:57Z</time>
      </trkpt>
      <trkpt lat="48.15071" lon="6.43981">
        <ele>394</ele>
        <time>2022-09-26T13:25:58Z</time>
      </trkpt>
      <trkpt lat="48.15069" lon="6.43984">
        <ele>394</ele>
        <time>2022-09-26T13:25:59Z</time>
      </trkpt>
      <trkpt lat="48.15066" lon="6.43986">
        <ele>395</ele>
        <time>2022-09-26T13:26:00Z</time>
      </trkpt>
      <trkpt lat="48.15064" lon="6.43988">
        <ele>395</ele>
        <time>2022-09-26T13:26:01Z</time>
      </trkpt>
      <trkpt lat="48.15062" lon="6.43991">
        <ele>395</ele>
        <time>2022-09-26T13:26:02Z</time>
      </trkpt>
      <trkpt lat="48.15061" lon="6.43993">
        <ele>395</ele>
        <time>2022-09-26T13:26:03Z</time>
      </trkpt>
      <trkpt lat="48.1506" lon="6.43996">
        <ele>395</ele>
        <time>2022-09-26T13:26:04Z</time>
      </trkpt>
      <trkpt lat="48.15059" lon="6.43999">
        <ele>395</ele>
        <time>2022-09-26T13:26:05Z</time>
      </trkpt>
      <trkpt lat="48.15059" lon="6.44002">
        <ele>394</ele>
        <time>2022-09-26T13:26:06Z</time>
      </trkpt>
      <trkpt lat="48.15059" lon="6.44006">
        <ele>394</ele>
        <time>2022-09-26T13:26:07Z</time>
      </trkpt>
      <trkpt lat="48.15059" lon="6.44008">
        <ele>394</ele>
        <time>2022-09-26T13:26:08Z</time>
      </trkpt>
      <trkpt lat="48.15059" lon="6.44011">
        <ele>393</ele>
        <time>2022-09-26T13:26:09Z</time>
      </trkpt>
      <trkpt lat="48.1506" lon="6.44013">
        <ele>393</ele>
        <time>2022-09-26T13:26:10Z</time>
      </trkpt>
      <trkpt lat="48.1506" lon="6.44016">
        <ele>392</ele>
        <time>2022-09-26T13:26:11Z</time>
      </trkpt>
      <trkpt lat="48.15059" lon="6.44019">
        <ele>392</ele>
        <time>2022-09-26T13:26:12Z</time>
      </trkpt>
      <trkpt lat="48.15059" lon="6.44023">
        <ele>392</ele>
        <time>2022-09-26T13:26:13Z</time>
      </trkpt>
      <trkpt lat="48.15058" lon="6.44026">
        <ele>391</ele>
        <time>2022-09-26T13:26:14Z</time>
      </trkpt>
      <trkpt lat="48.15057" lon="6.44028">
        <ele>391</ele>
        <time>2022-09-26T13:26:15Z</time>
      </trkpt>
      <trkpt lat="48.15056" lon="6.44031">
        <ele>392</ele>
        <time>2022-09-26T13:26:16Z</time>
      </trkpt>
      <trkpt lat="48.15055" lon="6.44034">
        <ele>392</ele>
        <time>2022-09-26T13:26:17Z</time>
      </trkpt>
      <trkpt lat="48.15055" lon="6.44037">
        <ele>392</ele>
        <time>2022-09-26T13:26:18Z</time>
      </trkpt>
      <trkpt lat="48.15055" lon="6.44039">
        <ele>392</ele>
        <time>2022-09-26T13:26:19Z</time>
      </trkpt>
      <trkpt lat="48.15054" lon="6.44041">
        <ele>392</ele>
        <time>2022-09-26T13:26:20Z</time>
      </trkpt>
      <trkpt lat="48.15054" lon="6.44044">
        <ele>392</ele>
        <time>2022-09-26T13:26:21Z</time>
      </trkpt>
      <trkpt lat="48.15054" lon="6.44047">
        <ele>393</ele>
        <time>2022-09-26T13:26:22Z</time>
      </trkpt>
      <trkpt lat="48.15053" lon="6.44051">
        <ele>393</ele>
        <time>2022-09-26T13:26:23Z</time>
      </trkpt>
      <trkpt lat="48.15052" lon="6.44053">
        <ele>393</ele>
        <time>2022-09-26T13:26:24Z</time>
      </trkpt>
      <trkpt lat="48.15052" lon="6.44056">
        <ele>393</ele>
        <time>2022-09-26T13:26:25Z</time>
      </trkpt>
      <trkpt lat="48.15051" lon="6.44059">
        <ele>393</ele>
        <time>2022-09-26T13:26:26Z</time>
      </trkpt>
      <trkpt lat="48.15051" lon="6.44061">
        <ele>393</ele>
        <time>2022-09-26T13:26:27Z</time>
      </trkpt>
      <trkpt lat="48.15051" lon="6.44063">
        <ele>393</ele>
        <time>2022-09-26T13:26:28Z</time>
      </trkpt>
      <trkpt lat="48.15051" lon="6.44066">
        <ele>393</ele>
        <time>2022-09-26T13:26:29Z</time>
      </trkpt>
      <trkpt lat="48.15051" lon="6.44069">
        <ele>393</ele>
        <time>2022-09-26T13:26:30Z</time>
      </trkpt>
      <trkpt lat="48.15051" lon="6.44071">
        <ele>393</ele>
        <time>2022-09-26T13:26:31Z</time>
      </trkpt>
      <trkpt lat="48.15051" lon="6.44075">
        <ele>393</ele>
        <time>2022-09-26T13:26:32Z</time>
      </trkpt>
      <trkpt lat="48.15052" lon="6.44078">
        <ele>393</ele>
        <time>2022-09-26T13:26:33Z</time>
      </trkpt>
      <trkpt lat="48.15052" lon="6.4408">
        <ele>392</ele>
        <time>2022-09-26T13:26:34Z</time>
      </trkpt>
      <trkpt lat="48.15053" lon="6.44083">
        <ele>392</ele>
        <time>2022-09-26T13:26:35Z</time>
      </trkpt>
      <trkpt lat="48.15054" lon="6.44085">
        <ele>392</ele>
        <time>2022-09-26T13:26:36Z</time>
      </trkpt>
      <trkpt lat="48.15054" lon="6.44087">
        <ele>392</ele>
        <time>2022-09-26T13:26:37Z</time>
      </trkpt>
      <trkpt lat="48.15055" lon="6.4409">
        <ele>392</ele>
        <time>2022-09-26T13:26:38Z</time>
      </trkpt>
      <trkpt lat="48.15055" lon="6.44093">
        <ele>392</ele>
        <time>2022-09-26T13:26:39Z</time>
      </trkpt>
      <trkpt lat="48.15056" lon="6.44096">
        <ele>392</ele>
        <time>2022-09-26T13:26:40Z</time>
      </trkpt>
      <trkpt lat="48.15056" lon="6.44098">
        <ele>392</ele>
        <time>2022-09-26T13:26:41Z</time>
      </trkpt>
      <trkpt lat="48.15056" lon="6.44101">
        <ele>392</ele>
        <time>2022-09-26T13:26:42Z</time>
      </trkpt>
      <trkpt lat="48.15056" lon="6.44103">
        <ele>392</ele>
        <time>2022-09-26T13:26:43Z</time>
      </trkpt>
      <trkpt lat="48.15056" lon="6.44106">
        <ele>392</ele>
        <time>2022-09-26T13:26:44Z</time>
      </trkpt>
      <trkpt lat="48.15056" lon="6.44109">
        <ele>392</ele>
        <time>2022-09-26T13:26:45Z</time>
      </trkpt>
      <trkpt lat="48.15056" lon="6.44112">
        <ele>392</ele>
        <time>2022-09-26T13:26:46Z</time>
      </trkpt>
      <trkpt lat="48.15056" lon="6.44115">
        <ele>392</ele>
        <time>2022-09-26T13:26:47Z</time>
      </trkpt>
      <trkpt lat="48.15056" lon="6.44117">
        <ele>392</ele>
        <time>2022-09-26T13:26:48Z</time>
      </trkpt>
      <trkpt lat="48.15057" lon="6.4412">
        <ele>392</ele>
        <time>2022-09-26T13:26:49Z</time>
      </trkpt>
      <trkpt lat="48.15056" lon="6.44121">
        <ele>393</ele>
        <time>2022-09-26T13:26:50Z</time>
      </trkpt>
      <trkpt lat="48.15056" lon="6.44125">
        <ele>393</ele>
        <time>2022-09-26T13:26:51Z</time>
      </trkpt>
      <trkpt lat="48.15057" lon="6.44128">
        <ele>393</ele>
        <time>2022-09-26T13:26:52Z</time>
      </trkpt>
      <trkpt lat="48.15057" lon="6.44131">
        <ele>393</ele>
        <time>2022-09-26T13:26:53Z</time>
      </trkpt>
      <trkpt lat="48.15058" lon="6.44133">
        <ele>393</ele>
        <time>2022-09-26T13:26:54Z</time>
      </trkpt>
      <trkpt lat="48.15059" lon="6.44136">
        <ele>392</ele>
        <time>2022-09-26T13:26:55Z</time>
      </trkpt>
      <trkpt lat="48.1506" lon="6.44138">
        <ele>392</ele>
        <time>2022-09-26T13:26:56Z</time>
      </trkpt>
      <trkpt lat="48.15059" lon="6.44138">
        <ele>392</ele>
        <time>2022-09-26T13:26:57Z</time>
      </trkpt>
      <trkpt lat="48.1506" lon="6.4414">
        <ele>392</ele>
        <time>2022-09-26T13:26:58Z</time>
      </trkpt>
      <trkpt lat="48.1506" lon="6.4414">
        <ele>392</ele>
        <time>2022-09-26T13:26:59Z</time>
      </trkpt>
      <trkpt lat="48.15061" lon="6.44142">
        <ele>392</ele>
        <time>2022-09-26T13:27:00Z</time>
      </trkpt>
      <trkpt lat="48.15062" lon="6.44144">
        <ele>392</ele>
        <time>2022-09-26T13:27:01Z</time>
      </trkpt>
      <trkpt lat="48.15064" lon="6.44146">
        <ele>391</ele>
        <time>2022-09-26T13:27:02Z</time>
      </trkpt>
      <trkpt lat="48.15064" lon="6.44149">
        <ele>391</ele>
        <time>2022-09-26T13:27:03Z</time>
      </trkpt>
      <trkpt lat="48.15065" lon="6.44152">
        <ele>391</ele>
        <time>2022-09-26T13:27:04Z</time>
      </trkpt>
      <trkpt lat="48.15066" lon="6.44156">
        <ele>391</ele>
        <time>2022-09-26T13:27:05Z</time>
      </trkpt>
      <trkpt lat="48.15067" lon="6.44159">
        <ele>391</ele>
        <time>2022-09-26T13:27:06Z</time>
      </trkpt>
      <trkpt lat="48.15067" lon="6.44161">
        <ele>391</ele>
        <time>2022-09-26T13:27:07Z</time>
      </trkpt>
      <trkpt lat="48.15069" lon="6.44165">
        <ele>390</ele>
        <time>2022-09-26T13:27:08Z</time>
      </trkpt>
      <trkpt lat="48.15071" lon="6.44168">
        <ele>390</ele>
        <time>2022-09-26T13:27:09Z</time>
      </trkpt>
      <trkpt lat="48.15072" lon="6.44171">
        <ele>390</ele>
        <time>2022-09-26T13:27:10Z</time>
      </trkpt>
      <trkpt lat="48.15074" lon="6.44175">
        <ele>390</ele>
        <time>2022-09-26T13:27:11Z</time>
      </trkpt>
      <trkpt lat="48.15075" lon="6.44178">
        <ele>390</ele>
        <time>2022-09-26T13:27:12Z</time>
      </trkpt>
      <trkpt lat="48.15076" lon="6.44181">
        <ele>390</ele>
        <time>2022-09-26T13:27:13Z</time>
      </trkpt>
      <trkpt lat="48.15077" lon="6.44184">
        <ele>390</ele>
        <time>2022-09-26T13:27:14Z</time>
      </trkpt>
      <trkpt lat="48.15078" lon="6.44188">
        <ele>390</ele>
        <time>2022-09-26T13:27:15Z</time>
      </trkpt>
      <trkpt lat="48.15079" lon="6.44192">
        <ele>390</ele>
        <time>2022-09-26T13:27:16Z</time>
      </trkpt>
      <trkpt lat="48.15081" lon="6.44196">
        <ele>390</ele>
        <time>2022-09-26T13:27:17Z</time>
      </trkpt>
      <trkpt lat="48.15082" lon="6.44201">
        <ele>390</ele>
        <time>2022-09-26T13:27:18Z</time>
      </trkpt>
      <trkpt lat="48.15083" lon="6.44205">
        <ele>390</ele>
        <time>2022-09-26T13:27:19Z</time>
      </trkpt>
      <trkpt lat="48.15083" lon="6.44209">
        <ele>391</ele>
        <time>2022-09-26T13:27:20Z</time>
      </trkpt>
      <trkpt lat="48.15083" lon="6.44214">
        <ele>391</ele>
        <time>2022-09-26T13:27:21Z</time>
      </trkpt>
      <trkpt lat="48.15083" lon="6.44218">
        <ele>391</ele>
        <time>2022-09-26T13:27:22Z</time>
      </trkpt>
      <trkpt lat="48.15084" lon="6.44222">
        <ele>391</ele>
        <time>2022-09-26T13:27:23Z</time>
      </trkpt>
      <trkpt lat="48.15084" lon="6.44226">
        <ele>391</ele>
        <time>2022-09-26T13:27:24Z</time>
      </trkpt>
      <trkpt lat="48.15085" lon="6.44229">
        <ele>391</ele>
        <time>2022-09-26T13:27:25Z</time>
      </trkpt>
      <trkpt lat="48.15087" lon="6.44235">
        <ele>390</ele>
        <time>2022-09-26T13:27:26Z</time>
      </trkpt>
      <trkpt lat="48.15089" lon="6.44241">
        <ele>390</ele>
        <time>2022-09-26T13:27:27Z</time>
      </trkpt>
      <trkpt lat="48.15089" lon="6.44247">
        <ele>390</ele>
        <time>2022-09-26T13:27:28Z</time>
      </trkpt>
      <trkpt lat="48.15086" lon="6.44249">
        <ele>391</ele>
        <time>2022-09-26T13:27:29Z</time>
      </trkpt>
      <trkpt lat="48.15083" lon="6.44252">
        <ele>392</ele>
        <time>2022-09-26T13:27:30Z</time>
      </trkpt>
      <trkpt lat="48.15082" lon="6.44253">
        <ele>392</ele>
        <time>2022-09-26T13:27:31Z</time>
      </trkpt>
      <trkpt lat="48.1508" lon="6.44255">
        <ele>392</ele>
        <time>2022-09-26T13:27:32Z</time>
      </trkpt>
      <trkpt lat="48.15079" lon="6.44256">
        <ele>392</ele>
        <time>2022-09-26T13:27:33Z</time>
      </trkpt>
      <trkpt lat="48.15078" lon="6.44257">
        <ele>392</ele>
        <time>2022-09-26T13:27:34Z</time>
      </trkpt>
      <trkpt lat="48.15077" lon="6.44258">
        <ele>392</ele>
        <time>2022-09-26T13:27:35Z</time>
      </trkpt>
      <trkpt lat="48.15076" lon="6.44259">
        <ele>392</ele>
        <time>2022-09-26T13:27:36Z</time>
      </trkpt>
      <trkpt lat="48.15075" lon="6.44259">
        <ele>392</ele>
        <time>2022-09-26T13:27:37Z</time>
      </trkpt>
      <trkpt lat="48.15074" lon="6.44259">
        <ele>392</ele>
        <time>2022-09-26T13:27:38Z</time>
      </trkpt>
      <trkpt lat="48.15072" lon="6.44261">
        <ele>392</ele>
        <time>2022-09-26T13:27:39Z</time>
      </trkpt>
      <trkpt lat="48.1507" lon="6.44264">
        <ele>392</ele>
        <time>2022-09-26T13:27:40Z</time>
      </trkpt>
      <trkpt lat="48.15068" lon="6.44266">
        <ele>392</ele>
        <time>2022-09-26T13:27:41Z</time>
      </trkpt>
      <trkpt lat="48.15067" lon="6.44269">
        <ele>392</ele>
        <time>2022-09-26T13:27:42Z</time>
      </trkpt>
      <trkpt lat="48.15065" lon="6.44272">
        <ele>392</ele>
        <time>2022-09-26T13:27:43Z</time>
      </trkpt>
      <trkpt lat="48.15064" lon="6.44274">
        <ele>392</ele>
        <time>2022-09-26T13:27:44Z</time>
      </trkpt>
      <trkpt lat="48.15064" lon="6.44277">
        <ele>392</ele>
        <time>2022-09-26T13:27:45Z</time>
      </trkpt>
      <trkpt lat="48.15063" lon="6.4428">
        <ele>391</ele>
        <time>2022-09-26T13:27:46Z</time>
      </trkpt>
      <trkpt lat="48.15062" lon="6.44283">
        <ele>391</ele>
        <time>2022-09-26T13:27:47Z</time>
      </trkpt>
      <trkpt lat="48.15061" lon="6.44285">
        <ele>391</ele>
        <time>2022-09-26T13:27:48Z</time>
      </trkpt>
      <trkpt lat="48.15061" lon="6.44287">
        <ele>391</ele>
        <time>2022-09-26T13:27:49Z</time>
      </trkpt>
      <trkpt lat="48.1506" lon="6.4429">
        <ele>391</ele>
        <time>2022-09-26T13:27:50Z</time>
      </trkpt>
      <trkpt lat="48.1506" lon="6.44293">
        <ele>390</ele>
        <time>2022-09-26T13:27:51Z</time>
      </trkpt>
      <trkpt lat="48.1506" lon="6.44295">
        <ele>390</ele>
        <time>2022-09-26T13:27:52Z</time>
      </trkpt>
      <trkpt lat="48.15059" lon="6.44298">
        <ele>390</ele>
        <time>2022-09-26T13:27:53Z</time>
      </trkpt>
      <trkpt lat="48.15058" lon="6.443">
        <ele>390</ele>
        <time>2022-09-26T13:27:54Z</time>
      </trkpt>
      <trkpt lat="48.15057" lon="6.44303">
        <ele>390</ele>
        <time>2022-09-26T13:27:55Z</time>
      </trkpt>
      <trkpt lat="48.15057" lon="6.44305">
        <ele>390</ele>
        <time>2022-09-26T13:27:56Z</time>
      </trkpt>
      <trkpt lat="48.15056" lon="6.44308">
        <ele>389</ele>
        <time>2022-09-26T13:27:57Z</time>
      </trkpt>
      <trkpt lat="48.15056" lon="6.4431">
        <ele>389</ele>
        <time>2022-09-26T13:27:58Z</time>
      </trkpt>
      <trkpt lat="48.15055" lon="6.44313">
        <ele>389</ele>
        <time>2022-09-26T13:27:59Z</time>
      </trkpt>
      <trkpt lat="48.15053" lon="6.44315">
        <ele>389</ele>
        <time>2022-09-26T13:28:00Z</time>
      </trkpt>
      <trkpt lat="48.1505" lon="6.44316">
        <ele>388</ele>
        <time>2022-09-26T13:28:01Z</time>
      </trkpt>
      <trkpt lat="48.15046" lon="6.44317">
        <ele>388</ele>
        <time>2022-09-26T13:28:02Z</time>
      </trkpt>
      <trkpt lat="48.15042" lon="6.44316">
        <ele>387</ele>
        <time>2022-09-26T13:28:03Z</time>
      </trkpt>
      <trkpt lat="48.15039" lon="6.44315">
        <ele>387</ele>
        <time>2022-09-26T13:28:04Z</time>
      </trkpt>
      <trkpt lat="48.15036" lon="6.44314">
        <ele>387</ele>
        <time>2022-09-26T13:28:05Z</time>
      </trkpt>
      <trkpt lat="48.15033" lon="6.44313">
        <ele>387</ele>
        <time>2022-09-26T13:28:06Z</time>
      </trkpt>
      <trkpt lat="48.1503" lon="6.44312">
        <ele>386</ele>
        <time>2022-09-26T13:28:07Z</time>
      </trkpt>
      <trkpt lat="48.15028" lon="6.44309">
        <ele>386</ele>
        <time>2022-09-26T13:28:08Z</time>
      </trkpt>
      <trkpt lat="48.15026" lon="6.44306">
        <ele>386</ele>
        <time>2022-09-26T13:28:09Z</time>
      </trkpt>
      <trkpt lat="48.15026" lon="6.44303">
        <ele>386</ele>
        <time>2022-09-26T13:28:10Z</time>
      </trkpt>
      <trkpt lat="48.15025" lon="6.443">
        <ele>386</ele>
        <time>2022-09-26T13:28:11Z</time>
      </trkpt>
      <trkpt lat="48.15025" lon="6.44297">
        <ele>386</ele>
        <time>2022-09-26T13:28:12Z</time>
      </trkpt>
      <trkpt lat="48.15024" lon="6.44295">
        <ele>387</ele>
        <time>2022-09-26T13:28:13Z</time>
      </trkpt>
      <trkpt lat="48.15024" lon="6.44293">
        <ele>387</ele>
        <time>2022-09-26T13:28:14Z</time>
      </trkpt>
      <trkpt lat="48.15025" lon="6.44292">
        <ele>387</ele>
        <time>2022-09-26T13:28:15Z</time>
      </trkpt>
      <trkpt lat="48.15025" lon="6.4429">
        <ele>387</ele>
        <time>2022-09-26T13:28:16Z</time>
      </trkpt>
      <trkpt lat="48.15025" lon="6.44288">
        <ele>387</ele>
        <time>2022-09-26T13:28:17Z</time>
      </trkpt>
      <trkpt lat="48.15026" lon="6.44285">
        <ele>388</ele>
        <time>2022-09-26T13:28:18Z</time>
      </trkpt>
      <trkpt lat="48.15025" lon="6.44283">
        <ele>388</ele>
        <time>2022-09-26T13:28:19Z</time>
      </trkpt>
      <trkpt lat="48.15025" lon="6.44282">
        <ele>388</ele>
        <time>2022-09-26T13:28:20Z</time>
      </trkpt>
      <trkpt lat="48.15025" lon="6.4428">
        <ele>388</ele>
        <time>2022-09-26T13:28:21Z</time>
      </trkpt>
      <trkpt lat="48.15025" lon="6.44278">
        <ele>388</ele>
        <time>2022-09-26T13:28:22Z</time>
      </trkpt>
      <trkpt lat="48.15025" lon="6.44276">
        <ele>388</ele>
        <time>2022-09-26T13:28:23Z</time>
      </trkpt>
      <trkpt lat="48.15025" lon="6.44274">
        <ele>388</ele>
        <time>2022-09-26T13:28:24Z</time>
      </trkpt>
      <trkpt lat="48.15025" lon="6.44273">
        <ele>388</ele>
        <time>2022-09-26T13:28:25Z</time>
      </trkpt>
      <trkpt lat="48.15024" lon="6.44271">
        <ele>388</ele>
        <time>2022-09-26T13:28:26Z</time>
      </trkpt>
      <trkpt lat="48.15024" lon="6.44269">
        <ele>389</ele>
        <time>2022-09-26T13:28:27Z</time>
      </trkpt>
      <trkpt lat="48.15024" lon="6.44267">
        <ele>389</ele>
        <time>2022-09-26T13:28:28Z</time>
      </trkpt>
      <trkpt lat="48.15024" lon="6.44264">
        <ele>389</ele>
        <time>2022-09-26T13:28:29Z</time>
      </trkpt>
      <trkpt lat="48.15024" lon="6.4426">
        <ele>389</ele>
        <time>2022-09-26T13:28:30Z</time>
      </trkpt>
      <trkpt lat="48.15024" lon="6.44257">
        <ele>389</ele>
        <time>2022-09-26T13:28:31Z</time>
      </trkpt>
      <trkpt lat="48.15023" lon="6.44255">
        <ele>389</ele>
        <time>2022-09-26T13:28:32Z</time>
      </trkpt>
      <trkpt lat="48.15022" lon="6.44253">
        <ele>389</ele>
        <time>2022-09-26T13:28:33Z</time>
      </trkpt>
      <trkpt lat="48.15022" lon="6.4425">
        <ele>390</ele>
        <time>2022-09-26T13:28:34Z</time>
      </trkpt>
      <trkpt lat="48.15022" lon="6.44247">
        <ele>390</ele>
        <time>2022-09-26T13:28:35Z</time>
      </trkpt>
      <trkpt lat="48.15021" lon="6.44244">
        <ele>390</ele>
        <time>2022-09-26T13:28:36Z</time>
      </trkpt>
      <trkpt lat="48.15021" lon="6.44241">
        <ele>390</ele>
        <time>2022-09-26T13:28:37Z</time>
      </trkpt>
      <trkpt lat="48.1502" lon="6.44237">
        <ele>390</ele>
        <time>2022-09-26T13:28:38Z</time>
      </trkpt>
      <trkpt lat="48.1502" lon="6.44233">
        <ele>391</ele>
        <time>2022-09-26T13:28:39Z</time>
      </trkpt>
      <trkpt lat="48.15019" lon="6.44229">
        <ele>391</ele>
        <time>2022-09-26T13:28:40Z</time>
      </trkpt>
      <trkpt lat="48.15019" lon="6.44224">
        <ele>391</ele>
        <time>2022-09-26T13:28:41Z</time>
      </trkpt>
      <trkpt lat="48.15018" lon="6.4422">
        <ele>391</ele>
        <time>2022-09-26T13:28:42Z</time>
      </trkpt>
      <trkpt lat="48.15018" lon="6.44218">
        <ele>391</ele>
        <time>2022-09-26T13:28:43Z</time>
      </trkpt>
      <trkpt lat="48.15018" lon="6.44215">
        <ele>391</ele>
        <time>2022-09-26T13:28:44Z</time>
      </trkpt>
      <trkpt lat="48.15018" lon="6.44212">
        <ele>392</ele>
        <time>2022-09-26T13:28:45Z</time>
      </trkpt>
      <trkpt lat="48.15018" lon="6.44209">
        <ele>392</ele>
        <time>2022-09-26T13:28:46Z</time>
      </trkpt>
      <trkpt lat="48.15018" lon="6.44206">
        <ele>392</ele>
        <time>2022-09-26T13:28:47Z</time>
      </trkpt>
      <trkpt lat="48.15017" lon="6.44204">
        <ele>392</ele>
        <time>2022-09-26T13:28:48Z</time>
      </trkpt>
      <trkpt lat="48.15017" lon="6.44202">
        <ele>392</ele>
        <time>2022-09-26T13:28:49Z</time>
      </trkpt>
      <trkpt lat="48.15016" lon="6.442">
        <ele>392</ele>
        <time>2022-09-26T13:28:50Z</time>
      </trkpt>
      <trkpt lat="48.15016" lon="6.44198">
        <ele>392</ele>
        <time>2022-09-26T13:28:51Z</time>
      </trkpt>
      <trkpt lat="48.15015" lon="6.44196">
        <ele>392</ele>
        <time>2022-09-26T13:28:52Z</time>
      </trkpt>
      <trkpt lat="48.15014" lon="6.44194">
        <ele>392</ele>
        <time>2022-09-26T13:28:53Z</time>
      </trkpt>
      <trkpt lat="48.15014" lon="6.44191">
        <ele>392</ele>
        <time>2022-09-26T13:28:54Z</time>
      </trkpt>
      <trkpt lat="48.15013" lon="6.44188">
        <ele>392</ele>
        <time>2022-09-26T13:28:55Z</time>
      </trkpt>
      <trkpt lat="48.15013" lon="6.44186">
        <ele>393</ele>
        <time>2022-09-26T13:28:56Z</time>
      </trkpt>
      <trkpt lat="48.15013" lon="6.44183">
        <ele>393</ele>
        <time>2022-09-26T13:28:57Z</time>
      </trkpt>
      <trkpt lat="48.15012" lon="6.4418">
        <ele>393</ele>
        <time>2022-09-26T13:28:58Z</time>
      </trkpt>
      <trkpt lat="48.15012" lon="6.44178">
        <ele>393</ele>
        <time>2022-09-26T13:28:59Z</time>
      </trkpt>
      <trkpt lat="48.15011" lon="6.44176">
        <ele>393</ele>
        <time>2022-09-26T13:29:00Z</time>
      </trkpt>
      <trkpt lat="48.15011" lon="6.44173">
        <ele>393</ele>
        <time>2022-09-26T13:29:01Z</time>
      </trkpt>
      <trkpt lat="48.15011" lon="6.44171">
        <ele>394</ele>
        <time>2022-09-26T13:29:02Z</time>
      </trkpt>
      <trkpt lat="48.1501" lon="6.44168">
        <ele>394</ele>
        <time>2022-09-26T13:29:03Z</time>
      </trkpt>
      <trkpt lat="48.15009" lon="6.44165">
        <ele>394</ele>
        <time>2022-09-26T13:29:04Z</time>
      </trkpt>
      <trkpt lat="48.15009" lon="6.44161">
        <ele>394</ele>
        <time>2022-09-26T13:29:05Z</time>
      </trkpt>
      <trkpt lat="48.15008" lon="6.44157">
        <ele>394</ele>
        <time>2022-09-26T13:29:06Z</time>
      </trkpt>
      <trkpt lat="48.15007" lon="6.44153">
        <ele>395</ele>
        <time>2022-09-26T13:29:07Z</time>
      </trkpt>
      <trkpt lat="48.15007" lon="6.44148">
        <ele>395</ele>
        <time>2022-09-26T13:29:08Z</time>
      </trkpt>
      <trkpt lat="48.15006" lon="6.44144">
        <ele>395</ele>
        <time>2022-09-26T13:29:09Z</time>
      </trkpt>
      <trkpt lat="48.15006" lon="6.44139">
        <ele>396</ele>
        <time>2022-09-26T13:29:10Z</time>
      </trkpt>
      <trkpt lat="48.15007" lon="6.44134">
        <ele>396</ele>
        <time>2022-09-26T13:29:11Z</time>
      </trkpt>
      <trkpt lat="48.15007" lon="6.4413">
        <ele>396</ele>
        <time>2022-09-26T13:29:12Z</time>
      </trkpt>
      <trkpt lat="48.15006" lon="6.44124">
        <ele>397</ele>
        <time>2022-09-26T13:29:13Z</time>
      </trkpt>
      <trkpt lat="48.15006" lon="6.4412">
        <ele>397</ele>
        <time>2022-09-26T13:29:14Z</time>
      </trkpt>
      <trkpt lat="48.15006" lon="6.44116">
        <ele>397</ele>
        <time>2022-09-26T13:29:15Z</time>
      </trkpt>
      <trkpt lat="48.15005" lon="6.44112">
        <ele>398</ele>
        <time>2022-09-26T13:29:16Z</time>
      </trkpt>
      <trkpt lat="48.15006" lon="6.44109">
        <ele>398</ele>
        <time>2022-09-26T13:29:17Z</time>
      </trkpt>
      <trkpt lat="48.15006" lon="6.44107">
        <ele>398</ele>
        <time>2022-09-26T13:29:18Z</time>
      </trkpt>
      <trkpt lat="48.15005" lon="6.44103">
        <ele>398</ele>
        <time>2022-09-26T13:29:19Z</time>
      </trkpt>
      <trkpt lat="48.15004" lon="6.44102">
        <ele>398</ele>
        <time>2022-09-26T13:29:20Z</time>
      </trkpt>
      <trkpt lat="48.15003" lon="6.44096">
        <ele>398</ele>
        <time>2022-09-26T13:29:21Z</time>
      </trkpt>
      <trkpt lat="48.15003" lon="6.44088">
        <ele>398</ele>
        <time>2022-09-26T13:29:22Z</time>
      </trkpt>
      <trkpt lat="48.15002" lon="6.44081">
        <ele>399</ele>
        <time>2022-09-26T13:29:23Z</time>
      </trkpt>
      <trkpt lat="48.15001" lon="6.44076">
        <ele>399</ele>
        <time>2022-09-26T13:29:24Z</time>
      </trkpt>
      <trkpt lat="48.15" lon="6.4407">
        <ele>399</ele>
        <time>2022-09-26T13:29:25Z</time>
      </trkpt>
      <trkpt lat="48.14999" lon="6.44063">
        <ele>399</ele>
        <time>2022-09-26T13:29:26Z</time>
      </trkpt>
      <trkpt lat="48.14998" lon="6.44058">
        <ele>399</ele>
        <time>2022-09-26T13:29:27Z</time>
      </trkpt>
      <trkpt lat="48.14997" lon="6.44055">
        <ele>399</ele>
        <time>2022-09-26T13:29:28Z</time>
      </trkpt>
      <trkpt lat="48.14995" lon="6.44051">
        <ele>399</ele>
        <time>2022-09-26T13:29:29Z</time>
      </trkpt>
      <trkpt lat="48.14994" lon="6.44048">
        <ele>399</ele>
        <time>2022-09-26T13:29:30Z</time>
      </trkpt>
      <trkpt lat="48.14992" lon="6.44046">
        <ele>399</ele>
        <time>2022-09-26T13:29:31Z</time>
      </trkpt>
      <trkpt lat="48.14991" lon="6.44043">
        <ele>399</ele>
        <time>2022-09-26T13:29:32Z</time>
      </trkpt>
      <trkpt lat="48.1499" lon="6.44041">
        <ele>399</ele>
        <time>2022-09-26T13:29:33Z</time>
      </trkpt>
      <trkpt lat="48.14988" lon="6.44037">
        <ele>399</ele>
        <time>2022-09-26T13:29:34Z</time>
      </trkpt>
      <trkpt lat="48.14987" lon="6.44033">
        <ele>400</ele>
        <time>2022-09-26T13:29:35Z</time>
      </trkpt>
      <trkpt lat="48.14986" lon="6.44031">
        <ele>400</ele>
        <time>2022-09-26T13:29:36Z</time>
      </trkpt>
      <trkpt lat="48.14984" lon="6.44029">
        <ele>400</ele>
        <time>2022-09-26T13:29:37Z</time>
      </trkpt>
      <trkpt lat="48.14983" lon="6.44027">
        <ele>400</ele>
        <time>2022-09-26T13:29:38Z</time>
      </trkpt>
      <trkpt lat="48.14981" lon="6.44024">
        <ele>400</ele>
        <time>2022-09-26T13:29:39Z</time>
      </trkpt>
      <trkpt lat="48.1498" lon="6.44022">
        <ele>400</ele>
        <time>2022-09-26T13:29:40Z</time>
      </trkpt>
      <trkpt lat="48.14978" lon="6.4402">
        <ele>400</ele>
        <time>2022-09-26T13:29:41Z</time>
      </trkpt>
      <trkpt lat="48.14976" lon="6.44016">
        <ele>400</ele>
        <time>2022-09-26T13:29:42Z</time>
      </trkpt>
      <trkpt lat="48.14974" lon="6.44012">
        <ele>400</ele>
        <time>2022-09-26T13:29:43Z</time>
      </trkpt>
      <trkpt lat="48.14973" lon="6.44008">
        <ele>401</ele>
        <time>2022-09-26T13:29:44Z</time>
      </trkpt>
      <trkpt lat="48.14971" lon="6.44004">
        <ele>401</ele>
        <time>2022-09-26T13:29:45Z</time>
      </trkpt>
      <trkpt lat="48.1497" lon="6.44">
        <ele>401</ele>
        <time>2022-09-26T13:29:46Z</time>
      </trkpt>
      <trkpt lat="48.14969" lon="6.43998">
        <ele>401</ele>
        <time>2022-09-26T13:29:47Z</time>
      </trkpt>
      <trkpt lat="48.14967" lon="6.43998">
        <ele>400</ele>
        <time>2022-09-26T13:29:48Z</time>
      </trkpt>
      <trkpt lat="48.14966" lon="6.43996">
        <ele>400</ele>
        <time>2022-09-26T13:29:49Z</time>
      </trkpt>
      <trkpt lat="48.14966" lon="6.43996">
        <ele>400</ele>
        <time>2022-09-26T13:29:50Z</time>
      </trkpt>
      <trkpt lat="48.14966" lon="6.43996">
        <ele>400</ele>
        <time>2022-09-26T13:29:51Z</time>
      </trkpt>
      <trkpt lat="48.14965" lon="6.43996">
        <ele>400</ele>
        <time>2022-09-26T13:29:52Z</time>
      </trkpt>
      <trkpt lat="48.14963" lon="6.43996">
        <ele>399</ele>
        <time>2022-09-26T13:29:53Z</time>
      </trkpt>
      <trkpt lat="48.14962" lon="6.43995">
        <ele>399</ele>
        <time>2022-09-26T13:29:54Z</time>
      </trkpt>
      <trkpt lat="48.14961" lon="6.43993">
        <ele>399</ele>
        <time>2022-09-26T13:29:55Z</time>
      </trkpt>
      <trkpt lat="48.14959" lon="6.43991">
        <ele>399</ele>
        <time>2022-09-26T13:29:56Z</time>
      </trkpt>
      <trkpt lat="48.14956" lon="6.4399">
        <ele>398</ele>
        <time>2022-09-26T13:29:57Z</time>
      </trkpt>
      <trkpt lat="48.14954" lon="6.4399">
        <ele>398</ele>
        <time>2022-09-26T13:29:58Z</time>
      </trkpt>
      <trkpt lat="48.14952" lon="6.43989">
        <ele>397</ele>
        <time>2022-09-26T13:29:59Z</time>
      </trkpt>
      <trkpt lat="48.1495" lon="6.43987">
        <ele>397</ele>
        <time>2022-09-26T13:30:00Z</time>
      </trkpt>
      <trkpt lat="48.14947" lon="6.43984">
        <ele>397</ele>
        <time>2022-09-26T13:30:01Z</time>
      </trkpt>
      <trkpt lat="48.14946" lon="6.43981">
        <ele>397</ele>
        <time>2022-09-26T13:30:02Z</time>
      </trkpt>
      <trkpt lat="48.14945" lon="6.43978">
        <ele>397</ele>
        <time>2022-09-26T13:30:03Z</time>
      </trkpt>
      <trkpt lat="48.14944" lon="6.43976">
        <ele>397</ele>
        <time>2022-09-26T13:30:04Z</time>
      </trkpt>
      <trkpt lat="48.14942" lon="6.43974">
        <ele>397</ele>
        <time>2022-09-26T13:30:05Z</time>
      </trkpt>
      <trkpt lat="48.1494" lon="6.43972">
        <ele>397</ele>
        <time>2022-09-26T13:30:06Z</time>
      </trkpt>
      <trkpt lat="48.14939" lon="6.43969">
        <ele>396</ele>
        <time>2022-09-26T13:30:07Z</time>
      </trkpt>
      <trkpt lat="48.14937" lon="6.43967">
        <ele>396</ele>
        <time>2022-09-26T13:30:08Z</time>
      </trkpt>
      <trkpt lat="48.14936" lon="6.43964">
        <ele>396</ele>
        <time>2022-09-26T13:30:09Z</time>
      </trkpt>
      <trkpt lat="48.14934" lon="6.43962">
        <ele>396</ele>
        <time>2022-09-26T13:30:10Z</time>
      </trkpt>
      <trkpt lat="48.14932" lon="6.4396">
        <ele>396</ele>
        <time>2022-09-26T13:30:11Z</time>
      </trkpt>
      <trkpt lat="48.14931" lon="6.43958">
        <ele>395</ele>
        <time>2022-09-26T13:30:12Z</time>
      </trkpt>
      <trkpt lat="48.1493" lon="6.43955">
        <ele>396</ele>
        <time>2022-09-26T13:30:13Z</time>
      </trkpt>
      <trkpt lat="48.1493" lon="6.43952">
        <ele>396</ele>
        <time>2022-09-26T13:30:14Z</time>
      </trkpt>
      <trkpt lat="48.1493" lon="6.4395">
        <ele>396</ele>
        <time>2022-09-26T13:30:15Z</time>
      </trkpt>
      <trkpt lat="48.14929" lon="6.43947">
        <ele>396</ele>
        <time>2022-09-26T13:30:16Z</time>
      </trkpt>
      <trkpt lat="48.14928" lon="6.43944">
        <ele>396</ele>
        <time>2022-09-26T13:30:17Z</time>
      </trkpt>
      <trkpt lat="48.14927" lon="6.43941">
        <ele>396</ele>
        <time>2022-09-26T13:30:18Z</time>
      </trkpt>
      <trkpt lat="48.14926" lon="6.43938">
        <ele>396</ele>
        <time>2022-09-26T13:30:19Z</time>
      </trkpt>
      <trkpt lat="48.14927" lon="6.43933">
        <ele>396</ele>
        <time>2022-09-26T13:30:20Z</time>
      </trkpt>
      <trkpt lat="48.14927" lon="6.4393">
        <ele>397</ele>
        <time>2022-09-26T13:30:21Z</time>
      </trkpt>
      <trkpt lat="48.14927" lon="6.43927">
        <ele>397</ele>
        <time>2022-09-26T13:30:22Z</time>
      </trkpt>
      <trkpt lat="48.14927" lon="6.43924">
        <ele>397</ele>
        <time>2022-09-26T13:30:23Z</time>
      </trkpt>
      <trkpt lat="48.14927" lon="6.43922">
        <ele>398</ele>
        <time>2022-09-26T13:30:24Z</time>
      </trkpt>
      <trkpt lat="48.14927" lon="6.43919">
        <ele>398</ele>
        <time>2022-09-26T13:30:25Z</time>
      </trkpt>
      <trkpt lat="48.14927" lon="6.43917">
        <ele>398</ele>
        <time>2022-09-26T13:30:26Z</time>
      </trkpt>
      <trkpt lat="48.14927" lon="6.43916">
        <ele>398</ele>
        <time>2022-09-26T13:30:27Z</time>
      </trkpt>
      <trkpt lat="48.14927" lon="6.43914">
        <ele>398</ele>
        <time>2022-09-26T13:30:28Z</time>
      </trkpt>
      <trkpt lat="48.14926" lon="6.43913">
        <ele>398</ele>
        <time>2022-09-26T13:30:29Z</time>
      </trkpt>
      <trkpt lat="48.14926" lon="6.43911">
        <ele>398</ele>
        <time>2022-09-26T13:30:30Z</time>
      </trkpt>
      <trkpt lat="48.14925" lon="6.43909">
        <ele>398</ele>
        <time>2022-09-26T13:30:31Z</time>
      </trkpt>
      <trkpt lat="48.14925" lon="6.43908">
        <ele>398</ele>
        <time>2022-09-26T13:30:32Z</time>
      </trkpt>
      <trkpt lat="48.14924" lon="6.43907">
        <ele>399</ele>
        <time>2022-09-26T13:30:33Z</time>
      </trkpt>
      <trkpt lat="48.14924" lon="6.43904">
        <ele>399</ele>
        <time>2022-09-26T13:30:34Z</time>
      </trkpt>
      <trkpt lat="48.14924" lon="6.43901">
        <ele>399</ele>
        <time>2022-09-26T13:30:35Z</time>
      </trkpt>
      <trkpt lat="48.14923" lon="6.43897">
        <ele>399</ele>
        <time>2022-09-26T13:30:36Z</time>
      </trkpt>
      <trkpt lat="48.14923" lon="6.43895">
        <ele>400</ele>
        <time>2022-09-26T13:30:37Z</time>
      </trkpt>
      <trkpt lat="48.14922" lon="6.43893">
        <ele>400</ele>
        <time>2022-09-26T13:30:38Z</time>
      </trkpt>
      <trkpt lat="48.14922" lon="6.43891">
        <ele>400</ele>
        <time>2022-09-26T13:30:39Z</time>
      </trkpt>
      <trkpt lat="48.14923" lon="6.43889">
        <ele>400</ele>
        <time>2022-09-26T13:30:40Z</time>
      </trkpt>
      <trkpt lat="48.14922" lon="6.43887">
        <ele>400</ele>
        <time>2022-09-26T13:30:41Z</time>
      </trkpt>
      <trkpt lat="48.14924" lon="6.4389">
        <ele>400</ele>
        <time>2022-09-26T13:30:42Z</time>
      </trkpt>
      <trkpt lat="48.14924" lon="6.4389">
        <ele>400</ele>
        <time>2022-09-26T13:30:43Z</time>
      </trkpt>
      <trkpt lat="48.14924" lon="6.4389">
        <ele>400</ele>
        <time>2022-09-26T13:30:44Z</time>
      </trkpt>
      <trkpt lat="48.14924" lon="6.43889">
        <ele>401</ele>
        <time>2022-09-26T13:30:45Z</time>
      </trkpt>
      <trkpt lat="48.14924" lon="6.43888">
        <ele>401</ele>
        <time>2022-09-26T13:30:46Z</time>
      </trkpt>
      <trkpt lat="48.14924" lon="6.43887">
        <ele>401</ele>
        <time>2022-09-26T13:30:47Z</time>
      </trkpt>
      <trkpt lat="48.14924" lon="6.43886">
        <ele>401</ele>
        <time>2022-09-26T13:30:48Z</time>
      </trkpt>
      <trkpt lat="48.14924" lon="6.43885">
        <ele>401</ele>
        <time>2022-09-26T13:30:49Z</time>
      </trkpt>
      <trkpt lat="48.14924" lon="6.43883">
        <ele>401</ele>
        <time>2022-09-26T13:30:50Z</time>
      </trkpt>
      <trkpt lat="48.14925" lon="6.43882">
        <ele>401</ele>
        <time>2022-09-26T13:30:51Z</time>
      </trkpt>
      <trkpt lat="48.14925" lon="6.4388">
        <ele>401</ele>
        <time>2022-09-26T13:30:52Z</time>
      </trkpt>
      <trkpt lat="48.14925" lon="6.43879">
        <ele>401</ele>
        <time>2022-09-26T13:30:53Z</time>
      </trkpt>
      <trkpt lat="48.14925" lon="6.43878">
        <ele>402</ele>
        <time>2022-09-26T13:30:54Z</time>
      </trkpt>
      <trkpt lat="48.14925" lon="6.43876">
        <ele>402</ele>
        <time>2022-09-26T13:30:55Z</time>
      </trkpt>
      <trkpt lat="48.14926" lon="6.43874">
        <ele>402</ele>
        <time>2022-09-26T13:30:56Z</time>
      </trkpt>
      <trkpt lat="48.14926" lon="6.43872">
        <ele>402</ele>
        <time>2022-09-26T13:30:57Z</time>
      </trkpt>
      <trkpt lat="48.14926" lon="6.4387">
        <ele>402</ele>
        <time>2022-09-26T13:30:58Z</time>
      </trkpt>
      <trkpt lat="48.14926" lon="6.43869">
        <ele>402</ele>
        <time>2022-09-26T13:30:59Z</time>
      </trkpt>
      <trkpt lat="48.14927" lon="6.43866">
        <ele>403</ele>
        <time>2022-09-26T13:31:00Z</time>
      </trkpt>
      <trkpt lat="48.14927" lon="6.43865">
        <ele>403</ele>
        <time>2022-09-26T13:31:01Z</time>
      </trkpt>
      <trkpt lat="48.14927" lon="6.43864">
        <ele>403</ele>
        <time>2022-09-26T13:31:02Z</time>
      </trkpt>
      <trkpt lat="48.14927" lon="6.43862">
        <ele>403</ele>
        <time>2022-09-26T13:31:03Z</time>
      </trkpt>
      <trkpt lat="48.14927" lon="6.4386">
        <ele>403</ele>
        <time>2022-09-26T13:31:04Z</time>
      </trkpt>
      <trkpt lat="48.14927" lon="6.43858">
        <ele>403</ele>
        <time>2022-09-26T13:31:05Z</time>
      </trkpt>
      <trkpt lat="48.14927" lon="6.43856">
        <ele>403</ele>
        <time>2022-09-26T13:31:06Z</time>
      </trkpt>
      <trkpt lat="48.14927" lon="6.43853">
        <ele>404</ele>
        <time>2022-09-26T13:31:07Z</time>
      </trkpt>
      <trkpt lat="48.14927" lon="6.43852">
        <ele>404</ele>
        <time>2022-09-26T13:31:08Z</time>
      </trkpt>
      <trkpt lat="48.14927" lon="6.43851">
        <ele>404</ele>
        <time>2022-09-26T13:31:09Z</time>
      </trkpt>
      <trkpt lat="48.14927" lon="6.43848">
        <ele>404</ele>
        <time>2022-09-26T13:31:10Z</time>
      </trkpt>
      <trkpt lat="48.14927" lon="6.43846">
        <ele>405</ele>
        <time>2022-09-26T13:31:11Z</time>
      </trkpt>
      <trkpt lat="48.14927" lon="6.43843">
        <ele>405</ele>
        <time>2022-09-26T13:31:12Z</time>
      </trkpt>
      <trkpt lat="48.14927" lon="6.43842">
        <ele>405</ele>
        <time>2022-09-26T13:31:13Z</time>
      </trkpt>
      <trkpt lat="48.14927" lon="6.4384">
        <ele>405</ele>
        <time>2022-09-26T13:31:14Z</time>
      </trkpt>
      <trkpt lat="48.14927" lon="6.43837">
        <ele>406</ele>
        <time>2022-09-26T13:31:15Z</time>
      </trkpt>
      <trkpt lat="48.14927" lon="6.43835">
        <ele>406</ele>
        <time>2022-09-26T13:31:16Z</time>
      </trkpt>
      <trkpt lat="48.14927" lon="6.43833">
        <ele>406</ele>
        <time>2022-09-26T13:31:17Z</time>
      </trkpt>
      <trkpt lat="48.14926" lon="6.4383">
        <ele>406</ele>
        <time>2022-09-26T13:31:18Z</time>
      </trkpt>
      <trkpt lat="48.14926" lon="6.43827">
        <ele>407</ele>
        <time>2022-09-26T13:31:19Z</time>
      </trkpt>
      <trkpt lat="48.14926" lon="6.43825">
        <ele>407</ele>
        <time>2022-09-26T13:31:20Z</time>
      </trkpt>
      <trkpt lat="48.14926" lon="6.43823">
        <ele>408</ele>
        <time>2022-09-26T13:31:21Z</time>
      </trkpt>
      <trkpt lat="48.14926" lon="6.4382">
        <ele>408</ele>
        <time>2022-09-26T13:31:22Z</time>
      </trkpt>
      <trkpt lat="48.14926" lon="6.43818">
        <ele>408</ele>
        <time>2022-09-26T13:31:23Z</time>
      </trkpt>
      <trkpt lat="48.14926" lon="6.43815">
        <ele>409</ele>
        <time>2022-09-26T13:31:24Z</time>
      </trkpt>
      <trkpt lat="48.14927" lon="6.43812">
        <ele>409</ele>
        <time>2022-09-26T13:31:25Z</time>
      </trkpt>
      <trkpt lat="48.14926" lon="6.4381">
        <ele>410</ele>
        <time>2022-09-26T13:31:26Z</time>
      </trkpt>
      <trkpt lat="48.14926" lon="6.43808">
        <ele>410</ele>
        <time>2022-09-26T13:31:27Z</time>
      </trkpt>
      <trkpt lat="48.14926" lon="6.43806">
        <ele>411</ele>
        <time>2022-09-26T13:31:28Z</time>
      </trkpt>
      <trkpt lat="48.14926" lon="6.43804">
        <ele>411</ele>
        <time>2022-09-26T13:31:29Z</time>
      </trkpt>
      <trkpt lat="48.14926" lon="6.43802">
        <ele>411</ele>
        <time>2022-09-26T13:31:30Z</time>
      </trkpt>
      <trkpt lat="48.14926" lon="6.438">
        <ele>412</ele>
        <time>2022-09-26T13:31:31Z</time>
      </trkpt>
      <trkpt lat="48.14926" lon="6.43799">
        <ele>412</ele>
        <time>2022-09-26T13:31:32Z</time>
      </trkpt>
      <trkpt lat="48.14926" lon="6.43795">
        <ele>412</ele>
        <time>2022-09-26T13:31:33Z</time>
      </trkpt>
      <trkpt lat="48.14926" lon="6.43792">
        <ele>413</ele>
        <time>2022-09-26T13:31:34Z</time>
      </trkpt>
      <trkpt lat="48.14926" lon="6.43789">
        <ele>414</ele>
        <time>2022-09-26T13:31:35Z</time>
      </trkpt>
      <trkpt lat="48.14926" lon="6.43786">
        <ele>414</ele>
        <time>2022-09-26T13:31:36Z</time>
      </trkpt>
      <trkpt lat="48.14926" lon="6.43783">
        <ele>415</ele>
        <time>2022-09-26T13:31:37Z</time>
      </trkpt>
      <trkpt lat="48.14926" lon="6.43779">
        <ele>415</ele>
        <time>2022-09-26T13:31:38Z</time>
      </trkpt>
      <trkpt lat="48.14926" lon="6.43775">
        <ele>416</ele>
        <time>2022-09-26T13:31:39Z</time>
      </trkpt>
      <trkpt lat="48.14925" lon="6.43772">
        <ele>417</ele>
        <time>2022-09-26T13:31:40Z</time>
      </trkpt>
      <trkpt lat="48.14925" lon="6.43769">
        <ele>417</ele>
        <time>2022-09-26T13:31:41Z</time>
      </trkpt>
      <trkpt lat="48.14925" lon="6.43767">
        <ele>418</ele>
        <time>2022-09-26T13:31:42Z</time>
      </trkpt>
      <trkpt lat="48.14925" lon="6.43765">
        <ele>418</ele>
        <time>2022-09-26T13:31:43Z</time>
      </trkpt>
      <trkpt lat="48.14926" lon="6.43763">
        <ele>419</ele>
        <time>2022-09-26T13:31:44Z</time>
      </trkpt>
      <trkpt lat="48.14926" lon="6.43762">
        <ele>419</ele>
        <time>2022-09-26T13:31:45Z</time>
      </trkpt>
      <trkpt lat="48.14926" lon="6.43761">
        <ele>419</ele>
        <time>2022-09-26T13:31:46Z</time>
      </trkpt>
      <trkpt lat="48.14925" lon="6.43759">
        <ele>420</ele>
        <time>2022-09-26T13:31:47Z</time>
      </trkpt>
      <trkpt lat="48.14925" lon="6.43756">
        <ele>420</ele>
        <time>2022-09-26T13:31:48Z</time>
      </trkpt>
      <trkpt lat="48.14926" lon="6.43753">
        <ele>421</ele>
        <time>2022-09-26T13:31:49Z</time>
      </trkpt>
      <trkpt lat="48.14925" lon="6.43751">
        <ele>421</ele>
        <time>2022-09-26T13:31:50Z</time>
      </trkpt>
      <trkpt lat="48.14925" lon="6.43747">
        <ele>422</ele>
        <time>2022-09-26T13:31:51Z</time>
      </trkpt>
      <trkpt lat="48.14925" lon="6.43744">
        <ele>422</ele>
        <time>2022-09-26T13:31:52Z</time>
      </trkpt>
      <trkpt lat="48.14925" lon="6.43742">
        <ele>423</ele>
        <time>2022-09-26T13:31:53Z</time>
      </trkpt>
      <trkpt lat="48.14925" lon="6.43738">
        <ele>423</ele>
        <time>2022-09-26T13:31:54Z</time>
      </trkpt>
      <trkpt lat="48.14925" lon="6.43736">
        <ele>423</ele>
        <time>2022-09-26T13:31:55Z</time>
      </trkpt>
      <trkpt lat="48.14925" lon="6.43733">
        <ele>424</ele>
        <time>2022-09-26T13:31:56Z</time>
      </trkpt>
      <trkpt lat="48.14925" lon="6.43731">
        <ele>424</ele>
        <time>2022-09-26T13:31:57Z</time>
      </trkpt>
      <trkpt lat="48.14925" lon="6.4373">
        <ele>424</ele>
        <time>2022-09-26T13:31:58Z</time>
      </trkpt>
      <trkpt lat="48.14926" lon="6.43728">
        <ele>424</ele>
        <time>2022-09-26T13:31:59Z</time>
      </trkpt>
      <trkpt lat="48.14926" lon="6.43725">
        <ele>425</ele>
        <time>2022-09-26T13:32:00Z</time>
      </trkpt>
      <trkpt lat="48.14926" lon="6.43723">
        <ele>425</ele>
        <time>2022-09-26T13:32:01Z</time>
      </trkpt>
      <trkpt lat="48.14926" lon="6.43721">
        <ele>425</ele>
        <time>2022-09-26T13:32:02Z</time>
      </trkpt>
      <trkpt lat="48.14926" lon="6.4372">
        <ele>425</ele>
        <time>2022-09-26T13:32:03Z</time>
      </trkpt>
      <trkpt lat="48.14926" lon="6.43719">
        <ele>425</ele>
        <time>2022-09-26T13:32:04Z</time>
      </trkpt>
      <trkpt lat="48.14926" lon="6.43717">
        <ele>425</ele>
        <time>2022-09-26T13:32:05Z</time>
      </trkpt>
      <trkpt lat="48.14926" lon="6.43716">
        <ele>425</ele>
        <time>2022-09-26T13:32:06Z</time>
      </trkpt>
      <trkpt lat="48.14926" lon="6.43721">
        <ele>425</ele>
        <time>2022-09-26T13:32:07Z</time>
      </trkpt>
      <trkpt lat="48.14927" lon="6.43716">
        <ele>425</ele>
        <time>2022-09-26T13:32:08Z</time>
      </trkpt>
      <trkpt lat="48.14926" lon="6.43712">
        <ele>425</ele>
        <time>2022-09-26T13:32:09Z</time>
      </trkpt>
      <trkpt lat="48.14926" lon="6.43706">
        <ele>426</ele>
        <time>2022-09-26T13:32:10Z</time>
      </trkpt>
      <trkpt lat="48.14926" lon="6.43701">
        <ele>426</ele>
        <time>2022-09-26T13:32:11Z</time>
      </trkpt>
      <trkpt lat="48.14927" lon="6.43698">
        <ele>426</ele>
        <time>2022-09-26T13:32:12Z</time>
      </trkpt>
      <trkpt lat="48.14926" lon="6.43693">
        <ele>426</ele>
        <time>2022-09-26T13:32:13Z</time>
      </trkpt>
      <trkpt lat="48.14926" lon="6.4369">
        <ele>426</ele>
        <time>2022-09-26T13:32:14Z</time>
      </trkpt>
      <trkpt lat="48.14927" lon="6.43685">
        <ele>426</ele>
        <time>2022-09-26T13:32:15Z</time>
      </trkpt>
      <trkpt lat="48.14926" lon="6.43679">
        <ele>425</ele>
        <time>2022-09-26T13:32:16Z</time>
      </trkpt>
      <trkpt lat="48.14926" lon="6.43675">
        <ele>425</ele>
        <time>2022-09-26T13:32:17Z</time>
      </trkpt>
      <trkpt lat="48.14927" lon="6.43672">
        <ele>425</ele>
        <time>2022-09-26T13:32:18Z</time>
      </trkpt>
      <trkpt lat="48.14927" lon="6.4367">
        <ele>425</ele>
        <time>2022-09-26T13:32:19Z</time>
      </trkpt>
      <trkpt lat="48.14927" lon="6.43667">
        <ele>425</ele>
        <time>2022-09-26T13:32:20Z</time>
      </trkpt>
      <trkpt lat="48.14927" lon="6.43666">
        <ele>425</ele>
        <time>2022-09-26T13:32:21Z</time>
      </trkpt>
      <trkpt lat="48.14927" lon="6.43664">
        <ele>425</ele>
        <time>2022-09-26T13:32:22Z</time>
      </trkpt>
      <trkpt lat="48.14926" lon="6.4366">
        <ele>425</ele>
        <time>2022-09-26T13:32:23Z</time>
      </trkpt>
      <trkpt lat="48.14926" lon="6.43658">
        <ele>424</ele>
        <time>2022-09-26T13:32:24Z</time>
      </trkpt>
      <trkpt lat="48.14926" lon="6.43653">
        <ele>425</ele>
        <time>2022-09-26T13:32:25Z</time>
      </trkpt>
      <trkpt lat="48.14927" lon="6.4365">
        <ele>425</ele>
        <time>2022-09-26T13:32:26Z</time>
      </trkpt>
      <trkpt lat="48.14927" lon="6.43646">
        <ele>425</ele>
        <time>2022-09-26T13:32:27Z</time>
      </trkpt>
      <trkpt lat="48.14927" lon="6.43644">
        <ele>425</ele>
        <time>2022-09-26T13:32:28Z</time>
      </trkpt>
      <trkpt lat="48.14927" lon="6.43642">
        <ele>425</ele>
        <time>2022-09-26T13:32:29Z</time>
      </trkpt>
      <trkpt lat="48.14927" lon="6.43639">
        <ele>424</ele>
        <time>2022-09-26T13:32:30Z</time>
      </trkpt>
      <trkpt lat="48.14926" lon="6.43636">
        <ele>424</ele>
        <time>2022-09-26T13:32:31Z</time>
      </trkpt>
      <trkpt lat="48.14926" lon="6.43634">
        <ele>425</ele>
        <time>2022-09-26T13:32:32Z</time>
      </trkpt>
      <trkpt lat="48.14927" lon="6.43632">
        <ele>425</ele>
        <time>2022-09-26T13:32:33Z</time>
      </trkpt>
      <trkpt lat="48.14927" lon="6.43629">
        <ele>425</ele>
        <time>2022-09-26T13:32:34Z</time>
      </trkpt>
      <trkpt lat="48.14927" lon="6.43627">
        <ele>425</ele>
        <time>2022-09-26T13:32:35Z</time>
      </trkpt>
      <trkpt lat="48.14927" lon="6.43625">
        <ele>425</ele>
        <time>2022-09-26T13:32:36Z</time>
      </trkpt>
      <trkpt lat="48.14927" lon="6.43623">
        <ele>425</ele>
        <time>2022-09-26T13:32:37Z</time>
      </trkpt>
      <trkpt lat="48.14927" lon="6.4362">
        <ele>426</ele>
        <time>2022-09-26T13:32:38Z</time>
      </trkpt>
      <trkpt lat="48.14927" lon="6.43616">
        <ele>426</ele>
        <time>2022-09-26T13:32:39Z</time>
      </trkpt>
      <trkpt lat="48.14928" lon="6.43613">
        <ele>426</ele>
        <time>2022-09-26T13:32:40Z</time>
      </trkpt>
      <trkpt lat="48.14928" lon="6.4361">
        <ele>426</ele>
        <time>2022-09-26T13:32:41Z</time>
      </trkpt>
      <trkpt lat="48.14928" lon="6.43607">
        <ele>427</ele>
        <time>2022-09-26T13:32:42Z</time>
      </trkpt>
      <trkpt lat="48.14928" lon="6.43604">
        <ele>427</ele>
        <time>2022-09-26T13:32:43Z</time>
      </trkpt>
      <trkpt lat="48.14928" lon="6.43601">
        <ele>428</ele>
        <time>2022-09-26T13:32:44Z</time>
      </trkpt>
      <trkpt lat="48.14929" lon="6.43599">
        <ele>429</ele>
        <time>2022-09-26T13:32:45Z</time>
      </trkpt>
      <trkpt lat="48.1493" lon="6.43595">
        <ele>429</ele>
        <time>2022-09-26T13:32:46Z</time>
      </trkpt>
      <trkpt lat="48.1493" lon="6.43591">
        <ele>430</ele>
        <time>2022-09-26T13:32:47Z</time>
      </trkpt>
      <trkpt lat="48.1493" lon="6.43588">
        <ele>431</ele>
        <time>2022-09-26T13:32:48Z</time>
      </trkpt>
      <trkpt lat="48.14931" lon="6.43583">
        <ele>432</ele>
        <time>2022-09-26T13:32:49Z</time>
      </trkpt>
      <trkpt lat="48.14931" lon="6.43578">
        <ele>432</ele>
        <time>2022-09-26T13:32:50Z</time>
      </trkpt>
      <trkpt lat="48.1493" lon="6.43576">
        <ele>433</ele>
        <time>2022-09-26T13:32:51Z</time>
      </trkpt>
      <trkpt lat="48.1493" lon="6.43574">
        <ele>433</ele>
        <time>2022-09-26T13:32:52Z</time>
      </trkpt>
      <trkpt lat="48.1493" lon="6.43572">
        <ele>433</ele>
        <time>2022-09-26T13:32:53Z</time>
      </trkpt>
      <trkpt lat="48.14929" lon="6.4357">
        <ele>434</ele>
        <time>2022-09-26T13:32:54Z</time>
      </trkpt>
      <trkpt lat="48.1493" lon="6.43567">
        <ele>434</ele>
        <time>2022-09-26T13:32:55Z</time>
      </trkpt>
      <trkpt lat="48.14929" lon="6.43563">
        <ele>435</ele>
        <time>2022-09-26T13:32:56Z</time>
      </trkpt>
      <trkpt lat="48.14928" lon="6.4356">
        <ele>435</ele>
        <time>2022-09-26T13:32:57Z</time>
      </trkpt>
      <trkpt lat="48.14928" lon="6.43557">
        <ele>435</ele>
        <time>2022-09-26T13:32:58Z</time>
      </trkpt>
      <trkpt lat="48.14927" lon="6.43554">
        <ele>435</ele>
        <time>2022-09-26T13:32:59Z</time>
      </trkpt>
      <trkpt lat="48.14926" lon="6.43551">
        <ele>435</ele>
        <time>2022-09-26T13:33:00Z</time>
      </trkpt>
      <trkpt lat="48.14925" lon="6.43548">
        <ele>436</ele>
        <time>2022-09-26T13:33:01Z</time>
      </trkpt>
      <trkpt lat="48.14925" lon="6.43545">
        <ele>436</ele>
        <time>2022-09-26T13:33:02Z</time>
      </trkpt>
      <trkpt lat="48.14924" lon="6.43542">
        <ele>437</ele>
        <time>2022-09-26T13:33:03Z</time>
      </trkpt>
      <trkpt lat="48.14923" lon="6.43539">
        <ele>437</ele>
        <time>2022-09-26T13:33:04Z</time>
      </trkpt>
      <trkpt lat="48.14922" lon="6.43537">
        <ele>437</ele>
        <time>2022-09-26T13:33:05Z</time>
      </trkpt>
      <trkpt lat="48.14921" lon="6.43535">
        <ele>437</ele>
        <time>2022-09-26T13:33:06Z</time>
      </trkpt>
      <trkpt lat="48.1492" lon="6.43533">
        <ele>437</ele>
        <time>2022-09-26T13:33:07Z</time>
      </trkpt>
      <trkpt lat="48.1492" lon="6.43531">
        <ele>438</ele>
        <time>2022-09-26T13:33:08Z</time>
      </trkpt>
      <trkpt lat="48.14919" lon="6.43529">
        <ele>438</ele>
        <time>2022-09-26T13:33:09Z</time>
      </trkpt>
      <trkpt lat="48.14919" lon="6.43526">
        <ele>438</ele>
        <time>2022-09-26T13:33:10Z</time>
      </trkpt>
      <trkpt lat="48.14918" lon="6.43524">
        <ele>438</ele>
        <time>2022-09-26T13:33:11Z</time>
      </trkpt>
      <trkpt lat="48.14917" lon="6.43523">
        <ele>438</ele>
        <time>2022-09-26T13:33:12Z</time>
      </trkpt>
      <trkpt lat="48.14916" lon="6.4352">
        <ele>438</ele>
        <time>2022-09-26T13:33:13Z</time>
      </trkpt>
      <trkpt lat="48.14915" lon="6.43518">
        <ele>438</ele>
        <time>2022-09-26T13:33:14Z</time>
      </trkpt>
      <trkpt lat="48.14914" lon="6.43515">
        <ele>438</ele>
        <time>2022-09-26T13:33:15Z</time>
      </trkpt>
      <trkpt lat="48.14912" lon="6.43511">
        <ele>438</ele>
        <time>2022-09-26T13:33:16Z</time>
      </trkpt>
      <trkpt lat="48.1491" lon="6.4351">
        <ele>438</ele>
        <time>2022-09-26T13:33:17Z</time>
      </trkpt>
      <trkpt lat="48.14908" lon="6.43508">
        <ele>437</ele>
        <time>2022-09-26T13:33:18Z</time>
      </trkpt>
      <trkpt lat="48.14907" lon="6.43507">
        <ele>437</ele>
        <time>2022-09-26T13:33:19Z</time>
      </trkpt>
      <trkpt lat="48.14905" lon="6.43505">
        <ele>437</ele>
        <time>2022-09-26T13:33:20Z</time>
      </trkpt>
      <trkpt lat="48.14903" lon="6.43504">
        <ele>436</ele>
        <time>2022-09-26T13:33:21Z</time>
      </trkpt>
      <trkpt lat="48.14901" lon="6.43503">
        <ele>436</ele>
        <time>2022-09-26T13:33:22Z</time>
      </trkpt>
      <trkpt lat="48.14899" lon="6.43503">
        <ele>436</ele>
        <time>2022-09-26T13:33:23Z</time>
      </trkpt>
      <trkpt lat="48.14895" lon="6.43502">
        <ele>435</ele>
        <time>2022-09-26T13:33:24Z</time>
      </trkpt>
      <trkpt lat="48.14893" lon="6.43501">
        <ele>434</ele>
        <time>2022-09-26T13:33:25Z</time>
      </trkpt>
      <trkpt lat="48.1489" lon="6.435">
        <ele>434</ele>
        <time>2022-09-26T13:33:26Z</time>
      </trkpt>
      <trkpt lat="48.14886" lon="6.43498">
        <ele>433</ele>
        <time>2022-09-26T13:33:27Z</time>
      </trkpt>
      <trkpt lat="48.14884" lon="6.43498">
        <ele>433</ele>
        <time>2022-09-26T13:33:28Z</time>
      </trkpt>
      <trkpt lat="48.14881" lon="6.43498">
        <ele>433</ele>
        <time>2022-09-26T13:33:29Z</time>
      </trkpt>
      <trkpt lat="48.14879" lon="6.43497">
        <ele>432</ele>
        <time>2022-09-26T13:33:30Z</time>
      </trkpt>
      <trkpt lat="48.14876" lon="6.43497">
        <ele>432</ele>
        <time>2022-09-26T13:33:31Z</time>
      </trkpt>
      <trkpt lat="48.14873" lon="6.43497">
        <ele>431</ele>
        <time>2022-09-26T13:33:32Z</time>
      </trkpt>
      <trkpt lat="48.14871" lon="6.43497">
        <ele>431</ele>
        <time>2022-09-26T13:33:33Z</time>
      </trkpt>
      <trkpt lat="48.14868" lon="6.43496">
        <ele>431</ele>
        <time>2022-09-26T13:33:34Z</time>
      </trkpt>
      <trkpt lat="48.14865" lon="6.43495">
        <ele>430</ele>
        <time>2022-09-26T13:33:35Z</time>
      </trkpt>
      <trkpt lat="48.14863" lon="6.43494">
        <ele>430</ele>
        <time>2022-09-26T13:33:36Z</time>
      </trkpt>
      <trkpt lat="48.1486" lon="6.43493">
        <ele>430</ele>
        <time>2022-09-26T13:33:37Z</time>
      </trkpt>
      <trkpt lat="48.14858" lon="6.43492">
        <ele>430</ele>
        <time>2022-09-26T13:33:38Z</time>
      </trkpt>
      <trkpt lat="48.14857" lon="6.43491">
        <ele>430</ele>
        <time>2022-09-26T13:33:39Z</time>
      </trkpt>
      <trkpt lat="48.14855" lon="6.4349">
        <ele>430</ele>
        <time>2022-09-26T13:33:40Z</time>
      </trkpt>
      <trkpt lat="48.14854" lon="6.4349">
        <ele>430</ele>
        <time>2022-09-26T13:33:41Z</time>
      </trkpt>
      <trkpt lat="48.14852" lon="6.43488">
        <ele>430</ele>
        <time>2022-09-26T13:33:42Z</time>
      </trkpt>
      <trkpt lat="48.14849" lon="6.43487">
        <ele>430</ele>
        <time>2022-09-26T13:33:43Z</time>
      </trkpt>
      <trkpt lat="48.14847" lon="6.43485">
        <ele>430</ele>
        <time>2022-09-26T13:33:44Z</time>
      </trkpt>
      <trkpt lat="48.14843" lon="6.43481">
        <ele>431</ele>
        <time>2022-09-26T13:33:45Z</time>
      </trkpt>
      <trkpt lat="48.1484" lon="6.43476">
        <ele>431</ele>
        <time>2022-09-26T13:33:46Z</time>
      </trkpt>
      <trkpt lat="48.14837" lon="6.4347">
        <ele>432</ele>
        <time>2022-09-26T13:33:47Z</time>
      </trkpt>
      <trkpt lat="48.14833" lon="6.43466">
        <ele>432</ele>
        <time>2022-09-26T13:33:48Z</time>
      </trkpt>
      <trkpt lat="48.14832" lon="6.43462">
        <ele>433</ele>
        <time>2022-09-26T13:33:49Z</time>
      </trkpt>
      <trkpt lat="48.1483" lon="6.43459">
        <ele>432</ele>
        <time>2022-09-26T13:33:50Z</time>
      </trkpt>
      <trkpt lat="48.14828" lon="6.43456">
        <ele>432</ele>
        <time>2022-09-26T13:33:51Z</time>
      </trkpt>
      <trkpt lat="48.14825" lon="6.43453">
        <ele>432</ele>
        <time>2022-09-26T13:33:52Z</time>
      </trkpt>
      <trkpt lat="48.14824" lon="6.4345">
        <ele>432</ele>
        <time>2022-09-26T13:33:53Z</time>
      </trkpt>
      <trkpt lat="48.14822" lon="6.43446">
        <ele>432</ele>
        <time>2022-09-26T13:33:54Z</time>
      </trkpt>
      <trkpt lat="48.1482" lon="6.43443">
        <ele>432</ele>
        <time>2022-09-26T13:33:55Z</time>
      </trkpt>
      <trkpt lat="48.14818" lon="6.43441">
        <ele>431</ele>
        <time>2022-09-26T13:33:56Z</time>
      </trkpt>
      <trkpt lat="48.14817" lon="6.43438">
        <ele>431</ele>
        <time>2022-09-26T13:33:57Z</time>
      </trkpt>
      <trkpt lat="48.14816" lon="6.43434">
        <ele>431</ele>
        <time>2022-09-26T13:33:58Z</time>
      </trkpt>
      <trkpt lat="48.14815" lon="6.43431">
        <ele>431</ele>
        <time>2022-09-26T13:33:59Z</time>
      </trkpt>
      <trkpt lat="48.14814" lon="6.43428">
        <ele>431</ele>
        <time>2022-09-26T13:34:00Z</time>
      </trkpt>
      <trkpt lat="48.14814" lon="6.43425">
        <ele>431</ele>
        <time>2022-09-26T13:34:01Z</time>
      </trkpt>
      <trkpt lat="48.14813" lon="6.43422">
        <ele>431</ele>
        <time>2022-09-26T13:34:02Z</time>
      </trkpt>
      <trkpt lat="48.14813" lon="6.43418">
        <ele>431</ele>
        <time>2022-09-26T13:34:03Z</time>
      </trkpt>
      <trkpt lat="48.14813" lon="6.43415">
        <ele>431</ele>
        <time>2022-09-26T13:34:04Z</time>
      </trkpt>
      <trkpt lat="48.14812" lon="6.43412">
        <ele>431</ele>
        <time>2022-09-26T13:34:05Z</time>
      </trkpt>
      <trkpt lat="48.14812" lon="6.43409">
        <ele>431</ele>
        <time>2022-09-26T13:34:06Z</time>
      </trkpt>
      <trkpt lat="48.14812" lon="6.43407">
        <ele>431</ele>
        <time>2022-09-26T13:34:07Z</time>
      </trkpt>
      <trkpt lat="48.14811" lon="6.43405">
        <ele>431</ele>
        <time>2022-09-26T13:34:08Z</time>
      </trkpt>
      <trkpt lat="48.14811" lon="6.43403">
        <ele>431</ele>
        <time>2022-09-26T13:34:09Z</time>
      </trkpt>
      <trkpt lat="48.14811" lon="6.43401">
        <ele>431</ele>
        <time>2022-09-26T13:34:10Z</time>
      </trkpt>
      <trkpt lat="48.14811" lon="6.434">
        <ele>431</ele>
        <time>2022-09-26T13:34:11Z</time>
      </trkpt>
      <trkpt lat="48.14811" lon="6.43398">
        <ele>431</ele>
        <time>2022-09-26T13:34:12Z</time>
      </trkpt>
      <trkpt lat="48.1481" lon="6.43396">
        <ele>431</ele>
        <time>2022-09-26T13:34:13Z</time>
      </trkpt>
      <trkpt lat="48.14811" lon="6.43393">
        <ele>431</ele>
        <time>2022-09-26T13:34:14Z</time>
      </trkpt>
      <trkpt lat="48.14811" lon="6.43391">
        <ele>431</ele>
        <time>2022-09-26T13:34:15Z</time>
      </trkpt>
      <trkpt lat="48.1481" lon="6.43389">
        <ele>431</ele>
        <time>2022-09-26T13:34:16Z</time>
      </trkpt>
      <trkpt lat="48.1481" lon="6.43385">
        <ele>431</ele>
        <time>2022-09-26T13:34:17Z</time>
      </trkpt>
      <trkpt lat="48.1481" lon="6.43381">
        <ele>431</ele>
        <time>2022-09-26T13:34:18Z</time>
      </trkpt>
      <trkpt lat="48.14811" lon="6.43378">
        <ele>432</ele>
        <time>2022-09-26T13:34:19Z</time>
      </trkpt>
      <trkpt lat="48.14811" lon="6.43375">
        <ele>432</ele>
        <time>2022-09-26T13:34:20Z</time>
      </trkpt>
      <trkpt lat="48.14811" lon="6.43372">
        <ele>432</ele>
        <time>2022-09-26T13:34:21Z</time>
      </trkpt>
      <trkpt lat="48.14811" lon="6.43369">
        <ele>432</ele>
        <time>2022-09-26T13:34:22Z</time>
      </trkpt>
      <trkpt lat="48.1481" lon="6.43366">
        <ele>432</ele>
        <time>2022-09-26T13:34:23Z</time>
      </trkpt>
      <trkpt lat="48.1481" lon="6.43363">
        <ele>432</ele>
        <time>2022-09-26T13:34:24Z</time>
      </trkpt>
      <trkpt lat="48.1481" lon="6.4336">
        <ele>432</ele>
        <time>2022-09-26T13:34:25Z</time>
      </trkpt>
      <trkpt lat="48.14811" lon="6.43357">
        <ele>432</ele>
        <time>2022-09-26T13:34:26Z</time>
      </trkpt>
      <trkpt lat="48.14811" lon="6.43354">
        <ele>432</ele>
        <time>2022-09-26T13:34:27Z</time>
      </trkpt>
      <trkpt lat="48.14811" lon="6.43352">
        <ele>432</ele>
        <time>2022-09-26T13:34:28Z</time>
      </trkpt>
      <trkpt lat="48.14811" lon="6.4335">
        <ele>432</ele>
        <time>2022-09-26T13:34:29Z</time>
      </trkpt>
      <trkpt lat="48.14812" lon="6.43348">
        <ele>432</ele>
        <time>2022-09-26T13:34:30Z</time>
      </trkpt>
      <trkpt lat="48.14812" lon="6.43345">
        <ele>433</ele>
        <time>2022-09-26T13:34:31Z</time>
      </trkpt>
      <trkpt lat="48.14812" lon="6.43342">
        <ele>433</ele>
        <time>2022-09-26T13:34:32Z</time>
      </trkpt>
      <trkpt lat="48.14813" lon="6.43339">
        <ele>433</ele>
        <time>2022-09-26T13:34:33Z</time>
      </trkpt>
      <trkpt lat="48.14813" lon="6.43335">
        <ele>433</ele>
        <time>2022-09-26T13:34:34Z</time>
      </trkpt>
      <trkpt lat="48.14814" lon="6.43332">
        <ele>433</ele>
        <time>2022-09-26T13:34:35Z</time>
      </trkpt>
      <trkpt lat="48.14814" lon="6.43328">
        <ele>433</ele>
        <time>2022-09-26T13:34:36Z</time>
      </trkpt>
      <trkpt lat="48.14816" lon="6.43326">
        <ele>434</ele>
        <time>2022-09-26T13:34:37Z</time>
      </trkpt>
      <trkpt lat="48.14817" lon="6.43323">
        <ele>434</ele>
        <time>2022-09-26T13:34:38Z</time>
      </trkpt>
      <trkpt lat="48.14818" lon="6.4332">
        <ele>434</ele>
        <time>2022-09-26T13:34:39Z</time>
      </trkpt>
      <trkpt lat="48.14819" lon="6.43318">
        <ele>434</ele>
        <time>2022-09-26T13:34:40Z</time>
      </trkpt>
      <trkpt lat="48.1482" lon="6.43315">
        <ele>434</ele>
        <time>2022-09-26T13:34:41Z</time>
      </trkpt>
      <trkpt lat="48.1482" lon="6.43312">
        <ele>435</ele>
        <time>2022-09-26T13:34:42Z</time>
      </trkpt>
      <trkpt lat="48.14821" lon="6.43308">
        <ele>434</ele>
        <time>2022-09-26T13:34:43Z</time>
      </trkpt>
      <trkpt lat="48.1482" lon="6.43305">
        <ele>434</ele>
        <time>2022-09-26T13:34:44Z</time>
      </trkpt>
      <trkpt lat="48.14821" lon="6.43303">
        <ele>434</ele>
        <time>2022-09-26T13:34:45Z</time>
      </trkpt>
      <trkpt lat="48.14821" lon="6.43301">
        <ele>434</ele>
        <time>2022-09-26T13:34:46Z</time>
      </trkpt>
      <trkpt lat="48.14822" lon="6.43299">
        <ele>434</ele>
        <time>2022-09-26T13:34:47Z</time>
      </trkpt>
      <trkpt lat="48.14822" lon="6.43297">
        <ele>434</ele>
        <time>2022-09-26T13:34:48Z</time>
      </trkpt>
      <trkpt lat="48.14822" lon="6.43294">
        <ele>434</ele>
        <time>2022-09-26T13:34:49Z</time>
      </trkpt>
      <trkpt lat="48.14823" lon="6.43292">
        <ele>434</ele>
        <time>2022-09-26T13:34:50Z</time>
      </trkpt>
      <trkpt lat="48.14823" lon="6.4329">
        <ele>434</ele>
        <time>2022-09-26T13:34:51Z</time>
      </trkpt>
      <trkpt lat="48.14823" lon="6.43288">
        <ele>434</ele>
        <time>2022-09-26T13:34:52Z</time>
      </trkpt>
      <trkpt lat="48.14823" lon="6.43286">
        <ele>434</ele>
        <time>2022-09-26T13:34:53Z</time>
      </trkpt>
      <trkpt lat="48.14823" lon="6.43284">
        <ele>434</ele>
        <time>2022-09-26T13:34:54Z</time>
      </trkpt>
      <trkpt lat="48.14824" lon="6.43282">
        <ele>434</ele>
        <time>2022-09-26T13:34:55Z</time>
      </trkpt>
      <trkpt lat="48.14824" lon="6.4328">
        <ele>434</ele>
        <time>2022-09-26T13:34:56Z</time>
      </trkpt>
      <trkpt lat="48.14824" lon="6.43277">
        <ele>434</ele>
        <time>2022-09-26T13:34:57Z</time>
      </trkpt>
      <trkpt lat="48.14824" lon="6.43275">
        <ele>434</ele>
        <time>2022-09-26T13:34:58Z</time>
      </trkpt>
      <trkpt lat="48.14825" lon="6.43271">
        <ele>434</ele>
        <time>2022-09-26T13:34:59Z</time>
      </trkpt>
      <trkpt lat="48.14826" lon="6.43269">
        <ele>434</ele>
        <time>2022-09-26T13:35:00Z</time>
      </trkpt>
      <trkpt lat="48.14826" lon="6.43267">
        <ele>435</ele>
        <time>2022-09-26T13:35:01Z</time>
      </trkpt>
      <trkpt lat="48.14827" lon="6.43265">
        <ele>435</ele>
        <time>2022-09-26T13:35:02Z</time>
      </trkpt>
      <trkpt lat="48.14827" lon="6.43264">
        <ele>435</ele>
        <time>2022-09-26T13:35:03Z</time>
      </trkpt>
      <trkpt lat="48.14827" lon="6.43262">
        <ele>435</ele>
        <time>2022-09-26T13:35:04Z</time>
      </trkpt>
      <trkpt lat="48.14826" lon="6.43259">
        <ele>435</ele>
        <time>2022-09-26T13:35:05Z</time>
      </trkpt>
      <trkpt lat="48.14826" lon="6.43257">
        <ele>434</ele>
        <time>2022-09-26T13:35:06Z</time>
      </trkpt>
      <trkpt lat="48.14827" lon="6.43253">
        <ele>435</ele>
        <time>2022-09-26T13:35:07Z</time>
      </trkpt>
      <trkpt lat="48.14827" lon="6.4325">
        <ele>435</ele>
        <time>2022-09-26T13:35:08Z</time>
      </trkpt>
      <trkpt lat="48.14827" lon="6.43247">
        <ele>435</ele>
        <time>2022-09-26T13:35:09Z</time>
      </trkpt>
      <trkpt lat="48.14827" lon="6.43245">
        <ele>435</ele>
        <time>2022-09-26T13:35:10Z</time>
      </trkpt>
      <trkpt lat="48.14828" lon="6.43242">
        <ele>435</ele>
        <time>2022-09-26T13:35:11Z</time>
      </trkpt>
      <trkpt lat="48.14828" lon="6.43239">
        <ele>435</ele>
        <time>2022-09-26T13:35:12Z</time>
      </trkpt>
      <trkpt lat="48.14828" lon="6.43236">
        <ele>436</ele>
        <time>2022-09-26T13:35:13Z</time>
      </trkpt>
      <trkpt lat="48.14828" lon="6.43232">
        <ele>436</ele>
        <time>2022-09-26T13:35:14Z</time>
      </trkpt>
      <trkpt lat="48.14829" lon="6.43228">
        <ele>436</ele>
        <time>2022-09-26T13:35:15Z</time>
      </trkpt>
      <trkpt lat="48.14829" lon="6.43224">
        <ele>436</ele>
        <time>2022-09-26T13:35:16Z</time>
      </trkpt>
      <trkpt lat="48.14829" lon="6.4322">
        <ele>437</ele>
        <time>2022-09-26T13:35:17Z</time>
      </trkpt>
      <trkpt lat="48.14829" lon="6.43216">
        <ele>437</ele>
        <time>2022-09-26T13:35:18Z</time>
      </trkpt>
      <trkpt lat="48.14829" lon="6.4321">
        <ele>437</ele>
        <time>2022-09-26T13:35:19Z</time>
      </trkpt>
      <trkpt lat="48.1483" lon="6.43207">
        <ele>438</ele>
        <time>2022-09-26T13:35:20Z</time>
      </trkpt>
      <trkpt lat="48.14829" lon="6.43204">
        <ele>438</ele>
        <time>2022-09-26T13:35:21Z</time>
      </trkpt>
      <trkpt lat="48.1483" lon="6.432">
        <ele>438</ele>
        <time>2022-09-26T13:35:22Z</time>
      </trkpt>
      <trkpt lat="48.1483" lon="6.43192">
        <ele>439</ele>
        <time>2022-09-26T13:35:23Z</time>
      </trkpt>
      <trkpt lat="48.14829" lon="6.43184">
        <ele>439</ele>
        <time>2022-09-26T13:35:24Z</time>
      </trkpt>
      <trkpt lat="48.14828" lon="6.43177">
        <ele>440</ele>
        <time>2022-09-26T13:35:25Z</time>
      </trkpt>
      <trkpt lat="48.14827" lon="6.43173">
        <ele>440</ele>
        <time>2022-09-26T13:35:26Z</time>
      </trkpt>
      <trkpt lat="48.14826" lon="6.43168">
        <ele>440</ele>
        <time>2022-09-26T13:35:27Z</time>
      </trkpt>
      <trkpt lat="48.14824" lon="6.4316">
        <ele>440</ele>
        <time>2022-09-26T13:35:28Z</time>
      </trkpt>
      <trkpt lat="48.14823" lon="6.43155">
        <ele>440</ele>
        <time>2022-09-26T13:35:29Z</time>
      </trkpt>
      <trkpt lat="48.14821" lon="6.43148">
        <ele>440</ele>
        <time>2022-09-26T13:35:30Z</time>
      </trkpt>
      <trkpt lat="48.1482" lon="6.43139">
        <ele>441</ele>
        <time>2022-09-26T13:35:31Z</time>
      </trkpt>
      <trkpt lat="48.14819" lon="6.43132">
        <ele>441</ele>
        <time>2022-09-26T13:35:32Z</time>
      </trkpt>
      <trkpt lat="48.14817" lon="6.43124">
        <ele>441</ele>
        <time>2022-09-26T13:35:33Z</time>
      </trkpt>
      <trkpt lat="48.14814" lon="6.43117">
        <ele>440</ele>
        <time>2022-09-26T13:35:34Z</time>
      </trkpt>
      <trkpt lat="48.14813" lon="6.43109">
        <ele>440</ele>
        <time>2022-09-26T13:35:35Z</time>
      </trkpt>
      <trkpt lat="48.14812" lon="6.43101">
        <ele>441</ele>
        <time>2022-09-26T13:35:36Z</time>
      </trkpt>
      <trkpt lat="48.14811" lon="6.43094">
        <ele>441</ele>
        <time>2022-09-26T13:35:37Z</time>
      </trkpt>
      <trkpt lat="48.1481" lon="6.43089">
        <ele>441</ele>
        <time>2022-09-26T13:35:38Z</time>
      </trkpt>
      <trkpt lat="48.14809" lon="6.43083">
        <ele>442</ele>
        <time>2022-09-26T13:35:39Z</time>
      </trkpt>
      <trkpt lat="48.14808" lon="6.43078">
        <ele>442</ele>
        <time>2022-09-26T13:35:40Z</time>
      </trkpt>
      <trkpt lat="48.14808" lon="6.43073">
        <ele>442</ele>
        <time>2022-09-26T13:35:41Z</time>
      </trkpt>
      <trkpt lat="48.14808" lon="6.43069">
        <ele>442</ele>
        <time>2022-09-26T13:35:42Z</time>
      </trkpt>
      <trkpt lat="48.14808" lon="6.43065">
        <ele>442</ele>
        <time>2022-09-26T13:35:43Z</time>
      </trkpt>
      <trkpt lat="48.14807" lon="6.43062">
        <ele>443</ele>
        <time>2022-09-26T13:35:44Z</time>
      </trkpt>
      <trkpt lat="48.14807" lon="6.43057">
        <ele>443</ele>
        <time>2022-09-26T13:35:45Z</time>
      </trkpt>
      <trkpt lat="48.14806" lon="6.43052">
        <ele>443</ele>
        <time>2022-09-26T13:35:46Z</time>
      </trkpt>
      <trkpt lat="48.14805" lon="6.43047">
        <ele>442</ele>
        <time>2022-09-26T13:35:47Z</time>
      </trkpt>
      <trkpt lat="48.14805" lon="6.43044">
        <ele>442</ele>
        <time>2022-09-26T13:35:48Z</time>
      </trkpt>
      <trkpt lat="48.14805" lon="6.43039">
        <ele>441</ele>
        <time>2022-09-26T13:35:49Z</time>
      </trkpt>
      <trkpt lat="48.14804" lon="6.43035">
        <ele>441</ele>
        <time>2022-09-26T13:35:50Z</time>
      </trkpt>
      <trkpt lat="48.14804" lon="6.43031">
        <ele>441</ele>
        <time>2022-09-26T13:35:51Z</time>
      </trkpt>
      <trkpt lat="48.14805" lon="6.43027">
        <ele>441</ele>
        <time>2022-09-26T13:35:52Z</time>
      </trkpt>
      <trkpt lat="48.14805" lon="6.43021">
        <ele>441</ele>
        <time>2022-09-26T13:35:53Z</time>
      </trkpt>
      <trkpt lat="48.14806" lon="6.43017">
        <ele>441</ele>
        <time>2022-09-26T13:35:54Z</time>
      </trkpt>
      <trkpt lat="48.14806" lon="6.43013">
        <ele>441</ele>
        <time>2022-09-26T13:35:55Z</time>
      </trkpt>
      <trkpt lat="48.14807" lon="6.43009">
        <ele>441</ele>
        <time>2022-09-26T13:35:56Z</time>
      </trkpt>
      <trkpt lat="48.14807" lon="6.43007">
        <ele>441</ele>
        <time>2022-09-26T13:35:57Z</time>
      </trkpt>
      <trkpt lat="48.14809" lon="6.43005">
        <ele>441</ele>
        <time>2022-09-26T13:35:58Z</time>
      </trkpt>
      <trkpt lat="48.14811" lon="6.43002">
        <ele>441</ele>
        <time>2022-09-26T13:35:59Z</time>
      </trkpt>
      <trkpt lat="48.14813" lon="6.42996">
        <ele>441</ele>
        <time>2022-09-26T13:36:00Z</time>
      </trkpt>
      <trkpt lat="48.14815" lon="6.42989">
        <ele>442</ele>
        <time>2022-09-26T13:36:01Z</time>
      </trkpt>
      <trkpt lat="48.14816" lon="6.42984">
        <ele>442</ele>
        <time>2022-09-26T13:36:02Z</time>
      </trkpt>
      <trkpt lat="48.14819" lon="6.42981">
        <ele>442</ele>
        <time>2022-09-26T13:36:03Z</time>
      </trkpt>
      <trkpt lat="48.14821" lon="6.42977">
        <ele>442</ele>
        <time>2022-09-26T13:36:04Z</time>
      </trkpt>
      <trkpt lat="48.14823" lon="6.42969">
        <ele>442</ele>
        <time>2022-09-26T13:36:05Z</time>
      </trkpt>
      <trkpt lat="48.14826" lon="6.42965">
        <ele>443</ele>
        <time>2022-09-26T13:36:06Z</time>
      </trkpt>
      <trkpt lat="48.14828" lon="6.42962">
        <ele>443</ele>
        <time>2022-09-26T13:36:07Z</time>
      </trkpt>
      <trkpt lat="48.1483" lon="6.42957">
        <ele>443</ele>
        <time>2022-09-26T13:36:08Z</time>
      </trkpt>
      <trkpt lat="48.14831" lon="6.42953">
        <ele>443</ele>
        <time>2022-09-26T13:36:09Z</time>
      </trkpt>
      <trkpt lat="48.14834" lon="6.42949">
        <ele>444</ele>
        <time>2022-09-26T13:36:10Z</time>
      </trkpt>
      <trkpt lat="48.14836" lon="6.42942">
        <ele>444</ele>
        <time>2022-09-26T13:36:11Z</time>
      </trkpt>
      <trkpt lat="48.14837" lon="6.42934">
        <ele>444</ele>
        <time>2022-09-26T13:36:12Z</time>
      </trkpt>
      <trkpt lat="48.14838" lon="6.42927">
        <ele>444</ele>
        <time>2022-09-26T13:36:13Z</time>
      </trkpt>
      <trkpt lat="48.14841" lon="6.42921">
        <ele>444</ele>
        <time>2022-09-26T13:36:14Z</time>
      </trkpt>
      <trkpt lat="48.14843" lon="6.42915">
        <ele>444</ele>
        <time>2022-09-26T13:36:15Z</time>
      </trkpt>
      <trkpt lat="48.14845" lon="6.42909">
        <ele>444</ele>
        <time>2022-09-26T13:36:16Z</time>
      </trkpt>
      <trkpt lat="48.14845" lon="6.42904">
        <ele>443</ele>
        <time>2022-09-26T13:36:17Z</time>
      </trkpt>
      <trkpt lat="48.14846" lon="6.429">
        <ele>443</ele>
        <time>2022-09-26T13:36:18Z</time>
      </trkpt>
      <trkpt lat="48.14847" lon="6.42897">
        <ele>442</ele>
        <time>2022-09-26T13:36:19Z</time>
      </trkpt>
      <trkpt lat="48.14847" lon="6.42893">
        <ele>442</ele>
        <time>2022-09-26T13:36:20Z</time>
      </trkpt>
      <trkpt lat="48.14847" lon="6.42889">
        <ele>441</ele>
        <time>2022-09-26T13:36:21Z</time>
      </trkpt>
      <trkpt lat="48.14847" lon="6.42885">
        <ele>440</ele>
        <time>2022-09-26T13:36:22Z</time>
      </trkpt>
      <trkpt lat="48.14846" lon="6.42881">
        <ele>440</ele>
        <time>2022-09-26T13:36:23Z</time>
      </trkpt>
      <trkpt lat="48.14846" lon="6.42877">
        <ele>439</ele>
        <time>2022-09-26T13:36:24Z</time>
      </trkpt>
      <trkpt lat="48.14846" lon="6.42873">
        <ele>439</ele>
        <time>2022-09-26T13:36:25Z</time>
      </trkpt>
      <trkpt lat="48.14845" lon="6.42869">
        <ele>438</ele>
        <time>2022-09-26T13:36:26Z</time>
      </trkpt>
      <trkpt lat="48.14846" lon="6.42864">
        <ele>438</ele>
        <time>2022-09-26T13:36:27Z</time>
      </trkpt>
      <trkpt lat="48.14846" lon="6.42859">
        <ele>438</ele>
        <time>2022-09-26T13:36:28Z</time>
      </trkpt>
      <trkpt lat="48.14847" lon="6.42853">
        <ele>437</ele>
        <time>2022-09-26T13:36:29Z</time>
      </trkpt>
      <trkpt lat="48.14848" lon="6.4285">
        <ele>437</ele>
        <time>2022-09-26T13:36:30Z</time>
      </trkpt>
      <trkpt lat="48.14848" lon="6.42846">
        <ele>437</ele>
        <time>2022-09-26T13:36:31Z</time>
      </trkpt>
      <trkpt lat="48.14849" lon="6.42842">
        <ele>437</ele>
        <time>2022-09-26T13:36:32Z</time>
      </trkpt>
      <trkpt lat="48.1485" lon="6.42838">
        <ele>436</ele>
        <time>2022-09-26T13:36:33Z</time>
      </trkpt>
      <trkpt lat="48.1485" lon="6.42833">
        <ele>436</ele>
        <time>2022-09-26T13:36:34Z</time>
      </trkpt>
      <trkpt lat="48.1485" lon="6.4283">
        <ele>436</ele>
        <time>2022-09-26T13:36:35Z</time>
      </trkpt>
      <trkpt lat="48.14851" lon="6.42827">
        <ele>436</ele>
        <time>2022-09-26T13:36:36Z</time>
      </trkpt>
      <trkpt lat="48.14852" lon="6.42823">
        <ele>436</ele>
        <time>2022-09-26T13:36:37Z</time>
      </trkpt>
      <trkpt lat="48.14852" lon="6.42818">
        <ele>436</ele>
        <time>2022-09-26T13:36:38Z</time>
      </trkpt>
      <trkpt lat="48.14853" lon="6.42813">
        <ele>436</ele>
        <time>2022-09-26T13:36:39Z</time>
      </trkpt>
      <trkpt lat="48.14853" lon="6.42808">
        <ele>436</ele>
        <time>2022-09-26T13:36:40Z</time>
      </trkpt>
      <trkpt lat="48.14853" lon="6.42802">
        <ele>436</ele>
        <time>2022-09-26T13:36:41Z</time>
      </trkpt>
      <trkpt lat="48.14854" lon="6.42795">
        <ele>436</ele>
        <time>2022-09-26T13:36:42Z</time>
      </trkpt>
      <trkpt lat="48.14854" lon="6.4279">
        <ele>436</ele>
        <time>2022-09-26T13:36:43Z</time>
      </trkpt>
      <trkpt lat="48.14854" lon="6.42785">
        <ele>436</ele>
        <time>2022-09-26T13:36:44Z</time>
      </trkpt>
      <trkpt lat="48.14854" lon="6.4278">
        <ele>436</ele>
        <time>2022-09-26T13:36:45Z</time>
      </trkpt>
      <trkpt lat="48.14854" lon="6.42775">
        <ele>436</ele>
        <time>2022-09-26T13:36:46Z</time>
      </trkpt>
      <trkpt lat="48.14854" lon="6.4277">
        <ele>437</ele>
        <time>2022-09-26T13:36:47Z</time>
      </trkpt>
      <trkpt lat="48.14854" lon="6.42766">
        <ele>437</ele>
        <time>2022-09-26T13:36:48Z</time>
      </trkpt>
      <trkpt lat="48.14854" lon="6.42762">
        <ele>437</ele>
        <time>2022-09-26T13:36:49Z</time>
      </trkpt>
      <trkpt lat="48.14854" lon="6.42757">
        <ele>438</ele>
        <time>2022-09-26T13:36:50Z</time>
      </trkpt>
      <trkpt lat="48.14855" lon="6.42752">
        <ele>439</ele>
        <time>2022-09-26T13:36:51Z</time>
      </trkpt>
      <trkpt lat="48.14855" lon="6.42747">
        <ele>439</ele>
        <time>2022-09-26T13:36:52Z</time>
      </trkpt>
      <trkpt lat="48.14855" lon="6.42744">
        <ele>440</ele>
        <time>2022-09-26T13:36:53Z</time>
      </trkpt>
      <trkpt lat="48.14856" lon="6.4274">
        <ele>441</ele>
        <time>2022-09-26T13:36:54Z</time>
      </trkpt>
      <trkpt lat="48.14856" lon="6.42737">
        <ele>441</ele>
        <time>2022-09-26T13:36:55Z</time>
      </trkpt>
      <trkpt lat="48.14857" lon="6.42733">
        <ele>442</ele>
        <time>2022-09-26T13:36:56Z</time>
      </trkpt>
      <trkpt lat="48.14858" lon="6.42728">
        <ele>443</ele>
        <time>2022-09-26T13:36:57Z</time>
      </trkpt>
      <trkpt lat="48.14858" lon="6.42723">
        <ele>444</ele>
        <time>2022-09-26T13:36:58Z</time>
      </trkpt>
      <trkpt lat="48.14858" lon="6.42717">
        <ele>444</ele>
        <time>2022-09-26T13:36:59Z</time>
      </trkpt>
      <trkpt lat="48.14859" lon="6.42711">
        <ele>445</ele>
        <time>2022-09-26T13:37:00Z</time>
      </trkpt>
      <trkpt lat="48.14859" lon="6.42708">
        <ele>445</ele>
        <time>2022-09-26T13:37:01Z</time>
      </trkpt>
      <trkpt lat="48.14859" lon="6.42703">
        <ele>445</ele>
        <time>2022-09-26T13:37:02Z</time>
      </trkpt>
      <trkpt lat="48.1486" lon="6.42698">
        <ele>446</ele>
        <time>2022-09-26T13:37:03Z</time>
      </trkpt>
      <trkpt lat="48.1486" lon="6.42694">
        <ele>446</ele>
        <time>2022-09-26T13:37:04Z</time>
      </trkpt>
      <trkpt lat="48.1486" lon="6.42688">
        <ele>446</ele>
        <time>2022-09-26T13:37:05Z</time>
      </trkpt>
      <trkpt lat="48.14861" lon="6.42683">
        <ele>446</ele>
        <time>2022-09-26T13:37:06Z</time>
      </trkpt>
      <trkpt lat="48.14861" lon="6.42677">
        <ele>447</ele>
        <time>2022-09-26T13:37:07Z</time>
      </trkpt>
      <trkpt lat="48.14861" lon="6.42671">
        <ele>447</ele>
        <time>2022-09-26T13:37:08Z</time>
      </trkpt>
      <trkpt lat="48.14862" lon="6.42666">
        <ele>447</ele>
        <time>2022-09-26T13:37:09Z</time>
      </trkpt>
      <trkpt lat="48.14862" lon="6.42662">
        <ele>446</ele>
        <time>2022-09-26T13:37:10Z</time>
      </trkpt>
      <trkpt lat="48.14862" lon="6.42657">
        <ele>446</ele>
        <time>2022-09-26T13:37:11Z</time>
      </trkpt>
      <trkpt lat="48.14862" lon="6.42652">
        <ele>446</ele>
        <time>2022-09-26T13:37:12Z</time>
      </trkpt>
      <trkpt lat="48.14861" lon="6.42648">
        <ele>446</ele>
        <time>2022-09-26T13:37:13Z</time>
      </trkpt>
      <trkpt lat="48.14861" lon="6.42644">
        <ele>445</ele>
        <time>2022-09-26T13:37:14Z</time>
      </trkpt>
      <trkpt lat="48.1486" lon="6.4264">
        <ele>445</ele>
        <time>2022-09-26T13:37:15Z</time>
      </trkpt>
      <trkpt lat="48.14859" lon="6.42637">
        <ele>445</ele>
        <time>2022-09-26T13:37:16Z</time>
      </trkpt>
      <trkpt lat="48.14858" lon="6.42634">
        <ele>444</ele>
        <time>2022-09-26T13:37:17Z</time>
      </trkpt>
      <trkpt lat="48.14857" lon="6.4263">
        <ele>443</ele>
        <time>2022-09-26T13:37:18Z</time>
      </trkpt>
      <trkpt lat="48.14857" lon="6.42625">
        <ele>443</ele>
        <time>2022-09-26T13:37:19Z</time>
      </trkpt>
      <trkpt lat="48.14855" lon="6.42622">
        <ele>442</ele>
        <time>2022-09-26T13:37:20Z</time>
      </trkpt>
      <trkpt lat="48.14854" lon="6.42619">
        <ele>441</ele>
        <time>2022-09-26T13:37:21Z</time>
      </trkpt>
      <trkpt lat="48.14853" lon="6.42615">
        <ele>440</ele>
        <time>2022-09-26T13:37:22Z</time>
      </trkpt>
      <trkpt lat="48.14852" lon="6.42611">
        <ele>440</ele>
        <time>2022-09-26T13:37:23Z</time>
      </trkpt>
      <trkpt lat="48.14851" lon="6.42609">
        <ele>439</ele>
        <time>2022-09-26T13:37:24Z</time>
      </trkpt>
      <trkpt lat="48.14849" lon="6.42605">
        <ele>438</ele>
        <time>2022-09-26T13:37:25Z</time>
      </trkpt>
      <trkpt lat="48.14847" lon="6.42601">
        <ele>437</ele>
        <time>2022-09-26T13:37:26Z</time>
      </trkpt>
      <trkpt lat="48.14844" lon="6.42598">
        <ele>436</ele>
        <time>2022-09-26T13:37:27Z</time>
      </trkpt>
      <trkpt lat="48.14842" lon="6.42593">
        <ele>435</ele>
        <time>2022-09-26T13:37:28Z</time>
      </trkpt>
      <trkpt lat="48.14839" lon="6.42587">
        <ele>434</ele>
        <time>2022-09-26T13:37:29Z</time>
      </trkpt>
      <trkpt lat="48.14837" lon="6.42582">
        <ele>433</ele>
        <time>2022-09-26T13:37:30Z</time>
      </trkpt>
      <trkpt lat="48.14834" lon="6.42578">
        <ele>432</ele>
        <time>2022-09-26T13:37:31Z</time>
      </trkpt>
      <trkpt lat="48.14832" lon="6.42572">
        <ele>432</ele>
        <time>2022-09-26T13:37:32Z</time>
      </trkpt>
      <trkpt lat="48.1483" lon="6.42566">
        <ele>431</ele>
        <time>2022-09-26T13:37:33Z</time>
      </trkpt>
      <trkpt lat="48.14827" lon="6.4256">
        <ele>431</ele>
        <time>2022-09-26T13:37:34Z</time>
      </trkpt>
      <trkpt lat="48.14824" lon="6.42554">
        <ele>430</ele>
        <time>2022-09-26T13:37:35Z</time>
      </trkpt>
      <trkpt lat="48.1482" lon="6.42547">
        <ele>430</ele>
        <time>2022-09-26T13:37:36Z</time>
      </trkpt>
      <trkpt lat="48.14818" lon="6.42541">
        <ele>430</ele>
        <time>2022-09-26T13:37:37Z</time>
      </trkpt>
      <trkpt lat="48.14815" lon="6.42536">
        <ele>430</ele>
        <time>2022-09-26T13:37:38Z</time>
      </trkpt>
      <trkpt lat="48.14812" lon="6.42531">
        <ele>430</ele>
        <time>2022-09-26T13:37:39Z</time>
      </trkpt>
      <trkpt lat="48.14809" lon="6.42526">
        <ele>429</ele>
        <time>2022-09-26T13:37:40Z</time>
      </trkpt>
      <trkpt lat="48.14806" lon="6.42519">
        <ele>429</ele>
        <time>2022-09-26T13:37:41Z</time>
      </trkpt>
      <trkpt lat="48.14804" lon="6.42513">
        <ele>429</ele>
        <time>2022-09-26T13:37:42Z</time>
      </trkpt>
      <trkpt lat="48.14801" lon="6.42506">
        <ele>429</ele>
        <time>2022-09-26T13:37:43Z</time>
      </trkpt>
      <trkpt lat="48.14798" lon="6.425">
        <ele>429</ele>
        <time>2022-09-26T13:37:44Z</time>
      </trkpt>
      <trkpt lat="48.14796" lon="6.42493">
        <ele>429</ele>
        <time>2022-09-26T13:37:45Z</time>
      </trkpt>
      <trkpt lat="48.14794" lon="6.42485">
        <ele>429</ele>
        <time>2022-09-26T13:37:46Z</time>
      </trkpt>
      <trkpt lat="48.14791" lon="6.42478">
        <ele>429</ele>
        <time>2022-09-26T13:37:47Z</time>
      </trkpt>
      <trkpt lat="48.1479" lon="6.42471">
        <ele>429</ele>
        <time>2022-09-26T13:37:48Z</time>
      </trkpt>
      <trkpt lat="48.14789" lon="6.42464">
        <ele>429</ele>
        <time>2022-09-26T13:37:49Z</time>
      </trkpt>
      <trkpt lat="48.14788" lon="6.42458">
        <ele>429</ele>
        <time>2022-09-26T13:37:50Z</time>
      </trkpt>
      <trkpt lat="48.14787" lon="6.42451">
        <ele>429</ele>
        <time>2022-09-26T13:37:51Z</time>
      </trkpt>
      <trkpt lat="48.14771" lon="6.42372">
        <ele>429</ele>
        <time>2022-09-26T13:37:52Z</time>
      </trkpt>
      <trkpt lat="48.1477" lon="6.42361">
        <ele>429</ele>
        <time>2022-09-26T13:37:53Z</time>
      </trkpt>
      <trkpt lat="48.14772" lon="6.42355">
        <ele>429</ele>
        <time>2022-09-26T13:37:54Z</time>
      </trkpt>
      <trkpt lat="48.14772" lon="6.42351">
        <ele>429</ele>
        <time>2022-09-26T13:37:55Z</time>
      </trkpt>
      <trkpt lat="48.14772" lon="6.42345">
        <ele>429</ele>
        <time>2022-09-26T13:37:56Z</time>
      </trkpt>
      <trkpt lat="48.14772" lon="6.42344">
        <ele>429</ele>
        <time>2022-09-26T13:37:57Z</time>
      </trkpt>
      <trkpt lat="48.14773" lon="6.42337">
        <ele>429</ele>
        <time>2022-09-26T13:37:58Z</time>
      </trkpt>
      <trkpt lat="48.14774" lon="6.42332">
        <ele>428</ele>
        <time>2022-09-26T13:37:59Z</time>
      </trkpt>
      <trkpt lat="48.14774" lon="6.4233">
        <ele>428</ele>
        <time>2022-09-26T13:38:00Z</time>
      </trkpt>
      <trkpt lat="48.14775" lon="6.42327">
        <ele>428</ele>
        <time>2022-09-26T13:38:01Z</time>
      </trkpt>
      <trkpt lat="48.14775" lon="6.42324">
        <ele>428</ele>
        <time>2022-09-26T13:38:02Z</time>
      </trkpt>
      <trkpt lat="48.14775" lon="6.4232">
        <ele>428</ele>
        <time>2022-09-26T13:38:03Z</time>
      </trkpt>
      <trkpt lat="48.14774" lon="6.42316">
        <ele>427</ele>
        <time>2022-09-26T13:38:04Z</time>
      </trkpt>
      <trkpt lat="48.14769" lon="6.42311">
        <ele>426</ele>
        <time>2022-09-26T13:38:05Z</time>
      </trkpt>
      <trkpt lat="48.14766" lon="6.42307">
        <ele>425</ele>
        <time>2022-09-26T13:38:06Z</time>
      </trkpt>
      <trkpt lat="48.14762" lon="6.42302">
        <ele>424</ele>
        <time>2022-09-26T13:38:07Z</time>
      </trkpt>
      <trkpt lat="48.14759" lon="6.42297">
        <ele>424</ele>
        <time>2022-09-26T13:38:08Z</time>
      </trkpt>
      <trkpt lat="48.14756" lon="6.42293">
        <ele>423</ele>
        <time>2022-09-26T13:38:09Z</time>
      </trkpt>
      <trkpt lat="48.14753" lon="6.42287">
        <ele>423</ele>
        <time>2022-09-26T13:38:10Z</time>
      </trkpt>
      <trkpt lat="48.1475" lon="6.42283">
        <ele>422</ele>
        <time>2022-09-26T13:38:11Z</time>
      </trkpt>
      <trkpt lat="48.14747" lon="6.42277">
        <ele>422</ele>
        <time>2022-09-26T13:38:12Z</time>
      </trkpt>
      <trkpt lat="48.14745" lon="6.42274">
        <ele>421</ele>
        <time>2022-09-26T13:38:13Z</time>
      </trkpt>
      <trkpt lat="48.14742" lon="6.42272">
        <ele>420</ele>
        <time>2022-09-26T13:38:14Z</time>
      </trkpt>
      <trkpt lat="48.14738" lon="6.42268">
        <ele>419</ele>
        <time>2022-09-26T13:38:15Z</time>
      </trkpt>
      <trkpt lat="48.14736" lon="6.4226">
        <ele>419</ele>
        <time>2022-09-26T13:38:16Z</time>
      </trkpt>
      <trkpt lat="48.14733" lon="6.42253">
        <ele>418</ele>
        <time>2022-09-26T13:38:17Z</time>
      </trkpt>
      <trkpt lat="48.1473" lon="6.42247">
        <ele>418</ele>
        <time>2022-09-26T13:38:18Z</time>
      </trkpt>
      <trkpt lat="48.14727" lon="6.42241">
        <ele>418</ele>
        <time>2022-09-26T13:38:19Z</time>
      </trkpt>
      <trkpt lat="48.14725" lon="6.42236">
        <ele>418</ele>
        <time>2022-09-26T13:38:20Z</time>
      </trkpt>
      <trkpt lat="48.14725" lon="6.42231">
        <ele>419</ele>
        <time>2022-09-26T13:38:21Z</time>
      </trkpt>
      <trkpt lat="48.14725" lon="6.42227">
        <ele>419</ele>
        <time>2022-09-26T13:38:22Z</time>
      </trkpt>
      <trkpt lat="48.14724" lon="6.42222">
        <ele>420</ele>
        <time>2022-09-26T13:38:23Z</time>
      </trkpt>
      <trkpt lat="48.1471" lon="6.42188">
        <ele>419</ele>
        <time>2022-09-26T13:38:24Z</time>
      </trkpt>
      <trkpt lat="48.14712" lon="6.4218">
        <ele>421</ele>
        <time>2022-09-26T13:38:25Z</time>
      </trkpt>
      <trkpt lat="48.14712" lon="6.42173">
        <ele>421</ele>
        <time>2022-09-26T13:38:26Z</time>
      </trkpt>
      <trkpt lat="48.1471" lon="6.42165">
        <ele>421</ele>
        <time>2022-09-26T13:38:27Z</time>
      </trkpt>
      <trkpt lat="48.14709" lon="6.42161">
        <ele>421</ele>
        <time>2022-09-26T13:38:28Z</time>
      </trkpt>
      <trkpt lat="48.14708" lon="6.42157">
        <ele>421</ele>
        <time>2022-09-26T13:38:29Z</time>
      </trkpt>
      <trkpt lat="48.14706" lon="6.42153">
        <ele>420</ele>
        <time>2022-09-26T13:38:30Z</time>
      </trkpt>
      <trkpt lat="48.14705" lon="6.4215">
        <ele>420</ele>
        <time>2022-09-26T13:38:31Z</time>
      </trkpt>
      <trkpt lat="48.14705" lon="6.42147">
        <ele>420</ele>
        <time>2022-09-26T13:38:32Z</time>
      </trkpt>
      <trkpt lat="48.14706" lon="6.42143">
        <ele>420</ele>
        <time>2022-09-26T13:38:33Z</time>
      </trkpt>
      <trkpt lat="48.14707" lon="6.4214">
        <ele>421</ele>
        <time>2022-09-26T13:38:34Z</time>
      </trkpt>
      <trkpt lat="48.14708" lon="6.42137">
        <ele>422</ele>
        <time>2022-09-26T13:38:35Z</time>
      </trkpt>
      <trkpt lat="48.1471" lon="6.42135">
        <ele>423</ele>
        <time>2022-09-26T13:38:36Z</time>
      </trkpt>
      <trkpt lat="48.1471" lon="6.42141">
        <ele>423</ele>
        <time>2022-09-26T13:38:37Z</time>
      </trkpt>
      <trkpt lat="48.1471" lon="6.42143">
        <ele>423</ele>
        <time>2022-09-26T13:38:38Z</time>
      </trkpt>
      <trkpt lat="48.14718" lon="6.42104">
        <ele>427</ele>
        <time>2022-09-26T13:38:39Z</time>
      </trkpt>
      <trkpt lat="48.14718" lon="6.42093">
        <ele>426</ele>
        <time>2022-09-26T13:38:40Z</time>
      </trkpt>
      <trkpt lat="48.14719" lon="6.42086">
        <ele>426</ele>
        <time>2022-09-26T13:38:41Z</time>
      </trkpt>
      <trkpt lat="48.14721" lon="6.42079">
        <ele>426</ele>
        <time>2022-09-26T13:38:42Z</time>
      </trkpt>
      <trkpt lat="48.14721" lon="6.42075">
        <ele>426</ele>
        <time>2022-09-26T13:38:43Z</time>
      </trkpt>
      <trkpt lat="48.14722" lon="6.42072">
        <ele>426</ele>
        <time>2022-09-26T13:38:44Z</time>
      </trkpt>
      <trkpt lat="48.14722" lon="6.42074">
        <ele>426</ele>
        <time>2022-09-26T13:38:45Z</time>
      </trkpt>
      <trkpt lat="48.14723" lon="6.42069">
        <ele>426</ele>
        <time>2022-09-26T13:38:46Z</time>
      </trkpt>
      <trkpt lat="48.14722" lon="6.42083">
        <ele>426</ele>
        <time>2022-09-26T13:38:47Z</time>
      </trkpt>
      <trkpt lat="48.14722" lon="6.42085">
        <ele>427</ele>
        <time>2022-09-26T13:38:48Z</time>
      </trkpt>
      <trkpt lat="48.14722" lon="6.42084">
        <ele>427</ele>
        <time>2022-09-26T13:38:49Z</time>
      </trkpt>
      <trkpt lat="48.14724" lon="6.42076">
        <ele>427</ele>
        <time>2022-09-26T13:38:50Z</time>
      </trkpt>
      <trkpt lat="48.14725" lon="6.42074">
        <ele>427</ele>
        <time>2022-09-26T13:38:51Z</time>
      </trkpt>
      <trkpt lat="48.14725" lon="6.42067">
        <ele>426</ele>
        <time>2022-09-26T13:38:52Z</time>
      </trkpt>
      <trkpt lat="48.14726" lon="6.42063">
        <ele>426</ele>
        <time>2022-09-26T13:38:53Z</time>
      </trkpt>
      <trkpt lat="48.14728" lon="6.42061">
        <ele>427</ele>
        <time>2022-09-26T13:38:54Z</time>
      </trkpt>
      <trkpt lat="48.14729" lon="6.42057">
        <ele>427</ele>
        <time>2022-09-26T13:38:55Z</time>
      </trkpt>
      <trkpt lat="48.1473" lon="6.42053">
        <ele>427</ele>
        <time>2022-09-26T13:38:56Z</time>
      </trkpt>
      <trkpt lat="48.14731" lon="6.42049">
        <ele>427</ele>
        <time>2022-09-26T13:38:57Z</time>
      </trkpt>
      <trkpt lat="48.14731" lon="6.42045">
        <ele>426</ele>
        <time>2022-09-26T13:38:58Z</time>
      </trkpt>
      <trkpt lat="48.1473" lon="6.42041">
        <ele>426</ele>
        <time>2022-09-26T13:38:59Z</time>
      </trkpt>
      <trkpt lat="48.14729" lon="6.42038">
        <ele>426</ele>
        <time>2022-09-26T13:39:00Z</time>
      </trkpt>
      <trkpt lat="48.14729" lon="6.42034">
        <ele>426</ele>
        <time>2022-09-26T13:39:01Z</time>
      </trkpt>
      <trkpt lat="48.1473" lon="6.42031">
        <ele>426</ele>
        <time>2022-09-26T13:39:02Z</time>
      </trkpt>
      <trkpt lat="48.1473" lon="6.42029">
        <ele>426</ele>
        <time>2022-09-26T13:39:03Z</time>
      </trkpt>
      <trkpt lat="48.14731" lon="6.42027">
        <ele>426</ele>
        <time>2022-09-26T13:39:04Z</time>
      </trkpt>
      <trkpt lat="48.14732" lon="6.42024">
        <ele>426</ele>
        <time>2022-09-26T13:39:05Z</time>
      </trkpt>
      <trkpt lat="48.14733" lon="6.42022">
        <ele>426</ele>
        <time>2022-09-26T13:39:06Z</time>
      </trkpt>
      <trkpt lat="48.14735" lon="6.4202">
        <ele>426</ele>
        <time>2022-09-26T13:39:07Z</time>
      </trkpt>
      <trkpt lat="48.14738" lon="6.42018">
        <ele>426</ele>
        <time>2022-09-26T13:39:08Z</time>
      </trkpt>
      <trkpt lat="48.1474" lon="6.42017">
        <ele>427</ele>
        <time>2022-09-26T13:39:09Z</time>
      </trkpt>
      <trkpt lat="48.14743" lon="6.42012">
        <ele>427</ele>
        <time>2022-09-26T13:39:10Z</time>
      </trkpt>
      <trkpt lat="48.14746" lon="6.42009">
        <ele>428</ele>
        <time>2022-09-26T13:39:11Z</time>
      </trkpt>
      <trkpt lat="48.14748" lon="6.42006">
        <ele>428</ele>
        <time>2022-09-26T13:39:12Z</time>
      </trkpt>
      <trkpt lat="48.1475" lon="6.42001">
        <ele>429</ele>
        <time>2022-09-26T13:39:13Z</time>
      </trkpt>
      <trkpt lat="48.14752" lon="6.41996">
        <ele>429</ele>
        <time>2022-09-26T13:39:14Z</time>
      </trkpt>
      <trkpt lat="48.14754" lon="6.41989">
        <ele>430</ele>
        <time>2022-09-26T13:39:15Z</time>
      </trkpt>
      <trkpt lat="48.14755" lon="6.41983">
        <ele>430</ele>
        <time>2022-09-26T13:39:16Z</time>
      </trkpt>
      <trkpt lat="48.14757" lon="6.4198">
        <ele>430</ele>
        <time>2022-09-26T13:39:17Z</time>
      </trkpt>
      <trkpt lat="48.14759" lon="6.41977">
        <ele>431</ele>
        <time>2022-09-26T13:39:18Z</time>
      </trkpt>
      <trkpt lat="48.1476" lon="6.41975">
        <ele>431</ele>
        <time>2022-09-26T13:39:19Z</time>
      </trkpt>
      <trkpt lat="48.14761" lon="6.41973">
        <ele>432</ele>
        <time>2022-09-26T13:39:20Z</time>
      </trkpt>
      <trkpt lat="48.14763" lon="6.41971">
        <ele>432</ele>
        <time>2022-09-26T13:39:21Z</time>
      </trkpt>
      <trkpt lat="48.14764" lon="6.41969">
        <ele>432</ele>
        <time>2022-09-26T13:39:22Z</time>
      </trkpt>
      <trkpt lat="48.14765" lon="6.41967">
        <ele>433</ele>
        <time>2022-09-26T13:39:23Z</time>
      </trkpt>
      <trkpt lat="48.14767" lon="6.41964">
        <ele>433</ele>
        <time>2022-09-26T13:39:24Z</time>
      </trkpt>
      <trkpt lat="48.14768" lon="6.41961">
        <ele>434</ele>
        <time>2022-09-26T13:39:25Z</time>
      </trkpt>
      <trkpt lat="48.1477" lon="6.4196">
        <ele>434</ele>
        <time>2022-09-26T13:39:26Z</time>
      </trkpt>
      <trkpt lat="48.14773" lon="6.41957">
        <ele>435</ele>
        <time>2022-09-26T13:39:27Z</time>
      </trkpt>
      <trkpt lat="48.14775" lon="6.41955">
        <ele>435</ele>
        <time>2022-09-26T13:39:28Z</time>
      </trkpt>
      <trkpt lat="48.14777" lon="6.41952">
        <ele>436</ele>
        <time>2022-09-26T13:39:29Z</time>
      </trkpt>
      <trkpt lat="48.14779" lon="6.41949">
        <ele>437</ele>
        <time>2022-09-26T13:39:30Z</time>
      </trkpt>
      <trkpt lat="48.14781" lon="6.41947">
        <ele>437</ele>
        <time>2022-09-26T13:39:31Z</time>
      </trkpt>
      <trkpt lat="48.14783" lon="6.41945">
        <ele>437</ele>
        <time>2022-09-26T13:39:32Z</time>
      </trkpt>
      <trkpt lat="48.14785" lon="6.41943">
        <ele>437</ele>
        <time>2022-09-26T13:39:33Z</time>
      </trkpt>
      <trkpt lat="48.14787" lon="6.41939">
        <ele>437</ele>
        <time>2022-09-26T13:39:34Z</time>
      </trkpt>
      <trkpt lat="48.14789" lon="6.41936">
        <ele>437</ele>
        <time>2022-09-26T13:39:35Z</time>
      </trkpt>
      <trkpt lat="48.1479" lon="6.41932">
        <ele>437</ele>
        <time>2022-09-26T13:39:36Z</time>
      </trkpt>
      <trkpt lat="48.14792" lon="6.41928">
        <ele>437</ele>
        <time>2022-09-26T13:39:37Z</time>
      </trkpt>
      <trkpt lat="48.14794" lon="6.41924">
        <ele>437</ele>
        <time>2022-09-26T13:39:38Z</time>
      </trkpt>
      <trkpt lat="48.14795" lon="6.41921">
        <ele>437</ele>
        <time>2022-09-26T13:39:39Z</time>
      </trkpt>
      <trkpt lat="48.14796" lon="6.41921">
        <ele>437</ele>
        <time>2022-09-26T13:39:40Z</time>
      </trkpt>
      <trkpt lat="48.14796" lon="6.41919">
        <ele>437</ele>
        <time>2022-09-26T13:39:41Z</time>
      </trkpt>
      <trkpt lat="48.14797" lon="6.41916">
        <ele>437</ele>
        <time>2022-09-26T13:39:42Z</time>
      </trkpt>
      <trkpt lat="48.14798" lon="6.41913">
        <ele>437</ele>
        <time>2022-09-26T13:39:43Z</time>
      </trkpt>
      <trkpt lat="48.14799" lon="6.41909">
        <ele>437</ele>
        <time>2022-09-26T13:39:44Z</time>
      </trkpt>
      <trkpt lat="48.14799" lon="6.41906">
        <ele>437</ele>
        <time>2022-09-26T13:39:45Z</time>
      </trkpt>
      <trkpt lat="48.14801" lon="6.41903">
        <ele>437</ele>
        <time>2022-09-26T13:39:46Z</time>
      </trkpt>
      <trkpt lat="48.14801" lon="6.41902">
        <ele>437</ele>
        <time>2022-09-26T13:39:47Z</time>
      </trkpt>
      <trkpt lat="48.14801" lon="6.41902">
        <ele>437</ele>
        <time>2022-09-26T13:39:48Z</time>
      </trkpt>
      <trkpt lat="48.14801" lon="6.41902">
        <ele>437</ele>
        <time>2022-09-26T13:39:49Z</time>
      </trkpt>
      <trkpt lat="48.14801" lon="6.41902">
        <ele>437</ele>
        <time>2022-09-26T13:39:50Z</time>
      </trkpt>
      <trkpt lat="48.14801" lon="6.41902">
        <ele>437</ele>
        <time>2022-09-26T13:39:51Z</time>
      </trkpt>
      <trkpt lat="48.14801" lon="6.41902">
        <ele>437</ele>
        <time>2022-09-26T13:39:52Z</time>
      </trkpt>
      <trkpt lat="48.14801" lon="6.41902">
        <ele>437</ele>
        <time>2022-09-26T13:39:53Z</time>
      </trkpt>
      <trkpt lat="48.14801" lon="6.41902">
        <ele>437</ele>
        <time>2022-09-26T13:39:54Z</time>
      </trkpt>
      <trkpt lat="48.14802" lon="6.41902">
        <ele>437</ele>
        <time>2022-09-26T13:39:55Z</time>
      </trkpt>
      <trkpt lat="48.14802" lon="6.41901">
        <ele>437</ele>
        <time>2022-09-26T13:39:56Z</time>
      </trkpt>
      <trkpt lat="48.14802" lon="6.41899">
        <ele>437</ele>
        <time>2022-09-26T13:39:57Z</time>
      </trkpt>
      <trkpt lat="48.14803" lon="6.41895">
        <ele>437</ele>
        <time>2022-09-26T13:39:58Z</time>
      </trkpt>
      <trkpt lat="48.14803" lon="6.41893">
        <ele>437</ele>
        <time>2022-09-26T13:39:59Z</time>
      </trkpt>
      <trkpt lat="48.14804" lon="6.41888">
        <ele>437</ele>
        <time>2022-09-26T13:40:00Z</time>
      </trkpt>
      <trkpt lat="48.14796" lon="6.41878">
        <ele>436</ele>
        <time>2022-09-26T13:40:09Z</time>
      </trkpt>
      <trkpt lat="48.14795" lon="6.41879">
        <ele>435</ele>
        <time>2022-09-26T13:40:10Z</time>
      </trkpt>
      <trkpt lat="48.14794" lon="6.41879">
        <ele>435</ele>
        <time>2022-09-26T13:40:11Z</time>
      </trkpt>
      <trkpt lat="48.14792" lon="6.41879">
        <ele>435</ele>
        <time>2022-09-26T13:40:12Z</time>
      </trkpt>
      <trkpt lat="48.14789" lon="6.41879">
        <ele>434</ele>
        <time>2022-09-26T13:40:13Z</time>
      </trkpt>
      <trkpt lat="48.14787" lon="6.41879">
        <ele>433</ele>
        <time>2022-09-26T13:40:14Z</time>
      </trkpt>
      <trkpt lat="48.14785" lon="6.41879">
        <ele>433</ele>
        <time>2022-09-26T13:40:15Z</time>
      </trkpt>
      <trkpt lat="48.14783" lon="6.4188">
        <ele>432</ele>
        <time>2022-09-26T13:40:16Z</time>
      </trkpt>
      <trkpt lat="48.14778" lon="6.41881">
        <ele>431</ele>
        <time>2022-09-26T13:40:17Z</time>
      </trkpt>
      <trkpt lat="48.14774" lon="6.4188">
        <ele>430</ele>
        <time>2022-09-26T13:40:18Z</time>
      </trkpt>
      <trkpt lat="48.14772" lon="6.41882">
        <ele>429</ele>
        <time>2022-09-26T13:40:19Z</time>
      </trkpt>
      <trkpt lat="48.14768" lon="6.41882">
        <ele>428</ele>
        <time>2022-09-26T13:40:20Z</time>
      </trkpt>
      <trkpt lat="48.14765" lon="6.41884">
        <ele>428</ele>
        <time>2022-09-26T13:40:21Z</time>
      </trkpt>
      <trkpt lat="48.14764" lon="6.41883">
        <ele>427</ele>
        <time>2022-09-26T13:40:22Z</time>
      </trkpt>
      <trkpt lat="48.14762" lon="6.41884">
        <ele>427</ele>
        <time>2022-09-26T13:40:23Z</time>
      </trkpt>
      <trkpt lat="48.14759" lon="6.41885">
        <ele>426</ele>
        <time>2022-09-26T13:40:24Z</time>
      </trkpt>
      <trkpt lat="48.14757" lon="6.41885">
        <ele>425</ele>
        <time>2022-09-26T13:40:25Z</time>
      </trkpt>
      <trkpt lat="48.14756" lon="6.41887">
        <ele>425</ele>
        <time>2022-09-26T13:40:26Z</time>
      </trkpt>
      <trkpt lat="48.14754" lon="6.41888">
        <ele>425</ele>
        <time>2022-09-26T13:40:27Z</time>
      </trkpt>
      <trkpt lat="48.14753" lon="6.41888">
        <ele>424</ele>
        <time>2022-09-26T13:40:28Z</time>
      </trkpt>
      <trkpt lat="48.14751" lon="6.41887">
        <ele>424</ele>
        <time>2022-09-26T13:40:29Z</time>
      </trkpt>
      <trkpt lat="48.14751" lon="6.41884">
        <ele>423</ele>
        <time>2022-09-26T13:40:30Z</time>
      </trkpt>
      <trkpt lat="48.1475" lon="6.41882">
        <ele>423</ele>
        <time>2022-09-26T13:40:31Z</time>
      </trkpt>
      <trkpt lat="48.14749" lon="6.41879">
        <ele>422</ele>
        <time>2022-09-26T13:40:32Z</time>
      </trkpt>
      <trkpt lat="48.14748" lon="6.41877">
        <ele>422</ele>
        <time>2022-09-26T13:40:33Z</time>
      </trkpt>
      <trkpt lat="48.14745" lon="6.41873">
        <ele>420</ele>
        <time>2022-09-26T13:40:34Z</time>
      </trkpt>
      <trkpt lat="48.14744" lon="6.41868">
        <ele>419</ele>
        <time>2022-09-26T13:40:35Z</time>
      </trkpt>
      <trkpt lat="48.14743" lon="6.41865">
        <ele>419</ele>
        <time>2022-09-26T13:40:36Z</time>
      </trkpt>
      <trkpt lat="48.14743" lon="6.41861">
        <ele>419</ele>
        <time>2022-09-26T13:40:37Z</time>
      </trkpt>
      <trkpt lat="48.14743" lon="6.41857">
        <ele>418</ele>
        <time>2022-09-26T13:40:38Z</time>
      </trkpt>
      <trkpt lat="48.14743" lon="6.41855">
        <ele>418</ele>
        <time>2022-09-26T13:40:39Z</time>
      </trkpt>
      <trkpt lat="48.14744" lon="6.41851">
        <ele>418</ele>
        <time>2022-09-26T13:40:40Z</time>
      </trkpt>
      <trkpt lat="48.14744" lon="6.41847">
        <ele>418</ele>
        <time>2022-09-26T13:40:41Z</time>
      </trkpt>
      <trkpt lat="48.14744" lon="6.41842">
        <ele>417</ele>
        <time>2022-09-26T13:40:42Z</time>
      </trkpt>
      <trkpt lat="48.14744" lon="6.41838">
        <ele>417</ele>
        <time>2022-09-26T13:40:43Z</time>
      </trkpt>
      <trkpt lat="48.14745" lon="6.41834">
        <ele>416</ele>
        <time>2022-09-26T13:40:44Z</time>
      </trkpt>
      <trkpt lat="48.14746" lon="6.41831">
        <ele>416</ele>
        <time>2022-09-26T13:40:45Z</time>
      </trkpt>
      <trkpt lat="48.14747" lon="6.41829">
        <ele>417</ele>
        <time>2022-09-26T13:40:46Z</time>
      </trkpt>
      <trkpt lat="48.14748" lon="6.41825">
        <ele>417</ele>
        <time>2022-09-26T13:40:47Z</time>
      </trkpt>
      <trkpt lat="48.14748" lon="6.41821">
        <ele>417</ele>
        <time>2022-09-26T13:40:48Z</time>
      </trkpt>
      <trkpt lat="48.14749" lon="6.41818">
        <ele>416</ele>
        <time>2022-09-26T13:40:49Z</time>
      </trkpt>
      <trkpt lat="48.14749" lon="6.41814">
        <ele>417</ele>
        <time>2022-09-26T13:40:50Z</time>
      </trkpt>
      <trkpt lat="48.14751" lon="6.41812">
        <ele>417</ele>
        <time>2022-09-26T13:40:51Z</time>
      </trkpt>
      <trkpt lat="48.14752" lon="6.4181">
        <ele>418</ele>
        <time>2022-09-26T13:40:52Z</time>
      </trkpt>
      <trkpt lat="48.14753" lon="6.41807">
        <ele>418</ele>
        <time>2022-09-26T13:40:53Z</time>
      </trkpt>
      <trkpt lat="48.14754" lon="6.41804">
        <ele>419</ele>
        <time>2022-09-26T13:40:54Z</time>
      </trkpt>
      <trkpt lat="48.14755" lon="6.418">
        <ele>419</ele>
        <time>2022-09-26T13:40:55Z</time>
      </trkpt>
      <trkpt lat="48.14756" lon="6.41796">
        <ele>419</ele>
        <time>2022-09-26T13:40:56Z</time>
      </trkpt>
      <trkpt lat="48.14756" lon="6.41793">
        <ele>419</ele>
        <time>2022-09-26T13:40:57Z</time>
      </trkpt>
      <trkpt lat="48.14756" lon="6.4179">
        <ele>419</ele>
        <time>2022-09-26T13:40:58Z</time>
      </trkpt>
      <trkpt lat="48.14757" lon="6.41787">
        <ele>420</ele>
        <time>2022-09-26T13:40:59Z</time>
      </trkpt>
      <trkpt lat="48.14758" lon="6.41784">
        <ele>420</ele>
        <time>2022-09-26T13:41:00Z</time>
      </trkpt>
      <trkpt lat="48.14759" lon="6.41781">
        <ele>421</ele>
        <time>2022-09-26T13:41:01Z</time>
      </trkpt>
      <trkpt lat="48.1476" lon="6.41778">
        <ele>421</ele>
        <time>2022-09-26T13:41:02Z</time>
      </trkpt>
      <trkpt lat="48.14761" lon="6.41775">
        <ele>422</ele>
        <time>2022-09-26T13:41:03Z</time>
      </trkpt>
      <trkpt lat="48.14761" lon="6.41772">
        <ele>422</ele>
        <time>2022-09-26T13:41:04Z</time>
      </trkpt>
      <trkpt lat="48.14761" lon="6.41769">
        <ele>422</ele>
        <time>2022-09-26T13:41:05Z</time>
      </trkpt>
      <trkpt lat="48.14761" lon="6.41765">
        <ele>422</ele>
        <time>2022-09-26T13:41:06Z</time>
      </trkpt>
      <trkpt lat="48.14762" lon="6.41762">
        <ele>422</ele>
        <time>2022-09-26T13:41:07Z</time>
      </trkpt>
      <trkpt lat="48.14762" lon="6.41759">
        <ele>422</ele>
        <time>2022-09-26T13:41:08Z</time>
      </trkpt>
      <trkpt lat="48.14762" lon="6.41757">
        <ele>423</ele>
        <time>2022-09-26T13:41:09Z</time>
      </trkpt>
      <trkpt lat="48.14762" lon="6.41754">
        <ele>423</ele>
        <time>2022-09-26T13:41:10Z</time>
      </trkpt>
      <trkpt lat="48.14763" lon="6.41751">
        <ele>423</ele>
        <time>2022-09-26T13:41:11Z</time>
      </trkpt>
      <trkpt lat="48.14763" lon="6.41747">
        <ele>423</ele>
        <time>2022-09-26T13:41:12Z</time>
      </trkpt>
      <trkpt lat="48.14763" lon="6.41744">
        <ele>423</ele>
        <time>2022-09-26T13:41:13Z</time>
      </trkpt>
      <trkpt lat="48.14763" lon="6.41741">
        <ele>423</ele>
        <time>2022-09-26T13:41:14Z</time>
      </trkpt>
      <trkpt lat="48.14763" lon="6.41737">
        <ele>423</ele>
        <time>2022-09-26T13:41:15Z</time>
      </trkpt>
      <trkpt lat="48.14762" lon="6.41733">
        <ele>423</ele>
        <time>2022-09-26T13:41:16Z</time>
      </trkpt>
      <trkpt lat="48.14762" lon="6.4173">
        <ele>423</ele>
        <time>2022-09-26T13:41:17Z</time>
      </trkpt>
      <trkpt lat="48.14762" lon="6.41726">
        <ele>423</ele>
        <time>2022-09-26T13:41:18Z</time>
      </trkpt>
      <trkpt lat="48.14762" lon="6.41722">
        <ele>423</ele>
        <time>2022-09-26T13:41:19Z</time>
      </trkpt>
      <trkpt lat="48.14762" lon="6.41718">
        <ele>424</ele>
        <time>2022-09-26T13:41:20Z</time>
      </trkpt>
      <trkpt lat="48.14761" lon="6.41713">
        <ele>424</ele>
        <time>2022-09-26T13:41:21Z</time>
      </trkpt>
      <trkpt lat="48.1476" lon="6.41709">
        <ele>424</ele>
        <time>2022-09-26T13:41:22Z</time>
      </trkpt>
      <trkpt lat="48.1476" lon="6.41706">
        <ele>424</ele>
        <time>2022-09-26T13:41:23Z</time>
      </trkpt>
      <trkpt lat="48.14759" lon="6.41702">
        <ele>424</ele>
        <time>2022-09-26T13:41:24Z</time>
      </trkpt>
      <trkpt lat="48.14758" lon="6.41698">
        <ele>424</ele>
        <time>2022-09-26T13:41:25Z</time>
      </trkpt>
      <trkpt lat="48.14757" lon="6.41694">
        <ele>424</ele>
        <time>2022-09-26T13:41:26Z</time>
      </trkpt>
      <trkpt lat="48.14757" lon="6.4169">
        <ele>424</ele>
        <time>2022-09-26T13:41:27Z</time>
      </trkpt>
      <trkpt lat="48.14757" lon="6.41688">
        <ele>424</ele>
        <time>2022-09-26T13:41:28Z</time>
      </trkpt>
      <trkpt lat="48.14756" lon="6.41685">
        <ele>424</ele>
        <time>2022-09-26T13:41:29Z</time>
      </trkpt>
      <trkpt lat="48.14756" lon="6.41681">
        <ele>424</ele>
        <time>2022-09-26T13:41:30Z</time>
      </trkpt>
      <trkpt lat="48.14756" lon="6.41678">
        <ele>424</ele>
        <time>2022-09-26T13:41:31Z</time>
      </trkpt>
      <trkpt lat="48.14756" lon="6.41674">
        <ele>424</ele>
        <time>2022-09-26T13:41:32Z</time>
      </trkpt>
      <trkpt lat="48.14756" lon="6.41671">
        <ele>424</ele>
        <time>2022-09-26T13:41:33Z</time>
      </trkpt>
      <trkpt lat="48.14756" lon="6.41667">
        <ele>424</ele>
        <time>2022-09-26T13:41:34Z</time>
      </trkpt>
      <trkpt lat="48.14755" lon="6.41663">
        <ele>424</ele>
        <time>2022-09-26T13:41:35Z</time>
      </trkpt>
      <trkpt lat="48.14755" lon="6.4166">
        <ele>424</ele>
        <time>2022-09-26T13:41:36Z</time>
      </trkpt>
      <trkpt lat="48.14755" lon="6.41655">
        <ele>424</ele>
        <time>2022-09-26T13:41:37Z</time>
      </trkpt>
      <trkpt lat="48.14755" lon="6.41652">
        <ele>424</ele>
        <time>2022-09-26T13:41:38Z</time>
      </trkpt>
      <trkpt lat="48.14755" lon="6.41649">
        <ele>424</ele>
        <time>2022-09-26T13:41:39Z</time>
      </trkpt>
      <trkpt lat="48.14755" lon="6.41647">
        <ele>424</ele>
        <time>2022-09-26T13:41:40Z</time>
      </trkpt>
      <trkpt lat="48.14756" lon="6.41644">
        <ele>424</ele>
        <time>2022-09-26T13:41:41Z</time>
      </trkpt>
      <trkpt lat="48.14756" lon="6.41642">
        <ele>424</ele>
        <time>2022-09-26T13:41:42Z</time>
      </trkpt>
      <trkpt lat="48.14756" lon="6.41638">
        <ele>424</ele>
        <time>2022-09-26T13:41:43Z</time>
      </trkpt>
      <trkpt lat="48.14757" lon="6.41636">
        <ele>424</ele>
        <time>2022-09-26T13:41:44Z</time>
      </trkpt>
      <trkpt lat="48.14757" lon="6.41633">
        <ele>424</ele>
        <time>2022-09-26T13:41:45Z</time>
      </trkpt>
      <trkpt lat="48.14757" lon="6.4163">
        <ele>424</ele>
        <time>2022-09-26T13:41:46Z</time>
      </trkpt>
      <trkpt lat="48.14757" lon="6.41626">
        <ele>425</ele>
        <time>2022-09-26T13:41:47Z</time>
      </trkpt>
      <trkpt lat="48.14758" lon="6.41623">
        <ele>425</ele>
        <time>2022-09-26T13:41:48Z</time>
      </trkpt>
      <trkpt lat="48.1476" lon="6.4162">
        <ele>425</ele>
        <time>2022-09-26T13:41:49Z</time>
      </trkpt>
      <trkpt lat="48.14761" lon="6.41618">
        <ele>426</ele>
        <time>2022-09-26T13:41:50Z</time>
      </trkpt>
      <trkpt lat="48.14763" lon="6.41616">
        <ele>426</ele>
        <time>2022-09-26T13:41:51Z</time>
      </trkpt>
      <trkpt lat="48.14765" lon="6.41614">
        <ele>427</ele>
        <time>2022-09-26T13:41:52Z</time>
      </trkpt>
      <trkpt lat="48.14766" lon="6.4162">
        <ele>427</ele>
        <time>2022-09-26T13:41:53Z</time>
      </trkpt>
      <trkpt lat="48.14768" lon="6.41615">
        <ele>428</ele>
        <time>2022-09-26T13:41:54Z</time>
      </trkpt>
      <trkpt lat="48.14769" lon="6.4161">
        <ele>428</ele>
        <time>2022-09-26T13:41:55Z</time>
      </trkpt>
      <trkpt lat="48.1477" lon="6.41608">
        <ele>428</ele>
        <time>2022-09-26T13:41:56Z</time>
      </trkpt>
      <trkpt lat="48.14772" lon="6.41606">
        <ele>429</ele>
        <time>2022-09-26T13:41:57Z</time>
      </trkpt>
      <trkpt lat="48.14774" lon="6.41605">
        <ele>429</ele>
        <time>2022-09-26T13:41:58Z</time>
      </trkpt>
      <trkpt lat="48.14774" lon="6.41604">
        <ele>429</ele>
        <time>2022-09-26T13:41:59Z</time>
      </trkpt>
      <trkpt lat="48.14775" lon="6.41601">
        <ele>429</ele>
        <time>2022-09-26T13:42:00Z</time>
      </trkpt>
      <trkpt lat="48.14776" lon="6.41598">
        <ele>429</ele>
        <time>2022-09-26T13:42:01Z</time>
      </trkpt>
      <trkpt lat="48.14777" lon="6.41597">
        <ele>429</ele>
        <time>2022-09-26T13:42:02Z</time>
      </trkpt>
      <trkpt lat="48.14778" lon="6.41596">
        <ele>429</ele>
        <time>2022-09-26T13:42:03Z</time>
      </trkpt>
      <trkpt lat="48.14778" lon="6.41596">
        <ele>429</ele>
        <time>2022-09-26T13:42:04Z</time>
      </trkpt>
      <trkpt lat="48.14778" lon="6.41595">
        <ele>429</ele>
        <time>2022-09-26T13:42:05Z</time>
      </trkpt>
      <trkpt lat="48.14777" lon="6.41595">
        <ele>429</ele>
        <time>2022-09-26T13:42:06Z</time>
      </trkpt>
      <trkpt lat="48.14777" lon="6.41594">
        <ele>429</ele>
        <time>2022-09-26T13:42:07Z</time>
      </trkpt>
      <trkpt lat="48.14776" lon="6.41593">
        <ele>429</ele>
        <time>2022-09-26T13:42:08Z</time>
      </trkpt>
      <trkpt lat="48.14776" lon="6.41593">
        <ele>429</ele>
        <time>2022-09-26T13:42:09Z</time>
      </trkpt>
      <trkpt lat="48.14776" lon="6.41593">
        <ele>429</ele>
        <time>2022-09-26T13:42:10Z</time>
      </trkpt>
      <trkpt lat="48.14776" lon="6.41593">
        <ele>429</ele>
        <time>2022-09-26T13:42:11Z</time>
      </trkpt>
      <trkpt lat="48.14776" lon="6.41592">
        <ele>429</ele>
        <time>2022-09-26T13:42:12Z</time>
      </trkpt>
      <trkpt lat="48.14776" lon="6.41592">
        <ele>429</ele>
        <time>2022-09-26T13:42:13Z</time>
      </trkpt>
      <trkpt lat="48.14776" lon="6.41592">
        <ele>429</ele>
        <time>2022-09-26T13:42:14Z</time>
      </trkpt>
      <trkpt lat="48.14776" lon="6.41592">
        <ele>429</ele>
        <time>2022-09-26T13:42:15Z</time>
      </trkpt>
      <trkpt lat="48.14776" lon="6.41592">
        <ele>429</ele>
        <time>2022-09-26T13:42:16Z</time>
      </trkpt>
      <trkpt lat="48.14776" lon="6.41592">
        <ele>429</ele>
        <time>2022-09-26T13:42:17Z</time>
      </trkpt>
      <trkpt lat="48.14777" lon="6.41591">
        <ele>429</ele>
        <time>2022-09-26T13:42:18Z</time>
      </trkpt>
      <trkpt lat="48.14785" lon="6.41559">
        <ele>427</ele>
        <time>2022-09-26T13:42:46Z</time>
      </trkpt>
      <trkpt lat="48.14785" lon="6.41556">
        <ele>427</ele>
        <time>2022-09-26T13:42:47Z</time>
      </trkpt>
      <trkpt lat="48.14784" lon="6.41555">
        <ele>427</ele>
        <time>2022-09-26T13:42:48Z</time>
      </trkpt>
      <trkpt lat="48.14784" lon="6.41554">
        <ele>426</ele>
        <time>2022-09-26T13:42:49Z</time>
      </trkpt>
      <trkpt lat="48.14784" lon="6.41553">
        <ele>426</ele>
        <time>2022-09-26T13:42:50Z</time>
      </trkpt>
      <trkpt lat="48.14783" lon="6.41552">
        <ele>426</ele>
        <time>2022-09-26T13:42:51Z</time>
      </trkpt>
      <trkpt lat="48.14782" lon="6.41549">
        <ele>425</ele>
        <time>2022-09-26T13:42:52Z</time>
      </trkpt>
      <trkpt lat="48.14781" lon="6.41547">
        <ele>425</ele>
        <time>2022-09-26T13:42:53Z</time>
      </trkpt>
      <trkpt lat="48.1478" lon="6.41545">
        <ele>424</ele>
        <time>2022-09-26T13:42:54Z</time>
      </trkpt>
      <trkpt lat="48.14781" lon="6.41541">
        <ele>424</ele>
        <time>2022-09-26T13:42:55Z</time>
      </trkpt>
      <trkpt lat="48.14781" lon="6.41541">
        <ele>424</ele>
        <time>2022-09-26T13:42:56Z</time>
      </trkpt>
      <trkpt lat="48.14781" lon="6.4154">
        <ele>424</ele>
        <time>2022-09-26T13:42:57Z</time>
      </trkpt>
      <trkpt lat="48.14781" lon="6.4154">
        <ele>424</ele>
        <time>2022-09-26T13:42:58Z</time>
      </trkpt>
      <trkpt lat="48.14781" lon="6.4154">
        <ele>424</ele>
        <time>2022-09-26T13:42:59Z</time>
      </trkpt>
      <trkpt lat="48.14781" lon="6.4154">
        <ele>424</ele>
        <time>2022-09-26T13:43:00Z</time>
      </trkpt>
      <trkpt lat="48.14781" lon="6.4154">
        <ele>424</ele>
        <time>2022-09-26T13:43:01Z</time>
      </trkpt>
      <trkpt lat="48.14781" lon="6.4154">
        <ele>424</ele>
        <time>2022-09-26T13:43:03Z</time>
      </trkpt>
      <trkpt lat="48.1478" lon="6.41539">
        <ele>424</ele>
        <time>2022-09-26T13:43:04Z</time>
      </trkpt>
      <trkpt lat="48.1478" lon="6.41538">
        <ele>423</ele>
        <time>2022-09-26T13:43:05Z</time>
      </trkpt>
      <trkpt lat="48.1478" lon="6.41537">
        <ele>423</ele>
        <time>2022-09-26T13:43:06Z</time>
      </trkpt>
      <trkpt lat="48.1478" lon="6.41536">
        <ele>423</ele>
        <time>2022-09-26T13:43:07Z</time>
      </trkpt>
      <trkpt lat="48.14779" lon="6.41535">
        <ele>423</ele>
        <time>2022-09-26T13:43:08Z</time>
      </trkpt>
      <trkpt lat="48.14778" lon="6.41533">
        <ele>422</ele>
        <time>2022-09-26T13:43:09Z</time>
      </trkpt>
      <trkpt lat="48.14777" lon="6.41529">
        <ele>421</ele>
        <time>2022-09-26T13:43:10Z</time>
      </trkpt>
      <trkpt lat="48.14775" lon="6.41526">
        <ele>421</ele>
        <time>2022-09-26T13:43:11Z</time>
      </trkpt>
      <trkpt lat="48.14773" lon="6.41523">
        <ele>421</ele>
        <time>2022-09-26T13:43:12Z</time>
      </trkpt>
      <trkpt lat="48.14772" lon="6.4152">
        <ele>421</ele>
        <time>2022-09-26T13:43:13Z</time>
      </trkpt>
      <trkpt lat="48.14771" lon="6.41518">
        <ele>421</ele>
        <time>2022-09-26T13:43:14Z</time>
      </trkpt>
      <trkpt lat="48.14771" lon="6.41518">
        <ele>420</ele>
        <time>2022-09-26T13:43:15Z</time>
      </trkpt>
      <trkpt lat="48.14775" lon="6.4152">
        <ele>421</ele>
        <time>2022-09-26T13:43:16Z</time>
      </trkpt>
      <trkpt lat="48.14777" lon="6.41518">
        <ele>422</ele>
        <time>2022-09-26T13:43:17Z</time>
      </trkpt>
      <trkpt lat="48.14779" lon="6.41517">
        <ele>422</ele>
        <time>2022-09-26T13:43:18Z</time>
      </trkpt>
      <trkpt lat="48.14779" lon="6.41517">
        <ele>422</ele>
        <time>2022-09-26T13:43:19Z</time>
      </trkpt>
      <trkpt lat="48.1478" lon="6.41517">
        <ele>423</ele>
        <time>2022-09-26T13:43:20Z</time>
      </trkpt>
      <trkpt lat="48.14781" lon="6.41517">
        <ele>423</ele>
        <time>2022-09-26T13:43:21Z</time>
      </trkpt>
      <trkpt lat="48.14782" lon="6.41517">
        <ele>423</ele>
        <time>2022-09-26T13:43:22Z</time>
      </trkpt>
      <trkpt lat="48.1478" lon="6.41521">
        <ele>423</ele>
        <time>2022-09-26T13:43:23Z</time>
      </trkpt>
      <trkpt lat="48.14778" lon="6.41525">
        <ele>422</ele>
        <time>2022-09-26T13:43:24Z</time>
      </trkpt>
      <trkpt lat="48.14778" lon="6.41525">
        <ele>422</ele>
        <time>2022-09-26T13:43:25Z</time>
      </trkpt>
      <trkpt lat="48.14778" lon="6.41525">
        <ele>422</ele>
        <time>2022-09-26T13:43:26Z</time>
      </trkpt>
      <trkpt lat="48.14777" lon="6.41525">
        <ele>421</ele>
        <time>2022-09-26T13:43:27Z</time>
      </trkpt>
      <trkpt lat="48.14778" lon="6.41524">
        <ele>422</ele>
        <time>2022-09-26T13:43:28Z</time>
      </trkpt>
      <trkpt lat="48.14778" lon="6.41523">
        <ele>422</ele>
        <time>2022-09-26T13:43:30Z</time>
      </trkpt>
      <trkpt lat="48.14762" lon="6.41495">
        <ele>420</ele>
        <time>2022-09-26T13:55:03Z</time>
      </trkpt>
      <trkpt lat="48.1476" lon="6.41492">
        <ele>420</ele>
        <time>2022-09-26T13:55:04Z</time>
      </trkpt>
      <trkpt lat="48.14758" lon="6.41491">
        <ele>420</ele>
        <time>2022-09-26T13:55:05Z</time>
      </trkpt>
      <trkpt lat="48.14756" lon="6.41488">
        <ele>420</ele>
        <time>2022-09-26T13:55:06Z</time>
      </trkpt>
      <trkpt lat="48.14755" lon="6.41485">
        <ele>420</ele>
        <time>2022-09-26T13:55:07Z</time>
      </trkpt>
      <trkpt lat="48.14753" lon="6.41483">
        <ele>420</ele>
        <time>2022-09-26T13:55:08Z</time>
      </trkpt>
      <trkpt lat="48.14752" lon="6.41481">
        <ele>420</ele>
        <time>2022-09-26T13:55:09Z</time>
      </trkpt>
      <trkpt lat="48.14751" lon="6.41478">
        <ele>420</ele>
        <time>2022-09-26T13:55:10Z</time>
      </trkpt>
      <trkpt lat="48.1475" lon="6.41475">
        <ele>420</ele>
        <time>2022-09-26T13:55:11Z</time>
      </trkpt>
      <trkpt lat="48.14749" lon="6.41472">
        <ele>420</ele>
        <time>2022-09-26T13:55:12Z</time>
      </trkpt>
      <trkpt lat="48.14748" lon="6.41471">
        <ele>421</ele>
        <time>2022-09-26T13:55:13Z</time>
      </trkpt>
      <trkpt lat="48.14748" lon="6.4147">
        <ele>421</ele>
        <time>2022-09-26T13:55:14Z</time>
      </trkpt>
      <trkpt lat="48.14747" lon="6.41469">
        <ele>421</ele>
        <time>2022-09-26T13:55:15Z</time>
      </trkpt>
      <trkpt lat="48.14746" lon="6.41467">
        <ele>421</ele>
        <time>2022-09-26T13:55:16Z</time>
      </trkpt>
      <trkpt lat="48.14745" lon="6.41466">
        <ele>421</ele>
        <time>2022-09-26T13:55:17Z</time>
      </trkpt>
      <trkpt lat="48.14745" lon="6.41463">
        <ele>421</ele>
        <time>2022-09-26T13:55:18Z</time>
      </trkpt>
      <trkpt lat="48.14745" lon="6.4146">
        <ele>421</ele>
        <time>2022-09-26T13:55:19Z</time>
      </trkpt>
      <trkpt lat="48.14745" lon="6.41457">
        <ele>421</ele>
        <time>2022-09-26T13:55:20Z</time>
      </trkpt>
      <trkpt lat="48.14745" lon="6.41454">
        <ele>422</ele>
        <time>2022-09-26T13:55:21Z</time>
      </trkpt>
      <trkpt lat="48.14745" lon="6.41451">
        <ele>422</ele>
        <time>2022-09-26T13:55:22Z</time>
      </trkpt>
      <trkpt lat="48.14743" lon="6.41447">
        <ele>422</ele>
        <time>2022-09-26T13:55:23Z</time>
      </trkpt>
      <trkpt lat="48.14742" lon="6.41444">
        <ele>422</ele>
        <time>2022-09-26T13:55:24Z</time>
      </trkpt>
      <trkpt lat="48.14741" lon="6.41441">
        <ele>422</ele>
        <time>2022-09-26T13:55:25Z</time>
      </trkpt>
      <trkpt lat="48.14741" lon="6.41439">
        <ele>422</ele>
        <time>2022-09-26T13:55:26Z</time>
      </trkpt>
      <trkpt lat="48.1474" lon="6.41435">
        <ele>422</ele>
        <time>2022-09-26T13:55:27Z</time>
      </trkpt>
      <trkpt lat="48.14739" lon="6.41432">
        <ele>422</ele>
        <time>2022-09-26T13:55:28Z</time>
      </trkpt>
      <trkpt lat="48.14738" lon="6.41429">
        <ele>422</ele>
        <time>2022-09-26T13:55:29Z</time>
      </trkpt>
      <trkpt lat="48.14736" lon="6.41426">
        <ele>422</ele>
        <time>2022-09-26T13:55:30Z</time>
      </trkpt>
      <trkpt lat="48.14735" lon="6.41423">
        <ele>422</ele>
        <time>2022-09-26T13:55:31Z</time>
      </trkpt>
      <trkpt lat="48.14735" lon="6.4142">
        <ele>422</ele>
        <time>2022-09-26T13:55:32Z</time>
      </trkpt>
      <trkpt lat="48.14735" lon="6.41417">
        <ele>422</ele>
        <time>2022-09-26T13:55:33Z</time>
      </trkpt>
      <trkpt lat="48.14735" lon="6.41415">
        <ele>422</ele>
        <time>2022-09-26T13:55:34Z</time>
      </trkpt>
      <trkpt lat="48.14735" lon="6.41414">
        <ele>423</ele>
        <time>2022-09-26T13:55:35Z</time>
      </trkpt>
      <trkpt lat="48.14736" lon="6.41412">
        <ele>423</ele>
        <time>2022-09-26T13:55:36Z</time>
      </trkpt>
      <trkpt lat="48.14736" lon="6.41411">
        <ele>423</ele>
        <time>2022-09-26T13:55:37Z</time>
      </trkpt>
      <trkpt lat="48.14736" lon="6.41409">
        <ele>423</ele>
        <time>2022-09-26T13:55:38Z</time>
      </trkpt>
      <trkpt lat="48.14736" lon="6.41408">
        <ele>423</ele>
        <time>2022-09-26T13:55:39Z</time>
      </trkpt>
      <trkpt lat="48.14736" lon="6.41405">
        <ele>423</ele>
        <time>2022-09-26T13:55:40Z</time>
      </trkpt>
      <trkpt lat="48.14735" lon="6.41403">
        <ele>423</ele>
        <time>2022-09-26T13:55:41Z</time>
      </trkpt>
      <trkpt lat="48.14735" lon="6.414">
        <ele>423</ele>
        <time>2022-09-26T13:55:42Z</time>
      </trkpt>
      <trkpt lat="48.14735" lon="6.41396">
        <ele>424</ele>
        <time>2022-09-26T13:55:43Z</time>
      </trkpt>
      <trkpt lat="48.14736" lon="6.41393">
        <ele>424</ele>
        <time>2022-09-26T13:55:44Z</time>
      </trkpt>
      <trkpt lat="48.14736" lon="6.4139">
        <ele>424</ele>
        <time>2022-09-26T13:55:45Z</time>
      </trkpt>
      <trkpt lat="48.14736" lon="6.41388">
        <ele>424</ele>
        <time>2022-09-26T13:55:46Z</time>
      </trkpt>
      <trkpt lat="48.14737" lon="6.41384">
        <ele>424</ele>
        <time>2022-09-26T13:55:47Z</time>
      </trkpt>
      <trkpt lat="48.14738" lon="6.41381">
        <ele>424</ele>
        <time>2022-09-26T13:55:48Z</time>
      </trkpt>
      <trkpt lat="48.14739" lon="6.41377">
        <ele>425</ele>
        <time>2022-09-26T13:55:49Z</time>
      </trkpt>
      <trkpt lat="48.14739" lon="6.41373">
        <ele>425</ele>
        <time>2022-09-26T13:55:50Z</time>
      </trkpt>
      <trkpt lat="48.1474" lon="6.4137">
        <ele>425</ele>
        <time>2022-09-26T13:55:51Z</time>
      </trkpt>
      <trkpt lat="48.1474" lon="6.41366">
        <ele>425</ele>
        <time>2022-09-26T13:55:52Z</time>
      </trkpt>
      <trkpt lat="48.1474" lon="6.41363">
        <ele>425</ele>
        <time>2022-09-26T13:55:53Z</time>
      </trkpt>
      <trkpt lat="48.14741" lon="6.4136">
        <ele>425</ele>
        <time>2022-09-26T13:55:54Z</time>
      </trkpt>
      <trkpt lat="48.14741" lon="6.41357">
        <ele>425</ele>
        <time>2022-09-26T13:55:55Z</time>
      </trkpt>
      <trkpt lat="48.14742" lon="6.41355">
        <ele>426</ele>
        <time>2022-09-26T13:55:56Z</time>
      </trkpt>
      <trkpt lat="48.14742" lon="6.41351">
        <ele>426</ele>
        <time>2022-09-26T13:55:57Z</time>
      </trkpt>
      <trkpt lat="48.14742" lon="6.41347">
        <ele>426</ele>
        <time>2022-09-26T13:55:58Z</time>
      </trkpt>
      <trkpt lat="48.14743" lon="6.41343">
        <ele>426</ele>
        <time>2022-09-26T13:55:59Z</time>
      </trkpt>
      <trkpt lat="48.14743" lon="6.41339">
        <ele>427</ele>
        <time>2022-09-26T13:56:00Z</time>
      </trkpt>
      <trkpt lat="48.14743" lon="6.41336">
        <ele>427</ele>
        <time>2022-09-26T13:56:01Z</time>
      </trkpt>
      <trkpt lat="48.14744" lon="6.41332">
        <ele>427</ele>
        <time>2022-09-26T13:56:02Z</time>
      </trkpt>
      <trkpt lat="48.14744" lon="6.41328">
        <ele>428</ele>
        <time>2022-09-26T13:56:03Z</time>
      </trkpt>
      <trkpt lat="48.14744" lon="6.41324">
        <ele>428</ele>
        <time>2022-09-26T13:56:04Z</time>
      </trkpt>
      <trkpt lat="48.14743" lon="6.41321">
        <ele>428</ele>
        <time>2022-09-26T13:56:05Z</time>
      </trkpt>
      <trkpt lat="48.14742" lon="6.41319">
        <ele>428</ele>
        <time>2022-09-26T13:56:06Z</time>
      </trkpt>
      <trkpt lat="48.1474" lon="6.41316">
        <ele>428</ele>
        <time>2022-09-26T13:56:07Z</time>
      </trkpt>
      <trkpt lat="48.14739" lon="6.41314">
        <ele>428</ele>
        <time>2022-09-26T13:56:08Z</time>
      </trkpt>
      <trkpt lat="48.14737" lon="6.41311">
        <ele>429</ele>
        <time>2022-09-26T13:56:09Z</time>
      </trkpt>
      <trkpt lat="48.14736" lon="6.41308">
        <ele>429</ele>
        <time>2022-09-26T13:56:10Z</time>
      </trkpt>
      <trkpt lat="48.14734" lon="6.41305">
        <ele>429</ele>
        <time>2022-09-26T13:56:11Z</time>
      </trkpt>
      <trkpt lat="48.14733" lon="6.41302">
        <ele>429</ele>
        <time>2022-09-26T13:56:12Z</time>
      </trkpt>
      <trkpt lat="48.14732" lon="6.41299">
        <ele>429</ele>
        <time>2022-09-26T13:56:13Z</time>
      </trkpt>
      <trkpt lat="48.1473" lon="6.41297">
        <ele>430</ele>
        <time>2022-09-26T13:56:14Z</time>
      </trkpt>
      <trkpt lat="48.14728" lon="6.41293">
        <ele>430</ele>
        <time>2022-09-26T13:56:15Z</time>
      </trkpt>
      <trkpt lat="48.14727" lon="6.4129">
        <ele>430</ele>
        <time>2022-09-26T13:56:16Z</time>
      </trkpt>
      <trkpt lat="48.14726" lon="6.41287">
        <ele>430</ele>
        <time>2022-09-26T13:56:17Z</time>
      </trkpt>
      <trkpt lat="48.14725" lon="6.41283">
        <ele>431</ele>
        <time>2022-09-26T13:56:18Z</time>
      </trkpt>
      <trkpt lat="48.14724" lon="6.41279">
        <ele>431</ele>
        <time>2022-09-26T13:56:19Z</time>
      </trkpt>
      <trkpt lat="48.14723" lon="6.41276">
        <ele>432</ele>
        <time>2022-09-26T13:56:20Z</time>
      </trkpt>
      <trkpt lat="48.14722" lon="6.4127">
        <ele>433</ele>
        <time>2022-09-26T13:56:21Z</time>
      </trkpt>
      <trkpt lat="48.1472" lon="6.41266">
        <ele>433</ele>
        <time>2022-09-26T13:56:22Z</time>
      </trkpt>
      <trkpt lat="48.14719" lon="6.41262">
        <ele>434</ele>
        <time>2022-09-26T13:56:23Z</time>
      </trkpt>
      <trkpt lat="48.14718" lon="6.41257">
        <ele>434</ele>
        <time>2022-09-26T13:56:24Z</time>
      </trkpt>
      <trkpt lat="48.14717" lon="6.41253">
        <ele>435</ele>
        <time>2022-09-26T13:56:25Z</time>
      </trkpt>
      <trkpt lat="48.14717" lon="6.41249">
        <ele>435</ele>
        <time>2022-09-26T13:56:26Z</time>
      </trkpt>
      <trkpt lat="48.14718" lon="6.41245">
        <ele>435</ele>
        <time>2022-09-26T13:56:27Z</time>
      </trkpt>
      <trkpt lat="48.14718" lon="6.41242">
        <ele>435</ele>
        <time>2022-09-26T13:56:28Z</time>
      </trkpt>
      <trkpt lat="48.14717" lon="6.41239">
        <ele>436</ele>
        <time>2022-09-26T13:56:29Z</time>
      </trkpt>
      <trkpt lat="48.14716" lon="6.41236">
        <ele>436</ele>
        <time>2022-09-26T13:56:30Z</time>
      </trkpt>
      <trkpt lat="48.14715" lon="6.41233">
        <ele>436</ele>
        <time>2022-09-26T13:56:31Z</time>
      </trkpt>
      <trkpt lat="48.14715" lon="6.41231">
        <ele>436</ele>
        <time>2022-09-26T13:56:32Z</time>
      </trkpt>
      <trkpt lat="48.14715" lon="6.4123">
        <ele>436</ele>
        <time>2022-09-26T13:56:33Z</time>
      </trkpt>
      <trkpt lat="48.14715" lon="6.41227">
        <ele>436</ele>
        <time>2022-09-26T13:56:34Z</time>
      </trkpt>
      <trkpt lat="48.14713" lon="6.41222">
        <ele>436</ele>
        <time>2022-09-26T13:56:35Z</time>
      </trkpt>
      <trkpt lat="48.14711" lon="6.41217">
        <ele>436</ele>
        <time>2022-09-26T13:56:36Z</time>
      </trkpt>
      <trkpt lat="48.14709" lon="6.41212">
        <ele>436</ele>
        <time>2022-09-26T13:56:37Z</time>
      </trkpt>
      <trkpt lat="48.14708" lon="6.41206">
        <ele>436</ele>
        <time>2022-09-26T13:56:38Z</time>
      </trkpt>
      <trkpt lat="48.14707" lon="6.41202">
        <ele>436</ele>
        <time>2022-09-26T13:56:39Z</time>
      </trkpt>
      <trkpt lat="48.14706" lon="6.41198">
        <ele>437</ele>
        <time>2022-09-26T13:56:40Z</time>
      </trkpt>
      <trkpt lat="48.14704" lon="6.41195">
        <ele>437</ele>
        <time>2022-09-26T13:56:41Z</time>
      </trkpt>
      <trkpt lat="48.14702" lon="6.41193">
        <ele>436</ele>
        <time>2022-09-26T13:56:42Z</time>
      </trkpt>
      <trkpt lat="48.14701" lon="6.41192">
        <ele>436</ele>
        <time>2022-09-26T13:56:43Z</time>
      </trkpt>
      <trkpt lat="48.14699" lon="6.41192">
        <ele>436</ele>
        <time>2022-09-26T13:56:44Z</time>
      </trkpt>
      <trkpt lat="48.14697" lon="6.41191">
        <ele>436</ele>
        <time>2022-09-26T13:56:45Z</time>
      </trkpt>
      <trkpt lat="48.14694" lon="6.4119">
        <ele>436</ele>
        <time>2022-09-26T13:56:46Z</time>
      </trkpt>
      <trkpt lat="48.14693" lon="6.41185">
        <ele>436</ele>
        <time>2022-09-26T13:56:47Z</time>
      </trkpt>
      <trkpt lat="48.14691" lon="6.41182">
        <ele>436</ele>
        <time>2022-09-26T13:56:48Z</time>
      </trkpt>
      <trkpt lat="48.14691" lon="6.41179">
        <ele>437</ele>
        <time>2022-09-26T13:56:49Z</time>
      </trkpt>
      <trkpt lat="48.1469" lon="6.41176">
        <ele>437</ele>
        <time>2022-09-26T13:56:50Z</time>
      </trkpt>
      <trkpt lat="48.1469" lon="6.41174">
        <ele>437</ele>
        <time>2022-09-26T13:56:51Z</time>
      </trkpt>
      <trkpt lat="48.1469" lon="6.4117">
        <ele>437</ele>
        <time>2022-09-26T13:56:52Z</time>
      </trkpt>
      <trkpt lat="48.14691" lon="6.41168">
        <ele>437</ele>
        <time>2022-09-26T13:56:53Z</time>
      </trkpt>
      <trkpt lat="48.14691" lon="6.41165">
        <ele>437</ele>
        <time>2022-09-26T13:56:54Z</time>
      </trkpt>
      <trkpt lat="48.14691" lon="6.41163">
        <ele>437</ele>
        <time>2022-09-26T13:56:55Z</time>
      </trkpt>
      <trkpt lat="48.14691" lon="6.41161">
        <ele>437</ele>
        <time>2022-09-26T13:56:56Z</time>
      </trkpt>
      <trkpt lat="48.1469" lon="6.41159">
        <ele>437</ele>
        <time>2022-09-26T13:56:57Z</time>
      </trkpt>
      <trkpt lat="48.1469" lon="6.41157">
        <ele>437</ele>
        <time>2022-09-26T13:56:58Z</time>
      </trkpt>
      <trkpt lat="48.1469" lon="6.41155">
        <ele>437</ele>
        <time>2022-09-26T13:56:59Z</time>
      </trkpt>
      <trkpt lat="48.1469" lon="6.41153">
        <ele>437</ele>
        <time>2022-09-26T13:57:00Z</time>
      </trkpt>
      <trkpt lat="48.1469" lon="6.41151">
        <ele>437</ele>
        <time>2022-09-26T13:57:01Z</time>
      </trkpt>
      <trkpt lat="48.1469" lon="6.41148">
        <ele>438</ele>
        <time>2022-09-26T13:57:02Z</time>
      </trkpt>
      <trkpt lat="48.1469" lon="6.41146">
        <ele>438</ele>
        <time>2022-09-26T13:57:03Z</time>
      </trkpt>
      <trkpt lat="48.1469" lon="6.41144">
        <ele>438</ele>
        <time>2022-09-26T13:57:04Z</time>
      </trkpt>
      <trkpt lat="48.14689" lon="6.41141">
        <ele>438</ele>
        <time>2022-09-26T13:57:05Z</time>
      </trkpt>
      <trkpt lat="48.14689" lon="6.41138">
        <ele>438</ele>
        <time>2022-09-26T13:57:06Z</time>
      </trkpt>
      <trkpt lat="48.14688" lon="6.41136">
        <ele>438</ele>
        <time>2022-09-26T13:57:07Z</time>
      </trkpt>
      <trkpt lat="48.14687" lon="6.41133">
        <ele>438</ele>
        <time>2022-09-26T13:57:08Z</time>
      </trkpt>
      <trkpt lat="48.14686" lon="6.4113">
        <ele>438</ele>
        <time>2022-09-26T13:57:09Z</time>
      </trkpt>
      <trkpt lat="48.14686" lon="6.41127">
        <ele>438</ele>
        <time>2022-09-26T13:57:10Z</time>
      </trkpt>
      <trkpt lat="48.14685" lon="6.41125">
        <ele>438</ele>
        <time>2022-09-26T13:57:11Z</time>
      </trkpt>
      <trkpt lat="48.14685" lon="6.41122">
        <ele>439</ele>
        <time>2022-09-26T13:57:12Z</time>
      </trkpt>
      <trkpt lat="48.14685" lon="6.4112">
        <ele>439</ele>
        <time>2022-09-26T13:57:13Z</time>
      </trkpt>
      <trkpt lat="48.14684" lon="6.41118">
        <ele>439</ele>
        <time>2022-09-26T13:57:14Z</time>
      </trkpt>
      <trkpt lat="48.14685" lon="6.41116">
        <ele>439</ele>
        <time>2022-09-26T13:57:15Z</time>
      </trkpt>
      <trkpt lat="48.14684" lon="6.41113">
        <ele>439</ele>
        <time>2022-09-26T13:57:16Z</time>
      </trkpt>
      <trkpt lat="48.14684" lon="6.4111">
        <ele>439</ele>
        <time>2022-09-26T13:57:17Z</time>
      </trkpt>
      <trkpt lat="48.14684" lon="6.41107">
        <ele>439</ele>
        <time>2022-09-26T13:57:18Z</time>
      </trkpt>
      <trkpt lat="48.14684" lon="6.41104">
        <ele>439</ele>
        <time>2022-09-26T13:57:19Z</time>
      </trkpt>
      <trkpt lat="48.14684" lon="6.41101">
        <ele>439</ele>
        <time>2022-09-26T13:57:20Z</time>
      </trkpt>
      <trkpt lat="48.14684" lon="6.41098">
        <ele>440</ele>
        <time>2022-09-26T13:57:21Z</time>
      </trkpt>
      <trkpt lat="48.14683" lon="6.41095">
        <ele>440</ele>
        <time>2022-09-26T13:57:22Z</time>
      </trkpt>
      <trkpt lat="48.14682" lon="6.41093">
        <ele>440</ele>
        <time>2022-09-26T13:57:23Z</time>
      </trkpt>
      <trkpt lat="48.14681" lon="6.41091">
        <ele>440</ele>
        <time>2022-09-26T13:57:24Z</time>
      </trkpt>
      <trkpt lat="48.14679" lon="6.41089">
        <ele>440</ele>
        <time>2022-09-26T13:57:25Z</time>
      </trkpt>
      <trkpt lat="48.14679" lon="6.41086">
        <ele>440</ele>
        <time>2022-09-26T13:57:26Z</time>
      </trkpt>
      <trkpt lat="48.14678" lon="6.41084">
        <ele>440</ele>
        <time>2022-09-26T13:57:27Z</time>
      </trkpt>
      <trkpt lat="48.14678" lon="6.41081">
        <ele>441</ele>
        <time>2022-09-26T13:57:28Z</time>
      </trkpt>
      <trkpt lat="48.14678" lon="6.41078">
        <ele>441</ele>
        <time>2022-09-26T13:57:29Z</time>
      </trkpt>
      <trkpt lat="48.1468" lon="6.41074">
        <ele>441</ele>
        <time>2022-09-26T13:57:30Z</time>
      </trkpt>
      <trkpt lat="48.14681" lon="6.4107">
        <ele>442</ele>
        <time>2022-09-26T13:57:31Z</time>
      </trkpt>
      <trkpt lat="48.14682" lon="6.41065">
        <ele>442</ele>
        <time>2022-09-26T13:57:32Z</time>
      </trkpt>
      <trkpt lat="48.14685" lon="6.41061">
        <ele>443</ele>
        <time>2022-09-26T13:57:33Z</time>
      </trkpt>
      <trkpt lat="48.14688" lon="6.41057">
        <ele>443</ele>
        <time>2022-09-26T13:57:34Z</time>
      </trkpt>
      <trkpt lat="48.14689" lon="6.41054">
        <ele>443</ele>
        <time>2022-09-26T13:57:35Z</time>
      </trkpt>
      <trkpt lat="48.1469" lon="6.4105">
        <ele>444</ele>
        <time>2022-09-26T13:57:36Z</time>
      </trkpt>
      <trkpt lat="48.14691" lon="6.41047">
        <ele>444</ele>
        <time>2022-09-26T13:57:37Z</time>
      </trkpt>
      <trkpt lat="48.14691" lon="6.41043">
        <ele>444</ele>
        <time>2022-09-26T13:57:38Z</time>
      </trkpt>
      <trkpt lat="48.14691" lon="6.4104">
        <ele>444</ele>
        <time>2022-09-26T13:57:39Z</time>
      </trkpt>
      <trkpt lat="48.14692" lon="6.41037">
        <ele>444</ele>
        <time>2022-09-26T13:57:40Z</time>
      </trkpt>
      <trkpt lat="48.14693" lon="6.41035">
        <ele>444</ele>
        <time>2022-09-26T13:57:41Z</time>
      </trkpt>
      <trkpt lat="48.14696" lon="6.41034">
        <ele>445</ele>
        <time>2022-09-26T13:57:42Z</time>
      </trkpt>
      <trkpt lat="48.14698" lon="6.41032">
        <ele>445</ele>
        <time>2022-09-26T13:57:43Z</time>
      </trkpt>
      <trkpt lat="48.147" lon="6.41029">
        <ele>445</ele>
        <time>2022-09-26T13:57:44Z</time>
      </trkpt>
      <trkpt lat="48.14701" lon="6.41027">
        <ele>446</ele>
        <time>2022-09-26T13:57:45Z</time>
      </trkpt>
      <trkpt lat="48.14701" lon="6.41025">
        <ele>446</ele>
        <time>2022-09-26T13:57:46Z</time>
      </trkpt>
      <trkpt lat="48.14702" lon="6.41022">
        <ele>446</ele>
        <time>2022-09-26T13:57:47Z</time>
      </trkpt>
      <trkpt lat="48.14703" lon="6.41018">
        <ele>446</ele>
        <time>2022-09-26T13:57:48Z</time>
      </trkpt>
      <trkpt lat="48.14704" lon="6.41015">
        <ele>446</ele>
        <time>2022-09-26T13:57:49Z</time>
      </trkpt>
      <trkpt lat="48.14704" lon="6.41011">
        <ele>446</ele>
        <time>2022-09-26T13:57:50Z</time>
      </trkpt>
      <trkpt lat="48.14706" lon="6.4101">
        <ele>447</ele>
        <time>2022-09-26T13:57:51Z</time>
      </trkpt>
      <trkpt lat="48.14707" lon="6.41008">
        <ele>447</ele>
        <time>2022-09-26T13:57:52Z</time>
      </trkpt>
      <trkpt lat="48.14708" lon="6.41004">
        <ele>447</ele>
        <time>2022-09-26T13:57:53Z</time>
      </trkpt>
      <trkpt lat="48.14709" lon="6.41002">
        <ele>447</ele>
        <time>2022-09-26T13:57:54Z</time>
      </trkpt>
      <trkpt lat="48.1471" lon="6.40999">
        <ele>447</ele>
        <time>2022-09-26T13:57:55Z</time>
      </trkpt>
      <trkpt lat="48.14711" lon="6.40997">
        <ele>447</ele>
        <time>2022-09-26T13:57:56Z</time>
      </trkpt>
      <trkpt lat="48.14712" lon="6.40994">
        <ele>447</ele>
        <time>2022-09-26T13:57:57Z</time>
      </trkpt>
      <trkpt lat="48.14712" lon="6.40991">
        <ele>447</ele>
        <time>2022-09-26T13:57:58Z</time>
      </trkpt>
      <trkpt lat="48.14713" lon="6.40988">
        <ele>447</ele>
        <time>2022-09-26T13:57:59Z</time>
      </trkpt>
      <trkpt lat="48.14715" lon="6.40986">
        <ele>447</ele>
        <time>2022-09-26T13:58:00Z</time>
      </trkpt>
      <trkpt lat="48.14716" lon="6.40983">
        <ele>446</ele>
        <time>2022-09-26T13:58:01Z</time>
      </trkpt>
      <trkpt lat="48.14717" lon="6.40981">
        <ele>446</ele>
        <time>2022-09-26T13:58:02Z</time>
      </trkpt>
      <trkpt lat="48.14718" lon="6.40979">
        <ele>446</ele>
        <time>2022-09-26T13:58:03Z</time>
      </trkpt>
      <trkpt lat="48.14719" lon="6.40977">
        <ele>446</ele>
        <time>2022-09-26T13:58:04Z</time>
      </trkpt>
      <trkpt lat="48.1472" lon="6.40975">
        <ele>446</ele>
        <time>2022-09-26T13:58:05Z</time>
      </trkpt>
      <trkpt lat="48.14721" lon="6.40972">
        <ele>445</ele>
        <time>2022-09-26T13:58:06Z</time>
      </trkpt>
      <trkpt lat="48.14722" lon="6.4097">
        <ele>445</ele>
        <time>2022-09-26T13:58:07Z</time>
      </trkpt>
      <trkpt lat="48.14723" lon="6.40968">
        <ele>445</ele>
        <time>2022-09-26T13:58:08Z</time>
      </trkpt>
      <trkpt lat="48.14724" lon="6.40966">
        <ele>445</ele>
        <time>2022-09-26T13:58:09Z</time>
      </trkpt>
      <trkpt lat="48.14725" lon="6.40963">
        <ele>445</ele>
        <time>2022-09-26T13:58:10Z</time>
      </trkpt>
      <trkpt lat="48.14726" lon="6.4096">
        <ele>445</ele>
        <time>2022-09-26T13:58:11Z</time>
      </trkpt>
      <trkpt lat="48.14727" lon="6.40958">
        <ele>445</ele>
        <time>2022-09-26T13:58:12Z</time>
      </trkpt>
      <trkpt lat="48.14729" lon="6.40955">
        <ele>444</ele>
        <time>2022-09-26T13:58:13Z</time>
      </trkpt>
      <trkpt lat="48.1473" lon="6.40953">
        <ele>444</ele>
        <time>2022-09-26T13:58:14Z</time>
      </trkpt>
      <trkpt lat="48.14731" lon="6.4095">
        <ele>444</ele>
        <time>2022-09-26T13:58:15Z</time>
      </trkpt>
      <trkpt lat="48.14732" lon="6.40948">
        <ele>444</ele>
        <time>2022-09-26T13:58:16Z</time>
      </trkpt>
      <trkpt lat="48.14733" lon="6.40946">
        <ele>444</ele>
        <time>2022-09-26T13:58:17Z</time>
      </trkpt>
      <trkpt lat="48.14734" lon="6.40944">
        <ele>444</ele>
        <time>2022-09-26T13:58:18Z</time>
      </trkpt>
      <trkpt lat="48.14735" lon="6.40941">
        <ele>444</ele>
        <time>2022-09-26T13:58:19Z</time>
      </trkpt>
      <trkpt lat="48.14736" lon="6.40938">
        <ele>444</ele>
        <time>2022-09-26T13:58:20Z</time>
      </trkpt>
      <trkpt lat="48.14736" lon="6.40936">
        <ele>444</ele>
        <time>2022-09-26T13:58:21Z</time>
      </trkpt>
      <trkpt lat="48.14737" lon="6.40933">
        <ele>444</ele>
        <time>2022-09-26T13:58:22Z</time>
      </trkpt>
      <trkpt lat="48.14738" lon="6.4093">
        <ele>444</ele>
        <time>2022-09-26T13:58:23Z</time>
      </trkpt>
      <trkpt lat="48.14739" lon="6.40928">
        <ele>444</ele>
        <time>2022-09-26T13:58:24Z</time>
      </trkpt>
      <trkpt lat="48.14739" lon="6.40926">
        <ele>444</ele>
        <time>2022-09-26T13:58:25Z</time>
      </trkpt>
      <trkpt lat="48.1474" lon="6.40923">
        <ele>444</ele>
        <time>2022-09-26T13:58:26Z</time>
      </trkpt>
      <trkpt lat="48.1474" lon="6.40921">
        <ele>444</ele>
        <time>2022-09-26T13:58:27Z</time>
      </trkpt>
      <trkpt lat="48.1474" lon="6.40918">
        <ele>444</ele>
        <time>2022-09-26T13:58:28Z</time>
      </trkpt>
      <trkpt lat="48.14741" lon="6.40916">
        <ele>445</ele>
        <time>2022-09-26T13:58:29Z</time>
      </trkpt>
      <trkpt lat="48.14742" lon="6.40914">
        <ele>445</ele>
        <time>2022-09-26T13:58:30Z</time>
      </trkpt>
      <trkpt lat="48.14743" lon="6.40912">
        <ele>445</ele>
        <time>2022-09-26T13:58:31Z</time>
      </trkpt>
      <trkpt lat="48.14743" lon="6.4091">
        <ele>445</ele>
        <time>2022-09-26T13:58:32Z</time>
      </trkpt>
      <trkpt lat="48.14744" lon="6.40909">
        <ele>445</ele>
        <time>2022-09-26T13:58:33Z</time>
      </trkpt>
      <trkpt lat="48.14745" lon="6.40907">
        <ele>445</ele>
        <time>2022-09-26T13:58:34Z</time>
      </trkpt>
      <trkpt lat="48.14745" lon="6.40905">
        <ele>445</ele>
        <time>2022-09-26T13:58:35Z</time>
      </trkpt>
      <trkpt lat="48.14746" lon="6.40903">
        <ele>445</ele>
        <time>2022-09-26T13:58:36Z</time>
      </trkpt>
      <trkpt lat="48.14747" lon="6.409">
        <ele>445</ele>
        <time>2022-09-26T13:58:37Z</time>
      </trkpt>
      <trkpt lat="48.14748" lon="6.40896">
        <ele>445</ele>
        <time>2022-09-26T13:58:38Z</time>
      </trkpt>
      <trkpt lat="48.14747" lon="6.40893">
        <ele>445</ele>
        <time>2022-09-26T13:58:39Z</time>
      </trkpt>
      <trkpt lat="48.14747" lon="6.4089">
        <ele>445</ele>
        <time>2022-09-26T13:58:40Z</time>
      </trkpt>
      <trkpt lat="48.14745" lon="6.40887">
        <ele>445</ele>
        <time>2022-09-26T13:58:41Z</time>
      </trkpt>
      <trkpt lat="48.14744" lon="6.40885">
        <ele>445</ele>
        <time>2022-09-26T13:58:42Z</time>
      </trkpt>
      <trkpt lat="48.14742" lon="6.40883">
        <ele>445</ele>
        <time>2022-09-26T13:58:43Z</time>
      </trkpt>
      <trkpt lat="48.1474" lon="6.40882">
        <ele>445</ele>
        <time>2022-09-26T13:58:44Z</time>
      </trkpt>
      <trkpt lat="48.14738" lon="6.40881">
        <ele>445</ele>
        <time>2022-09-26T13:58:45Z</time>
      </trkpt>
      <trkpt lat="48.14736" lon="6.40881">
        <ele>445</ele>
        <time>2022-09-26T13:58:46Z</time>
      </trkpt>
      <trkpt lat="48.14735" lon="6.4088">
        <ele>446</ele>
        <time>2022-09-26T13:58:47Z</time>
      </trkpt>
      <trkpt lat="48.14734" lon="6.40879">
        <ele>446</ele>
        <time>2022-09-26T13:58:48Z</time>
      </trkpt>
      <trkpt lat="48.14732" lon="6.40879">
        <ele>446</ele>
        <time>2022-09-26T13:58:49Z</time>
      </trkpt>
      <trkpt lat="48.1473" lon="6.40879">
        <ele>446</ele>
        <time>2022-09-26T13:58:50Z</time>
      </trkpt>
      <trkpt lat="48.14728" lon="6.40879">
        <ele>446</ele>
        <time>2022-09-26T13:58:51Z</time>
      </trkpt>
      <trkpt lat="48.14727" lon="6.40879">
        <ele>446</ele>
        <time>2022-09-26T13:58:52Z</time>
      </trkpt>
      <trkpt lat="48.14725" lon="6.40879">
        <ele>446</ele>
        <time>2022-09-26T13:58:53Z</time>
      </trkpt>
      <trkpt lat="48.14723" lon="6.40879">
        <ele>446</ele>
        <time>2022-09-26T13:58:54Z</time>
      </trkpt>
      <trkpt lat="48.14721" lon="6.40879">
        <ele>446</ele>
        <time>2022-09-26T13:58:55Z</time>
      </trkpt>
      <trkpt lat="48.14719" lon="6.4088">
        <ele>446</ele>
        <time>2022-09-26T13:58:56Z</time>
      </trkpt>
      <trkpt lat="48.14717" lon="6.4088">
        <ele>447</ele>
        <time>2022-09-26T13:58:57Z</time>
      </trkpt>
      <trkpt lat="48.14715" lon="6.40881">
        <ele>447</ele>
        <time>2022-09-26T13:58:58Z</time>
      </trkpt>
      <trkpt lat="48.14714" lon="6.40883">
        <ele>447</ele>
        <time>2022-09-26T13:58:59Z</time>
      </trkpt>
      <trkpt lat="48.14712" lon="6.40884">
        <ele>447</ele>
        <time>2022-09-26T13:59:00Z</time>
      </trkpt>
      <trkpt lat="48.1471" lon="6.40885">
        <ele>447</ele>
        <time>2022-09-26T13:59:01Z</time>
      </trkpt>
      <trkpt lat="48.14709" lon="6.40886">
        <ele>447</ele>
        <time>2022-09-26T13:59:02Z</time>
      </trkpt>
      <trkpt lat="48.14707" lon="6.40887">
        <ele>447</ele>
        <time>2022-09-26T13:59:03Z</time>
      </trkpt>
      <trkpt lat="48.14706" lon="6.40888">
        <ele>447</ele>
        <time>2022-09-26T13:59:04Z</time>
      </trkpt>
      <trkpt lat="48.14704" lon="6.4089">
        <ele>447</ele>
        <time>2022-09-26T13:59:05Z</time>
      </trkpt>
      <trkpt lat="48.14703" lon="6.40891">
        <ele>448</ele>
        <time>2022-09-26T13:59:06Z</time>
      </trkpt>
      <trkpt lat="48.14701" lon="6.40892">
        <ele>448</ele>
        <time>2022-09-26T13:59:07Z</time>
      </trkpt>
      <trkpt lat="48.14699" lon="6.40893">
        <ele>448</ele>
        <time>2022-09-26T13:59:08Z</time>
      </trkpt>
      <trkpt lat="48.14698" lon="6.40894">
        <ele>448</ele>
        <time>2022-09-26T13:59:09Z</time>
      </trkpt>
      <trkpt lat="48.14696" lon="6.40896">
        <ele>448</ele>
        <time>2022-09-26T13:59:10Z</time>
      </trkpt>
      <trkpt lat="48.14695" lon="6.40897">
        <ele>448</ele>
        <time>2022-09-26T13:59:11Z</time>
      </trkpt>
      <trkpt lat="48.14693" lon="6.40898">
        <ele>448</ele>
        <time>2022-09-26T13:59:12Z</time>
      </trkpt>
      <trkpt lat="48.14691" lon="6.40899">
        <ele>448</ele>
        <time>2022-09-26T13:59:13Z</time>
      </trkpt>
      <trkpt lat="48.1469" lon="6.40901">
        <ele>448</ele>
        <time>2022-09-26T13:59:14Z</time>
      </trkpt>
      <trkpt lat="48.14688" lon="6.40903">
        <ele>448</ele>
        <time>2022-09-26T13:59:15Z</time>
      </trkpt>
      <trkpt lat="48.14686" lon="6.40905">
        <ele>448</ele>
        <time>2022-09-26T13:59:16Z</time>
      </trkpt>
      <trkpt lat="48.14684" lon="6.40906">
        <ele>447</ele>
        <time>2022-09-26T13:59:17Z</time>
      </trkpt>
      <trkpt lat="48.14682" lon="6.40907">
        <ele>447</ele>
        <time>2022-09-26T13:59:18Z</time>
      </trkpt>
      <trkpt lat="48.1468" lon="6.40908">
        <ele>447</ele>
        <time>2022-09-26T13:59:19Z</time>
      </trkpt>
      <trkpt lat="48.14678" lon="6.40909">
        <ele>447</ele>
        <time>2022-09-26T13:59:20Z</time>
      </trkpt>
      <trkpt lat="48.14676" lon="6.4091">
        <ele>447</ele>
        <time>2022-09-26T13:59:21Z</time>
      </trkpt>
      <trkpt lat="48.14674" lon="6.4091">
        <ele>448</ele>
        <time>2022-09-26T13:59:22Z</time>
      </trkpt>
      <trkpt lat="48.14671" lon="6.4091">
        <ele>448</ele>
        <time>2022-09-26T13:59:23Z</time>
      </trkpt>
      <trkpt lat="48.14669" lon="6.4091">
        <ele>448</ele>
        <time>2022-09-26T13:59:24Z</time>
      </trkpt>
      <trkpt lat="48.14667" lon="6.4091">
        <ele>448</ele>
        <time>2022-09-26T13:59:25Z</time>
      </trkpt>
      <trkpt lat="48.14664" lon="6.40909">
        <ele>448</ele>
        <time>2022-09-26T13:59:26Z</time>
      </trkpt>
      <trkpt lat="48.14662" lon="6.40908">
        <ele>448</ele>
        <time>2022-09-26T13:59:27Z</time>
      </trkpt>
      <trkpt lat="48.1466" lon="6.40907">
        <ele>448</ele>
        <time>2022-09-26T13:59:28Z</time>
      </trkpt>
      <trkpt lat="48.14658" lon="6.40906">
        <ele>448</ele>
        <time>2022-09-26T13:59:29Z</time>
      </trkpt>
      <trkpt lat="48.14655" lon="6.40905">
        <ele>448</ele>
        <time>2022-09-26T13:59:30Z</time>
      </trkpt>
      <trkpt lat="48.14653" lon="6.40903">
        <ele>448</ele>
        <time>2022-09-26T13:59:31Z</time>
      </trkpt>
      <trkpt lat="48.14651" lon="6.40902">
        <ele>449</ele>
        <time>2022-09-26T13:59:32Z</time>
      </trkpt>
      <trkpt lat="48.14649" lon="6.40901">
        <ele>449</ele>
        <time>2022-09-26T13:59:33Z</time>
      </trkpt>
      <trkpt lat="48.14647" lon="6.40899">
        <ele>449</ele>
        <time>2022-09-26T13:59:34Z</time>
      </trkpt>
      <trkpt lat="48.14645" lon="6.40897">
        <ele>449</ele>
        <time>2022-09-26T13:59:35Z</time>
      </trkpt>
      <trkpt lat="48.14643" lon="6.40895">
        <ele>449</ele>
        <time>2022-09-26T13:59:36Z</time>
      </trkpt>
      <trkpt lat="48.14641" lon="6.40893">
        <ele>449</ele>
        <time>2022-09-26T13:59:37Z</time>
      </trkpt>
      <trkpt lat="48.14639" lon="6.40892">
        <ele>449</ele>
        <time>2022-09-26T13:59:38Z</time>
      </trkpt>
      <trkpt lat="48.14637" lon="6.4089">
        <ele>449</ele>
        <time>2022-09-26T13:59:39Z</time>
      </trkpt>
      <trkpt lat="48.14635" lon="6.40887">
        <ele>449</ele>
        <time>2022-09-26T13:59:40Z</time>
      </trkpt>
      <trkpt lat="48.14634" lon="6.40884">
        <ele>449</ele>
        <time>2022-09-26T13:59:41Z</time>
      </trkpt>
      <trkpt lat="48.14632" lon="6.40882">
        <ele>450</ele>
        <time>2022-09-26T13:59:42Z</time>
      </trkpt>
      <trkpt lat="48.14631" lon="6.40878">
        <ele>450</ele>
        <time>2022-09-26T13:59:43Z</time>
      </trkpt>
      <trkpt lat="48.14629" lon="6.40875">
        <ele>450</ele>
        <time>2022-09-26T13:59:44Z</time>
      </trkpt>
      <trkpt lat="48.14628" lon="6.40872">
        <ele>450</ele>
        <time>2022-09-26T13:59:45Z</time>
      </trkpt>
      <trkpt lat="48.14627" lon="6.40868">
        <ele>450</ele>
        <time>2022-09-26T13:59:46Z</time>
      </trkpt>
      <trkpt lat="48.14626" lon="6.40864">
        <ele>450</ele>
        <time>2022-09-26T13:59:47Z</time>
      </trkpt>
      <trkpt lat="48.14626" lon="6.4086">
        <ele>450</ele>
        <time>2022-09-26T13:59:48Z</time>
      </trkpt>
      <trkpt lat="48.14627" lon="6.40856">
        <ele>450</ele>
        <time>2022-09-26T13:59:49Z</time>
      </trkpt>
      <trkpt lat="48.14628" lon="6.40853">
        <ele>450</ele>
        <time>2022-09-26T13:59:50Z</time>
      </trkpt>
      <trkpt lat="48.14629" lon="6.4085">
        <ele>451</ele>
        <time>2022-09-26T13:59:51Z</time>
      </trkpt>
      <trkpt lat="48.14631" lon="6.40846">
        <ele>451</ele>
        <time>2022-09-26T13:59:52Z</time>
      </trkpt>
      <trkpt lat="48.14632" lon="6.40843">
        <ele>451</ele>
        <time>2022-09-26T13:59:53Z</time>
      </trkpt>
      <trkpt lat="48.14634" lon="6.4084">
        <ele>452</ele>
        <time>2022-09-26T13:59:54Z</time>
      </trkpt>
      <trkpt lat="48.14635" lon="6.40837">
        <ele>452</ele>
        <time>2022-09-26T13:59:55Z</time>
      </trkpt>
      <trkpt lat="48.14636" lon="6.40834">
        <ele>452</ele>
        <time>2022-09-26T13:59:56Z</time>
      </trkpt>
      <trkpt lat="48.14638" lon="6.40831">
        <ele>453</ele>
        <time>2022-09-26T13:59:57Z</time>
      </trkpt>
      <trkpt lat="48.14639" lon="6.40829">
        <ele>453</ele>
        <time>2022-09-26T13:59:58Z</time>
      </trkpt>
      <trkpt lat="48.14641" lon="6.40827">
        <ele>453</ele>
        <time>2022-09-26T13:59:59Z</time>
      </trkpt>
      <trkpt lat="48.14643" lon="6.40825">
        <ele>453</ele>
        <time>2022-09-26T14:00:00Z</time>
      </trkpt>
      <trkpt lat="48.14644" lon="6.40824">
        <ele>454</ele>
        <time>2022-09-26T14:00:01Z</time>
      </trkpt>
      <trkpt lat="48.14646" lon="6.40822">
        <ele>454</ele>
        <time>2022-09-26T14:00:02Z</time>
      </trkpt>
      <trkpt lat="48.14648" lon="6.40821">
        <ele>454</ele>
        <time>2022-09-26T14:00:03Z</time>
      </trkpt>
      <trkpt lat="48.1465" lon="6.40819">
        <ele>454</ele>
        <time>2022-09-26T14:00:04Z</time>
      </trkpt>
      <trkpt lat="48.14652" lon="6.40816">
        <ele>455</ele>
        <time>2022-09-26T14:00:05Z</time>
      </trkpt>
      <trkpt lat="48.14654" lon="6.40814">
        <ele>455</ele>
        <time>2022-09-26T14:00:06Z</time>
      </trkpt>
      <trkpt lat="48.14656" lon="6.40811">
        <ele>455</ele>
        <time>2022-09-26T14:00:07Z</time>
      </trkpt>
      <trkpt lat="48.14657" lon="6.40808">
        <ele>456</ele>
        <time>2022-09-26T14:00:08Z</time>
      </trkpt>
      <trkpt lat="48.14658" lon="6.40806">
        <ele>456</ele>
        <time>2022-09-26T14:00:09Z</time>
      </trkpt>
      <trkpt lat="48.1466" lon="6.40803">
        <ele>456</ele>
        <time>2022-09-26T14:00:10Z</time>
      </trkpt>
      <trkpt lat="48.14661" lon="6.408">
        <ele>456</ele>
        <time>2022-09-26T14:00:11Z</time>
      </trkpt>
      <trkpt lat="48.14663" lon="6.40797">
        <ele>456</ele>
        <time>2022-09-26T14:00:12Z</time>
      </trkpt>
      <trkpt lat="48.14665" lon="6.40794">
        <ele>457</ele>
        <time>2022-09-26T14:00:13Z</time>
      </trkpt>
      <trkpt lat="48.14667" lon="6.40792">
        <ele>457</ele>
        <time>2022-09-26T14:00:14Z</time>
      </trkpt>
      <trkpt lat="48.14668" lon="6.40788">
        <ele>457</ele>
        <time>2022-09-26T14:00:15Z</time>
      </trkpt>
      <trkpt lat="48.14669" lon="6.40784">
        <ele>457</ele>
        <time>2022-09-26T14:00:16Z</time>
      </trkpt>
      <trkpt lat="48.14669" lon="6.40781">
        <ele>457</ele>
        <time>2022-09-26T14:00:17Z</time>
      </trkpt>
      <trkpt lat="48.14669" lon="6.40777">
        <ele>457</ele>
        <time>2022-09-26T14:00:18Z</time>
      </trkpt>
      <trkpt lat="48.14668" lon="6.40774">
        <ele>457</ele>
        <time>2022-09-26T14:00:19Z</time>
      </trkpt>
      <trkpt lat="48.14668" lon="6.4077">
        <ele>457</ele>
        <time>2022-09-26T14:00:20Z</time>
      </trkpt>
      <trkpt lat="48.14668" lon="6.40767">
        <ele>457</ele>
        <time>2022-09-26T14:00:21Z</time>
      </trkpt>
      <trkpt lat="48.14668" lon="6.40763">
        <ele>456</ele>
        <time>2022-09-26T14:00:22Z</time>
      </trkpt>
      <trkpt lat="48.14668" lon="6.40759">
        <ele>456</ele>
        <time>2022-09-26T14:00:23Z</time>
      </trkpt>
      <trkpt lat="48.14668" lon="6.40756">
        <ele>456</ele>
        <time>2022-09-26T14:00:24Z</time>
      </trkpt>
      <trkpt lat="48.14667" lon="6.40753">
        <ele>456</ele>
        <time>2022-09-26T14:00:25Z</time>
      </trkpt>
      <trkpt lat="48.14666" lon="6.40749">
        <ele>455</ele>
        <time>2022-09-26T14:00:26Z</time>
      </trkpt>
      <trkpt lat="48.14666" lon="6.40746">
        <ele>455</ele>
        <time>2022-09-26T14:00:27Z</time>
      </trkpt>
      <trkpt lat="48.14666" lon="6.40742">
        <ele>455</ele>
        <time>2022-09-26T14:00:28Z</time>
      </trkpt>
      <trkpt lat="48.14666" lon="6.40739">
        <ele>455</ele>
        <time>2022-09-26T14:00:29Z</time>
      </trkpt>
      <trkpt lat="48.14666" lon="6.40736">
        <ele>455</ele>
        <time>2022-09-26T14:00:30Z</time>
      </trkpt>
      <trkpt lat="48.14667" lon="6.40732">
        <ele>455</ele>
        <time>2022-09-26T14:00:31Z</time>
      </trkpt>
      <trkpt lat="48.14667" lon="6.40729">
        <ele>455</ele>
        <time>2022-09-26T14:00:32Z</time>
      </trkpt>
      <trkpt lat="48.14668" lon="6.40726">
        <ele>455</ele>
        <time>2022-09-26T14:00:33Z</time>
      </trkpt>
      <trkpt lat="48.14668" lon="6.40722">
        <ele>454</ele>
        <time>2022-09-26T14:00:34Z</time>
      </trkpt>
      <trkpt lat="48.14668" lon="6.40718">
        <ele>454</ele>
        <time>2022-09-26T14:00:35Z</time>
      </trkpt>
      <trkpt lat="48.14668" lon="6.40714">
        <ele>454</ele>
        <time>2022-09-26T14:00:36Z</time>
      </trkpt>
      <trkpt lat="48.14668" lon="6.4071">
        <ele>454</ele>
        <time>2022-09-26T14:00:37Z</time>
      </trkpt>
      <trkpt lat="48.14667" lon="6.40707">
        <ele>454</ele>
        <time>2022-09-26T14:00:38Z</time>
      </trkpt>
      <trkpt lat="48.14667" lon="6.40702">
        <ele>454</ele>
        <time>2022-09-26T14:00:39Z</time>
      </trkpt>
      <trkpt lat="48.14666" lon="6.40698">
        <ele>454</ele>
        <time>2022-09-26T14:00:40Z</time>
      </trkpt>
      <trkpt lat="48.14666" lon="6.40693">
        <ele>454</ele>
        <time>2022-09-26T14:00:41Z</time>
      </trkpt>
      <trkpt lat="48.14665" lon="6.40688">
        <ele>454</ele>
        <time>2022-09-26T14:00:42Z</time>
      </trkpt>
      <trkpt lat="48.14664" lon="6.40684">
        <ele>454</ele>
        <time>2022-09-26T14:00:43Z</time>
      </trkpt>
      <trkpt lat="48.14662" lon="6.4068">
        <ele>454</ele>
        <time>2022-09-26T14:00:44Z</time>
      </trkpt>
      <trkpt lat="48.14662" lon="6.40676">
        <ele>454</ele>
        <time>2022-09-26T14:00:45Z</time>
      </trkpt>
      <trkpt lat="48.14661" lon="6.40671">
        <ele>454</ele>
        <time>2022-09-26T14:00:46Z</time>
      </trkpt>
      <trkpt lat="48.14661" lon="6.40667">
        <ele>454</ele>
        <time>2022-09-26T14:00:47Z</time>
      </trkpt>
      <trkpt lat="48.14661" lon="6.40662">
        <ele>454</ele>
        <time>2022-09-26T14:00:48Z</time>
      </trkpt>
      <trkpt lat="48.14661" lon="6.40656">
        <ele>455</ele>
        <time>2022-09-26T14:00:49Z</time>
      </trkpt>
      <trkpt lat="48.14662" lon="6.40651">
        <ele>455</ele>
        <time>2022-09-26T14:00:50Z</time>
      </trkpt>
      <trkpt lat="48.14663" lon="6.40645">
        <ele>456</ele>
        <time>2022-09-26T14:00:51Z</time>
      </trkpt>
      <trkpt lat="48.14664" lon="6.4064">
        <ele>456</ele>
        <time>2022-09-26T14:00:52Z</time>
      </trkpt>
      <trkpt lat="48.14665" lon="6.40635">
        <ele>457</ele>
        <time>2022-09-26T14:00:53Z</time>
      </trkpt>
      <trkpt lat="48.14666" lon="6.4063">
        <ele>457</ele>
        <time>2022-09-26T14:00:54Z</time>
      </trkpt>
      <trkpt lat="48.14666" lon="6.40625">
        <ele>457</ele>
        <time>2022-09-26T14:00:55Z</time>
      </trkpt>
      <trkpt lat="48.14666" lon="6.4062">
        <ele>458</ele>
        <time>2022-09-26T14:00:56Z</time>
      </trkpt>
      <trkpt lat="48.14667" lon="6.40614">
        <ele>458</ele>
        <time>2022-09-26T14:00:57Z</time>
      </trkpt>
      <trkpt lat="48.14667" lon="6.40609">
        <ele>459</ele>
        <time>2022-09-26T14:00:58Z</time>
      </trkpt>
      <trkpt lat="48.14666" lon="6.40604">
        <ele>459</ele>
        <time>2022-09-26T14:00:59Z</time>
      </trkpt>
      <trkpt lat="48.14665" lon="6.40599">
        <ele>459</ele>
        <time>2022-09-26T14:01:00Z</time>
      </trkpt>
      <trkpt lat="48.14664" lon="6.40593">
        <ele>460</ele>
        <time>2022-09-26T14:01:01Z</time>
      </trkpt>
      <trkpt lat="48.14664" lon="6.40589">
        <ele>460</ele>
        <time>2022-09-26T14:01:02Z</time>
      </trkpt>
      <trkpt lat="48.14664" lon="6.40584">
        <ele>460</ele>
        <time>2022-09-26T14:01:03Z</time>
      </trkpt>
      <trkpt lat="48.14664" lon="6.40579">
        <ele>460</ele>
        <time>2022-09-26T14:01:04Z</time>
      </trkpt>
      <trkpt lat="48.14664" lon="6.40575">
        <ele>460</ele>
        <time>2022-09-26T14:01:05Z</time>
      </trkpt>
      <trkpt lat="48.14664" lon="6.4057">
        <ele>460</ele>
        <time>2022-09-26T14:01:06Z</time>
      </trkpt>
      <trkpt lat="48.14664" lon="6.40565">
        <ele>460</ele>
        <time>2022-09-26T14:01:07Z</time>
      </trkpt>
      <trkpt lat="48.14663" lon="6.40561">
        <ele>460</ele>
        <time>2022-09-26T14:01:08Z</time>
      </trkpt>
      <trkpt lat="48.14663" lon="6.40556">
        <ele>460</ele>
        <time>2022-09-26T14:01:09Z</time>
      </trkpt>
      <trkpt lat="48.14662" lon="6.40551">
        <ele>460</ele>
        <time>2022-09-26T14:01:10Z</time>
      </trkpt>
      <trkpt lat="48.14661" lon="6.40546">
        <ele>459</ele>
        <time>2022-09-26T14:01:11Z</time>
      </trkpt>
      <trkpt lat="48.1466" lon="6.4054">
        <ele>459</ele>
        <time>2022-09-26T14:01:12Z</time>
      </trkpt>
      <trkpt lat="48.14659" lon="6.40533">
        <ele>458</ele>
        <time>2022-09-26T14:01:13Z</time>
      </trkpt>
      <trkpt lat="48.14659" lon="6.40524">
        <ele>457</ele>
        <time>2022-09-26T14:01:14Z</time>
      </trkpt>
      <trkpt lat="48.14659" lon="6.40517">
        <ele>457</ele>
        <time>2022-09-26T14:01:15Z</time>
      </trkpt>
      <trkpt lat="48.14662" lon="6.4051">
        <ele>457</ele>
        <time>2022-09-26T14:01:16Z</time>
      </trkpt>
      <trkpt lat="48.14665" lon="6.40504">
        <ele>457</ele>
        <time>2022-09-26T14:01:17Z</time>
      </trkpt>
      <trkpt lat="48.14667" lon="6.40498">
        <ele>456</ele>
        <time>2022-09-26T14:01:18Z</time>
      </trkpt>
      <trkpt lat="48.14669" lon="6.40492">
        <ele>456</ele>
        <time>2022-09-26T14:01:19Z</time>
      </trkpt>
      <trkpt lat="48.1467" lon="6.40486">
        <ele>456</ele>
        <time>2022-09-26T14:01:20Z</time>
      </trkpt>
      <trkpt lat="48.14672" lon="6.4048">
        <ele>456</ele>
        <time>2022-09-26T14:01:21Z</time>
      </trkpt>
      <trkpt lat="48.14674" lon="6.40475">
        <ele>455</ele>
        <time>2022-09-26T14:01:22Z</time>
      </trkpt>
      <trkpt lat="48.14675" lon="6.4047">
        <ele>455</ele>
        <time>2022-09-26T14:01:23Z</time>
      </trkpt>
      <trkpt lat="48.14676" lon="6.40465">
        <ele>455</ele>
        <time>2022-09-26T14:01:24Z</time>
      </trkpt>
      <trkpt lat="48.14678" lon="6.40461">
        <ele>455</ele>
        <time>2022-09-26T14:01:25Z</time>
      </trkpt>
      <trkpt lat="48.14679" lon="6.40456">
        <ele>455</ele>
        <time>2022-09-26T14:01:26Z</time>
      </trkpt>
      <trkpt lat="48.14681" lon="6.40451">
        <ele>454</ele>
        <time>2022-09-26T14:01:27Z</time>
      </trkpt>
      <trkpt lat="48.14682" lon="6.40446">
        <ele>454</ele>
        <time>2022-09-26T14:01:28Z</time>
      </trkpt>
      <trkpt lat="48.14684" lon="6.40442">
        <ele>454</ele>
        <time>2022-09-26T14:01:29Z</time>
      </trkpt>
      <trkpt lat="48.14686" lon="6.40438">
        <ele>454</ele>
        <time>2022-09-26T14:01:30Z</time>
      </trkpt>
      <trkpt lat="48.14687" lon="6.40435">
        <ele>454</ele>
        <time>2022-09-26T14:01:31Z</time>
      </trkpt>
      <trkpt lat="48.14689" lon="6.40433">
        <ele>454</ele>
        <time>2022-09-26T14:01:32Z</time>
      </trkpt>
      <trkpt lat="48.14691" lon="6.4043">
        <ele>454</ele>
        <time>2022-09-26T14:01:33Z</time>
      </trkpt>
      <trkpt lat="48.14692" lon="6.40428">
        <ele>454</ele>
        <time>2022-09-26T14:01:34Z</time>
      </trkpt>
      <trkpt lat="48.14694" lon="6.40425">
        <ele>454</ele>
        <time>2022-09-26T14:01:35Z</time>
      </trkpt>
      <trkpt lat="48.14696" lon="6.40423">
        <ele>454</ele>
        <time>2022-09-26T14:01:36Z</time>
      </trkpt>
      <trkpt lat="48.14697" lon="6.4042">
        <ele>454</ele>
        <time>2022-09-26T14:01:37Z</time>
      </trkpt>
      <trkpt lat="48.14698" lon="6.40418">
        <ele>454</ele>
        <time>2022-09-26T14:01:38Z</time>
      </trkpt>
      <trkpt lat="48.147" lon="6.40416">
        <ele>454</ele>
        <time>2022-09-26T14:01:39Z</time>
      </trkpt>
      <trkpt lat="48.14701" lon="6.40415">
        <ele>454</ele>
        <time>2022-09-26T14:01:40Z</time>
      </trkpt>
      <trkpt lat="48.14702" lon="6.40414">
        <ele>454</ele>
        <time>2022-09-26T14:01:41Z</time>
      </trkpt>
      <trkpt lat="48.14703" lon="6.40413">
        <ele>454</ele>
        <time>2022-09-26T14:01:42Z</time>
      </trkpt>
      <trkpt lat="48.14704" lon="6.40411">
        <ele>453</ele>
        <time>2022-09-26T14:01:43Z</time>
      </trkpt>
      <trkpt lat="48.14705" lon="6.40409">
        <ele>453</ele>
        <time>2022-09-26T14:01:44Z</time>
      </trkpt>
      <trkpt lat="48.14706" lon="6.40407">
        <ele>453</ele>
        <time>2022-09-26T14:01:45Z</time>
      </trkpt>
      <trkpt lat="48.14707" lon="6.40406">
        <ele>453</ele>
        <time>2022-09-26T14:01:46Z</time>
      </trkpt>
      <trkpt lat="48.14708" lon="6.40404">
        <ele>453</ele>
        <time>2022-09-26T14:01:47Z</time>
      </trkpt>
      <trkpt lat="48.1471" lon="6.40403">
        <ele>453</ele>
        <time>2022-09-26T14:01:48Z</time>
      </trkpt>
      <trkpt lat="48.14711" lon="6.40401">
        <ele>453</ele>
        <time>2022-09-26T14:01:49Z</time>
      </trkpt>
      <trkpt lat="48.14713" lon="6.404">
        <ele>453</ele>
        <time>2022-09-26T14:01:50Z</time>
      </trkpt>
      <trkpt lat="48.14716" lon="6.40398">
        <ele>453</ele>
        <time>2022-09-26T14:01:51Z</time>
      </trkpt>
      <trkpt lat="48.14718" lon="6.40397">
        <ele>452</ele>
        <time>2022-09-26T14:01:52Z</time>
      </trkpt>
      <trkpt lat="48.14721" lon="6.40395">
        <ele>452</ele>
        <time>2022-09-26T14:01:53Z</time>
      </trkpt>
      <trkpt lat="48.14724" lon="6.40393">
        <ele>452</ele>
        <time>2022-09-26T14:01:54Z</time>
      </trkpt>
      <trkpt lat="48.14727" lon="6.4039">
        <ele>451</ele>
        <time>2022-09-26T14:01:55Z</time>
      </trkpt>
      <trkpt lat="48.1473" lon="6.40388">
        <ele>451</ele>
        <time>2022-09-26T14:01:56Z</time>
      </trkpt>
      <trkpt lat="48.14734" lon="6.40386">
        <ele>450</ele>
        <time>2022-09-26T14:01:57Z</time>
      </trkpt>
      <trkpt lat="48.14738" lon="6.40383">
        <ele>449</ele>
        <time>2022-09-26T14:01:58Z</time>
      </trkpt>
      <trkpt lat="48.14743" lon="6.4038">
        <ele>449</ele>
        <time>2022-09-26T14:01:59Z</time>
      </trkpt>
      <trkpt lat="48.14748" lon="6.40377">
        <ele>448</ele>
        <time>2022-09-26T14:02:00Z</time>
      </trkpt>
      <trkpt lat="48.14753" lon="6.40373">
        <ele>447</ele>
        <time>2022-09-26T14:02:01Z</time>
      </trkpt>
      <trkpt lat="48.14758" lon="6.4037">
        <ele>447</ele>
        <time>2022-09-26T14:02:02Z</time>
      </trkpt>
      <trkpt lat="48.14763" lon="6.40366">
        <ele>446</ele>
        <time>2022-09-26T14:02:03Z</time>
      </trkpt>
      <trkpt lat="48.14769" lon="6.40363">
        <ele>446</ele>
        <time>2022-09-26T14:02:04Z</time>
      </trkpt>
      <trkpt lat="48.14774" lon="6.4036">
        <ele>445</ele>
        <time>2022-09-26T14:02:05Z</time>
      </trkpt>
      <trkpt lat="48.1478" lon="6.40357">
        <ele>445</ele>
        <time>2022-09-26T14:02:06Z</time>
      </trkpt>
      <trkpt lat="48.14786" lon="6.40354">
        <ele>446</ele>
        <time>2022-09-26T14:02:07Z</time>
      </trkpt>
      <trkpt lat="48.14791" lon="6.40351">
        <ele>446</ele>
        <time>2022-09-26T14:02:08Z</time>
      </trkpt>
      <trkpt lat="48.14797" lon="6.40349">
        <ele>447</ele>
        <time>2022-09-26T14:02:09Z</time>
      </trkpt>
      <trkpt lat="48.14803" lon="6.40345">
        <ele>447</ele>
        <time>2022-09-26T14:02:10Z</time>
      </trkpt>
      <trkpt lat="48.1481" lon="6.40342">
        <ele>448</ele>
        <time>2022-09-26T14:02:11Z</time>
      </trkpt>
      <trkpt lat="48.14816" lon="6.40339">
        <ele>448</ele>
        <time>2022-09-26T14:02:12Z</time>
      </trkpt>
      <trkpt lat="48.14823" lon="6.40336">
        <ele>448</ele>
        <time>2022-09-26T14:02:13Z</time>
      </trkpt>
      <trkpt lat="48.14829" lon="6.40332">
        <ele>448</ele>
        <time>2022-09-26T14:02:14Z</time>
      </trkpt>
      <trkpt lat="48.14834" lon="6.40326">
        <ele>447</ele>
        <time>2022-09-26T14:02:15Z</time>
      </trkpt>
      <trkpt lat="48.14839" lon="6.40319">
        <ele>447</ele>
        <time>2022-09-26T14:02:16Z</time>
      </trkpt>
      <trkpt lat="48.14844" lon="6.40313">
        <ele>446</ele>
        <time>2022-09-26T14:02:17Z</time>
      </trkpt>
      <trkpt lat="48.14849" lon="6.40306">
        <ele>446</ele>
        <time>2022-09-26T14:02:18Z</time>
      </trkpt>
      <trkpt lat="48.14853" lon="6.40299">
        <ele>445</ele>
        <time>2022-09-26T14:02:19Z</time>
      </trkpt>
      <trkpt lat="48.14859" lon="6.40295">
        <ele>445</ele>
        <time>2022-09-26T14:02:20Z</time>
      </trkpt>
      <trkpt lat="48.14865" lon="6.40291">
        <ele>444</ele>
        <time>2022-09-26T14:02:21Z</time>
      </trkpt>
      <trkpt lat="48.14871" lon="6.40289">
        <ele>443</ele>
        <time>2022-09-26T14:02:22Z</time>
      </trkpt>
      <trkpt lat="48.14877" lon="6.40289">
        <ele>443</ele>
        <time>2022-09-26T14:02:23Z</time>
      </trkpt>
      <trkpt lat="48.14882" lon="6.4029">
        <ele>442</ele>
        <time>2022-09-26T14:02:24Z</time>
      </trkpt>
      <trkpt lat="48.14886" lon="6.40293">
        <ele>442</ele>
        <time>2022-09-26T14:02:25Z</time>
      </trkpt>
      <trkpt lat="48.1489" lon="6.40296">
        <ele>442</ele>
        <time>2022-09-26T14:02:26Z</time>
      </trkpt>
      <trkpt lat="48.14895" lon="6.40298">
        <ele>442</ele>
        <time>2022-09-26T14:02:27Z</time>
      </trkpt>
      <trkpt lat="48.14899" lon="6.40299">
        <ele>442</ele>
        <time>2022-09-26T14:02:28Z</time>
      </trkpt>
      <trkpt lat="48.14904" lon="6.40299">
        <ele>441</ele>
        <time>2022-09-26T14:02:29Z</time>
      </trkpt>
      <trkpt lat="48.14908" lon="6.403">
        <ele>441</ele>
        <time>2022-09-26T14:02:30Z</time>
      </trkpt>
      <trkpt lat="48.14907" lon="6.40304">
        <ele>441</ele>
        <time>2022-09-26T14:02:31Z</time>
      </trkpt>
      <trkpt lat="48.1491" lon="6.40306">
        <ele>441</ele>
        <time>2022-09-26T14:02:32Z</time>
      </trkpt>
      <trkpt lat="48.14913" lon="6.40309">
        <ele>441</ele>
        <time>2022-09-26T14:02:33Z</time>
      </trkpt>
      <trkpt lat="48.14915" lon="6.40312">
        <ele>441</ele>
        <time>2022-09-26T14:02:34Z</time>
      </trkpt>
      <trkpt lat="48.14918" lon="6.40313">
        <ele>441</ele>
        <time>2022-09-26T14:02:35Z</time>
      </trkpt>
      <trkpt lat="48.14921" lon="6.40314">
        <ele>441</ele>
        <time>2022-09-26T14:02:36Z</time>
      </trkpt>
      <trkpt lat="48.14924" lon="6.40315">
        <ele>441</ele>
        <time>2022-09-26T14:02:37Z</time>
      </trkpt>
      <trkpt lat="48.14928" lon="6.40317">
        <ele>441</ele>
        <time>2022-09-26T14:02:38Z</time>
      </trkpt>
      <trkpt lat="48.1493" lon="6.40319">
        <ele>441</ele>
        <time>2022-09-26T14:02:39Z</time>
      </trkpt>
      <trkpt lat="48.14933" lon="6.40321">
        <ele>442</ele>
        <time>2022-09-26T14:02:40Z</time>
      </trkpt>
      <trkpt lat="48.14936" lon="6.40324">
        <ele>442</ele>
        <time>2022-09-26T14:02:41Z</time>
      </trkpt>
      <trkpt lat="48.1494" lon="6.40326">
        <ele>442</ele>
        <time>2022-09-26T14:02:42Z</time>
      </trkpt>
      <trkpt lat="48.14943" lon="6.40328">
        <ele>442</ele>
        <time>2022-09-26T14:02:43Z</time>
      </trkpt>
      <trkpt lat="48.14946" lon="6.40329">
        <ele>442</ele>
        <time>2022-09-26T14:02:44Z</time>
      </trkpt>
      <trkpt lat="48.1495" lon="6.4033">
        <ele>442</ele>
        <time>2022-09-26T14:02:45Z</time>
      </trkpt>
      <trkpt lat="48.14953" lon="6.40331">
        <ele>442</ele>
        <time>2022-09-26T14:02:46Z</time>
      </trkpt>
      <trkpt lat="48.14957" lon="6.40331">
        <ele>441</ele>
        <time>2022-09-26T14:02:47Z</time>
      </trkpt>
      <trkpt lat="48.14961" lon="6.4033">
        <ele>441</ele>
        <time>2022-09-26T14:02:48Z</time>
      </trkpt>
      <trkpt lat="48.14965" lon="6.40329">
        <ele>441</ele>
        <time>2022-09-26T14:02:49Z</time>
      </trkpt>
      <trkpt lat="48.14971" lon="6.40328">
        <ele>441</ele>
        <time>2022-09-26T14:02:50Z</time>
      </trkpt>
      <trkpt lat="48.14976" lon="6.40329">
        <ele>440</ele>
        <time>2022-09-26T14:02:51Z</time>
      </trkpt>
      <trkpt lat="48.1498" lon="6.40329">
        <ele>440</ele>
        <time>2022-09-26T14:02:52Z</time>
      </trkpt>
      <trkpt lat="48.14985" lon="6.40329">
        <ele>440</ele>
        <time>2022-09-26T14:02:53Z</time>
      </trkpt>
      <trkpt lat="48.14989" lon="6.40329">
        <ele>439</ele>
        <time>2022-09-26T14:02:54Z</time>
      </trkpt>
      <trkpt lat="48.14994" lon="6.40327">
        <ele>439</ele>
        <time>2022-09-26T14:02:55Z</time>
      </trkpt>
      <trkpt lat="48.14999" lon="6.40325">
        <ele>439</ele>
        <time>2022-09-26T14:02:56Z</time>
      </trkpt>
      <trkpt lat="48.15003" lon="6.40321">
        <ele>439</ele>
        <time>2022-09-26T14:02:57Z</time>
      </trkpt>
      <trkpt lat="48.15007" lon="6.40318">
        <ele>439</ele>
        <time>2022-09-26T14:02:58Z</time>
      </trkpt>
      <trkpt lat="48.15012" lon="6.40315">
        <ele>439</ele>
        <time>2022-09-26T14:02:59Z</time>
      </trkpt>
      <trkpt lat="48.15016" lon="6.40311">
        <ele>440</ele>
        <time>2022-09-26T14:03:00Z</time>
      </trkpt>
      <trkpt lat="48.1502" lon="6.40306">
        <ele>440</ele>
        <time>2022-09-26T14:03:01Z</time>
      </trkpt>
      <trkpt lat="48.15025" lon="6.40301">
        <ele>440</ele>
        <time>2022-09-26T14:03:02Z</time>
      </trkpt>
      <trkpt lat="48.15029" lon="6.40295">
        <ele>440</ele>
        <time>2022-09-26T14:03:03Z</time>
      </trkpt>
      <trkpt lat="48.15034" lon="6.40289">
        <ele>440</ele>
        <time>2022-09-26T14:03:04Z</time>
      </trkpt>
      <trkpt lat="48.1504" lon="6.40278">
        <ele>440</ele>
        <time>2022-09-26T14:03:05Z</time>
      </trkpt>
      <trkpt lat="48.15044" lon="6.4027">
        <ele>440</ele>
        <time>2022-09-26T14:03:06Z</time>
      </trkpt>
      <trkpt lat="48.15048" lon="6.40262">
        <ele>440</ele>
        <time>2022-09-26T14:03:07Z</time>
      </trkpt>
      <trkpt lat="48.15052" lon="6.40254">
        <ele>440</ele>
        <time>2022-09-26T14:03:08Z</time>
      </trkpt>
      <trkpt lat="48.15056" lon="6.40248">
        <ele>439</ele>
        <time>2022-09-26T14:03:09Z</time>
      </trkpt>
      <trkpt lat="48.15059" lon="6.40245">
        <ele>440</ele>
        <time>2022-09-26T14:03:10Z</time>
      </trkpt>
      <trkpt lat="48.15063" lon="6.40244">
        <ele>440</ele>
        <time>2022-09-26T14:03:11Z</time>
      </trkpt>
      <trkpt lat="48.15067" lon="6.40242">
        <ele>440</ele>
        <time>2022-09-26T14:03:12Z</time>
      </trkpt>
      <trkpt lat="48.15072" lon="6.40239">
        <ele>440</ele>
        <time>2022-09-26T14:03:13Z</time>
      </trkpt>
      <trkpt lat="48.15075" lon="6.40238">
        <ele>440</ele>
        <time>2022-09-26T14:03:14Z</time>
      </trkpt>
      <trkpt lat="48.15078" lon="6.40236">
        <ele>440</ele>
        <time>2022-09-26T14:03:15Z</time>
      </trkpt>
      <trkpt lat="48.15082" lon="6.40235">
        <ele>440</ele>
        <time>2022-09-26T14:03:16Z</time>
      </trkpt>
      <trkpt lat="48.15086" lon="6.40233">
        <ele>440</ele>
        <time>2022-09-26T14:03:17Z</time>
      </trkpt>
      <trkpt lat="48.15091" lon="6.40228">
        <ele>440</ele>
        <time>2022-09-26T14:03:18Z</time>
      </trkpt>
      <trkpt lat="48.15097" lon="6.40219">
        <ele>440</ele>
        <time>2022-09-26T14:03:19Z</time>
      </trkpt>
      <trkpt lat="48.151" lon="6.40211">
        <ele>440</ele>
        <time>2022-09-26T14:03:20Z</time>
      </trkpt>
      <trkpt lat="48.15103" lon="6.40205">
        <ele>440</ele>
        <time>2022-09-26T14:03:21Z</time>
      </trkpt>
      <trkpt lat="48.15105" lon="6.40198">
        <ele>440</ele>
        <time>2022-09-26T14:03:22Z</time>
      </trkpt>
      <trkpt lat="48.15109" lon="6.4019">
        <ele>440</ele>
        <time>2022-09-26T14:03:23Z</time>
      </trkpt>
      <trkpt lat="48.15114" lon="6.40184">
        <ele>440</ele>
        <time>2022-09-26T14:03:24Z</time>
      </trkpt>
      <trkpt lat="48.15119" lon="6.40176">
        <ele>440</ele>
        <time>2022-09-26T14:03:25Z</time>
      </trkpt>
      <trkpt lat="48.15122" lon="6.4017">
        <ele>440</ele>
        <time>2022-09-26T14:03:26Z</time>
      </trkpt>
      <trkpt lat="48.15125" lon="6.40167">
        <ele>441</ele>
        <time>2022-09-26T14:03:27Z</time>
      </trkpt>
      <trkpt lat="48.15128" lon="6.40163">
        <ele>440</ele>
        <time>2022-09-26T14:03:28Z</time>
      </trkpt>
      <trkpt lat="48.1513" lon="6.40159">
        <ele>440</ele>
        <time>2022-09-26T14:03:29Z</time>
      </trkpt>
      <trkpt lat="48.15133" lon="6.40156">
        <ele>440</ele>
        <time>2022-09-26T14:03:30Z</time>
      </trkpt>
      <trkpt lat="48.15135" lon="6.40152">
        <ele>440</ele>
        <time>2022-09-26T14:03:31Z</time>
      </trkpt>
      <trkpt lat="48.15138" lon="6.40148">
        <ele>440</ele>
        <time>2022-09-26T14:03:32Z</time>
      </trkpt>
      <trkpt lat="48.1514" lon="6.40145">
        <ele>440</ele>
        <time>2022-09-26T14:03:33Z</time>
      </trkpt>
      <trkpt lat="48.15143" lon="6.40142">
        <ele>440</ele>
        <time>2022-09-26T14:03:34Z</time>
      </trkpt>
      <trkpt lat="48.15145" lon="6.40139">
        <ele>440</ele>
        <time>2022-09-26T14:03:35Z</time>
      </trkpt>
      <trkpt lat="48.15146" lon="6.40136">
        <ele>440</ele>
        <time>2022-09-26T14:03:36Z</time>
      </trkpt>
      <trkpt lat="48.15148" lon="6.40133">
        <ele>440</ele>
        <time>2022-09-26T14:03:37Z</time>
      </trkpt>
      <trkpt lat="48.1515" lon="6.4013">
        <ele>440</ele>
        <time>2022-09-26T14:03:38Z</time>
      </trkpt>
      <trkpt lat="48.15151" lon="6.40126">
        <ele>440</ele>
        <time>2022-09-26T14:03:39Z</time>
      </trkpt>
      <trkpt lat="48.15153" lon="6.40123">
        <ele>440</ele>
        <time>2022-09-26T14:03:40Z</time>
      </trkpt>
      <trkpt lat="48.15155" lon="6.40119">
        <ele>440</ele>
        <time>2022-09-26T14:03:41Z</time>
      </trkpt>
      <trkpt lat="48.15157" lon="6.40119">
        <ele>440</ele>
        <time>2022-09-26T14:03:42Z</time>
      </trkpt>
      <trkpt lat="48.1516" lon="6.40119">
        <ele>441</ele>
        <time>2022-09-26T14:03:43Z</time>
      </trkpt>
      <trkpt lat="48.15162" lon="6.40117">
        <ele>441</ele>
        <time>2022-09-26T14:03:44Z</time>
      </trkpt>
      <trkpt lat="48.15165" lon="6.40115">
        <ele>441</ele>
        <time>2022-09-26T14:03:45Z</time>
      </trkpt>
      <trkpt lat="48.15167" lon="6.40114">
        <ele>441</ele>
        <time>2022-09-26T14:03:46Z</time>
      </trkpt>
      <trkpt lat="48.1517" lon="6.40113">
        <ele>441</ele>
        <time>2022-09-26T14:03:47Z</time>
      </trkpt>
      <trkpt lat="48.15172" lon="6.40111">
        <ele>441</ele>
        <time>2022-09-26T14:03:48Z</time>
      </trkpt>
      <trkpt lat="48.15175" lon="6.4011">
        <ele>441</ele>
        <time>2022-09-26T14:03:49Z</time>
      </trkpt>
      <trkpt lat="48.15178" lon="6.40108">
        <ele>442</ele>
        <time>2022-09-26T14:03:50Z</time>
      </trkpt>
      <trkpt lat="48.15182" lon="6.40106">
        <ele>442</ele>
        <time>2022-09-26T14:03:51Z</time>
      </trkpt>
      <trkpt lat="48.15185" lon="6.40104">
        <ele>442</ele>
        <time>2022-09-26T14:03:52Z</time>
      </trkpt>
      <trkpt lat="48.15188" lon="6.40102">
        <ele>442</ele>
        <time>2022-09-26T14:03:53Z</time>
      </trkpt>
      <trkpt lat="48.15191" lon="6.40101">
        <ele>442</ele>
        <time>2022-09-26T14:03:54Z</time>
      </trkpt>
      <trkpt lat="48.15195" lon="6.401">
        <ele>443</ele>
        <time>2022-09-26T14:03:55Z</time>
      </trkpt>
      <trkpt lat="48.15198" lon="6.40098">
        <ele>443</ele>
        <time>2022-09-26T14:03:56Z</time>
      </trkpt>
      <trkpt lat="48.15202" lon="6.40099">
        <ele>443</ele>
        <time>2022-09-26T14:03:57Z</time>
      </trkpt>
      <trkpt lat="48.15208" lon="6.40095">
        <ele>443</ele>
        <time>2022-09-26T14:03:58Z</time>
      </trkpt>
      <trkpt lat="48.15212" lon="6.40094">
        <ele>443</ele>
        <time>2022-09-26T14:03:59Z</time>
      </trkpt>
      <trkpt lat="48.15216" lon="6.40092">
        <ele>443</ele>
        <time>2022-09-26T14:04:00Z</time>
      </trkpt>
      <trkpt lat="48.15221" lon="6.40077">
        <ele>441</ele>
        <time>2022-09-26T14:04:01Z</time>
      </trkpt>
      <trkpt lat="48.15223" lon="6.40074">
        <ele>441</ele>
        <time>2022-09-26T14:04:02Z</time>
      </trkpt>
      <trkpt lat="48.15228" lon="6.40072">
        <ele>441</ele>
        <time>2022-09-26T14:04:03Z</time>
      </trkpt>
      <trkpt lat="48.15234" lon="6.40071">
        <ele>441</ele>
        <time>2022-09-26T14:04:04Z</time>
      </trkpt>
      <trkpt lat="48.15237" lon="6.40074">
        <ele>441</ele>
        <time>2022-09-26T14:04:05Z</time>
      </trkpt>
      <trkpt lat="48.15236" lon="6.40085">
        <ele>443</ele>
        <time>2022-09-26T14:04:06Z</time>
      </trkpt>
      <trkpt lat="48.15238" lon="6.40083">
        <ele>442</ele>
        <time>2022-09-26T14:04:07Z</time>
      </trkpt>
      <trkpt lat="48.15241" lon="6.40083">
        <ele>442</ele>
        <time>2022-09-26T14:04:08Z</time>
      </trkpt>
      <trkpt lat="48.15244" lon="6.40081">
        <ele>442</ele>
        <time>2022-09-26T14:04:09Z</time>
      </trkpt>
      <trkpt lat="48.15248" lon="6.4008">
        <ele>442</ele>
        <time>2022-09-26T14:04:10Z</time>
      </trkpt>
      <trkpt lat="48.15252" lon="6.40079">
        <ele>442</ele>
        <time>2022-09-26T14:04:11Z</time>
      </trkpt>
      <trkpt lat="48.15255" lon="6.40078">
        <ele>442</ele>
        <time>2022-09-26T14:04:12Z</time>
      </trkpt>
      <trkpt lat="48.15259" lon="6.40076">
        <ele>442</ele>
        <time>2022-09-26T14:04:13Z</time>
      </trkpt>
      <trkpt lat="48.15263" lon="6.40075">
        <ele>443</ele>
        <time>2022-09-26T14:04:14Z</time>
      </trkpt>
      <trkpt lat="48.15267" lon="6.40073">
        <ele>443</ele>
        <time>2022-09-26T14:04:15Z</time>
      </trkpt>
      <trkpt lat="48.15271" lon="6.4007">
        <ele>443</ele>
        <time>2022-09-26T14:04:16Z</time>
      </trkpt>
      <trkpt lat="48.15277" lon="6.40066">
        <ele>443</ele>
        <time>2022-09-26T14:04:17Z</time>
      </trkpt>
      <trkpt lat="48.15282" lon="6.40063">
        <ele>443</ele>
        <time>2022-09-26T14:04:18Z</time>
      </trkpt>
      <trkpt lat="48.15287" lon="6.40061">
        <ele>443</ele>
        <time>2022-09-26T14:04:19Z</time>
      </trkpt>
      <trkpt lat="48.15293" lon="6.4006">
        <ele>444</ele>
        <time>2022-09-26T14:04:20Z</time>
      </trkpt>
      <trkpt lat="48.15299" lon="6.40061">
        <ele>444</ele>
        <time>2022-09-26T14:04:21Z</time>
      </trkpt>
      <trkpt lat="48.15305" lon="6.4006">
        <ele>444</ele>
        <time>2022-09-26T14:04:22Z</time>
      </trkpt>
      <trkpt lat="48.1531" lon="6.4006">
        <ele>444</ele>
        <time>2022-09-26T14:04:23Z</time>
      </trkpt>
      <trkpt lat="48.15314" lon="6.40057">
        <ele>443</ele>
        <time>2022-09-26T14:04:24Z</time>
      </trkpt>
      <trkpt lat="48.15318" lon="6.40057">
        <ele>443</ele>
        <time>2022-09-26T14:04:25Z</time>
      </trkpt>
      <trkpt lat="48.15323" lon="6.40055">
        <ele>442</ele>
        <time>2022-09-26T14:04:26Z</time>
      </trkpt>
      <trkpt lat="48.15329" lon="6.40052">
        <ele>441</ele>
        <time>2022-09-26T14:04:27Z</time>
      </trkpt>
      <trkpt lat="48.15332" lon="6.4005">
        <ele>440</ele>
        <time>2022-09-26T14:04:28Z</time>
      </trkpt>
      <trkpt lat="48.15336" lon="6.40046">
        <ele>440</ele>
        <time>2022-09-26T14:04:29Z</time>
      </trkpt>
      <trkpt lat="48.15339" lon="6.40045">
        <ele>440</ele>
        <time>2022-09-26T14:04:30Z</time>
      </trkpt>
      <trkpt lat="48.15343" lon="6.40043">
        <ele>440</ele>
        <time>2022-09-26T14:04:31Z</time>
      </trkpt>
      <trkpt lat="48.15347" lon="6.40042">
        <ele>441</ele>
        <time>2022-09-26T14:04:32Z</time>
      </trkpt>
      <trkpt lat="48.15349" lon="6.40042">
        <ele>441</ele>
        <time>2022-09-26T14:04:33Z</time>
      </trkpt>
      <trkpt lat="48.15352" lon="6.40043">
        <ele>441</ele>
        <time>2022-09-26T14:04:34Z</time>
      </trkpt>
      <trkpt lat="48.15356" lon="6.40044">
        <ele>442</ele>
        <time>2022-09-26T14:04:35Z</time>
      </trkpt>
      <trkpt lat="48.1536" lon="6.40044">
        <ele>443</ele>
        <time>2022-09-26T14:04:36Z</time>
      </trkpt>
      <trkpt lat="48.15365" lon="6.40042">
        <ele>443</ele>
        <time>2022-09-26T14:04:37Z</time>
      </trkpt>
      <trkpt lat="48.15372" lon="6.40039">
        <ele>444</ele>
        <time>2022-09-26T14:04:38Z</time>
      </trkpt>
      <trkpt lat="48.15375" lon="6.40036">
        <ele>443</ele>
        <time>2022-09-26T14:04:39Z</time>
      </trkpt>
      <trkpt lat="48.1538" lon="6.40031">
        <ele>443</ele>
        <time>2022-09-26T14:04:40Z</time>
      </trkpt>
      <trkpt lat="48.15386" lon="6.40024">
        <ele>442</ele>
        <time>2022-09-26T14:04:41Z</time>
      </trkpt>
      <trkpt lat="48.15389" lon="6.40021">
        <ele>442</ele>
        <time>2022-09-26T14:04:42Z</time>
      </trkpt>
      <trkpt lat="48.15394" lon="6.4002">
        <ele>442</ele>
        <time>2022-09-26T14:04:43Z</time>
      </trkpt>
      <trkpt lat="48.15397" lon="6.40018">
        <ele>442</ele>
        <time>2022-09-26T14:04:44Z</time>
      </trkpt>
      <trkpt lat="48.15398" lon="6.40018">
        <ele>442</ele>
        <time>2022-09-26T14:04:45Z</time>
      </trkpt>
      <trkpt lat="48.15401" lon="6.40017">
        <ele>442</ele>
        <time>2022-09-26T14:04:46Z</time>
      </trkpt>
      <trkpt lat="48.15404" lon="6.40017">
        <ele>442</ele>
        <time>2022-09-26T14:04:47Z</time>
      </trkpt>
      <trkpt lat="48.15408" lon="6.40014">
        <ele>441</ele>
        <time>2022-09-26T14:04:48Z</time>
      </trkpt>
      <trkpt lat="48.15411" lon="6.40011">
        <ele>441</ele>
        <time>2022-09-26T14:04:49Z</time>
      </trkpt>
      <trkpt lat="48.15415" lon="6.40007">
        <ele>440</ele>
        <time>2022-09-26T14:04:50Z</time>
      </trkpt>
      <trkpt lat="48.15419" lon="6.40004">
        <ele>439</ele>
        <time>2022-09-26T14:04:51Z</time>
      </trkpt>
      <trkpt lat="48.15422" lon="6.40002">
        <ele>439</ele>
        <time>2022-09-26T14:04:52Z</time>
      </trkpt>
      <trkpt lat="48.15425" lon="6.4">
        <ele>438</ele>
        <time>2022-09-26T14:04:53Z</time>
      </trkpt>
      <trkpt lat="48.15428" lon="6.39999">
        <ele>438</ele>
        <time>2022-09-26T14:04:54Z</time>
      </trkpt>
      <trkpt lat="48.15431" lon="6.39999">
        <ele>439</ele>
        <time>2022-09-26T14:04:55Z</time>
      </trkpt>
      <trkpt lat="48.15435" lon="6.39999">
        <ele>439</ele>
        <time>2022-09-26T14:04:56Z</time>
      </trkpt>
      <trkpt lat="48.15439" lon="6.39996">
        <ele>439</ele>
        <time>2022-09-26T14:04:57Z</time>
      </trkpt>
      <trkpt lat="48.15443" lon="6.39994">
        <ele>439</ele>
        <time>2022-09-26T14:04:58Z</time>
      </trkpt>
      <trkpt lat="48.15449" lon="6.39992">
        <ele>439</ele>
        <time>2022-09-26T14:04:59Z</time>
      </trkpt>
      <trkpt lat="48.15453" lon="6.39992">
        <ele>439</ele>
        <time>2022-09-26T14:05:00Z</time>
      </trkpt>
      <trkpt lat="48.15458" lon="6.39993">
        <ele>439</ele>
        <time>2022-09-26T14:05:01Z</time>
      </trkpt>
      <trkpt lat="48.15461" lon="6.39993">
        <ele>439</ele>
        <time>2022-09-26T14:05:02Z</time>
      </trkpt>
      <trkpt lat="48.15463" lon="6.39993">
        <ele>439</ele>
        <time>2022-09-26T14:05:03Z</time>
      </trkpt>
      <trkpt lat="48.15466" lon="6.39994">
        <ele>440</ele>
        <time>2022-09-26T14:05:04Z</time>
      </trkpt>
      <trkpt lat="48.15469" lon="6.39995">
        <ele>440</ele>
        <time>2022-09-26T14:05:05Z</time>
      </trkpt>
      <trkpt lat="48.15471" lon="6.39998">
        <ele>441</ele>
        <time>2022-09-26T14:05:06Z</time>
      </trkpt>
      <trkpt lat="48.15475" lon="6.39999">
        <ele>441</ele>
        <time>2022-09-26T14:05:07Z</time>
      </trkpt>
      <trkpt lat="48.15479" lon="6.39999">
        <ele>441</ele>
        <time>2022-09-26T14:05:08Z</time>
      </trkpt>
      <trkpt lat="48.15482" lon="6.4">
        <ele>441</ele>
        <time>2022-09-26T14:05:09Z</time>
      </trkpt>
      <trkpt lat="48.15486" lon="6.40001">
        <ele>441</ele>
        <time>2022-09-26T14:05:10Z</time>
      </trkpt>
      <trkpt lat="48.15489" lon="6.40002">
        <ele>441</ele>
        <time>2022-09-26T14:05:11Z</time>
      </trkpt>
      <trkpt lat="48.15491" lon="6.40003">
        <ele>441</ele>
        <time>2022-09-26T14:05:12Z</time>
      </trkpt>
      <trkpt lat="48.15494" lon="6.40004">
        <ele>441</ele>
        <time>2022-09-26T14:05:13Z</time>
      </trkpt>
      <trkpt lat="48.15497" lon="6.40004">
        <ele>441</ele>
        <time>2022-09-26T14:05:14Z</time>
      </trkpt>
      <trkpt lat="48.15499" lon="6.40005">
        <ele>441</ele>
        <time>2022-09-26T14:05:15Z</time>
      </trkpt>
      <trkpt lat="48.15503" lon="6.40003">
        <ele>441</ele>
        <time>2022-09-26T14:05:16Z</time>
      </trkpt>
      <trkpt lat="48.15506" lon="6.40004">
        <ele>441</ele>
        <time>2022-09-26T14:05:17Z</time>
      </trkpt>
      <trkpt lat="48.15508" lon="6.40005">
        <ele>441</ele>
        <time>2022-09-26T14:05:18Z</time>
      </trkpt>
      <trkpt lat="48.15511" lon="6.40005">
        <ele>440</ele>
        <time>2022-09-26T14:05:19Z</time>
      </trkpt>
      <trkpt lat="48.15513" lon="6.40005">
        <ele>440</ele>
        <time>2022-09-26T14:05:20Z</time>
      </trkpt>
      <trkpt lat="48.15516" lon="6.40005">
        <ele>440</ele>
        <time>2022-09-26T14:05:21Z</time>
      </trkpt>
      <trkpt lat="48.1552" lon="6.40004">
        <ele>440</ele>
        <time>2022-09-26T14:05:22Z</time>
      </trkpt>
      <trkpt lat="48.15524" lon="6.40003">
        <ele>439</ele>
        <time>2022-09-26T14:05:23Z</time>
      </trkpt>
      <trkpt lat="48.15528" lon="6.40001">
        <ele>439</ele>
        <time>2022-09-26T14:05:24Z</time>
      </trkpt>
      <trkpt lat="48.15531" lon="6.39999">
        <ele>437</ele>
        <time>2022-09-26T14:05:25Z</time>
      </trkpt>
      <trkpt lat="48.15534" lon="6.39999">
        <ele>436</ele>
        <time>2022-09-26T14:05:26Z</time>
      </trkpt>
      <trkpt lat="48.15537" lon="6.39998">
        <ele>435</ele>
        <time>2022-09-26T14:05:27Z</time>
      </trkpt>
      <trkpt lat="48.1554" lon="6.4">
        <ele>435</ele>
        <time>2022-09-26T14:05:28Z</time>
      </trkpt>
      <trkpt lat="48.15544" lon="6.40002">
        <ele>434</ele>
        <time>2022-09-26T14:05:29Z</time>
      </trkpt>
      <trkpt lat="48.15547" lon="6.40003">
        <ele>433</ele>
        <time>2022-09-26T14:05:30Z</time>
      </trkpt>
      <trkpt lat="48.15551" lon="6.40006">
        <ele>432</ele>
        <time>2022-09-26T14:05:31Z</time>
      </trkpt>
      <trkpt lat="48.15556" lon="6.4001">
        <ele>430</ele>
        <time>2022-09-26T14:05:32Z</time>
      </trkpt>
      <trkpt lat="48.15561" lon="6.40014">
        <ele>430</ele>
        <time>2022-09-26T14:05:33Z</time>
      </trkpt>
      <trkpt lat="48.15565" lon="6.40017">
        <ele>429</ele>
        <time>2022-09-26T14:05:34Z</time>
      </trkpt>
      <trkpt lat="48.15569" lon="6.4002">
        <ele>428</ele>
        <time>2022-09-26T14:05:35Z</time>
      </trkpt>
      <trkpt lat="48.15573" lon="6.40023">
        <ele>428</ele>
        <time>2022-09-26T14:05:36Z</time>
      </trkpt>
      <trkpt lat="48.15576" lon="6.40026">
        <ele>428</ele>
        <time>2022-09-26T14:05:37Z</time>
      </trkpt>
      <trkpt lat="48.15579" lon="6.40029">
        <ele>428</ele>
        <time>2022-09-26T14:05:38Z</time>
      </trkpt>
      <trkpt lat="48.15584" lon="6.40031">
        <ele>427</ele>
        <time>2022-09-26T14:05:39Z</time>
      </trkpt>
      <trkpt lat="48.15588" lon="6.40033">
        <ele>428</ele>
        <time>2022-09-26T14:05:40Z</time>
      </trkpt>
      <trkpt lat="48.15592" lon="6.40036">
        <ele>428</ele>
        <time>2022-09-26T14:05:41Z</time>
      </trkpt>
      <trkpt lat="48.15595" lon="6.40038">
        <ele>429</ele>
        <time>2022-09-26T14:05:42Z</time>
      </trkpt>
      <trkpt lat="48.15599" lon="6.40041">
        <ele>430</ele>
        <time>2022-09-26T14:05:43Z</time>
      </trkpt>
      <trkpt lat="48.15604" lon="6.40043">
        <ele>430</ele>
        <time>2022-09-26T14:05:44Z</time>
      </trkpt>
      <trkpt lat="48.15609" lon="6.40047">
        <ele>431</ele>
        <time>2022-09-26T14:05:45Z</time>
      </trkpt>
      <trkpt lat="48.15614" lon="6.4005">
        <ele>432</ele>
        <time>2022-09-26T14:05:46Z</time>
      </trkpt>
      <trkpt lat="48.15619" lon="6.40053">
        <ele>432</ele>
        <time>2022-09-26T14:05:47Z</time>
      </trkpt>
      <trkpt lat="48.15625" lon="6.40056">
        <ele>433</ele>
        <time>2022-09-26T14:05:48Z</time>
      </trkpt>
      <trkpt lat="48.15631" lon="6.40058">
        <ele>434</ele>
        <time>2022-09-26T14:05:49Z</time>
      </trkpt>
      <trkpt lat="48.15637" lon="6.40061">
        <ele>434</ele>
        <time>2022-09-26T14:05:50Z</time>
      </trkpt>
      <trkpt lat="48.15643" lon="6.40064">
        <ele>434</ele>
        <time>2022-09-26T14:05:51Z</time>
      </trkpt>
      <trkpt lat="48.15649" lon="6.40068">
        <ele>435</ele>
        <time>2022-09-26T14:05:52Z</time>
      </trkpt>
      <trkpt lat="48.15655" lon="6.40072">
        <ele>435</ele>
        <time>2022-09-26T14:05:53Z</time>
      </trkpt>
      <trkpt lat="48.15662" lon="6.40075">
        <ele>435</ele>
        <time>2022-09-26T14:05:54Z</time>
      </trkpt>
      <trkpt lat="48.15668" lon="6.40079">
        <ele>436</ele>
        <time>2022-09-26T14:05:55Z</time>
      </trkpt>
      <trkpt lat="48.15675" lon="6.40084">
        <ele>436</ele>
        <time>2022-09-26T14:05:56Z</time>
      </trkpt>
      <trkpt lat="48.15681" lon="6.40089">
        <ele>436</ele>
        <time>2022-09-26T14:05:57Z</time>
      </trkpt>
      <trkpt lat="48.15686" lon="6.40093">
        <ele>436</ele>
        <time>2022-09-26T14:05:58Z</time>
      </trkpt>
      <trkpt lat="48.15692" lon="6.40097">
        <ele>436</ele>
        <time>2022-09-26T14:05:59Z</time>
      </trkpt>
      <trkpt lat="48.15696" lon="6.40102">
        <ele>436</ele>
        <time>2022-09-26T14:06:00Z</time>
      </trkpt>
      <trkpt lat="48.157" lon="6.40106">
        <ele>436</ele>
        <time>2022-09-26T14:06:01Z</time>
      </trkpt>
      <trkpt lat="48.15704" lon="6.40109">
        <ele>435</ele>
        <time>2022-09-26T14:06:02Z</time>
      </trkpt>
      <trkpt lat="48.15708" lon="6.40112">
        <ele>435</ele>
        <time>2022-09-26T14:06:03Z</time>
      </trkpt>
      <trkpt lat="48.15709" lon="6.40116">
        <ele>435</ele>
        <time>2022-09-26T14:06:04Z</time>
      </trkpt>
      <trkpt lat="48.1571" lon="6.4012">
        <ele>436</ele>
        <time>2022-09-26T14:06:05Z</time>
      </trkpt>
      <trkpt lat="48.15712" lon="6.40124">
        <ele>436</ele>
        <time>2022-09-26T14:06:06Z</time>
      </trkpt>
      <trkpt lat="48.15714" lon="6.40128">
        <ele>436</ele>
        <time>2022-09-26T14:06:07Z</time>
      </trkpt>
      <trkpt lat="48.15716" lon="6.40131">
        <ele>436</ele>
        <time>2022-09-26T14:06:08Z</time>
      </trkpt>
      <trkpt lat="48.15718" lon="6.40135">
        <ele>436</ele>
        <time>2022-09-26T14:06:09Z</time>
      </trkpt>
      <trkpt lat="48.15719" lon="6.40138">
        <ele>437</ele>
        <time>2022-09-26T14:06:10Z</time>
      </trkpt>
      <trkpt lat="48.1572" lon="6.40141">
        <ele>437</ele>
        <time>2022-09-26T14:06:11Z</time>
      </trkpt>
      <trkpt lat="48.15722" lon="6.40144">
        <ele>437</ele>
        <time>2022-09-26T14:06:12Z</time>
      </trkpt>
      <trkpt lat="48.15722" lon="6.40147">
        <ele>437</ele>
        <time>2022-09-26T14:06:13Z</time>
      </trkpt>
      <trkpt lat="48.15724" lon="6.4015">
        <ele>437</ele>
        <time>2022-09-26T14:06:14Z</time>
      </trkpt>
      <trkpt lat="48.15725" lon="6.40151">
        <ele>436</ele>
        <time>2022-09-26T14:06:15Z</time>
      </trkpt>
      <trkpt lat="48.15726" lon="6.40152">
        <ele>436</ele>
        <time>2022-09-26T14:06:16Z</time>
      </trkpt>
      <trkpt lat="48.15728" lon="6.40154">
        <ele>436</ele>
        <time>2022-09-26T14:06:17Z</time>
      </trkpt>
      <trkpt lat="48.1573" lon="6.40156">
        <ele>436</ele>
        <time>2022-09-26T14:06:18Z</time>
      </trkpt>
      <trkpt lat="48.15732" lon="6.40159">
        <ele>435</ele>
        <time>2022-09-26T14:06:19Z</time>
      </trkpt>
      <trkpt lat="48.15734" lon="6.40162">
        <ele>435</ele>
        <time>2022-09-26T14:06:20Z</time>
      </trkpt>
      <trkpt lat="48.15736" lon="6.40165">
        <ele>435</ele>
        <time>2022-09-26T14:06:21Z</time>
      </trkpt>
      <trkpt lat="48.15738" lon="6.40168">
        <ele>435</ele>
        <time>2022-09-26T14:06:22Z</time>
      </trkpt>
      <trkpt lat="48.1574" lon="6.40171">
        <ele>434</ele>
        <time>2022-09-26T14:06:23Z</time>
      </trkpt>
      <trkpt lat="48.15743" lon="6.40173">
        <ele>434</ele>
        <time>2022-09-26T14:06:24Z</time>
      </trkpt>
      <trkpt lat="48.15745" lon="6.40176">
        <ele>433</ele>
        <time>2022-09-26T14:06:25Z</time>
      </trkpt>
      <trkpt lat="48.15748" lon="6.4018">
        <ele>433</ele>
        <time>2022-09-26T14:06:26Z</time>
      </trkpt>
      <trkpt lat="48.15751" lon="6.40183">
        <ele>432</ele>
        <time>2022-09-26T14:06:27Z</time>
      </trkpt>
      <trkpt lat="48.15755" lon="6.40186">
        <ele>432</ele>
        <time>2022-09-26T14:06:28Z</time>
      </trkpt>
      <trkpt lat="48.15761" lon="6.4019">
        <ele>431</ele>
        <time>2022-09-26T14:06:29Z</time>
      </trkpt>
      <trkpt lat="48.15766" lon="6.40194">
        <ele>430</ele>
        <time>2022-09-26T14:06:30Z</time>
      </trkpt>
      <trkpt lat="48.15771" lon="6.40198">
        <ele>428</ele>
        <time>2022-09-26T14:06:31Z</time>
      </trkpt>
      <trkpt lat="48.15776" lon="6.40203">
        <ele>427</ele>
        <time>2022-09-26T14:06:32Z</time>
      </trkpt>
      <trkpt lat="48.15781" lon="6.40208">
        <ele>426</ele>
        <time>2022-09-26T14:06:33Z</time>
      </trkpt>
      <trkpt lat="48.15783" lon="6.40213">
        <ele>425</ele>
        <time>2022-09-26T14:06:34Z</time>
      </trkpt>
      <trkpt lat="48.15786" lon="6.40218">
        <ele>424</ele>
        <time>2022-09-26T14:06:35Z</time>
      </trkpt>
      <trkpt lat="48.15789" lon="6.40223">
        <ele>423</ele>
        <time>2022-09-26T14:06:36Z</time>
      </trkpt>
      <trkpt lat="48.15789" lon="6.40226">
        <ele>423</ele>
        <time>2022-09-26T14:06:37Z</time>
      </trkpt>
      <trkpt lat="48.15789" lon="6.40229">
        <ele>423</ele>
        <time>2022-09-26T14:06:38Z</time>
      </trkpt>
      <trkpt lat="48.15789" lon="6.4023">
        <ele>422</ele>
        <time>2022-09-26T14:06:39Z</time>
      </trkpt>
      <trkpt lat="48.15789" lon="6.40233">
        <ele>422</ele>
        <time>2022-09-26T14:06:40Z</time>
      </trkpt>
      <trkpt lat="48.15788" lon="6.40235">
        <ele>422</ele>
        <time>2022-09-26T14:06:41Z</time>
      </trkpt>
      <trkpt lat="48.15787" lon="6.40236">
        <ele>423</ele>
        <time>2022-09-26T14:06:42Z</time>
      </trkpt>
      <trkpt lat="48.15787" lon="6.40237">
        <ele>422</ele>
        <time>2022-09-26T14:06:43Z</time>
      </trkpt>
      <trkpt lat="48.15787" lon="6.40239">
        <ele>422</ele>
        <time>2022-09-26T14:06:44Z</time>
      </trkpt>
      <trkpt lat="48.15789" lon="6.40242">
        <ele>422</ele>
        <time>2022-09-26T14:06:45Z</time>
      </trkpt>
      <trkpt lat="48.15792" lon="6.40245">
        <ele>421</ele>
        <time>2022-09-26T14:06:46Z</time>
      </trkpt>
      <trkpt lat="48.15795" lon="6.40246">
        <ele>420</ele>
        <time>2022-09-26T14:06:47Z</time>
      </trkpt>
      <trkpt lat="48.15798" lon="6.40248">
        <ele>419</ele>
        <time>2022-09-26T14:06:48Z</time>
      </trkpt>
      <trkpt lat="48.15801" lon="6.4025">
        <ele>419</ele>
        <time>2022-09-26T14:06:49Z</time>
      </trkpt>
      <trkpt lat="48.15803" lon="6.40252">
        <ele>418</ele>
        <time>2022-09-26T14:06:50Z</time>
      </trkpt>
      <trkpt lat="48.15805" lon="6.40254">
        <ele>417</ele>
        <time>2022-09-26T14:06:51Z</time>
      </trkpt>
      <trkpt lat="48.15805" lon="6.40255">
        <ele>417</ele>
        <time>2022-09-26T14:06:52Z</time>
      </trkpt>
      <trkpt lat="48.15806" lon="6.40255">
        <ele>417</ele>
        <time>2022-09-26T14:06:53Z</time>
      </trkpt>
      <trkpt lat="48.15808" lon="6.40254">
        <ele>417</ele>
        <time>2022-09-26T14:06:54Z</time>
      </trkpt>
      <trkpt lat="48.15809" lon="6.40253">
        <ele>417</ele>
        <time>2022-09-26T14:06:55Z</time>
      </trkpt>
      <trkpt lat="48.1581" lon="6.40253">
        <ele>417</ele>
        <time>2022-09-26T14:06:56Z</time>
      </trkpt>
      <trkpt lat="48.15812" lon="6.40253">
        <ele>417</ele>
        <time>2022-09-26T14:06:57Z</time>
      </trkpt>
      <trkpt lat="48.15813" lon="6.40255">
        <ele>417</ele>
        <time>2022-09-26T14:06:58Z</time>
      </trkpt>
      <trkpt lat="48.15814" lon="6.40256">
        <ele>416</ele>
        <time>2022-09-26T14:06:59Z</time>
      </trkpt>
      <trkpt lat="48.15816" lon="6.40259">
        <ele>416</ele>
        <time>2022-09-26T14:07:00Z</time>
      </trkpt>
      <trkpt lat="48.15817" lon="6.40261">
        <ele>416</ele>
        <time>2022-09-26T14:07:01Z</time>
      </trkpt>
      <trkpt lat="48.15819" lon="6.40264">
        <ele>416</ele>
        <time>2022-09-26T14:07:02Z</time>
      </trkpt>
      <trkpt lat="48.15819" lon="6.40266">
        <ele>415</ele>
        <time>2022-09-26T14:07:03Z</time>
      </trkpt>
      <trkpt lat="48.1582" lon="6.40265">
        <ele>415</ele>
        <time>2022-09-26T14:07:04Z</time>
      </trkpt>
      <trkpt lat="48.15821" lon="6.40264">
        <ele>415</ele>
        <time>2022-09-26T14:07:05Z</time>
      </trkpt>
      <trkpt lat="48.15821" lon="6.40263">
        <ele>415</ele>
        <time>2022-09-26T14:07:06Z</time>
      </trkpt>
      <trkpt lat="48.15822" lon="6.40263">
        <ele>415</ele>
        <time>2022-09-26T14:07:07Z</time>
      </trkpt>
      <trkpt lat="48.15822" lon="6.40264">
        <ele>415</ele>
        <time>2022-09-26T14:07:08Z</time>
      </trkpt>
      <trkpt lat="48.15822" lon="6.40265">
        <ele>415</ele>
        <time>2022-09-26T14:07:09Z</time>
      </trkpt>
      <trkpt lat="48.15823" lon="6.40266">
        <ele>415</ele>
        <time>2022-09-26T14:07:10Z</time>
      </trkpt>
      <trkpt lat="48.15823" lon="6.40267">
        <ele>415</ele>
        <time>2022-09-26T14:07:11Z</time>
      </trkpt>
      <trkpt lat="48.15823" lon="6.40267">
        <ele>415</ele>
        <time>2022-09-26T14:07:12Z</time>
      </trkpt>
      <trkpt lat="48.15823" lon="6.40267">
        <ele>415</ele>
        <time>2022-09-26T14:07:13Z</time>
      </trkpt>
      <trkpt lat="48.15824" lon="6.40268">
        <ele>415</ele>
        <time>2022-09-26T14:07:14Z</time>
      </trkpt>
      <trkpt lat="48.15825" lon="6.40269">
        <ele>415</ele>
        <time>2022-09-26T14:07:15Z</time>
      </trkpt>
      <trkpt lat="48.15824" lon="6.4027">
        <ele>415</ele>
        <time>2022-09-26T14:07:16Z</time>
      </trkpt>
      <trkpt lat="48.15824" lon="6.40272">
        <ele>415</ele>
        <time>2022-09-26T14:07:17Z</time>
      </trkpt>
      <trkpt lat="48.15824" lon="6.40273">
        <ele>415</ele>
        <time>2022-09-26T14:07:18Z</time>
      </trkpt>
      <trkpt lat="48.15824" lon="6.40273">
        <ele>415</ele>
        <time>2022-09-26T14:07:19Z</time>
      </trkpt>
      <trkpt lat="48.15823" lon="6.40274">
        <ele>414</ele>
        <time>2022-09-26T14:07:20Z</time>
      </trkpt>
      <trkpt lat="48.15823" lon="6.40275">
        <ele>414</ele>
        <time>2022-09-26T14:07:21Z</time>
      </trkpt>
      <trkpt lat="48.15821" lon="6.40276">
        <ele>414</ele>
        <time>2022-09-26T14:07:22Z</time>
      </trkpt>
      <trkpt lat="48.1582" lon="6.40277">
        <ele>415</ele>
        <time>2022-09-26T14:07:23Z</time>
      </trkpt>
      <trkpt lat="48.15819" lon="6.40278">
        <ele>414</ele>
        <time>2022-09-26T14:07:24Z</time>
      </trkpt>
      <trkpt lat="48.15819" lon="6.40279">
        <ele>414</ele>
        <time>2022-09-26T14:07:25Z</time>
      </trkpt>
      <trkpt lat="48.15819" lon="6.40281">
        <ele>414</ele>
        <time>2022-09-26T14:07:26Z</time>
      </trkpt>
      <trkpt lat="48.15819" lon="6.40285">
        <ele>414</ele>
        <time>2022-09-26T14:07:27Z</time>
      </trkpt>
      <trkpt lat="48.1582" lon="6.40288">
        <ele>413</ele>
        <time>2022-09-26T14:07:28Z</time>
      </trkpt>
      <trkpt lat="48.15822" lon="6.40291">
        <ele>413</ele>
        <time>2022-09-26T14:07:29Z</time>
      </trkpt>
      <trkpt lat="48.15823" lon="6.40296">
        <ele>412</ele>
        <time>2022-09-26T14:07:30Z</time>
      </trkpt>
      <trkpt lat="48.15823" lon="6.40299">
        <ele>412</ele>
        <time>2022-09-26T14:07:31Z</time>
      </trkpt>
      <trkpt lat="48.15822" lon="6.40301">
        <ele>411</ele>
        <time>2022-09-26T14:07:32Z</time>
      </trkpt>
      <trkpt lat="48.15819" lon="6.40301">
        <ele>412</ele>
        <time>2022-09-26T14:07:33Z</time>
      </trkpt>
      <trkpt lat="48.15818" lon="6.40302">
        <ele>412</ele>
        <time>2022-09-26T14:07:34Z</time>
      </trkpt>
      <trkpt lat="48.15817" lon="6.40303">
        <ele>411</ele>
        <time>2022-09-26T14:07:35Z</time>
      </trkpt>
      <trkpt lat="48.15816" lon="6.40304">
        <ele>411</ele>
        <time>2022-09-26T14:07:36Z</time>
      </trkpt>
      <trkpt lat="48.15814" lon="6.40306">
        <ele>411</ele>
        <time>2022-09-26T14:07:37Z</time>
      </trkpt>
      <trkpt lat="48.15813" lon="6.40309">
        <ele>411</ele>
        <time>2022-09-26T14:07:38Z</time>
      </trkpt>
      <trkpt lat="48.15812" lon="6.40313">
        <ele>411</ele>
        <time>2022-09-26T14:07:39Z</time>
      </trkpt>
      <trkpt lat="48.15811" lon="6.40315">
        <ele>411</ele>
        <time>2022-09-26T14:07:40Z</time>
      </trkpt>
      <trkpt lat="48.1581" lon="6.40317">
        <ele>411</ele>
        <time>2022-09-26T14:07:41Z</time>
      </trkpt>
      <trkpt lat="48.15809" lon="6.40318">
        <ele>411</ele>
        <time>2022-09-26T14:07:42Z</time>
      </trkpt>
      <trkpt lat="48.15809" lon="6.40321">
        <ele>411</ele>
        <time>2022-09-26T14:07:43Z</time>
      </trkpt>
      <trkpt lat="48.1581" lon="6.40323">
        <ele>411</ele>
        <time>2022-09-26T14:07:44Z</time>
      </trkpt>
      <trkpt lat="48.15812" lon="6.40323">
        <ele>411</ele>
        <time>2022-09-26T14:07:45Z</time>
      </trkpt>
      <trkpt lat="48.15815" lon="6.40324">
        <ele>411</ele>
        <time>2022-09-26T14:07:46Z</time>
      </trkpt>
      <trkpt lat="48.15819" lon="6.40324">
        <ele>411</ele>
        <time>2022-09-26T14:07:47Z</time>
      </trkpt>
      <trkpt lat="48.15823" lon="6.40324">
        <ele>411</ele>
        <time>2022-09-26T14:07:48Z</time>
      </trkpt>
      <trkpt lat="48.15826" lon="6.40325">
        <ele>411</ele>
        <time>2022-09-26T14:07:49Z</time>
      </trkpt>
      <trkpt lat="48.1583" lon="6.40326">
        <ele>411</ele>
        <time>2022-09-26T14:07:50Z</time>
      </trkpt>
      <trkpt lat="48.15833" lon="6.40326">
        <ele>411</ele>
        <time>2022-09-26T14:07:51Z</time>
      </trkpt>
      <trkpt lat="48.15837" lon="6.40327">
        <ele>410</ele>
        <time>2022-09-26T14:07:52Z</time>
      </trkpt>
      <trkpt lat="48.1584" lon="6.40329">
        <ele>410</ele>
        <time>2022-09-26T14:07:53Z</time>
      </trkpt>
      <trkpt lat="48.15842" lon="6.4033">
        <ele>410</ele>
        <time>2022-09-26T14:07:54Z</time>
      </trkpt>
      <trkpt lat="48.15845" lon="6.40331">
        <ele>410</ele>
        <time>2022-09-26T14:07:55Z</time>
      </trkpt>
      <trkpt lat="48.15847" lon="6.40333">
        <ele>410</ele>
        <time>2022-09-26T14:07:56Z</time>
      </trkpt>
      <trkpt lat="48.15849" lon="6.40335">
        <ele>410</ele>
        <time>2022-09-26T14:07:57Z</time>
      </trkpt>
      <trkpt lat="48.15851" lon="6.40337">
        <ele>410</ele>
        <time>2022-09-26T14:07:58Z</time>
      </trkpt>
      <trkpt lat="48.15853" lon="6.40339">
        <ele>410</ele>
        <time>2022-09-26T14:07:59Z</time>
      </trkpt>
      <trkpt lat="48.15854" lon="6.4034">
        <ele>410</ele>
        <time>2022-09-26T14:08:00Z</time>
      </trkpt>
      <trkpt lat="48.15857" lon="6.40341">
        <ele>410</ele>
        <time>2022-09-26T14:08:01Z</time>
      </trkpt>
      <trkpt lat="48.1586" lon="6.40342">
        <ele>410</ele>
        <time>2022-09-26T14:08:02Z</time>
      </trkpt>
      <trkpt lat="48.15863" lon="6.40342">
        <ele>409</ele>
        <time>2022-09-26T14:08:03Z</time>
      </trkpt>
      <trkpt lat="48.15865" lon="6.40342">
        <ele>409</ele>
        <time>2022-09-26T14:08:04Z</time>
      </trkpt>
      <trkpt lat="48.15867" lon="6.40342">
        <ele>409</ele>
        <time>2022-09-26T14:08:05Z</time>
      </trkpt>
      <trkpt lat="48.1587" lon="6.40342">
        <ele>409</ele>
        <time>2022-09-26T14:08:06Z</time>
      </trkpt>
      <trkpt lat="48.15873" lon="6.40343">
        <ele>409</ele>
        <time>2022-09-26T14:08:07Z</time>
      </trkpt>
      <trkpt lat="48.15878" lon="6.40348">
        <ele>409</ele>
        <time>2022-09-26T14:08:08Z</time>
      </trkpt>
      <trkpt lat="48.15882" lon="6.40348">
        <ele>409</ele>
        <time>2022-09-26T14:08:09Z</time>
      </trkpt>
      <trkpt lat="48.15888" lon="6.4035">
        <ele>409</ele>
        <time>2022-09-26T14:08:10Z</time>
      </trkpt>
      <trkpt lat="48.15893" lon="6.40353">
        <ele>409</ele>
        <time>2022-09-26T14:08:11Z</time>
      </trkpt>
      <trkpt lat="48.15899" lon="6.4035">
        <ele>408</ele>
        <time>2022-09-26T14:08:12Z</time>
      </trkpt>
      <trkpt lat="48.15898" lon="6.40352">
        <ele>409</ele>
        <time>2022-09-26T14:08:13Z</time>
      </trkpt>
      <trkpt lat="48.15902" lon="6.40351">
        <ele>408</ele>
        <time>2022-09-26T14:08:14Z</time>
      </trkpt>
      <trkpt lat="48.15907" lon="6.40348">
        <ele>408</ele>
        <time>2022-09-26T14:08:15Z</time>
      </trkpt>
      <trkpt lat="48.15915" lon="6.40346">
        <ele>408</ele>
        <time>2022-09-26T14:08:16Z</time>
      </trkpt>
      <trkpt lat="48.15921" lon="6.40345">
        <ele>407</ele>
        <time>2022-09-26T14:08:17Z</time>
      </trkpt>
      <trkpt lat="48.15929" lon="6.40345">
        <ele>406</ele>
        <time>2022-09-26T14:08:18Z</time>
      </trkpt>
      <trkpt lat="48.15936" lon="6.40338">
        <ele>405</ele>
        <time>2022-09-26T14:08:19Z</time>
      </trkpt>
      <trkpt lat="48.15943" lon="6.40327">
        <ele>403</ele>
        <time>2022-09-26T14:08:20Z</time>
      </trkpt>
      <trkpt lat="48.15947" lon="6.40326">
        <ele>403</ele>
        <time>2022-09-26T14:08:21Z</time>
      </trkpt>
      <trkpt lat="48.1595" lon="6.40321">
        <ele>402</ele>
        <time>2022-09-26T14:08:22Z</time>
      </trkpt>
      <trkpt lat="48.15955" lon="6.40318">
        <ele>402</ele>
        <time>2022-09-26T14:08:23Z</time>
      </trkpt>
      <trkpt lat="48.1596" lon="6.40315">
        <ele>401</ele>
        <time>2022-09-26T14:08:24Z</time>
      </trkpt>
      <trkpt lat="48.15964" lon="6.4031">
        <ele>401</ele>
        <time>2022-09-26T14:08:25Z</time>
      </trkpt>
      <trkpt lat="48.15968" lon="6.40305">
        <ele>401</ele>
        <time>2022-09-26T14:08:26Z</time>
      </trkpt>
      <trkpt lat="48.15971" lon="6.40298">
        <ele>401</ele>
        <time>2022-09-26T14:08:27Z</time>
      </trkpt>
      <trkpt lat="48.15974" lon="6.40295">
        <ele>401</ele>
        <time>2022-09-26T14:08:28Z</time>
      </trkpt>
      <trkpt lat="48.15976" lon="6.40294">
        <ele>401</ele>
        <time>2022-09-26T14:08:29Z</time>
      </trkpt>
      <trkpt lat="48.15978" lon="6.40293">
        <ele>401</ele>
        <time>2022-09-26T14:08:30Z</time>
      </trkpt>
      <trkpt lat="48.15978" lon="6.40293">
        <ele>401</ele>
        <time>2022-09-26T14:08:31Z</time>
      </trkpt>
      <trkpt lat="48.15979" lon="6.40293">
        <ele>401</ele>
        <time>2022-09-26T14:08:32Z</time>
      </trkpt>
      <trkpt lat="48.15978" lon="6.40292">
        <ele>401</ele>
        <time>2022-09-26T14:08:33Z</time>
      </trkpt>
      <trkpt lat="48.15978" lon="6.40292">
        <ele>401</ele>
        <time>2022-09-26T14:08:34Z</time>
      </trkpt>
      <trkpt lat="48.15978" lon="6.40292">
        <ele>401</ele>
        <time>2022-09-26T14:08:35Z</time>
      </trkpt>
      <trkpt lat="48.15978" lon="6.40292">
        <ele>401</ele>
        <time>2022-09-26T14:08:36Z</time>
      </trkpt>
      <trkpt lat="48.15978" lon="6.40292">
        <ele>401</ele>
        <time>2022-09-26T14:08:37Z</time>
      </trkpt>
      <trkpt lat="48.15978" lon="6.40292">
        <ele>401</ele>
        <time>2022-09-26T14:08:38Z</time>
      </trkpt>
      <trkpt lat="48.15978" lon="6.40292">
        <ele>401</ele>
        <time>2022-09-26T14:08:39Z</time>
      </trkpt>
      <trkpt lat="48.15978" lon="6.40292">
        <ele>401</ele>
        <time>2022-09-26T14:08:40Z</time>
      </trkpt>
      <trkpt lat="48.15978" lon="6.40292">
        <ele>401</ele>
        <time>2022-09-26T14:08:41Z</time>
      </trkpt>
      <trkpt lat="48.15978" lon="6.40292">
        <ele>401</ele>
        <time>2022-09-26T14:08:42Z</time>
      </trkpt>
      <trkpt lat="48.15978" lon="6.40292">
        <ele>401</ele>
        <time>2022-09-26T14:08:43Z</time>
      </trkpt>
      <trkpt lat="48.15978" lon="6.40292">
        <ele>401</ele>
        <time>2022-09-26T14:08:44Z</time>
      </trkpt>
      <trkpt lat="48.15978" lon="6.40292">
        <ele>401</ele>
        <time>2022-09-26T14:08:46Z</time>
      </trkpt>
      <trkpt lat="48.1598" lon="6.40292">
        <ele>401</ele>
        <time>2022-09-26T14:09:50Z</time>
      </trkpt>
      <trkpt lat="48.15979" lon="6.40292">
        <ele>401</ele>
        <time>2022-09-26T14:09:51Z</time>
      </trkpt>
      <trkpt lat="48.15979" lon="6.40293">
        <ele>401</ele>
        <time>2022-09-26T14:09:52Z</time>
      </trkpt>
      <trkpt lat="48.1598" lon="6.40293">
        <ele>401</ele>
        <time>2022-09-26T14:09:53Z</time>
      </trkpt>
      <trkpt lat="48.1598" lon="6.40293">
        <ele>401</ele>
        <time>2022-09-26T14:09:54Z</time>
      </trkpt>
      <trkpt lat="48.1598" lon="6.40294">
        <ele>401</ele>
        <time>2022-09-26T14:09:55Z</time>
      </trkpt>
      <trkpt lat="48.1598" lon="6.40294">
        <ele>401</ele>
        <time>2022-09-26T14:09:56Z</time>
      </trkpt>
      <trkpt lat="48.1598" lon="6.40294">
        <ele>401</ele>
        <time>2022-09-26T14:09:57Z</time>
      </trkpt>
      <trkpt lat="48.1598" lon="6.40294">
        <ele>401</ele>
        <time>2022-09-26T14:09:58Z</time>
      </trkpt>
      <trkpt lat="48.1598" lon="6.40294">
        <ele>401</ele>
        <time>2022-09-26T14:09:59Z</time>
      </trkpt>
      <trkpt lat="48.1598" lon="6.40294">
        <ele>401</ele>
        <time>2022-09-26T14:10:00Z</time>
      </trkpt>
      <trkpt lat="48.1598" lon="6.40294">
        <ele>401</ele>
        <time>2022-09-26T14:10:01Z</time>
      </trkpt>
      <trkpt lat="48.1598" lon="6.40294">
        <ele>401</ele>
        <time>2022-09-26T14:10:02Z</time>
      </trkpt>
      <trkpt lat="48.1598" lon="6.40294">
        <ele>401</ele>
        <time>2022-09-26T14:10:03Z</time>
      </trkpt>
      <trkpt lat="48.1598" lon="6.40294">
        <ele>401</ele>
        <time>2022-09-26T14:10:04Z</time>
      </trkpt>
      <trkpt lat="48.1598" lon="6.40294">
        <ele>401</ele>
        <time>2022-09-26T14:10:05Z</time>
      </trkpt>
      <trkpt lat="48.15985" lon="6.40295">
        <ele>401</ele>
        <time>2022-09-26T14:10:27Z</time>
      </trkpt>
      <trkpt lat="48.15987" lon="6.40295">
        <ele>401</ele>
        <time>2022-09-26T14:10:28Z</time>
      </trkpt>
      <trkpt lat="48.15988" lon="6.40297">
        <ele>400</ele>
        <time>2022-09-26T14:10:29Z</time>
      </trkpt>
      <trkpt lat="48.1599" lon="6.40298">
        <ele>400</ele>
        <time>2022-09-26T14:10:30Z</time>
      </trkpt>
      <trkpt lat="48.15992" lon="6.403">
        <ele>400</ele>
        <time>2022-09-26T14:10:31Z</time>
      </trkpt>
      <trkpt lat="48.15994" lon="6.40302">
        <ele>400</ele>
        <time>2022-09-26T14:10:32Z</time>
      </trkpt>
      <trkpt lat="48.15996" lon="6.40305">
        <ele>400</ele>
        <time>2022-09-26T14:10:33Z</time>
      </trkpt>
      <trkpt lat="48.15998" lon="6.40307">
        <ele>400</ele>
        <time>2022-09-26T14:10:34Z</time>
      </trkpt>
      <trkpt lat="48.16001" lon="6.4031">
        <ele>400</ele>
        <time>2022-09-26T14:10:35Z</time>
      </trkpt>
      <trkpt lat="48.16003" lon="6.40313">
        <ele>400</ele>
        <time>2022-09-26T14:10:36Z</time>
      </trkpt>
      <trkpt lat="48.16005" lon="6.40315">
        <ele>400</ele>
        <time>2022-09-26T14:10:37Z</time>
      </trkpt>
      <trkpt lat="48.16008" lon="6.40318">
        <ele>400</ele>
        <time>2022-09-26T14:10:38Z</time>
      </trkpt>
      <trkpt lat="48.1601" lon="6.40321">
        <ele>399</ele>
        <time>2022-09-26T14:10:39Z</time>
      </trkpt>
      <trkpt lat="48.16013" lon="6.40324">
        <ele>399</ele>
        <time>2022-09-26T14:10:40Z</time>
      </trkpt>
      <trkpt lat="48.16015" lon="6.40327">
        <ele>399</ele>
        <time>2022-09-26T14:10:41Z</time>
      </trkpt>
      <trkpt lat="48.16017" lon="6.4033">
        <ele>399</ele>
        <time>2022-09-26T14:10:42Z</time>
      </trkpt>
      <trkpt lat="48.16019" lon="6.40334">
        <ele>398</ele>
        <time>2022-09-26T14:10:43Z</time>
      </trkpt>
      <trkpt lat="48.16022" lon="6.40337">
        <ele>398</ele>
        <time>2022-09-26T14:10:44Z</time>
      </trkpt>
      <trkpt lat="48.16025" lon="6.40341">
        <ele>397</ele>
        <time>2022-09-26T14:10:45Z</time>
      </trkpt>
      <trkpt lat="48.16027" lon="6.40344">
        <ele>396</ele>
        <time>2022-09-26T14:10:46Z</time>
      </trkpt>
      <trkpt lat="48.1603" lon="6.40348">
        <ele>396</ele>
        <time>2022-09-26T14:10:47Z</time>
      </trkpt>
      <trkpt lat="48.16032" lon="6.40352">
        <ele>396</ele>
        <time>2022-09-26T14:10:48Z</time>
      </trkpt>
      <trkpt lat="48.16035" lon="6.40357">
        <ele>396</ele>
        <time>2022-09-26T14:10:49Z</time>
      </trkpt>
      <trkpt lat="48.16039" lon="6.4036">
        <ele>396</ele>
        <time>2022-09-26T14:10:50Z</time>
      </trkpt>
      <trkpt lat="48.16042" lon="6.40365">
        <ele>396</ele>
        <time>2022-09-26T14:10:51Z</time>
      </trkpt>
      <trkpt lat="48.16044" lon="6.4037">
        <ele>396</ele>
        <time>2022-09-26T14:10:52Z</time>
      </trkpt>
      <trkpt lat="48.16048" lon="6.40375">
        <ele>396</ele>
        <time>2022-09-26T14:10:53Z</time>
      </trkpt>
      <trkpt lat="48.16051" lon="6.4038">
        <ele>395</ele>
        <time>2022-09-26T14:10:54Z</time>
      </trkpt>
      <trkpt lat="48.16055" lon="6.40384">
        <ele>395</ele>
        <time>2022-09-26T14:10:55Z</time>
      </trkpt>
      <trkpt lat="48.16058" lon="6.40389">
        <ele>395</ele>
        <time>2022-09-26T14:10:56Z</time>
      </trkpt>
      <trkpt lat="48.16061" lon="6.40394">
        <ele>396</ele>
        <time>2022-09-26T14:10:57Z</time>
      </trkpt>
      <trkpt lat="48.16063" lon="6.404">
        <ele>396</ele>
        <time>2022-09-26T14:10:58Z</time>
      </trkpt>
      <trkpt lat="48.16066" lon="6.40405">
        <ele>396</ele>
        <time>2022-09-26T14:10:59Z</time>
      </trkpt>
      <trkpt lat="48.16069" lon="6.4041">
        <ele>396</ele>
        <time>2022-09-26T14:11:00Z</time>
      </trkpt>
      <trkpt lat="48.16071" lon="6.40414">
        <ele>396</ele>
        <time>2022-09-26T14:11:01Z</time>
      </trkpt>
      <trkpt lat="48.16072" lon="6.40418">
        <ele>397</ele>
        <time>2022-09-26T14:11:02Z</time>
      </trkpt>
      <trkpt lat="48.16074" lon="6.40422">
        <ele>397</ele>
        <time>2022-09-26T14:11:03Z</time>
      </trkpt>
      <trkpt lat="48.16076" lon="6.40426">
        <ele>397</ele>
        <time>2022-09-26T14:11:04Z</time>
      </trkpt>
      <trkpt lat="48.16077" lon="6.40432">
        <ele>397</ele>
        <time>2022-09-26T14:11:05Z</time>
      </trkpt>
      <trkpt lat="48.16078" lon="6.40439">
        <ele>397</ele>
        <time>2022-09-26T14:11:06Z</time>
      </trkpt>
      <trkpt lat="48.16078" lon="6.40446">
        <ele>397</ele>
        <time>2022-09-26T14:11:07Z</time>
      </trkpt>
      <trkpt lat="48.16079" lon="6.40454">
        <ele>397</ele>
        <time>2022-09-26T14:11:08Z</time>
      </trkpt>
      <trkpt lat="48.16079" lon="6.40461">
        <ele>396</ele>
        <time>2022-09-26T14:11:09Z</time>
      </trkpt>
      <trkpt lat="48.1608" lon="6.40468">
        <ele>396</ele>
        <time>2022-09-26T14:11:10Z</time>
      </trkpt>
      <trkpt lat="48.16082" lon="6.40474">
        <ele>396</ele>
        <time>2022-09-26T14:11:11Z</time>
      </trkpt>
      <trkpt lat="48.16084" lon="6.40479">
        <ele>396</ele>
        <time>2022-09-26T14:11:12Z</time>
      </trkpt>
      <trkpt lat="48.16085" lon="6.40486">
        <ele>396</ele>
        <time>2022-09-26T14:11:13Z</time>
      </trkpt>
      <trkpt lat="48.16086" lon="6.40492">
        <ele>396</ele>
        <time>2022-09-26T14:11:14Z</time>
      </trkpt>
      <trkpt lat="48.16087" lon="6.40498">
        <ele>397</ele>
        <time>2022-09-26T14:11:15Z</time>
      </trkpt>
      <trkpt lat="48.16089" lon="6.40503">
        <ele>397</ele>
        <time>2022-09-26T14:11:16Z</time>
      </trkpt>
      <trkpt lat="48.16092" lon="6.40508">
        <ele>398</ele>
        <time>2022-09-26T14:11:17Z</time>
      </trkpt>
      <trkpt lat="48.16094" lon="6.40514">
        <ele>398</ele>
        <time>2022-09-26T14:11:18Z</time>
      </trkpt>
      <trkpt lat="48.16095" lon="6.40521">
        <ele>399</ele>
        <time>2022-09-26T14:11:19Z</time>
      </trkpt>
      <trkpt lat="48.16096" lon="6.40526">
        <ele>399</ele>
        <time>2022-09-26T14:11:20Z</time>
      </trkpt>
      <trkpt lat="48.16097" lon="6.40529">
        <ele>400</ele>
        <time>2022-09-26T14:11:21Z</time>
      </trkpt>
      <trkpt lat="48.16098" lon="6.40533">
        <ele>400</ele>
        <time>2022-09-26T14:11:22Z</time>
      </trkpt>
      <trkpt lat="48.16099" lon="6.40537">
        <ele>400</ele>
        <time>2022-09-26T14:11:23Z</time>
      </trkpt>
      <trkpt lat="48.16099" lon="6.4054">
        <ele>400</ele>
        <time>2022-09-26T14:11:24Z</time>
      </trkpt>
      <trkpt lat="48.16099" lon="6.40542">
        <ele>400</ele>
        <time>2022-09-26T14:11:25Z</time>
      </trkpt>
      <trkpt lat="48.16098" lon="6.40545">
        <ele>400</ele>
        <time>2022-09-26T14:11:26Z</time>
      </trkpt>
      <trkpt lat="48.16096" lon="6.40547">
        <ele>400</ele>
        <time>2022-09-26T14:11:27Z</time>
      </trkpt>
      <trkpt lat="48.16094" lon="6.40549">
        <ele>400</ele>
        <time>2022-09-26T14:11:28Z</time>
      </trkpt>
      <trkpt lat="48.16092" lon="6.4055">
        <ele>399</ele>
        <time>2022-09-26T14:11:29Z</time>
      </trkpt>
      <trkpt lat="48.1609" lon="6.40552">
        <ele>399</ele>
        <time>2022-09-26T14:11:30Z</time>
      </trkpt>
      <trkpt lat="48.16089" lon="6.40554">
        <ele>399</ele>
        <time>2022-09-26T14:11:31Z</time>
      </trkpt>
      <trkpt lat="48.16088" lon="6.40557">
        <ele>399</ele>
        <time>2022-09-26T14:11:32Z</time>
      </trkpt>
      <trkpt lat="48.16087" lon="6.40562">
        <ele>399</ele>
        <time>2022-09-26T14:11:33Z</time>
      </trkpt>
      <trkpt lat="48.16086" lon="6.40567">
        <ele>398</ele>
        <time>2022-09-26T14:11:34Z</time>
      </trkpt>
      <trkpt lat="48.16087" lon="6.4057">
        <ele>398</ele>
        <time>2022-09-26T14:11:35Z</time>
      </trkpt>
      <trkpt lat="48.16087" lon="6.40574">
        <ele>398</ele>
        <time>2022-09-26T14:11:36Z</time>
      </trkpt>
      <trkpt lat="48.16087" lon="6.40576">
        <ele>398</ele>
        <time>2022-09-26T14:11:37Z</time>
      </trkpt>
      <trkpt lat="48.16087" lon="6.40579">
        <ele>398</ele>
        <time>2022-09-26T14:11:38Z</time>
      </trkpt>
      <trkpt lat="48.16087" lon="6.40583">
        <ele>398</ele>
        <time>2022-09-26T14:11:39Z</time>
      </trkpt>
      <trkpt lat="48.16088" lon="6.40587">
        <ele>398</ele>
        <time>2022-09-26T14:11:40Z</time>
      </trkpt>
      <trkpt lat="48.16089" lon="6.40591">
        <ele>397</ele>
        <time>2022-09-26T14:11:41Z</time>
      </trkpt>
      <trkpt lat="48.16089" lon="6.40595">
        <ele>397</ele>
        <time>2022-09-26T14:11:42Z</time>
      </trkpt>
      <trkpt lat="48.1609" lon="6.40601">
        <ele>397</ele>
        <time>2022-09-26T14:11:43Z</time>
      </trkpt>
      <trkpt lat="48.1609" lon="6.40609">
        <ele>396</ele>
        <time>2022-09-26T14:11:44Z</time>
      </trkpt>
      <trkpt lat="48.1609" lon="6.40616">
        <ele>395</ele>
        <time>2022-09-26T14:11:45Z</time>
      </trkpt>
      <trkpt lat="48.16086" lon="6.40626">
        <ele>394</ele>
        <time>2022-09-26T14:11:46Z</time>
      </trkpt>
      <trkpt lat="48.16087" lon="6.40632">
        <ele>393</ele>
        <time>2022-09-26T14:11:47Z</time>
      </trkpt>
      <trkpt lat="48.16087" lon="6.4064">
        <ele>392</ele>
        <time>2022-09-26T14:11:48Z</time>
      </trkpt>
      <trkpt lat="48.16088" lon="6.40647">
        <ele>391</ele>
        <time>2022-09-26T14:11:49Z</time>
      </trkpt>
      <trkpt lat="48.16089" lon="6.40654">
        <ele>390</ele>
        <time>2022-09-26T14:11:50Z</time>
      </trkpt>
      <trkpt lat="48.1609" lon="6.40661">
        <ele>389</ele>
        <time>2022-09-26T14:11:51Z</time>
      </trkpt>
      <trkpt lat="48.16091" lon="6.40669">
        <ele>389</ele>
        <time>2022-09-26T14:11:52Z</time>
      </trkpt>
      <trkpt lat="48.16092" lon="6.40676">
        <ele>388</ele>
        <time>2022-09-26T14:11:53Z</time>
      </trkpt>
      <trkpt lat="48.16092" lon="6.40682">
        <ele>388</ele>
        <time>2022-09-26T14:11:54Z</time>
      </trkpt>
      <trkpt lat="48.16094" lon="6.40688">
        <ele>387</ele>
        <time>2022-09-26T14:11:55Z</time>
      </trkpt>
      <trkpt lat="48.16097" lon="6.40694">
        <ele>386</ele>
        <time>2022-09-26T14:11:56Z</time>
      </trkpt>
      <trkpt lat="48.16096" lon="6.40701">
        <ele>387</ele>
        <time>2022-09-26T14:11:57Z</time>
      </trkpt>
      <trkpt lat="48.16094" lon="6.40707">
        <ele>387</ele>
        <time>2022-09-26T14:11:58Z</time>
      </trkpt>
      <trkpt lat="48.16096" lon="6.40714">
        <ele>387</ele>
        <time>2022-09-26T14:11:59Z</time>
      </trkpt>
      <trkpt lat="48.16097" lon="6.4072">
        <ele>387</ele>
        <time>2022-09-26T14:12:00Z</time>
      </trkpt>
      <trkpt lat="48.16097" lon="6.40729">
        <ele>387</ele>
        <time>2022-09-26T14:12:01Z</time>
      </trkpt>
      <trkpt lat="48.16097" lon="6.40734">
        <ele>388</ele>
        <time>2022-09-26T14:12:02Z</time>
      </trkpt>
      <trkpt lat="48.16097" lon="6.40742">
        <ele>388</ele>
        <time>2022-09-26T14:12:03Z</time>
      </trkpt>
      <trkpt lat="48.16097" lon="6.40746">
        <ele>388</ele>
        <time>2022-09-26T14:12:04Z</time>
      </trkpt>
      <trkpt lat="48.16096" lon="6.40751">
        <ele>389</ele>
        <time>2022-09-26T14:12:05Z</time>
      </trkpt>
      <trkpt lat="48.16096" lon="6.40757">
        <ele>389</ele>
        <time>2022-09-26T14:12:06Z</time>
      </trkpt>
      <trkpt lat="48.16097" lon="6.40762">
        <ele>389</ele>
        <time>2022-09-26T14:12:07Z</time>
      </trkpt>
      <trkpt lat="48.16099" lon="6.40766">
        <ele>389</ele>
        <time>2022-09-26T14:12:08Z</time>
      </trkpt>
      <trkpt lat="48.16101" lon="6.40771">
        <ele>388</ele>
        <time>2022-09-26T14:12:09Z</time>
      </trkpt>
      <trkpt lat="48.16104" lon="6.40776">
        <ele>388</ele>
        <time>2022-09-26T14:12:10Z</time>
      </trkpt>
      <trkpt lat="48.16103" lon="6.40782">
        <ele>388</ele>
        <time>2022-09-26T14:12:11Z</time>
      </trkpt>
      <trkpt lat="48.16104" lon="6.40788">
        <ele>388</ele>
        <time>2022-09-26T14:12:12Z</time>
      </trkpt>
      <trkpt lat="48.16104" lon="6.40793">
        <ele>388</ele>
        <time>2022-09-26T14:12:13Z</time>
      </trkpt>
      <trkpt lat="48.16105" lon="6.40798">
        <ele>387</ele>
        <time>2022-09-26T14:12:14Z</time>
      </trkpt>
      <trkpt lat="48.16106" lon="6.40803">
        <ele>386</ele>
        <time>2022-09-26T14:12:15Z</time>
      </trkpt>
      <trkpt lat="48.16108" lon="6.4081">
        <ele>386</ele>
        <time>2022-09-26T14:12:16Z</time>
      </trkpt>
      <trkpt lat="48.16108" lon="6.40816">
        <ele>386</ele>
        <time>2022-09-26T14:12:17Z</time>
      </trkpt>
      <trkpt lat="48.16109" lon="6.40821">
        <ele>386</ele>
        <time>2022-09-26T14:12:18Z</time>
      </trkpt>
      <trkpt lat="48.1611" lon="6.40827">
        <ele>386</ele>
        <time>2022-09-26T14:12:19Z</time>
      </trkpt>
      <trkpt lat="48.1611" lon="6.40835">
        <ele>386</ele>
        <time>2022-09-26T14:12:20Z</time>
      </trkpt>
      <trkpt lat="48.16111" lon="6.40841">
        <ele>386</ele>
        <time>2022-09-26T14:12:21Z</time>
      </trkpt>
      <trkpt lat="48.16112" lon="6.40848">
        <ele>386</ele>
        <time>2022-09-26T14:12:22Z</time>
      </trkpt>
      <trkpt lat="48.16113" lon="6.40855">
        <ele>387</ele>
        <time>2022-09-26T14:12:23Z</time>
      </trkpt>
      <trkpt lat="48.16114" lon="6.4086">
        <ele>387</ele>
        <time>2022-09-26T14:12:24Z</time>
      </trkpt>
      <trkpt lat="48.16116" lon="6.40865">
        <ele>387</ele>
        <time>2022-09-26T14:12:25Z</time>
      </trkpt>
      <trkpt lat="48.16119" lon="6.40871">
        <ele>387</ele>
        <time>2022-09-26T14:12:26Z</time>
      </trkpt>
      <trkpt lat="48.16121" lon="6.40877">
        <ele>387</ele>
        <time>2022-09-26T14:12:27Z</time>
      </trkpt>
      <trkpt lat="48.16124" lon="6.40882">
        <ele>387</ele>
        <time>2022-09-26T14:12:28Z</time>
      </trkpt>
      <trkpt lat="48.16126" lon="6.40887">
        <ele>387</ele>
        <time>2022-09-26T14:12:29Z</time>
      </trkpt>
      <trkpt lat="48.16129" lon="6.40893">
        <ele>387</ele>
        <time>2022-09-26T14:12:30Z</time>
      </trkpt>
      <trkpt lat="48.16132" lon="6.40899">
        <ele>387</ele>
        <time>2022-09-26T14:12:31Z</time>
      </trkpt>
      <trkpt lat="48.16135" lon="6.40906">
        <ele>387</ele>
        <time>2022-09-26T14:12:32Z</time>
      </trkpt>
      <trkpt lat="48.16137" lon="6.40913">
        <ele>387</ele>
        <time>2022-09-26T14:12:33Z</time>
      </trkpt>
      <trkpt lat="48.16138" lon="6.4092">
        <ele>387</ele>
        <time>2022-09-26T14:12:34Z</time>
      </trkpt>
      <trkpt lat="48.1614" lon="6.40927">
        <ele>387</ele>
        <time>2022-09-26T14:12:35Z</time>
      </trkpt>
      <trkpt lat="48.16142" lon="6.40933">
        <ele>387</ele>
        <time>2022-09-26T14:12:36Z</time>
      </trkpt>
      <trkpt lat="48.16145" lon="6.4094">
        <ele>387</ele>
        <time>2022-09-26T14:12:37Z</time>
      </trkpt>
      <trkpt lat="48.16147" lon="6.40946">
        <ele>387</ele>
        <time>2022-09-26T14:12:38Z</time>
      </trkpt>
      <trkpt lat="48.1615" lon="6.40951">
        <ele>387</ele>
        <time>2022-09-26T14:12:39Z</time>
      </trkpt>
      <trkpt lat="48.16152" lon="6.40958">
        <ele>387</ele>
        <time>2022-09-26T14:12:40Z</time>
      </trkpt>
      <trkpt lat="48.16155" lon="6.40964">
        <ele>387</ele>
        <time>2022-09-26T14:12:41Z</time>
      </trkpt>
      <trkpt lat="48.16158" lon="6.4097">
        <ele>387</ele>
        <time>2022-09-26T14:12:42Z</time>
      </trkpt>
      <trkpt lat="48.1616" lon="6.40975">
        <ele>387</ele>
        <time>2022-09-26T14:12:43Z</time>
      </trkpt>
      <trkpt lat="48.16162" lon="6.4098">
        <ele>387</ele>
        <time>2022-09-26T14:12:44Z</time>
      </trkpt>
      <trkpt lat="48.16164" lon="6.40987">
        <ele>387</ele>
        <time>2022-09-26T14:12:45Z</time>
      </trkpt>
      <trkpt lat="48.16167" lon="6.40993">
        <ele>386</ele>
        <time>2022-09-26T14:12:46Z</time>
      </trkpt>
      <trkpt lat="48.16169" lon="6.40999">
        <ele>386</ele>
        <time>2022-09-26T14:12:47Z</time>
      </trkpt>
      <trkpt lat="48.16172" lon="6.41005">
        <ele>386</ele>
        <time>2022-09-26T14:12:48Z</time>
      </trkpt>
      <trkpt lat="48.16174" lon="6.4101">
        <ele>385</ele>
        <time>2022-09-26T14:12:49Z</time>
      </trkpt>
      <trkpt lat="48.16177" lon="6.41015">
        <ele>385</ele>
        <time>2022-09-26T14:12:50Z</time>
      </trkpt>
      <trkpt lat="48.16179" lon="6.4102">
        <ele>384</ele>
        <time>2022-09-26T14:12:51Z</time>
      </trkpt>
      <trkpt lat="48.16181" lon="6.41025">
        <ele>384</ele>
        <time>2022-09-26T14:12:52Z</time>
      </trkpt>
      <trkpt lat="48.16183" lon="6.4103">
        <ele>383</ele>
        <time>2022-09-26T14:12:53Z</time>
      </trkpt>
      <trkpt lat="48.16185" lon="6.41037">
        <ele>383</ele>
        <time>2022-09-26T14:12:54Z</time>
      </trkpt>
      <trkpt lat="48.16187" lon="6.41043">
        <ele>383</ele>
        <time>2022-09-26T14:12:55Z</time>
      </trkpt>
      <trkpt lat="48.16189" lon="6.41048">
        <ele>383</ele>
        <time>2022-09-26T14:12:56Z</time>
      </trkpt>
      <trkpt lat="48.16191" lon="6.41054">
        <ele>382</ele>
        <time>2022-09-26T14:12:57Z</time>
      </trkpt>
      <trkpt lat="48.16192" lon="6.4106">
        <ele>381</ele>
        <time>2022-09-26T14:12:58Z</time>
      </trkpt>
      <trkpt lat="48.16193" lon="6.41066">
        <ele>381</ele>
        <time>2022-09-26T14:12:59Z</time>
      </trkpt>
      <trkpt lat="48.16195" lon="6.41071">
        <ele>380</ele>
        <time>2022-09-26T14:13:00Z</time>
      </trkpt>
      <trkpt lat="48.16197" lon="6.41078">
        <ele>380</ele>
        <time>2022-09-26T14:13:01Z</time>
      </trkpt>
      <trkpt lat="48.16199" lon="6.41084">
        <ele>380</ele>
        <time>2022-09-26T14:13:02Z</time>
      </trkpt>
      <trkpt lat="48.162" lon="6.4109">
        <ele>380</ele>
        <time>2022-09-26T14:13:03Z</time>
      </trkpt>
      <trkpt lat="48.162" lon="6.41095">
        <ele>380</ele>
        <time>2022-09-26T14:13:04Z</time>
      </trkpt>
      <trkpt lat="48.16199" lon="6.41102">
        <ele>381</ele>
        <time>2022-09-26T14:13:05Z</time>
      </trkpt>
      <trkpt lat="48.16198" lon="6.41109">
        <ele>382</ele>
        <time>2022-09-26T14:13:06Z</time>
      </trkpt>
      <trkpt lat="48.16195" lon="6.41113">
        <ele>382</ele>
        <time>2022-09-26T14:13:07Z</time>
      </trkpt>
      <trkpt lat="48.16192" lon="6.41115">
        <ele>383</ele>
        <time>2022-09-26T14:13:08Z</time>
      </trkpt>
      <trkpt lat="48.1619" lon="6.41118">
        <ele>384</ele>
        <time>2022-09-26T14:13:09Z</time>
      </trkpt>
      <trkpt lat="48.16188" lon="6.41122">
        <ele>384</ele>
        <time>2022-09-26T14:13:10Z</time>
      </trkpt>
      <trkpt lat="48.16187" lon="6.41126">
        <ele>385</ele>
        <time>2022-09-26T14:13:11Z</time>
      </trkpt>
      <trkpt lat="48.16185" lon="6.41134">
        <ele>385</ele>
        <time>2022-09-26T14:13:12Z</time>
      </trkpt>
      <trkpt lat="48.16184" lon="6.41142">
        <ele>385</ele>
        <time>2022-09-26T14:13:13Z</time>
      </trkpt>
      <trkpt lat="48.16183" lon="6.41149">
        <ele>386</ele>
        <time>2022-09-26T14:13:14Z</time>
      </trkpt>
      <trkpt lat="48.16183" lon="6.41156">
        <ele>386</ele>
        <time>2022-09-26T14:13:15Z</time>
      </trkpt>
      <trkpt lat="48.16183" lon="6.41163">
        <ele>386</ele>
        <time>2022-09-26T14:13:16Z</time>
      </trkpt>
      <trkpt lat="48.16186" lon="6.41169">
        <ele>386</ele>
        <time>2022-09-26T14:13:17Z</time>
      </trkpt>
      <trkpt lat="48.1619" lon="6.41173">
        <ele>386</ele>
        <time>2022-09-26T14:13:18Z</time>
      </trkpt>
      <trkpt lat="48.16195" lon="6.41176">
        <ele>386</ele>
        <time>2022-09-26T14:13:19Z</time>
      </trkpt>
      <trkpt lat="48.162" lon="6.41177">
        <ele>386</ele>
        <time>2022-09-26T14:13:20Z</time>
      </trkpt>
      <trkpt lat="48.16205" lon="6.41176">
        <ele>385</ele>
        <time>2022-09-26T14:13:21Z</time>
      </trkpt>
      <trkpt lat="48.1621" lon="6.41175">
        <ele>384</ele>
        <time>2022-09-26T14:13:22Z</time>
      </trkpt>
      <trkpt lat="48.16215" lon="6.41175">
        <ele>384</ele>
        <time>2022-09-26T14:13:23Z</time>
      </trkpt>
      <trkpt lat="48.16219" lon="6.41176">
        <ele>383</ele>
        <time>2022-09-26T14:13:24Z</time>
      </trkpt>
      <trkpt lat="48.16224" lon="6.41175">
        <ele>383</ele>
        <time>2022-09-26T14:13:25Z</time>
      </trkpt>
      <trkpt lat="48.16229" lon="6.41175">
        <ele>382</ele>
        <time>2022-09-26T14:13:26Z</time>
      </trkpt>
      <trkpt lat="48.16233" lon="6.41173">
        <ele>381</ele>
        <time>2022-09-26T14:13:27Z</time>
      </trkpt>
      <trkpt lat="48.16238" lon="6.41172">
        <ele>380</ele>
        <time>2022-09-26T14:13:28Z</time>
      </trkpt>
      <trkpt lat="48.16243" lon="6.41172">
        <ele>380</ele>
        <time>2022-09-26T14:13:29Z</time>
      </trkpt>
      <trkpt lat="48.16248" lon="6.41174">
        <ele>379</ele>
        <time>2022-09-26T14:13:30Z</time>
      </trkpt>
      <trkpt lat="48.16252" lon="6.41174">
        <ele>379</ele>
        <time>2022-09-26T14:13:31Z</time>
      </trkpt>
      <trkpt lat="48.16256" lon="6.41175">
        <ele>379</ele>
        <time>2022-09-26T14:13:32Z</time>
      </trkpt>
      <trkpt lat="48.16261" lon="6.41175">
        <ele>378</ele>
        <time>2022-09-26T14:13:33Z</time>
      </trkpt>
      <trkpt lat="48.16266" lon="6.41175">
        <ele>378</ele>
        <time>2022-09-26T14:13:34Z</time>
      </trkpt>
      <trkpt lat="48.16271" lon="6.41178">
        <ele>378</ele>
        <time>2022-09-26T14:13:35Z</time>
      </trkpt>
      <trkpt lat="48.16276" lon="6.41181">
        <ele>379</ele>
        <time>2022-09-26T14:13:36Z</time>
      </trkpt>
      <trkpt lat="48.1628" lon="6.41185">
        <ele>379</ele>
        <time>2022-09-26T14:13:37Z</time>
      </trkpt>
      <trkpt lat="48.16284" lon="6.41189">
        <ele>380</ele>
        <time>2022-09-26T14:13:38Z</time>
      </trkpt>
      <trkpt lat="48.16287" lon="6.41198">
        <ele>381</ele>
        <time>2022-09-26T14:13:39Z</time>
      </trkpt>
      <trkpt lat="48.16292" lon="6.41203">
        <ele>382</ele>
        <time>2022-09-26T14:13:40Z</time>
      </trkpt>
      <trkpt lat="48.16296" lon="6.41207">
        <ele>382</ele>
        <time>2022-09-26T14:13:41Z</time>
      </trkpt>
      <trkpt lat="48.163" lon="6.4121">
        <ele>382</ele>
        <time>2022-09-26T14:13:42Z</time>
      </trkpt>
      <trkpt lat="48.16305" lon="6.41214">
        <ele>382</ele>
        <time>2022-09-26T14:13:43Z</time>
      </trkpt>
      <trkpt lat="48.1631" lon="6.41218">
        <ele>382</ele>
        <time>2022-09-26T14:13:44Z</time>
      </trkpt>
      <trkpt lat="48.16315" lon="6.41223">
        <ele>382</ele>
        <time>2022-09-26T14:13:45Z</time>
      </trkpt>
      <trkpt lat="48.16319" lon="6.41228">
        <ele>382</ele>
        <time>2022-09-26T14:13:46Z</time>
      </trkpt>
      <trkpt lat="48.16323" lon="6.41234">
        <ele>382</ele>
        <time>2022-09-26T14:13:47Z</time>
      </trkpt>
      <trkpt lat="48.16333" lon="6.41243">
        <ele>382</ele>
        <time>2022-09-26T14:13:48Z</time>
      </trkpt>
      <trkpt lat="48.16339" lon="6.4125">
        <ele>382</ele>
        <time>2022-09-26T14:13:49Z</time>
      </trkpt>
      <trkpt lat="48.16342" lon="6.41259">
        <ele>382</ele>
        <time>2022-09-26T14:13:50Z</time>
      </trkpt>
      <trkpt lat="48.16346" lon="6.41265">
        <ele>382</ele>
        <time>2022-09-26T14:13:51Z</time>
      </trkpt>
      <trkpt lat="48.16347" lon="6.41275">
        <ele>382</ele>
        <time>2022-09-26T14:13:52Z</time>
      </trkpt>
      <trkpt lat="48.16351" lon="6.4128">
        <ele>382</ele>
        <time>2022-09-26T14:13:53Z</time>
      </trkpt>
      <trkpt lat="48.16356" lon="6.41284">
        <ele>381</ele>
        <time>2022-09-26T14:13:54Z</time>
      </trkpt>
      <trkpt lat="48.16359" lon="6.41291">
        <ele>381</ele>
        <time>2022-09-26T14:13:55Z</time>
      </trkpt>
      <trkpt lat="48.16363" lon="6.41297">
        <ele>381</ele>
        <time>2022-09-26T14:13:56Z</time>
      </trkpt>
      <trkpt lat="48.16367" lon="6.41297">
        <ele>380</ele>
        <time>2022-09-26T14:13:57Z</time>
      </trkpt>
      <trkpt lat="48.16371" lon="6.41303">
        <ele>379</ele>
        <time>2022-09-26T14:13:58Z</time>
      </trkpt>
      <trkpt lat="48.1637" lon="6.41311">
        <ele>380</ele>
        <time>2022-09-26T14:13:59Z</time>
      </trkpt>
      <trkpt lat="48.16365" lon="6.41321">
        <ele>382</ele>
        <time>2022-09-26T14:14:00Z</time>
      </trkpt>
      <trkpt lat="48.16366" lon="6.41326">
        <ele>383</ele>
        <time>2022-09-26T14:14:01Z</time>
      </trkpt>
      <trkpt lat="48.16368" lon="6.41331">
        <ele>383</ele>
        <time>2022-09-26T14:14:02Z</time>
      </trkpt>
      <trkpt lat="48.16366" lon="6.41336">
        <ele>383</ele>
        <time>2022-09-26T14:14:03Z</time>
      </trkpt>
      <trkpt lat="48.16364" lon="6.41341">
        <ele>384</ele>
        <time>2022-09-26T14:14:04Z</time>
      </trkpt>
      <trkpt lat="48.16361" lon="6.41344">
        <ele>385</ele>
        <time>2022-09-26T14:14:05Z</time>
      </trkpt>
      <trkpt lat="48.16358" lon="6.41346">
        <ele>385</ele>
        <time>2022-09-26T14:14:06Z</time>
      </trkpt>
      <trkpt lat="48.16356" lon="6.41349">
        <ele>385</ele>
        <time>2022-09-26T14:14:07Z</time>
      </trkpt>
      <trkpt lat="48.16353" lon="6.41351">
        <ele>386</ele>
        <time>2022-09-26T14:14:08Z</time>
      </trkpt>
      <trkpt lat="48.16349" lon="6.41352">
        <ele>386</ele>
        <time>2022-09-26T14:14:09Z</time>
      </trkpt>
      <trkpt lat="48.16345" lon="6.41353">
        <ele>386</ele>
        <time>2022-09-26T14:14:10Z</time>
      </trkpt>
      <trkpt lat="48.16342" lon="6.41355">
        <ele>386</ele>
        <time>2022-09-26T14:14:11Z</time>
      </trkpt>
      <trkpt lat="48.16337" lon="6.41356">
        <ele>387</ele>
        <time>2022-09-26T14:14:12Z</time>
      </trkpt>
      <trkpt lat="48.16333" lon="6.41354">
        <ele>387</ele>
        <time>2022-09-26T14:14:13Z</time>
      </trkpt>
      <trkpt lat="48.16328" lon="6.41354">
        <ele>387</ele>
        <time>2022-09-26T14:14:14Z</time>
      </trkpt>
      <trkpt lat="48.16325" lon="6.41354">
        <ele>387</ele>
        <time>2022-09-26T14:14:15Z</time>
      </trkpt>
      <trkpt lat="48.16321" lon="6.41356">
        <ele>388</ele>
        <time>2022-09-26T14:14:16Z</time>
      </trkpt>
      <trkpt lat="48.16318" lon="6.41359">
        <ele>388</ele>
        <time>2022-09-26T14:14:17Z</time>
      </trkpt>
      <trkpt lat="48.16314" lon="6.41361">
        <ele>388</ele>
        <time>2022-09-26T14:14:18Z</time>
      </trkpt>
      <trkpt lat="48.1631" lon="6.41363">
        <ele>388</ele>
        <time>2022-09-26T14:14:19Z</time>
      </trkpt>
      <trkpt lat="48.16307" lon="6.41365">
        <ele>388</ele>
        <time>2022-09-26T14:14:20Z</time>
      </trkpt>
      <trkpt lat="48.16304" lon="6.41367">
        <ele>388</ele>
        <time>2022-09-26T14:14:21Z</time>
      </trkpt>
      <trkpt lat="48.163" lon="6.4137">
        <ele>388</ele>
        <time>2022-09-26T14:14:22Z</time>
      </trkpt>
      <trkpt lat="48.16297" lon="6.41373">
        <ele>389</ele>
        <time>2022-09-26T14:14:23Z</time>
      </trkpt>
      <trkpt lat="48.16293" lon="6.41375">
        <ele>389</ele>
        <time>2022-09-26T14:14:24Z</time>
      </trkpt>
      <trkpt lat="48.1629" lon="6.41378">
        <ele>389</ele>
        <time>2022-09-26T14:14:25Z</time>
      </trkpt>
      <trkpt lat="48.16287" lon="6.41382">
        <ele>389</ele>
        <time>2022-09-26T14:14:26Z</time>
      </trkpt>
      <trkpt lat="48.16283" lon="6.41385">
        <ele>389</ele>
        <time>2022-09-26T14:14:27Z</time>
      </trkpt>
      <trkpt lat="48.1628" lon="6.41389">
        <ele>388</ele>
        <time>2022-09-26T14:14:28Z</time>
      </trkpt>
      <trkpt lat="48.16276" lon="6.41394">
        <ele>389</ele>
        <time>2022-09-26T14:14:29Z</time>
      </trkpt>
      <trkpt lat="48.16274" lon="6.41398">
        <ele>389</ele>
        <time>2022-09-26T14:14:30Z</time>
      </trkpt>
      <trkpt lat="48.16271" lon="6.41403">
        <ele>389</ele>
        <time>2022-09-26T14:14:31Z</time>
      </trkpt>
      <trkpt lat="48.16268" lon="6.41407">
        <ele>389</ele>
        <time>2022-09-26T14:14:32Z</time>
      </trkpt>
      <trkpt lat="48.16266" lon="6.41413">
        <ele>390</ele>
        <time>2022-09-26T14:14:33Z</time>
      </trkpt>
      <trkpt lat="48.16262" lon="6.41417">
        <ele>390</ele>
        <time>2022-09-26T14:14:34Z</time>
      </trkpt>
      <trkpt lat="48.1626" lon="6.41423">
        <ele>390</ele>
        <time>2022-09-26T14:14:35Z</time>
      </trkpt>
      <trkpt lat="48.16258" lon="6.41429">
        <ele>390</ele>
        <time>2022-09-26T14:14:36Z</time>
      </trkpt>
      <trkpt lat="48.16256" lon="6.41435">
        <ele>390</ele>
        <time>2022-09-26T14:14:37Z</time>
      </trkpt>
      <trkpt lat="48.16253" lon="6.41441">
        <ele>390</ele>
        <time>2022-09-26T14:14:38Z</time>
      </trkpt>
      <trkpt lat="48.16251" lon="6.41447">
        <ele>389</ele>
        <time>2022-09-26T14:14:39Z</time>
      </trkpt>
      <trkpt lat="48.16249" lon="6.41452">
        <ele>390</ele>
        <time>2022-09-26T14:14:40Z</time>
      </trkpt>
      <trkpt lat="48.16246" lon="6.41461">
        <ele>390</ele>
        <time>2022-09-26T14:14:41Z</time>
      </trkpt>
      <trkpt lat="48.16243" lon="6.41469">
        <ele>390</ele>
        <time>2022-09-26T14:14:42Z</time>
      </trkpt>
      <trkpt lat="48.1624" lon="6.41477">
        <ele>390</ele>
        <time>2022-09-26T14:14:43Z</time>
      </trkpt>
      <trkpt lat="48.16237" lon="6.41485">
        <ele>390</ele>
        <time>2022-09-26T14:14:44Z</time>
      </trkpt>
      <trkpt lat="48.16233" lon="6.41493">
        <ele>391</ele>
        <time>2022-09-26T14:14:45Z</time>
      </trkpt>
      <trkpt lat="48.16229" lon="6.41501">
        <ele>391</ele>
        <time>2022-09-26T14:14:46Z</time>
      </trkpt>
      <trkpt lat="48.16225" lon="6.41505">
        <ele>391</ele>
        <time>2022-09-26T14:14:47Z</time>
      </trkpt>
      <trkpt lat="48.16222" lon="6.41509">
        <ele>391</ele>
        <time>2022-09-26T14:14:48Z</time>
      </trkpt>
      <trkpt lat="48.16218" lon="6.41514">
        <ele>392</ele>
        <time>2022-09-26T14:14:49Z</time>
      </trkpt>
      <trkpt lat="48.16214" lon="6.4152">
        <ele>392</ele>
        <time>2022-09-26T14:14:50Z</time>
      </trkpt>
      <trkpt lat="48.16211" lon="6.41526">
        <ele>393</ele>
        <time>2022-09-26T14:14:51Z</time>
      </trkpt>
      <trkpt lat="48.16207" lon="6.41532">
        <ele>394</ele>
        <time>2022-09-26T14:14:52Z</time>
      </trkpt>
      <trkpt lat="48.16204" lon="6.41535">
        <ele>394</ele>
        <time>2022-09-26T14:14:53Z</time>
      </trkpt>
      <trkpt lat="48.16202" lon="6.4154">
        <ele>395</ele>
        <time>2022-09-26T14:14:54Z</time>
      </trkpt>
      <trkpt lat="48.16198" lon="6.41546">
        <ele>395</ele>
        <time>2022-09-26T14:14:55Z</time>
      </trkpt>
      <trkpt lat="48.16194" lon="6.41553">
        <ele>395</ele>
        <time>2022-09-26T14:14:56Z</time>
      </trkpt>
      <trkpt lat="48.16191" lon="6.41558">
        <ele>396</ele>
        <time>2022-09-26T14:14:57Z</time>
      </trkpt>
      <trkpt lat="48.16188" lon="6.41562">
        <ele>397</ele>
        <time>2022-09-26T14:14:58Z</time>
      </trkpt>
      <trkpt lat="48.16186" lon="6.41565">
        <ele>397</ele>
        <time>2022-09-26T14:14:59Z</time>
      </trkpt>
      <trkpt lat="48.16183" lon="6.41569">
        <ele>398</ele>
        <time>2022-09-26T14:15:00Z</time>
      </trkpt>
      <trkpt lat="48.16181" lon="6.41573">
        <ele>398</ele>
        <time>2022-09-26T14:15:01Z</time>
      </trkpt>
      <trkpt lat="48.16178" lon="6.41578">
        <ele>399</ele>
        <time>2022-09-26T14:15:02Z</time>
      </trkpt>
      <trkpt lat="48.16177" lon="6.41581">
        <ele>399</ele>
        <time>2022-09-26T14:15:03Z</time>
      </trkpt>
      <trkpt lat="48.16175" lon="6.41584">
        <ele>399</ele>
        <time>2022-09-26T14:15:04Z</time>
      </trkpt>
      <trkpt lat="48.16175" lon="6.41587">
        <ele>400</ele>
        <time>2022-09-26T14:15:05Z</time>
      </trkpt>
      <trkpt lat="48.16177" lon="6.4159">
        <ele>401</ele>
        <time>2022-09-26T14:15:06Z</time>
      </trkpt>
      <trkpt lat="48.16179" lon="6.41592">
        <ele>402</ele>
        <time>2022-09-26T14:15:07Z</time>
      </trkpt>
      <trkpt lat="48.16181" lon="6.41588">
        <ele>401</ele>
        <time>2022-09-26T14:15:08Z</time>
      </trkpt>
      <trkpt lat="48.16181" lon="6.41589">
        <ele>401</ele>
        <time>2022-09-26T14:15:09Z</time>
      </trkpt>
      <trkpt lat="48.16182" lon="6.41589">
        <ele>402</ele>
        <time>2022-09-26T14:15:10Z</time>
      </trkpt>
      <trkpt lat="48.16183" lon="6.41589">
        <ele>402</ele>
        <time>2022-09-26T14:15:11Z</time>
      </trkpt>
      <trkpt lat="48.16185" lon="6.41588">
        <ele>402</ele>
        <time>2022-09-26T14:15:12Z</time>
      </trkpt>
      <trkpt lat="48.16187" lon="6.41586">
        <ele>402</ele>
        <time>2022-09-26T14:15:13Z</time>
      </trkpt>
      <trkpt lat="48.16188" lon="6.41585">
        <ele>402</ele>
        <time>2022-09-26T14:15:14Z</time>
      </trkpt>
      <trkpt lat="48.1619" lon="6.41583">
        <ele>402</ele>
        <time>2022-09-26T14:15:15Z</time>
      </trkpt>
      <trkpt lat="48.16192" lon="6.41582">
        <ele>402</ele>
        <time>2022-09-26T14:15:16Z</time>
      </trkpt>
      <trkpt lat="48.16194" lon="6.4158">
        <ele>402</ele>
        <time>2022-09-26T14:15:17Z</time>
      </trkpt>
      <trkpt lat="48.16195" lon="6.41578">
        <ele>401</ele>
        <time>2022-09-26T14:15:18Z</time>
      </trkpt>
      <trkpt lat="48.16197" lon="6.41576">
        <ele>401</ele>
        <time>2022-09-26T14:15:19Z</time>
      </trkpt>
      <trkpt lat="48.162" lon="6.41573">
        <ele>401</ele>
        <time>2022-09-26T14:15:20Z</time>
      </trkpt>
      <trkpt lat="48.16203" lon="6.41572">
        <ele>401</ele>
        <time>2022-09-26T14:15:21Z</time>
      </trkpt>
      <trkpt lat="48.16205" lon="6.4157">
        <ele>401</ele>
        <time>2022-09-26T14:15:22Z</time>
      </trkpt>
      <trkpt lat="48.16208" lon="6.41567">
        <ele>401</ele>
        <time>2022-09-26T14:15:23Z</time>
      </trkpt>
      <trkpt lat="48.1621" lon="6.41564">
        <ele>400</ele>
        <time>2022-09-26T14:15:24Z</time>
      </trkpt>
      <trkpt lat="48.16213" lon="6.4156">
        <ele>399</ele>
        <time>2022-09-26T14:15:25Z</time>
      </trkpt>
      <trkpt lat="48.16217" lon="6.41556">
        <ele>399</ele>
        <time>2022-09-26T14:15:26Z</time>
      </trkpt>
      <trkpt lat="48.16219" lon="6.41551">
        <ele>398</ele>
        <time>2022-09-26T14:15:27Z</time>
      </trkpt>
      <trkpt lat="48.16223" lon="6.41546">
        <ele>397</ele>
        <time>2022-09-26T14:15:28Z</time>
      </trkpt>
      <trkpt lat="48.16226" lon="6.41542">
        <ele>397</ele>
        <time>2022-09-26T14:15:29Z</time>
      </trkpt>
      <trkpt lat="48.16229" lon="6.41536">
        <ele>396</ele>
        <time>2022-09-26T14:15:30Z</time>
      </trkpt>
      <trkpt lat="48.16233" lon="6.41532">
        <ele>396</ele>
        <time>2022-09-26T14:15:31Z</time>
      </trkpt>
      <trkpt lat="48.16236" lon="6.41527">
        <ele>395</ele>
        <time>2022-09-26T14:15:32Z</time>
      </trkpt>
      <trkpt lat="48.1624" lon="6.41522">
        <ele>395</ele>
        <time>2022-09-26T14:15:33Z</time>
      </trkpt>
      <trkpt lat="48.16243" lon="6.41516">
        <ele>394</ele>
        <time>2022-09-26T14:15:34Z</time>
      </trkpt>
      <trkpt lat="48.16247" lon="6.41513">
        <ele>393</ele>
        <time>2022-09-26T14:15:35Z</time>
      </trkpt>
      <trkpt lat="48.1625" lon="6.4151">
        <ele>393</ele>
        <time>2022-09-26T14:15:36Z</time>
      </trkpt>
      <trkpt lat="48.16253" lon="6.41508">
        <ele>393</ele>
        <time>2022-09-26T14:15:37Z</time>
      </trkpt>
      <trkpt lat="48.16256" lon="6.41505">
        <ele>393</ele>
        <time>2022-09-26T14:15:38Z</time>
      </trkpt>
      <trkpt lat="48.16259" lon="6.41502">
        <ele>393</ele>
        <time>2022-09-26T14:15:39Z</time>
      </trkpt>
      <trkpt lat="48.16261" lon="6.41499">
        <ele>393</ele>
        <time>2022-09-26T14:15:40Z</time>
      </trkpt>
      <trkpt lat="48.16265" lon="6.41495">
        <ele>393</ele>
        <time>2022-09-26T14:15:41Z</time>
      </trkpt>
      <trkpt lat="48.16269" lon="6.41492">
        <ele>393</ele>
        <time>2022-09-26T14:15:42Z</time>
      </trkpt>
      <trkpt lat="48.16273" lon="6.4149">
        <ele>394</ele>
        <time>2022-09-26T14:15:43Z</time>
      </trkpt>
      <trkpt lat="48.16282" lon="6.41489">
        <ele>395</ele>
        <time>2022-09-26T14:15:44Z</time>
      </trkpt>
      <trkpt lat="48.16286" lon="6.41485">
        <ele>395</ele>
        <time>2022-09-26T14:15:45Z</time>
      </trkpt>
      <trkpt lat="48.16291" lon="6.41484">
        <ele>396</ele>
        <time>2022-09-26T14:15:46Z</time>
      </trkpt>
      <trkpt lat="48.16293" lon="6.41483">
        <ele>396</ele>
        <time>2022-09-26T14:15:47Z</time>
      </trkpt>
      <trkpt lat="48.16297" lon="6.41478">
        <ele>396</ele>
        <time>2022-09-26T14:15:48Z</time>
      </trkpt>
      <trkpt lat="48.16301" lon="6.41474">
        <ele>395</ele>
        <time>2022-09-26T14:15:49Z</time>
      </trkpt>
      <trkpt lat="48.16306" lon="6.41472">
        <ele>395</ele>
        <time>2022-09-26T14:15:50Z</time>
      </trkpt>
      <trkpt lat="48.16311" lon="6.41468">
        <ele>395</ele>
        <time>2022-09-26T14:15:51Z</time>
      </trkpt>
      <trkpt lat="48.16315" lon="6.41465">
        <ele>395</ele>
        <time>2022-09-26T14:15:52Z</time>
      </trkpt>
      <trkpt lat="48.16319" lon="6.4146">
        <ele>394</ele>
        <time>2022-09-26T14:15:53Z</time>
      </trkpt>
      <trkpt lat="48.16323" lon="6.41457">
        <ele>394</ele>
        <time>2022-09-26T14:15:54Z</time>
      </trkpt>
      <trkpt lat="48.1633" lon="6.41454">
        <ele>393</ele>
        <time>2022-09-26T14:15:55Z</time>
      </trkpt>
      <trkpt lat="48.16336" lon="6.41453">
        <ele>393</ele>
        <time>2022-09-26T14:15:56Z</time>
      </trkpt>
      <trkpt lat="48.16343" lon="6.41448">
        <ele>392</ele>
        <time>2022-09-26T14:15:57Z</time>
      </trkpt>
      <trkpt lat="48.16349" lon="6.41448">
        <ele>392</ele>
        <time>2022-09-26T14:15:58Z</time>
      </trkpt>
      <trkpt lat="48.16356" lon="6.41448">
        <ele>392</ele>
        <time>2022-09-26T14:15:59Z</time>
      </trkpt>
      <trkpt lat="48.16362" lon="6.41449">
        <ele>393</ele>
        <time>2022-09-26T14:16:00Z</time>
      </trkpt>
      <trkpt lat="48.16369" lon="6.4145">
        <ele>392</ele>
        <time>2022-09-26T14:16:01Z</time>
      </trkpt>
      <trkpt lat="48.16376" lon="6.4145">
        <ele>392</ele>
        <time>2022-09-26T14:16:02Z</time>
      </trkpt>
      <trkpt lat="48.16382" lon="6.41449">
        <ele>391</ele>
        <time>2022-09-26T14:16:03Z</time>
      </trkpt>
      <trkpt lat="48.16387" lon="6.41448">
        <ele>391</ele>
        <time>2022-09-26T14:16:04Z</time>
      </trkpt>
      <trkpt lat="48.16393" lon="6.41449">
        <ele>390</ele>
        <time>2022-09-26T14:16:05Z</time>
      </trkpt>
      <trkpt lat="48.16399" lon="6.4145">
        <ele>390</ele>
        <time>2022-09-26T14:16:06Z</time>
      </trkpt>
      <trkpt lat="48.16405" lon="6.41452">
        <ele>390</ele>
        <time>2022-09-26T14:16:07Z</time>
      </trkpt>
      <trkpt lat="48.16411" lon="6.41456">
        <ele>391</ele>
        <time>2022-09-26T14:16:08Z</time>
      </trkpt>
      <trkpt lat="48.16415" lon="6.4146">
        <ele>391</ele>
        <time>2022-09-26T14:16:09Z</time>
      </trkpt>
      <trkpt lat="48.16421" lon="6.41463">
        <ele>391</ele>
        <time>2022-09-26T14:16:10Z</time>
      </trkpt>
      <trkpt lat="48.16426" lon="6.41465">
        <ele>390</ele>
        <time>2022-09-26T14:16:11Z</time>
      </trkpt>
      <trkpt lat="48.16432" lon="6.41468">
        <ele>389</ele>
        <time>2022-09-26T14:16:12Z</time>
      </trkpt>
      <trkpt lat="48.16437" lon="6.41471">
        <ele>388</ele>
        <time>2022-09-26T14:16:13Z</time>
      </trkpt>
      <trkpt lat="48.16443" lon="6.41475">
        <ele>387</ele>
        <time>2022-09-26T14:16:14Z</time>
      </trkpt>
      <trkpt lat="48.16448" lon="6.41478">
        <ele>386</ele>
        <time>2022-09-26T14:16:15Z</time>
      </trkpt>
      <trkpt lat="48.16453" lon="6.41481">
        <ele>385</ele>
        <time>2022-09-26T14:16:16Z</time>
      </trkpt>
      <trkpt lat="48.16459" lon="6.41484">
        <ele>385</ele>
        <time>2022-09-26T14:16:17Z</time>
      </trkpt>
      <trkpt lat="48.16464" lon="6.41487">
        <ele>383</ele>
        <time>2022-09-26T14:16:18Z</time>
      </trkpt>
      <trkpt lat="48.16474" lon="6.4149">
        <ele>381</ele>
        <time>2022-09-26T14:16:19Z</time>
      </trkpt>
      <trkpt lat="48.16479" lon="6.41494">
        <ele>380</ele>
        <time>2022-09-26T14:16:20Z</time>
      </trkpt>
      <trkpt lat="48.16485" lon="6.41493">
        <ele>379</ele>
        <time>2022-09-26T14:16:21Z</time>
      </trkpt>
      <trkpt lat="48.1649" lon="6.41501">
        <ele>378</ele>
        <time>2022-09-26T14:16:22Z</time>
      </trkpt>
      <trkpt lat="48.16497" lon="6.41505">
        <ele>377</ele>
        <time>2022-09-26T14:16:23Z</time>
      </trkpt>
      <trkpt lat="48.16501" lon="6.41512">
        <ele>376</ele>
        <time>2022-09-26T14:16:24Z</time>
      </trkpt>
      <trkpt lat="48.16506" lon="6.41518">
        <ele>375</ele>
        <time>2022-09-26T14:16:25Z</time>
      </trkpt>
      <trkpt lat="48.16511" lon="6.41523">
        <ele>374</ele>
        <time>2022-09-26T14:16:26Z</time>
      </trkpt>
      <trkpt lat="48.16518" lon="6.41525">
        <ele>373</ele>
        <time>2022-09-26T14:16:27Z</time>
      </trkpt>
      <trkpt lat="48.16517" lon="6.41545">
        <ele>375</ele>
        <time>2022-09-26T14:16:28Z</time>
      </trkpt>
      <trkpt lat="48.16523" lon="6.41548">
        <ele>375</ele>
        <time>2022-09-26T14:16:29Z</time>
      </trkpt>
      <trkpt lat="48.16528" lon="6.41553">
        <ele>374</ele>
        <time>2022-09-26T14:16:30Z</time>
      </trkpt>
      <trkpt lat="48.16532" lon="6.41559">
        <ele>374</ele>
        <time>2022-09-26T14:16:31Z</time>
      </trkpt>
      <trkpt lat="48.16537" lon="6.41566">
        <ele>374</ele>
        <time>2022-09-26T14:16:32Z</time>
      </trkpt>
      <trkpt lat="48.16541" lon="6.41568">
        <ele>373</ele>
        <time>2022-09-26T14:16:33Z</time>
      </trkpt>
      <trkpt lat="48.16543" lon="6.41576">
        <ele>374</ele>
        <time>2022-09-26T14:16:34Z</time>
      </trkpt>
      <trkpt lat="48.16548" lon="6.41582">
        <ele>374</ele>
        <time>2022-09-26T14:16:35Z</time>
      </trkpt>
      <trkpt lat="48.16551" lon="6.41587">
        <ele>374</ele>
        <time>2022-09-26T14:16:36Z</time>
      </trkpt>
      <trkpt lat="48.16556" lon="6.4159">
        <ele>373</ele>
        <time>2022-09-26T14:16:37Z</time>
      </trkpt>
      <trkpt lat="48.16559" lon="6.41595">
        <ele>373</ele>
        <time>2022-09-26T14:16:38Z</time>
      </trkpt>
      <trkpt lat="48.16562" lon="6.41597">
        <ele>373</ele>
        <time>2022-09-26T14:16:39Z</time>
      </trkpt>
      <trkpt lat="48.16565" lon="6.416">
        <ele>373</ele>
        <time>2022-09-26T14:16:40Z</time>
      </trkpt>
      <trkpt lat="48.16567" lon="6.41602">
        <ele>373</ele>
        <time>2022-09-26T14:16:41Z</time>
      </trkpt>
      <trkpt lat="48.1657" lon="6.41606">
        <ele>373</ele>
        <time>2022-09-26T14:16:42Z</time>
      </trkpt>
      <trkpt lat="48.16572" lon="6.41607">
        <ele>373</ele>
        <time>2022-09-26T14:16:43Z</time>
      </trkpt>
      <trkpt lat="48.16575" lon="6.4161">
        <ele>373</ele>
        <time>2022-09-26T14:16:44Z</time>
      </trkpt>
      <trkpt lat="48.16577" lon="6.41614">
        <ele>373</ele>
        <time>2022-09-26T14:16:45Z</time>
      </trkpt>
      <trkpt lat="48.1658" lon="6.41617">
        <ele>372</ele>
        <time>2022-09-26T14:16:46Z</time>
      </trkpt>
      <trkpt lat="48.1658" lon="6.4162">
        <ele>373</ele>
        <time>2022-09-26T14:16:47Z</time>
      </trkpt>
      <trkpt lat="48.16582" lon="6.41622">
        <ele>373</ele>
        <time>2022-09-26T14:16:48Z</time>
      </trkpt>
      <trkpt lat="48.16585" lon="6.41625">
        <ele>372</ele>
        <time>2022-09-26T14:16:49Z</time>
      </trkpt>
      <trkpt lat="48.16587" lon="6.41628">
        <ele>372</ele>
        <time>2022-09-26T14:16:50Z</time>
      </trkpt>
      <trkpt lat="48.16589" lon="6.41632">
        <ele>372</ele>
        <time>2022-09-26T14:16:51Z</time>
      </trkpt>
      <trkpt lat="48.16591" lon="6.41634">
        <ele>372</ele>
        <time>2022-09-26T14:16:52Z</time>
      </trkpt>
      <trkpt lat="48.16593" lon="6.41637">
        <ele>372</ele>
        <time>2022-09-26T14:16:53Z</time>
      </trkpt>
      <trkpt lat="48.16594" lon="6.4164">
        <ele>372</ele>
        <time>2022-09-26T14:16:54Z</time>
      </trkpt>
      <trkpt lat="48.16597" lon="6.41643">
        <ele>372</ele>
        <time>2022-09-26T14:16:55Z</time>
      </trkpt>
      <trkpt lat="48.166" lon="6.41645">
        <ele>371</ele>
        <time>2022-09-26T14:16:56Z</time>
      </trkpt>
      <trkpt lat="48.16602" lon="6.41648">
        <ele>371</ele>
        <time>2022-09-26T14:16:57Z</time>
      </trkpt>
      <trkpt lat="48.16605" lon="6.41651">
        <ele>371</ele>
        <time>2022-09-26T14:16:58Z</time>
      </trkpt>
      <trkpt lat="48.16608" lon="6.41654">
        <ele>371</ele>
        <time>2022-09-26T14:16:59Z</time>
      </trkpt>
      <trkpt lat="48.1661" lon="6.41657">
        <ele>371</ele>
        <time>2022-09-26T14:17:00Z</time>
      </trkpt>
      <trkpt lat="48.16613" lon="6.41662">
        <ele>371</ele>
        <time>2022-09-26T14:17:01Z</time>
      </trkpt>
      <trkpt lat="48.16617" lon="6.41667">
        <ele>371</ele>
        <time>2022-09-26T14:17:02Z</time>
      </trkpt>
      <trkpt lat="48.16621" lon="6.41671">
        <ele>372</ele>
        <time>2022-09-26T14:17:03Z</time>
      </trkpt>
      <trkpt lat="48.16625" lon="6.41675">
        <ele>372</ele>
        <time>2022-09-26T14:17:04Z</time>
      </trkpt>
      <trkpt lat="48.16629" lon="6.4168">
        <ele>372</ele>
        <time>2022-09-26T14:17:05Z</time>
      </trkpt>
      <trkpt lat="48.16632" lon="6.41685">
        <ele>373</ele>
        <time>2022-09-26T14:17:06Z</time>
      </trkpt>
      <trkpt lat="48.16636" lon="6.4169">
        <ele>374</ele>
        <time>2022-09-26T14:17:07Z</time>
      </trkpt>
      <trkpt lat="48.16639" lon="6.41693">
        <ele>374</ele>
        <time>2022-09-26T14:17:08Z</time>
      </trkpt>
      <trkpt lat="48.16642" lon="6.41697">
        <ele>375</ele>
        <time>2022-09-26T14:17:09Z</time>
      </trkpt>
      <trkpt lat="48.16645" lon="6.417">
        <ele>375</ele>
        <time>2022-09-26T14:17:10Z</time>
      </trkpt>
      <trkpt lat="48.16648" lon="6.41703">
        <ele>375</ele>
        <time>2022-09-26T14:17:11Z</time>
      </trkpt>
      <trkpt lat="48.16652" lon="6.41707">
        <ele>376</ele>
        <time>2022-09-26T14:17:12Z</time>
      </trkpt>
      <trkpt lat="48.16655" lon="6.4171">
        <ele>376</ele>
        <time>2022-09-26T14:17:13Z</time>
      </trkpt>
      <trkpt lat="48.16659" lon="6.41713">
        <ele>376</ele>
        <time>2022-09-26T14:17:14Z</time>
      </trkpt>
      <trkpt lat="48.16663" lon="6.41719">
        <ele>376</ele>
        <time>2022-09-26T14:17:15Z</time>
      </trkpt>
      <trkpt lat="48.16666" lon="6.41724">
        <ele>376</ele>
        <time>2022-09-26T14:17:16Z</time>
      </trkpt>
      <trkpt lat="48.16669" lon="6.41728">
        <ele>376</ele>
        <time>2022-09-26T14:17:17Z</time>
      </trkpt>
      <trkpt lat="48.16672" lon="6.41732">
        <ele>376</ele>
        <time>2022-09-26T14:17:18Z</time>
      </trkpt>
      <trkpt lat="48.16675" lon="6.41737">
        <ele>376</ele>
        <time>2022-09-26T14:17:19Z</time>
      </trkpt>
      <trkpt lat="48.16677" lon="6.41741">
        <ele>376</ele>
        <time>2022-09-26T14:17:20Z</time>
      </trkpt>
      <trkpt lat="48.1668" lon="6.41745">
        <ele>376</ele>
        <time>2022-09-26T14:17:21Z</time>
      </trkpt>
      <trkpt lat="48.16683" lon="6.4175">
        <ele>376</ele>
        <time>2022-09-26T14:17:22Z</time>
      </trkpt>
      <trkpt lat="48.16687" lon="6.41754">
        <ele>376</ele>
        <time>2022-09-26T14:17:23Z</time>
      </trkpt>
      <trkpt lat="48.1669" lon="6.41758">
        <ele>376</ele>
        <time>2022-09-26T14:17:24Z</time>
      </trkpt>
      <trkpt lat="48.16693" lon="6.41761">
        <ele>376</ele>
        <time>2022-09-26T14:17:25Z</time>
      </trkpt>
      <trkpt lat="48.16697" lon="6.41765">
        <ele>376</ele>
        <time>2022-09-26T14:17:26Z</time>
      </trkpt>
      <trkpt lat="48.16705" lon="6.41773">
        <ele>376</ele>
        <time>2022-09-26T14:17:27Z</time>
      </trkpt>
      <trkpt lat="48.1671" lon="6.41778">
        <ele>376</ele>
        <time>2022-09-26T14:17:28Z</time>
      </trkpt>
      <trkpt lat="48.16715" lon="6.41786">
        <ele>376</ele>
        <time>2022-09-26T14:17:29Z</time>
      </trkpt>
      <trkpt lat="48.1672" lon="6.41792">
        <ele>376</ele>
        <time>2022-09-26T14:17:30Z</time>
      </trkpt>
      <trkpt lat="48.16722" lon="6.41796">
        <ele>377</ele>
        <time>2022-09-26T14:17:31Z</time>
      </trkpt>
      <trkpt lat="48.16724" lon="6.41801">
        <ele>377</ele>
        <time>2022-09-26T14:17:32Z</time>
      </trkpt>
      <trkpt lat="48.16726" lon="6.41805">
        <ele>377</ele>
        <time>2022-09-26T14:17:33Z</time>
      </trkpt>
      <trkpt lat="48.16728" lon="6.41809">
        <ele>377</ele>
        <time>2022-09-26T14:17:34Z</time>
      </trkpt>
      <trkpt lat="48.16731" lon="6.41813">
        <ele>377</ele>
        <time>2022-09-26T14:17:35Z</time>
      </trkpt>
      <trkpt lat="48.16733" lon="6.41816">
        <ele>376</ele>
        <time>2022-09-26T14:17:36Z</time>
      </trkpt>
      <trkpt lat="48.16735" lon="6.41819">
        <ele>376</ele>
        <time>2022-09-26T14:17:37Z</time>
      </trkpt>
      <trkpt lat="48.16738" lon="6.41821">
        <ele>376</ele>
        <time>2022-09-26T14:17:38Z</time>
      </trkpt>
      <trkpt lat="48.16741" lon="6.41823">
        <ele>375</ele>
        <time>2022-09-26T14:17:39Z</time>
      </trkpt>
      <trkpt lat="48.16744" lon="6.41826">
        <ele>375</ele>
        <time>2022-09-26T14:17:40Z</time>
      </trkpt>
      <trkpt lat="48.16747" lon="6.41828">
        <ele>374</ele>
        <time>2022-09-26T14:17:41Z</time>
      </trkpt>
      <trkpt lat="48.16751" lon="6.41833">
        <ele>373</ele>
        <time>2022-09-26T14:17:42Z</time>
      </trkpt>
      <trkpt lat="48.16755" lon="6.41836">
        <ele>373</ele>
        <time>2022-09-26T14:17:43Z</time>
      </trkpt>
      <trkpt lat="48.16759" lon="6.41841">
        <ele>373</ele>
        <time>2022-09-26T14:17:44Z</time>
      </trkpt>
      <trkpt lat="48.16762" lon="6.41846">
        <ele>373</ele>
        <time>2022-09-26T14:17:45Z</time>
      </trkpt>
      <trkpt lat="48.16765" lon="6.41849">
        <ele>373</ele>
        <time>2022-09-26T14:17:46Z</time>
      </trkpt>
      <trkpt lat="48.16769" lon="6.41853">
        <ele>373</ele>
        <time>2022-09-26T14:17:47Z</time>
      </trkpt>
      <trkpt lat="48.16774" lon="6.41857">
        <ele>373</ele>
        <time>2022-09-26T14:17:48Z</time>
      </trkpt>
      <trkpt lat="48.16778" lon="6.41861">
        <ele>372</ele>
        <time>2022-09-26T14:17:49Z</time>
      </trkpt>
      <trkpt lat="48.16783" lon="6.41864">
        <ele>373</ele>
        <time>2022-09-26T14:17:50Z</time>
      </trkpt>
      <trkpt lat="48.16788" lon="6.41868">
        <ele>374</ele>
        <time>2022-09-26T14:17:51Z</time>
      </trkpt>
      <trkpt lat="48.16793" lon="6.41871">
        <ele>374</ele>
        <time>2022-09-26T14:17:52Z</time>
      </trkpt>
      <trkpt lat="48.16797" lon="6.41875">
        <ele>375</ele>
        <time>2022-09-26T14:17:53Z</time>
      </trkpt>
      <trkpt lat="48.16802" lon="6.41881">
        <ele>375</ele>
        <time>2022-09-26T14:17:54Z</time>
      </trkpt>
      <trkpt lat="48.16806" lon="6.41885">
        <ele>376</ele>
        <time>2022-09-26T14:17:55Z</time>
      </trkpt>
      <trkpt lat="48.16809" lon="6.41891">
        <ele>376</ele>
        <time>2022-09-26T14:17:56Z</time>
      </trkpt>
      <trkpt lat="48.16812" lon="6.41896">
        <ele>376</ele>
        <time>2022-09-26T14:17:57Z</time>
      </trkpt>
      <trkpt lat="48.16814" lon="6.419">
        <ele>376</ele>
        <time>2022-09-26T14:17:58Z</time>
      </trkpt>
      <trkpt lat="48.16817" lon="6.41906">
        <ele>376</ele>
        <time>2022-09-26T14:17:59Z</time>
      </trkpt>
      <trkpt lat="48.1682" lon="6.4191">
        <ele>376</ele>
        <time>2022-09-26T14:18:00Z</time>
      </trkpt>
      <trkpt lat="48.16823" lon="6.41914">
        <ele>376</ele>
        <time>2022-09-26T14:18:01Z</time>
      </trkpt>
      <trkpt lat="48.16826" lon="6.41919">
        <ele>376</ele>
        <time>2022-09-26T14:18:02Z</time>
      </trkpt>
      <trkpt lat="48.1683" lon="6.41925">
        <ele>375</ele>
        <time>2022-09-26T14:18:03Z</time>
      </trkpt>
      <trkpt lat="48.16833" lon="6.4193">
        <ele>375</ele>
        <time>2022-09-26T14:18:04Z</time>
      </trkpt>
      <trkpt lat="48.16837" lon="6.41934">
        <ele>373</ele>
        <time>2022-09-26T14:18:05Z</time>
      </trkpt>
      <trkpt lat="48.16842" lon="6.41937">
        <ele>372</ele>
        <time>2022-09-26T14:18:06Z</time>
      </trkpt>
      <trkpt lat="48.16846" lon="6.4194">
        <ele>370</ele>
        <time>2022-09-26T14:18:07Z</time>
      </trkpt>
      <trkpt lat="48.16851" lon="6.41943">
        <ele>368</ele>
        <time>2022-09-26T14:18:08Z</time>
      </trkpt>
      <trkpt lat="48.16857" lon="6.4195">
        <ele>366</ele>
        <time>2022-09-26T14:18:09Z</time>
      </trkpt>
      <trkpt lat="48.16862" lon="6.41955">
        <ele>364</ele>
        <time>2022-09-26T14:18:10Z</time>
      </trkpt>
      <trkpt lat="48.16867" lon="6.4196">
        <ele>363</ele>
        <time>2022-09-26T14:18:11Z</time>
      </trkpt>
      <trkpt lat="48.16872" lon="6.41964">
        <ele>362</ele>
        <time>2022-09-26T14:18:12Z</time>
      </trkpt>
      <trkpt lat="48.16877" lon="6.41965">
        <ele>361</ele>
        <time>2022-09-26T14:18:13Z</time>
      </trkpt>
      <trkpt lat="48.1688" lon="6.41961">
        <ele>361</ele>
        <time>2022-09-26T14:18:14Z</time>
      </trkpt>
      <trkpt lat="48.16883" lon="6.41958">
        <ele>360</ele>
        <time>2022-09-26T14:18:15Z</time>
      </trkpt>
      <trkpt lat="48.16886" lon="6.41954">
        <ele>360</ele>
        <time>2022-09-26T14:18:16Z</time>
      </trkpt>
      <trkpt lat="48.16887" lon="6.4195">
        <ele>360</ele>
        <time>2022-09-26T14:18:17Z</time>
      </trkpt>
      <trkpt lat="48.16888" lon="6.41947">
        <ele>361</ele>
        <time>2022-09-26T14:18:18Z</time>
      </trkpt>
      <trkpt lat="48.16887" lon="6.41943">
        <ele>361</ele>
        <time>2022-09-26T14:18:19Z</time>
      </trkpt>
      <trkpt lat="48.16887" lon="6.4194">
        <ele>361</ele>
        <time>2022-09-26T14:18:20Z</time>
      </trkpt>
      <trkpt lat="48.16887" lon="6.41935">
        <ele>361</ele>
        <time>2022-09-26T14:18:21Z</time>
      </trkpt>
      <trkpt lat="48.16887" lon="6.41931">
        <ele>362</ele>
        <time>2022-09-26T14:18:22Z</time>
      </trkpt>
      <trkpt lat="48.16887" lon="6.41927">
        <ele>362</ele>
        <time>2022-09-26T14:18:23Z</time>
      </trkpt>
      <trkpt lat="48.16887" lon="6.41923">
        <ele>362</ele>
        <time>2022-09-26T14:18:24Z</time>
      </trkpt>
      <trkpt lat="48.16888" lon="6.4192">
        <ele>362</ele>
        <time>2022-09-26T14:18:25Z</time>
      </trkpt>
      <trkpt lat="48.16889" lon="6.41917">
        <ele>362</ele>
        <time>2022-09-26T14:18:26Z</time>
      </trkpt>
      <trkpt lat="48.16889" lon="6.41914">
        <ele>363</ele>
        <time>2022-09-26T14:18:27Z</time>
      </trkpt>
      <trkpt lat="48.16888" lon="6.41912">
        <ele>363</ele>
        <time>2022-09-26T14:18:28Z</time>
      </trkpt>
      <trkpt lat="48.16888" lon="6.41909">
        <ele>363</ele>
        <time>2022-09-26T14:18:29Z</time>
      </trkpt>
      <trkpt lat="48.16887" lon="6.41906">
        <ele>364</ele>
        <time>2022-09-26T14:18:30Z</time>
      </trkpt>
      <trkpt lat="48.16887" lon="6.41903">
        <ele>364</ele>
        <time>2022-09-26T14:18:31Z</time>
      </trkpt>
      <trkpt lat="48.16886" lon="6.419">
        <ele>365</ele>
        <time>2022-09-26T14:18:32Z</time>
      </trkpt>
      <trkpt lat="48.16886" lon="6.41898">
        <ele>365</ele>
        <time>2022-09-26T14:18:33Z</time>
      </trkpt>
      <trkpt lat="48.16885" lon="6.41896">
        <ele>365</ele>
        <time>2022-09-26T14:18:34Z</time>
      </trkpt>
      <trkpt lat="48.16884" lon="6.41894">
        <ele>365</ele>
        <time>2022-09-26T14:18:35Z</time>
      </trkpt>
      <trkpt lat="48.16883" lon="6.41893">
        <ele>366</ele>
        <time>2022-09-26T14:18:36Z</time>
      </trkpt>
      <trkpt lat="48.16881" lon="6.41893">
        <ele>366</ele>
        <time>2022-09-26T14:18:37Z</time>
      </trkpt>
      <trkpt lat="48.16881" lon="6.41894">
        <ele>366</ele>
        <time>2022-09-26T14:18:38Z</time>
      </trkpt>
      <trkpt lat="48.16882" lon="6.41893">
        <ele>366</ele>
        <time>2022-09-26T14:18:39Z</time>
      </trkpt>
      <trkpt lat="48.16884" lon="6.41893">
        <ele>365</ele>
        <time>2022-09-26T14:18:40Z</time>
      </trkpt>
      <trkpt lat="48.16884" lon="6.41893">
        <ele>365</ele>
        <time>2022-09-26T14:18:41Z</time>
      </trkpt>
      <trkpt lat="48.16884" lon="6.41893">
        <ele>365</ele>
        <time>2022-09-26T14:18:42Z</time>
      </trkpt>
      <trkpt lat="48.16884" lon="6.41893">
        <ele>365</ele>
        <time>2022-09-26T14:18:43Z</time>
      </trkpt>
      <trkpt lat="48.16884" lon="6.41893">
        <ele>365</ele>
        <time>2022-09-26T14:18:44Z</time>
      </trkpt>
      <trkpt lat="48.16884" lon="6.41893">
        <ele>365</ele>
        <time>2022-09-26T14:18:45Z</time>
      </trkpt>
      <trkpt lat="48.16884" lon="6.41893">
        <ele>365</ele>
        <time>2022-09-26T14:18:46Z</time>
      </trkpt>
      <trkpt lat="48.16884" lon="6.41893">
        <ele>365</ele>
        <time>2022-09-26T14:18:47Z</time>
      </trkpt>
      <trkpt lat="48.16884" lon="6.41893">
        <ele>365</ele>
        <time>2022-09-26T14:18:49Z</time>
      </trkpt>
      <trkpt lat="48.16884" lon="6.41893">
        <ele>365</ele>
        <time>2022-09-26T14:18:52Z</time>
      </trkpt>
      <trkpt lat="48.16884" lon="6.41892">
        <ele>365</ele>
        <time>2022-09-26T14:18:53Z</time>
      </trkpt>
      <trkpt lat="48.16885" lon="6.41892">
        <ele>366</ele>
        <time>2022-09-26T14:18:54Z</time>
      </trkpt>
      <trkpt lat="48.16886" lon="6.41891">
        <ele>366</ele>
        <time>2022-09-26T14:21:04Z</time>
      </trkpt>
      <trkpt lat="48.16886" lon="6.41891">
        <ele>366</ele>
        <time>2022-09-26T14:21:05Z</time>
      </trkpt>
    </trkseg>
  </trk>
</gpx>